<?xml version="1.0" encoding="UTF-8" standalone="no" ?>
<gpx xmlns="http://www.topografix.com/GPX/1/1" xmlns:xsi="http://www.w3.org/2001/XMLSchema-instance" xsi:schemaLocation="http://www.topografix.com/GPX/1/1 http://www.topografix.com/GPX/1/1/gpx.xsd" version="1.1" creator="VisuGPX - https://www.visugpx.com">
  <metadata>
    <name>Les orpailleurs </name>
  </metadata>
  <trk>
    <name><![CDATA[Trace 1758352797000]]></name>
    <trkseg>
      <trkpt lat="42.98382" lon="1.13799">
        <ele>445</ele>
        <time>2025-09-20T07:19:57.000Z</time>
      </trkpt>
      <trkpt lat="42.98381" lon="1.13802">
        <ele>445</ele>
        <time>2025-09-20T07:23:05.000Z</time>
      </trkpt>
      <trkpt lat="42.98381" lon="1.13803">
        <ele>445</ele>
        <time>2025-09-20T07:23:06.000Z</time>
      </trkpt>
      <trkpt lat="42.98381" lon="1.13803">
        <ele>445</ele>
        <time>2025-09-20T07:23:07.000Z</time>
      </trkpt>
      <trkpt lat="42.98382" lon="1.13804">
        <ele>446</ele>
        <time>2025-09-20T07:23:08.000Z</time>
      </trkpt>
      <trkpt lat="42.98383" lon="1.13804">
        <ele>446</ele>
        <time>2025-09-20T07:23:09.000Z</time>
      </trkpt>
      <trkpt lat="42.98383" lon="1.13805">
        <ele>446</ele>
        <time>2025-09-20T07:23:10.000Z</time>
      </trkpt>
      <trkpt lat="42.98383" lon="1.13805">
        <ele>446</ele>
        <time>2025-09-20T07:23:11.000Z</time>
      </trkpt>
      <trkpt lat="42.98383" lon="1.13805">
        <ele>445</ele>
        <time>2025-09-20T07:24:37.000Z</time>
      </trkpt>
      <trkpt lat="42.98382" lon="1.13806">
        <ele>444</ele>
        <time>2025-09-20T07:24:38.000Z</time>
      </trkpt>
      <trkpt lat="42.98383" lon="1.13807">
        <ele>445</ele>
        <time>2025-09-20T07:24:39.000Z</time>
      </trkpt>
      <trkpt lat="42.98383" lon="1.13808">
        <ele>445</ele>
        <time>2025-09-20T07:24:40.000Z</time>
      </trkpt>
      <trkpt lat="42.98384" lon="1.13808">
        <ele>444</ele>
        <time>2025-09-20T07:24:41.000Z</time>
      </trkpt>
      <trkpt lat="42.98386" lon="1.13807">
        <ele>444</ele>
        <time>2025-09-20T07:24:42.000Z</time>
      </trkpt>
      <trkpt lat="42.98388" lon="1.13807">
        <ele>445</ele>
        <time>2025-09-20T07:24:43.000Z</time>
      </trkpt>
      <trkpt lat="42.9839" lon="1.13807">
        <ele>445</ele>
        <time>2025-09-20T07:24:44.000Z</time>
      </trkpt>
      <trkpt lat="42.98392" lon="1.13806">
        <ele>445</ele>
        <time>2025-09-20T07:24:45.000Z</time>
      </trkpt>
      <trkpt lat="42.98393" lon="1.13806">
        <ele>445</ele>
        <time>2025-09-20T07:24:46.000Z</time>
      </trkpt>
      <trkpt lat="42.98393" lon="1.13805">
        <ele>445</ele>
        <time>2025-09-20T07:24:47.000Z</time>
      </trkpt>
      <trkpt lat="42.98393" lon="1.13806">
        <ele>445</ele>
        <time>2025-09-20T07:24:48.000Z</time>
      </trkpt>
      <trkpt lat="42.98393" lon="1.13806">
        <ele>445</ele>
        <time>2025-09-20T07:24:49.000Z</time>
      </trkpt>
      <trkpt lat="42.98394" lon="1.13806">
        <ele>445</ele>
        <time>2025-09-20T07:24:50.000Z</time>
      </trkpt>
      <trkpt lat="42.98394" lon="1.13805">
        <ele>446</ele>
        <time>2025-09-20T07:24:51.000Z</time>
      </trkpt>
      <trkpt lat="42.98395" lon="1.13804">
        <ele>447</ele>
        <time>2025-09-20T07:24:52.000Z</time>
      </trkpt>
      <trkpt lat="42.98395" lon="1.13801">
        <ele>447</ele>
        <time>2025-09-20T07:24:53.000Z</time>
      </trkpt>
      <trkpt lat="42.98394" lon="1.13799">
        <ele>447</ele>
        <time>2025-09-20T07:24:54.000Z</time>
      </trkpt>
      <trkpt lat="42.98394" lon="1.13796">
        <ele>447</ele>
        <time>2025-09-20T07:24:55.000Z</time>
      </trkpt>
      <trkpt lat="42.98394" lon="1.13792">
        <ele>446</ele>
        <time>2025-09-20T07:24:56.000Z</time>
      </trkpt>
      <trkpt lat="42.98395" lon="1.13788">
        <ele>447</ele>
        <time>2025-09-20T07:24:57.000Z</time>
      </trkpt>
      <trkpt lat="42.98395" lon="1.13783">
        <ele>447</ele>
        <time>2025-09-20T07:24:58.000Z</time>
      </trkpt>
      <trkpt lat="42.98394" lon="1.13778">
        <ele>447</ele>
        <time>2025-09-20T07:24:59.000Z</time>
      </trkpt>
      <trkpt lat="42.98394" lon="1.13773">
        <ele>448</ele>
        <time>2025-09-20T07:25:00.000Z</time>
      </trkpt>
      <trkpt lat="42.98393" lon="1.13769">
        <ele>448</ele>
        <time>2025-09-20T07:25:01.000Z</time>
      </trkpt>
      <trkpt lat="42.98392" lon="1.13764">
        <ele>448</ele>
        <time>2025-09-20T07:25:02.000Z</time>
      </trkpt>
      <trkpt lat="42.98392" lon="1.1376">
        <ele>447</ele>
        <time>2025-09-20T07:25:03.000Z</time>
      </trkpt>
      <trkpt lat="42.9839" lon="1.13754">
        <ele>447</ele>
        <time>2025-09-20T07:25:04.000Z</time>
      </trkpt>
      <trkpt lat="42.98389" lon="1.13749">
        <ele>447</ele>
        <time>2025-09-20T07:25:05.000Z</time>
      </trkpt>
      <trkpt lat="42.98389" lon="1.13745">
        <ele>447</ele>
        <time>2025-09-20T07:25:06.000Z</time>
      </trkpt>
      <trkpt lat="42.98389" lon="1.1374">
        <ele>447</ele>
        <time>2025-09-20T07:25:07.000Z</time>
      </trkpt>
      <trkpt lat="42.98388" lon="1.13735">
        <ele>447</ele>
        <time>2025-09-20T07:25:08.000Z</time>
      </trkpt>
      <trkpt lat="42.98386" lon="1.13731">
        <ele>447</ele>
        <time>2025-09-20T07:25:09.000Z</time>
      </trkpt>
      <trkpt lat="42.98385" lon="1.13727">
        <ele>446</ele>
        <time>2025-09-20T07:25:10.000Z</time>
      </trkpt>
      <trkpt lat="42.98383" lon="1.13723">
        <ele>446</ele>
        <time>2025-09-20T07:25:11.000Z</time>
      </trkpt>
      <trkpt lat="42.98382" lon="1.13719">
        <ele>446</ele>
        <time>2025-09-20T07:25:12.000Z</time>
      </trkpt>
      <trkpt lat="42.9838" lon="1.13714">
        <ele>446</ele>
        <time>2025-09-20T07:25:13.000Z</time>
      </trkpt>
      <trkpt lat="42.98379" lon="1.1371">
        <ele>446</ele>
        <time>2025-09-20T07:25:14.000Z</time>
      </trkpt>
      <trkpt lat="42.98377" lon="1.13706">
        <ele>446</ele>
        <time>2025-09-20T07:25:15.000Z</time>
      </trkpt>
      <trkpt lat="42.98376" lon="1.13702">
        <ele>446</ele>
        <time>2025-09-20T07:25:16.000Z</time>
      </trkpt>
      <trkpt lat="42.98375" lon="1.13698">
        <ele>446</ele>
        <time>2025-09-20T07:25:17.000Z</time>
      </trkpt>
      <trkpt lat="42.98374" lon="1.13695">
        <ele>446</ele>
        <time>2025-09-20T07:25:18.000Z</time>
      </trkpt>
      <trkpt lat="42.98373" lon="1.13692">
        <ele>446</ele>
        <time>2025-09-20T07:25:19.000Z</time>
      </trkpt>
      <trkpt lat="42.98372" lon="1.13689">
        <ele>446</ele>
        <time>2025-09-20T07:25:20.000Z</time>
      </trkpt>
      <trkpt lat="42.98371" lon="1.13686">
        <ele>446</ele>
        <time>2025-09-20T07:25:21.000Z</time>
      </trkpt>
      <trkpt lat="42.98369" lon="1.13683">
        <ele>446</ele>
        <time>2025-09-20T07:25:22.000Z</time>
      </trkpt>
      <trkpt lat="42.98368" lon="1.1368">
        <ele>447</ele>
        <time>2025-09-20T07:25:23.000Z</time>
      </trkpt>
      <trkpt lat="42.98366" lon="1.13677">
        <ele>446</ele>
        <time>2025-09-20T07:25:24.000Z</time>
      </trkpt>
      <trkpt lat="42.98365" lon="1.13674">
        <ele>446</ele>
        <time>2025-09-20T07:25:25.000Z</time>
      </trkpt>
      <trkpt lat="42.98363" lon="1.1367">
        <ele>446</ele>
        <time>2025-09-20T07:25:26.000Z</time>
      </trkpt>
      <trkpt lat="42.98361" lon="1.13667">
        <ele>446</ele>
        <time>2025-09-20T07:25:27.000Z</time>
      </trkpt>
      <trkpt lat="42.9836" lon="1.13663">
        <ele>446</ele>
        <time>2025-09-20T07:25:28.000Z</time>
      </trkpt>
      <trkpt lat="42.98359" lon="1.1366">
        <ele>447</ele>
        <time>2025-09-20T07:25:29.000Z</time>
      </trkpt>
      <trkpt lat="42.98357" lon="1.13656">
        <ele>447</ele>
        <time>2025-09-20T07:25:30.000Z</time>
      </trkpt>
      <trkpt lat="42.98356" lon="1.13653">
        <ele>447</ele>
        <time>2025-09-20T07:25:31.000Z</time>
      </trkpt>
      <trkpt lat="42.98355" lon="1.1365">
        <ele>447</ele>
        <time>2025-09-20T07:25:32.000Z</time>
      </trkpt>
      <trkpt lat="42.98354" lon="1.13647">
        <ele>447</ele>
        <time>2025-09-20T07:25:33.000Z</time>
      </trkpt>
      <trkpt lat="42.98352" lon="1.13644">
        <ele>447</ele>
        <time>2025-09-20T07:25:34.000Z</time>
      </trkpt>
      <trkpt lat="42.98351" lon="1.1364">
        <ele>447</ele>
        <time>2025-09-20T07:25:35.000Z</time>
      </trkpt>
      <trkpt lat="42.9835" lon="1.13637">
        <ele>447</ele>
        <time>2025-09-20T07:25:36.000Z</time>
      </trkpt>
      <trkpt lat="42.98349" lon="1.13633">
        <ele>447</ele>
        <time>2025-09-20T07:25:37.000Z</time>
      </trkpt>
      <trkpt lat="42.98347" lon="1.13631">
        <ele>447</ele>
        <time>2025-09-20T07:25:38.000Z</time>
      </trkpt>
      <trkpt lat="42.98346" lon="1.13628">
        <ele>447</ele>
        <time>2025-09-20T07:25:39.000Z</time>
      </trkpt>
      <trkpt lat="42.98345" lon="1.13625">
        <ele>447</ele>
        <time>2025-09-20T07:25:40.000Z</time>
      </trkpt>
      <trkpt lat="42.98344" lon="1.13622">
        <ele>447</ele>
        <time>2025-09-20T07:25:41.000Z</time>
      </trkpt>
      <trkpt lat="42.98343" lon="1.13619">
        <ele>447</ele>
        <time>2025-09-20T07:25:42.000Z</time>
      </trkpt>
      <trkpt lat="42.98341" lon="1.13616">
        <ele>447</ele>
        <time>2025-09-20T07:25:43.000Z</time>
      </trkpt>
      <trkpt lat="42.9834" lon="1.13612">
        <ele>447</ele>
        <time>2025-09-20T07:25:44.000Z</time>
      </trkpt>
      <trkpt lat="42.98339" lon="1.13609">
        <ele>447</ele>
        <time>2025-09-20T07:25:45.000Z</time>
      </trkpt>
      <trkpt lat="42.98337" lon="1.13605">
        <ele>446</ele>
        <time>2025-09-20T07:25:46.000Z</time>
      </trkpt>
      <trkpt lat="42.98336" lon="1.13601">
        <ele>446</ele>
        <time>2025-09-20T07:25:47.000Z</time>
      </trkpt>
      <trkpt lat="42.98334" lon="1.13597">
        <ele>447</ele>
        <time>2025-09-20T07:25:48.000Z</time>
      </trkpt>
      <trkpt lat="42.98332" lon="1.13593">
        <ele>447</ele>
        <time>2025-09-20T07:25:49.000Z</time>
      </trkpt>
      <trkpt lat="42.9833" lon="1.1359">
        <ele>447</ele>
        <time>2025-09-20T07:25:50.000Z</time>
      </trkpt>
      <trkpt lat="42.98329" lon="1.13586">
        <ele>447</ele>
        <time>2025-09-20T07:25:51.000Z</time>
      </trkpt>
      <trkpt lat="42.98327" lon="1.13582">
        <ele>447</ele>
        <time>2025-09-20T07:25:52.000Z</time>
      </trkpt>
      <trkpt lat="42.98326" lon="1.13577">
        <ele>448</ele>
        <time>2025-09-20T07:25:53.000Z</time>
      </trkpt>
      <trkpt lat="42.98325" lon="1.13572">
        <ele>447</ele>
        <time>2025-09-20T07:25:54.000Z</time>
      </trkpt>
      <trkpt lat="42.98323" lon="1.13567">
        <ele>448</ele>
        <time>2025-09-20T07:25:55.000Z</time>
      </trkpt>
      <trkpt lat="42.98321" lon="1.13562">
        <ele>448</ele>
        <time>2025-09-20T07:25:56.000Z</time>
      </trkpt>
      <trkpt lat="42.98319" lon="1.13557">
        <ele>448</ele>
        <time>2025-09-20T07:25:57.000Z</time>
      </trkpt>
      <trkpt lat="42.98317" lon="1.13552">
        <ele>448</ele>
        <time>2025-09-20T07:25:58.000Z</time>
      </trkpt>
      <trkpt lat="42.98315" lon="1.13547">
        <ele>449</ele>
        <time>2025-09-20T07:25:59.000Z</time>
      </trkpt>
      <trkpt lat="42.98313" lon="1.13542">
        <ele>449</ele>
        <time>2025-09-20T07:26:00.000Z</time>
      </trkpt>
      <trkpt lat="42.98311" lon="1.13537">
        <ele>449</ele>
        <time>2025-09-20T07:26:01.000Z</time>
      </trkpt>
      <trkpt lat="42.9831" lon="1.13532">
        <ele>449</ele>
        <time>2025-09-20T07:26:02.000Z</time>
      </trkpt>
      <trkpt lat="42.98308" lon="1.13528">
        <ele>449</ele>
        <time>2025-09-20T07:26:03.000Z</time>
      </trkpt>
      <trkpt lat="42.98306" lon="1.13523">
        <ele>449</ele>
        <time>2025-09-20T07:26:04.000Z</time>
      </trkpt>
      <trkpt lat="42.98304" lon="1.13519">
        <ele>449</ele>
        <time>2025-09-20T07:26:05.000Z</time>
      </trkpt>
      <trkpt lat="42.98301" lon="1.13515">
        <ele>449</ele>
        <time>2025-09-20T07:26:06.000Z</time>
      </trkpt>
      <trkpt lat="42.983" lon="1.13512">
        <ele>449</ele>
        <time>2025-09-20T07:26:07.000Z</time>
      </trkpt>
      <trkpt lat="42.98298" lon="1.13508">
        <ele>449</ele>
        <time>2025-09-20T07:26:08.000Z</time>
      </trkpt>
      <trkpt lat="42.98296" lon="1.13505">
        <ele>449</ele>
        <time>2025-09-20T07:26:09.000Z</time>
      </trkpt>
      <trkpt lat="42.98295" lon="1.13502">
        <ele>449</ele>
        <time>2025-09-20T07:26:10.000Z</time>
      </trkpt>
      <trkpt lat="42.98293" lon="1.13499">
        <ele>449</ele>
        <time>2025-09-20T07:26:11.000Z</time>
      </trkpt>
      <trkpt lat="42.9829" lon="1.13496">
        <ele>449</ele>
        <time>2025-09-20T07:26:12.000Z</time>
      </trkpt>
      <trkpt lat="42.98287" lon="1.13493">
        <ele>449</ele>
        <time>2025-09-20T07:26:13.000Z</time>
      </trkpt>
      <trkpt lat="42.98285" lon="1.1349">
        <ele>449</ele>
        <time>2025-09-20T07:26:14.000Z</time>
      </trkpt>
      <trkpt lat="42.98282" lon="1.13486">
        <ele>449</ele>
        <time>2025-09-20T07:26:15.000Z</time>
      </trkpt>
      <trkpt lat="42.98279" lon="1.13483">
        <ele>449</ele>
        <time>2025-09-20T07:26:16.000Z</time>
      </trkpt>
      <trkpt lat="42.98276" lon="1.1348">
        <ele>448</ele>
        <time>2025-09-20T07:26:17.000Z</time>
      </trkpt>
      <trkpt lat="42.98274" lon="1.13477">
        <ele>448</ele>
        <time>2025-09-20T07:26:18.000Z</time>
      </trkpt>
      <trkpt lat="42.98271" lon="1.13474">
        <ele>448</ele>
        <time>2025-09-20T07:26:19.000Z</time>
      </trkpt>
      <trkpt lat="42.98268" lon="1.13472">
        <ele>448</ele>
        <time>2025-09-20T07:26:20.000Z</time>
      </trkpt>
      <trkpt lat="42.98265" lon="1.1347">
        <ele>449</ele>
        <time>2025-09-20T07:26:21.000Z</time>
      </trkpt>
      <trkpt lat="42.98263" lon="1.13466">
        <ele>449</ele>
        <time>2025-09-20T07:26:22.000Z</time>
      </trkpt>
      <trkpt lat="42.9826" lon="1.13464">
        <ele>449</ele>
        <time>2025-09-20T07:26:23.000Z</time>
      </trkpt>
      <trkpt lat="42.98257" lon="1.1346">
        <ele>449</ele>
        <time>2025-09-20T07:26:24.000Z</time>
      </trkpt>
      <trkpt lat="42.98254" lon="1.13456">
        <ele>449</ele>
        <time>2025-09-20T07:26:25.000Z</time>
      </trkpt>
      <trkpt lat="42.98252" lon="1.13452">
        <ele>449</ele>
        <time>2025-09-20T07:26:26.000Z</time>
      </trkpt>
      <trkpt lat="42.98249" lon="1.13449">
        <ele>449</ele>
        <time>2025-09-20T07:26:27.000Z</time>
      </trkpt>
      <trkpt lat="42.98247" lon="1.13445">
        <ele>449</ele>
        <time>2025-09-20T07:26:28.000Z</time>
      </trkpt>
      <trkpt lat="42.98244" lon="1.13442">
        <ele>449</ele>
        <time>2025-09-20T07:26:29.000Z</time>
      </trkpt>
      <trkpt lat="42.98241" lon="1.13438">
        <ele>449</ele>
        <time>2025-09-20T07:26:30.000Z</time>
      </trkpt>
      <trkpt lat="42.98239" lon="1.13435">
        <ele>450</ele>
        <time>2025-09-20T07:26:31.000Z</time>
      </trkpt>
      <trkpt lat="42.98237" lon="1.13431">
        <ele>450</ele>
        <time>2025-09-20T07:26:32.000Z</time>
      </trkpt>
      <trkpt lat="42.98234" lon="1.13427">
        <ele>450</ele>
        <time>2025-09-20T07:26:33.000Z</time>
      </trkpt>
      <trkpt lat="42.98232" lon="1.13423">
        <ele>450</ele>
        <time>2025-09-20T07:26:34.000Z</time>
      </trkpt>
      <trkpt lat="42.9823" lon="1.1342">
        <ele>450</ele>
        <time>2025-09-20T07:26:35.000Z</time>
      </trkpt>
      <trkpt lat="42.98227" lon="1.13416">
        <ele>450</ele>
        <time>2025-09-20T07:26:36.000Z</time>
      </trkpt>
      <trkpt lat="42.98225" lon="1.13412">
        <ele>450</ele>
        <time>2025-09-20T07:26:37.000Z</time>
      </trkpt>
      <trkpt lat="42.98223" lon="1.13409">
        <ele>451</ele>
        <time>2025-09-20T07:26:38.000Z</time>
      </trkpt>
      <trkpt lat="42.98221" lon="1.13406">
        <ele>451</ele>
        <time>2025-09-20T07:26:39.000Z</time>
      </trkpt>
      <trkpt lat="42.98219" lon="1.13404">
        <ele>451</ele>
        <time>2025-09-20T07:26:40.000Z</time>
      </trkpt>
      <trkpt lat="42.98217" lon="1.134">
        <ele>451</ele>
        <time>2025-09-20T07:26:41.000Z</time>
      </trkpt>
      <trkpt lat="42.98215" lon="1.13396">
        <ele>451</ele>
        <time>2025-09-20T07:26:42.000Z</time>
      </trkpt>
      <trkpt lat="42.98212" lon="1.13393">
        <ele>451</ele>
        <time>2025-09-20T07:26:43.000Z</time>
      </trkpt>
      <trkpt lat="42.9821" lon="1.1339">
        <ele>451</ele>
        <time>2025-09-20T07:26:44.000Z</time>
      </trkpt>
      <trkpt lat="42.98207" lon="1.13387">
        <ele>451</ele>
        <time>2025-09-20T07:26:45.000Z</time>
      </trkpt>
      <trkpt lat="42.98203" lon="1.13385">
        <ele>451</ele>
        <time>2025-09-20T07:26:46.000Z</time>
      </trkpt>
      <trkpt lat="42.982" lon="1.13383">
        <ele>451</ele>
        <time>2025-09-20T07:26:47.000Z</time>
      </trkpt>
      <trkpt lat="42.98198" lon="1.13381">
        <ele>451</ele>
        <time>2025-09-20T07:26:48.000Z</time>
      </trkpt>
      <trkpt lat="42.98194" lon="1.13379">
        <ele>452</ele>
        <time>2025-09-20T07:26:49.000Z</time>
      </trkpt>
      <trkpt lat="42.98191" lon="1.13376">
        <ele>452</ele>
        <time>2025-09-20T07:26:50.000Z</time>
      </trkpt>
      <trkpt lat="42.98188" lon="1.13374">
        <ele>452</ele>
        <time>2025-09-20T07:26:51.000Z</time>
      </trkpt>
      <trkpt lat="42.98185" lon="1.13372">
        <ele>452</ele>
        <time>2025-09-20T07:26:52.000Z</time>
      </trkpt>
      <trkpt lat="42.98181" lon="1.13371">
        <ele>453</ele>
        <time>2025-09-20T07:26:53.000Z</time>
      </trkpt>
      <trkpt lat="42.98178" lon="1.13368">
        <ele>454</ele>
        <time>2025-09-20T07:26:54.000Z</time>
      </trkpt>
      <trkpt lat="42.98175" lon="1.13366">
        <ele>454</ele>
        <time>2025-09-20T07:26:55.000Z</time>
      </trkpt>
      <trkpt lat="42.98172" lon="1.13363">
        <ele>454</ele>
        <time>2025-09-20T07:26:56.000Z</time>
      </trkpt>
      <trkpt lat="42.98169" lon="1.1336">
        <ele>454</ele>
        <time>2025-09-20T07:26:57.000Z</time>
      </trkpt>
      <trkpt lat="42.98166" lon="1.13357">
        <ele>454</ele>
        <time>2025-09-20T07:26:58.000Z</time>
      </trkpt>
      <trkpt lat="42.98163" lon="1.13355">
        <ele>454</ele>
        <time>2025-09-20T07:26:59.000Z</time>
      </trkpt>
      <trkpt lat="42.9816" lon="1.13352">
        <ele>454</ele>
        <time>2025-09-20T07:27:00.000Z</time>
      </trkpt>
      <trkpt lat="42.98158" lon="1.1335">
        <ele>454</ele>
        <time>2025-09-20T07:27:01.000Z</time>
      </trkpt>
      <trkpt lat="42.98155" lon="1.13348">
        <ele>454</ele>
        <time>2025-09-20T07:27:02.000Z</time>
      </trkpt>
      <trkpt lat="42.98152" lon="1.13347">
        <ele>454</ele>
        <time>2025-09-20T07:27:03.000Z</time>
      </trkpt>
      <trkpt lat="42.98149" lon="1.13345">
        <ele>454</ele>
        <time>2025-09-20T07:27:04.000Z</time>
      </trkpt>
      <trkpt lat="42.98146" lon="1.13342">
        <ele>453</ele>
        <time>2025-09-20T07:27:05.000Z</time>
      </trkpt>
      <trkpt lat="42.98145" lon="1.13339">
        <ele>454</ele>
        <time>2025-09-20T07:27:06.000Z</time>
      </trkpt>
      <trkpt lat="42.98143" lon="1.13338">
        <ele>453</ele>
        <time>2025-09-20T07:27:07.000Z</time>
      </trkpt>
      <trkpt lat="42.9814" lon="1.13336">
        <ele>454</ele>
        <time>2025-09-20T07:27:08.000Z</time>
      </trkpt>
      <trkpt lat="42.98138" lon="1.13335">
        <ele>454</ele>
        <time>2025-09-20T07:27:09.000Z</time>
      </trkpt>
      <trkpt lat="42.98135" lon="1.13333">
        <ele>454</ele>
        <time>2025-09-20T07:27:10.000Z</time>
      </trkpt>
      <trkpt lat="42.98133" lon="1.13332">
        <ele>454</ele>
        <time>2025-09-20T07:27:11.000Z</time>
      </trkpt>
      <trkpt lat="42.98131" lon="1.13331">
        <ele>454</ele>
        <time>2025-09-20T07:27:12.000Z</time>
      </trkpt>
      <trkpt lat="42.98129" lon="1.13329">
        <ele>453</ele>
        <time>2025-09-20T07:27:13.000Z</time>
      </trkpt>
      <trkpt lat="42.98127" lon="1.13328">
        <ele>453</ele>
        <time>2025-09-20T07:27:14.000Z</time>
      </trkpt>
      <trkpt lat="42.98125" lon="1.13328">
        <ele>453</ele>
        <time>2025-09-20T07:27:15.000Z</time>
      </trkpt>
      <trkpt lat="42.98123" lon="1.13326">
        <ele>453</ele>
        <time>2025-09-20T07:27:16.000Z</time>
      </trkpt>
      <trkpt lat="42.98121" lon="1.13326">
        <ele>453</ele>
        <time>2025-09-20T07:27:17.000Z</time>
      </trkpt>
      <trkpt lat="42.98118" lon="1.13324">
        <ele>453</ele>
        <time>2025-09-20T07:27:18.000Z</time>
      </trkpt>
      <trkpt lat="42.98115" lon="1.13322">
        <ele>453</ele>
        <time>2025-09-20T07:27:19.000Z</time>
      </trkpt>
      <trkpt lat="42.98112" lon="1.1332">
        <ele>453</ele>
        <time>2025-09-20T07:27:20.000Z</time>
      </trkpt>
      <trkpt lat="42.98108" lon="1.13319">
        <ele>453</ele>
        <time>2025-09-20T07:27:21.000Z</time>
      </trkpt>
      <trkpt lat="42.98105" lon="1.13317">
        <ele>453</ele>
        <time>2025-09-20T07:27:22.000Z</time>
      </trkpt>
      <trkpt lat="42.98102" lon="1.13315">
        <ele>454</ele>
        <time>2025-09-20T07:27:23.000Z</time>
      </trkpt>
      <trkpt lat="42.981" lon="1.13314">
        <ele>454</ele>
        <time>2025-09-20T07:27:24.000Z</time>
      </trkpt>
      <trkpt lat="42.98097" lon="1.13311">
        <ele>454</ele>
        <time>2025-09-20T07:27:25.000Z</time>
      </trkpt>
      <trkpt lat="42.98094" lon="1.13309">
        <ele>454</ele>
        <time>2025-09-20T07:27:26.000Z</time>
      </trkpt>
      <trkpt lat="42.98091" lon="1.13308">
        <ele>454</ele>
        <time>2025-09-20T07:27:27.000Z</time>
      </trkpt>
      <trkpt lat="42.98089" lon="1.13306">
        <ele>454</ele>
        <time>2025-09-20T07:27:28.000Z</time>
      </trkpt>
      <trkpt lat="42.98087" lon="1.13305">
        <ele>454</ele>
        <time>2025-09-20T07:27:29.000Z</time>
      </trkpt>
      <trkpt lat="42.98085" lon="1.13304">
        <ele>454</ele>
        <time>2025-09-20T07:27:30.000Z</time>
      </trkpt>
      <trkpt lat="42.98083" lon="1.13303">
        <ele>454</ele>
        <time>2025-09-20T07:27:31.000Z</time>
      </trkpt>
      <trkpt lat="42.98081" lon="1.13302">
        <ele>455</ele>
        <time>2025-09-20T07:27:32.000Z</time>
      </trkpt>
      <trkpt lat="42.9808" lon="1.13301">
        <ele>455</ele>
        <time>2025-09-20T07:27:33.000Z</time>
      </trkpt>
      <trkpt lat="42.98078" lon="1.13299">
        <ele>456</ele>
        <time>2025-09-20T07:27:34.000Z</time>
      </trkpt>
      <trkpt lat="42.98075" lon="1.13298">
        <ele>456</ele>
        <time>2025-09-20T07:27:35.000Z</time>
      </trkpt>
      <trkpt lat="42.98072" lon="1.13299">
        <ele>455</ele>
        <time>2025-09-20T07:27:36.000Z</time>
      </trkpt>
      <trkpt lat="42.9807" lon="1.13301">
        <ele>455</ele>
        <time>2025-09-20T07:27:37.000Z</time>
      </trkpt>
      <trkpt lat="42.98068" lon="1.13303">
        <ele>455</ele>
        <time>2025-09-20T07:27:38.000Z</time>
      </trkpt>
      <trkpt lat="42.98066" lon="1.13306">
        <ele>455</ele>
        <time>2025-09-20T07:27:39.000Z</time>
      </trkpt>
      <trkpt lat="42.98066" lon="1.13308">
        <ele>455</ele>
        <time>2025-09-20T07:27:40.000Z</time>
      </trkpt>
      <trkpt lat="42.98065" lon="1.13311">
        <ele>455</ele>
        <time>2025-09-20T07:27:41.000Z</time>
      </trkpt>
      <trkpt lat="42.98064" lon="1.13313">
        <ele>456</ele>
        <time>2025-09-20T07:27:42.000Z</time>
      </trkpt>
      <trkpt lat="42.98063" lon="1.13315">
        <ele>457</ele>
        <time>2025-09-20T07:27:43.000Z</time>
      </trkpt>
      <trkpt lat="42.98063" lon="1.13317">
        <ele>457</ele>
        <time>2025-09-20T07:27:44.000Z</time>
      </trkpt>
      <trkpt lat="42.98063" lon="1.13319">
        <ele>457</ele>
        <time>2025-09-20T07:27:45.000Z</time>
      </trkpt>
      <trkpt lat="42.98063" lon="1.1332">
        <ele>457</ele>
        <time>2025-09-20T07:27:46.000Z</time>
      </trkpt>
      <trkpt lat="42.98063" lon="1.13321">
        <ele>457</ele>
        <time>2025-09-20T07:27:47.000Z</time>
      </trkpt>
      <trkpt lat="42.98064" lon="1.13322">
        <ele>457</ele>
        <time>2025-09-20T07:27:48.000Z</time>
      </trkpt>
      <trkpt lat="42.98064" lon="1.13322">
        <ele>457</ele>
        <time>2025-09-20T07:27:49.000Z</time>
      </trkpt>
      <trkpt lat="42.98064" lon="1.13322">
        <ele>457</ele>
        <time>2025-09-20T07:27:50.000Z</time>
      </trkpt>
      <trkpt lat="42.98064" lon="1.13322">
        <ele>457</ele>
        <time>2025-09-20T07:27:51.000Z</time>
      </trkpt>
      <trkpt lat="42.98064" lon="1.13322">
        <ele>457</ele>
        <time>2025-09-20T07:27:52.000Z</time>
      </trkpt>
      <trkpt lat="42.98065" lon="1.13322">
        <ele>457</ele>
        <time>2025-09-20T07:27:53.000Z</time>
      </trkpt>
      <trkpt lat="42.98065" lon="1.13324">
        <ele>457</ele>
        <time>2025-09-20T07:27:54.000Z</time>
      </trkpt>
      <trkpt lat="42.98065" lon="1.13326">
        <ele>457</ele>
        <time>2025-09-20T07:27:55.000Z</time>
      </trkpt>
      <trkpt lat="42.98065" lon="1.13327">
        <ele>457</ele>
        <time>2025-09-20T07:27:56.000Z</time>
      </trkpt>
      <trkpt lat="42.98065" lon="1.13329">
        <ele>457</ele>
        <time>2025-09-20T07:27:57.000Z</time>
      </trkpt>
      <trkpt lat="42.98065" lon="1.1333">
        <ele>457</ele>
        <time>2025-09-20T07:27:58.000Z</time>
      </trkpt>
      <trkpt lat="42.98065" lon="1.13333">
        <ele>454</ele>
        <time>2025-09-20T07:28:38.000Z</time>
      </trkpt>
      <trkpt lat="42.98065" lon="1.13336">
        <ele>454</ele>
        <time>2025-09-20T07:28:39.000Z</time>
      </trkpt>
      <trkpt lat="42.98065" lon="1.13339">
        <ele>454</ele>
        <time>2025-09-20T07:28:40.000Z</time>
      </trkpt>
      <trkpt lat="42.98063" lon="1.13342">
        <ele>454</ele>
        <time>2025-09-20T07:28:41.000Z</time>
      </trkpt>
      <trkpt lat="42.98062" lon="1.13345">
        <ele>455</ele>
        <time>2025-09-20T07:28:42.000Z</time>
      </trkpt>
      <trkpt lat="42.98062" lon="1.13347">
        <ele>455</ele>
        <time>2025-09-20T07:28:43.000Z</time>
      </trkpt>
      <trkpt lat="42.98061" lon="1.1335">
        <ele>455</ele>
        <time>2025-09-20T07:28:44.000Z</time>
      </trkpt>
      <trkpt lat="42.9806" lon="1.13353">
        <ele>456</ele>
        <time>2025-09-20T07:28:45.000Z</time>
      </trkpt>
      <trkpt lat="42.98059" lon="1.13356">
        <ele>456</ele>
        <time>2025-09-20T07:28:46.000Z</time>
      </trkpt>
      <trkpt lat="42.98058" lon="1.13358">
        <ele>456</ele>
        <time>2025-09-20T07:28:47.000Z</time>
      </trkpt>
      <trkpt lat="42.98056" lon="1.1336">
        <ele>456</ele>
        <time>2025-09-20T07:28:48.000Z</time>
      </trkpt>
      <trkpt lat="42.98055" lon="1.13362">
        <ele>456</ele>
        <time>2025-09-20T07:28:49.000Z</time>
      </trkpt>
      <trkpt lat="42.98053" lon="1.13365">
        <ele>457</ele>
        <time>2025-09-20T07:28:50.000Z</time>
      </trkpt>
      <trkpt lat="42.98052" lon="1.13367">
        <ele>457</ele>
        <time>2025-09-20T07:28:51.000Z</time>
      </trkpt>
      <trkpt lat="42.9805" lon="1.13369">
        <ele>457</ele>
        <time>2025-09-20T07:28:52.000Z</time>
      </trkpt>
      <trkpt lat="42.98049" lon="1.13371">
        <ele>457</ele>
        <time>2025-09-20T07:28:53.000Z</time>
      </trkpt>
      <trkpt lat="42.98047" lon="1.13373">
        <ele>457</ele>
        <time>2025-09-20T07:28:54.000Z</time>
      </trkpt>
      <trkpt lat="42.98046" lon="1.13375">
        <ele>457</ele>
        <time>2025-09-20T07:28:55.000Z</time>
      </trkpt>
      <trkpt lat="42.98044" lon="1.13378">
        <ele>457</ele>
        <time>2025-09-20T07:28:56.000Z</time>
      </trkpt>
      <trkpt lat="42.98043" lon="1.1338">
        <ele>457</ele>
        <time>2025-09-20T07:28:57.000Z</time>
      </trkpt>
      <trkpt lat="42.98041" lon="1.13383">
        <ele>458</ele>
        <time>2025-09-20T07:28:58.000Z</time>
      </trkpt>
      <trkpt lat="42.98039" lon="1.13386">
        <ele>458</ele>
        <time>2025-09-20T07:28:59.000Z</time>
      </trkpt>
      <trkpt lat="42.98037" lon="1.13388">
        <ele>459</ele>
        <time>2025-09-20T07:29:00.000Z</time>
      </trkpt>
      <trkpt lat="42.98035" lon="1.13392">
        <ele>459</ele>
        <time>2025-09-20T07:29:01.000Z</time>
      </trkpt>
      <trkpt lat="42.98033" lon="1.13395">
        <ele>459</ele>
        <time>2025-09-20T07:29:02.000Z</time>
      </trkpt>
      <trkpt lat="42.98032" lon="1.13397">
        <ele>460</ele>
        <time>2025-09-20T07:29:03.000Z</time>
      </trkpt>
      <trkpt lat="42.98029" lon="1.134">
        <ele>460</ele>
        <time>2025-09-20T07:29:04.000Z</time>
      </trkpt>
      <trkpt lat="42.98028" lon="1.13403">
        <ele>460</ele>
        <time>2025-09-20T07:29:05.000Z</time>
      </trkpt>
      <trkpt lat="42.98026" lon="1.13406">
        <ele>461</ele>
        <time>2025-09-20T07:29:06.000Z</time>
      </trkpt>
      <trkpt lat="42.98024" lon="1.13407">
        <ele>461</ele>
        <time>2025-09-20T07:29:07.000Z</time>
      </trkpt>
      <trkpt lat="42.98021" lon="1.13405">
        <ele>461</ele>
        <time>2025-09-20T07:29:08.000Z</time>
      </trkpt>
      <trkpt lat="42.98019" lon="1.13402">
        <ele>462</ele>
        <time>2025-09-20T07:29:09.000Z</time>
      </trkpt>
      <trkpt lat="42.98016" lon="1.13399">
        <ele>463</ele>
        <time>2025-09-20T07:29:10.000Z</time>
      </trkpt>
      <trkpt lat="42.98014" lon="1.13397">
        <ele>464</ele>
        <time>2025-09-20T07:29:11.000Z</time>
      </trkpt>
      <trkpt lat="42.98013" lon="1.13394">
        <ele>465</ele>
        <time>2025-09-20T07:29:12.000Z</time>
      </trkpt>
      <trkpt lat="42.98011" lon="1.13393">
        <ele>465</ele>
        <time>2025-09-20T07:29:13.000Z</time>
      </trkpt>
      <trkpt lat="42.98011" lon="1.13392">
        <ele>466</ele>
        <time>2025-09-20T07:29:14.000Z</time>
      </trkpt>
      <trkpt lat="42.9801" lon="1.13391">
        <ele>466</ele>
        <time>2025-09-20T07:29:15.000Z</time>
      </trkpt>
      <trkpt lat="42.98009" lon="1.13389">
        <ele>467</ele>
        <time>2025-09-20T07:29:16.000Z</time>
      </trkpt>
      <trkpt lat="42.98007" lon="1.13388">
        <ele>467</ele>
        <time>2025-09-20T07:29:17.000Z</time>
      </trkpt>
      <trkpt lat="42.98005" lon="1.13387">
        <ele>468</ele>
        <time>2025-09-20T07:29:18.000Z</time>
      </trkpt>
      <trkpt lat="42.98003" lon="1.13386">
        <ele>469</ele>
        <time>2025-09-20T07:29:19.000Z</time>
      </trkpt>
      <trkpt lat="42.98001" lon="1.13386">
        <ele>469</ele>
        <time>2025-09-20T07:29:20.000Z</time>
      </trkpt>
      <trkpt lat="42.97998" lon="1.13385">
        <ele>470</ele>
        <time>2025-09-20T07:29:21.000Z</time>
      </trkpt>
      <trkpt lat="42.97995" lon="1.13386">
        <ele>471</ele>
        <time>2025-09-20T07:29:22.000Z</time>
      </trkpt>
      <trkpt lat="42.97992" lon="1.13386">
        <ele>471</ele>
        <time>2025-09-20T07:29:23.000Z</time>
      </trkpt>
      <trkpt lat="42.97989" lon="1.13386">
        <ele>472</ele>
        <time>2025-09-20T07:29:24.000Z</time>
      </trkpt>
      <trkpt lat="42.97986" lon="1.13385">
        <ele>473</ele>
        <time>2025-09-20T07:29:25.000Z</time>
      </trkpt>
      <trkpt lat="42.97984" lon="1.13384">
        <ele>473</ele>
        <time>2025-09-20T07:29:26.000Z</time>
      </trkpt>
      <trkpt lat="42.97983" lon="1.13383">
        <ele>473</ele>
        <time>2025-09-20T07:29:27.000Z</time>
      </trkpt>
      <trkpt lat="42.97981" lon="1.13382">
        <ele>473</ele>
        <time>2025-09-20T07:29:28.000Z</time>
      </trkpt>
      <trkpt lat="42.97979" lon="1.13381">
        <ele>474</ele>
        <time>2025-09-20T07:29:29.000Z</time>
      </trkpt>
      <trkpt lat="42.97977" lon="1.1338">
        <ele>474</ele>
        <time>2025-09-20T07:29:30.000Z</time>
      </trkpt>
      <trkpt lat="42.97975" lon="1.13379">
        <ele>475</ele>
        <time>2025-09-20T07:29:31.000Z</time>
      </trkpt>
      <trkpt lat="42.97973" lon="1.13379">
        <ele>474</ele>
        <time>2025-09-20T07:29:32.000Z</time>
      </trkpt>
      <trkpt lat="42.97971" lon="1.1338">
        <ele>474</ele>
        <time>2025-09-20T07:29:33.000Z</time>
      </trkpt>
      <trkpt lat="42.97969" lon="1.13379">
        <ele>474</ele>
        <time>2025-09-20T07:29:34.000Z</time>
      </trkpt>
      <trkpt lat="42.97966" lon="1.13378">
        <ele>475</ele>
        <time>2025-09-20T07:29:35.000Z</time>
      </trkpt>
      <trkpt lat="42.97964" lon="1.13377">
        <ele>476</ele>
        <time>2025-09-20T07:29:36.000Z</time>
      </trkpt>
      <trkpt lat="42.97962" lon="1.13375">
        <ele>477</ele>
        <time>2025-09-20T07:29:37.000Z</time>
      </trkpt>
      <trkpt lat="42.97959" lon="1.13375">
        <ele>477</ele>
        <time>2025-09-20T07:29:38.000Z</time>
      </trkpt>
      <trkpt lat="42.97957" lon="1.13374">
        <ele>478</ele>
        <time>2025-09-20T07:29:39.000Z</time>
      </trkpt>
      <trkpt lat="42.97955" lon="1.13374">
        <ele>479</ele>
        <time>2025-09-20T07:29:40.000Z</time>
      </trkpt>
      <trkpt lat="42.97953" lon="1.13373">
        <ele>479</ele>
        <time>2025-09-20T07:29:41.000Z</time>
      </trkpt>
      <trkpt lat="42.97952" lon="1.13373">
        <ele>479</ele>
        <time>2025-09-20T07:29:42.000Z</time>
      </trkpt>
      <trkpt lat="42.9795" lon="1.13372">
        <ele>480</ele>
        <time>2025-09-20T07:29:43.000Z</time>
      </trkpt>
      <trkpt lat="42.97948" lon="1.13372">
        <ele>480</ele>
        <time>2025-09-20T07:29:44.000Z</time>
      </trkpt>
      <trkpt lat="42.97946" lon="1.13372">
        <ele>481</ele>
        <time>2025-09-20T07:29:45.000Z</time>
      </trkpt>
      <trkpt lat="42.97944" lon="1.13372">
        <ele>482</ele>
        <time>2025-09-20T07:29:46.000Z</time>
      </trkpt>
      <trkpt lat="42.97943" lon="1.13371">
        <ele>482</ele>
        <time>2025-09-20T07:29:47.000Z</time>
      </trkpt>
      <trkpt lat="42.97941" lon="1.1337">
        <ele>482</ele>
        <time>2025-09-20T07:29:48.000Z</time>
      </trkpt>
      <trkpt lat="42.97939" lon="1.1337">
        <ele>483</ele>
        <time>2025-09-20T07:29:49.000Z</time>
      </trkpt>
      <trkpt lat="42.97936" lon="1.13369">
        <ele>483</ele>
        <time>2025-09-20T07:29:50.000Z</time>
      </trkpt>
      <trkpt lat="42.97934" lon="1.13369">
        <ele>484</ele>
        <time>2025-09-20T07:29:51.000Z</time>
      </trkpt>
      <trkpt lat="42.97932" lon="1.1337">
        <ele>484</ele>
        <time>2025-09-20T07:29:52.000Z</time>
      </trkpt>
      <trkpt lat="42.97929" lon="1.1337">
        <ele>485</ele>
        <time>2025-09-20T07:29:53.000Z</time>
      </trkpt>
      <trkpt lat="42.97927" lon="1.1337">
        <ele>485</ele>
        <time>2025-09-20T07:29:54.000Z</time>
      </trkpt>
      <trkpt lat="42.97925" lon="1.13369">
        <ele>486</ele>
        <time>2025-09-20T07:29:55.000Z</time>
      </trkpt>
      <trkpt lat="42.97922" lon="1.13369">
        <ele>486</ele>
        <time>2025-09-20T07:29:56.000Z</time>
      </trkpt>
      <trkpt lat="42.9792" lon="1.13369">
        <ele>487</ele>
        <time>2025-09-20T07:29:57.000Z</time>
      </trkpt>
      <trkpt lat="42.97918" lon="1.13368">
        <ele>487</ele>
        <time>2025-09-20T07:29:58.000Z</time>
      </trkpt>
      <trkpt lat="42.97917" lon="1.13367">
        <ele>487</ele>
        <time>2025-09-20T07:29:59.000Z</time>
      </trkpt>
      <trkpt lat="42.97915" lon="1.13365">
        <ele>488</ele>
        <time>2025-09-20T07:30:00.000Z</time>
      </trkpt>
      <trkpt lat="42.97913" lon="1.13364">
        <ele>489</ele>
        <time>2025-09-20T07:30:01.000Z</time>
      </trkpt>
      <trkpt lat="42.97911" lon="1.13363">
        <ele>489</ele>
        <time>2025-09-20T07:30:02.000Z</time>
      </trkpt>
      <trkpt lat="42.97909" lon="1.13363">
        <ele>489</ele>
        <time>2025-09-20T07:30:03.000Z</time>
      </trkpt>
      <trkpt lat="42.97907" lon="1.13363">
        <ele>489</ele>
        <time>2025-09-20T07:30:04.000Z</time>
      </trkpt>
      <trkpt lat="42.97904" lon="1.13363">
        <ele>489</ele>
        <time>2025-09-20T07:30:05.000Z</time>
      </trkpt>
      <trkpt lat="42.97902" lon="1.13362">
        <ele>489</ele>
        <time>2025-09-20T07:30:06.000Z</time>
      </trkpt>
      <trkpt lat="42.979" lon="1.13363">
        <ele>489</ele>
        <time>2025-09-20T07:30:07.000Z</time>
      </trkpt>
      <trkpt lat="42.97898" lon="1.13363">
        <ele>490</ele>
        <time>2025-09-20T07:30:08.000Z</time>
      </trkpt>
      <trkpt lat="42.97896" lon="1.13362">
        <ele>490</ele>
        <time>2025-09-20T07:30:09.000Z</time>
      </trkpt>
      <trkpt lat="42.97893" lon="1.13362">
        <ele>490</ele>
        <time>2025-09-20T07:30:10.000Z</time>
      </trkpt>
      <trkpt lat="42.97891" lon="1.13362">
        <ele>491</ele>
        <time>2025-09-20T07:30:11.000Z</time>
      </trkpt>
      <trkpt lat="42.97888" lon="1.13363">
        <ele>491</ele>
        <time>2025-09-20T07:30:12.000Z</time>
      </trkpt>
      <trkpt lat="42.97885" lon="1.13364">
        <ele>492</ele>
        <time>2025-09-20T07:30:13.000Z</time>
      </trkpt>
      <trkpt lat="42.97884" lon="1.13364">
        <ele>492</ele>
        <time>2025-09-20T07:30:14.000Z</time>
      </trkpt>
      <trkpt lat="42.97881" lon="1.13365">
        <ele>492</ele>
        <time>2025-09-20T07:30:15.000Z</time>
      </trkpt>
      <trkpt lat="42.97879" lon="1.13366">
        <ele>493</ele>
        <time>2025-09-20T07:30:16.000Z</time>
      </trkpt>
      <trkpt lat="42.97878" lon="1.13366">
        <ele>492</ele>
        <time>2025-09-20T07:30:17.000Z</time>
      </trkpt>
      <trkpt lat="42.97876" lon="1.13366">
        <ele>492</ele>
        <time>2025-09-20T07:30:18.000Z</time>
      </trkpt>
      <trkpt lat="42.97874" lon="1.13365">
        <ele>493</ele>
        <time>2025-09-20T07:30:19.000Z</time>
      </trkpt>
      <trkpt lat="42.97872" lon="1.13365">
        <ele>493</ele>
        <time>2025-09-20T07:30:20.000Z</time>
      </trkpt>
      <trkpt lat="42.97871" lon="1.13364">
        <ele>493</ele>
        <time>2025-09-20T07:30:21.000Z</time>
      </trkpt>
      <trkpt lat="42.9787" lon="1.13364">
        <ele>493</ele>
        <time>2025-09-20T07:30:22.000Z</time>
      </trkpt>
      <trkpt lat="42.97868" lon="1.13364">
        <ele>493</ele>
        <time>2025-09-20T07:30:23.000Z</time>
      </trkpt>
      <trkpt lat="42.97866" lon="1.13365">
        <ele>494</ele>
        <time>2025-09-20T07:30:24.000Z</time>
      </trkpt>
      <trkpt lat="42.97864" lon="1.13366">
        <ele>495</ele>
        <time>2025-09-20T07:30:25.000Z</time>
      </trkpt>
      <trkpt lat="42.97862" lon="1.13366">
        <ele>496</ele>
        <time>2025-09-20T07:30:26.000Z</time>
      </trkpt>
      <trkpt lat="42.97859" lon="1.13366">
        <ele>497</ele>
        <time>2025-09-20T07:30:27.000Z</time>
      </trkpt>
      <trkpt lat="42.97857" lon="1.13366">
        <ele>497</ele>
        <time>2025-09-20T07:30:28.000Z</time>
      </trkpt>
      <trkpt lat="42.97854" lon="1.13367">
        <ele>495</ele>
        <time>2025-09-20T07:30:29.000Z</time>
      </trkpt>
      <trkpt lat="42.97852" lon="1.13368">
        <ele>495</ele>
        <time>2025-09-20T07:30:30.000Z</time>
      </trkpt>
      <trkpt lat="42.97849" lon="1.13369">
        <ele>495</ele>
        <time>2025-09-20T07:30:31.000Z</time>
      </trkpt>
      <trkpt lat="42.97846" lon="1.1337">
        <ele>495</ele>
        <time>2025-09-20T07:30:32.000Z</time>
      </trkpt>
      <trkpt lat="42.97843" lon="1.1337">
        <ele>495</ele>
        <time>2025-09-20T07:30:33.000Z</time>
      </trkpt>
      <trkpt lat="42.97841" lon="1.13371">
        <ele>496</ele>
        <time>2025-09-20T07:30:34.000Z</time>
      </trkpt>
      <trkpt lat="42.97841" lon="1.13372">
        <ele>496</ele>
        <time>2025-09-20T07:30:35.000Z</time>
      </trkpt>
      <trkpt lat="42.9784" lon="1.13372">
        <ele>497</ele>
        <time>2025-09-20T07:30:36.000Z</time>
      </trkpt>
      <trkpt lat="42.97836" lon="1.13371">
        <ele>499</ele>
        <time>2025-09-20T07:31:03.000Z</time>
      </trkpt>
      <trkpt lat="42.97835" lon="1.13371">
        <ele>499</ele>
        <time>2025-09-20T07:31:04.000Z</time>
      </trkpt>
      <trkpt lat="42.97834" lon="1.13371">
        <ele>498</ele>
        <time>2025-09-20T07:31:05.000Z</time>
      </trkpt>
      <trkpt lat="42.97833" lon="1.13372">
        <ele>497</ele>
        <time>2025-09-20T07:31:06.000Z</time>
      </trkpt>
      <trkpt lat="42.97831" lon="1.13374">
        <ele>497</ele>
        <time>2025-09-20T07:31:07.000Z</time>
      </trkpt>
      <trkpt lat="42.9783" lon="1.13377">
        <ele>497</ele>
        <time>2025-09-20T07:31:08.000Z</time>
      </trkpt>
      <trkpt lat="42.97829" lon="1.13381">
        <ele>497</ele>
        <time>2025-09-20T07:31:09.000Z</time>
      </trkpt>
      <trkpt lat="42.97829" lon="1.13385">
        <ele>497</ele>
        <time>2025-09-20T07:31:10.000Z</time>
      </trkpt>
      <trkpt lat="42.97828" lon="1.13388">
        <ele>498</ele>
        <time>2025-09-20T07:31:11.000Z</time>
      </trkpt>
      <trkpt lat="42.97826" lon="1.13391">
        <ele>498</ele>
        <time>2025-09-20T07:31:12.000Z</time>
      </trkpt>
      <trkpt lat="42.97825" lon="1.13393">
        <ele>498</ele>
        <time>2025-09-20T07:31:13.000Z</time>
      </trkpt>
      <trkpt lat="42.97824" lon="1.13396">
        <ele>498</ele>
        <time>2025-09-20T07:31:14.000Z</time>
      </trkpt>
      <trkpt lat="42.97823" lon="1.134">
        <ele>498</ele>
        <time>2025-09-20T07:31:15.000Z</time>
      </trkpt>
      <trkpt lat="42.97821" lon="1.13404">
        <ele>498</ele>
        <time>2025-09-20T07:31:16.000Z</time>
      </trkpt>
      <trkpt lat="42.9782" lon="1.13408">
        <ele>500</ele>
        <time>2025-09-20T07:31:17.000Z</time>
      </trkpt>
      <trkpt lat="42.97818" lon="1.13412">
        <ele>501</ele>
        <time>2025-09-20T07:31:18.000Z</time>
      </trkpt>
      <trkpt lat="42.97817" lon="1.13415">
        <ele>502</ele>
        <time>2025-09-20T07:31:19.000Z</time>
      </trkpt>
      <trkpt lat="42.97815" lon="1.13419">
        <ele>503</ele>
        <time>2025-09-20T07:31:20.000Z</time>
      </trkpt>
      <trkpt lat="42.97814" lon="1.13422">
        <ele>504</ele>
        <time>2025-09-20T07:31:21.000Z</time>
      </trkpt>
      <trkpt lat="42.97812" lon="1.13425">
        <ele>505</ele>
        <time>2025-09-20T07:31:22.000Z</time>
      </trkpt>
      <trkpt lat="42.9781" lon="1.13427">
        <ele>505</ele>
        <time>2025-09-20T07:31:23.000Z</time>
      </trkpt>
      <trkpt lat="42.97809" lon="1.13428">
        <ele>505</ele>
        <time>2025-09-20T07:31:24.000Z</time>
      </trkpt>
      <trkpt lat="42.97807" lon="1.1343">
        <ele>504</ele>
        <time>2025-09-20T07:31:25.000Z</time>
      </trkpt>
      <trkpt lat="42.97805" lon="1.13431">
        <ele>504</ele>
        <time>2025-09-20T07:31:26.000Z</time>
      </trkpt>
      <trkpt lat="42.97803" lon="1.13432">
        <ele>504</ele>
        <time>2025-09-20T07:31:27.000Z</time>
      </trkpt>
      <trkpt lat="42.97801" lon="1.13433">
        <ele>504</ele>
        <time>2025-09-20T07:31:28.000Z</time>
      </trkpt>
      <trkpt lat="42.97799" lon="1.13436">
        <ele>504</ele>
        <time>2025-09-20T07:31:29.000Z</time>
      </trkpt>
      <trkpt lat="42.97796" lon="1.13437">
        <ele>504</ele>
        <time>2025-09-20T07:31:30.000Z</time>
      </trkpt>
      <trkpt lat="42.97794" lon="1.13437">
        <ele>504</ele>
        <time>2025-09-20T07:31:31.000Z</time>
      </trkpt>
      <trkpt lat="42.97791" lon="1.13439">
        <ele>505</ele>
        <time>2025-09-20T07:31:32.000Z</time>
      </trkpt>
      <trkpt lat="42.97789" lon="1.1344">
        <ele>505</ele>
        <time>2025-09-20T07:31:33.000Z</time>
      </trkpt>
      <trkpt lat="42.97786" lon="1.13441">
        <ele>506</ele>
        <time>2025-09-20T07:31:34.000Z</time>
      </trkpt>
      <trkpt lat="42.97784" lon="1.13442">
        <ele>506</ele>
        <time>2025-09-20T07:31:35.000Z</time>
      </trkpt>
      <trkpt lat="42.97781" lon="1.13443">
        <ele>506</ele>
        <time>2025-09-20T07:31:36.000Z</time>
      </trkpt>
      <trkpt lat="42.97778" lon="1.13445">
        <ele>507</ele>
        <time>2025-09-20T07:31:37.000Z</time>
      </trkpt>
      <trkpt lat="42.97776" lon="1.13447">
        <ele>507</ele>
        <time>2025-09-20T07:31:38.000Z</time>
      </trkpt>
      <trkpt lat="42.97773" lon="1.13447">
        <ele>508</ele>
        <time>2025-09-20T07:31:39.000Z</time>
      </trkpt>
      <trkpt lat="42.9777" lon="1.13448">
        <ele>508</ele>
        <time>2025-09-20T07:31:40.000Z</time>
      </trkpt>
      <trkpt lat="42.97766" lon="1.13449">
        <ele>508</ele>
        <time>2025-09-20T07:31:41.000Z</time>
      </trkpt>
      <trkpt lat="42.97763" lon="1.1345">
        <ele>508</ele>
        <time>2025-09-20T07:31:42.000Z</time>
      </trkpt>
      <trkpt lat="42.9776" lon="1.13451">
        <ele>508</ele>
        <time>2025-09-20T07:31:43.000Z</time>
      </trkpt>
      <trkpt lat="42.97758" lon="1.13452">
        <ele>509</ele>
        <time>2025-09-20T07:31:44.000Z</time>
      </trkpt>
      <trkpt lat="42.97755" lon="1.13454">
        <ele>510</ele>
        <time>2025-09-20T07:31:45.000Z</time>
      </trkpt>
      <trkpt lat="42.97753" lon="1.13456">
        <ele>510</ele>
        <time>2025-09-20T07:31:46.000Z</time>
      </trkpt>
      <trkpt lat="42.97751" lon="1.13459">
        <ele>510</ele>
        <time>2025-09-20T07:31:47.000Z</time>
      </trkpt>
      <trkpt lat="42.97749" lon="1.13461">
        <ele>510</ele>
        <time>2025-09-20T07:31:48.000Z</time>
      </trkpt>
      <trkpt lat="42.97746" lon="1.13464">
        <ele>510</ele>
        <time>2025-09-20T07:31:49.000Z</time>
      </trkpt>
      <trkpt lat="42.97744" lon="1.13466">
        <ele>510</ele>
        <time>2025-09-20T07:31:50.000Z</time>
      </trkpt>
      <trkpt lat="42.97743" lon="1.13469">
        <ele>510</ele>
        <time>2025-09-20T07:31:51.000Z</time>
      </trkpt>
      <trkpt lat="42.97741" lon="1.13472">
        <ele>509</ele>
        <time>2025-09-20T07:31:52.000Z</time>
      </trkpt>
      <trkpt lat="42.97739" lon="1.13475">
        <ele>509</ele>
        <time>2025-09-20T07:31:53.000Z</time>
      </trkpt>
      <trkpt lat="42.97737" lon="1.13478">
        <ele>509</ele>
        <time>2025-09-20T07:31:54.000Z</time>
      </trkpt>
      <trkpt lat="42.97735" lon="1.13481">
        <ele>509</ele>
        <time>2025-09-20T07:31:55.000Z</time>
      </trkpt>
      <trkpt lat="42.97734" lon="1.13485">
        <ele>509</ele>
        <time>2025-09-20T07:31:56.000Z</time>
      </trkpt>
      <trkpt lat="42.97733" lon="1.13489">
        <ele>509</ele>
        <time>2025-09-20T07:31:57.000Z</time>
      </trkpt>
      <trkpt lat="42.97732" lon="1.13493">
        <ele>509</ele>
        <time>2025-09-20T07:31:58.000Z</time>
      </trkpt>
      <trkpt lat="42.97731" lon="1.13499">
        <ele>509</ele>
        <time>2025-09-20T07:31:59.000Z</time>
      </trkpt>
      <trkpt lat="42.97731" lon="1.13505">
        <ele>509</ele>
        <time>2025-09-20T07:32:00.000Z</time>
      </trkpt>
      <trkpt lat="42.97731" lon="1.1351">
        <ele>509</ele>
        <time>2025-09-20T07:32:01.000Z</time>
      </trkpt>
      <trkpt lat="42.97731" lon="1.13516">
        <ele>508</ele>
        <time>2025-09-20T07:32:02.000Z</time>
      </trkpt>
      <trkpt lat="42.97731" lon="1.13521">
        <ele>508</ele>
        <time>2025-09-20T07:32:03.000Z</time>
      </trkpt>
      <trkpt lat="42.97731" lon="1.13526">
        <ele>508</ele>
        <time>2025-09-20T07:32:04.000Z</time>
      </trkpt>
      <trkpt lat="42.97731" lon="1.1353">
        <ele>508</ele>
        <time>2025-09-20T07:32:05.000Z</time>
      </trkpt>
      <trkpt lat="42.97729" lon="1.13532">
        <ele>508</ele>
        <time>2025-09-20T07:32:06.000Z</time>
      </trkpt>
      <trkpt lat="42.97725" lon="1.13532">
        <ele>507</ele>
        <time>2025-09-20T07:32:07.000Z</time>
      </trkpt>
      <trkpt lat="42.97721" lon="1.13533">
        <ele>507</ele>
        <time>2025-09-20T07:32:08.000Z</time>
      </trkpt>
      <trkpt lat="42.97716" lon="1.13534">
        <ele>508</ele>
        <time>2025-09-20T07:32:09.000Z</time>
      </trkpt>
      <trkpt lat="42.97712" lon="1.13534">
        <ele>508</ele>
        <time>2025-09-20T07:32:10.000Z</time>
      </trkpt>
      <trkpt lat="42.97708" lon="1.13534">
        <ele>508</ele>
        <time>2025-09-20T07:32:11.000Z</time>
      </trkpt>
      <trkpt lat="42.97703" lon="1.13536">
        <ele>507</ele>
        <time>2025-09-20T07:32:12.000Z</time>
      </trkpt>
      <trkpt lat="42.97699" lon="1.1354">
        <ele>507</ele>
        <time>2025-09-20T07:32:13.000Z</time>
      </trkpt>
      <trkpt lat="42.97695" lon="1.13544">
        <ele>506</ele>
        <time>2025-09-20T07:32:14.000Z</time>
      </trkpt>
      <trkpt lat="42.97691" lon="1.13548">
        <ele>506</ele>
        <time>2025-09-20T07:32:15.000Z</time>
      </trkpt>
      <trkpt lat="42.97687" lon="1.13552">
        <ele>505</ele>
        <time>2025-09-20T07:32:16.000Z</time>
      </trkpt>
      <trkpt lat="42.97684" lon="1.13556">
        <ele>504</ele>
        <time>2025-09-20T07:32:17.000Z</time>
      </trkpt>
      <trkpt lat="42.9768" lon="1.13559">
        <ele>504</ele>
        <time>2025-09-20T07:32:18.000Z</time>
      </trkpt>
      <trkpt lat="42.97676" lon="1.13561">
        <ele>504</ele>
        <time>2025-09-20T07:32:19.000Z</time>
      </trkpt>
      <trkpt lat="42.97671" lon="1.13563">
        <ele>504</ele>
        <time>2025-09-20T07:32:20.000Z</time>
      </trkpt>
      <trkpt lat="42.97667" lon="1.13564">
        <ele>504</ele>
        <time>2025-09-20T07:32:21.000Z</time>
      </trkpt>
      <trkpt lat="42.97662" lon="1.13565">
        <ele>505</ele>
        <time>2025-09-20T07:32:22.000Z</time>
      </trkpt>
      <trkpt lat="42.97658" lon="1.13565">
        <ele>504</ele>
        <time>2025-09-20T07:32:23.000Z</time>
      </trkpt>
      <trkpt lat="42.97655" lon="1.13565">
        <ele>505</ele>
        <time>2025-09-20T07:32:24.000Z</time>
      </trkpt>
      <trkpt lat="42.9765" lon="1.13565">
        <ele>504</ele>
        <time>2025-09-20T07:32:25.000Z</time>
      </trkpt>
      <trkpt lat="42.97646" lon="1.13565">
        <ele>505</ele>
        <time>2025-09-20T07:32:26.000Z</time>
      </trkpt>
      <trkpt lat="42.97642" lon="1.13565">
        <ele>505</ele>
        <time>2025-09-20T07:32:27.000Z</time>
      </trkpt>
      <trkpt lat="42.97638" lon="1.13566">
        <ele>504</ele>
        <time>2025-09-20T07:32:28.000Z</time>
      </trkpt>
      <trkpt lat="42.97633" lon="1.13567">
        <ele>505</ele>
        <time>2025-09-20T07:32:29.000Z</time>
      </trkpt>
      <trkpt lat="42.97629" lon="1.13568">
        <ele>505</ele>
        <time>2025-09-20T07:32:30.000Z</time>
      </trkpt>
      <trkpt lat="42.97624" lon="1.13569">
        <ele>505</ele>
        <time>2025-09-20T07:32:31.000Z</time>
      </trkpt>
      <trkpt lat="42.9762" lon="1.1357">
        <ele>504</ele>
        <time>2025-09-20T07:32:32.000Z</time>
      </trkpt>
      <trkpt lat="42.97616" lon="1.13571">
        <ele>504</ele>
        <time>2025-09-20T07:32:33.000Z</time>
      </trkpt>
      <trkpt lat="42.97612" lon="1.13571">
        <ele>504</ele>
        <time>2025-09-20T07:32:34.000Z</time>
      </trkpt>
      <trkpt lat="42.97608" lon="1.13572">
        <ele>505</ele>
        <time>2025-09-20T07:32:35.000Z</time>
      </trkpt>
      <trkpt lat="42.97604" lon="1.13572">
        <ele>505</ele>
        <time>2025-09-20T07:32:36.000Z</time>
      </trkpt>
      <trkpt lat="42.976" lon="1.13571">
        <ele>506</ele>
        <time>2025-09-20T07:32:37.000Z</time>
      </trkpt>
      <trkpt lat="42.97597" lon="1.1357">
        <ele>506</ele>
        <time>2025-09-20T07:32:38.000Z</time>
      </trkpt>
      <trkpt lat="42.97594" lon="1.13569">
        <ele>506</ele>
        <time>2025-09-20T07:32:39.000Z</time>
      </trkpt>
      <trkpt lat="42.9759" lon="1.13566">
        <ele>507</ele>
        <time>2025-09-20T07:32:40.000Z</time>
      </trkpt>
      <trkpt lat="42.97587" lon="1.13564">
        <ele>507</ele>
        <time>2025-09-20T07:32:41.000Z</time>
      </trkpt>
      <trkpt lat="42.97583" lon="1.13564">
        <ele>508</ele>
        <time>2025-09-20T07:32:42.000Z</time>
      </trkpt>
      <trkpt lat="42.97579" lon="1.13563">
        <ele>509</ele>
        <time>2025-09-20T07:32:43.000Z</time>
      </trkpt>
      <trkpt lat="42.97576" lon="1.13562">
        <ele>509</ele>
        <time>2025-09-20T07:32:44.000Z</time>
      </trkpt>
      <trkpt lat="42.97572" lon="1.13562">
        <ele>509</ele>
        <time>2025-09-20T07:32:45.000Z</time>
      </trkpt>
      <trkpt lat="42.97568" lon="1.13564">
        <ele>509</ele>
        <time>2025-09-20T07:32:46.000Z</time>
      </trkpt>
      <trkpt lat="42.97565" lon="1.13566">
        <ele>509</ele>
        <time>2025-09-20T07:32:47.000Z</time>
      </trkpt>
      <trkpt lat="42.97561" lon="1.13567">
        <ele>509</ele>
        <time>2025-09-20T07:32:48.000Z</time>
      </trkpt>
      <trkpt lat="42.97557" lon="1.13568">
        <ele>509</ele>
        <time>2025-09-20T07:32:49.000Z</time>
      </trkpt>
      <trkpt lat="42.97553" lon="1.13569">
        <ele>508</ele>
        <time>2025-09-20T07:32:50.000Z</time>
      </trkpt>
      <trkpt lat="42.97549" lon="1.1357">
        <ele>508</ele>
        <time>2025-09-20T07:32:51.000Z</time>
      </trkpt>
      <trkpt lat="42.97545" lon="1.13571">
        <ele>509</ele>
        <time>2025-09-20T07:32:52.000Z</time>
      </trkpt>
      <trkpt lat="42.97541" lon="1.13571">
        <ele>509</ele>
        <time>2025-09-20T07:32:53.000Z</time>
      </trkpt>
      <trkpt lat="42.97537" lon="1.13571">
        <ele>509</ele>
        <time>2025-09-20T07:32:54.000Z</time>
      </trkpt>
      <trkpt lat="42.97533" lon="1.13571">
        <ele>508</ele>
        <time>2025-09-20T07:32:55.000Z</time>
      </trkpt>
      <trkpt lat="42.97528" lon="1.13571">
        <ele>508</ele>
        <time>2025-09-20T07:32:56.000Z</time>
      </trkpt>
      <trkpt lat="42.97522" lon="1.13572">
        <ele>507</ele>
        <time>2025-09-20T07:32:57.000Z</time>
      </trkpt>
      <trkpt lat="42.97518" lon="1.13572">
        <ele>506</ele>
        <time>2025-09-20T07:32:58.000Z</time>
      </trkpt>
      <trkpt lat="42.97513" lon="1.13574">
        <ele>505</ele>
        <time>2025-09-20T07:32:59.000Z</time>
      </trkpt>
      <trkpt lat="42.97508" lon="1.13575">
        <ele>505</ele>
        <time>2025-09-20T07:33:00.000Z</time>
      </trkpt>
      <trkpt lat="42.97504" lon="1.13576">
        <ele>505</ele>
        <time>2025-09-20T07:33:01.000Z</time>
      </trkpt>
      <trkpt lat="42.97499" lon="1.13577">
        <ele>505</ele>
        <time>2025-09-20T07:33:02.000Z</time>
      </trkpt>
      <trkpt lat="42.97494" lon="1.13577">
        <ele>505</ele>
        <time>2025-09-20T07:33:03.000Z</time>
      </trkpt>
      <trkpt lat="42.9749" lon="1.13576">
        <ele>505</ele>
        <time>2025-09-20T07:33:04.000Z</time>
      </trkpt>
      <trkpt lat="42.97486" lon="1.13576">
        <ele>505</ele>
        <time>2025-09-20T07:33:05.000Z</time>
      </trkpt>
      <trkpt lat="42.97482" lon="1.13577">
        <ele>504</ele>
        <time>2025-09-20T07:33:06.000Z</time>
      </trkpt>
      <trkpt lat="42.97477" lon="1.13578">
        <ele>504</ele>
        <time>2025-09-20T07:33:07.000Z</time>
      </trkpt>
      <trkpt lat="42.97474" lon="1.13577">
        <ele>505</ele>
        <time>2025-09-20T07:33:08.000Z</time>
      </trkpt>
      <trkpt lat="42.9747" lon="1.13577">
        <ele>505</ele>
        <time>2025-09-20T07:33:09.000Z</time>
      </trkpt>
      <trkpt lat="42.97466" lon="1.13576">
        <ele>505</ele>
        <time>2025-09-20T07:33:10.000Z</time>
      </trkpt>
      <trkpt lat="42.97463" lon="1.13576">
        <ele>506</ele>
        <time>2025-09-20T07:33:11.000Z</time>
      </trkpt>
      <trkpt lat="42.9746" lon="1.13575">
        <ele>506</ele>
        <time>2025-09-20T07:33:12.000Z</time>
      </trkpt>
      <trkpt lat="42.97457" lon="1.13574">
        <ele>506</ele>
        <time>2025-09-20T07:33:13.000Z</time>
      </trkpt>
      <trkpt lat="42.97455" lon="1.13573">
        <ele>506</ele>
        <time>2025-09-20T07:33:14.000Z</time>
      </trkpt>
      <trkpt lat="42.97452" lon="1.13574">
        <ele>506</ele>
        <time>2025-09-20T07:33:15.000Z</time>
      </trkpt>
      <trkpt lat="42.97449" lon="1.13574">
        <ele>506</ele>
        <time>2025-09-20T07:33:16.000Z</time>
      </trkpt>
      <trkpt lat="42.97446" lon="1.13575">
        <ele>506</ele>
        <time>2025-09-20T07:33:17.000Z</time>
      </trkpt>
      <trkpt lat="42.97443" lon="1.13576">
        <ele>506</ele>
        <time>2025-09-20T07:33:18.000Z</time>
      </trkpt>
      <trkpt lat="42.97439" lon="1.13577">
        <ele>506</ele>
        <time>2025-09-20T07:33:19.000Z</time>
      </trkpt>
      <trkpt lat="42.97436" lon="1.13577">
        <ele>507</ele>
        <time>2025-09-20T07:33:20.000Z</time>
      </trkpt>
      <trkpt lat="42.97434" lon="1.13578">
        <ele>507</ele>
        <time>2025-09-20T07:33:21.000Z</time>
      </trkpt>
      <trkpt lat="42.97431" lon="1.13579">
        <ele>508</ele>
        <time>2025-09-20T07:33:22.000Z</time>
      </trkpt>
      <trkpt lat="42.97428" lon="1.1358">
        <ele>509</ele>
        <time>2025-09-20T07:33:23.000Z</time>
      </trkpt>
      <trkpt lat="42.97425" lon="1.13582">
        <ele>509</ele>
        <time>2025-09-20T07:33:24.000Z</time>
      </trkpt>
      <trkpt lat="42.97423" lon="1.13583">
        <ele>510</ele>
        <time>2025-09-20T07:33:25.000Z</time>
      </trkpt>
      <trkpt lat="42.9742" lon="1.13584">
        <ele>510</ele>
        <time>2025-09-20T07:33:26.000Z</time>
      </trkpt>
      <trkpt lat="42.97418" lon="1.13585">
        <ele>510</ele>
        <time>2025-09-20T07:33:27.000Z</time>
      </trkpt>
      <trkpt lat="42.97416" lon="1.13587">
        <ele>510</ele>
        <time>2025-09-20T07:33:28.000Z</time>
      </trkpt>
      <trkpt lat="42.97414" lon="1.13589">
        <ele>511</ele>
        <time>2025-09-20T07:33:29.000Z</time>
      </trkpt>
      <trkpt lat="42.97412" lon="1.1359">
        <ele>511</ele>
        <time>2025-09-20T07:33:30.000Z</time>
      </trkpt>
      <trkpt lat="42.9741" lon="1.13592">
        <ele>511</ele>
        <time>2025-09-20T07:33:31.000Z</time>
      </trkpt>
      <trkpt lat="42.97408" lon="1.13594">
        <ele>512</ele>
        <time>2025-09-20T07:33:32.000Z</time>
      </trkpt>
      <trkpt lat="42.97406" lon="1.13596">
        <ele>512</ele>
        <time>2025-09-20T07:33:33.000Z</time>
      </trkpt>
      <trkpt lat="42.97404" lon="1.13597">
        <ele>512</ele>
        <time>2025-09-20T07:33:34.000Z</time>
      </trkpt>
      <trkpt lat="42.97401" lon="1.13598">
        <ele>512</ele>
        <time>2025-09-20T07:33:35.000Z</time>
      </trkpt>
      <trkpt lat="42.97399" lon="1.13599">
        <ele>512</ele>
        <time>2025-09-20T07:33:36.000Z</time>
      </trkpt>
      <trkpt lat="42.97397" lon="1.13601">
        <ele>512</ele>
        <time>2025-09-20T07:33:37.000Z</time>
      </trkpt>
      <trkpt lat="42.97395" lon="1.13601">
        <ele>512</ele>
        <time>2025-09-20T07:33:38.000Z</time>
      </trkpt>
      <trkpt lat="42.97393" lon="1.13601">
        <ele>512</ele>
        <time>2025-09-20T07:33:39.000Z</time>
      </trkpt>
      <trkpt lat="42.9739" lon="1.13601">
        <ele>512</ele>
        <time>2025-09-20T07:33:40.000Z</time>
      </trkpt>
      <trkpt lat="42.97388" lon="1.136">
        <ele>512</ele>
        <time>2025-09-20T07:33:41.000Z</time>
      </trkpt>
      <trkpt lat="42.97386" lon="1.13599">
        <ele>512</ele>
        <time>2025-09-20T07:33:42.000Z</time>
      </trkpt>
      <trkpt lat="42.97383" lon="1.13597">
        <ele>512</ele>
        <time>2025-09-20T07:33:43.000Z</time>
      </trkpt>
      <trkpt lat="42.9738" lon="1.13597">
        <ele>512</ele>
        <time>2025-09-20T07:33:44.000Z</time>
      </trkpt>
      <trkpt lat="42.97378" lon="1.13595">
        <ele>512</ele>
        <time>2025-09-20T07:33:45.000Z</time>
      </trkpt>
      <trkpt lat="42.97375" lon="1.13594">
        <ele>512</ele>
        <time>2025-09-20T07:33:46.000Z</time>
      </trkpt>
      <trkpt lat="42.97373" lon="1.13592">
        <ele>513</ele>
        <time>2025-09-20T07:33:47.000Z</time>
      </trkpt>
      <trkpt lat="42.9737" lon="1.13591">
        <ele>513</ele>
        <time>2025-09-20T07:33:48.000Z</time>
      </trkpt>
      <trkpt lat="42.97368" lon="1.1359">
        <ele>513</ele>
        <time>2025-09-20T07:33:49.000Z</time>
      </trkpt>
      <trkpt lat="42.97365" lon="1.13589">
        <ele>514</ele>
        <time>2025-09-20T07:33:50.000Z</time>
      </trkpt>
      <trkpt lat="42.97362" lon="1.13588">
        <ele>514</ele>
        <time>2025-09-20T07:33:51.000Z</time>
      </trkpt>
      <trkpt lat="42.9736" lon="1.13588">
        <ele>515</ele>
        <time>2025-09-20T07:33:52.000Z</time>
      </trkpt>
      <trkpt lat="42.97357" lon="1.13587">
        <ele>515</ele>
        <time>2025-09-20T07:33:53.000Z</time>
      </trkpt>
      <trkpt lat="42.97355" lon="1.13586">
        <ele>515</ele>
        <time>2025-09-20T07:33:54.000Z</time>
      </trkpt>
      <trkpt lat="42.97353" lon="1.13585">
        <ele>515</ele>
        <time>2025-09-20T07:33:55.000Z</time>
      </trkpt>
      <trkpt lat="42.97351" lon="1.13584">
        <ele>516</ele>
        <time>2025-09-20T07:33:56.000Z</time>
      </trkpt>
      <trkpt lat="42.97348" lon="1.13583">
        <ele>516</ele>
        <time>2025-09-20T07:33:57.000Z</time>
      </trkpt>
      <trkpt lat="42.97346" lon="1.13581">
        <ele>516</ele>
        <time>2025-09-20T07:33:58.000Z</time>
      </trkpt>
      <trkpt lat="42.97343" lon="1.1358">
        <ele>516</ele>
        <time>2025-09-20T07:33:59.000Z</time>
      </trkpt>
      <trkpt lat="42.97339" lon="1.13579">
        <ele>516</ele>
        <time>2025-09-20T07:34:00.000Z</time>
      </trkpt>
      <trkpt lat="42.97337" lon="1.13577">
        <ele>516</ele>
        <time>2025-09-20T07:34:01.000Z</time>
      </trkpt>
      <trkpt lat="42.97334" lon="1.13577">
        <ele>517</ele>
        <time>2025-09-20T07:34:02.000Z</time>
      </trkpt>
      <trkpt lat="42.97332" lon="1.13576">
        <ele>517</ele>
        <time>2025-09-20T07:34:03.000Z</time>
      </trkpt>
      <trkpt lat="42.9733" lon="1.13574">
        <ele>517</ele>
        <time>2025-09-20T07:34:04.000Z</time>
      </trkpt>
      <trkpt lat="42.97328" lon="1.13574">
        <ele>517</ele>
        <time>2025-09-20T07:34:05.000Z</time>
      </trkpt>
      <trkpt lat="42.97326" lon="1.13574">
        <ele>518</ele>
        <time>2025-09-20T07:34:06.000Z</time>
      </trkpt>
      <trkpt lat="42.97324" lon="1.13575">
        <ele>518</ele>
        <time>2025-09-20T07:34:07.000Z</time>
      </trkpt>
      <trkpt lat="42.97321" lon="1.13576">
        <ele>518</ele>
        <time>2025-09-20T07:34:08.000Z</time>
      </trkpt>
      <trkpt lat="42.97319" lon="1.13577">
        <ele>518</ele>
        <time>2025-09-20T07:34:09.000Z</time>
      </trkpt>
      <trkpt lat="42.97317" lon="1.13579">
        <ele>517</ele>
        <time>2025-09-20T07:34:10.000Z</time>
      </trkpt>
      <trkpt lat="42.97316" lon="1.13581">
        <ele>518</ele>
        <time>2025-09-20T07:34:11.000Z</time>
      </trkpt>
      <trkpt lat="42.97314" lon="1.13584">
        <ele>517</ele>
        <time>2025-09-20T07:34:12.000Z</time>
      </trkpt>
      <trkpt lat="42.97312" lon="1.13587">
        <ele>517</ele>
        <time>2025-09-20T07:34:13.000Z</time>
      </trkpt>
      <trkpt lat="42.97311" lon="1.13589">
        <ele>517</ele>
        <time>2025-09-20T07:34:14.000Z</time>
      </trkpt>
      <trkpt lat="42.9731" lon="1.13592">
        <ele>517</ele>
        <time>2025-09-20T07:34:15.000Z</time>
      </trkpt>
      <trkpt lat="42.97308" lon="1.13595">
        <ele>516</ele>
        <time>2025-09-20T07:34:16.000Z</time>
      </trkpt>
      <trkpt lat="42.97306" lon="1.13597">
        <ele>517</ele>
        <time>2025-09-20T07:34:17.000Z</time>
      </trkpt>
      <trkpt lat="42.97304" lon="1.136">
        <ele>517</ele>
        <time>2025-09-20T07:34:18.000Z</time>
      </trkpt>
      <trkpt lat="42.97302" lon="1.13602">
        <ele>518</ele>
        <time>2025-09-20T07:34:19.000Z</time>
      </trkpt>
      <trkpt lat="42.97299" lon="1.13602">
        <ele>519</ele>
        <time>2025-09-20T07:34:20.000Z</time>
      </trkpt>
      <trkpt lat="42.97296" lon="1.13603">
        <ele>519</ele>
        <time>2025-09-20T07:34:21.000Z</time>
      </trkpt>
      <trkpt lat="42.97294" lon="1.13603">
        <ele>520</ele>
        <time>2025-09-20T07:34:22.000Z</time>
      </trkpt>
      <trkpt lat="42.97292" lon="1.13602">
        <ele>520</ele>
        <time>2025-09-20T07:34:23.000Z</time>
      </trkpt>
      <trkpt lat="42.9729" lon="1.13601">
        <ele>520</ele>
        <time>2025-09-20T07:34:24.000Z</time>
      </trkpt>
      <trkpt lat="42.97288" lon="1.136">
        <ele>521</ele>
        <time>2025-09-20T07:34:25.000Z</time>
      </trkpt>
      <trkpt lat="42.97286" lon="1.13599">
        <ele>521</ele>
        <time>2025-09-20T07:34:26.000Z</time>
      </trkpt>
      <trkpt lat="42.97283" lon="1.13599">
        <ele>521</ele>
        <time>2025-09-20T07:34:27.000Z</time>
      </trkpt>
      <trkpt lat="42.97281" lon="1.13599">
        <ele>521</ele>
        <time>2025-09-20T07:34:28.000Z</time>
      </trkpt>
      <trkpt lat="42.97279" lon="1.13599">
        <ele>522</ele>
        <time>2025-09-20T07:34:29.000Z</time>
      </trkpt>
      <trkpt lat="42.97276" lon="1.13599">
        <ele>523</ele>
        <time>2025-09-20T07:34:30.000Z</time>
      </trkpt>
      <trkpt lat="42.97274" lon="1.136">
        <ele>523</ele>
        <time>2025-09-20T07:34:31.000Z</time>
      </trkpt>
      <trkpt lat="42.97272" lon="1.136">
        <ele>524</ele>
        <time>2025-09-20T07:34:32.000Z</time>
      </trkpt>
      <trkpt lat="42.9727" lon="1.136">
        <ele>524</ele>
        <time>2025-09-20T07:34:33.000Z</time>
      </trkpt>
      <trkpt lat="42.97268" lon="1.13601">
        <ele>524</ele>
        <time>2025-09-20T07:34:34.000Z</time>
      </trkpt>
      <trkpt lat="42.97266" lon="1.13602">
        <ele>523</ele>
        <time>2025-09-20T07:34:35.000Z</time>
      </trkpt>
      <trkpt lat="42.97264" lon="1.13603">
        <ele>523</ele>
        <time>2025-09-20T07:34:36.000Z</time>
      </trkpt>
      <trkpt lat="42.97262" lon="1.13603">
        <ele>523</ele>
        <time>2025-09-20T07:34:37.000Z</time>
      </trkpt>
      <trkpt lat="42.9726" lon="1.13603">
        <ele>524</ele>
        <time>2025-09-20T07:34:38.000Z</time>
      </trkpt>
      <trkpt lat="42.97258" lon="1.13604">
        <ele>524</ele>
        <time>2025-09-20T07:34:39.000Z</time>
      </trkpt>
      <trkpt lat="42.97255" lon="1.13605">
        <ele>524</ele>
        <time>2025-09-20T07:34:40.000Z</time>
      </trkpt>
      <trkpt lat="42.97253" lon="1.13604">
        <ele>524</ele>
        <time>2025-09-20T07:34:41.000Z</time>
      </trkpt>
      <trkpt lat="42.9725" lon="1.13605">
        <ele>524</ele>
        <time>2025-09-20T07:34:42.000Z</time>
      </trkpt>
      <trkpt lat="42.97247" lon="1.13606">
        <ele>524</ele>
        <time>2025-09-20T07:34:43.000Z</time>
      </trkpt>
      <trkpt lat="42.97245" lon="1.13606">
        <ele>524</ele>
        <time>2025-09-20T07:34:44.000Z</time>
      </trkpt>
      <trkpt lat="42.97243" lon="1.13607">
        <ele>523</ele>
        <time>2025-09-20T07:34:45.000Z</time>
      </trkpt>
      <trkpt lat="42.97241" lon="1.13607">
        <ele>524</ele>
        <time>2025-09-20T07:34:46.000Z</time>
      </trkpt>
      <trkpt lat="42.97239" lon="1.13608">
        <ele>525</ele>
        <time>2025-09-20T07:34:47.000Z</time>
      </trkpt>
      <trkpt lat="42.97237" lon="1.13608">
        <ele>526</ele>
        <time>2025-09-20T07:34:48.000Z</time>
      </trkpt>
      <trkpt lat="42.97235" lon="1.13609">
        <ele>527</ele>
        <time>2025-09-20T07:34:49.000Z</time>
      </trkpt>
      <trkpt lat="42.97233" lon="1.1361">
        <ele>528</ele>
        <time>2025-09-20T07:34:50.000Z</time>
      </trkpt>
      <trkpt lat="42.97232" lon="1.13611">
        <ele>528</ele>
        <time>2025-09-20T07:34:51.000Z</time>
      </trkpt>
      <trkpt lat="42.9723" lon="1.13611">
        <ele>529</ele>
        <time>2025-09-20T07:34:52.000Z</time>
      </trkpt>
      <trkpt lat="42.97228" lon="1.1361">
        <ele>530</ele>
        <time>2025-09-20T07:34:53.000Z</time>
      </trkpt>
      <trkpt lat="42.97226" lon="1.1361">
        <ele>530</ele>
        <time>2025-09-20T07:34:54.000Z</time>
      </trkpt>
      <trkpt lat="42.97225" lon="1.13609">
        <ele>530</ele>
        <time>2025-09-20T07:34:55.000Z</time>
      </trkpt>
      <trkpt lat="42.97223" lon="1.13608">
        <ele>530</ele>
        <time>2025-09-20T07:34:56.000Z</time>
      </trkpt>
      <trkpt lat="42.97222" lon="1.13608">
        <ele>531</ele>
        <time>2025-09-20T07:34:57.000Z</time>
      </trkpt>
      <trkpt lat="42.9722" lon="1.13608">
        <ele>532</ele>
        <time>2025-09-20T07:34:58.000Z</time>
      </trkpt>
      <trkpt lat="42.97218" lon="1.13608">
        <ele>533</ele>
        <time>2025-09-20T07:34:59.000Z</time>
      </trkpt>
      <trkpt lat="42.97216" lon="1.13608">
        <ele>534</ele>
        <time>2025-09-20T07:35:00.000Z</time>
      </trkpt>
      <trkpt lat="42.97214" lon="1.13607">
        <ele>534</ele>
        <time>2025-09-20T07:35:01.000Z</time>
      </trkpt>
      <trkpt lat="42.97212" lon="1.13606">
        <ele>533</ele>
        <time>2025-09-20T07:35:02.000Z</time>
      </trkpt>
      <trkpt lat="42.9721" lon="1.13606">
        <ele>533</ele>
        <time>2025-09-20T07:35:03.000Z</time>
      </trkpt>
      <trkpt lat="42.97208" lon="1.13605">
        <ele>534</ele>
        <time>2025-09-20T07:35:04.000Z</time>
      </trkpt>
      <trkpt lat="42.97205" lon="1.13605">
        <ele>534</ele>
        <time>2025-09-20T07:35:05.000Z</time>
      </trkpt>
      <trkpt lat="42.97203" lon="1.13604">
        <ele>535</ele>
        <time>2025-09-20T07:35:06.000Z</time>
      </trkpt>
      <trkpt lat="42.97201" lon="1.13604">
        <ele>535</ele>
        <time>2025-09-20T07:35:07.000Z</time>
      </trkpt>
      <trkpt lat="42.97199" lon="1.13604">
        <ele>535</ele>
        <time>2025-09-20T07:35:08.000Z</time>
      </trkpt>
      <trkpt lat="42.97198" lon="1.13603">
        <ele>535</ele>
        <time>2025-09-20T07:35:09.000Z</time>
      </trkpt>
      <trkpt lat="42.97195" lon="1.13604">
        <ele>536</ele>
        <time>2025-09-20T07:35:10.000Z</time>
      </trkpt>
      <trkpt lat="42.97193" lon="1.13604">
        <ele>537</ele>
        <time>2025-09-20T07:35:11.000Z</time>
      </trkpt>
      <trkpt lat="42.97191" lon="1.13604">
        <ele>536</ele>
        <time>2025-09-20T07:35:12.000Z</time>
      </trkpt>
      <trkpt lat="42.97189" lon="1.13605">
        <ele>536</ele>
        <time>2025-09-20T07:35:13.000Z</time>
      </trkpt>
      <trkpt lat="42.97187" lon="1.13605">
        <ele>536</ele>
        <time>2025-09-20T07:35:14.000Z</time>
      </trkpt>
      <trkpt lat="42.97186" lon="1.13605">
        <ele>536</ele>
        <time>2025-09-20T07:35:15.000Z</time>
      </trkpt>
      <trkpt lat="42.97183" lon="1.13606">
        <ele>536</ele>
        <time>2025-09-20T07:35:16.000Z</time>
      </trkpt>
      <trkpt lat="42.97181" lon="1.13605">
        <ele>536</ele>
        <time>2025-09-20T07:35:17.000Z</time>
      </trkpt>
      <trkpt lat="42.97179" lon="1.13605">
        <ele>536</ele>
        <time>2025-09-20T07:35:18.000Z</time>
      </trkpt>
      <trkpt lat="42.97177" lon="1.13605">
        <ele>536</ele>
        <time>2025-09-20T07:35:19.000Z</time>
      </trkpt>
      <trkpt lat="42.97175" lon="1.13605">
        <ele>537</ele>
        <time>2025-09-20T07:35:20.000Z</time>
      </trkpt>
      <trkpt lat="42.97173" lon="1.13604">
        <ele>538</ele>
        <time>2025-09-20T07:35:21.000Z</time>
      </trkpt>
      <trkpt lat="42.97171" lon="1.13605">
        <ele>538</ele>
        <time>2025-09-20T07:35:22.000Z</time>
      </trkpt>
      <trkpt lat="42.97169" lon="1.13605">
        <ele>538</ele>
        <time>2025-09-20T07:35:23.000Z</time>
      </trkpt>
      <trkpt lat="42.97167" lon="1.13605">
        <ele>538</ele>
        <time>2025-09-20T07:35:24.000Z</time>
      </trkpt>
      <trkpt lat="42.97164" lon="1.13604">
        <ele>538</ele>
        <time>2025-09-20T07:35:25.000Z</time>
      </trkpt>
      <trkpt lat="42.97162" lon="1.13605">
        <ele>539</ele>
        <time>2025-09-20T07:35:26.000Z</time>
      </trkpt>
      <trkpt lat="42.9716" lon="1.13605">
        <ele>539</ele>
        <time>2025-09-20T07:35:27.000Z</time>
      </trkpt>
      <trkpt lat="42.97158" lon="1.13604">
        <ele>539</ele>
        <time>2025-09-20T07:35:28.000Z</time>
      </trkpt>
      <trkpt lat="42.97156" lon="1.13604">
        <ele>539</ele>
        <time>2025-09-20T07:35:29.000Z</time>
      </trkpt>
      <trkpt lat="42.97154" lon="1.13603">
        <ele>539</ele>
        <time>2025-09-20T07:35:30.000Z</time>
      </trkpt>
      <trkpt lat="42.97152" lon="1.13602">
        <ele>539</ele>
        <time>2025-09-20T07:35:31.000Z</time>
      </trkpt>
      <trkpt lat="42.9715" lon="1.13601">
        <ele>539</ele>
        <time>2025-09-20T07:35:32.000Z</time>
      </trkpt>
      <trkpt lat="42.97148" lon="1.136">
        <ele>539</ele>
        <time>2025-09-20T07:35:33.000Z</time>
      </trkpt>
      <trkpt lat="42.97146" lon="1.13599">
        <ele>539</ele>
        <time>2025-09-20T07:35:34.000Z</time>
      </trkpt>
      <trkpt lat="42.97144" lon="1.13598">
        <ele>539</ele>
        <time>2025-09-20T07:35:35.000Z</time>
      </trkpt>
      <trkpt lat="42.97142" lon="1.13597">
        <ele>540</ele>
        <time>2025-09-20T07:35:36.000Z</time>
      </trkpt>
      <trkpt lat="42.9714" lon="1.13596">
        <ele>540</ele>
        <time>2025-09-20T07:35:37.000Z</time>
      </trkpt>
      <trkpt lat="42.97137" lon="1.13595">
        <ele>541</ele>
        <time>2025-09-20T07:35:38.000Z</time>
      </trkpt>
      <trkpt lat="42.97135" lon="1.13594">
        <ele>541</ele>
        <time>2025-09-20T07:35:39.000Z</time>
      </trkpt>
      <trkpt lat="42.97133" lon="1.13593">
        <ele>541</ele>
        <time>2025-09-20T07:35:40.000Z</time>
      </trkpt>
      <trkpt lat="42.97131" lon="1.13592">
        <ele>540</ele>
        <time>2025-09-20T07:35:41.000Z</time>
      </trkpt>
      <trkpt lat="42.97129" lon="1.1359">
        <ele>540</ele>
        <time>2025-09-20T07:35:42.000Z</time>
      </trkpt>
      <trkpt lat="42.97127" lon="1.13589">
        <ele>541</ele>
        <time>2025-09-20T07:35:43.000Z</time>
      </trkpt>
      <trkpt lat="42.97126" lon="1.13589">
        <ele>541</ele>
        <time>2025-09-20T07:35:44.000Z</time>
      </trkpt>
      <trkpt lat="42.97124" lon="1.13588">
        <ele>542</ele>
        <time>2025-09-20T07:35:45.000Z</time>
      </trkpt>
      <trkpt lat="42.97122" lon="1.13587">
        <ele>542</ele>
        <time>2025-09-20T07:35:46.000Z</time>
      </trkpt>
      <trkpt lat="42.97121" lon="1.13586">
        <ele>543</ele>
        <time>2025-09-20T07:35:47.000Z</time>
      </trkpt>
      <trkpt lat="42.97119" lon="1.13586">
        <ele>544</ele>
        <time>2025-09-20T07:35:48.000Z</time>
      </trkpt>
      <trkpt lat="42.97117" lon="1.13586">
        <ele>545</ele>
        <time>2025-09-20T07:35:49.000Z</time>
      </trkpt>
      <trkpt lat="42.97115" lon="1.13585">
        <ele>545</ele>
        <time>2025-09-20T07:35:50.000Z</time>
      </trkpt>
      <trkpt lat="42.97113" lon="1.13584">
        <ele>546</ele>
        <time>2025-09-20T07:35:51.000Z</time>
      </trkpt>
      <trkpt lat="42.97111" lon="1.13584">
        <ele>546</ele>
        <time>2025-09-20T07:35:52.000Z</time>
      </trkpt>
      <trkpt lat="42.97108" lon="1.13583">
        <ele>546</ele>
        <time>2025-09-20T07:35:53.000Z</time>
      </trkpt>
      <trkpt lat="42.97107" lon="1.13583">
        <ele>546</ele>
        <time>2025-09-20T07:35:54.000Z</time>
      </trkpt>
      <trkpt lat="42.97105" lon="1.13583">
        <ele>547</ele>
        <time>2025-09-20T07:35:55.000Z</time>
      </trkpt>
      <trkpt lat="42.97104" lon="1.13582">
        <ele>548</ele>
        <time>2025-09-20T07:35:56.000Z</time>
      </trkpt>
      <trkpt lat="42.97103" lon="1.13581">
        <ele>549</ele>
        <time>2025-09-20T07:35:57.000Z</time>
      </trkpt>
      <trkpt lat="42.97101" lon="1.1358">
        <ele>549</ele>
        <time>2025-09-20T07:35:58.000Z</time>
      </trkpt>
      <trkpt lat="42.971" lon="1.13579">
        <ele>550</ele>
        <time>2025-09-20T07:35:59.000Z</time>
      </trkpt>
      <trkpt lat="42.97098" lon="1.13577">
        <ele>551</ele>
        <time>2025-09-20T07:36:00.000Z</time>
      </trkpt>
      <trkpt lat="42.97096" lon="1.13576">
        <ele>553</ele>
        <time>2025-09-20T07:36:01.000Z</time>
      </trkpt>
      <trkpt lat="42.97095" lon="1.13575">
        <ele>554</ele>
        <time>2025-09-20T07:36:02.000Z</time>
      </trkpt>
      <trkpt lat="42.97093" lon="1.13574">
        <ele>554</ele>
        <time>2025-09-20T07:36:03.000Z</time>
      </trkpt>
      <trkpt lat="42.97091" lon="1.13573">
        <ele>554</ele>
        <time>2025-09-20T07:36:04.000Z</time>
      </trkpt>
      <trkpt lat="42.97089" lon="1.13573">
        <ele>555</ele>
        <time>2025-09-20T07:36:05.000Z</time>
      </trkpt>
      <trkpt lat="42.97086" lon="1.13572">
        <ele>555</ele>
        <time>2025-09-20T07:36:06.000Z</time>
      </trkpt>
      <trkpt lat="42.97083" lon="1.1357">
        <ele>555</ele>
        <time>2025-09-20T07:36:07.000Z</time>
      </trkpt>
      <trkpt lat="42.97081" lon="1.1357">
        <ele>555</ele>
        <time>2025-09-20T07:36:08.000Z</time>
      </trkpt>
      <trkpt lat="42.97078" lon="1.1357">
        <ele>555</ele>
        <time>2025-09-20T07:36:09.000Z</time>
      </trkpt>
      <trkpt lat="42.97076" lon="1.13571">
        <ele>555</ele>
        <time>2025-09-20T07:36:10.000Z</time>
      </trkpt>
      <trkpt lat="42.97073" lon="1.13572">
        <ele>556</ele>
        <time>2025-09-20T07:36:11.000Z</time>
      </trkpt>
      <trkpt lat="42.97071" lon="1.13573">
        <ele>556</ele>
        <time>2025-09-20T07:36:12.000Z</time>
      </trkpt>
      <trkpt lat="42.97069" lon="1.13575">
        <ele>557</ele>
        <time>2025-09-20T07:36:13.000Z</time>
      </trkpt>
      <trkpt lat="42.97067" lon="1.13576">
        <ele>557</ele>
        <time>2025-09-20T07:36:14.000Z</time>
      </trkpt>
      <trkpt lat="42.97065" lon="1.13577">
        <ele>557</ele>
        <time>2025-09-20T07:36:15.000Z</time>
      </trkpt>
      <trkpt lat="42.97063" lon="1.13579">
        <ele>557</ele>
        <time>2025-09-20T07:36:16.000Z</time>
      </trkpt>
      <trkpt lat="42.97061" lon="1.1358">
        <ele>557</ele>
        <time>2025-09-20T07:36:17.000Z</time>
      </trkpt>
      <trkpt lat="42.97059" lon="1.13581">
        <ele>557</ele>
        <time>2025-09-20T07:36:18.000Z</time>
      </trkpt>
      <trkpt lat="42.97057" lon="1.13582">
        <ele>557</ele>
        <time>2025-09-20T07:36:19.000Z</time>
      </trkpt>
      <trkpt lat="42.97055" lon="1.13583">
        <ele>557</ele>
        <time>2025-09-20T07:36:20.000Z</time>
      </trkpt>
      <trkpt lat="42.97053" lon="1.13584">
        <ele>557</ele>
        <time>2025-09-20T07:36:21.000Z</time>
      </trkpt>
      <trkpt lat="42.97052" lon="1.13586">
        <ele>557</ele>
        <time>2025-09-20T07:36:22.000Z</time>
      </trkpt>
      <trkpt lat="42.9705" lon="1.13588">
        <ele>558</ele>
        <time>2025-09-20T07:36:23.000Z</time>
      </trkpt>
      <trkpt lat="42.97049" lon="1.13589">
        <ele>559</ele>
        <time>2025-09-20T07:36:24.000Z</time>
      </trkpt>
      <trkpt lat="42.97047" lon="1.13591">
        <ele>559</ele>
        <time>2025-09-20T07:36:25.000Z</time>
      </trkpt>
      <trkpt lat="42.97046" lon="1.13593">
        <ele>560</ele>
        <time>2025-09-20T07:36:26.000Z</time>
      </trkpt>
      <trkpt lat="42.97044" lon="1.13595">
        <ele>561</ele>
        <time>2025-09-20T07:36:27.000Z</time>
      </trkpt>
      <trkpt lat="42.97043" lon="1.13598">
        <ele>561</ele>
        <time>2025-09-20T07:36:28.000Z</time>
      </trkpt>
      <trkpt lat="42.97042" lon="1.13601">
        <ele>562</ele>
        <time>2025-09-20T07:36:29.000Z</time>
      </trkpt>
      <trkpt lat="42.9704" lon="1.13604">
        <ele>563</ele>
        <time>2025-09-20T07:36:30.000Z</time>
      </trkpt>
      <trkpt lat="42.97039" lon="1.13608">
        <ele>563</ele>
        <time>2025-09-20T07:36:31.000Z</time>
      </trkpt>
      <trkpt lat="42.97038" lon="1.13611">
        <ele>564</ele>
        <time>2025-09-20T07:36:32.000Z</time>
      </trkpt>
      <trkpt lat="42.97037" lon="1.13614">
        <ele>564</ele>
        <time>2025-09-20T07:36:33.000Z</time>
      </trkpt>
      <trkpt lat="42.97036" lon="1.13617">
        <ele>565</ele>
        <time>2025-09-20T07:36:34.000Z</time>
      </trkpt>
      <trkpt lat="42.97034" lon="1.1362">
        <ele>565</ele>
        <time>2025-09-20T07:36:35.000Z</time>
      </trkpt>
      <trkpt lat="42.97033" lon="1.13622">
        <ele>566</ele>
        <time>2025-09-20T07:36:36.000Z</time>
      </trkpt>
      <trkpt lat="42.97031" lon="1.13624">
        <ele>566</ele>
        <time>2025-09-20T07:36:37.000Z</time>
      </trkpt>
      <trkpt lat="42.97029" lon="1.13626">
        <ele>566</ele>
        <time>2025-09-20T07:36:38.000Z</time>
      </trkpt>
      <trkpt lat="42.97028" lon="1.13628">
        <ele>566</ele>
        <time>2025-09-20T07:36:39.000Z</time>
      </trkpt>
      <trkpt lat="42.97027" lon="1.1363">
        <ele>567</ele>
        <time>2025-09-20T07:36:40.000Z</time>
      </trkpt>
      <trkpt lat="42.97026" lon="1.13632">
        <ele>567</ele>
        <time>2025-09-20T07:36:41.000Z</time>
      </trkpt>
      <trkpt lat="42.97025" lon="1.13634">
        <ele>568</ele>
        <time>2025-09-20T07:36:42.000Z</time>
      </trkpt>
      <trkpt lat="42.97024" lon="1.13636">
        <ele>568</ele>
        <time>2025-09-20T07:36:43.000Z</time>
      </trkpt>
      <trkpt lat="42.97022" lon="1.13639">
        <ele>568</ele>
        <time>2025-09-20T07:36:44.000Z</time>
      </trkpt>
      <trkpt lat="42.97021" lon="1.13641">
        <ele>568</ele>
        <time>2025-09-20T07:36:45.000Z</time>
      </trkpt>
      <trkpt lat="42.97021" lon="1.13644">
        <ele>569</ele>
        <time>2025-09-20T07:36:46.000Z</time>
      </trkpt>
      <trkpt lat="42.9702" lon="1.13647">
        <ele>568</ele>
        <time>2025-09-20T07:36:47.000Z</time>
      </trkpt>
      <trkpt lat="42.9702" lon="1.1365">
        <ele>569</ele>
        <time>2025-09-20T07:36:48.000Z</time>
      </trkpt>
      <trkpt lat="42.97019" lon="1.13653">
        <ele>570</ele>
        <time>2025-09-20T07:36:49.000Z</time>
      </trkpt>
      <trkpt lat="42.97019" lon="1.13657">
        <ele>571</ele>
        <time>2025-09-20T07:36:50.000Z</time>
      </trkpt>
      <trkpt lat="42.9702" lon="1.13659">
        <ele>572</ele>
        <time>2025-09-20T07:36:51.000Z</time>
      </trkpt>
      <trkpt lat="42.9702" lon="1.13662">
        <ele>573</ele>
        <time>2025-09-20T07:36:52.000Z</time>
      </trkpt>
      <trkpt lat="42.97021" lon="1.13664">
        <ele>573</ele>
        <time>2025-09-20T07:36:53.000Z</time>
      </trkpt>
      <trkpt lat="42.97023" lon="1.13667">
        <ele>573</ele>
        <time>2025-09-20T07:36:54.000Z</time>
      </trkpt>
      <trkpt lat="42.97023" lon="1.1367">
        <ele>573</ele>
        <time>2025-09-20T07:36:55.000Z</time>
      </trkpt>
      <trkpt lat="42.97024" lon="1.13672">
        <ele>573</ele>
        <time>2025-09-20T07:36:56.000Z</time>
      </trkpt>
      <trkpt lat="42.97025" lon="1.13676">
        <ele>574</ele>
        <time>2025-09-20T07:36:57.000Z</time>
      </trkpt>
      <trkpt lat="42.97025" lon="1.13678">
        <ele>574</ele>
        <time>2025-09-20T07:36:58.000Z</time>
      </trkpt>
      <trkpt lat="42.97026" lon="1.13681">
        <ele>574</ele>
        <time>2025-09-20T07:36:59.000Z</time>
      </trkpt>
      <trkpt lat="42.97027" lon="1.13684">
        <ele>575</ele>
        <time>2025-09-20T07:37:00.000Z</time>
      </trkpt>
      <trkpt lat="42.97028" lon="1.13686">
        <ele>575</ele>
        <time>2025-09-20T07:37:01.000Z</time>
      </trkpt>
      <trkpt lat="42.97029" lon="1.13689">
        <ele>575</ele>
        <time>2025-09-20T07:37:02.000Z</time>
      </trkpt>
      <trkpt lat="42.9703" lon="1.13692">
        <ele>576</ele>
        <time>2025-09-20T07:37:03.000Z</time>
      </trkpt>
      <trkpt lat="42.9703" lon="1.13694">
        <ele>576</ele>
        <time>2025-09-20T07:37:04.000Z</time>
      </trkpt>
      <trkpt lat="42.9703" lon="1.13697">
        <ele>576</ele>
        <time>2025-09-20T07:37:05.000Z</time>
      </trkpt>
      <trkpt lat="42.97031" lon="1.137">
        <ele>577</ele>
        <time>2025-09-20T07:37:06.000Z</time>
      </trkpt>
      <trkpt lat="42.9703" lon="1.13703">
        <ele>577</ele>
        <time>2025-09-20T07:37:07.000Z</time>
      </trkpt>
      <trkpt lat="42.97031" lon="1.13706">
        <ele>577</ele>
        <time>2025-09-20T07:37:08.000Z</time>
      </trkpt>
      <trkpt lat="42.97031" lon="1.13708">
        <ele>578</ele>
        <time>2025-09-20T07:37:09.000Z</time>
      </trkpt>
      <trkpt lat="42.9703" lon="1.13711">
        <ele>578</ele>
        <time>2025-09-20T07:37:10.000Z</time>
      </trkpt>
      <trkpt lat="42.9703" lon="1.13714">
        <ele>578</ele>
        <time>2025-09-20T07:37:11.000Z</time>
      </trkpt>
      <trkpt lat="42.97029" lon="1.13717">
        <ele>578</ele>
        <time>2025-09-20T07:37:12.000Z</time>
      </trkpt>
      <trkpt lat="42.97029" lon="1.1372">
        <ele>579</ele>
        <time>2025-09-20T07:37:13.000Z</time>
      </trkpt>
      <trkpt lat="42.97029" lon="1.13722">
        <ele>579</ele>
        <time>2025-09-20T07:37:14.000Z</time>
      </trkpt>
      <trkpt lat="42.97029" lon="1.13725">
        <ele>579</ele>
        <time>2025-09-20T07:37:15.000Z</time>
      </trkpt>
      <trkpt lat="42.97029" lon="1.13728">
        <ele>580</ele>
        <time>2025-09-20T07:37:16.000Z</time>
      </trkpt>
      <trkpt lat="42.97028" lon="1.13731">
        <ele>580</ele>
        <time>2025-09-20T07:37:17.000Z</time>
      </trkpt>
      <trkpt lat="42.97028" lon="1.13734">
        <ele>581</ele>
        <time>2025-09-20T07:37:18.000Z</time>
      </trkpt>
      <trkpt lat="42.97028" lon="1.13737">
        <ele>582</ele>
        <time>2025-09-20T07:37:19.000Z</time>
      </trkpt>
      <trkpt lat="42.97028" lon="1.13739">
        <ele>582</ele>
        <time>2025-09-20T07:37:20.000Z</time>
      </trkpt>
      <trkpt lat="42.97027" lon="1.13742">
        <ele>582</ele>
        <time>2025-09-20T07:37:21.000Z</time>
      </trkpt>
      <trkpt lat="42.97027" lon="1.13745">
        <ele>582</ele>
        <time>2025-09-20T07:37:22.000Z</time>
      </trkpt>
      <trkpt lat="42.97026" lon="1.13748">
        <ele>582</ele>
        <time>2025-09-20T07:37:23.000Z</time>
      </trkpt>
      <trkpt lat="42.97024" lon="1.13751">
        <ele>583</ele>
        <time>2025-09-20T07:37:24.000Z</time>
      </trkpt>
      <trkpt lat="42.97023" lon="1.13753">
        <ele>583</ele>
        <time>2025-09-20T07:37:25.000Z</time>
      </trkpt>
      <trkpt lat="42.97022" lon="1.13755">
        <ele>583</ele>
        <time>2025-09-20T07:37:26.000Z</time>
      </trkpt>
      <trkpt lat="42.9702" lon="1.13757">
        <ele>583</ele>
        <time>2025-09-20T07:37:27.000Z</time>
      </trkpt>
      <trkpt lat="42.97018" lon="1.13759">
        <ele>583</ele>
        <time>2025-09-20T07:37:28.000Z</time>
      </trkpt>
      <trkpt lat="42.97016" lon="1.13762">
        <ele>583</ele>
        <time>2025-09-20T07:37:29.000Z</time>
      </trkpt>
      <trkpt lat="42.97014" lon="1.13764">
        <ele>583</ele>
        <time>2025-09-20T07:37:30.000Z</time>
      </trkpt>
      <trkpt lat="42.97011" lon="1.13767">
        <ele>583</ele>
        <time>2025-09-20T07:37:31.000Z</time>
      </trkpt>
      <trkpt lat="42.97008" lon="1.13771">
        <ele>583</ele>
        <time>2025-09-20T07:37:32.000Z</time>
      </trkpt>
      <trkpt lat="42.97006" lon="1.13773">
        <ele>583</ele>
        <time>2025-09-20T07:37:33.000Z</time>
      </trkpt>
      <trkpt lat="42.97003" lon="1.13775">
        <ele>584</ele>
        <time>2025-09-20T07:37:34.000Z</time>
      </trkpt>
      <trkpt lat="42.97" lon="1.13777">
        <ele>584</ele>
        <time>2025-09-20T07:37:35.000Z</time>
      </trkpt>
      <trkpt lat="42.96997" lon="1.13779">
        <ele>584</ele>
        <time>2025-09-20T07:37:36.000Z</time>
      </trkpt>
      <trkpt lat="42.96995" lon="1.1378">
        <ele>584</ele>
        <time>2025-09-20T07:37:37.000Z</time>
      </trkpt>
      <trkpt lat="42.96992" lon="1.13782">
        <ele>584</ele>
        <time>2025-09-20T07:37:38.000Z</time>
      </trkpt>
      <trkpt lat="42.9699" lon="1.13784">
        <ele>584</ele>
        <time>2025-09-20T07:37:39.000Z</time>
      </trkpt>
      <trkpt lat="42.96987" lon="1.13785">
        <ele>584</ele>
        <time>2025-09-20T07:37:40.000Z</time>
      </trkpt>
      <trkpt lat="42.96985" lon="1.13787">
        <ele>584</ele>
        <time>2025-09-20T07:37:41.000Z</time>
      </trkpt>
      <trkpt lat="42.96983" lon="1.1379">
        <ele>584</ele>
        <time>2025-09-20T07:37:42.000Z</time>
      </trkpt>
      <trkpt lat="42.96982" lon="1.13793">
        <ele>584</ele>
        <time>2025-09-20T07:37:43.000Z</time>
      </trkpt>
      <trkpt lat="42.9698" lon="1.13795">
        <ele>584</ele>
        <time>2025-09-20T07:37:44.000Z</time>
      </trkpt>
      <trkpt lat="42.96979" lon="1.13798">
        <ele>584</ele>
        <time>2025-09-20T07:37:45.000Z</time>
      </trkpt>
      <trkpt lat="42.96977" lon="1.13801">
        <ele>584</ele>
        <time>2025-09-20T07:37:46.000Z</time>
      </trkpt>
      <trkpt lat="42.96976" lon="1.13805">
        <ele>585</ele>
        <time>2025-09-20T07:37:47.000Z</time>
      </trkpt>
      <trkpt lat="42.96976" lon="1.13808">
        <ele>585</ele>
        <time>2025-09-20T07:37:48.000Z</time>
      </trkpt>
      <trkpt lat="42.96975" lon="1.13811">
        <ele>585</ele>
        <time>2025-09-20T07:37:49.000Z</time>
      </trkpt>
      <trkpt lat="42.96974" lon="1.13814">
        <ele>585</ele>
        <time>2025-09-20T07:37:50.000Z</time>
      </trkpt>
      <trkpt lat="42.96973" lon="1.13817">
        <ele>585</ele>
        <time>2025-09-20T07:37:51.000Z</time>
      </trkpt>
      <trkpt lat="42.96972" lon="1.1382">
        <ele>585</ele>
        <time>2025-09-20T07:37:52.000Z</time>
      </trkpt>
      <trkpt lat="42.96972" lon="1.13823">
        <ele>585</ele>
        <time>2025-09-20T07:37:53.000Z</time>
      </trkpt>
      <trkpt lat="42.96972" lon="1.13827">
        <ele>585</ele>
        <time>2025-09-20T07:37:54.000Z</time>
      </trkpt>
      <trkpt lat="42.96971" lon="1.13831">
        <ele>586</ele>
        <time>2025-09-20T07:37:55.000Z</time>
      </trkpt>
      <trkpt lat="42.96971" lon="1.13834">
        <ele>586</ele>
        <time>2025-09-20T07:37:56.000Z</time>
      </trkpt>
      <trkpt lat="42.9697" lon="1.13837">
        <ele>586</ele>
        <time>2025-09-20T07:37:57.000Z</time>
      </trkpt>
      <trkpt lat="42.9697" lon="1.13841">
        <ele>585</ele>
        <time>2025-09-20T07:37:58.000Z</time>
      </trkpt>
      <trkpt lat="42.96969" lon="1.13845">
        <ele>585</ele>
        <time>2025-09-20T07:37:59.000Z</time>
      </trkpt>
      <trkpt lat="42.96968" lon="1.13847">
        <ele>585</ele>
        <time>2025-09-20T07:38:00.000Z</time>
      </trkpt>
      <trkpt lat="42.96967" lon="1.13851">
        <ele>585</ele>
        <time>2025-09-20T07:38:01.000Z</time>
      </trkpt>
      <trkpt lat="42.96966" lon="1.13854">
        <ele>585</ele>
        <time>2025-09-20T07:38:02.000Z</time>
      </trkpt>
      <trkpt lat="42.96965" lon="1.13857">
        <ele>585</ele>
        <time>2025-09-20T07:38:03.000Z</time>
      </trkpt>
      <trkpt lat="42.96965" lon="1.13861">
        <ele>585</ele>
        <time>2025-09-20T07:38:04.000Z</time>
      </trkpt>
      <trkpt lat="42.96964" lon="1.13865">
        <ele>585</ele>
        <time>2025-09-20T07:38:05.000Z</time>
      </trkpt>
      <trkpt lat="42.96963" lon="1.13868">
        <ele>586</ele>
        <time>2025-09-20T07:38:06.000Z</time>
      </trkpt>
      <trkpt lat="42.96963" lon="1.13871">
        <ele>586</ele>
        <time>2025-09-20T07:38:07.000Z</time>
      </trkpt>
      <trkpt lat="42.96962" lon="1.13874">
        <ele>586</ele>
        <time>2025-09-20T07:38:08.000Z</time>
      </trkpt>
      <trkpt lat="42.96961" lon="1.13878">
        <ele>586</ele>
        <time>2025-09-20T07:38:09.000Z</time>
      </trkpt>
      <trkpt lat="42.96961" lon="1.13881">
        <ele>586</ele>
        <time>2025-09-20T07:38:10.000Z</time>
      </trkpt>
      <trkpt lat="42.9696" lon="1.13885">
        <ele>586</ele>
        <time>2025-09-20T07:38:11.000Z</time>
      </trkpt>
      <trkpt lat="42.96959" lon="1.13888">
        <ele>586</ele>
        <time>2025-09-20T07:38:12.000Z</time>
      </trkpt>
      <trkpt lat="42.96958" lon="1.13891">
        <ele>586</ele>
        <time>2025-09-20T07:38:13.000Z</time>
      </trkpt>
      <trkpt lat="42.96958" lon="1.13894">
        <ele>586</ele>
        <time>2025-09-20T07:38:14.000Z</time>
      </trkpt>
      <trkpt lat="42.96958" lon="1.13898">
        <ele>586</ele>
        <time>2025-09-20T07:38:15.000Z</time>
      </trkpt>
      <trkpt lat="42.96957" lon="1.13902">
        <ele>586</ele>
        <time>2025-09-20T07:38:16.000Z</time>
      </trkpt>
      <trkpt lat="42.96956" lon="1.13905">
        <ele>586</ele>
        <time>2025-09-20T07:38:17.000Z</time>
      </trkpt>
      <trkpt lat="42.96956" lon="1.13909">
        <ele>587</ele>
        <time>2025-09-20T07:38:18.000Z</time>
      </trkpt>
      <trkpt lat="42.96955" lon="1.13912">
        <ele>587</ele>
        <time>2025-09-20T07:38:19.000Z</time>
      </trkpt>
      <trkpt lat="42.96954" lon="1.13915">
        <ele>587</ele>
        <time>2025-09-20T07:38:20.000Z</time>
      </trkpt>
      <trkpt lat="42.96953" lon="1.13919">
        <ele>587</ele>
        <time>2025-09-20T07:38:21.000Z</time>
      </trkpt>
      <trkpt lat="42.96953" lon="1.13923">
        <ele>587</ele>
        <time>2025-09-20T07:38:22.000Z</time>
      </trkpt>
      <trkpt lat="42.96952" lon="1.13927">
        <ele>587</ele>
        <time>2025-09-20T07:38:23.000Z</time>
      </trkpt>
      <trkpt lat="42.96952" lon="1.1393">
        <ele>587</ele>
        <time>2025-09-20T07:38:24.000Z</time>
      </trkpt>
      <trkpt lat="42.96951" lon="1.13934">
        <ele>587</ele>
        <time>2025-09-20T07:38:25.000Z</time>
      </trkpt>
      <trkpt lat="42.9695" lon="1.13937">
        <ele>588</ele>
        <time>2025-09-20T07:38:26.000Z</time>
      </trkpt>
      <trkpt lat="42.9695" lon="1.13941">
        <ele>588</ele>
        <time>2025-09-20T07:38:27.000Z</time>
      </trkpt>
      <trkpt lat="42.96949" lon="1.13945">
        <ele>588</ele>
        <time>2025-09-20T07:38:28.000Z</time>
      </trkpt>
      <trkpt lat="42.96949" lon="1.13948">
        <ele>589</ele>
        <time>2025-09-20T07:38:29.000Z</time>
      </trkpt>
      <trkpt lat="42.96948" lon="1.13952">
        <ele>589</ele>
        <time>2025-09-20T07:38:30.000Z</time>
      </trkpt>
      <trkpt lat="42.96947" lon="1.13956">
        <ele>589</ele>
        <time>2025-09-20T07:38:31.000Z</time>
      </trkpt>
      <trkpt lat="42.96947" lon="1.13959">
        <ele>590</ele>
        <time>2025-09-20T07:38:32.000Z</time>
      </trkpt>
      <trkpt lat="42.96946" lon="1.13963">
        <ele>590</ele>
        <time>2025-09-20T07:38:33.000Z</time>
      </trkpt>
      <trkpt lat="42.96945" lon="1.13966">
        <ele>590</ele>
        <time>2025-09-20T07:38:34.000Z</time>
      </trkpt>
      <trkpt lat="42.96944" lon="1.1397">
        <ele>591</ele>
        <time>2025-09-20T07:38:35.000Z</time>
      </trkpt>
      <trkpt lat="42.96943" lon="1.13974">
        <ele>591</ele>
        <time>2025-09-20T07:38:36.000Z</time>
      </trkpt>
      <trkpt lat="42.96943" lon="1.13978">
        <ele>591</ele>
        <time>2025-09-20T07:38:37.000Z</time>
      </trkpt>
      <trkpt lat="42.96942" lon="1.13981">
        <ele>591</ele>
        <time>2025-09-20T07:38:38.000Z</time>
      </trkpt>
      <trkpt lat="42.96941" lon="1.13985">
        <ele>591</ele>
        <time>2025-09-20T07:38:39.000Z</time>
      </trkpt>
      <trkpt lat="42.9694" lon="1.13988">
        <ele>591</ele>
        <time>2025-09-20T07:38:40.000Z</time>
      </trkpt>
      <trkpt lat="42.96938" lon="1.13992">
        <ele>591</ele>
        <time>2025-09-20T07:38:41.000Z</time>
      </trkpt>
      <trkpt lat="42.96938" lon="1.13994">
        <ele>592</ele>
        <time>2025-09-20T07:38:42.000Z</time>
      </trkpt>
      <trkpt lat="42.96937" lon="1.13997">
        <ele>592</ele>
        <time>2025-09-20T07:38:43.000Z</time>
      </trkpt>
      <trkpt lat="42.96936" lon="1.14001">
        <ele>592</ele>
        <time>2025-09-20T07:38:44.000Z</time>
      </trkpt>
      <trkpt lat="42.96935" lon="1.14004">
        <ele>592</ele>
        <time>2025-09-20T07:38:45.000Z</time>
      </trkpt>
      <trkpt lat="42.96934" lon="1.14008">
        <ele>592</ele>
        <time>2025-09-20T07:38:46.000Z</time>
      </trkpt>
      <trkpt lat="42.96932" lon="1.14011">
        <ele>593</ele>
        <time>2025-09-20T07:38:47.000Z</time>
      </trkpt>
      <trkpt lat="42.96931" lon="1.14014">
        <ele>593</ele>
        <time>2025-09-20T07:38:48.000Z</time>
      </trkpt>
      <trkpt lat="42.9693" lon="1.14018">
        <ele>594</ele>
        <time>2025-09-20T07:38:49.000Z</time>
      </trkpt>
      <trkpt lat="42.96929" lon="1.14021">
        <ele>595</ele>
        <time>2025-09-20T07:38:50.000Z</time>
      </trkpt>
      <trkpt lat="42.96928" lon="1.14025">
        <ele>595</ele>
        <time>2025-09-20T07:38:51.000Z</time>
      </trkpt>
      <trkpt lat="42.96927" lon="1.14029">
        <ele>596</ele>
        <time>2025-09-20T07:38:52.000Z</time>
      </trkpt>
      <trkpt lat="42.96925" lon="1.14032">
        <ele>596</ele>
        <time>2025-09-20T07:38:53.000Z</time>
      </trkpt>
      <trkpt lat="42.96924" lon="1.14035">
        <ele>597</ele>
        <time>2025-09-20T07:38:54.000Z</time>
      </trkpt>
      <trkpt lat="42.96922" lon="1.14039">
        <ele>597</ele>
        <time>2025-09-20T07:38:55.000Z</time>
      </trkpt>
      <trkpt lat="42.96921" lon="1.14042">
        <ele>598</ele>
        <time>2025-09-20T07:38:56.000Z</time>
      </trkpt>
      <trkpt lat="42.9692" lon="1.14045">
        <ele>598</ele>
        <time>2025-09-20T07:38:57.000Z</time>
      </trkpt>
      <trkpt lat="42.96919" lon="1.14049">
        <ele>598</ele>
        <time>2025-09-20T07:38:58.000Z</time>
      </trkpt>
      <trkpt lat="42.96918" lon="1.14053">
        <ele>598</ele>
        <time>2025-09-20T07:38:59.000Z</time>
      </trkpt>
      <trkpt lat="42.96918" lon="1.14056">
        <ele>598</ele>
        <time>2025-09-20T07:39:00.000Z</time>
      </trkpt>
      <trkpt lat="42.96917" lon="1.1406">
        <ele>598</ele>
        <time>2025-09-20T07:39:01.000Z</time>
      </trkpt>
      <trkpt lat="42.96916" lon="1.14064">
        <ele>597</ele>
        <time>2025-09-20T07:39:02.000Z</time>
      </trkpt>
      <trkpt lat="42.96916" lon="1.14068">
        <ele>598</ele>
        <time>2025-09-20T07:39:03.000Z</time>
      </trkpt>
      <trkpt lat="42.96916" lon="1.14071">
        <ele>598</ele>
        <time>2025-09-20T07:39:04.000Z</time>
      </trkpt>
      <trkpt lat="42.96916" lon="1.14075">
        <ele>598</ele>
        <time>2025-09-20T07:39:05.000Z</time>
      </trkpt>
      <trkpt lat="42.96915" lon="1.14079">
        <ele>598</ele>
        <time>2025-09-20T07:39:06.000Z</time>
      </trkpt>
      <trkpt lat="42.96915" lon="1.14083">
        <ele>598</ele>
        <time>2025-09-20T07:39:07.000Z</time>
      </trkpt>
      <trkpt lat="42.96915" lon="1.14086">
        <ele>599</ele>
        <time>2025-09-20T07:39:08.000Z</time>
      </trkpt>
      <trkpt lat="42.96913" lon="1.14089">
        <ele>601</ele>
        <time>2025-09-20T07:39:09.000Z</time>
      </trkpt>
      <trkpt lat="42.96911" lon="1.14092">
        <ele>602</ele>
        <time>2025-09-20T07:39:10.000Z</time>
      </trkpt>
      <trkpt lat="42.96909" lon="1.14093">
        <ele>602</ele>
        <time>2025-09-20T07:39:11.000Z</time>
      </trkpt>
      <trkpt lat="42.96907" lon="1.14092">
        <ele>602</ele>
        <time>2025-09-20T07:39:12.000Z</time>
      </trkpt>
      <trkpt lat="42.96905" lon="1.1409">
        <ele>604</ele>
        <time>2025-09-20T07:39:13.000Z</time>
      </trkpt>
      <trkpt lat="42.96902" lon="1.14087">
        <ele>605</ele>
        <time>2025-09-20T07:39:14.000Z</time>
      </trkpt>
      <trkpt lat="42.969" lon="1.14085">
        <ele>606</ele>
        <time>2025-09-20T07:39:15.000Z</time>
      </trkpt>
      <trkpt lat="42.96898" lon="1.14083">
        <ele>607</ele>
        <time>2025-09-20T07:39:16.000Z</time>
      </trkpt>
      <trkpt lat="42.96896" lon="1.14081">
        <ele>608</ele>
        <time>2025-09-20T07:39:17.000Z</time>
      </trkpt>
      <trkpt lat="42.96894" lon="1.14079">
        <ele>608</ele>
        <time>2025-09-20T07:39:18.000Z</time>
      </trkpt>
      <trkpt lat="42.96892" lon="1.14077">
        <ele>609</ele>
        <time>2025-09-20T07:39:19.000Z</time>
      </trkpt>
      <trkpt lat="42.9689" lon="1.14074">
        <ele>609</ele>
        <time>2025-09-20T07:39:20.000Z</time>
      </trkpt>
      <trkpt lat="42.96889" lon="1.14072">
        <ele>609</ele>
        <time>2025-09-20T07:39:21.000Z</time>
      </trkpt>
      <trkpt lat="42.96887" lon="1.1407">
        <ele>609</ele>
        <time>2025-09-20T07:39:22.000Z</time>
      </trkpt>
      <trkpt lat="42.96885" lon="1.14067">
        <ele>610</ele>
        <time>2025-09-20T07:39:23.000Z</time>
      </trkpt>
      <trkpt lat="42.96884" lon="1.14064">
        <ele>610</ele>
        <time>2025-09-20T07:39:24.000Z</time>
      </trkpt>
      <trkpt lat="42.96883" lon="1.14062">
        <ele>610</ele>
        <time>2025-09-20T07:39:25.000Z</time>
      </trkpt>
      <trkpt lat="42.96882" lon="1.14059">
        <ele>610</ele>
        <time>2025-09-20T07:39:26.000Z</time>
      </trkpt>
      <trkpt lat="42.9688" lon="1.14056">
        <ele>610</ele>
        <time>2025-09-20T07:39:27.000Z</time>
      </trkpt>
      <trkpt lat="42.96879" lon="1.14053">
        <ele>610</ele>
        <time>2025-09-20T07:39:28.000Z</time>
      </trkpt>
      <trkpt lat="42.96878" lon="1.1405">
        <ele>609</ele>
        <time>2025-09-20T07:39:29.000Z</time>
      </trkpt>
      <trkpt lat="42.96877" lon="1.14047">
        <ele>610</ele>
        <time>2025-09-20T07:39:30.000Z</time>
      </trkpt>
      <trkpt lat="42.96876" lon="1.14044">
        <ele>610</ele>
        <time>2025-09-20T07:39:31.000Z</time>
      </trkpt>
      <trkpt lat="42.96876" lon="1.1404">
        <ele>610</ele>
        <time>2025-09-20T07:39:32.000Z</time>
      </trkpt>
      <trkpt lat="42.96875" lon="1.14038">
        <ele>611</ele>
        <time>2025-09-20T07:39:33.000Z</time>
      </trkpt>
      <trkpt lat="42.96874" lon="1.14035">
        <ele>611</ele>
        <time>2025-09-20T07:39:34.000Z</time>
      </trkpt>
      <trkpt lat="42.96873" lon="1.14032">
        <ele>611</ele>
        <time>2025-09-20T07:39:35.000Z</time>
      </trkpt>
      <trkpt lat="42.96872" lon="1.14029">
        <ele>611</ele>
        <time>2025-09-20T07:39:36.000Z</time>
      </trkpt>
      <trkpt lat="42.96871" lon="1.14025">
        <ele>612</ele>
        <time>2025-09-20T07:39:37.000Z</time>
      </trkpt>
      <trkpt lat="42.9687" lon="1.14022">
        <ele>612</ele>
        <time>2025-09-20T07:39:38.000Z</time>
      </trkpt>
      <trkpt lat="42.96869" lon="1.14018">
        <ele>613</ele>
        <time>2025-09-20T07:39:39.000Z</time>
      </trkpt>
      <trkpt lat="42.96868" lon="1.14015">
        <ele>613</ele>
        <time>2025-09-20T07:39:40.000Z</time>
      </trkpt>
      <trkpt lat="42.96867" lon="1.14013">
        <ele>614</ele>
        <time>2025-09-20T07:39:41.000Z</time>
      </trkpt>
      <trkpt lat="42.96865" lon="1.14012">
        <ele>614</ele>
        <time>2025-09-20T07:39:42.000Z</time>
      </trkpt>
      <trkpt lat="42.96862" lon="1.14013">
        <ele>614</ele>
        <time>2025-09-20T07:39:43.000Z</time>
      </trkpt>
      <trkpt lat="42.96861" lon="1.14015">
        <ele>614</ele>
        <time>2025-09-20T07:39:44.000Z</time>
      </trkpt>
      <trkpt lat="42.96861" lon="1.14018">
        <ele>614</ele>
        <time>2025-09-20T07:39:45.000Z</time>
      </trkpt>
      <trkpt lat="42.9686" lon="1.14022">
        <ele>614</ele>
        <time>2025-09-20T07:39:46.000Z</time>
      </trkpt>
      <trkpt lat="42.9686" lon="1.14026">
        <ele>614</ele>
        <time>2025-09-20T07:39:47.000Z</time>
      </trkpt>
      <trkpt lat="42.96859" lon="1.14031">
        <ele>613</ele>
        <time>2025-09-20T07:39:48.000Z</time>
      </trkpt>
      <trkpt lat="42.96859" lon="1.14036">
        <ele>613</ele>
        <time>2025-09-20T07:39:49.000Z</time>
      </trkpt>
      <trkpt lat="42.96858" lon="1.14041">
        <ele>612</ele>
        <time>2025-09-20T07:39:50.000Z</time>
      </trkpt>
      <trkpt lat="42.96859" lon="1.14047">
        <ele>613</ele>
        <time>2025-09-20T07:39:51.000Z</time>
      </trkpt>
      <trkpt lat="42.96859" lon="1.14052">
        <ele>612</ele>
        <time>2025-09-20T07:39:52.000Z</time>
      </trkpt>
      <trkpt lat="42.9686" lon="1.14057">
        <ele>612</ele>
        <time>2025-09-20T07:39:53.000Z</time>
      </trkpt>
      <trkpt lat="42.96859" lon="1.14063">
        <ele>613</ele>
        <time>2025-09-20T07:39:54.000Z</time>
      </trkpt>
      <trkpt lat="42.96858" lon="1.14068">
        <ele>613</ele>
        <time>2025-09-20T07:39:55.000Z</time>
      </trkpt>
      <trkpt lat="42.96857" lon="1.14071">
        <ele>613</ele>
        <time>2025-09-20T07:39:56.000Z</time>
      </trkpt>
      <trkpt lat="42.96855" lon="1.14073">
        <ele>613</ele>
        <time>2025-09-20T07:39:57.000Z</time>
      </trkpt>
      <trkpt lat="42.96852" lon="1.14075">
        <ele>613</ele>
        <time>2025-09-20T07:39:58.000Z</time>
      </trkpt>
      <trkpt lat="42.96849" lon="1.14076">
        <ele>614</ele>
        <time>2025-09-20T07:39:59.000Z</time>
      </trkpt>
      <trkpt lat="42.96846" lon="1.14076">
        <ele>614</ele>
        <time>2025-09-20T07:40:00.000Z</time>
      </trkpt>
      <trkpt lat="42.96844" lon="1.14075">
        <ele>614</ele>
        <time>2025-09-20T07:40:01.000Z</time>
      </trkpt>
      <trkpt lat="42.96841" lon="1.14074">
        <ele>615</ele>
        <time>2025-09-20T07:40:02.000Z</time>
      </trkpt>
      <trkpt lat="42.96838" lon="1.14072">
        <ele>616</ele>
        <time>2025-09-20T07:40:03.000Z</time>
      </trkpt>
      <trkpt lat="42.96835" lon="1.14071">
        <ele>616</ele>
        <time>2025-09-20T07:40:04.000Z</time>
      </trkpt>
      <trkpt lat="42.96832" lon="1.14069">
        <ele>616</ele>
        <time>2025-09-20T07:40:05.000Z</time>
      </trkpt>
      <trkpt lat="42.96829" lon="1.14068">
        <ele>616</ele>
        <time>2025-09-20T07:40:06.000Z</time>
      </trkpt>
      <trkpt lat="42.96827" lon="1.14067">
        <ele>616</ele>
        <time>2025-09-20T07:40:07.000Z</time>
      </trkpt>
      <trkpt lat="42.96824" lon="1.14066">
        <ele>616</ele>
        <time>2025-09-20T07:40:08.000Z</time>
      </trkpt>
      <trkpt lat="42.9682" lon="1.14066">
        <ele>616</ele>
        <time>2025-09-20T07:40:09.000Z</time>
      </trkpt>
      <trkpt lat="42.96817" lon="1.14067">
        <ele>616</ele>
        <time>2025-09-20T07:40:10.000Z</time>
      </trkpt>
      <trkpt lat="42.96815" lon="1.14068">
        <ele>616</ele>
        <time>2025-09-20T07:40:11.000Z</time>
      </trkpt>
      <trkpt lat="42.96811" lon="1.14069">
        <ele>616</ele>
        <time>2025-09-20T07:40:12.000Z</time>
      </trkpt>
      <trkpt lat="42.96809" lon="1.14071">
        <ele>616</ele>
        <time>2025-09-20T07:40:13.000Z</time>
      </trkpt>
      <trkpt lat="42.96806" lon="1.14073">
        <ele>616</ele>
        <time>2025-09-20T07:40:14.000Z</time>
      </trkpt>
      <trkpt lat="42.96804" lon="1.14075">
        <ele>616</ele>
        <time>2025-09-20T07:40:15.000Z</time>
      </trkpt>
      <trkpt lat="42.96802" lon="1.14077">
        <ele>616</ele>
        <time>2025-09-20T07:40:16.000Z</time>
      </trkpt>
      <trkpt lat="42.96799" lon="1.14079">
        <ele>616</ele>
        <time>2025-09-20T07:40:17.000Z</time>
      </trkpt>
      <trkpt lat="42.96796" lon="1.14079">
        <ele>616</ele>
        <time>2025-09-20T07:40:18.000Z</time>
      </trkpt>
      <trkpt lat="42.96793" lon="1.14079">
        <ele>616</ele>
        <time>2025-09-20T07:40:19.000Z</time>
      </trkpt>
      <trkpt lat="42.96791" lon="1.14079">
        <ele>617</ele>
        <time>2025-09-20T07:40:20.000Z</time>
      </trkpt>
      <trkpt lat="42.96788" lon="1.14078">
        <ele>617</ele>
        <time>2025-09-20T07:40:21.000Z</time>
      </trkpt>
      <trkpt lat="42.96786" lon="1.14077">
        <ele>617</ele>
        <time>2025-09-20T07:40:22.000Z</time>
      </trkpt>
      <trkpt lat="42.96784" lon="1.14077">
        <ele>618</ele>
        <time>2025-09-20T07:40:23.000Z</time>
      </trkpt>
      <trkpt lat="42.96782" lon="1.14076">
        <ele>618</ele>
        <time>2025-09-20T07:40:24.000Z</time>
      </trkpt>
      <trkpt lat="42.9678" lon="1.14075">
        <ele>618</ele>
        <time>2025-09-20T07:40:25.000Z</time>
      </trkpt>
      <trkpt lat="42.96777" lon="1.14074">
        <ele>619</ele>
        <time>2025-09-20T07:40:26.000Z</time>
      </trkpt>
      <trkpt lat="42.96775" lon="1.14073">
        <ele>619</ele>
        <time>2025-09-20T07:40:27.000Z</time>
      </trkpt>
      <trkpt lat="42.96773" lon="1.14071">
        <ele>619</ele>
        <time>2025-09-20T07:40:28.000Z</time>
      </trkpt>
      <trkpt lat="42.96771" lon="1.14071">
        <ele>619</ele>
        <time>2025-09-20T07:40:29.000Z</time>
      </trkpt>
      <trkpt lat="42.96769" lon="1.1407">
        <ele>619</ele>
        <time>2025-09-20T07:40:30.000Z</time>
      </trkpt>
      <trkpt lat="42.96767" lon="1.1407">
        <ele>620</ele>
        <time>2025-09-20T07:40:31.000Z</time>
      </trkpt>
      <trkpt lat="42.96765" lon="1.14069">
        <ele>620</ele>
        <time>2025-09-20T07:40:32.000Z</time>
      </trkpt>
      <trkpt lat="42.96763" lon="1.14068">
        <ele>621</ele>
        <time>2025-09-20T07:40:33.000Z</time>
      </trkpt>
      <trkpt lat="42.96761" lon="1.14068">
        <ele>621</ele>
        <time>2025-09-20T07:40:34.000Z</time>
      </trkpt>
      <trkpt lat="42.96759" lon="1.14067">
        <ele>621</ele>
        <time>2025-09-20T07:40:35.000Z</time>
      </trkpt>
      <trkpt lat="42.96757" lon="1.14067">
        <ele>622</ele>
        <time>2025-09-20T07:40:36.000Z</time>
      </trkpt>
      <trkpt lat="42.96755" lon="1.14066">
        <ele>622</ele>
        <time>2025-09-20T07:40:37.000Z</time>
      </trkpt>
      <trkpt lat="42.96753" lon="1.14065">
        <ele>623</ele>
        <time>2025-09-20T07:40:38.000Z</time>
      </trkpt>
      <trkpt lat="42.96751" lon="1.14064">
        <ele>623</ele>
        <time>2025-09-20T07:40:39.000Z</time>
      </trkpt>
      <trkpt lat="42.96749" lon="1.14063">
        <ele>624</ele>
        <time>2025-09-20T07:40:40.000Z</time>
      </trkpt>
      <trkpt lat="42.96747" lon="1.14063">
        <ele>624</ele>
        <time>2025-09-20T07:40:41.000Z</time>
      </trkpt>
      <trkpt lat="42.96745" lon="1.14063">
        <ele>624</ele>
        <time>2025-09-20T07:40:42.000Z</time>
      </trkpt>
      <trkpt lat="42.96743" lon="1.14062">
        <ele>624</ele>
        <time>2025-09-20T07:40:43.000Z</time>
      </trkpt>
      <trkpt lat="42.96741" lon="1.14061">
        <ele>625</ele>
        <time>2025-09-20T07:40:44.000Z</time>
      </trkpt>
      <trkpt lat="42.9674" lon="1.14061">
        <ele>625</ele>
        <time>2025-09-20T07:40:45.000Z</time>
      </trkpt>
      <trkpt lat="42.96738" lon="1.1406">
        <ele>626</ele>
        <time>2025-09-20T07:40:46.000Z</time>
      </trkpt>
      <trkpt lat="42.96736" lon="1.14059">
        <ele>626</ele>
        <time>2025-09-20T07:40:47.000Z</time>
      </trkpt>
      <trkpt lat="42.96734" lon="1.14058">
        <ele>626</ele>
        <time>2025-09-20T07:40:48.000Z</time>
      </trkpt>
      <trkpt lat="42.96733" lon="1.14056">
        <ele>627</ele>
        <time>2025-09-20T07:40:49.000Z</time>
      </trkpt>
      <trkpt lat="42.9673" lon="1.14055">
        <ele>627</ele>
        <time>2025-09-20T07:40:50.000Z</time>
      </trkpt>
      <trkpt lat="42.96728" lon="1.14054">
        <ele>627</ele>
        <time>2025-09-20T07:40:51.000Z</time>
      </trkpt>
      <trkpt lat="42.96726" lon="1.14054">
        <ele>627</ele>
        <time>2025-09-20T07:40:52.000Z</time>
      </trkpt>
      <trkpt lat="42.96724" lon="1.14053">
        <ele>627</ele>
        <time>2025-09-20T07:40:53.000Z</time>
      </trkpt>
      <trkpt lat="42.96722" lon="1.14052">
        <ele>627</ele>
        <time>2025-09-20T07:40:54.000Z</time>
      </trkpt>
      <trkpt lat="42.9672" lon="1.14052">
        <ele>627</ele>
        <time>2025-09-20T07:40:55.000Z</time>
      </trkpt>
      <trkpt lat="42.96718" lon="1.14052">
        <ele>627</ele>
        <time>2025-09-20T07:40:56.000Z</time>
      </trkpt>
      <trkpt lat="42.96716" lon="1.14051">
        <ele>627</ele>
        <time>2025-09-20T07:40:57.000Z</time>
      </trkpt>
      <trkpt lat="42.96714" lon="1.14052">
        <ele>627</ele>
        <time>2025-09-20T07:40:58.000Z</time>
      </trkpt>
      <trkpt lat="42.96712" lon="1.14052">
        <ele>627</ele>
        <time>2025-09-20T07:40:59.000Z</time>
      </trkpt>
      <trkpt lat="42.9671" lon="1.14054">
        <ele>627</ele>
        <time>2025-09-20T07:41:00.000Z</time>
      </trkpt>
      <trkpt lat="42.96708" lon="1.14055">
        <ele>627</ele>
        <time>2025-09-20T07:41:01.000Z</time>
      </trkpt>
      <trkpt lat="42.96706" lon="1.14055">
        <ele>627</ele>
        <time>2025-09-20T07:41:02.000Z</time>
      </trkpt>
      <trkpt lat="42.96705" lon="1.14056">
        <ele>628</ele>
        <time>2025-09-20T07:41:03.000Z</time>
      </trkpt>
      <trkpt lat="42.96702" lon="1.14058">
        <ele>628</ele>
        <time>2025-09-20T07:41:04.000Z</time>
      </trkpt>
      <trkpt lat="42.967" lon="1.14059">
        <ele>628</ele>
        <time>2025-09-20T07:41:05.000Z</time>
      </trkpt>
      <trkpt lat="42.96698" lon="1.14061">
        <ele>629</ele>
        <time>2025-09-20T07:41:06.000Z</time>
      </trkpt>
      <trkpt lat="42.96696" lon="1.14063">
        <ele>630</ele>
        <time>2025-09-20T07:41:07.000Z</time>
      </trkpt>
      <trkpt lat="42.96694" lon="1.14064">
        <ele>630</ele>
        <time>2025-09-20T07:41:08.000Z</time>
      </trkpt>
      <trkpt lat="42.96691" lon="1.14066">
        <ele>630</ele>
        <time>2025-09-20T07:41:09.000Z</time>
      </trkpt>
      <trkpt lat="42.96689" lon="1.14067">
        <ele>631</ele>
        <time>2025-09-20T07:41:10.000Z</time>
      </trkpt>
      <trkpt lat="42.96686" lon="1.14068">
        <ele>631</ele>
        <time>2025-09-20T07:41:11.000Z</time>
      </trkpt>
      <trkpt lat="42.96684" lon="1.14071">
        <ele>630</ele>
        <time>2025-09-20T07:41:12.000Z</time>
      </trkpt>
      <trkpt lat="42.96681" lon="1.14074">
        <ele>629</ele>
        <time>2025-09-20T07:41:13.000Z</time>
      </trkpt>
      <trkpt lat="42.96677" lon="1.14076">
        <ele>628</ele>
        <time>2025-09-20T07:41:14.000Z</time>
      </trkpt>
      <trkpt lat="42.96674" lon="1.14079">
        <ele>627</ele>
        <time>2025-09-20T07:41:15.000Z</time>
      </trkpt>
      <trkpt lat="42.9667" lon="1.14084">
        <ele>627</ele>
        <time>2025-09-20T07:41:16.000Z</time>
      </trkpt>
      <trkpt lat="42.96667" lon="1.14088">
        <ele>626</ele>
        <time>2025-09-20T07:41:17.000Z</time>
      </trkpt>
      <trkpt lat="42.96663" lon="1.14092">
        <ele>625</ele>
        <time>2025-09-20T07:41:18.000Z</time>
      </trkpt>
      <trkpt lat="42.96659" lon="1.14097">
        <ele>625</ele>
        <time>2025-09-20T07:41:19.000Z</time>
      </trkpt>
      <trkpt lat="42.96656" lon="1.14102">
        <ele>625</ele>
        <time>2025-09-20T07:41:20.000Z</time>
      </trkpt>
      <trkpt lat="42.96651" lon="1.14106">
        <ele>625</ele>
        <time>2025-09-20T07:41:21.000Z</time>
      </trkpt>
      <trkpt lat="42.96645" lon="1.14108">
        <ele>626</ele>
        <time>2025-09-20T07:41:22.000Z</time>
      </trkpt>
      <trkpt lat="42.9664" lon="1.14108">
        <ele>626</ele>
        <time>2025-09-20T07:41:23.000Z</time>
      </trkpt>
      <trkpt lat="42.96636" lon="1.14105">
        <ele>626</ele>
        <time>2025-09-20T07:41:24.000Z</time>
      </trkpt>
      <trkpt lat="42.96632" lon="1.141">
        <ele>627</ele>
        <time>2025-09-20T07:41:25.000Z</time>
      </trkpt>
      <trkpt lat="42.96628" lon="1.14095">
        <ele>627</ele>
        <time>2025-09-20T07:41:26.000Z</time>
      </trkpt>
      <trkpt lat="42.96624" lon="1.1409">
        <ele>627</ele>
        <time>2025-09-20T07:41:27.000Z</time>
      </trkpt>
      <trkpt lat="42.9662" lon="1.14086">
        <ele>626</ele>
        <time>2025-09-20T07:41:28.000Z</time>
      </trkpt>
      <trkpt lat="42.96616" lon="1.14084">
        <ele>626</ele>
        <time>2025-09-20T07:41:29.000Z</time>
      </trkpt>
      <trkpt lat="42.96611" lon="1.14086">
        <ele>625</ele>
        <time>2025-09-20T07:41:30.000Z</time>
      </trkpt>
      <trkpt lat="42.96607" lon="1.14089">
        <ele>625</ele>
        <time>2025-09-20T07:41:31.000Z</time>
      </trkpt>
      <trkpt lat="42.96603" lon="1.14094">
        <ele>625</ele>
        <time>2025-09-20T07:41:32.000Z</time>
      </trkpt>
      <trkpt lat="42.966" lon="1.14099">
        <ele>626</ele>
        <time>2025-09-20T07:41:33.000Z</time>
      </trkpt>
      <trkpt lat="42.96596" lon="1.14104">
        <ele>626</ele>
        <time>2025-09-20T07:41:34.000Z</time>
      </trkpt>
      <trkpt lat="42.96593" lon="1.14108">
        <ele>627</ele>
        <time>2025-09-20T07:41:35.000Z</time>
      </trkpt>
      <trkpt lat="42.9659" lon="1.14111">
        <ele>628</ele>
        <time>2025-09-20T07:41:36.000Z</time>
      </trkpt>
      <trkpt lat="42.96587" lon="1.14114">
        <ele>628</ele>
        <time>2025-09-20T07:41:37.000Z</time>
      </trkpt>
      <trkpt lat="42.96583" lon="1.14115">
        <ele>630</ele>
        <time>2025-09-20T07:41:38.000Z</time>
      </trkpt>
      <trkpt lat="42.96578" lon="1.14117">
        <ele>631</ele>
        <time>2025-09-20T07:41:39.000Z</time>
      </trkpt>
      <trkpt lat="42.96575" lon="1.14118">
        <ele>631</ele>
        <time>2025-09-20T07:41:40.000Z</time>
      </trkpt>
      <trkpt lat="42.96571" lon="1.14119">
        <ele>631</ele>
        <time>2025-09-20T07:41:41.000Z</time>
      </trkpt>
      <trkpt lat="42.96567" lon="1.1412">
        <ele>631</ele>
        <time>2025-09-20T07:41:42.000Z</time>
      </trkpt>
      <trkpt lat="42.96564" lon="1.14121">
        <ele>631</ele>
        <time>2025-09-20T07:41:43.000Z</time>
      </trkpt>
      <trkpt lat="42.9656" lon="1.14122">
        <ele>631</ele>
        <time>2025-09-20T07:41:44.000Z</time>
      </trkpt>
      <trkpt lat="42.96557" lon="1.14123">
        <ele>631</ele>
        <time>2025-09-20T07:41:45.000Z</time>
      </trkpt>
      <trkpt lat="42.96553" lon="1.14125">
        <ele>631</ele>
        <time>2025-09-20T07:41:46.000Z</time>
      </trkpt>
      <trkpt lat="42.9655" lon="1.14126">
        <ele>631</ele>
        <time>2025-09-20T07:41:47.000Z</time>
      </trkpt>
      <trkpt lat="42.96546" lon="1.14126">
        <ele>631</ele>
        <time>2025-09-20T07:41:48.000Z</time>
      </trkpt>
      <trkpt lat="42.96543" lon="1.14126">
        <ele>631</ele>
        <time>2025-09-20T07:41:49.000Z</time>
      </trkpt>
      <trkpt lat="42.96539" lon="1.14126">
        <ele>631</ele>
        <time>2025-09-20T07:41:50.000Z</time>
      </trkpt>
      <trkpt lat="42.96534" lon="1.14126">
        <ele>632</ele>
        <time>2025-09-20T07:41:51.000Z</time>
      </trkpt>
      <trkpt lat="42.96529" lon="1.14126">
        <ele>632</ele>
        <time>2025-09-20T07:41:52.000Z</time>
      </trkpt>
      <trkpt lat="42.96525" lon="1.14125">
        <ele>632</ele>
        <time>2025-09-20T07:41:53.000Z</time>
      </trkpt>
      <trkpt lat="42.96522" lon="1.14124">
        <ele>632</ele>
        <time>2025-09-20T07:41:54.000Z</time>
      </trkpt>
      <trkpt lat="42.96518" lon="1.14123">
        <ele>633</ele>
        <time>2025-09-20T07:41:55.000Z</time>
      </trkpt>
      <trkpt lat="42.96514" lon="1.14121">
        <ele>634</ele>
        <time>2025-09-20T07:41:56.000Z</time>
      </trkpt>
      <trkpt lat="42.9651" lon="1.1412">
        <ele>633</ele>
        <time>2025-09-20T07:41:57.000Z</time>
      </trkpt>
      <trkpt lat="42.96506" lon="1.14119">
        <ele>633</ele>
        <time>2025-09-20T07:41:58.000Z</time>
      </trkpt>
      <trkpt lat="42.96502" lon="1.14118">
        <ele>633</ele>
        <time>2025-09-20T07:41:59.000Z</time>
      </trkpt>
      <trkpt lat="42.96499" lon="1.14117">
        <ele>633</ele>
        <time>2025-09-20T07:42:00.000Z</time>
      </trkpt>
      <trkpt lat="42.96495" lon="1.14117">
        <ele>633</ele>
        <time>2025-09-20T07:42:01.000Z</time>
      </trkpt>
      <trkpt lat="42.96491" lon="1.14115">
        <ele>634</ele>
        <time>2025-09-20T07:42:02.000Z</time>
      </trkpt>
      <trkpt lat="42.96487" lon="1.14113">
        <ele>634</ele>
        <time>2025-09-20T07:42:03.000Z</time>
      </trkpt>
      <trkpt lat="42.96483" lon="1.14112">
        <ele>635</ele>
        <time>2025-09-20T07:42:04.000Z</time>
      </trkpt>
      <trkpt lat="42.9648" lon="1.14112">
        <ele>635</ele>
        <time>2025-09-20T07:42:05.000Z</time>
      </trkpt>
      <trkpt lat="42.96475" lon="1.14111">
        <ele>636</ele>
        <time>2025-09-20T07:42:06.000Z</time>
      </trkpt>
      <trkpt lat="42.96471" lon="1.1411">
        <ele>637</ele>
        <time>2025-09-20T07:42:07.000Z</time>
      </trkpt>
      <trkpt lat="42.96467" lon="1.1411">
        <ele>637</ele>
        <time>2025-09-20T07:42:08.000Z</time>
      </trkpt>
      <trkpt lat="42.96464" lon="1.1411">
        <ele>637</ele>
        <time>2025-09-20T07:42:09.000Z</time>
      </trkpt>
      <trkpt lat="42.96461" lon="1.14111">
        <ele>637</ele>
        <time>2025-09-20T07:42:10.000Z</time>
      </trkpt>
      <trkpt lat="42.96459" lon="1.14113">
        <ele>637</ele>
        <time>2025-09-20T07:42:11.000Z</time>
      </trkpt>
      <trkpt lat="42.96456" lon="1.14116">
        <ele>638</ele>
        <time>2025-09-20T07:42:12.000Z</time>
      </trkpt>
      <trkpt lat="42.96453" lon="1.14119">
        <ele>637</ele>
        <time>2025-09-20T07:42:13.000Z</time>
      </trkpt>
      <trkpt lat="42.9645" lon="1.14122">
        <ele>638</ele>
        <time>2025-09-20T07:42:14.000Z</time>
      </trkpt>
      <trkpt lat="42.96447" lon="1.14126">
        <ele>639</ele>
        <time>2025-09-20T07:42:15.000Z</time>
      </trkpt>
      <trkpt lat="42.96445" lon="1.14131">
        <ele>640</ele>
        <time>2025-09-20T07:42:16.000Z</time>
      </trkpt>
      <trkpt lat="42.96445" lon="1.14136">
        <ele>640</ele>
        <time>2025-09-20T07:42:17.000Z</time>
      </trkpt>
      <trkpt lat="42.96445" lon="1.1414">
        <ele>640</ele>
        <time>2025-09-20T07:42:18.000Z</time>
      </trkpt>
      <trkpt lat="42.96446" lon="1.14145">
        <ele>640</ele>
        <time>2025-09-20T07:42:19.000Z</time>
      </trkpt>
      <trkpt lat="42.96447" lon="1.1415">
        <ele>640</ele>
        <time>2025-09-20T07:42:20.000Z</time>
      </trkpt>
      <trkpt lat="42.96448" lon="1.14154">
        <ele>641</ele>
        <time>2025-09-20T07:42:21.000Z</time>
      </trkpt>
      <trkpt lat="42.96449" lon="1.14158">
        <ele>641</ele>
        <time>2025-09-20T07:42:22.000Z</time>
      </trkpt>
      <trkpt lat="42.9645" lon="1.14163">
        <ele>642</ele>
        <time>2025-09-20T07:42:23.000Z</time>
      </trkpt>
      <trkpt lat="42.96451" lon="1.14167">
        <ele>642</ele>
        <time>2025-09-20T07:42:24.000Z</time>
      </trkpt>
      <trkpt lat="42.96452" lon="1.14171">
        <ele>641</ele>
        <time>2025-09-20T07:42:25.000Z</time>
      </trkpt>
      <trkpt lat="42.96454" lon="1.14175">
        <ele>641</ele>
        <time>2025-09-20T07:42:26.000Z</time>
      </trkpt>
      <trkpt lat="42.96455" lon="1.14179">
        <ele>641</ele>
        <time>2025-09-20T07:42:27.000Z</time>
      </trkpt>
      <trkpt lat="42.96456" lon="1.14183">
        <ele>642</ele>
        <time>2025-09-20T07:42:28.000Z</time>
      </trkpt>
      <trkpt lat="42.96457" lon="1.14187">
        <ele>643</ele>
        <time>2025-09-20T07:42:29.000Z</time>
      </trkpt>
      <trkpt lat="42.96457" lon="1.1419">
        <ele>644</ele>
        <time>2025-09-20T07:42:30.000Z</time>
      </trkpt>
      <trkpt lat="42.96458" lon="1.14193">
        <ele>644</ele>
        <time>2025-09-20T07:42:31.000Z</time>
      </trkpt>
      <trkpt lat="42.96459" lon="1.14196">
        <ele>645</ele>
        <time>2025-09-20T07:42:32.000Z</time>
      </trkpt>
      <trkpt lat="42.9646" lon="1.14199">
        <ele>645</ele>
        <time>2025-09-20T07:42:33.000Z</time>
      </trkpt>
      <trkpt lat="42.96461" lon="1.14203">
        <ele>645</ele>
        <time>2025-09-20T07:42:34.000Z</time>
      </trkpt>
      <trkpt lat="42.96462" lon="1.14207">
        <ele>646</ele>
        <time>2025-09-20T07:42:35.000Z</time>
      </trkpt>
      <trkpt lat="42.96463" lon="1.1421">
        <ele>647</ele>
        <time>2025-09-20T07:42:36.000Z</time>
      </trkpt>
      <trkpt lat="42.96464" lon="1.14213">
        <ele>647</ele>
        <time>2025-09-20T07:42:37.000Z</time>
      </trkpt>
      <trkpt lat="42.96464" lon="1.14217">
        <ele>647</ele>
        <time>2025-09-20T07:42:38.000Z</time>
      </trkpt>
      <trkpt lat="42.96465" lon="1.14221">
        <ele>648</ele>
        <time>2025-09-20T07:42:39.000Z</time>
      </trkpt>
      <trkpt lat="42.96465" lon="1.14225">
        <ele>648</ele>
        <time>2025-09-20T07:42:40.000Z</time>
      </trkpt>
      <trkpt lat="42.96466" lon="1.1423">
        <ele>648</ele>
        <time>2025-09-20T07:42:41.000Z</time>
      </trkpt>
      <trkpt lat="42.96467" lon="1.14235">
        <ele>648</ele>
        <time>2025-09-20T07:42:42.000Z</time>
      </trkpt>
      <trkpt lat="42.96468" lon="1.14239">
        <ele>648</ele>
        <time>2025-09-20T07:42:43.000Z</time>
      </trkpt>
      <trkpt lat="42.96469" lon="1.14243">
        <ele>648</ele>
        <time>2025-09-20T07:42:44.000Z</time>
      </trkpt>
      <trkpt lat="42.96469" lon="1.14247">
        <ele>648</ele>
        <time>2025-09-20T07:42:45.000Z</time>
      </trkpt>
      <trkpt lat="42.96469" lon="1.14251">
        <ele>648</ele>
        <time>2025-09-20T07:42:46.000Z</time>
      </trkpt>
      <trkpt lat="42.96468" lon="1.14256">
        <ele>648</ele>
        <time>2025-09-20T07:42:47.000Z</time>
      </trkpt>
      <trkpt lat="42.96469" lon="1.14259">
        <ele>648</ele>
        <time>2025-09-20T07:42:48.000Z</time>
      </trkpt>
      <trkpt lat="42.96469" lon="1.14264">
        <ele>648</ele>
        <time>2025-09-20T07:42:49.000Z</time>
      </trkpt>
      <trkpt lat="42.96469" lon="1.1427">
        <ele>648</ele>
        <time>2025-09-20T07:42:50.000Z</time>
      </trkpt>
      <trkpt lat="42.96469" lon="1.14276">
        <ele>648</ele>
        <time>2025-09-20T07:42:51.000Z</time>
      </trkpt>
      <trkpt lat="42.96468" lon="1.1428">
        <ele>648</ele>
        <time>2025-09-20T07:42:52.000Z</time>
      </trkpt>
      <trkpt lat="42.96468" lon="1.14286">
        <ele>648</ele>
        <time>2025-09-20T07:42:53.000Z</time>
      </trkpt>
      <trkpt lat="42.96468" lon="1.14291">
        <ele>649</ele>
        <time>2025-09-20T07:42:54.000Z</time>
      </trkpt>
      <trkpt lat="42.96467" lon="1.14296">
        <ele>649</ele>
        <time>2025-09-20T07:42:55.000Z</time>
      </trkpt>
      <trkpt lat="42.96467" lon="1.143">
        <ele>649</ele>
        <time>2025-09-20T07:42:56.000Z</time>
      </trkpt>
      <trkpt lat="42.96466" lon="1.14305">
        <ele>648</ele>
        <time>2025-09-20T07:42:57.000Z</time>
      </trkpt>
      <trkpt lat="42.96465" lon="1.1431">
        <ele>648</ele>
        <time>2025-09-20T07:42:58.000Z</time>
      </trkpt>
      <trkpt lat="42.96465" lon="1.14315">
        <ele>648</ele>
        <time>2025-09-20T07:42:59.000Z</time>
      </trkpt>
      <trkpt lat="42.96464" lon="1.14319">
        <ele>647</ele>
        <time>2025-09-20T07:43:00.000Z</time>
      </trkpt>
      <trkpt lat="42.96464" lon="1.14323">
        <ele>647</ele>
        <time>2025-09-20T07:43:01.000Z</time>
      </trkpt>
      <trkpt lat="42.96463" lon="1.14328">
        <ele>647</ele>
        <time>2025-09-20T07:43:02.000Z</time>
      </trkpt>
      <trkpt lat="42.96462" lon="1.14333">
        <ele>646</ele>
        <time>2025-09-20T07:43:03.000Z</time>
      </trkpt>
      <trkpt lat="42.96462" lon="1.14338">
        <ele>647</ele>
        <time>2025-09-20T07:43:04.000Z</time>
      </trkpt>
      <trkpt lat="42.96462" lon="1.14342">
        <ele>647</ele>
        <time>2025-09-20T07:43:05.000Z</time>
      </trkpt>
      <trkpt lat="42.96461" lon="1.14346">
        <ele>647</ele>
        <time>2025-09-20T07:43:06.000Z</time>
      </trkpt>
      <trkpt lat="42.96461" lon="1.1435">
        <ele>647</ele>
        <time>2025-09-20T07:43:07.000Z</time>
      </trkpt>
      <trkpt lat="42.96459" lon="1.14353">
        <ele>647</ele>
        <time>2025-09-20T07:43:08.000Z</time>
      </trkpt>
      <trkpt lat="42.96458" lon="1.14357">
        <ele>647</ele>
        <time>2025-09-20T07:43:09.000Z</time>
      </trkpt>
      <trkpt lat="42.96457" lon="1.14362">
        <ele>648</ele>
        <time>2025-09-20T07:43:10.000Z</time>
      </trkpt>
      <trkpt lat="42.96456" lon="1.14366">
        <ele>647</ele>
        <time>2025-09-20T07:43:11.000Z</time>
      </trkpt>
      <trkpt lat="42.96454" lon="1.1437">
        <ele>648</ele>
        <time>2025-09-20T07:43:12.000Z</time>
      </trkpt>
      <trkpt lat="42.96453" lon="1.14373">
        <ele>648</ele>
        <time>2025-09-20T07:43:13.000Z</time>
      </trkpt>
      <trkpt lat="42.96452" lon="1.14376">
        <ele>648</ele>
        <time>2025-09-20T07:43:14.000Z</time>
      </trkpt>
      <trkpt lat="42.96451" lon="1.1438">
        <ele>649</ele>
        <time>2025-09-20T07:43:15.000Z</time>
      </trkpt>
      <trkpt lat="42.96449" lon="1.14384">
        <ele>650</ele>
        <time>2025-09-20T07:43:16.000Z</time>
      </trkpt>
      <trkpt lat="42.96448" lon="1.14388">
        <ele>651</ele>
        <time>2025-09-20T07:43:17.000Z</time>
      </trkpt>
      <trkpt lat="42.96446" lon="1.14391">
        <ele>653</ele>
        <time>2025-09-20T07:43:18.000Z</time>
      </trkpt>
      <trkpt lat="42.96446" lon="1.14394">
        <ele>654</ele>
        <time>2025-09-20T07:43:19.000Z</time>
      </trkpt>
      <trkpt lat="42.96446" lon="1.14397">
        <ele>655</ele>
        <time>2025-09-20T07:43:20.000Z</time>
      </trkpt>
      <trkpt lat="42.96445" lon="1.144">
        <ele>656</ele>
        <time>2025-09-20T07:43:21.000Z</time>
      </trkpt>
      <trkpt lat="42.96444" lon="1.14403">
        <ele>657</ele>
        <time>2025-09-20T07:43:22.000Z</time>
      </trkpt>
      <trkpt lat="42.96443" lon="1.14407">
        <ele>657</ele>
        <time>2025-09-20T07:43:23.000Z</time>
      </trkpt>
      <trkpt lat="42.96441" lon="1.14411">
        <ele>658</ele>
        <time>2025-09-20T07:43:24.000Z</time>
      </trkpt>
      <trkpt lat="42.9644" lon="1.14415">
        <ele>658</ele>
        <time>2025-09-20T07:43:25.000Z</time>
      </trkpt>
      <trkpt lat="42.96438" lon="1.14417">
        <ele>659</ele>
        <time>2025-09-20T07:43:26.000Z</time>
      </trkpt>
      <trkpt lat="42.96438" lon="1.1442">
        <ele>659</ele>
        <time>2025-09-20T07:43:27.000Z</time>
      </trkpt>
      <trkpt lat="42.96437" lon="1.14421">
        <ele>659</ele>
        <time>2025-09-20T07:43:28.000Z</time>
      </trkpt>
      <trkpt lat="42.96435" lon="1.14423">
        <ele>659</ele>
        <time>2025-09-20T07:43:29.000Z</time>
      </trkpt>
      <trkpt lat="42.96431" lon="1.14423">
        <ele>658</ele>
        <time>2025-09-20T07:43:30.000Z</time>
      </trkpt>
      <trkpt lat="42.96427" lon="1.14422">
        <ele>657</ele>
        <time>2025-09-20T07:43:31.000Z</time>
      </trkpt>
      <trkpt lat="42.96423" lon="1.14422">
        <ele>656</ele>
        <time>2025-09-20T07:43:32.000Z</time>
      </trkpt>
      <trkpt lat="42.96419" lon="1.1442">
        <ele>655</ele>
        <time>2025-09-20T07:43:33.000Z</time>
      </trkpt>
      <trkpt lat="42.96415" lon="1.14419">
        <ele>654</ele>
        <time>2025-09-20T07:43:34.000Z</time>
      </trkpt>
      <trkpt lat="42.96411" lon="1.14416">
        <ele>653</ele>
        <time>2025-09-20T07:43:35.000Z</time>
      </trkpt>
      <trkpt lat="42.96403" lon="1.14415">
        <ele>651</ele>
        <time>2025-09-20T07:43:36.000Z</time>
      </trkpt>
      <trkpt lat="42.96395" lon="1.14414">
        <ele>651</ele>
        <time>2025-09-20T07:43:37.000Z</time>
      </trkpt>
      <trkpt lat="42.96387" lon="1.14413">
        <ele>650</ele>
        <time>2025-09-20T07:43:38.000Z</time>
      </trkpt>
      <trkpt lat="42.9638" lon="1.14411">
        <ele>649</ele>
        <time>2025-09-20T07:43:39.000Z</time>
      </trkpt>
      <trkpt lat="42.96374" lon="1.14409">
        <ele>649</ele>
        <time>2025-09-20T07:43:40.000Z</time>
      </trkpt>
      <trkpt lat="42.96368" lon="1.14406">
        <ele>649</ele>
        <time>2025-09-20T07:43:41.000Z</time>
      </trkpt>
      <trkpt lat="42.96361" lon="1.14403">
        <ele>649</ele>
        <time>2025-09-20T07:43:42.000Z</time>
      </trkpt>
      <trkpt lat="42.96355" lon="1.144">
        <ele>648</ele>
        <time>2025-09-20T07:43:43.000Z</time>
      </trkpt>
      <trkpt lat="42.96348" lon="1.14397">
        <ele>647</ele>
        <time>2025-09-20T07:43:44.000Z</time>
      </trkpt>
      <trkpt lat="42.96341" lon="1.14395">
        <ele>646</ele>
        <time>2025-09-20T07:43:45.000Z</time>
      </trkpt>
      <trkpt lat="42.96332" lon="1.14394">
        <ele>646</ele>
        <time>2025-09-20T07:43:46.000Z</time>
      </trkpt>
      <trkpt lat="42.96322" lon="1.14396">
        <ele>645</ele>
        <time>2025-09-20T07:43:47.000Z</time>
      </trkpt>
      <trkpt lat="42.96314" lon="1.14401">
        <ele>644</ele>
        <time>2025-09-20T07:43:48.000Z</time>
      </trkpt>
      <trkpt lat="42.96307" lon="1.14408">
        <ele>644</ele>
        <time>2025-09-20T07:43:49.000Z</time>
      </trkpt>
      <trkpt lat="42.96303" lon="1.14419">
        <ele>643</ele>
        <time>2025-09-20T07:43:50.000Z</time>
      </trkpt>
      <trkpt lat="42.96302" lon="1.14428">
        <ele>642</ele>
        <time>2025-09-20T07:43:51.000Z</time>
      </trkpt>
      <trkpt lat="42.96302" lon="1.14437">
        <ele>642</ele>
        <time>2025-09-20T07:43:52.000Z</time>
      </trkpt>
      <trkpt lat="42.96303" lon="1.14447">
        <ele>641</ele>
        <time>2025-09-20T07:43:53.000Z</time>
      </trkpt>
      <trkpt lat="42.96303" lon="1.14456">
        <ele>641</ele>
        <time>2025-09-20T07:43:54.000Z</time>
      </trkpt>
      <trkpt lat="42.96304" lon="1.14466">
        <ele>642</ele>
        <time>2025-09-20T07:43:55.000Z</time>
      </trkpt>
      <trkpt lat="42.96306" lon="1.14475">
        <ele>642</ele>
        <time>2025-09-20T07:43:56.000Z</time>
      </trkpt>
      <trkpt lat="42.96308" lon="1.14484">
        <ele>642</ele>
        <time>2025-09-20T07:43:57.000Z</time>
      </trkpt>
      <trkpt lat="42.9631" lon="1.14494">
        <ele>643</ele>
        <time>2025-09-20T07:43:58.000Z</time>
      </trkpt>
      <trkpt lat="42.96313" lon="1.14504">
        <ele>642</ele>
        <time>2025-09-20T07:43:59.000Z</time>
      </trkpt>
      <trkpt lat="42.96316" lon="1.14514">
        <ele>642</ele>
        <time>2025-09-20T07:44:00.000Z</time>
      </trkpt>
      <trkpt lat="42.9632" lon="1.14525">
        <ele>641</ele>
        <time>2025-09-20T07:44:01.000Z</time>
      </trkpt>
      <trkpt lat="42.96324" lon="1.14536">
        <ele>640</ele>
        <time>2025-09-20T07:44:02.000Z</time>
      </trkpt>
      <trkpt lat="42.96328" lon="1.14547">
        <ele>640</ele>
        <time>2025-09-20T07:44:03.000Z</time>
      </trkpt>
      <trkpt lat="42.9633" lon="1.14558">
        <ele>640</ele>
        <time>2025-09-20T07:44:04.000Z</time>
      </trkpt>
      <trkpt lat="42.96332" lon="1.14569">
        <ele>641</ele>
        <time>2025-09-20T07:44:05.000Z</time>
      </trkpt>
      <trkpt lat="42.96332" lon="1.14578">
        <ele>641</ele>
        <time>2025-09-20T07:44:06.000Z</time>
      </trkpt>
      <trkpt lat="42.96328" lon="1.14584">
        <ele>641</ele>
        <time>2025-09-20T07:44:07.000Z</time>
      </trkpt>
      <trkpt lat="42.96323" lon="1.14588">
        <ele>640</ele>
        <time>2025-09-20T07:44:08.000Z</time>
      </trkpt>
      <trkpt lat="42.96319" lon="1.14592">
        <ele>640</ele>
        <time>2025-09-20T07:44:09.000Z</time>
      </trkpt>
      <trkpt lat="42.96314" lon="1.14593">
        <ele>640</ele>
        <time>2025-09-20T07:44:10.000Z</time>
      </trkpt>
      <trkpt lat="42.9631" lon="1.14593">
        <ele>640</ele>
        <time>2025-09-20T07:44:11.000Z</time>
      </trkpt>
      <trkpt lat="42.96306" lon="1.14595">
        <ele>640</ele>
        <time>2025-09-20T07:44:12.000Z</time>
      </trkpt>
      <trkpt lat="42.96302" lon="1.14596">
        <ele>640</ele>
        <time>2025-09-20T07:44:13.000Z</time>
      </trkpt>
      <trkpt lat="42.96298" lon="1.14597">
        <ele>641</ele>
        <time>2025-09-20T07:44:14.000Z</time>
      </trkpt>
      <trkpt lat="42.96296" lon="1.14598">
        <ele>641</ele>
        <time>2025-09-20T07:44:15.000Z</time>
      </trkpt>
      <trkpt lat="42.96293" lon="1.14598">
        <ele>641</ele>
        <time>2025-09-20T07:44:16.000Z</time>
      </trkpt>
      <trkpt lat="42.9629" lon="1.146">
        <ele>641</ele>
        <time>2025-09-20T07:44:17.000Z</time>
      </trkpt>
      <trkpt lat="42.96287" lon="1.14601">
        <ele>641</ele>
        <time>2025-09-20T07:44:18.000Z</time>
      </trkpt>
      <trkpt lat="42.96283" lon="1.14603">
        <ele>641</ele>
        <time>2025-09-20T07:44:19.000Z</time>
      </trkpt>
      <trkpt lat="42.96281" lon="1.14606">
        <ele>641</ele>
        <time>2025-09-20T07:44:20.000Z</time>
      </trkpt>
      <trkpt lat="42.96279" lon="1.14609">
        <ele>641</ele>
        <time>2025-09-20T07:44:21.000Z</time>
      </trkpt>
      <trkpt lat="42.96277" lon="1.14612">
        <ele>641</ele>
        <time>2025-09-20T07:44:22.000Z</time>
      </trkpt>
      <trkpt lat="42.96276" lon="1.14617">
        <ele>641</ele>
        <time>2025-09-20T07:44:23.000Z</time>
      </trkpt>
      <trkpt lat="42.96275" lon="1.14621">
        <ele>641</ele>
        <time>2025-09-20T07:44:24.000Z</time>
      </trkpt>
      <trkpt lat="42.96275" lon="1.14625">
        <ele>641</ele>
        <time>2025-09-20T07:44:25.000Z</time>
      </trkpt>
      <trkpt lat="42.96277" lon="1.14627">
        <ele>640</ele>
        <time>2025-09-20T07:44:26.000Z</time>
      </trkpt>
      <trkpt lat="42.9628" lon="1.14629">
        <ele>639</ele>
        <time>2025-09-20T07:44:27.000Z</time>
      </trkpt>
      <trkpt lat="42.96282" lon="1.14632">
        <ele>639</ele>
        <time>2025-09-20T07:44:28.000Z</time>
      </trkpt>
      <trkpt lat="42.96282" lon="1.14637">
        <ele>638</ele>
        <time>2025-09-20T07:44:29.000Z</time>
      </trkpt>
      <trkpt lat="42.9628" lon="1.14642">
        <ele>638</ele>
        <time>2025-09-20T07:44:30.000Z</time>
      </trkpt>
      <trkpt lat="42.96279" lon="1.14646">
        <ele>638</ele>
        <time>2025-09-20T07:44:31.000Z</time>
      </trkpt>
      <trkpt lat="42.96278" lon="1.1465">
        <ele>637</ele>
        <time>2025-09-20T07:44:32.000Z</time>
      </trkpt>
      <trkpt lat="42.96276" lon="1.14654">
        <ele>636</ele>
        <time>2025-09-20T07:44:33.000Z</time>
      </trkpt>
      <trkpt lat="42.96273" lon="1.14658">
        <ele>636</ele>
        <time>2025-09-20T07:44:34.000Z</time>
      </trkpt>
      <trkpt lat="42.9627" lon="1.1466">
        <ele>635</ele>
        <time>2025-09-20T07:44:35.000Z</time>
      </trkpt>
      <trkpt lat="42.96267" lon="1.14662">
        <ele>633</ele>
        <time>2025-09-20T07:44:36.000Z</time>
      </trkpt>
      <trkpt lat="42.96264" lon="1.14666">
        <ele>632</ele>
        <time>2025-09-20T07:44:37.000Z</time>
      </trkpt>
      <trkpt lat="42.96262" lon="1.14671">
        <ele>631</ele>
        <time>2025-09-20T07:44:38.000Z</time>
      </trkpt>
      <trkpt lat="42.96261" lon="1.14678">
        <ele>630</ele>
        <time>2025-09-20T07:44:39.000Z</time>
      </trkpt>
      <trkpt lat="42.9626" lon="1.14687">
        <ele>628</ele>
        <time>2025-09-20T07:44:40.000Z</time>
      </trkpt>
      <trkpt lat="42.96261" lon="1.14695">
        <ele>629</ele>
        <time>2025-09-20T07:44:41.000Z</time>
      </trkpt>
      <trkpt lat="42.9626" lon="1.14703">
        <ele>630</ele>
        <time>2025-09-20T07:44:42.000Z</time>
      </trkpt>
      <trkpt lat="42.9626" lon="1.14712">
        <ele>632</ele>
        <time>2025-09-20T07:44:43.000Z</time>
      </trkpt>
      <trkpt lat="42.9626" lon="1.14719">
        <ele>633</ele>
        <time>2025-09-20T07:44:44.000Z</time>
      </trkpt>
      <trkpt lat="42.9626" lon="1.14724">
        <ele>634</ele>
        <time>2025-09-20T07:44:45.000Z</time>
      </trkpt>
      <trkpt lat="42.9626" lon="1.14729">
        <ele>634</ele>
        <time>2025-09-20T07:44:46.000Z</time>
      </trkpt>
      <trkpt lat="42.96259" lon="1.14732">
        <ele>635</ele>
        <time>2025-09-20T07:44:47.000Z</time>
      </trkpt>
      <trkpt lat="42.96258" lon="1.14736">
        <ele>635</ele>
        <time>2025-09-20T07:44:48.000Z</time>
      </trkpt>
      <trkpt lat="42.96257" lon="1.14738">
        <ele>635</ele>
        <time>2025-09-20T07:44:49.000Z</time>
      </trkpt>
      <trkpt lat="42.96258" lon="1.14741">
        <ele>635</ele>
        <time>2025-09-20T07:44:50.000Z</time>
      </trkpt>
      <trkpt lat="42.96259" lon="1.14744">
        <ele>636</ele>
        <time>2025-09-20T07:44:51.000Z</time>
      </trkpt>
      <trkpt lat="42.9626" lon="1.14746">
        <ele>636</ele>
        <time>2025-09-20T07:44:52.000Z</time>
      </trkpt>
      <trkpt lat="42.96261" lon="1.14748">
        <ele>637</ele>
        <time>2025-09-20T07:44:53.000Z</time>
      </trkpt>
      <trkpt lat="42.96263" lon="1.1475">
        <ele>637</ele>
        <time>2025-09-20T07:44:54.000Z</time>
      </trkpt>
      <trkpt lat="42.96265" lon="1.14752">
        <ele>638</ele>
        <time>2025-09-20T07:44:55.000Z</time>
      </trkpt>
      <trkpt lat="42.96267" lon="1.14755">
        <ele>638</ele>
        <time>2025-09-20T07:44:56.000Z</time>
      </trkpt>
      <trkpt lat="42.96268" lon="1.14756">
        <ele>638</ele>
        <time>2025-09-20T07:44:57.000Z</time>
      </trkpt>
      <trkpt lat="42.96269" lon="1.14758">
        <ele>638</ele>
        <time>2025-09-20T07:44:58.000Z</time>
      </trkpt>
      <trkpt lat="42.96271" lon="1.1476">
        <ele>639</ele>
        <time>2025-09-20T07:44:59.000Z</time>
      </trkpt>
      <trkpt lat="42.96273" lon="1.14762">
        <ele>639</ele>
        <time>2025-09-20T07:45:00.000Z</time>
      </trkpt>
      <trkpt lat="42.96274" lon="1.14764">
        <ele>640</ele>
        <time>2025-09-20T07:45:01.000Z</time>
      </trkpt>
      <trkpt lat="42.96274" lon="1.14766">
        <ele>640</ele>
        <time>2025-09-20T07:45:02.000Z</time>
      </trkpt>
      <trkpt lat="42.96275" lon="1.14768">
        <ele>640</ele>
        <time>2025-09-20T07:45:03.000Z</time>
      </trkpt>
      <trkpt lat="42.96276" lon="1.1477">
        <ele>640</ele>
        <time>2025-09-20T07:45:04.000Z</time>
      </trkpt>
      <trkpt lat="42.96277" lon="1.14773">
        <ele>641</ele>
        <time>2025-09-20T07:45:05.000Z</time>
      </trkpt>
      <trkpt lat="42.96278" lon="1.14774">
        <ele>641</ele>
        <time>2025-09-20T07:45:06.000Z</time>
      </trkpt>
      <trkpt lat="42.96279" lon="1.14777">
        <ele>642</ele>
        <time>2025-09-20T07:45:07.000Z</time>
      </trkpt>
      <trkpt lat="42.9628" lon="1.14779">
        <ele>642</ele>
        <time>2025-09-20T07:45:08.000Z</time>
      </trkpt>
      <trkpt lat="42.96281" lon="1.14781">
        <ele>642</ele>
        <time>2025-09-20T07:45:09.000Z</time>
      </trkpt>
      <trkpt lat="42.96282" lon="1.14783">
        <ele>642</ele>
        <time>2025-09-20T07:45:10.000Z</time>
      </trkpt>
      <trkpt lat="42.96282" lon="1.14785">
        <ele>643</ele>
        <time>2025-09-20T07:45:11.000Z</time>
      </trkpt>
      <trkpt lat="42.96283" lon="1.14787">
        <ele>643</ele>
        <time>2025-09-20T07:45:12.000Z</time>
      </trkpt>
      <trkpt lat="42.96283" lon="1.14789">
        <ele>644</ele>
        <time>2025-09-20T07:45:13.000Z</time>
      </trkpt>
      <trkpt lat="42.96282" lon="1.1479">
        <ele>645</ele>
        <time>2025-09-20T07:45:14.000Z</time>
      </trkpt>
      <trkpt lat="42.9628" lon="1.1479">
        <ele>644</ele>
        <time>2025-09-20T07:45:15.000Z</time>
      </trkpt>
      <trkpt lat="42.96279" lon="1.1479">
        <ele>645</ele>
        <time>2025-09-20T07:45:16.000Z</time>
      </trkpt>
      <trkpt lat="42.96277" lon="1.1479">
        <ele>646</ele>
        <time>2025-09-20T07:45:17.000Z</time>
      </trkpt>
      <trkpt lat="42.96275" lon="1.14791">
        <ele>646</ele>
        <time>2025-09-20T07:45:18.000Z</time>
      </trkpt>
      <trkpt lat="42.96273" lon="1.14791">
        <ele>647</ele>
        <time>2025-09-20T07:45:19.000Z</time>
      </trkpt>
      <trkpt lat="42.96271" lon="1.14791">
        <ele>647</ele>
        <time>2025-09-20T07:45:20.000Z</time>
      </trkpt>
      <trkpt lat="42.96269" lon="1.14791">
        <ele>647</ele>
        <time>2025-09-20T07:45:21.000Z</time>
      </trkpt>
      <trkpt lat="42.96267" lon="1.14791">
        <ele>648</ele>
        <time>2025-09-20T07:45:22.000Z</time>
      </trkpt>
      <trkpt lat="42.96265" lon="1.14791">
        <ele>648</ele>
        <time>2025-09-20T07:45:23.000Z</time>
      </trkpt>
      <trkpt lat="42.96263" lon="1.14793">
        <ele>648</ele>
        <time>2025-09-20T07:45:24.000Z</time>
      </trkpt>
      <trkpt lat="42.96261" lon="1.14794">
        <ele>649</ele>
        <time>2025-09-20T07:45:25.000Z</time>
      </trkpt>
      <trkpt lat="42.96259" lon="1.14796">
        <ele>650</ele>
        <time>2025-09-20T07:45:26.000Z</time>
      </trkpt>
      <trkpt lat="42.96258" lon="1.14798">
        <ele>650</ele>
        <time>2025-09-20T07:45:27.000Z</time>
      </trkpt>
      <trkpt lat="42.96256" lon="1.14799">
        <ele>650</ele>
        <time>2025-09-20T07:45:28.000Z</time>
      </trkpt>
      <trkpt lat="42.96255" lon="1.14801">
        <ele>651</ele>
        <time>2025-09-20T07:45:29.000Z</time>
      </trkpt>
      <trkpt lat="42.96253" lon="1.14803">
        <ele>651</ele>
        <time>2025-09-20T07:45:30.000Z</time>
      </trkpt>
      <trkpt lat="42.96252" lon="1.14805">
        <ele>651</ele>
        <time>2025-09-20T07:45:31.000Z</time>
      </trkpt>
      <trkpt lat="42.9625" lon="1.14807">
        <ele>651</ele>
        <time>2025-09-20T07:45:32.000Z</time>
      </trkpt>
      <trkpt lat="42.96249" lon="1.14808">
        <ele>651</ele>
        <time>2025-09-20T07:45:33.000Z</time>
      </trkpt>
      <trkpt lat="42.96247" lon="1.1481">
        <ele>651</ele>
        <time>2025-09-20T07:45:34.000Z</time>
      </trkpt>
      <trkpt lat="42.96246" lon="1.14812">
        <ele>650</ele>
        <time>2025-09-20T07:45:35.000Z</time>
      </trkpt>
      <trkpt lat="42.96244" lon="1.14815">
        <ele>651</ele>
        <time>2025-09-20T07:45:36.000Z</time>
      </trkpt>
      <trkpt lat="42.96243" lon="1.14818">
        <ele>651</ele>
        <time>2025-09-20T07:45:37.000Z</time>
      </trkpt>
      <trkpt lat="42.96242" lon="1.1482">
        <ele>651</ele>
        <time>2025-09-20T07:45:38.000Z</time>
      </trkpt>
      <trkpt lat="42.9624" lon="1.14822">
        <ele>652</ele>
        <time>2025-09-20T07:45:39.000Z</time>
      </trkpt>
      <trkpt lat="42.96238" lon="1.14824">
        <ele>653</ele>
        <time>2025-09-20T07:45:40.000Z</time>
      </trkpt>
      <trkpt lat="42.96237" lon="1.14826">
        <ele>653</ele>
        <time>2025-09-20T07:45:41.000Z</time>
      </trkpt>
      <trkpt lat="42.96236" lon="1.14829">
        <ele>654</ele>
        <time>2025-09-20T07:45:42.000Z</time>
      </trkpt>
      <trkpt lat="42.96235" lon="1.1483">
        <ele>654</ele>
        <time>2025-09-20T07:45:43.000Z</time>
      </trkpt>
      <trkpt lat="42.96233" lon="1.14832">
        <ele>655</ele>
        <time>2025-09-20T07:45:44.000Z</time>
      </trkpt>
      <trkpt lat="42.96232" lon="1.14834">
        <ele>656</ele>
        <time>2025-09-20T07:45:45.000Z</time>
      </trkpt>
      <trkpt lat="42.9623" lon="1.14835">
        <ele>656</ele>
        <time>2025-09-20T07:45:46.000Z</time>
      </trkpt>
      <trkpt lat="42.96229" lon="1.14836">
        <ele>656</ele>
        <time>2025-09-20T07:45:47.000Z</time>
      </trkpt>
      <trkpt lat="42.96228" lon="1.14838">
        <ele>656</ele>
        <time>2025-09-20T07:45:48.000Z</time>
      </trkpt>
      <trkpt lat="42.96227" lon="1.1484">
        <ele>656</ele>
        <time>2025-09-20T07:45:49.000Z</time>
      </trkpt>
      <trkpt lat="42.96225" lon="1.14841">
        <ele>656</ele>
        <time>2025-09-20T07:45:50.000Z</time>
      </trkpt>
      <trkpt lat="42.96224" lon="1.14843">
        <ele>657</ele>
        <time>2025-09-20T07:45:51.000Z</time>
      </trkpt>
      <trkpt lat="42.96223" lon="1.14845">
        <ele>657</ele>
        <time>2025-09-20T07:45:52.000Z</time>
      </trkpt>
      <trkpt lat="42.96221" lon="1.14848">
        <ele>658</ele>
        <time>2025-09-20T07:45:53.000Z</time>
      </trkpt>
      <trkpt lat="42.9622" lon="1.14852">
        <ele>658</ele>
        <time>2025-09-20T07:45:54.000Z</time>
      </trkpt>
      <trkpt lat="42.96219" lon="1.14854">
        <ele>659</ele>
        <time>2025-09-20T07:45:55.000Z</time>
      </trkpt>
      <trkpt lat="42.96217" lon="1.14856">
        <ele>660</ele>
        <time>2025-09-20T07:45:56.000Z</time>
      </trkpt>
      <trkpt lat="42.96216" lon="1.14859">
        <ele>660</ele>
        <time>2025-09-20T07:45:57.000Z</time>
      </trkpt>
      <trkpt lat="42.96216" lon="1.14861">
        <ele>661</ele>
        <time>2025-09-20T07:45:58.000Z</time>
      </trkpt>
      <trkpt lat="42.96215" lon="1.14863">
        <ele>661</ele>
        <time>2025-09-20T07:45:59.000Z</time>
      </trkpt>
      <trkpt lat="42.96214" lon="1.14865">
        <ele>662</ele>
        <time>2025-09-20T07:46:00.000Z</time>
      </trkpt>
      <trkpt lat="42.96213" lon="1.14866">
        <ele>663</ele>
        <time>2025-09-20T07:46:01.000Z</time>
      </trkpt>
      <trkpt lat="42.96212" lon="1.14868">
        <ele>663</ele>
        <time>2025-09-20T07:46:02.000Z</time>
      </trkpt>
      <trkpt lat="42.96211" lon="1.14869">
        <ele>664</ele>
        <time>2025-09-20T07:46:03.000Z</time>
      </trkpt>
      <trkpt lat="42.9621" lon="1.14871">
        <ele>664</ele>
        <time>2025-09-20T07:46:04.000Z</time>
      </trkpt>
      <trkpt lat="42.96209" lon="1.14874">
        <ele>664</ele>
        <time>2025-09-20T07:46:05.000Z</time>
      </trkpt>
      <trkpt lat="42.96208" lon="1.14876">
        <ele>665</ele>
        <time>2025-09-20T07:46:06.000Z</time>
      </trkpt>
      <trkpt lat="42.96207" lon="1.14877">
        <ele>666</ele>
        <time>2025-09-20T07:46:07.000Z</time>
      </trkpt>
      <trkpt lat="42.96206" lon="1.14878">
        <ele>666</ele>
        <time>2025-09-20T07:46:08.000Z</time>
      </trkpt>
      <trkpt lat="42.96205" lon="1.1488">
        <ele>666</ele>
        <time>2025-09-20T07:46:09.000Z</time>
      </trkpt>
      <trkpt lat="42.96204" lon="1.14882">
        <ele>667</ele>
        <time>2025-09-20T07:46:10.000Z</time>
      </trkpt>
      <trkpt lat="42.96204" lon="1.14884">
        <ele>668</ele>
        <time>2025-09-20T07:46:11.000Z</time>
      </trkpt>
      <trkpt lat="42.96203" lon="1.14888">
        <ele>669</ele>
        <time>2025-09-20T07:46:12.000Z</time>
      </trkpt>
      <trkpt lat="42.96203" lon="1.1489">
        <ele>669</ele>
        <time>2025-09-20T07:46:13.000Z</time>
      </trkpt>
      <trkpt lat="42.96202" lon="1.14894">
        <ele>668</ele>
        <time>2025-09-20T07:46:14.000Z</time>
      </trkpt>
      <trkpt lat="42.96202" lon="1.14897">
        <ele>669</ele>
        <time>2025-09-20T07:46:15.000Z</time>
      </trkpt>
      <trkpt lat="42.96202" lon="1.149">
        <ele>670</ele>
        <time>2025-09-20T07:46:16.000Z</time>
      </trkpt>
      <trkpt lat="42.96202" lon="1.14903">
        <ele>670</ele>
        <time>2025-09-20T07:46:17.000Z</time>
      </trkpt>
      <trkpt lat="42.96202" lon="1.14906">
        <ele>671</ele>
        <time>2025-09-20T07:46:18.000Z</time>
      </trkpt>
      <trkpt lat="42.96202" lon="1.14908">
        <ele>672</ele>
        <time>2025-09-20T07:46:19.000Z</time>
      </trkpt>
      <trkpt lat="42.96202" lon="1.14911">
        <ele>673</ele>
        <time>2025-09-20T07:46:20.000Z</time>
      </trkpt>
      <trkpt lat="42.96202" lon="1.14913">
        <ele>673</ele>
        <time>2025-09-20T07:46:21.000Z</time>
      </trkpt>
      <trkpt lat="42.96202" lon="1.14915">
        <ele>675</ele>
        <time>2025-09-20T07:46:22.000Z</time>
      </trkpt>
      <trkpt lat="42.96202" lon="1.14917">
        <ele>676</ele>
        <time>2025-09-20T07:46:23.000Z</time>
      </trkpt>
      <trkpt lat="42.96202" lon="1.14919">
        <ele>677</ele>
        <time>2025-09-20T07:46:24.000Z</time>
      </trkpt>
      <trkpt lat="42.96205" lon="1.14921">
        <ele>677</ele>
        <time>2025-09-20T07:46:25.000Z</time>
      </trkpt>
      <trkpt lat="42.96207" lon="1.14921">
        <ele>677</ele>
        <time>2025-09-20T07:46:26.000Z</time>
      </trkpt>
      <trkpt lat="42.96208" lon="1.14922">
        <ele>678</ele>
        <time>2025-09-20T07:46:27.000Z</time>
      </trkpt>
      <trkpt lat="42.9621" lon="1.14923">
        <ele>677</ele>
        <time>2025-09-20T07:46:28.000Z</time>
      </trkpt>
      <trkpt lat="42.96212" lon="1.14923">
        <ele>678</ele>
        <time>2025-09-20T07:46:29.000Z</time>
      </trkpt>
      <trkpt lat="42.96214" lon="1.14924">
        <ele>677</ele>
        <time>2025-09-20T07:46:30.000Z</time>
      </trkpt>
      <trkpt lat="42.96215" lon="1.14926">
        <ele>678</ele>
        <time>2025-09-20T07:46:31.000Z</time>
      </trkpt>
      <trkpt lat="42.96216" lon="1.14927">
        <ele>679</ele>
        <time>2025-09-20T07:46:32.000Z</time>
      </trkpt>
      <trkpt lat="42.96218" lon="1.14928">
        <ele>679</ele>
        <time>2025-09-20T07:46:33.000Z</time>
      </trkpt>
      <trkpt lat="42.96219" lon="1.1493">
        <ele>679</ele>
        <time>2025-09-20T07:46:34.000Z</time>
      </trkpt>
      <trkpt lat="42.96221" lon="1.14931">
        <ele>679</ele>
        <time>2025-09-20T07:46:35.000Z</time>
      </trkpt>
      <trkpt lat="42.96222" lon="1.14933">
        <ele>680</ele>
        <time>2025-09-20T07:46:36.000Z</time>
      </trkpt>
      <trkpt lat="42.96223" lon="1.14935">
        <ele>680</ele>
        <time>2025-09-20T07:46:37.000Z</time>
      </trkpt>
      <trkpt lat="42.96223" lon="1.14937">
        <ele>680</ele>
        <time>2025-09-20T07:46:38.000Z</time>
      </trkpt>
      <trkpt lat="42.96222" lon="1.14939">
        <ele>680</ele>
        <time>2025-09-20T07:46:39.000Z</time>
      </trkpt>
      <trkpt lat="42.96222" lon="1.14942">
        <ele>680</ele>
        <time>2025-09-20T07:46:40.000Z</time>
      </trkpt>
      <trkpt lat="42.96221" lon="1.14944">
        <ele>680</ele>
        <time>2025-09-20T07:46:41.000Z</time>
      </trkpt>
      <trkpt lat="42.9622" lon="1.14946">
        <ele>681</ele>
        <time>2025-09-20T07:46:42.000Z</time>
      </trkpt>
      <trkpt lat="42.96219" lon="1.14949">
        <ele>681</ele>
        <time>2025-09-20T07:46:43.000Z</time>
      </trkpt>
      <trkpt lat="42.96219" lon="1.14952">
        <ele>682</ele>
        <time>2025-09-20T07:46:44.000Z</time>
      </trkpt>
      <trkpt lat="42.96219" lon="1.14954">
        <ele>683</ele>
        <time>2025-09-20T07:46:45.000Z</time>
      </trkpt>
      <trkpt lat="42.96218" lon="1.14956">
        <ele>684</ele>
        <time>2025-09-20T07:46:46.000Z</time>
      </trkpt>
      <trkpt lat="42.96218" lon="1.14958">
        <ele>685</ele>
        <time>2025-09-20T07:46:47.000Z</time>
      </trkpt>
      <trkpt lat="42.96218" lon="1.14961">
        <ele>686</ele>
        <time>2025-09-20T07:46:48.000Z</time>
      </trkpt>
      <trkpt lat="42.96218" lon="1.14963">
        <ele>687</ele>
        <time>2025-09-20T07:46:49.000Z</time>
      </trkpt>
      <trkpt lat="42.96218" lon="1.14966">
        <ele>687</ele>
        <time>2025-09-20T07:46:50.000Z</time>
      </trkpt>
      <trkpt lat="42.96218" lon="1.1497">
        <ele>686</ele>
        <time>2025-09-20T07:46:51.000Z</time>
      </trkpt>
      <trkpt lat="42.96218" lon="1.14972">
        <ele>686</ele>
        <time>2025-09-20T07:46:52.000Z</time>
      </trkpt>
      <trkpt lat="42.96218" lon="1.14974">
        <ele>686</ele>
        <time>2025-09-20T07:46:53.000Z</time>
      </trkpt>
      <trkpt lat="42.96217" lon="1.14977">
        <ele>686</ele>
        <time>2025-09-20T07:46:54.000Z</time>
      </trkpt>
      <trkpt lat="42.96217" lon="1.14979">
        <ele>687</ele>
        <time>2025-09-20T07:46:55.000Z</time>
      </trkpt>
      <trkpt lat="42.96217" lon="1.14982">
        <ele>686</ele>
        <time>2025-09-20T07:46:56.000Z</time>
      </trkpt>
      <trkpt lat="42.96216" lon="1.14984">
        <ele>687</ele>
        <time>2025-09-20T07:46:57.000Z</time>
      </trkpt>
      <trkpt lat="42.96216" lon="1.14987">
        <ele>687</ele>
        <time>2025-09-20T07:46:58.000Z</time>
      </trkpt>
      <trkpt lat="42.96215" lon="1.1499">
        <ele>687</ele>
        <time>2025-09-20T07:46:59.000Z</time>
      </trkpt>
      <trkpt lat="42.96214" lon="1.14993">
        <ele>688</ele>
        <time>2025-09-20T07:47:00.000Z</time>
      </trkpt>
      <trkpt lat="42.96213" lon="1.14995">
        <ele>688</ele>
        <time>2025-09-20T07:47:01.000Z</time>
      </trkpt>
      <trkpt lat="42.96213" lon="1.14998">
        <ele>688</ele>
        <time>2025-09-20T07:47:02.000Z</time>
      </trkpt>
      <trkpt lat="42.96213" lon="1.15002">
        <ele>688</ele>
        <time>2025-09-20T07:47:03.000Z</time>
      </trkpt>
      <trkpt lat="42.96212" lon="1.15005">
        <ele>689</ele>
        <time>2025-09-20T07:47:04.000Z</time>
      </trkpt>
      <trkpt lat="42.96212" lon="1.15007">
        <ele>689</ele>
        <time>2025-09-20T07:47:05.000Z</time>
      </trkpt>
      <trkpt lat="42.96212" lon="1.1501">
        <ele>690</ele>
        <time>2025-09-20T07:47:06.000Z</time>
      </trkpt>
      <trkpt lat="42.96212" lon="1.15013">
        <ele>689</ele>
        <time>2025-09-20T07:47:07.000Z</time>
      </trkpt>
      <trkpt lat="42.96213" lon="1.15016">
        <ele>689</ele>
        <time>2025-09-20T07:47:08.000Z</time>
      </trkpt>
      <trkpt lat="42.96215" lon="1.15019">
        <ele>689</ele>
        <time>2025-09-20T07:47:09.000Z</time>
      </trkpt>
      <trkpt lat="42.96216" lon="1.15021">
        <ele>689</ele>
        <time>2025-09-20T07:47:10.000Z</time>
      </trkpt>
      <trkpt lat="42.96216" lon="1.15024">
        <ele>689</ele>
        <time>2025-09-20T07:47:11.000Z</time>
      </trkpt>
      <trkpt lat="42.96217" lon="1.15027">
        <ele>689</ele>
        <time>2025-09-20T07:47:12.000Z</time>
      </trkpt>
      <trkpt lat="42.96217" lon="1.15029">
        <ele>689</ele>
        <time>2025-09-20T07:47:13.000Z</time>
      </trkpt>
      <trkpt lat="42.96218" lon="1.15032">
        <ele>689</ele>
        <time>2025-09-20T07:47:14.000Z</time>
      </trkpt>
      <trkpt lat="42.96219" lon="1.15035">
        <ele>689</ele>
        <time>2025-09-20T07:47:15.000Z</time>
      </trkpt>
      <trkpt lat="42.9622" lon="1.15037">
        <ele>688</ele>
        <time>2025-09-20T07:47:16.000Z</time>
      </trkpt>
      <trkpt lat="42.96221" lon="1.1504">
        <ele>688</ele>
        <time>2025-09-20T07:47:17.000Z</time>
      </trkpt>
      <trkpt lat="42.96222" lon="1.15042">
        <ele>687</ele>
        <time>2025-09-20T07:47:18.000Z</time>
      </trkpt>
      <trkpt lat="42.96222" lon="1.15045">
        <ele>687</ele>
        <time>2025-09-20T07:47:19.000Z</time>
      </trkpt>
      <trkpt lat="42.96224" lon="1.15048">
        <ele>687</ele>
        <time>2025-09-20T07:47:20.000Z</time>
      </trkpt>
      <trkpt lat="42.96224" lon="1.15051">
        <ele>687</ele>
        <time>2025-09-20T07:47:21.000Z</time>
      </trkpt>
      <trkpt lat="42.96225" lon="1.15053">
        <ele>688</ele>
        <time>2025-09-20T07:47:22.000Z</time>
      </trkpt>
      <trkpt lat="42.96226" lon="1.15057">
        <ele>688</ele>
        <time>2025-09-20T07:47:23.000Z</time>
      </trkpt>
      <trkpt lat="42.96227" lon="1.15059">
        <ele>688</ele>
        <time>2025-09-20T07:47:24.000Z</time>
      </trkpt>
      <trkpt lat="42.96227" lon="1.15061">
        <ele>688</ele>
        <time>2025-09-20T07:47:25.000Z</time>
      </trkpt>
      <trkpt lat="42.96226" lon="1.15063">
        <ele>688</ele>
        <time>2025-09-20T07:47:26.000Z</time>
      </trkpt>
      <trkpt lat="42.96226" lon="1.15065">
        <ele>688</ele>
        <time>2025-09-20T07:47:27.000Z</time>
      </trkpt>
      <trkpt lat="42.96226" lon="1.15065">
        <ele>689</ele>
        <time>2025-09-20T07:47:28.000Z</time>
      </trkpt>
      <trkpt lat="42.96225" lon="1.15066">
        <ele>687</ele>
        <time>2025-09-20T07:47:52.000Z</time>
      </trkpt>
      <trkpt lat="42.96224" lon="1.15068">
        <ele>687</ele>
        <time>2025-09-20T07:47:53.000Z</time>
      </trkpt>
      <trkpt lat="42.96221" lon="1.15071">
        <ele>687</ele>
        <time>2025-09-20T07:47:54.000Z</time>
      </trkpt>
      <trkpt lat="42.96217" lon="1.15072">
        <ele>687</ele>
        <time>2025-09-20T07:47:55.000Z</time>
      </trkpt>
      <trkpt lat="42.96212" lon="1.15075">
        <ele>686</ele>
        <time>2025-09-20T07:47:56.000Z</time>
      </trkpt>
      <trkpt lat="42.96206" lon="1.15076">
        <ele>685</ele>
        <time>2025-09-20T07:47:57.000Z</time>
      </trkpt>
      <trkpt lat="42.962" lon="1.15077">
        <ele>685</ele>
        <time>2025-09-20T07:47:58.000Z</time>
      </trkpt>
      <trkpt lat="42.96195" lon="1.15077">
        <ele>685</ele>
        <time>2025-09-20T07:47:59.000Z</time>
      </trkpt>
      <trkpt lat="42.9619" lon="1.15076">
        <ele>684</ele>
        <time>2025-09-20T07:48:00.000Z</time>
      </trkpt>
      <trkpt lat="42.96185" lon="1.15077">
        <ele>683</ele>
        <time>2025-09-20T07:48:01.000Z</time>
      </trkpt>
      <trkpt lat="42.9618" lon="1.15078">
        <ele>683</ele>
        <time>2025-09-20T07:48:02.000Z</time>
      </trkpt>
      <trkpt lat="42.96176" lon="1.15079">
        <ele>682</ele>
        <time>2025-09-20T07:48:03.000Z</time>
      </trkpt>
      <trkpt lat="42.96173" lon="1.1508">
        <ele>682</ele>
        <time>2025-09-20T07:48:04.000Z</time>
      </trkpt>
      <trkpt lat="42.9617" lon="1.15081">
        <ele>682</ele>
        <time>2025-09-20T07:48:05.000Z</time>
      </trkpt>
      <trkpt lat="42.96167" lon="1.15081">
        <ele>682</ele>
        <time>2025-09-20T07:48:06.000Z</time>
      </trkpt>
      <trkpt lat="42.96164" lon="1.1508">
        <ele>683</ele>
        <time>2025-09-20T07:48:07.000Z</time>
      </trkpt>
      <trkpt lat="42.96162" lon="1.15079">
        <ele>682</ele>
        <time>2025-09-20T07:48:08.000Z</time>
      </trkpt>
      <trkpt lat="42.9616" lon="1.15077">
        <ele>683</ele>
        <time>2025-09-20T07:48:09.000Z</time>
      </trkpt>
      <trkpt lat="42.96157" lon="1.15076">
        <ele>683</ele>
        <time>2025-09-20T07:48:10.000Z</time>
      </trkpt>
      <trkpt lat="42.96155" lon="1.15075">
        <ele>683</ele>
        <time>2025-09-20T07:48:11.000Z</time>
      </trkpt>
      <trkpt lat="42.96153" lon="1.15074">
        <ele>682</ele>
        <time>2025-09-20T07:48:12.000Z</time>
      </trkpt>
      <trkpt lat="42.9615" lon="1.15074">
        <ele>682</ele>
        <time>2025-09-20T07:48:13.000Z</time>
      </trkpt>
      <trkpt lat="42.96148" lon="1.15073">
        <ele>682</ele>
        <time>2025-09-20T07:48:14.000Z</time>
      </trkpt>
      <trkpt lat="42.96145" lon="1.15073">
        <ele>682</ele>
        <time>2025-09-20T07:48:15.000Z</time>
      </trkpt>
      <trkpt lat="42.96143" lon="1.15072">
        <ele>683</ele>
        <time>2025-09-20T07:48:16.000Z</time>
      </trkpt>
      <trkpt lat="42.96141" lon="1.15072">
        <ele>683</ele>
        <time>2025-09-20T07:48:17.000Z</time>
      </trkpt>
      <trkpt lat="42.96139" lon="1.15071">
        <ele>684</ele>
        <time>2025-09-20T07:48:18.000Z</time>
      </trkpt>
      <trkpt lat="42.96137" lon="1.15071">
        <ele>684</ele>
        <time>2025-09-20T07:48:19.000Z</time>
      </trkpt>
      <trkpt lat="42.96135" lon="1.15071">
        <ele>685</ele>
        <time>2025-09-20T07:48:20.000Z</time>
      </trkpt>
      <trkpt lat="42.96133" lon="1.1507">
        <ele>685</ele>
        <time>2025-09-20T07:48:21.000Z</time>
      </trkpt>
      <trkpt lat="42.96131" lon="1.1507">
        <ele>685</ele>
        <time>2025-09-20T07:48:22.000Z</time>
      </trkpt>
      <trkpt lat="42.96129" lon="1.1507">
        <ele>686</ele>
        <time>2025-09-20T07:48:23.000Z</time>
      </trkpt>
      <trkpt lat="42.96128" lon="1.15069">
        <ele>687</ele>
        <time>2025-09-20T07:48:24.000Z</time>
      </trkpt>
      <trkpt lat="42.96126" lon="1.15068">
        <ele>687</ele>
        <time>2025-09-20T07:48:25.000Z</time>
      </trkpt>
      <trkpt lat="42.96124" lon="1.15067">
        <ele>687</ele>
        <time>2025-09-20T07:48:26.000Z</time>
      </trkpt>
      <trkpt lat="42.96122" lon="1.15064">
        <ele>687</ele>
        <time>2025-09-20T07:48:27.000Z</time>
      </trkpt>
      <trkpt lat="42.9612" lon="1.15063">
        <ele>688</ele>
        <time>2025-09-20T07:48:28.000Z</time>
      </trkpt>
      <trkpt lat="42.96119" lon="1.15061">
        <ele>688</ele>
        <time>2025-09-20T07:48:29.000Z</time>
      </trkpt>
      <trkpt lat="42.96119" lon="1.1506">
        <ele>688</ele>
        <time>2025-09-20T07:48:30.000Z</time>
      </trkpt>
      <trkpt lat="42.96118" lon="1.15058">
        <ele>688</ele>
        <time>2025-09-20T07:48:31.000Z</time>
      </trkpt>
      <trkpt lat="42.96117" lon="1.15055">
        <ele>687</ele>
        <time>2025-09-20T07:48:32.000Z</time>
      </trkpt>
      <trkpt lat="42.96117" lon="1.15052">
        <ele>687</ele>
        <time>2025-09-20T07:48:33.000Z</time>
      </trkpt>
      <trkpt lat="42.96117" lon="1.1505">
        <ele>688</ele>
        <time>2025-09-20T07:48:34.000Z</time>
      </trkpt>
      <trkpt lat="42.96116" lon="1.15047">
        <ele>688</ele>
        <time>2025-09-20T07:48:35.000Z</time>
      </trkpt>
      <trkpt lat="42.96114" lon="1.15045">
        <ele>688</ele>
        <time>2025-09-20T07:48:36.000Z</time>
      </trkpt>
      <trkpt lat="42.96113" lon="1.15042">
        <ele>689</ele>
        <time>2025-09-20T07:48:37.000Z</time>
      </trkpt>
      <trkpt lat="42.96113" lon="1.1504">
        <ele>689</ele>
        <time>2025-09-20T07:48:38.000Z</time>
      </trkpt>
      <trkpt lat="42.96112" lon="1.15037">
        <ele>690</ele>
        <time>2025-09-20T07:48:39.000Z</time>
      </trkpt>
      <trkpt lat="42.96111" lon="1.15035">
        <ele>690</ele>
        <time>2025-09-20T07:48:40.000Z</time>
      </trkpt>
      <trkpt lat="42.9611" lon="1.15033">
        <ele>690</ele>
        <time>2025-09-20T07:48:41.000Z</time>
      </trkpt>
      <trkpt lat="42.96109" lon="1.15031">
        <ele>691</ele>
        <time>2025-09-20T07:48:42.000Z</time>
      </trkpt>
      <trkpt lat="42.96109" lon="1.15028">
        <ele>691</ele>
        <time>2025-09-20T07:48:43.000Z</time>
      </trkpt>
      <trkpt lat="42.96108" lon="1.15026">
        <ele>691</ele>
        <time>2025-09-20T07:48:44.000Z</time>
      </trkpt>
      <trkpt lat="42.96107" lon="1.15023">
        <ele>692</ele>
        <time>2025-09-20T07:48:45.000Z</time>
      </trkpt>
      <trkpt lat="42.96106" lon="1.15022">
        <ele>693</ele>
        <time>2025-09-20T07:48:46.000Z</time>
      </trkpt>
      <trkpt lat="42.96104" lon="1.1502">
        <ele>694</ele>
        <time>2025-09-20T07:48:47.000Z</time>
      </trkpt>
      <trkpt lat="42.96102" lon="1.1502">
        <ele>695</ele>
        <time>2025-09-20T07:48:48.000Z</time>
      </trkpt>
      <trkpt lat="42.961" lon="1.1502">
        <ele>695</ele>
        <time>2025-09-20T07:48:49.000Z</time>
      </trkpt>
      <trkpt lat="42.96099" lon="1.15021">
        <ele>695</ele>
        <time>2025-09-20T07:48:50.000Z</time>
      </trkpt>
      <trkpt lat="42.96098" lon="1.15024">
        <ele>696</ele>
        <time>2025-09-20T07:48:51.000Z</time>
      </trkpt>
      <trkpt lat="42.96097" lon="1.15027">
        <ele>696</ele>
        <time>2025-09-20T07:48:52.000Z</time>
      </trkpt>
      <trkpt lat="42.96096" lon="1.15029">
        <ele>697</ele>
        <time>2025-09-20T07:48:53.000Z</time>
      </trkpt>
      <trkpt lat="42.96094" lon="1.15031">
        <ele>697</ele>
        <time>2025-09-20T07:48:54.000Z</time>
      </trkpt>
      <trkpt lat="42.96093" lon="1.15034">
        <ele>697</ele>
        <time>2025-09-20T07:48:55.000Z</time>
      </trkpt>
      <trkpt lat="42.96091" lon="1.15037">
        <ele>697</ele>
        <time>2025-09-20T07:48:56.000Z</time>
      </trkpt>
      <trkpt lat="42.9609" lon="1.15039">
        <ele>697</ele>
        <time>2025-09-20T07:48:57.000Z</time>
      </trkpt>
      <trkpt lat="42.96088" lon="1.1504">
        <ele>697</ele>
        <time>2025-09-20T07:48:58.000Z</time>
      </trkpt>
      <trkpt lat="42.96086" lon="1.15042">
        <ele>697</ele>
        <time>2025-09-20T07:48:59.000Z</time>
      </trkpt>
      <trkpt lat="42.96085" lon="1.15043">
        <ele>697</ele>
        <time>2025-09-20T07:49:00.000Z</time>
      </trkpt>
      <trkpt lat="42.96083" lon="1.15045">
        <ele>697</ele>
        <time>2025-09-20T07:49:01.000Z</time>
      </trkpt>
      <trkpt lat="42.96082" lon="1.15047">
        <ele>697</ele>
        <time>2025-09-20T07:49:02.000Z</time>
      </trkpt>
      <trkpt lat="42.9608" lon="1.15049">
        <ele>697</ele>
        <time>2025-09-20T07:49:03.000Z</time>
      </trkpt>
      <trkpt lat="42.96078" lon="1.1505">
        <ele>697</ele>
        <time>2025-09-20T07:49:04.000Z</time>
      </trkpt>
      <trkpt lat="42.96076" lon="1.15052">
        <ele>697</ele>
        <time>2025-09-20T07:49:05.000Z</time>
      </trkpt>
      <trkpt lat="42.96075" lon="1.15053">
        <ele>697</ele>
        <time>2025-09-20T07:49:06.000Z</time>
      </trkpt>
      <trkpt lat="42.96073" lon="1.15054">
        <ele>698</ele>
        <time>2025-09-20T07:49:07.000Z</time>
      </trkpt>
      <trkpt lat="42.96072" lon="1.15055">
        <ele>698</ele>
        <time>2025-09-20T07:49:08.000Z</time>
      </trkpt>
      <trkpt lat="42.9607" lon="1.15056">
        <ele>699</ele>
        <time>2025-09-20T07:49:09.000Z</time>
      </trkpt>
      <trkpt lat="42.96068" lon="1.15056">
        <ele>699</ele>
        <time>2025-09-20T07:49:10.000Z</time>
      </trkpt>
      <trkpt lat="42.96067" lon="1.15058">
        <ele>700</ele>
        <time>2025-09-20T07:49:11.000Z</time>
      </trkpt>
      <trkpt lat="42.96066" lon="1.15059">
        <ele>700</ele>
        <time>2025-09-20T07:49:12.000Z</time>
      </trkpt>
      <trkpt lat="42.96064" lon="1.15059">
        <ele>700</ele>
        <time>2025-09-20T07:49:13.000Z</time>
      </trkpt>
      <trkpt lat="42.96062" lon="1.15061">
        <ele>699</ele>
        <time>2025-09-20T07:49:14.000Z</time>
      </trkpt>
      <trkpt lat="42.9606" lon="1.15062">
        <ele>699</ele>
        <time>2025-09-20T07:49:15.000Z</time>
      </trkpt>
      <trkpt lat="42.96058" lon="1.15064">
        <ele>699</ele>
        <time>2025-09-20T07:49:16.000Z</time>
      </trkpt>
      <trkpt lat="42.96056" lon="1.15066">
        <ele>700</ele>
        <time>2025-09-20T07:49:17.000Z</time>
      </trkpt>
      <trkpt lat="42.96053" lon="1.15068">
        <ele>700</ele>
        <time>2025-09-20T07:49:18.000Z</time>
      </trkpt>
      <trkpt lat="42.96052" lon="1.15069">
        <ele>700</ele>
        <time>2025-09-20T07:49:19.000Z</time>
      </trkpt>
      <trkpt lat="42.96051" lon="1.1507">
        <ele>700</ele>
        <time>2025-09-20T07:49:20.000Z</time>
      </trkpt>
      <trkpt lat="42.96049" lon="1.15071">
        <ele>701</ele>
        <time>2025-09-20T07:49:21.000Z</time>
      </trkpt>
      <trkpt lat="42.96048" lon="1.15072">
        <ele>702</ele>
        <time>2025-09-20T07:49:22.000Z</time>
      </trkpt>
      <trkpt lat="42.96046" lon="1.15075">
        <ele>702</ele>
        <time>2025-09-20T07:49:23.000Z</time>
      </trkpt>
      <trkpt lat="42.96044" lon="1.15077">
        <ele>703</ele>
        <time>2025-09-20T07:49:24.000Z</time>
      </trkpt>
      <trkpt lat="42.96042" lon="1.15079">
        <ele>703</ele>
        <time>2025-09-20T07:49:25.000Z</time>
      </trkpt>
      <trkpt lat="42.9604" lon="1.15081">
        <ele>704</ele>
        <time>2025-09-20T07:49:26.000Z</time>
      </trkpt>
      <trkpt lat="42.96038" lon="1.15083">
        <ele>705</ele>
        <time>2025-09-20T07:49:27.000Z</time>
      </trkpt>
      <trkpt lat="42.96036" lon="1.15087">
        <ele>707</ele>
        <time>2025-09-20T07:49:28.000Z</time>
      </trkpt>
      <trkpt lat="42.96034" lon="1.1509">
        <ele>708</ele>
        <time>2025-09-20T07:49:29.000Z</time>
      </trkpt>
      <trkpt lat="42.96033" lon="1.15093">
        <ele>710</ele>
        <time>2025-09-20T07:49:30.000Z</time>
      </trkpt>
      <trkpt lat="42.96031" lon="1.15093">
        <ele>710</ele>
        <time>2025-09-20T07:49:31.000Z</time>
      </trkpt>
      <trkpt lat="42.9603" lon="1.15093">
        <ele>710</ele>
        <time>2025-09-20T07:49:32.000Z</time>
      </trkpt>
      <trkpt lat="42.96028" lon="1.15093">
        <ele>710</ele>
        <time>2025-09-20T07:49:33.000Z</time>
      </trkpt>
      <trkpt lat="42.96027" lon="1.15091">
        <ele>710</ele>
        <time>2025-09-20T07:49:34.000Z</time>
      </trkpt>
      <trkpt lat="42.96026" lon="1.15088">
        <ele>711</ele>
        <time>2025-09-20T07:49:35.000Z</time>
      </trkpt>
      <trkpt lat="42.96026" lon="1.15085">
        <ele>711</ele>
        <time>2025-09-20T07:49:36.000Z</time>
      </trkpt>
      <trkpt lat="42.96026" lon="1.15083">
        <ele>711</ele>
        <time>2025-09-20T07:49:37.000Z</time>
      </trkpt>
      <trkpt lat="42.96027" lon="1.1508">
        <ele>711</ele>
        <time>2025-09-20T07:49:38.000Z</time>
      </trkpt>
      <trkpt lat="42.96028" lon="1.15077">
        <ele>712</ele>
        <time>2025-09-20T07:49:39.000Z</time>
      </trkpt>
      <trkpt lat="42.96029" lon="1.15074">
        <ele>712</ele>
        <time>2025-09-20T07:49:40.000Z</time>
      </trkpt>
      <trkpt lat="42.96029" lon="1.15071">
        <ele>712</ele>
        <time>2025-09-20T07:49:41.000Z</time>
      </trkpt>
      <trkpt lat="42.96029" lon="1.15068">
        <ele>713</ele>
        <time>2025-09-20T07:49:42.000Z</time>
      </trkpt>
      <trkpt lat="42.96028" lon="1.15064">
        <ele>713</ele>
        <time>2025-09-20T07:49:43.000Z</time>
      </trkpt>
      <trkpt lat="42.96027" lon="1.15061">
        <ele>713</ele>
        <time>2025-09-20T07:49:44.000Z</time>
      </trkpt>
      <trkpt lat="42.96026" lon="1.15058">
        <ele>713</ele>
        <time>2025-09-20T07:49:45.000Z</time>
      </trkpt>
      <trkpt lat="42.96026" lon="1.15055">
        <ele>714</ele>
        <time>2025-09-20T07:49:46.000Z</time>
      </trkpt>
      <trkpt lat="42.96024" lon="1.15052">
        <ele>714</ele>
        <time>2025-09-20T07:49:47.000Z</time>
      </trkpt>
      <trkpt lat="42.96023" lon="1.1505">
        <ele>715</ele>
        <time>2025-09-20T07:49:48.000Z</time>
      </trkpt>
      <trkpt lat="42.96022" lon="1.15047">
        <ele>715</ele>
        <time>2025-09-20T07:49:49.000Z</time>
      </trkpt>
      <trkpt lat="42.9602" lon="1.15045">
        <ele>716</ele>
        <time>2025-09-20T07:49:50.000Z</time>
      </trkpt>
      <trkpt lat="42.96019" lon="1.15043">
        <ele>716</ele>
        <time>2025-09-20T07:49:51.000Z</time>
      </trkpt>
      <trkpt lat="42.96017" lon="1.15041">
        <ele>717</ele>
        <time>2025-09-20T07:49:52.000Z</time>
      </trkpt>
      <trkpt lat="42.96016" lon="1.15038">
        <ele>717</ele>
        <time>2025-09-20T07:49:53.000Z</time>
      </trkpt>
      <trkpt lat="42.96014" lon="1.15036">
        <ele>718</ele>
        <time>2025-09-20T07:49:54.000Z</time>
      </trkpt>
      <trkpt lat="42.96013" lon="1.15034">
        <ele>719</ele>
        <time>2025-09-20T07:49:55.000Z</time>
      </trkpt>
      <trkpt lat="42.96011" lon="1.15033">
        <ele>719</ele>
        <time>2025-09-20T07:49:56.000Z</time>
      </trkpt>
      <trkpt lat="42.96009" lon="1.15031">
        <ele>719</ele>
        <time>2025-09-20T07:49:57.000Z</time>
      </trkpt>
      <trkpt lat="42.96007" lon="1.15029">
        <ele>720</ele>
        <time>2025-09-20T07:49:58.000Z</time>
      </trkpt>
      <trkpt lat="42.96005" lon="1.15028">
        <ele>720</ele>
        <time>2025-09-20T07:49:59.000Z</time>
      </trkpt>
      <trkpt lat="42.96003" lon="1.15026">
        <ele>721</ele>
        <time>2025-09-20T07:50:00.000Z</time>
      </trkpt>
      <trkpt lat="42.96002" lon="1.15024">
        <ele>721</ele>
        <time>2025-09-20T07:50:01.000Z</time>
      </trkpt>
      <trkpt lat="42.96" lon="1.15022">
        <ele>722</ele>
        <time>2025-09-20T07:50:02.000Z</time>
      </trkpt>
      <trkpt lat="42.95999" lon="1.15021">
        <ele>722</ele>
        <time>2025-09-20T07:50:03.000Z</time>
      </trkpt>
      <trkpt lat="42.95997" lon="1.15019">
        <ele>723</ele>
        <time>2025-09-20T07:50:04.000Z</time>
      </trkpt>
      <trkpt lat="42.95995" lon="1.15017">
        <ele>723</ele>
        <time>2025-09-20T07:50:05.000Z</time>
      </trkpt>
      <trkpt lat="42.95993" lon="1.15015">
        <ele>724</ele>
        <time>2025-09-20T07:50:06.000Z</time>
      </trkpt>
      <trkpt lat="42.95992" lon="1.15012">
        <ele>724</ele>
        <time>2025-09-20T07:50:07.000Z</time>
      </trkpt>
      <trkpt lat="42.9599" lon="1.1501">
        <ele>724</ele>
        <time>2025-09-20T07:50:08.000Z</time>
      </trkpt>
      <trkpt lat="42.95988" lon="1.15007">
        <ele>725</ele>
        <time>2025-09-20T07:50:09.000Z</time>
      </trkpt>
      <trkpt lat="42.95986" lon="1.15005">
        <ele>725</ele>
        <time>2025-09-20T07:50:10.000Z</time>
      </trkpt>
      <trkpt lat="42.95984" lon="1.15004">
        <ele>725</ele>
        <time>2025-09-20T07:50:11.000Z</time>
      </trkpt>
      <trkpt lat="42.95982" lon="1.15002">
        <ele>725</ele>
        <time>2025-09-20T07:50:12.000Z</time>
      </trkpt>
      <trkpt lat="42.9598" lon="1.15001">
        <ele>725</ele>
        <time>2025-09-20T07:50:13.000Z</time>
      </trkpt>
      <trkpt lat="42.95978" lon="1.14999">
        <ele>724</ele>
        <time>2025-09-20T07:50:14.000Z</time>
      </trkpt>
      <trkpt lat="42.95976" lon="1.14999">
        <ele>725</ele>
        <time>2025-09-20T07:50:15.000Z</time>
      </trkpt>
      <trkpt lat="42.95974" lon="1.14998">
        <ele>725</ele>
        <time>2025-09-20T07:50:16.000Z</time>
      </trkpt>
      <trkpt lat="42.95973" lon="1.14997">
        <ele>725</ele>
        <time>2025-09-20T07:50:17.000Z</time>
      </trkpt>
      <trkpt lat="42.95972" lon="1.14996">
        <ele>724</ele>
        <time>2025-09-20T07:50:18.000Z</time>
      </trkpt>
      <trkpt lat="42.9597" lon="1.14995">
        <ele>724</ele>
        <time>2025-09-20T07:50:19.000Z</time>
      </trkpt>
      <trkpt lat="42.95968" lon="1.14994">
        <ele>724</ele>
        <time>2025-09-20T07:50:20.000Z</time>
      </trkpt>
      <trkpt lat="42.95967" lon="1.14991">
        <ele>724</ele>
        <time>2025-09-20T07:50:21.000Z</time>
      </trkpt>
      <trkpt lat="42.95966" lon="1.14989">
        <ele>724</ele>
        <time>2025-09-20T07:50:22.000Z</time>
      </trkpt>
      <trkpt lat="42.95966" lon="1.14986">
        <ele>724</ele>
        <time>2025-09-20T07:50:23.000Z</time>
      </trkpt>
      <trkpt lat="42.95966" lon="1.14983">
        <ele>724</ele>
        <time>2025-09-20T07:50:24.000Z</time>
      </trkpt>
      <trkpt lat="42.95968" lon="1.14981">
        <ele>724</ele>
        <time>2025-09-20T07:50:25.000Z</time>
      </trkpt>
      <trkpt lat="42.95969" lon="1.14978">
        <ele>725</ele>
        <time>2025-09-20T07:50:26.000Z</time>
      </trkpt>
      <trkpt lat="42.9597" lon="1.14974">
        <ele>725</ele>
        <time>2025-09-20T07:50:27.000Z</time>
      </trkpt>
      <trkpt lat="42.95971" lon="1.1497">
        <ele>725</ele>
        <time>2025-09-20T07:50:28.000Z</time>
      </trkpt>
      <trkpt lat="42.95972" lon="1.14966">
        <ele>725</ele>
        <time>2025-09-20T07:50:29.000Z</time>
      </trkpt>
      <trkpt lat="42.95973" lon="1.14962">
        <ele>725</ele>
        <time>2025-09-20T07:50:30.000Z</time>
      </trkpt>
      <trkpt lat="42.95973" lon="1.14959">
        <ele>725</ele>
        <time>2025-09-20T07:50:31.000Z</time>
      </trkpt>
      <trkpt lat="42.95973" lon="1.14955">
        <ele>725</ele>
        <time>2025-09-20T07:50:32.000Z</time>
      </trkpt>
      <trkpt lat="42.95973" lon="1.14951">
        <ele>725</ele>
        <time>2025-09-20T07:50:33.000Z</time>
      </trkpt>
      <trkpt lat="42.95973" lon="1.14947">
        <ele>725</ele>
        <time>2025-09-20T07:50:34.000Z</time>
      </trkpt>
      <trkpt lat="42.95973" lon="1.14943">
        <ele>725</ele>
        <time>2025-09-20T07:50:35.000Z</time>
      </trkpt>
      <trkpt lat="42.95972" lon="1.14939">
        <ele>725</ele>
        <time>2025-09-20T07:50:36.000Z</time>
      </trkpt>
      <trkpt lat="42.95973" lon="1.14934">
        <ele>725</ele>
        <time>2025-09-20T07:50:37.000Z</time>
      </trkpt>
      <trkpt lat="42.95973" lon="1.1493">
        <ele>725</ele>
        <time>2025-09-20T07:50:38.000Z</time>
      </trkpt>
      <trkpt lat="42.95975" lon="1.14924">
        <ele>724</ele>
        <time>2025-09-20T07:50:39.000Z</time>
      </trkpt>
      <trkpt lat="42.95976" lon="1.1492">
        <ele>723</ele>
        <time>2025-09-20T07:50:40.000Z</time>
      </trkpt>
      <trkpt lat="42.95977" lon="1.14914">
        <ele>722</ele>
        <time>2025-09-20T07:50:41.000Z</time>
      </trkpt>
      <trkpt lat="42.95978" lon="1.14908">
        <ele>722</ele>
        <time>2025-09-20T07:50:42.000Z</time>
      </trkpt>
      <trkpt lat="42.95978" lon="1.14901">
        <ele>722</ele>
        <time>2025-09-20T07:50:43.000Z</time>
      </trkpt>
      <trkpt lat="42.9598" lon="1.14894">
        <ele>721</ele>
        <time>2025-09-20T07:50:44.000Z</time>
      </trkpt>
      <trkpt lat="42.9598" lon="1.14888">
        <ele>720</ele>
        <time>2025-09-20T07:50:45.000Z</time>
      </trkpt>
      <trkpt lat="42.95982" lon="1.1488">
        <ele>720</ele>
        <time>2025-09-20T07:50:46.000Z</time>
      </trkpt>
      <trkpt lat="42.95981" lon="1.14872">
        <ele>718</ele>
        <time>2025-09-20T07:50:47.000Z</time>
      </trkpt>
      <trkpt lat="42.95981" lon="1.14863">
        <ele>717</ele>
        <time>2025-09-20T07:50:48.000Z</time>
      </trkpt>
      <trkpt lat="42.95981" lon="1.14853">
        <ele>715</ele>
        <time>2025-09-20T07:50:49.000Z</time>
      </trkpt>
      <trkpt lat="42.95979" lon="1.14842">
        <ele>713</ele>
        <time>2025-09-20T07:50:50.000Z</time>
      </trkpt>
      <trkpt lat="42.95978" lon="1.1483">
        <ele>712</ele>
        <time>2025-09-20T07:50:51.000Z</time>
      </trkpt>
      <trkpt lat="42.95977" lon="1.14819">
        <ele>710</ele>
        <time>2025-09-20T07:50:52.000Z</time>
      </trkpt>
      <trkpt lat="42.95976" lon="1.14807">
        <ele>710</ele>
        <time>2025-09-20T07:50:53.000Z</time>
      </trkpt>
      <trkpt lat="42.95974" lon="1.14796">
        <ele>710</ele>
        <time>2025-09-20T07:50:54.000Z</time>
      </trkpt>
      <trkpt lat="42.95973" lon="1.14784">
        <ele>710</ele>
        <time>2025-09-20T07:50:55.000Z</time>
      </trkpt>
      <trkpt lat="42.95972" lon="1.14772">
        <ele>710</ele>
        <time>2025-09-20T07:50:56.000Z</time>
      </trkpt>
      <trkpt lat="42.95972" lon="1.14761">
        <ele>710</ele>
        <time>2025-09-20T07:50:57.000Z</time>
      </trkpt>
      <trkpt lat="42.95972" lon="1.14749">
        <ele>711</ele>
        <time>2025-09-20T07:50:58.000Z</time>
      </trkpt>
      <trkpt lat="42.95971" lon="1.14738">
        <ele>711</ele>
        <time>2025-09-20T07:50:59.000Z</time>
      </trkpt>
      <trkpt lat="42.95971" lon="1.14728">
        <ele>711</ele>
        <time>2025-09-20T07:51:00.000Z</time>
      </trkpt>
      <trkpt lat="42.95971" lon="1.14718">
        <ele>712</ele>
        <time>2025-09-20T07:51:01.000Z</time>
      </trkpt>
      <trkpt lat="42.95972" lon="1.14709">
        <ele>712</ele>
        <time>2025-09-20T07:51:02.000Z</time>
      </trkpt>
      <trkpt lat="42.95972" lon="1.14701">
        <ele>713</ele>
        <time>2025-09-20T07:51:03.000Z</time>
      </trkpt>
      <trkpt lat="42.95972" lon="1.14693">
        <ele>713</ele>
        <time>2025-09-20T07:51:04.000Z</time>
      </trkpt>
      <trkpt lat="42.95973" lon="1.14686">
        <ele>713</ele>
        <time>2025-09-20T07:51:05.000Z</time>
      </trkpt>
      <trkpt lat="42.95973" lon="1.14679">
        <ele>713</ele>
        <time>2025-09-20T07:51:06.000Z</time>
      </trkpt>
      <trkpt lat="42.95974" lon="1.14672">
        <ele>713</ele>
        <time>2025-09-20T07:51:07.000Z</time>
      </trkpt>
      <trkpt lat="42.95974" lon="1.14666">
        <ele>713</ele>
        <time>2025-09-20T07:51:08.000Z</time>
      </trkpt>
      <trkpt lat="42.95975" lon="1.14659">
        <ele>713</ele>
        <time>2025-09-20T07:51:09.000Z</time>
      </trkpt>
      <trkpt lat="42.95976" lon="1.14653">
        <ele>714</ele>
        <time>2025-09-20T07:51:10.000Z</time>
      </trkpt>
      <trkpt lat="42.95977" lon="1.14646">
        <ele>715</ele>
        <time>2025-09-20T07:51:11.000Z</time>
      </trkpt>
      <trkpt lat="42.95978" lon="1.1464">
        <ele>716</ele>
        <time>2025-09-20T07:51:12.000Z</time>
      </trkpt>
      <trkpt lat="42.95978" lon="1.14634">
        <ele>716</ele>
        <time>2025-09-20T07:51:13.000Z</time>
      </trkpt>
      <trkpt lat="42.95978" lon="1.14629">
        <ele>716</ele>
        <time>2025-09-20T07:51:14.000Z</time>
      </trkpt>
      <trkpt lat="42.95979" lon="1.14625">
        <ele>716</ele>
        <time>2025-09-20T07:51:15.000Z</time>
      </trkpt>
      <trkpt lat="42.95979" lon="1.14619">
        <ele>715</ele>
        <time>2025-09-20T07:51:16.000Z</time>
      </trkpt>
      <trkpt lat="42.9598" lon="1.14613">
        <ele>714</ele>
        <time>2025-09-20T07:51:17.000Z</time>
      </trkpt>
      <trkpt lat="42.95981" lon="1.14607">
        <ele>714</ele>
        <time>2025-09-20T07:51:18.000Z</time>
      </trkpt>
      <trkpt lat="42.95983" lon="1.146">
        <ele>713</ele>
        <time>2025-09-20T07:51:19.000Z</time>
      </trkpt>
      <trkpt lat="42.95984" lon="1.14593">
        <ele>712</ele>
        <time>2025-09-20T07:51:20.000Z</time>
      </trkpt>
      <trkpt lat="42.95986" lon="1.14586">
        <ele>712</ele>
        <time>2025-09-20T07:51:21.000Z</time>
      </trkpt>
      <trkpt lat="42.95987" lon="1.14578">
        <ele>711</ele>
        <time>2025-09-20T07:51:22.000Z</time>
      </trkpt>
      <trkpt lat="42.95989" lon="1.1457">
        <ele>710</ele>
        <time>2025-09-20T07:51:23.000Z</time>
      </trkpt>
      <trkpt lat="42.95992" lon="1.14561">
        <ele>709</ele>
        <time>2025-09-20T07:51:24.000Z</time>
      </trkpt>
      <trkpt lat="42.95993" lon="1.14551">
        <ele>706</ele>
        <time>2025-09-20T07:51:25.000Z</time>
      </trkpt>
      <trkpt lat="42.95996" lon="1.1454">
        <ele>704</ele>
        <time>2025-09-20T07:51:26.000Z</time>
      </trkpt>
      <trkpt lat="42.95999" lon="1.14529">
        <ele>703</ele>
        <time>2025-09-20T07:51:27.000Z</time>
      </trkpt>
      <trkpt lat="42.96002" lon="1.14518">
        <ele>703</ele>
        <time>2025-09-20T07:51:28.000Z</time>
      </trkpt>
      <trkpt lat="42.96006" lon="1.14507">
        <ele>703</ele>
        <time>2025-09-20T07:51:29.000Z</time>
      </trkpt>
      <trkpt lat="42.96009" lon="1.14497">
        <ele>703</ele>
        <time>2025-09-20T07:51:30.000Z</time>
      </trkpt>
      <trkpt lat="42.96012" lon="1.14484">
        <ele>702</ele>
        <time>2025-09-20T07:51:31.000Z</time>
      </trkpt>
      <trkpt lat="42.96015" lon="1.1447">
        <ele>701</ele>
        <time>2025-09-20T07:51:32.000Z</time>
      </trkpt>
      <trkpt lat="42.96019" lon="1.14455">
        <ele>700</ele>
        <time>2025-09-20T07:51:33.000Z</time>
      </trkpt>
      <trkpt lat="42.96021" lon="1.14441">
        <ele>699</ele>
        <time>2025-09-20T07:51:34.000Z</time>
      </trkpt>
      <trkpt lat="42.96024" lon="1.14427">
        <ele>699</ele>
        <time>2025-09-20T07:51:35.000Z</time>
      </trkpt>
      <trkpt lat="42.96026" lon="1.14413">
        <ele>699</ele>
        <time>2025-09-20T07:51:36.000Z</time>
      </trkpt>
      <trkpt lat="42.96028" lon="1.144">
        <ele>698</ele>
        <time>2025-09-20T07:51:37.000Z</time>
      </trkpt>
      <trkpt lat="42.96031" lon="1.14389">
        <ele>698</ele>
        <time>2025-09-20T07:51:38.000Z</time>
      </trkpt>
      <trkpt lat="42.96033" lon="1.14379">
        <ele>697</ele>
        <time>2025-09-20T07:51:39.000Z</time>
      </trkpt>
      <trkpt lat="42.96034" lon="1.14368">
        <ele>695</ele>
        <time>2025-09-20T07:51:40.000Z</time>
      </trkpt>
      <trkpt lat="42.96037" lon="1.14356">
        <ele>693</ele>
        <time>2025-09-20T07:51:41.000Z</time>
      </trkpt>
      <trkpt lat="42.96039" lon="1.14343">
        <ele>693</ele>
        <time>2025-09-20T07:51:42.000Z</time>
      </trkpt>
      <trkpt lat="42.96041" lon="1.1433">
        <ele>691</ele>
        <time>2025-09-20T07:51:43.000Z</time>
      </trkpt>
      <trkpt lat="42.96043" lon="1.14317">
        <ele>690</ele>
        <time>2025-09-20T07:51:44.000Z</time>
      </trkpt>
      <trkpt lat="42.96047" lon="1.14305">
        <ele>689</ele>
        <time>2025-09-20T07:51:45.000Z</time>
      </trkpt>
      <trkpt lat="42.96051" lon="1.14293">
        <ele>688</ele>
        <time>2025-09-20T07:51:46.000Z</time>
      </trkpt>
      <trkpt lat="42.96056" lon="1.14281">
        <ele>687</ele>
        <time>2025-09-20T07:51:47.000Z</time>
      </trkpt>
      <trkpt lat="42.96063" lon="1.14271">
        <ele>686</ele>
        <time>2025-09-20T07:51:48.000Z</time>
      </trkpt>
      <trkpt lat="42.96071" lon="1.14262">
        <ele>685</ele>
        <time>2025-09-20T07:51:49.000Z</time>
      </trkpt>
      <trkpt lat="42.96077" lon="1.14254">
        <ele>685</ele>
        <time>2025-09-20T07:51:50.000Z</time>
      </trkpt>
      <trkpt lat="42.96084" lon="1.14249">
        <ele>685</ele>
        <time>2025-09-20T07:51:51.000Z</time>
      </trkpt>
      <trkpt lat="42.96089" lon="1.14244">
        <ele>685</ele>
        <time>2025-09-20T07:51:52.000Z</time>
      </trkpt>
      <trkpt lat="42.96095" lon="1.14242">
        <ele>685</ele>
        <time>2025-09-20T07:51:53.000Z</time>
      </trkpt>
      <trkpt lat="42.96101" lon="1.14242">
        <ele>685</ele>
        <time>2025-09-20T07:51:54.000Z</time>
      </trkpt>
      <trkpt lat="42.96108" lon="1.14242">
        <ele>684</ele>
        <time>2025-09-20T07:51:55.000Z</time>
      </trkpt>
      <trkpt lat="42.96114" lon="1.14242">
        <ele>685</ele>
        <time>2025-09-20T07:51:56.000Z</time>
      </trkpt>
      <trkpt lat="42.96117" lon="1.14244">
        <ele>685</ele>
        <time>2025-09-20T07:51:57.000Z</time>
      </trkpt>
      <trkpt lat="42.9612" lon="1.14246">
        <ele>686</ele>
        <time>2025-09-20T07:51:58.000Z</time>
      </trkpt>
      <trkpt lat="42.96122" lon="1.14247">
        <ele>687</ele>
        <time>2025-09-20T07:51:59.000Z</time>
      </trkpt>
      <trkpt lat="42.96125" lon="1.14246">
        <ele>686</ele>
        <time>2025-09-20T07:52:00.000Z</time>
      </trkpt>
      <trkpt lat="42.96126" lon="1.14246">
        <ele>686</ele>
        <time>2025-09-20T07:52:01.000Z</time>
      </trkpt>
      <trkpt lat="42.96128" lon="1.14244">
        <ele>687</ele>
        <time>2025-09-20T07:52:02.000Z</time>
      </trkpt>
      <trkpt lat="42.96131" lon="1.14241">
        <ele>687</ele>
        <time>2025-09-20T07:52:03.000Z</time>
      </trkpt>
      <trkpt lat="42.96132" lon="1.14237">
        <ele>687</ele>
        <time>2025-09-20T07:52:04.000Z</time>
      </trkpt>
      <trkpt lat="42.96133" lon="1.14234">
        <ele>688</ele>
        <time>2025-09-20T07:52:05.000Z</time>
      </trkpt>
      <trkpt lat="42.96135" lon="1.14231">
        <ele>688</ele>
        <time>2025-09-20T07:52:06.000Z</time>
      </trkpt>
      <trkpt lat="42.96136" lon="1.14228">
        <ele>689</ele>
        <time>2025-09-20T07:52:07.000Z</time>
      </trkpt>
      <trkpt lat="42.96137" lon="1.14226">
        <ele>689</ele>
        <time>2025-09-20T07:52:08.000Z</time>
      </trkpt>
      <trkpt lat="42.96138" lon="1.14223">
        <ele>689</ele>
        <time>2025-09-20T07:52:09.000Z</time>
      </trkpt>
      <trkpt lat="42.96139" lon="1.1422">
        <ele>689</ele>
        <time>2025-09-20T07:52:10.000Z</time>
      </trkpt>
      <trkpt lat="42.9614" lon="1.14217">
        <ele>690</ele>
        <time>2025-09-20T07:52:11.000Z</time>
      </trkpt>
      <trkpt lat="42.96142" lon="1.14214">
        <ele>691</ele>
        <time>2025-09-20T07:52:12.000Z</time>
      </trkpt>
      <trkpt lat="42.96143" lon="1.1421">
        <ele>691</ele>
        <time>2025-09-20T07:52:13.000Z</time>
      </trkpt>
      <trkpt lat="42.96144" lon="1.14208">
        <ele>692</ele>
        <time>2025-09-20T07:52:14.000Z</time>
      </trkpt>
      <trkpt lat="42.96146" lon="1.14205">
        <ele>692</ele>
        <time>2025-09-20T07:52:15.000Z</time>
      </trkpt>
      <trkpt lat="42.96147" lon="1.14203">
        <ele>692</ele>
        <time>2025-09-20T07:52:16.000Z</time>
      </trkpt>
      <trkpt lat="42.96149" lon="1.142">
        <ele>693</ele>
        <time>2025-09-20T07:52:17.000Z</time>
      </trkpt>
      <trkpt lat="42.9615" lon="1.14198">
        <ele>693</ele>
        <time>2025-09-20T07:52:18.000Z</time>
      </trkpt>
      <trkpt lat="42.96151" lon="1.14195">
        <ele>694</ele>
        <time>2025-09-20T07:52:19.000Z</time>
      </trkpt>
      <trkpt lat="42.96152" lon="1.14193">
        <ele>695</ele>
        <time>2025-09-20T07:52:20.000Z</time>
      </trkpt>
      <trkpt lat="42.96154" lon="1.1419">
        <ele>696</ele>
        <time>2025-09-20T07:52:21.000Z</time>
      </trkpt>
      <trkpt lat="42.96155" lon="1.14188">
        <ele>696</ele>
        <time>2025-09-20T07:52:22.000Z</time>
      </trkpt>
      <trkpt lat="42.96156" lon="1.14185">
        <ele>696</ele>
        <time>2025-09-20T07:52:23.000Z</time>
      </trkpt>
      <trkpt lat="42.96158" lon="1.14182">
        <ele>696</ele>
        <time>2025-09-20T07:52:24.000Z</time>
      </trkpt>
      <trkpt lat="42.9616" lon="1.1418">
        <ele>696</ele>
        <time>2025-09-20T07:52:25.000Z</time>
      </trkpt>
      <trkpt lat="42.96161" lon="1.14177">
        <ele>697</ele>
        <time>2025-09-20T07:52:26.000Z</time>
      </trkpt>
      <trkpt lat="42.96162" lon="1.14175">
        <ele>697</ele>
        <time>2025-09-20T07:52:27.000Z</time>
      </trkpt>
      <trkpt lat="42.96164" lon="1.14173">
        <ele>697</ele>
        <time>2025-09-20T07:52:28.000Z</time>
      </trkpt>
      <trkpt lat="42.96165" lon="1.14171">
        <ele>697</ele>
        <time>2025-09-20T07:52:29.000Z</time>
      </trkpt>
      <trkpt lat="42.96167" lon="1.14168">
        <ele>697</ele>
        <time>2025-09-20T07:52:30.000Z</time>
      </trkpt>
      <trkpt lat="42.96168" lon="1.14166">
        <ele>697</ele>
        <time>2025-09-20T07:52:31.000Z</time>
      </trkpt>
      <trkpt lat="42.96169" lon="1.14164">
        <ele>697</ele>
        <time>2025-09-20T07:52:32.000Z</time>
      </trkpt>
      <trkpt lat="42.96171" lon="1.14162">
        <ele>698</ele>
        <time>2025-09-20T07:52:33.000Z</time>
      </trkpt>
      <trkpt lat="42.96172" lon="1.14159">
        <ele>699</ele>
        <time>2025-09-20T07:52:34.000Z</time>
      </trkpt>
      <trkpt lat="42.96172" lon="1.14157">
        <ele>699</ele>
        <time>2025-09-20T07:52:35.000Z</time>
      </trkpt>
      <trkpt lat="42.96174" lon="1.14154">
        <ele>699</ele>
        <time>2025-09-20T07:52:36.000Z</time>
      </trkpt>
      <trkpt lat="42.96174" lon="1.14151">
        <ele>700</ele>
        <time>2025-09-20T07:52:37.000Z</time>
      </trkpt>
      <trkpt lat="42.96175" lon="1.14148">
        <ele>700</ele>
        <time>2025-09-20T07:52:38.000Z</time>
      </trkpt>
      <trkpt lat="42.96176" lon="1.14145">
        <ele>700</ele>
        <time>2025-09-20T07:52:39.000Z</time>
      </trkpt>
      <trkpt lat="42.96177" lon="1.14142">
        <ele>701</ele>
        <time>2025-09-20T07:52:40.000Z</time>
      </trkpt>
      <trkpt lat="42.96178" lon="1.14139">
        <ele>701</ele>
        <time>2025-09-20T07:52:41.000Z</time>
      </trkpt>
      <trkpt lat="42.9618" lon="1.14137">
        <ele>701</ele>
        <time>2025-09-20T07:52:42.000Z</time>
      </trkpt>
      <trkpt lat="42.96181" lon="1.14134">
        <ele>701</ele>
        <time>2025-09-20T07:52:43.000Z</time>
      </trkpt>
      <trkpt lat="42.96182" lon="1.14132">
        <ele>701</ele>
        <time>2025-09-20T07:52:44.000Z</time>
      </trkpt>
      <trkpt lat="42.96183" lon="1.14128">
        <ele>702</ele>
        <time>2025-09-20T07:52:45.000Z</time>
      </trkpt>
      <trkpt lat="42.96184" lon="1.14126">
        <ele>702</ele>
        <time>2025-09-20T07:52:46.000Z</time>
      </trkpt>
      <trkpt lat="42.96185" lon="1.14124">
        <ele>703</ele>
        <time>2025-09-20T07:52:47.000Z</time>
      </trkpt>
      <trkpt lat="42.96187" lon="1.14121">
        <ele>703</ele>
        <time>2025-09-20T07:52:48.000Z</time>
      </trkpt>
      <trkpt lat="42.96188" lon="1.14119">
        <ele>704</ele>
        <time>2025-09-20T07:52:49.000Z</time>
      </trkpt>
      <trkpt lat="42.96188" lon="1.14116">
        <ele>705</ele>
        <time>2025-09-20T07:52:50.000Z</time>
      </trkpt>
      <trkpt lat="42.96189" lon="1.14114">
        <ele>705</ele>
        <time>2025-09-20T07:52:51.000Z</time>
      </trkpt>
      <trkpt lat="42.9619" lon="1.14112">
        <ele>706</ele>
        <time>2025-09-20T07:52:52.000Z</time>
      </trkpt>
      <trkpt lat="42.9619" lon="1.14108">
        <ele>706</ele>
        <time>2025-09-20T07:52:53.000Z</time>
      </trkpt>
      <trkpt lat="42.96191" lon="1.14105">
        <ele>706</ele>
        <time>2025-09-20T07:52:54.000Z</time>
      </trkpt>
      <trkpt lat="42.96192" lon="1.14103">
        <ele>706</ele>
        <time>2025-09-20T07:52:55.000Z</time>
      </trkpt>
      <trkpt lat="42.96193" lon="1.141">
        <ele>706</ele>
        <time>2025-09-20T07:52:56.000Z</time>
      </trkpt>
      <trkpt lat="42.96193" lon="1.14097">
        <ele>706</ele>
        <time>2025-09-20T07:52:57.000Z</time>
      </trkpt>
      <trkpt lat="42.96194" lon="1.14094">
        <ele>707</ele>
        <time>2025-09-20T07:52:58.000Z</time>
      </trkpt>
      <trkpt lat="42.96195" lon="1.14092">
        <ele>707</ele>
        <time>2025-09-20T07:52:59.000Z</time>
      </trkpt>
      <trkpt lat="42.96196" lon="1.14089">
        <ele>707</ele>
        <time>2025-09-20T07:53:00.000Z</time>
      </trkpt>
      <trkpt lat="42.96196" lon="1.14086">
        <ele>708</ele>
        <time>2025-09-20T07:53:01.000Z</time>
      </trkpt>
      <trkpt lat="42.96197" lon="1.14083">
        <ele>708</ele>
        <time>2025-09-20T07:53:02.000Z</time>
      </trkpt>
      <trkpt lat="42.96197" lon="1.14081">
        <ele>709</ele>
        <time>2025-09-20T07:53:03.000Z</time>
      </trkpt>
      <trkpt lat="42.96198" lon="1.14078">
        <ele>709</ele>
        <time>2025-09-20T07:53:04.000Z</time>
      </trkpt>
      <trkpt lat="42.96198" lon="1.14076">
        <ele>709</ele>
        <time>2025-09-20T07:53:05.000Z</time>
      </trkpt>
      <trkpt lat="42.96199" lon="1.14074">
        <ele>709</ele>
        <time>2025-09-20T07:53:06.000Z</time>
      </trkpt>
      <trkpt lat="42.96199" lon="1.14072">
        <ele>709</ele>
        <time>2025-09-20T07:53:07.000Z</time>
      </trkpt>
      <trkpt lat="42.962" lon="1.1407">
        <ele>709</ele>
        <time>2025-09-20T07:53:08.000Z</time>
      </trkpt>
      <trkpt lat="42.96201" lon="1.14067">
        <ele>710</ele>
        <time>2025-09-20T07:53:09.000Z</time>
      </trkpt>
      <trkpt lat="42.96202" lon="1.14065">
        <ele>711</ele>
        <time>2025-09-20T07:53:10.000Z</time>
      </trkpt>
      <trkpt lat="42.96203" lon="1.14061">
        <ele>711</ele>
        <time>2025-09-20T07:53:11.000Z</time>
      </trkpt>
      <trkpt lat="42.96204" lon="1.14058">
        <ele>712</ele>
        <time>2025-09-20T07:53:12.000Z</time>
      </trkpt>
      <trkpt lat="42.96205" lon="1.14057">
        <ele>713</ele>
        <time>2025-09-20T07:53:13.000Z</time>
      </trkpt>
      <trkpt lat="42.96205" lon="1.14054">
        <ele>712</ele>
        <time>2025-09-20T07:53:14.000Z</time>
      </trkpt>
      <trkpt lat="42.96206" lon="1.14053">
        <ele>713</ele>
        <time>2025-09-20T07:53:15.000Z</time>
      </trkpt>
      <trkpt lat="42.96207" lon="1.1405">
        <ele>714</ele>
        <time>2025-09-20T07:53:16.000Z</time>
      </trkpt>
      <trkpt lat="42.96208" lon="1.14049">
        <ele>714</ele>
        <time>2025-09-20T07:53:17.000Z</time>
      </trkpt>
      <trkpt lat="42.96209" lon="1.14049">
        <ele>715</ele>
        <time>2025-09-20T07:53:18.000Z</time>
      </trkpt>
      <trkpt lat="42.9621" lon="1.14047">
        <ele>716</ele>
        <time>2025-09-20T07:53:19.000Z</time>
      </trkpt>
      <trkpt lat="42.96211" lon="1.14045">
        <ele>715</ele>
        <time>2025-09-20T07:53:20.000Z</time>
      </trkpt>
      <trkpt lat="42.96214" lon="1.14044">
        <ele>715</ele>
        <time>2025-09-20T07:53:21.000Z</time>
      </trkpt>
      <trkpt lat="42.96215" lon="1.14043">
        <ele>714</ele>
        <time>2025-09-20T07:53:22.000Z</time>
      </trkpt>
      <trkpt lat="42.96215" lon="1.14045">
        <ele>712</ele>
        <time>2025-09-20T07:53:53.000Z</time>
      </trkpt>
      <trkpt lat="42.96214" lon="1.14046">
        <ele>711</ele>
        <time>2025-09-20T07:53:54.000Z</time>
      </trkpt>
      <trkpt lat="42.96214" lon="1.14047">
        <ele>711</ele>
        <time>2025-09-20T07:53:55.000Z</time>
      </trkpt>
      <trkpt lat="42.96214" lon="1.14048">
        <ele>710</ele>
        <time>2025-09-20T07:53:56.000Z</time>
      </trkpt>
      <trkpt lat="42.96214" lon="1.14048">
        <ele>710</ele>
        <time>2025-09-20T07:53:57.000Z</time>
      </trkpt>
      <trkpt lat="42.96214" lon="1.14048">
        <ele>710</ele>
        <time>2025-09-20T07:53:58.000Z</time>
      </trkpt>
      <trkpt lat="42.96213" lon="1.14048">
        <ele>711</ele>
        <time>2025-09-20T07:53:59.000Z</time>
      </trkpt>
      <trkpt lat="42.96212" lon="1.14049">
        <ele>711</ele>
        <time>2025-09-20T07:54:00.000Z</time>
      </trkpt>
      <trkpt lat="42.96211" lon="1.14049">
        <ele>711</ele>
        <time>2025-09-20T07:54:01.000Z</time>
      </trkpt>
      <trkpt lat="42.9621" lon="1.14049">
        <ele>712</ele>
        <time>2025-09-20T07:54:02.000Z</time>
      </trkpt>
      <trkpt lat="42.96209" lon="1.1405">
        <ele>712</ele>
        <time>2025-09-20T07:54:03.000Z</time>
      </trkpt>
      <trkpt lat="42.96209" lon="1.14052">
        <ele>712</ele>
        <time>2025-09-20T07:54:04.000Z</time>
      </trkpt>
      <trkpt lat="42.9621" lon="1.14054">
        <ele>713</ele>
        <time>2025-09-20T07:54:05.000Z</time>
      </trkpt>
      <trkpt lat="42.9621" lon="1.14053">
        <ele>715</ele>
        <time>2025-09-20T07:55:15.000Z</time>
      </trkpt>
      <trkpt lat="42.9621" lon="1.14052">
        <ele>716</ele>
        <time>2025-09-20T07:55:16.000Z</time>
      </trkpt>
      <trkpt lat="42.96211" lon="1.14051">
        <ele>716</ele>
        <time>2025-09-20T07:55:17.000Z</time>
      </trkpt>
      <trkpt lat="42.96211" lon="1.14051">
        <ele>716</ele>
        <time>2025-09-20T07:55:18.000Z</time>
      </trkpt>
      <trkpt lat="42.96214" lon="1.14049">
        <ele>714</ele>
        <time>2025-09-20T08:00:27.000Z</time>
      </trkpt>
      <trkpt lat="42.96215" lon="1.14048">
        <ele>714</ele>
        <time>2025-09-20T08:00:28.000Z</time>
      </trkpt>
      <trkpt lat="42.96216" lon="1.14047">
        <ele>713</ele>
        <time>2025-09-20T08:00:29.000Z</time>
      </trkpt>
      <trkpt lat="42.96218" lon="1.14045">
        <ele>713</ele>
        <time>2025-09-20T08:00:30.000Z</time>
      </trkpt>
      <trkpt lat="42.9622" lon="1.14042">
        <ele>713</ele>
        <time>2025-09-20T08:00:31.000Z</time>
      </trkpt>
      <trkpt lat="42.96222" lon="1.14038">
        <ele>712</ele>
        <time>2025-09-20T08:00:32.000Z</time>
      </trkpt>
      <trkpt lat="42.96224" lon="1.14033">
        <ele>711</ele>
        <time>2025-09-20T08:00:33.000Z</time>
      </trkpt>
      <trkpt lat="42.96225" lon="1.14027">
        <ele>711</ele>
        <time>2025-09-20T08:00:34.000Z</time>
      </trkpt>
      <trkpt lat="42.96227" lon="1.14022">
        <ele>710</ele>
        <time>2025-09-20T08:00:35.000Z</time>
      </trkpt>
      <trkpt lat="42.96228" lon="1.14017">
        <ele>709</ele>
        <time>2025-09-20T08:00:36.000Z</time>
      </trkpt>
      <trkpt lat="42.9623" lon="1.14012">
        <ele>709</ele>
        <time>2025-09-20T08:00:37.000Z</time>
      </trkpt>
      <trkpt lat="42.96232" lon="1.14008">
        <ele>709</ele>
        <time>2025-09-20T08:00:38.000Z</time>
      </trkpt>
      <trkpt lat="42.96234" lon="1.14003">
        <ele>708</ele>
        <time>2025-09-20T08:00:39.000Z</time>
      </trkpt>
      <trkpt lat="42.96237" lon="1.13997">
        <ele>707</ele>
        <time>2025-09-20T08:00:40.000Z</time>
      </trkpt>
      <trkpt lat="42.96239" lon="1.13993">
        <ele>706</ele>
        <time>2025-09-20T08:00:41.000Z</time>
      </trkpt>
      <trkpt lat="42.96242" lon="1.13987">
        <ele>705</ele>
        <time>2025-09-20T08:00:42.000Z</time>
      </trkpt>
      <trkpt lat="42.96244" lon="1.13981">
        <ele>705</ele>
        <time>2025-09-20T08:00:43.000Z</time>
      </trkpt>
      <trkpt lat="42.96246" lon="1.13976">
        <ele>704</ele>
        <time>2025-09-20T08:00:44.000Z</time>
      </trkpt>
      <trkpt lat="42.96249" lon="1.1397">
        <ele>704</ele>
        <time>2025-09-20T08:00:45.000Z</time>
      </trkpt>
      <trkpt lat="42.96251" lon="1.13964">
        <ele>704</ele>
        <time>2025-09-20T08:00:46.000Z</time>
      </trkpt>
      <trkpt lat="42.96254" lon="1.13957">
        <ele>704</ele>
        <time>2025-09-20T08:00:47.000Z</time>
      </trkpt>
      <trkpt lat="42.96257" lon="1.13952">
        <ele>703</ele>
        <time>2025-09-20T08:00:48.000Z</time>
      </trkpt>
      <trkpt lat="42.96261" lon="1.13948">
        <ele>702</ele>
        <time>2025-09-20T08:00:49.000Z</time>
      </trkpt>
      <trkpt lat="42.96268" lon="1.13945">
        <ele>700</ele>
        <time>2025-09-20T08:00:50.000Z</time>
      </trkpt>
      <trkpt lat="42.96276" lon="1.13945">
        <ele>698</ele>
        <time>2025-09-20T08:00:51.000Z</time>
      </trkpt>
      <trkpt lat="42.96284" lon="1.13946">
        <ele>697</ele>
        <time>2025-09-20T08:00:52.000Z</time>
      </trkpt>
      <trkpt lat="42.96293" lon="1.13947">
        <ele>696</ele>
        <time>2025-09-20T08:00:53.000Z</time>
      </trkpt>
      <trkpt lat="42.963" lon="1.13949">
        <ele>695</ele>
        <time>2025-09-20T08:00:54.000Z</time>
      </trkpt>
      <trkpt lat="42.96308" lon="1.13953">
        <ele>694</ele>
        <time>2025-09-20T08:00:55.000Z</time>
      </trkpt>
      <trkpt lat="42.96314" lon="1.13956">
        <ele>694</ele>
        <time>2025-09-20T08:00:56.000Z</time>
      </trkpt>
      <trkpt lat="42.96318" lon="1.13959">
        <ele>693</ele>
        <time>2025-09-20T08:00:57.000Z</time>
      </trkpt>
      <trkpt lat="42.96321" lon="1.13962">
        <ele>693</ele>
        <time>2025-09-20T08:00:58.000Z</time>
      </trkpt>
      <trkpt lat="42.96323" lon="1.13966">
        <ele>691</ele>
        <time>2025-09-20T08:00:59.000Z</time>
      </trkpt>
      <trkpt lat="42.96325" lon="1.1397">
        <ele>689</ele>
        <time>2025-09-20T08:01:00.000Z</time>
      </trkpt>
      <trkpt lat="42.96328" lon="1.13975">
        <ele>688</ele>
        <time>2025-09-20T08:01:01.000Z</time>
      </trkpt>
      <trkpt lat="42.9633" lon="1.1398">
        <ele>688</ele>
        <time>2025-09-20T08:01:02.000Z</time>
      </trkpt>
      <trkpt lat="42.96333" lon="1.13985">
        <ele>687</ele>
        <time>2025-09-20T08:01:03.000Z</time>
      </trkpt>
      <trkpt lat="42.96338" lon="1.13991">
        <ele>685</ele>
        <time>2025-09-20T08:01:04.000Z</time>
      </trkpt>
      <trkpt lat="42.96343" lon="1.13996">
        <ele>683</ele>
        <time>2025-09-20T08:01:05.000Z</time>
      </trkpt>
      <trkpt lat="42.96349" lon="1.14002">
        <ele>681</ele>
        <time>2025-09-20T08:01:06.000Z</time>
      </trkpt>
      <trkpt lat="42.96355" lon="1.14005">
        <ele>679</ele>
        <time>2025-09-20T08:01:07.000Z</time>
      </trkpt>
      <trkpt lat="42.96361" lon="1.14006">
        <ele>678</ele>
        <time>2025-09-20T08:01:08.000Z</time>
      </trkpt>
      <trkpt lat="42.96368" lon="1.14007">
        <ele>677</ele>
        <time>2025-09-20T08:01:09.000Z</time>
      </trkpt>
      <trkpt lat="42.96374" lon="1.14006">
        <ele>677</ele>
        <time>2025-09-20T08:01:10.000Z</time>
      </trkpt>
      <trkpt lat="42.9638" lon="1.14006">
        <ele>676</ele>
        <time>2025-09-20T08:01:11.000Z</time>
      </trkpt>
      <trkpt lat="42.96386" lon="1.14006">
        <ele>676</ele>
        <time>2025-09-20T08:01:12.000Z</time>
      </trkpt>
      <trkpt lat="42.9639" lon="1.14005">
        <ele>676</ele>
        <time>2025-09-20T08:01:13.000Z</time>
      </trkpt>
      <trkpt lat="42.96394" lon="1.14006">
        <ele>674</ele>
        <time>2025-09-20T08:01:14.000Z</time>
      </trkpt>
      <trkpt lat="42.96399" lon="1.14007">
        <ele>674</ele>
        <time>2025-09-20T08:01:15.000Z</time>
      </trkpt>
      <trkpt lat="42.96405" lon="1.14007">
        <ele>673</ele>
        <time>2025-09-20T08:01:16.000Z</time>
      </trkpt>
      <trkpt lat="42.96409" lon="1.14008">
        <ele>672</ele>
        <time>2025-09-20T08:01:17.000Z</time>
      </trkpt>
      <trkpt lat="42.96412" lon="1.1401">
        <ele>671</ele>
        <time>2025-09-20T08:01:18.000Z</time>
      </trkpt>
      <trkpt lat="42.96416" lon="1.14011">
        <ele>670</ele>
        <time>2025-09-20T08:01:19.000Z</time>
      </trkpt>
      <trkpt lat="42.96418" lon="1.1401">
        <ele>670</ele>
        <time>2025-09-20T08:01:20.000Z</time>
      </trkpt>
      <trkpt lat="42.96421" lon="1.14011">
        <ele>670</ele>
        <time>2025-09-20T08:01:21.000Z</time>
      </trkpt>
      <trkpt lat="42.96423" lon="1.14013">
        <ele>668</ele>
        <time>2025-09-20T08:01:22.000Z</time>
      </trkpt>
      <trkpt lat="42.96427" lon="1.14014">
        <ele>667</ele>
        <time>2025-09-20T08:01:23.000Z</time>
      </trkpt>
      <trkpt lat="42.96431" lon="1.14015">
        <ele>665</ele>
        <time>2025-09-20T08:01:24.000Z</time>
      </trkpt>
      <trkpt lat="42.96437" lon="1.14017">
        <ele>664</ele>
        <time>2025-09-20T08:01:25.000Z</time>
      </trkpt>
      <trkpt lat="42.96443" lon="1.14019">
        <ele>664</ele>
        <time>2025-09-20T08:01:26.000Z</time>
      </trkpt>
      <trkpt lat="42.96448" lon="1.14021">
        <ele>663</ele>
        <time>2025-09-20T08:01:27.000Z</time>
      </trkpt>
      <trkpt lat="42.96453" lon="1.14023">
        <ele>661</ele>
        <time>2025-09-20T08:01:28.000Z</time>
      </trkpt>
      <trkpt lat="42.96459" lon="1.14026">
        <ele>661</ele>
        <time>2025-09-20T08:01:29.000Z</time>
      </trkpt>
      <trkpt lat="42.96465" lon="1.14029">
        <ele>661</ele>
        <time>2025-09-20T08:01:30.000Z</time>
      </trkpt>
      <trkpt lat="42.96469" lon="1.1403">
        <ele>660</ele>
        <time>2025-09-20T08:01:31.000Z</time>
      </trkpt>
      <trkpt lat="42.96474" lon="1.14031">
        <ele>660</ele>
        <time>2025-09-20T08:01:32.000Z</time>
      </trkpt>
      <trkpt lat="42.96479" lon="1.14034">
        <ele>659</ele>
        <time>2025-09-20T08:01:33.000Z</time>
      </trkpt>
      <trkpt lat="42.96484" lon="1.14036">
        <ele>659</ele>
        <time>2025-09-20T08:01:34.000Z</time>
      </trkpt>
      <trkpt lat="42.96489" lon="1.14038">
        <ele>658</ele>
        <time>2025-09-20T08:01:35.000Z</time>
      </trkpt>
      <trkpt lat="42.96495" lon="1.14041">
        <ele>657</ele>
        <time>2025-09-20T08:01:36.000Z</time>
      </trkpt>
      <trkpt lat="42.965" lon="1.14043">
        <ele>656</ele>
        <time>2025-09-20T08:01:37.000Z</time>
      </trkpt>
      <trkpt lat="42.96505" lon="1.14045">
        <ele>655</ele>
        <time>2025-09-20T08:01:38.000Z</time>
      </trkpt>
      <trkpt lat="42.96511" lon="1.14048">
        <ele>655</ele>
        <time>2025-09-20T08:01:39.000Z</time>
      </trkpt>
      <trkpt lat="42.96517" lon="1.1405">
        <ele>654</ele>
        <time>2025-09-20T08:01:40.000Z</time>
      </trkpt>
      <trkpt lat="42.96522" lon="1.14053">
        <ele>653</ele>
        <time>2025-09-20T08:01:41.000Z</time>
      </trkpt>
      <trkpt lat="42.96528" lon="1.14055">
        <ele>652</ele>
        <time>2025-09-20T08:01:42.000Z</time>
      </trkpt>
      <trkpt lat="42.96535" lon="1.14058">
        <ele>652</ele>
        <time>2025-09-20T08:01:43.000Z</time>
      </trkpt>
      <trkpt lat="42.96541" lon="1.14061">
        <ele>652</ele>
        <time>2025-09-20T08:01:44.000Z</time>
      </trkpt>
      <trkpt lat="42.96546" lon="1.14063">
        <ele>651</ele>
        <time>2025-09-20T08:01:45.000Z</time>
      </trkpt>
      <trkpt lat="42.9655" lon="1.14063">
        <ele>652</ele>
        <time>2025-09-20T08:01:46.000Z</time>
      </trkpt>
      <trkpt lat="42.96554" lon="1.14064">
        <ele>653</ele>
        <time>2025-09-20T08:01:47.000Z</time>
      </trkpt>
      <trkpt lat="42.96558" lon="1.14066">
        <ele>653</ele>
        <time>2025-09-20T08:01:48.000Z</time>
      </trkpt>
      <trkpt lat="42.96562" lon="1.14067">
        <ele>652</ele>
        <time>2025-09-20T08:01:49.000Z</time>
      </trkpt>
      <trkpt lat="42.96567" lon="1.14069">
        <ele>652</ele>
        <time>2025-09-20T08:01:50.000Z</time>
      </trkpt>
      <trkpt lat="42.9657" lon="1.1407">
        <ele>652</ele>
        <time>2025-09-20T08:01:51.000Z</time>
      </trkpt>
      <trkpt lat="42.96574" lon="1.14071">
        <ele>652</ele>
        <time>2025-09-20T08:01:52.000Z</time>
      </trkpt>
      <trkpt lat="42.96578" lon="1.14071">
        <ele>653</ele>
        <time>2025-09-20T08:01:53.000Z</time>
      </trkpt>
      <trkpt lat="42.9658" lon="1.14071">
        <ele>653</ele>
        <time>2025-09-20T08:01:54.000Z</time>
      </trkpt>
      <trkpt lat="42.96582" lon="1.14071">
        <ele>653</ele>
        <time>2025-09-20T08:01:55.000Z</time>
      </trkpt>
      <trkpt lat="42.96583" lon="1.14071">
        <ele>653</ele>
        <time>2025-09-20T08:01:56.000Z</time>
      </trkpt>
      <trkpt lat="42.96586" lon="1.1407">
        <ele>653</ele>
        <time>2025-09-20T08:01:57.000Z</time>
      </trkpt>
      <trkpt lat="42.96588" lon="1.14069">
        <ele>652</ele>
        <time>2025-09-20T08:01:58.000Z</time>
      </trkpt>
      <trkpt lat="42.96591" lon="1.14068">
        <ele>653</ele>
        <time>2025-09-20T08:01:59.000Z</time>
      </trkpt>
      <trkpt lat="42.96594" lon="1.14066">
        <ele>652</ele>
        <time>2025-09-20T08:02:00.000Z</time>
      </trkpt>
      <trkpt lat="42.96598" lon="1.14065">
        <ele>652</ele>
        <time>2025-09-20T08:02:01.000Z</time>
      </trkpt>
      <trkpt lat="42.96602" lon="1.14065">
        <ele>652</ele>
        <time>2025-09-20T08:02:02.000Z</time>
      </trkpt>
      <trkpt lat="42.96606" lon="1.14065">
        <ele>651</ele>
        <time>2025-09-20T08:02:03.000Z</time>
      </trkpt>
      <trkpt lat="42.96611" lon="1.14065">
        <ele>650</ele>
        <time>2025-09-20T08:02:04.000Z</time>
      </trkpt>
      <trkpt lat="42.96616" lon="1.14064">
        <ele>649</ele>
        <time>2025-09-20T08:02:05.000Z</time>
      </trkpt>
      <trkpt lat="42.9662" lon="1.14063">
        <ele>648</ele>
        <time>2025-09-20T08:02:06.000Z</time>
      </trkpt>
      <trkpt lat="42.96623" lon="1.14063">
        <ele>648</ele>
        <time>2025-09-20T08:02:07.000Z</time>
      </trkpt>
      <trkpt lat="42.96626" lon="1.14064">
        <ele>648</ele>
        <time>2025-09-20T08:02:08.000Z</time>
      </trkpt>
      <trkpt lat="42.96628" lon="1.14063">
        <ele>648</ele>
        <time>2025-09-20T08:02:09.000Z</time>
      </trkpt>
      <trkpt lat="42.9663" lon="1.14063">
        <ele>649</ele>
        <time>2025-09-20T08:02:10.000Z</time>
      </trkpt>
      <trkpt lat="42.96632" lon="1.14064">
        <ele>649</ele>
        <time>2025-09-20T08:02:11.000Z</time>
      </trkpt>
      <trkpt lat="42.96633" lon="1.14064">
        <ele>649</ele>
        <time>2025-09-20T08:02:12.000Z</time>
      </trkpt>
      <trkpt lat="42.96635" lon="1.14065">
        <ele>648</ele>
        <time>2025-09-20T08:02:13.000Z</time>
      </trkpt>
      <trkpt lat="42.96636" lon="1.14065">
        <ele>648</ele>
        <time>2025-09-20T08:02:14.000Z</time>
      </trkpt>
      <trkpt lat="42.96637" lon="1.14063">
        <ele>648</ele>
        <time>2025-09-20T08:02:15.000Z</time>
      </trkpt>
      <trkpt lat="42.96638" lon="1.14063">
        <ele>649</ele>
        <time>2025-09-20T08:02:16.000Z</time>
      </trkpt>
      <trkpt lat="42.96638" lon="1.14061">
        <ele>649</ele>
        <time>2025-09-20T08:02:17.000Z</time>
      </trkpt>
      <trkpt lat="42.96637" lon="1.14059">
        <ele>649</ele>
        <time>2025-09-20T08:02:18.000Z</time>
      </trkpt>
      <trkpt lat="42.96636" lon="1.14058">
        <ele>649</ele>
        <time>2025-09-20T08:02:19.000Z</time>
      </trkpt>
      <trkpt lat="42.96634" lon="1.14057">
        <ele>649</ele>
        <time>2025-09-20T08:02:20.000Z</time>
      </trkpt>
      <trkpt lat="42.96633" lon="1.14057">
        <ele>649</ele>
        <time>2025-09-20T08:02:21.000Z</time>
      </trkpt>
      <trkpt lat="42.96631" lon="1.14057">
        <ele>649</ele>
        <time>2025-09-20T08:02:22.000Z</time>
      </trkpt>
      <trkpt lat="42.96629" lon="1.14057">
        <ele>649</ele>
        <time>2025-09-20T08:02:23.000Z</time>
      </trkpt>
      <trkpt lat="42.96627" lon="1.14055">
        <ele>649</ele>
        <time>2025-09-20T08:02:24.000Z</time>
      </trkpt>
      <trkpt lat="42.96626" lon="1.14054">
        <ele>649</ele>
        <time>2025-09-20T08:02:25.000Z</time>
      </trkpt>
      <trkpt lat="42.96624" lon="1.14053">
        <ele>650</ele>
        <time>2025-09-20T08:02:26.000Z</time>
      </trkpt>
      <trkpt lat="42.96622" lon="1.14052">
        <ele>650</ele>
        <time>2025-09-20T08:02:27.000Z</time>
      </trkpt>
      <trkpt lat="42.96619" lon="1.14053">
        <ele>650</ele>
        <time>2025-09-20T08:02:28.000Z</time>
      </trkpt>
      <trkpt lat="42.96617" lon="1.14051">
        <ele>650</ele>
        <time>2025-09-20T08:02:29.000Z</time>
      </trkpt>
      <trkpt lat="42.96614" lon="1.1405">
        <ele>650</ele>
        <time>2025-09-20T08:02:30.000Z</time>
      </trkpt>
      <trkpt lat="42.96612" lon="1.14049">
        <ele>650</ele>
        <time>2025-09-20T08:02:31.000Z</time>
      </trkpt>
      <trkpt lat="42.9661" lon="1.14048">
        <ele>651</ele>
        <time>2025-09-20T08:02:32.000Z</time>
      </trkpt>
      <trkpt lat="42.96607" lon="1.14047">
        <ele>651</ele>
        <time>2025-09-20T08:02:33.000Z</time>
      </trkpt>
      <trkpt lat="42.96605" lon="1.14047">
        <ele>652</ele>
        <time>2025-09-20T08:02:34.000Z</time>
      </trkpt>
      <trkpt lat="42.96602" lon="1.14046">
        <ele>652</ele>
        <time>2025-09-20T08:02:35.000Z</time>
      </trkpt>
      <trkpt lat="42.966" lon="1.14045">
        <ele>652</ele>
        <time>2025-09-20T08:02:36.000Z</time>
      </trkpt>
      <trkpt lat="42.96598" lon="1.14044">
        <ele>652</ele>
        <time>2025-09-20T08:02:37.000Z</time>
      </trkpt>
      <trkpt lat="42.96596" lon="1.14043">
        <ele>652</ele>
        <time>2025-09-20T08:02:38.000Z</time>
      </trkpt>
      <trkpt lat="42.96594" lon="1.14043">
        <ele>653</ele>
        <time>2025-09-20T08:02:39.000Z</time>
      </trkpt>
      <trkpt lat="42.96591" lon="1.14042">
        <ele>653</ele>
        <time>2025-09-20T08:02:40.000Z</time>
      </trkpt>
      <trkpt lat="42.96589" lon="1.14042">
        <ele>653</ele>
        <time>2025-09-20T08:02:41.000Z</time>
      </trkpt>
      <trkpt lat="42.96586" lon="1.14042">
        <ele>654</ele>
        <time>2025-09-20T08:02:42.000Z</time>
      </trkpt>
      <trkpt lat="42.96584" lon="1.14042">
        <ele>654</ele>
        <time>2025-09-20T08:02:43.000Z</time>
      </trkpt>
      <trkpt lat="42.96582" lon="1.14041">
        <ele>655</ele>
        <time>2025-09-20T08:02:44.000Z</time>
      </trkpt>
      <trkpt lat="42.9658" lon="1.14041">
        <ele>655</ele>
        <time>2025-09-20T08:02:45.000Z</time>
      </trkpt>
      <trkpt lat="42.96578" lon="1.14039">
        <ele>656</ele>
        <time>2025-09-20T08:02:46.000Z</time>
      </trkpt>
      <trkpt lat="42.96577" lon="1.14038">
        <ele>657</ele>
        <time>2025-09-20T08:02:47.000Z</time>
      </trkpt>
      <trkpt lat="42.96576" lon="1.14037">
        <ele>657</ele>
        <time>2025-09-20T08:02:48.000Z</time>
      </trkpt>
      <trkpt lat="42.96574" lon="1.14036">
        <ele>658</ele>
        <time>2025-09-20T08:02:49.000Z</time>
      </trkpt>
      <trkpt lat="42.96573" lon="1.14035">
        <ele>658</ele>
        <time>2025-09-20T08:02:50.000Z</time>
      </trkpt>
      <trkpt lat="42.96572" lon="1.14033">
        <ele>659</ele>
        <time>2025-09-20T08:02:51.000Z</time>
      </trkpt>
      <trkpt lat="42.9657" lon="1.14032">
        <ele>659</ele>
        <time>2025-09-20T08:02:52.000Z</time>
      </trkpt>
      <trkpt lat="42.96568" lon="1.1403">
        <ele>660</ele>
        <time>2025-09-20T08:02:53.000Z</time>
      </trkpt>
      <trkpt lat="42.96566" lon="1.14028">
        <ele>660</ele>
        <time>2025-09-20T08:02:54.000Z</time>
      </trkpt>
      <trkpt lat="42.96565" lon="1.14026">
        <ele>661</ele>
        <time>2025-09-20T08:02:55.000Z</time>
      </trkpt>
      <trkpt lat="42.96563" lon="1.14025">
        <ele>661</ele>
        <time>2025-09-20T08:02:56.000Z</time>
      </trkpt>
      <trkpt lat="42.96562" lon="1.14023">
        <ele>661</ele>
        <time>2025-09-20T08:02:57.000Z</time>
      </trkpt>
      <trkpt lat="42.96561" lon="1.14021">
        <ele>662</ele>
        <time>2025-09-20T08:02:58.000Z</time>
      </trkpt>
      <trkpt lat="42.96561" lon="1.14019">
        <ele>662</ele>
        <time>2025-09-20T08:02:59.000Z</time>
      </trkpt>
      <trkpt lat="42.96562" lon="1.14016">
        <ele>662</ele>
        <time>2025-09-20T08:03:00.000Z</time>
      </trkpt>
      <trkpt lat="42.96563" lon="1.14015">
        <ele>663</ele>
        <time>2025-09-20T08:03:01.000Z</time>
      </trkpt>
      <trkpt lat="42.96564" lon="1.14013">
        <ele>664</ele>
        <time>2025-09-20T08:03:02.000Z</time>
      </trkpt>
      <trkpt lat="42.96566" lon="1.14011">
        <ele>665</ele>
        <time>2025-09-20T08:03:03.000Z</time>
      </trkpt>
      <trkpt lat="42.96568" lon="1.1401">
        <ele>665</ele>
        <time>2025-09-20T08:03:04.000Z</time>
      </trkpt>
      <trkpt lat="42.96569" lon="1.14007">
        <ele>666</ele>
        <time>2025-09-20T08:03:05.000Z</time>
      </trkpt>
      <trkpt lat="42.9657" lon="1.14005">
        <ele>667</ele>
        <time>2025-09-20T08:03:06.000Z</time>
      </trkpt>
      <trkpt lat="42.96572" lon="1.14002">
        <ele>668</ele>
        <time>2025-09-20T08:03:07.000Z</time>
      </trkpt>
      <trkpt lat="42.96573" lon="1.14">
        <ele>668</ele>
        <time>2025-09-20T08:03:08.000Z</time>
      </trkpt>
      <trkpt lat="42.96574" lon="1.13998">
        <ele>669</ele>
        <time>2025-09-20T08:03:09.000Z</time>
      </trkpt>
      <trkpt lat="42.96576" lon="1.13995">
        <ele>669</ele>
        <time>2025-09-20T08:03:10.000Z</time>
      </trkpt>
      <trkpt lat="42.96577" lon="1.13993">
        <ele>669</ele>
        <time>2025-09-20T08:03:11.000Z</time>
      </trkpt>
      <trkpt lat="42.96578" lon="1.1399">
        <ele>670</ele>
        <time>2025-09-20T08:03:12.000Z</time>
      </trkpt>
      <trkpt lat="42.96579" lon="1.13988">
        <ele>670</ele>
        <time>2025-09-20T08:03:13.000Z</time>
      </trkpt>
      <trkpt lat="42.9658" lon="1.13985">
        <ele>671</ele>
        <time>2025-09-20T08:03:14.000Z</time>
      </trkpt>
      <trkpt lat="42.96582" lon="1.13983">
        <ele>671</ele>
        <time>2025-09-20T08:03:15.000Z</time>
      </trkpt>
      <trkpt lat="42.96583" lon="1.13981">
        <ele>671</ele>
        <time>2025-09-20T08:03:16.000Z</time>
      </trkpt>
      <trkpt lat="42.96584" lon="1.13979">
        <ele>672</ele>
        <time>2025-09-20T08:03:17.000Z</time>
      </trkpt>
      <trkpt lat="42.96586" lon="1.13978">
        <ele>672</ele>
        <time>2025-09-20T08:03:18.000Z</time>
      </trkpt>
      <trkpt lat="42.96587" lon="1.13976">
        <ele>673</ele>
        <time>2025-09-20T08:03:19.000Z</time>
      </trkpt>
      <trkpt lat="42.96589" lon="1.13975">
        <ele>673</ele>
        <time>2025-09-20T08:03:20.000Z</time>
      </trkpt>
      <trkpt lat="42.96591" lon="1.13973">
        <ele>674</ele>
        <time>2025-09-20T08:03:21.000Z</time>
      </trkpt>
      <trkpt lat="42.96592" lon="1.13971">
        <ele>674</ele>
        <time>2025-09-20T08:03:22.000Z</time>
      </trkpt>
      <trkpt lat="42.96595" lon="1.13969">
        <ele>674</ele>
        <time>2025-09-20T08:03:23.000Z</time>
      </trkpt>
      <trkpt lat="42.96596" lon="1.13967">
        <ele>675</ele>
        <time>2025-09-20T08:03:24.000Z</time>
      </trkpt>
      <trkpt lat="42.96598" lon="1.13966">
        <ele>675</ele>
        <time>2025-09-20T08:03:25.000Z</time>
      </trkpt>
      <trkpt lat="42.966" lon="1.13963">
        <ele>675</ele>
        <time>2025-09-20T08:03:26.000Z</time>
      </trkpt>
      <trkpt lat="42.96601" lon="1.1396">
        <ele>676</ele>
        <time>2025-09-20T08:03:27.000Z</time>
      </trkpt>
      <trkpt lat="42.96602" lon="1.13958">
        <ele>676</ele>
        <time>2025-09-20T08:03:28.000Z</time>
      </trkpt>
      <trkpt lat="42.96603" lon="1.13955">
        <ele>676</ele>
        <time>2025-09-20T08:03:29.000Z</time>
      </trkpt>
      <trkpt lat="42.96604" lon="1.13952">
        <ele>676</ele>
        <time>2025-09-20T08:03:30.000Z</time>
      </trkpt>
      <trkpt lat="42.96605" lon="1.1395">
        <ele>676</ele>
        <time>2025-09-20T08:03:31.000Z</time>
      </trkpt>
      <trkpt lat="42.96605" lon="1.13947">
        <ele>676</ele>
        <time>2025-09-20T08:03:32.000Z</time>
      </trkpt>
      <trkpt lat="42.96605" lon="1.13944">
        <ele>676</ele>
        <time>2025-09-20T08:03:33.000Z</time>
      </trkpt>
      <trkpt lat="42.96604" lon="1.13942">
        <ele>677</ele>
        <time>2025-09-20T08:03:34.000Z</time>
      </trkpt>
      <trkpt lat="42.96602" lon="1.13942">
        <ele>677</ele>
        <time>2025-09-20T08:03:35.000Z</time>
      </trkpt>
      <trkpt lat="42.966" lon="1.13944">
        <ele>678</ele>
        <time>2025-09-20T08:03:36.000Z</time>
      </trkpt>
      <trkpt lat="42.96597" lon="1.13945">
        <ele>678</ele>
        <time>2025-09-20T08:03:37.000Z</time>
      </trkpt>
      <trkpt lat="42.96595" lon="1.13946">
        <ele>678</ele>
        <time>2025-09-20T08:03:38.000Z</time>
      </trkpt>
      <trkpt lat="42.96593" lon="1.13947">
        <ele>678</ele>
        <time>2025-09-20T08:03:39.000Z</time>
      </trkpt>
      <trkpt lat="42.96591" lon="1.13948">
        <ele>679</ele>
        <time>2025-09-20T08:03:40.000Z</time>
      </trkpt>
      <trkpt lat="42.96588" lon="1.13949">
        <ele>679</ele>
        <time>2025-09-20T08:03:41.000Z</time>
      </trkpt>
      <trkpt lat="42.96586" lon="1.1395">
        <ele>679</ele>
        <time>2025-09-20T08:03:42.000Z</time>
      </trkpt>
      <trkpt lat="42.96583" lon="1.1395">
        <ele>679</ele>
        <time>2025-09-20T08:03:43.000Z</time>
      </trkpt>
      <trkpt lat="42.96581" lon="1.1395">
        <ele>679</ele>
        <time>2025-09-20T08:03:44.000Z</time>
      </trkpt>
      <trkpt lat="42.96578" lon="1.1395">
        <ele>679</ele>
        <time>2025-09-20T08:03:45.000Z</time>
      </trkpt>
      <trkpt lat="42.96576" lon="1.13949">
        <ele>679</ele>
        <time>2025-09-20T08:03:46.000Z</time>
      </trkpt>
      <trkpt lat="42.96573" lon="1.13948">
        <ele>679</ele>
        <time>2025-09-20T08:03:47.000Z</time>
      </trkpt>
      <trkpt lat="42.96571" lon="1.13947">
        <ele>679</ele>
        <time>2025-09-20T08:03:48.000Z</time>
      </trkpt>
      <trkpt lat="42.96568" lon="1.13947">
        <ele>679</ele>
        <time>2025-09-20T08:03:49.000Z</time>
      </trkpt>
      <trkpt lat="42.96565" lon="1.13947">
        <ele>679</ele>
        <time>2025-09-20T08:03:50.000Z</time>
      </trkpt>
      <trkpt lat="42.96563" lon="1.13946">
        <ele>679</ele>
        <time>2025-09-20T08:03:51.000Z</time>
      </trkpt>
      <trkpt lat="42.9656" lon="1.13946">
        <ele>679</ele>
        <time>2025-09-20T08:03:52.000Z</time>
      </trkpt>
      <trkpt lat="42.96559" lon="1.13946">
        <ele>679</ele>
        <time>2025-09-20T08:03:53.000Z</time>
      </trkpt>
      <trkpt lat="42.96558" lon="1.13946">
        <ele>679</ele>
        <time>2025-09-20T08:03:54.000Z</time>
      </trkpt>
      <trkpt lat="42.96556" lon="1.13945">
        <ele>679</ele>
        <time>2025-09-20T08:03:55.000Z</time>
      </trkpt>
      <trkpt lat="42.96553" lon="1.13945">
        <ele>679</ele>
        <time>2025-09-20T08:03:56.000Z</time>
      </trkpt>
      <trkpt lat="42.96551" lon="1.13945">
        <ele>679</ele>
        <time>2025-09-20T08:03:57.000Z</time>
      </trkpt>
      <trkpt lat="42.96548" lon="1.13945">
        <ele>679</ele>
        <time>2025-09-20T08:03:58.000Z</time>
      </trkpt>
      <trkpt lat="42.96545" lon="1.13946">
        <ele>679</ele>
        <time>2025-09-20T08:03:59.000Z</time>
      </trkpt>
      <trkpt lat="42.96542" lon="1.13947">
        <ele>680</ele>
        <time>2025-09-20T08:04:00.000Z</time>
      </trkpt>
      <trkpt lat="42.9654" lon="1.13948">
        <ele>680</ele>
        <time>2025-09-20T08:04:01.000Z</time>
      </trkpt>
      <trkpt lat="42.96537" lon="1.13948">
        <ele>681</ele>
        <time>2025-09-20T08:04:02.000Z</time>
      </trkpt>
      <trkpt lat="42.96533" lon="1.13948">
        <ele>681</ele>
        <time>2025-09-20T08:04:03.000Z</time>
      </trkpt>
      <trkpt lat="42.9653" lon="1.13947">
        <ele>682</ele>
        <time>2025-09-20T08:04:04.000Z</time>
      </trkpt>
      <trkpt lat="42.96528" lon="1.13946">
        <ele>682</ele>
        <time>2025-09-20T08:04:05.000Z</time>
      </trkpt>
      <trkpt lat="42.96526" lon="1.13945">
        <ele>683</ele>
        <time>2025-09-20T08:04:06.000Z</time>
      </trkpt>
      <trkpt lat="42.96524" lon="1.13944">
        <ele>683</ele>
        <time>2025-09-20T08:04:07.000Z</time>
      </trkpt>
      <trkpt lat="42.96522" lon="1.13942">
        <ele>683</ele>
        <time>2025-09-20T08:04:08.000Z</time>
      </trkpt>
      <trkpt lat="42.9652" lon="1.13941">
        <ele>683</ele>
        <time>2025-09-20T08:04:09.000Z</time>
      </trkpt>
      <trkpt lat="42.96518" lon="1.13939">
        <ele>684</ele>
        <time>2025-09-20T08:04:10.000Z</time>
      </trkpt>
      <trkpt lat="42.96516" lon="1.13937">
        <ele>684</ele>
        <time>2025-09-20T08:04:11.000Z</time>
      </trkpt>
      <trkpt lat="42.96515" lon="1.13935">
        <ele>685</ele>
        <time>2025-09-20T08:04:12.000Z</time>
      </trkpt>
      <trkpt lat="42.96513" lon="1.13933">
        <ele>685</ele>
        <time>2025-09-20T08:04:13.000Z</time>
      </trkpt>
      <trkpt lat="42.96512" lon="1.1393">
        <ele>685</ele>
        <time>2025-09-20T08:04:14.000Z</time>
      </trkpt>
      <trkpt lat="42.9651" lon="1.13927">
        <ele>686</ele>
        <time>2025-09-20T08:04:15.000Z</time>
      </trkpt>
      <trkpt lat="42.96509" lon="1.13923">
        <ele>686</ele>
        <time>2025-09-20T08:04:16.000Z</time>
      </trkpt>
      <trkpt lat="42.96508" lon="1.13921">
        <ele>686</ele>
        <time>2025-09-20T08:04:17.000Z</time>
      </trkpt>
      <trkpt lat="42.96506" lon="1.13918">
        <ele>686</ele>
        <time>2025-09-20T08:04:18.000Z</time>
      </trkpt>
      <trkpt lat="42.96505" lon="1.13916">
        <ele>687</ele>
        <time>2025-09-20T08:04:19.000Z</time>
      </trkpt>
      <trkpt lat="42.96504" lon="1.13913">
        <ele>687</ele>
        <time>2025-09-20T08:04:20.000Z</time>
      </trkpt>
      <trkpt lat="42.96503" lon="1.1391">
        <ele>687</ele>
        <time>2025-09-20T08:04:21.000Z</time>
      </trkpt>
      <trkpt lat="42.96501" lon="1.13907">
        <ele>688</ele>
        <time>2025-09-20T08:04:22.000Z</time>
      </trkpt>
      <trkpt lat="42.965" lon="1.13904">
        <ele>687</ele>
        <time>2025-09-20T08:04:23.000Z</time>
      </trkpt>
      <trkpt lat="42.96499" lon="1.13902">
        <ele>688</ele>
        <time>2025-09-20T08:04:24.000Z</time>
      </trkpt>
      <trkpt lat="42.96498" lon="1.13899">
        <ele>687</ele>
        <time>2025-09-20T08:04:25.000Z</time>
      </trkpt>
      <trkpt lat="42.96497" lon="1.13897">
        <ele>687</ele>
        <time>2025-09-20T08:04:26.000Z</time>
      </trkpt>
      <trkpt lat="42.96495" lon="1.13894">
        <ele>687</ele>
        <time>2025-09-20T08:04:27.000Z</time>
      </trkpt>
      <trkpt lat="42.96494" lon="1.13892">
        <ele>687</ele>
        <time>2025-09-20T08:04:28.000Z</time>
      </trkpt>
      <trkpt lat="42.96492" lon="1.1389">
        <ele>687</ele>
        <time>2025-09-20T08:04:29.000Z</time>
      </trkpt>
      <trkpt lat="42.96491" lon="1.13888">
        <ele>687</ele>
        <time>2025-09-20T08:04:30.000Z</time>
      </trkpt>
      <trkpt lat="42.96489" lon="1.13885">
        <ele>688</ele>
        <time>2025-09-20T08:04:31.000Z</time>
      </trkpt>
      <trkpt lat="42.96486" lon="1.13884">
        <ele>688</ele>
        <time>2025-09-20T08:04:32.000Z</time>
      </trkpt>
      <trkpt lat="42.96484" lon="1.13882">
        <ele>688</ele>
        <time>2025-09-20T08:04:33.000Z</time>
      </trkpt>
      <trkpt lat="42.96482" lon="1.13881">
        <ele>689</ele>
        <time>2025-09-20T08:04:34.000Z</time>
      </trkpt>
      <trkpt lat="42.9648" lon="1.13881">
        <ele>689</ele>
        <time>2025-09-20T08:04:35.000Z</time>
      </trkpt>
      <trkpt lat="42.96479" lon="1.1388">
        <ele>689</ele>
        <time>2025-09-20T08:04:36.000Z</time>
      </trkpt>
      <trkpt lat="42.96476" lon="1.13878">
        <ele>690</ele>
        <time>2025-09-20T08:04:37.000Z</time>
      </trkpt>
      <trkpt lat="42.96474" lon="1.13878">
        <ele>690</ele>
        <time>2025-09-20T08:04:38.000Z</time>
      </trkpt>
      <trkpt lat="42.96471" lon="1.13877">
        <ele>690</ele>
        <time>2025-09-20T08:04:39.000Z</time>
      </trkpt>
      <trkpt lat="42.96469" lon="1.13877">
        <ele>690</ele>
        <time>2025-09-20T08:04:40.000Z</time>
      </trkpt>
      <trkpt lat="42.96467" lon="1.13876">
        <ele>690</ele>
        <time>2025-09-20T08:04:41.000Z</time>
      </trkpt>
      <trkpt lat="42.96464" lon="1.13876">
        <ele>691</ele>
        <time>2025-09-20T08:04:42.000Z</time>
      </trkpt>
      <trkpt lat="42.96461" lon="1.13876">
        <ele>691</ele>
        <time>2025-09-20T08:04:43.000Z</time>
      </trkpt>
      <trkpt lat="42.96459" lon="1.13876">
        <ele>691</ele>
        <time>2025-09-20T08:04:44.000Z</time>
      </trkpt>
      <trkpt lat="42.96457" lon="1.13875">
        <ele>691</ele>
        <time>2025-09-20T08:04:45.000Z</time>
      </trkpt>
      <trkpt lat="42.96455" lon="1.13877">
        <ele>691</ele>
        <time>2025-09-20T08:04:46.000Z</time>
      </trkpt>
      <trkpt lat="42.96453" lon="1.13878">
        <ele>692</ele>
        <time>2025-09-20T08:04:47.000Z</time>
      </trkpt>
      <trkpt lat="42.96452" lon="1.13879">
        <ele>692</ele>
        <time>2025-09-20T08:04:48.000Z</time>
      </trkpt>
      <trkpt lat="42.96449" lon="1.13878">
        <ele>692</ele>
        <time>2025-09-20T08:04:49.000Z</time>
      </trkpt>
      <trkpt lat="42.96448" lon="1.13876">
        <ele>692</ele>
        <time>2025-09-20T08:04:50.000Z</time>
      </trkpt>
      <trkpt lat="42.9645" lon="1.13874">
        <ele>691</ele>
        <time>2025-09-20T08:04:51.000Z</time>
      </trkpt>
      <trkpt lat="42.96452" lon="1.13873">
        <ele>691</ele>
        <time>2025-09-20T08:04:52.000Z</time>
      </trkpt>
      <trkpt lat="42.96455" lon="1.13873">
        <ele>690</ele>
        <time>2025-09-20T08:04:53.000Z</time>
      </trkpt>
      <trkpt lat="42.96457" lon="1.13872">
        <ele>691</ele>
        <time>2025-09-20T08:04:54.000Z</time>
      </trkpt>
      <trkpt lat="42.9646" lon="1.13871">
        <ele>691</ele>
        <time>2025-09-20T08:04:55.000Z</time>
      </trkpt>
      <trkpt lat="42.96462" lon="1.1387">
        <ele>691</ele>
        <time>2025-09-20T08:04:56.000Z</time>
      </trkpt>
      <trkpt lat="42.96464" lon="1.13869">
        <ele>691</ele>
        <time>2025-09-20T08:04:57.000Z</time>
      </trkpt>
      <trkpt lat="42.96467" lon="1.13868">
        <ele>691</ele>
        <time>2025-09-20T08:04:58.000Z</time>
      </trkpt>
      <trkpt lat="42.9647" lon="1.13868">
        <ele>691</ele>
        <time>2025-09-20T08:04:59.000Z</time>
      </trkpt>
      <trkpt lat="42.96473" lon="1.13868">
        <ele>691</ele>
        <time>2025-09-20T08:05:00.000Z</time>
      </trkpt>
      <trkpt lat="42.96475" lon="1.13867">
        <ele>692</ele>
        <time>2025-09-20T08:05:01.000Z</time>
      </trkpt>
      <trkpt lat="42.96477" lon="1.13866">
        <ele>693</ele>
        <time>2025-09-20T08:05:02.000Z</time>
      </trkpt>
      <trkpt lat="42.96479" lon="1.13865">
        <ele>694</ele>
        <time>2025-09-20T08:05:03.000Z</time>
      </trkpt>
      <trkpt lat="42.96481" lon="1.13865">
        <ele>694</ele>
        <time>2025-09-20T08:05:04.000Z</time>
      </trkpt>
      <trkpt lat="42.96483" lon="1.13863">
        <ele>695</ele>
        <time>2025-09-20T08:05:05.000Z</time>
      </trkpt>
      <trkpt lat="42.96486" lon="1.13861">
        <ele>695</ele>
        <time>2025-09-20T08:05:06.000Z</time>
      </trkpt>
      <trkpt lat="42.96488" lon="1.13859">
        <ele>696</ele>
        <time>2025-09-20T08:05:07.000Z</time>
      </trkpt>
      <trkpt lat="42.9649" lon="1.13857">
        <ele>696</ele>
        <time>2025-09-20T08:05:08.000Z</time>
      </trkpt>
      <trkpt lat="42.96493" lon="1.13856">
        <ele>697</ele>
        <time>2025-09-20T08:05:09.000Z</time>
      </trkpt>
      <trkpt lat="42.96495" lon="1.13856">
        <ele>698</ele>
        <time>2025-09-20T08:05:10.000Z</time>
      </trkpt>
      <trkpt lat="42.96497" lon="1.13855">
        <ele>698</ele>
        <time>2025-09-20T08:05:11.000Z</time>
      </trkpt>
      <trkpt lat="42.96499" lon="1.13855">
        <ele>699</ele>
        <time>2025-09-20T08:05:12.000Z</time>
      </trkpt>
      <trkpt lat="42.96501" lon="1.13856">
        <ele>699</ele>
        <time>2025-09-20T08:05:13.000Z</time>
      </trkpt>
      <trkpt lat="42.96502" lon="1.13857">
        <ele>700</ele>
        <time>2025-09-20T08:05:14.000Z</time>
      </trkpt>
      <trkpt lat="42.96504" lon="1.13859">
        <ele>700</ele>
        <time>2025-09-20T08:05:15.000Z</time>
      </trkpt>
      <trkpt lat="42.96506" lon="1.1386">
        <ele>700</ele>
        <time>2025-09-20T08:05:16.000Z</time>
      </trkpt>
      <trkpt lat="42.96509" lon="1.13861">
        <ele>700</ele>
        <time>2025-09-20T08:05:17.000Z</time>
      </trkpt>
      <trkpt lat="42.96511" lon="1.13862">
        <ele>699</ele>
        <time>2025-09-20T08:05:18.000Z</time>
      </trkpt>
      <trkpt lat="42.96514" lon="1.13864">
        <ele>699</ele>
        <time>2025-09-20T08:05:19.000Z</time>
      </trkpt>
      <trkpt lat="42.96517" lon="1.13867">
        <ele>699</ele>
        <time>2025-09-20T08:05:20.000Z</time>
      </trkpt>
      <trkpt lat="42.9652" lon="1.13869">
        <ele>700</ele>
        <time>2025-09-20T08:05:21.000Z</time>
      </trkpt>
      <trkpt lat="42.96522" lon="1.13871">
        <ele>700</ele>
        <time>2025-09-20T08:05:22.000Z</time>
      </trkpt>
      <trkpt lat="42.96525" lon="1.13873">
        <ele>701</ele>
        <time>2025-09-20T08:05:23.000Z</time>
      </trkpt>
      <trkpt lat="42.96529" lon="1.13874">
        <ele>701</ele>
        <time>2025-09-20T08:05:24.000Z</time>
      </trkpt>
      <trkpt lat="42.96532" lon="1.13874">
        <ele>701</ele>
        <time>2025-09-20T08:05:25.000Z</time>
      </trkpt>
      <trkpt lat="42.96536" lon="1.13873">
        <ele>701</ele>
        <time>2025-09-20T08:05:26.000Z</time>
      </trkpt>
      <trkpt lat="42.96539" lon="1.13873">
        <ele>701</ele>
        <time>2025-09-20T08:05:27.000Z</time>
      </trkpt>
      <trkpt lat="42.96542" lon="1.13871">
        <ele>701</ele>
        <time>2025-09-20T08:05:28.000Z</time>
      </trkpt>
      <trkpt lat="42.96545" lon="1.13871">
        <ele>701</ele>
        <time>2025-09-20T08:05:29.000Z</time>
      </trkpt>
      <trkpt lat="42.96547" lon="1.13869">
        <ele>701</ele>
        <time>2025-09-20T08:05:30.000Z</time>
      </trkpt>
      <trkpt lat="42.96548" lon="1.13867">
        <ele>701</ele>
        <time>2025-09-20T08:05:31.000Z</time>
      </trkpt>
      <trkpt lat="42.9655" lon="1.13865">
        <ele>702</ele>
        <time>2025-09-20T08:05:32.000Z</time>
      </trkpt>
      <trkpt lat="42.96553" lon="1.13863">
        <ele>702</ele>
        <time>2025-09-20T08:05:33.000Z</time>
      </trkpt>
      <trkpt lat="42.96555" lon="1.13861">
        <ele>702</ele>
        <time>2025-09-20T08:05:34.000Z</time>
      </trkpt>
      <trkpt lat="42.96556" lon="1.13857">
        <ele>702</ele>
        <time>2025-09-20T08:05:35.000Z</time>
      </trkpt>
      <trkpt lat="42.96558" lon="1.13854">
        <ele>702</ele>
        <time>2025-09-20T08:05:36.000Z</time>
      </trkpt>
      <trkpt lat="42.96559" lon="1.13851">
        <ele>703</ele>
        <time>2025-09-20T08:05:37.000Z</time>
      </trkpt>
      <trkpt lat="42.9656" lon="1.13848">
        <ele>703</ele>
        <time>2025-09-20T08:05:38.000Z</time>
      </trkpt>
      <trkpt lat="42.96562" lon="1.13845">
        <ele>703</ele>
        <time>2025-09-20T08:05:39.000Z</time>
      </trkpt>
      <trkpt lat="42.96563" lon="1.13841">
        <ele>704</ele>
        <time>2025-09-20T08:05:40.000Z</time>
      </trkpt>
      <trkpt lat="42.96564" lon="1.13839">
        <ele>704</ele>
        <time>2025-09-20T08:05:41.000Z</time>
      </trkpt>
      <trkpt lat="42.96565" lon="1.13836">
        <ele>704</ele>
        <time>2025-09-20T08:05:42.000Z</time>
      </trkpt>
      <trkpt lat="42.96567" lon="1.13832">
        <ele>704</ele>
        <time>2025-09-20T08:05:43.000Z</time>
      </trkpt>
      <trkpt lat="42.96568" lon="1.13829">
        <ele>704</ele>
        <time>2025-09-20T08:05:44.000Z</time>
      </trkpt>
      <trkpt lat="42.9657" lon="1.13825">
        <ele>704</ele>
        <time>2025-09-20T08:05:45.000Z</time>
      </trkpt>
      <trkpt lat="42.96571" lon="1.13821">
        <ele>704</ele>
        <time>2025-09-20T08:05:46.000Z</time>
      </trkpt>
      <trkpt lat="42.96571" lon="1.13818">
        <ele>704</ele>
        <time>2025-09-20T08:05:47.000Z</time>
      </trkpt>
      <trkpt lat="42.96572" lon="1.13814">
        <ele>704</ele>
        <time>2025-09-20T08:05:48.000Z</time>
      </trkpt>
      <trkpt lat="42.96573" lon="1.1381">
        <ele>704</ele>
        <time>2025-09-20T08:05:49.000Z</time>
      </trkpt>
      <trkpt lat="42.96574" lon="1.13806">
        <ele>704</ele>
        <time>2025-09-20T08:05:50.000Z</time>
      </trkpt>
      <trkpt lat="42.96575" lon="1.13802">
        <ele>704</ele>
        <time>2025-09-20T08:05:51.000Z</time>
      </trkpt>
      <trkpt lat="42.96575" lon="1.13798">
        <ele>704</ele>
        <time>2025-09-20T08:05:52.000Z</time>
      </trkpt>
      <trkpt lat="42.96576" lon="1.13795">
        <ele>704</ele>
        <time>2025-09-20T08:05:53.000Z</time>
      </trkpt>
      <trkpt lat="42.96576" lon="1.13791">
        <ele>704</ele>
        <time>2025-09-20T08:05:54.000Z</time>
      </trkpt>
      <trkpt lat="42.96576" lon="1.13787">
        <ele>704</ele>
        <time>2025-09-20T08:05:55.000Z</time>
      </trkpt>
      <trkpt lat="42.96577" lon="1.13784">
        <ele>704</ele>
        <time>2025-09-20T08:05:56.000Z</time>
      </trkpt>
      <trkpt lat="42.96577" lon="1.1378">
        <ele>705</ele>
        <time>2025-09-20T08:05:57.000Z</time>
      </trkpt>
      <trkpt lat="42.96577" lon="1.13776">
        <ele>705</ele>
        <time>2025-09-20T08:05:58.000Z</time>
      </trkpt>
      <trkpt lat="42.96577" lon="1.13773">
        <ele>705</ele>
        <time>2025-09-20T08:05:59.000Z</time>
      </trkpt>
      <trkpt lat="42.96577" lon="1.13769">
        <ele>706</ele>
        <time>2025-09-20T08:06:00.000Z</time>
      </trkpt>
      <trkpt lat="42.96577" lon="1.13766">
        <ele>707</ele>
        <time>2025-09-20T08:06:01.000Z</time>
      </trkpt>
      <trkpt lat="42.96575" lon="1.13763">
        <ele>708</ele>
        <time>2025-09-20T08:06:02.000Z</time>
      </trkpt>
      <trkpt lat="42.96573" lon="1.13761">
        <ele>708</ele>
        <time>2025-09-20T08:06:03.000Z</time>
      </trkpt>
      <trkpt lat="42.96571" lon="1.13759">
        <ele>710</ele>
        <time>2025-09-20T08:06:04.000Z</time>
      </trkpt>
      <trkpt lat="42.96568" lon="1.13758">
        <ele>711</ele>
        <time>2025-09-20T08:06:05.000Z</time>
      </trkpt>
      <trkpt lat="42.96566" lon="1.13757">
        <ele>712</ele>
        <time>2025-09-20T08:06:06.000Z</time>
      </trkpt>
      <trkpt lat="42.96564" lon="1.13755">
        <ele>712</ele>
        <time>2025-09-20T08:06:07.000Z</time>
      </trkpt>
      <trkpt lat="42.96561" lon="1.13755">
        <ele>712</ele>
        <time>2025-09-20T08:06:08.000Z</time>
      </trkpt>
      <trkpt lat="42.96558" lon="1.13755">
        <ele>712</ele>
        <time>2025-09-20T08:06:09.000Z</time>
      </trkpt>
      <trkpt lat="42.96556" lon="1.13753">
        <ele>713</ele>
        <time>2025-09-20T08:06:10.000Z</time>
      </trkpt>
      <trkpt lat="42.96554" lon="1.13751">
        <ele>714</ele>
        <time>2025-09-20T08:06:11.000Z</time>
      </trkpt>
      <trkpt lat="42.96552" lon="1.13749">
        <ele>714</ele>
        <time>2025-09-20T08:06:12.000Z</time>
      </trkpt>
      <trkpt lat="42.96551" lon="1.13748">
        <ele>715</ele>
        <time>2025-09-20T08:06:13.000Z</time>
      </trkpt>
      <trkpt lat="42.96548" lon="1.13746">
        <ele>715</ele>
        <time>2025-09-20T08:06:14.000Z</time>
      </trkpt>
      <trkpt lat="42.96547" lon="1.13744">
        <ele>716</ele>
        <time>2025-09-20T08:06:15.000Z</time>
      </trkpt>
      <trkpt lat="42.96545" lon="1.13742">
        <ele>716</ele>
        <time>2025-09-20T08:06:16.000Z</time>
      </trkpt>
      <trkpt lat="42.96543" lon="1.1374">
        <ele>716</ele>
        <time>2025-09-20T08:06:17.000Z</time>
      </trkpt>
      <trkpt lat="42.96541" lon="1.13739">
        <ele>717</ele>
        <time>2025-09-20T08:06:18.000Z</time>
      </trkpt>
      <trkpt lat="42.96539" lon="1.13737">
        <ele>718</ele>
        <time>2025-09-20T08:06:19.000Z</time>
      </trkpt>
      <trkpt lat="42.96537" lon="1.13735">
        <ele>718</ele>
        <time>2025-09-20T08:06:20.000Z</time>
      </trkpt>
      <trkpt lat="42.96534" lon="1.13732">
        <ele>719</ele>
        <time>2025-09-20T08:06:21.000Z</time>
      </trkpt>
      <trkpt lat="42.96533" lon="1.1373">
        <ele>719</ele>
        <time>2025-09-20T08:06:22.000Z</time>
      </trkpt>
      <trkpt lat="42.96531" lon="1.13727">
        <ele>720</ele>
        <time>2025-09-20T08:06:23.000Z</time>
      </trkpt>
      <trkpt lat="42.96529" lon="1.13725">
        <ele>720</ele>
        <time>2025-09-20T08:06:24.000Z</time>
      </trkpt>
      <trkpt lat="42.96527" lon="1.13723">
        <ele>720</ele>
        <time>2025-09-20T08:06:25.000Z</time>
      </trkpt>
      <trkpt lat="42.96525" lon="1.13721">
        <ele>720</ele>
        <time>2025-09-20T08:06:26.000Z</time>
      </trkpt>
      <trkpt lat="42.96523" lon="1.1372">
        <ele>721</ele>
        <time>2025-09-20T08:06:27.000Z</time>
      </trkpt>
      <trkpt lat="42.96521" lon="1.13718">
        <ele>722</ele>
        <time>2025-09-20T08:06:28.000Z</time>
      </trkpt>
      <trkpt lat="42.96519" lon="1.13716">
        <ele>722</ele>
        <time>2025-09-20T08:06:29.000Z</time>
      </trkpt>
      <trkpt lat="42.96518" lon="1.13715">
        <ele>723</ele>
        <time>2025-09-20T08:06:30.000Z</time>
      </trkpt>
      <trkpt lat="42.96516" lon="1.13714">
        <ele>723</ele>
        <time>2025-09-20T08:06:31.000Z</time>
      </trkpt>
      <trkpt lat="42.96514" lon="1.13713">
        <ele>722</ele>
        <time>2025-09-20T08:06:32.000Z</time>
      </trkpt>
      <trkpt lat="42.96511" lon="1.13711">
        <ele>722</ele>
        <time>2025-09-20T08:06:33.000Z</time>
      </trkpt>
      <trkpt lat="42.96508" lon="1.1371">
        <ele>722</ele>
        <time>2025-09-20T08:06:34.000Z</time>
      </trkpt>
      <trkpt lat="42.96506" lon="1.13708">
        <ele>722</ele>
        <time>2025-09-20T08:06:35.000Z</time>
      </trkpt>
      <trkpt lat="42.96505" lon="1.13707">
        <ele>722</ele>
        <time>2025-09-20T08:06:36.000Z</time>
      </trkpt>
      <trkpt lat="42.96502" lon="1.13705">
        <ele>723</ele>
        <time>2025-09-20T08:06:37.000Z</time>
      </trkpt>
      <trkpt lat="42.965" lon="1.13704">
        <ele>723</ele>
        <time>2025-09-20T08:06:38.000Z</time>
      </trkpt>
      <trkpt lat="42.96498" lon="1.13703">
        <ele>723</ele>
        <time>2025-09-20T08:06:39.000Z</time>
      </trkpt>
      <trkpt lat="42.96496" lon="1.13702">
        <ele>723</ele>
        <time>2025-09-20T08:06:40.000Z</time>
      </trkpt>
      <trkpt lat="42.96493" lon="1.13702">
        <ele>724</ele>
        <time>2025-09-20T08:06:41.000Z</time>
      </trkpt>
      <trkpt lat="42.96491" lon="1.13702">
        <ele>724</ele>
        <time>2025-09-20T08:06:42.000Z</time>
      </trkpt>
      <trkpt lat="42.96488" lon="1.13702">
        <ele>724</ele>
        <time>2025-09-20T08:06:43.000Z</time>
      </trkpt>
      <trkpt lat="42.96486" lon="1.13701">
        <ele>725</ele>
        <time>2025-09-20T08:06:44.000Z</time>
      </trkpt>
      <trkpt lat="42.96484" lon="1.137">
        <ele>725</ele>
        <time>2025-09-20T08:06:45.000Z</time>
      </trkpt>
      <trkpt lat="42.9648" lon="1.137">
        <ele>725</ele>
        <time>2025-09-20T08:06:46.000Z</time>
      </trkpt>
      <trkpt lat="42.96477" lon="1.13701">
        <ele>725</ele>
        <time>2025-09-20T08:06:47.000Z</time>
      </trkpt>
      <trkpt lat="42.96475" lon="1.13701">
        <ele>725</ele>
        <time>2025-09-20T08:06:48.000Z</time>
      </trkpt>
      <trkpt lat="42.96472" lon="1.13701">
        <ele>725</ele>
        <time>2025-09-20T08:06:49.000Z</time>
      </trkpt>
      <trkpt lat="42.9647" lon="1.13702">
        <ele>726</ele>
        <time>2025-09-20T08:06:50.000Z</time>
      </trkpt>
      <trkpt lat="42.96468" lon="1.13702">
        <ele>726</ele>
        <time>2025-09-20T08:06:51.000Z</time>
      </trkpt>
      <trkpt lat="42.96466" lon="1.13703">
        <ele>727</ele>
        <time>2025-09-20T08:06:52.000Z</time>
      </trkpt>
      <trkpt lat="42.96464" lon="1.13705">
        <ele>726</ele>
        <time>2025-09-20T08:06:53.000Z</time>
      </trkpt>
      <trkpt lat="42.96462" lon="1.13706">
        <ele>726</ele>
        <time>2025-09-20T08:06:54.000Z</time>
      </trkpt>
      <trkpt lat="42.9646" lon="1.13707">
        <ele>727</ele>
        <time>2025-09-20T08:06:55.000Z</time>
      </trkpt>
      <trkpt lat="42.96458" lon="1.13707">
        <ele>727</ele>
        <time>2025-09-20T08:06:56.000Z</time>
      </trkpt>
      <trkpt lat="42.96456" lon="1.13709">
        <ele>728</ele>
        <time>2025-09-20T08:06:57.000Z</time>
      </trkpt>
      <trkpt lat="42.96454" lon="1.13711">
        <ele>729</ele>
        <time>2025-09-20T08:06:58.000Z</time>
      </trkpt>
      <trkpt lat="42.96452" lon="1.13713">
        <ele>729</ele>
        <time>2025-09-20T08:06:59.000Z</time>
      </trkpt>
      <trkpt lat="42.96451" lon="1.13715">
        <ele>730</ele>
        <time>2025-09-20T08:07:00.000Z</time>
      </trkpt>
      <trkpt lat="42.96449" lon="1.13716">
        <ele>730</ele>
        <time>2025-09-20T08:07:01.000Z</time>
      </trkpt>
      <trkpt lat="42.96448" lon="1.13718">
        <ele>729</ele>
        <time>2025-09-20T08:07:02.000Z</time>
      </trkpt>
      <trkpt lat="42.96446" lon="1.1372">
        <ele>729</ele>
        <time>2025-09-20T08:07:03.000Z</time>
      </trkpt>
      <trkpt lat="42.96444" lon="1.13723">
        <ele>729</ele>
        <time>2025-09-20T08:07:04.000Z</time>
      </trkpt>
      <trkpt lat="42.96443" lon="1.13726">
        <ele>729</ele>
        <time>2025-09-20T08:07:05.000Z</time>
      </trkpt>
      <trkpt lat="42.96441" lon="1.13728">
        <ele>729</ele>
        <time>2025-09-20T08:07:06.000Z</time>
      </trkpt>
      <trkpt lat="42.96439" lon="1.13732">
        <ele>729</ele>
        <time>2025-09-20T08:07:07.000Z</time>
      </trkpt>
      <trkpt lat="42.96437" lon="1.13735">
        <ele>730</ele>
        <time>2025-09-20T08:07:08.000Z</time>
      </trkpt>
      <trkpt lat="42.96436" lon="1.13738">
        <ele>730</ele>
        <time>2025-09-20T08:07:09.000Z</time>
      </trkpt>
      <trkpt lat="42.96434" lon="1.1374">
        <ele>729</ele>
        <time>2025-09-20T08:07:10.000Z</time>
      </trkpt>
      <trkpt lat="42.96432" lon="1.13743">
        <ele>729</ele>
        <time>2025-09-20T08:07:11.000Z</time>
      </trkpt>
      <trkpt lat="42.9643" lon="1.13745">
        <ele>728</ele>
        <time>2025-09-20T08:07:12.000Z</time>
      </trkpt>
      <trkpt lat="42.96429" lon="1.13748">
        <ele>728</ele>
        <time>2025-09-20T08:07:13.000Z</time>
      </trkpt>
      <trkpt lat="42.96427" lon="1.13751">
        <ele>729</ele>
        <time>2025-09-20T08:07:14.000Z</time>
      </trkpt>
      <trkpt lat="42.96426" lon="1.13754">
        <ele>730</ele>
        <time>2025-09-20T08:07:15.000Z</time>
      </trkpt>
      <trkpt lat="42.96424" lon="1.13757">
        <ele>730</ele>
        <time>2025-09-20T08:07:16.000Z</time>
      </trkpt>
      <trkpt lat="42.96423" lon="1.1376">
        <ele>731</ele>
        <time>2025-09-20T08:07:17.000Z</time>
      </trkpt>
      <trkpt lat="42.96421" lon="1.13763">
        <ele>731</ele>
        <time>2025-09-20T08:07:18.000Z</time>
      </trkpt>
      <trkpt lat="42.96419" lon="1.13765">
        <ele>732</ele>
        <time>2025-09-20T08:07:19.000Z</time>
      </trkpt>
      <trkpt lat="42.96416" lon="1.13767">
        <ele>731</ele>
        <time>2025-09-20T08:07:20.000Z</time>
      </trkpt>
      <trkpt lat="42.96415" lon="1.13768">
        <ele>732</ele>
        <time>2025-09-20T08:07:21.000Z</time>
      </trkpt>
      <trkpt lat="42.96413" lon="1.1377">
        <ele>732</ele>
        <time>2025-09-20T08:07:22.000Z</time>
      </trkpt>
      <trkpt lat="42.9641" lon="1.13771">
        <ele>733</ele>
        <time>2025-09-20T08:07:23.000Z</time>
      </trkpt>
      <trkpt lat="42.96407" lon="1.13772">
        <ele>733</ele>
        <time>2025-09-20T08:07:24.000Z</time>
      </trkpt>
      <trkpt lat="42.96405" lon="1.13774">
        <ele>732</ele>
        <time>2025-09-20T08:07:25.000Z</time>
      </trkpt>
      <trkpt lat="42.96403" lon="1.13775">
        <ele>732</ele>
        <time>2025-09-20T08:07:26.000Z</time>
      </trkpt>
      <trkpt lat="42.964" lon="1.13775">
        <ele>732</ele>
        <time>2025-09-20T08:07:27.000Z</time>
      </trkpt>
      <trkpt lat="42.96398" lon="1.13777">
        <ele>732</ele>
        <time>2025-09-20T08:07:28.000Z</time>
      </trkpt>
      <trkpt lat="42.96395" lon="1.13778">
        <ele>731</ele>
        <time>2025-09-20T08:07:29.000Z</time>
      </trkpt>
      <trkpt lat="42.96392" lon="1.13779">
        <ele>731</ele>
        <time>2025-09-20T08:07:30.000Z</time>
      </trkpt>
      <trkpt lat="42.96391" lon="1.13782">
        <ele>732</ele>
        <time>2025-09-20T08:07:31.000Z</time>
      </trkpt>
      <trkpt lat="42.96389" lon="1.13784">
        <ele>732</ele>
        <time>2025-09-20T08:07:32.000Z</time>
      </trkpt>
      <trkpt lat="42.96387" lon="1.13787">
        <ele>731</ele>
        <time>2025-09-20T08:07:33.000Z</time>
      </trkpt>
      <trkpt lat="42.96386" lon="1.13789">
        <ele>732</ele>
        <time>2025-09-20T08:07:34.000Z</time>
      </trkpt>
      <trkpt lat="42.96384" lon="1.13792">
        <ele>733</ele>
        <time>2025-09-20T08:07:35.000Z</time>
      </trkpt>
      <trkpt lat="42.96382" lon="1.13794">
        <ele>734</ele>
        <time>2025-09-20T08:07:36.000Z</time>
      </trkpt>
      <trkpt lat="42.96381" lon="1.13797">
        <ele>735</ele>
        <time>2025-09-20T08:07:37.000Z</time>
      </trkpt>
      <trkpt lat="42.96379" lon="1.13799">
        <ele>734</ele>
        <time>2025-09-20T08:07:38.000Z</time>
      </trkpt>
      <trkpt lat="42.96378" lon="1.13802">
        <ele>735</ele>
        <time>2025-09-20T08:07:39.000Z</time>
      </trkpt>
      <trkpt lat="42.96376" lon="1.13804">
        <ele>734</ele>
        <time>2025-09-20T08:07:40.000Z</time>
      </trkpt>
      <trkpt lat="42.96374" lon="1.13805">
        <ele>735</ele>
        <time>2025-09-20T08:07:41.000Z</time>
      </trkpt>
      <trkpt lat="42.96372" lon="1.13808">
        <ele>736</ele>
        <time>2025-09-20T08:07:42.000Z</time>
      </trkpt>
      <trkpt lat="42.96369" lon="1.1381">
        <ele>737</ele>
        <time>2025-09-20T08:07:43.000Z</time>
      </trkpt>
      <trkpt lat="42.96368" lon="1.13812">
        <ele>737</ele>
        <time>2025-09-20T08:07:44.000Z</time>
      </trkpt>
      <trkpt lat="42.96365" lon="1.13815">
        <ele>737</ele>
        <time>2025-09-20T08:07:45.000Z</time>
      </trkpt>
      <trkpt lat="42.96363" lon="1.13818">
        <ele>737</ele>
        <time>2025-09-20T08:07:46.000Z</time>
      </trkpt>
      <trkpt lat="42.96361" lon="1.13821">
        <ele>737</ele>
        <time>2025-09-20T08:07:47.000Z</time>
      </trkpt>
      <trkpt lat="42.9636" lon="1.13824">
        <ele>737</ele>
        <time>2025-09-20T08:07:48.000Z</time>
      </trkpt>
      <trkpt lat="42.96358" lon="1.13826">
        <ele>738</ele>
        <time>2025-09-20T08:07:49.000Z</time>
      </trkpt>
      <trkpt lat="42.96355" lon="1.13827">
        <ele>738</ele>
        <time>2025-09-20T08:07:50.000Z</time>
      </trkpt>
      <trkpt lat="42.96354" lon="1.13829">
        <ele>739</ele>
        <time>2025-09-20T08:07:51.000Z</time>
      </trkpt>
      <trkpt lat="42.96353" lon="1.13831">
        <ele>739</ele>
        <time>2025-09-20T08:07:52.000Z</time>
      </trkpt>
      <trkpt lat="42.96351" lon="1.13833">
        <ele>740</ele>
        <time>2025-09-20T08:07:53.000Z</time>
      </trkpt>
      <trkpt lat="42.9635" lon="1.13835">
        <ele>740</ele>
        <time>2025-09-20T08:07:54.000Z</time>
      </trkpt>
      <trkpt lat="42.96348" lon="1.13838">
        <ele>740</ele>
        <time>2025-09-20T08:07:55.000Z</time>
      </trkpt>
      <trkpt lat="42.96346" lon="1.1384">
        <ele>740</ele>
        <time>2025-09-20T08:07:56.000Z</time>
      </trkpt>
      <trkpt lat="42.96345" lon="1.13842">
        <ele>740</ele>
        <time>2025-09-20T08:07:57.000Z</time>
      </trkpt>
      <trkpt lat="42.96343" lon="1.13843">
        <ele>740</ele>
        <time>2025-09-20T08:07:58.000Z</time>
      </trkpt>
      <trkpt lat="42.96341" lon="1.13843">
        <ele>740</ele>
        <time>2025-09-20T08:07:59.000Z</time>
      </trkpt>
      <trkpt lat="42.96339" lon="1.13844">
        <ele>740</ele>
        <time>2025-09-20T08:08:00.000Z</time>
      </trkpt>
      <trkpt lat="42.96336" lon="1.13845">
        <ele>740</ele>
        <time>2025-09-20T08:08:01.000Z</time>
      </trkpt>
      <trkpt lat="42.96333" lon="1.13844">
        <ele>739</ele>
        <time>2025-09-20T08:08:02.000Z</time>
      </trkpt>
      <trkpt lat="42.96331" lon="1.13844">
        <ele>740</ele>
        <time>2025-09-20T08:08:03.000Z</time>
      </trkpt>
      <trkpt lat="42.96329" lon="1.13843">
        <ele>740</ele>
        <time>2025-09-20T08:08:04.000Z</time>
      </trkpt>
      <trkpt lat="42.96328" lon="1.13844">
        <ele>740</ele>
        <time>2025-09-20T08:08:05.000Z</time>
      </trkpt>
      <trkpt lat="42.96326" lon="1.13844">
        <ele>741</ele>
        <time>2025-09-20T08:08:06.000Z</time>
      </trkpt>
      <trkpt lat="42.96324" lon="1.13844">
        <ele>742</ele>
        <time>2025-09-20T08:08:07.000Z</time>
      </trkpt>
      <trkpt lat="42.96321" lon="1.13844">
        <ele>743</ele>
        <time>2025-09-20T08:08:08.000Z</time>
      </trkpt>
      <trkpt lat="42.96319" lon="1.13843">
        <ele>742</ele>
        <time>2025-09-20T08:08:09.000Z</time>
      </trkpt>
      <trkpt lat="42.96316" lon="1.13841">
        <ele>742</ele>
        <time>2025-09-20T08:08:10.000Z</time>
      </trkpt>
      <trkpt lat="42.96314" lon="1.13839">
        <ele>744</ele>
        <time>2025-09-20T08:08:11.000Z</time>
      </trkpt>
      <trkpt lat="42.96312" lon="1.13836">
        <ele>744</ele>
        <time>2025-09-20T08:08:12.000Z</time>
      </trkpt>
      <trkpt lat="42.9631" lon="1.13834">
        <ele>745</ele>
        <time>2025-09-20T08:08:13.000Z</time>
      </trkpt>
      <trkpt lat="42.96309" lon="1.13832">
        <ele>745</ele>
        <time>2025-09-20T08:08:14.000Z</time>
      </trkpt>
      <trkpt lat="42.96307" lon="1.13829">
        <ele>746</ele>
        <time>2025-09-20T08:08:15.000Z</time>
      </trkpt>
      <trkpt lat="42.96305" lon="1.13827">
        <ele>746</ele>
        <time>2025-09-20T08:08:16.000Z</time>
      </trkpt>
      <trkpt lat="42.96303" lon="1.13825">
        <ele>746</ele>
        <time>2025-09-20T08:08:17.000Z</time>
      </trkpt>
      <trkpt lat="42.96302" lon="1.13823">
        <ele>746</ele>
        <time>2025-09-20T08:08:18.000Z</time>
      </trkpt>
      <trkpt lat="42.96299" lon="1.13822">
        <ele>745</ele>
        <time>2025-09-20T08:08:19.000Z</time>
      </trkpt>
      <trkpt lat="42.96297" lon="1.13821">
        <ele>745</ele>
        <time>2025-09-20T08:08:20.000Z</time>
      </trkpt>
      <trkpt lat="42.96295" lon="1.13819">
        <ele>745</ele>
        <time>2025-09-20T08:08:21.000Z</time>
      </trkpt>
      <trkpt lat="42.96293" lon="1.13817">
        <ele>745</ele>
        <time>2025-09-20T08:08:22.000Z</time>
      </trkpt>
      <trkpt lat="42.96291" lon="1.13815">
        <ele>745</ele>
        <time>2025-09-20T08:08:23.000Z</time>
      </trkpt>
      <trkpt lat="42.96289" lon="1.13813">
        <ele>745</ele>
        <time>2025-09-20T08:08:24.000Z</time>
      </trkpt>
      <trkpt lat="42.96288" lon="1.13811">
        <ele>745</ele>
        <time>2025-09-20T08:08:25.000Z</time>
      </trkpt>
      <trkpt lat="42.96286" lon="1.1381">
        <ele>745</ele>
        <time>2025-09-20T08:08:26.000Z</time>
      </trkpt>
      <trkpt lat="42.96284" lon="1.13808">
        <ele>745</ele>
        <time>2025-09-20T08:08:27.000Z</time>
      </trkpt>
      <trkpt lat="42.96283" lon="1.13806">
        <ele>746</ele>
        <time>2025-09-20T08:08:28.000Z</time>
      </trkpt>
      <trkpt lat="42.96281" lon="1.13805">
        <ele>746</ele>
        <time>2025-09-20T08:08:29.000Z</time>
      </trkpt>
      <trkpt lat="42.9628" lon="1.13806">
        <ele>747</ele>
        <time>2025-09-20T08:08:30.000Z</time>
      </trkpt>
      <trkpt lat="42.96278" lon="1.13806">
        <ele>748</ele>
        <time>2025-09-20T08:08:31.000Z</time>
      </trkpt>
      <trkpt lat="42.96276" lon="1.13805">
        <ele>749</ele>
        <time>2025-09-20T08:08:32.000Z</time>
      </trkpt>
      <trkpt lat="42.96274" lon="1.13806">
        <ele>748</ele>
        <time>2025-09-20T08:08:33.000Z</time>
      </trkpt>
      <trkpt lat="42.96272" lon="1.13805">
        <ele>748</ele>
        <time>2025-09-20T08:08:34.000Z</time>
      </trkpt>
      <trkpt lat="42.9627" lon="1.13806">
        <ele>748</ele>
        <time>2025-09-20T08:08:35.000Z</time>
      </trkpt>
      <trkpt lat="42.96269" lon="1.13806">
        <ele>749</ele>
        <time>2025-09-20T08:08:36.000Z</time>
      </trkpt>
      <trkpt lat="42.96267" lon="1.13807">
        <ele>749</ele>
        <time>2025-09-20T08:08:37.000Z</time>
      </trkpt>
      <trkpt lat="42.96265" lon="1.13807">
        <ele>748</ele>
        <time>2025-09-20T08:08:38.000Z</time>
      </trkpt>
      <trkpt lat="42.96264" lon="1.13809">
        <ele>748</ele>
        <time>2025-09-20T08:08:39.000Z</time>
      </trkpt>
      <trkpt lat="42.96263" lon="1.1381">
        <ele>748</ele>
        <time>2025-09-20T08:08:40.000Z</time>
      </trkpt>
      <trkpt lat="42.96261" lon="1.13811">
        <ele>747</ele>
        <time>2025-09-20T08:08:41.000Z</time>
      </trkpt>
      <trkpt lat="42.9626" lon="1.13812">
        <ele>747</ele>
        <time>2025-09-20T08:08:42.000Z</time>
      </trkpt>
      <trkpt lat="42.96259" lon="1.13813">
        <ele>746</ele>
        <time>2025-09-20T08:08:43.000Z</time>
      </trkpt>
      <trkpt lat="42.96257" lon="1.13814">
        <ele>745</ele>
        <time>2025-09-20T08:08:44.000Z</time>
      </trkpt>
      <trkpt lat="42.96256" lon="1.13815">
        <ele>744</ele>
        <time>2025-09-20T08:08:45.000Z</time>
      </trkpt>
      <trkpt lat="42.96253" lon="1.13816">
        <ele>743</ele>
        <time>2025-09-20T08:08:46.000Z</time>
      </trkpt>
      <trkpt lat="42.96251" lon="1.13818">
        <ele>743</ele>
        <time>2025-09-20T08:08:47.000Z</time>
      </trkpt>
      <trkpt lat="42.96249" lon="1.1382">
        <ele>743</ele>
        <time>2025-09-20T08:08:48.000Z</time>
      </trkpt>
      <trkpt lat="42.96248" lon="1.13822">
        <ele>742</ele>
        <time>2025-09-20T08:08:49.000Z</time>
      </trkpt>
      <trkpt lat="42.96246" lon="1.13824">
        <ele>743</ele>
        <time>2025-09-20T08:08:50.000Z</time>
      </trkpt>
      <trkpt lat="42.96245" lon="1.13825">
        <ele>742</ele>
        <time>2025-09-20T08:08:51.000Z</time>
      </trkpt>
      <trkpt lat="42.96242" lon="1.13828">
        <ele>742</ele>
        <time>2025-09-20T08:08:52.000Z</time>
      </trkpt>
      <trkpt lat="42.9624" lon="1.1383">
        <ele>743</ele>
        <time>2025-09-20T08:08:53.000Z</time>
      </trkpt>
      <trkpt lat="42.96239" lon="1.1383">
        <ele>742</ele>
        <time>2025-09-20T08:08:54.000Z</time>
      </trkpt>
      <trkpt lat="42.96237" lon="1.13831">
        <ele>742</ele>
        <time>2025-09-20T08:08:55.000Z</time>
      </trkpt>
      <trkpt lat="42.96235" lon="1.13833">
        <ele>743</ele>
        <time>2025-09-20T08:08:56.000Z</time>
      </trkpt>
      <trkpt lat="42.96233" lon="1.13833">
        <ele>743</ele>
        <time>2025-09-20T08:08:57.000Z</time>
      </trkpt>
      <trkpt lat="42.96231" lon="1.13834">
        <ele>743</ele>
        <time>2025-09-20T08:08:58.000Z</time>
      </trkpt>
      <trkpt lat="42.96229" lon="1.13835">
        <ele>744</ele>
        <time>2025-09-20T08:08:59.000Z</time>
      </trkpt>
      <trkpt lat="42.96227" lon="1.13837">
        <ele>744</ele>
        <time>2025-09-20T08:09:00.000Z</time>
      </trkpt>
      <trkpt lat="42.96224" lon="1.13838">
        <ele>744</ele>
        <time>2025-09-20T08:09:01.000Z</time>
      </trkpt>
      <trkpt lat="42.96222" lon="1.1384">
        <ele>745</ele>
        <time>2025-09-20T08:09:02.000Z</time>
      </trkpt>
      <trkpt lat="42.96219" lon="1.13841">
        <ele>746</ele>
        <time>2025-09-20T08:09:03.000Z</time>
      </trkpt>
      <trkpt lat="42.96217" lon="1.13842">
        <ele>746</ele>
        <time>2025-09-20T08:09:04.000Z</time>
      </trkpt>
      <trkpt lat="42.96215" lon="1.13843">
        <ele>747</ele>
        <time>2025-09-20T08:09:05.000Z</time>
      </trkpt>
      <trkpt lat="42.96213" lon="1.13844">
        <ele>747</ele>
        <time>2025-09-20T08:09:06.000Z</time>
      </trkpt>
      <trkpt lat="42.96211" lon="1.13845">
        <ele>748</ele>
        <time>2025-09-20T08:09:07.000Z</time>
      </trkpt>
      <trkpt lat="42.96209" lon="1.13847">
        <ele>748</ele>
        <time>2025-09-20T08:09:08.000Z</time>
      </trkpt>
      <trkpt lat="42.96207" lon="1.13849">
        <ele>749</ele>
        <time>2025-09-20T08:09:09.000Z</time>
      </trkpt>
      <trkpt lat="42.96205" lon="1.1385">
        <ele>750</ele>
        <time>2025-09-20T08:09:10.000Z</time>
      </trkpt>
      <trkpt lat="42.96203" lon="1.13851">
        <ele>750</ele>
        <time>2025-09-20T08:09:11.000Z</time>
      </trkpt>
      <trkpt lat="42.96201" lon="1.13853">
        <ele>751</ele>
        <time>2025-09-20T08:09:12.000Z</time>
      </trkpt>
      <trkpt lat="42.96198" lon="1.13854">
        <ele>752</ele>
        <time>2025-09-20T08:09:13.000Z</time>
      </trkpt>
      <trkpt lat="42.96195" lon="1.13856">
        <ele>754</ele>
        <time>2025-09-20T08:09:14.000Z</time>
      </trkpt>
      <trkpt lat="42.96193" lon="1.13857">
        <ele>756</ele>
        <time>2025-09-20T08:09:15.000Z</time>
      </trkpt>
      <trkpt lat="42.96191" lon="1.13856">
        <ele>757</ele>
        <time>2025-09-20T08:09:16.000Z</time>
      </trkpt>
      <trkpt lat="42.96189" lon="1.13855">
        <ele>758</ele>
        <time>2025-09-20T08:09:17.000Z</time>
      </trkpt>
      <trkpt lat="42.96187" lon="1.13853">
        <ele>760</ele>
        <time>2025-09-20T08:09:18.000Z</time>
      </trkpt>
      <trkpt lat="42.96186" lon="1.13852">
        <ele>761</ele>
        <time>2025-09-20T08:09:19.000Z</time>
      </trkpt>
      <trkpt lat="42.96184" lon="1.13849">
        <ele>762</ele>
        <time>2025-09-20T08:09:20.000Z</time>
      </trkpt>
      <trkpt lat="42.96183" lon="1.13847">
        <ele>763</ele>
        <time>2025-09-20T08:09:21.000Z</time>
      </trkpt>
      <trkpt lat="42.96181" lon="1.13845">
        <ele>764</ele>
        <time>2025-09-20T08:09:22.000Z</time>
      </trkpt>
      <trkpt lat="42.96179" lon="1.13843">
        <ele>764</ele>
        <time>2025-09-20T08:09:23.000Z</time>
      </trkpt>
      <trkpt lat="42.96178" lon="1.1384">
        <ele>765</ele>
        <time>2025-09-20T08:09:24.000Z</time>
      </trkpt>
      <trkpt lat="42.96177" lon="1.13838">
        <ele>765</ele>
        <time>2025-09-20T08:09:25.000Z</time>
      </trkpt>
      <trkpt lat="42.96175" lon="1.13835">
        <ele>766</ele>
        <time>2025-09-20T08:09:26.000Z</time>
      </trkpt>
      <trkpt lat="42.96174" lon="1.13834">
        <ele>767</ele>
        <time>2025-09-20T08:09:27.000Z</time>
      </trkpt>
      <trkpt lat="42.96173" lon="1.13832">
        <ele>768</ele>
        <time>2025-09-20T08:09:28.000Z</time>
      </trkpt>
      <trkpt lat="42.96171" lon="1.1383">
        <ele>768</ele>
        <time>2025-09-20T08:09:29.000Z</time>
      </trkpt>
      <trkpt lat="42.9617" lon="1.13827">
        <ele>769</ele>
        <time>2025-09-20T08:09:30.000Z</time>
      </trkpt>
      <trkpt lat="42.96169" lon="1.13825">
        <ele>769</ele>
        <time>2025-09-20T08:09:31.000Z</time>
      </trkpt>
      <trkpt lat="42.96167" lon="1.13823">
        <ele>769</ele>
        <time>2025-09-20T08:09:32.000Z</time>
      </trkpt>
      <trkpt lat="42.96167" lon="1.1382">
        <ele>770</ele>
        <time>2025-09-20T08:09:33.000Z</time>
      </trkpt>
      <trkpt lat="42.96166" lon="1.13818">
        <ele>769</ele>
        <time>2025-09-20T08:09:34.000Z</time>
      </trkpt>
      <trkpt lat="42.96164" lon="1.13816">
        <ele>769</ele>
        <time>2025-09-20T08:09:35.000Z</time>
      </trkpt>
      <trkpt lat="42.96163" lon="1.13813">
        <ele>770</ele>
        <time>2025-09-20T08:09:36.000Z</time>
      </trkpt>
      <trkpt lat="42.96161" lon="1.1381">
        <ele>771</ele>
        <time>2025-09-20T08:09:37.000Z</time>
      </trkpt>
      <trkpt lat="42.96159" lon="1.13808">
        <ele>771</ele>
        <time>2025-09-20T08:09:38.000Z</time>
      </trkpt>
      <trkpt lat="42.96158" lon="1.13806">
        <ele>772</ele>
        <time>2025-09-20T08:09:39.000Z</time>
      </trkpt>
      <trkpt lat="42.96158" lon="1.13803">
        <ele>772</ele>
        <time>2025-09-20T08:09:40.000Z</time>
      </trkpt>
      <trkpt lat="42.96156" lon="1.138">
        <ele>771</ele>
        <time>2025-09-20T08:09:41.000Z</time>
      </trkpt>
      <trkpt lat="42.96155" lon="1.13798">
        <ele>771</ele>
        <time>2025-09-20T08:09:42.000Z</time>
      </trkpt>
      <trkpt lat="42.96154" lon="1.13795">
        <ele>770</ele>
        <time>2025-09-20T08:09:43.000Z</time>
      </trkpt>
      <trkpt lat="42.96153" lon="1.13791">
        <ele>771</ele>
        <time>2025-09-20T08:09:44.000Z</time>
      </trkpt>
      <trkpt lat="42.96153" lon="1.13787">
        <ele>770</ele>
        <time>2025-09-20T08:09:45.000Z</time>
      </trkpt>
      <trkpt lat="42.96152" lon="1.13784">
        <ele>770</ele>
        <time>2025-09-20T08:09:46.000Z</time>
      </trkpt>
      <trkpt lat="42.96151" lon="1.13782">
        <ele>770</ele>
        <time>2025-09-20T08:09:47.000Z</time>
      </trkpt>
      <trkpt lat="42.9615" lon="1.13778">
        <ele>770</ele>
        <time>2025-09-20T08:09:48.000Z</time>
      </trkpt>
      <trkpt lat="42.96149" lon="1.13776">
        <ele>770</ele>
        <time>2025-09-20T08:09:49.000Z</time>
      </trkpt>
      <trkpt lat="42.96148" lon="1.13772">
        <ele>770</ele>
        <time>2025-09-20T08:09:50.000Z</time>
      </trkpt>
      <trkpt lat="42.96147" lon="1.13769">
        <ele>770</ele>
        <time>2025-09-20T08:09:51.000Z</time>
      </trkpt>
      <trkpt lat="42.96145" lon="1.13766">
        <ele>770</ele>
        <time>2025-09-20T08:09:52.000Z</time>
      </trkpt>
      <trkpt lat="42.96143" lon="1.13762">
        <ele>770</ele>
        <time>2025-09-20T08:09:53.000Z</time>
      </trkpt>
      <trkpt lat="42.96141" lon="1.13759">
        <ele>769</ele>
        <time>2025-09-20T08:09:54.000Z</time>
      </trkpt>
      <trkpt lat="42.96139" lon="1.13756">
        <ele>770</ele>
        <time>2025-09-20T08:09:55.000Z</time>
      </trkpt>
      <trkpt lat="42.96137" lon="1.13753">
        <ele>769</ele>
        <time>2025-09-20T08:09:56.000Z</time>
      </trkpt>
      <trkpt lat="42.96135" lon="1.1375">
        <ele>769</ele>
        <time>2025-09-20T08:09:57.000Z</time>
      </trkpt>
      <trkpt lat="42.96132" lon="1.13747">
        <ele>769</ele>
        <time>2025-09-20T08:09:58.000Z</time>
      </trkpt>
      <trkpt lat="42.9613" lon="1.13744">
        <ele>768</ele>
        <time>2025-09-20T08:09:59.000Z</time>
      </trkpt>
      <trkpt lat="42.96127" lon="1.13741">
        <ele>768</ele>
        <time>2025-09-20T08:10:00.000Z</time>
      </trkpt>
      <trkpt lat="42.96125" lon="1.13738">
        <ele>768</ele>
        <time>2025-09-20T08:10:01.000Z</time>
      </trkpt>
      <trkpt lat="42.96124" lon="1.13734">
        <ele>768</ele>
        <time>2025-09-20T08:10:02.000Z</time>
      </trkpt>
      <trkpt lat="42.96123" lon="1.13729">
        <ele>768</ele>
        <time>2025-09-20T08:10:03.000Z</time>
      </trkpt>
      <trkpt lat="42.96121" lon="1.13724">
        <ele>769</ele>
        <time>2025-09-20T08:10:04.000Z</time>
      </trkpt>
      <trkpt lat="42.9612" lon="1.1372">
        <ele>768</ele>
        <time>2025-09-20T08:10:05.000Z</time>
      </trkpt>
      <trkpt lat="42.96119" lon="1.13716">
        <ele>769</ele>
        <time>2025-09-20T08:10:06.000Z</time>
      </trkpt>
      <trkpt lat="42.96118" lon="1.13712">
        <ele>769</ele>
        <time>2025-09-20T08:10:07.000Z</time>
      </trkpt>
      <trkpt lat="42.96117" lon="1.13708">
        <ele>769</ele>
        <time>2025-09-20T08:10:08.000Z</time>
      </trkpt>
      <trkpt lat="42.96116" lon="1.13703">
        <ele>768</ele>
        <time>2025-09-20T08:10:09.000Z</time>
      </trkpt>
      <trkpt lat="42.96114" lon="1.137">
        <ele>768</ele>
        <time>2025-09-20T08:10:10.000Z</time>
      </trkpt>
      <trkpt lat="42.96113" lon="1.13696">
        <ele>769</ele>
        <time>2025-09-20T08:10:11.000Z</time>
      </trkpt>
      <trkpt lat="42.96112" lon="1.13692">
        <ele>769</ele>
        <time>2025-09-20T08:10:12.000Z</time>
      </trkpt>
      <trkpt lat="42.9611" lon="1.13688">
        <ele>769</ele>
        <time>2025-09-20T08:10:13.000Z</time>
      </trkpt>
      <trkpt lat="42.96108" lon="1.13684">
        <ele>769</ele>
        <time>2025-09-20T08:10:14.000Z</time>
      </trkpt>
      <trkpt lat="42.96107" lon="1.1368">
        <ele>769</ele>
        <time>2025-09-20T08:10:15.000Z</time>
      </trkpt>
      <trkpt lat="42.96106" lon="1.13677">
        <ele>770</ele>
        <time>2025-09-20T08:10:16.000Z</time>
      </trkpt>
      <trkpt lat="42.96105" lon="1.13673">
        <ele>770</ele>
        <time>2025-09-20T08:10:17.000Z</time>
      </trkpt>
      <trkpt lat="42.96104" lon="1.13669">
        <ele>770</ele>
        <time>2025-09-20T08:10:18.000Z</time>
      </trkpt>
      <trkpt lat="42.96102" lon="1.13666">
        <ele>770</ele>
        <time>2025-09-20T08:10:19.000Z</time>
      </trkpt>
      <trkpt lat="42.961" lon="1.13663">
        <ele>770</ele>
        <time>2025-09-20T08:10:20.000Z</time>
      </trkpt>
      <trkpt lat="42.96097" lon="1.1366">
        <ele>771</ele>
        <time>2025-09-20T08:10:21.000Z</time>
      </trkpt>
      <trkpt lat="42.96096" lon="1.13658">
        <ele>771</ele>
        <time>2025-09-20T08:10:22.000Z</time>
      </trkpt>
      <trkpt lat="42.96094" lon="1.13655">
        <ele>771</ele>
        <time>2025-09-20T08:10:23.000Z</time>
      </trkpt>
      <trkpt lat="42.96092" lon="1.13652">
        <ele>771</ele>
        <time>2025-09-20T08:10:24.000Z</time>
      </trkpt>
      <trkpt lat="42.96091" lon="1.13649">
        <ele>772</ele>
        <time>2025-09-20T08:10:25.000Z</time>
      </trkpt>
      <trkpt lat="42.9609" lon="1.13645">
        <ele>772</ele>
        <time>2025-09-20T08:10:26.000Z</time>
      </trkpt>
      <trkpt lat="42.96089" lon="1.13641">
        <ele>772</ele>
        <time>2025-09-20T08:10:27.000Z</time>
      </trkpt>
      <trkpt lat="42.96089" lon="1.13638">
        <ele>772</ele>
        <time>2025-09-20T08:10:28.000Z</time>
      </trkpt>
      <trkpt lat="42.96088" lon="1.13635">
        <ele>772</ele>
        <time>2025-09-20T08:10:29.000Z</time>
      </trkpt>
      <trkpt lat="42.96087" lon="1.13631">
        <ele>772</ele>
        <time>2025-09-20T08:10:30.000Z</time>
      </trkpt>
      <trkpt lat="42.96087" lon="1.13628">
        <ele>773</ele>
        <time>2025-09-20T08:10:31.000Z</time>
      </trkpt>
      <trkpt lat="42.96086" lon="1.13624">
        <ele>773</ele>
        <time>2025-09-20T08:10:32.000Z</time>
      </trkpt>
      <trkpt lat="42.96084" lon="1.13621">
        <ele>773</ele>
        <time>2025-09-20T08:10:33.000Z</time>
      </trkpt>
      <trkpt lat="42.96082" lon="1.13617">
        <ele>773</ele>
        <time>2025-09-20T08:10:34.000Z</time>
      </trkpt>
      <trkpt lat="42.96081" lon="1.13614">
        <ele>773</ele>
        <time>2025-09-20T08:10:35.000Z</time>
      </trkpt>
      <trkpt lat="42.96079" lon="1.13611">
        <ele>773</ele>
        <time>2025-09-20T08:10:36.000Z</time>
      </trkpt>
      <trkpt lat="42.96077" lon="1.13609">
        <ele>773</ele>
        <time>2025-09-20T08:10:37.000Z</time>
      </trkpt>
      <trkpt lat="42.96074" lon="1.13607">
        <ele>773</ele>
        <time>2025-09-20T08:10:38.000Z</time>
      </trkpt>
      <trkpt lat="42.96072" lon="1.13604">
        <ele>773</ele>
        <time>2025-09-20T08:10:39.000Z</time>
      </trkpt>
      <trkpt lat="42.9607" lon="1.13601">
        <ele>773</ele>
        <time>2025-09-20T08:10:40.000Z</time>
      </trkpt>
      <trkpt lat="42.96068" lon="1.13597">
        <ele>773</ele>
        <time>2025-09-20T08:10:41.000Z</time>
      </trkpt>
      <trkpt lat="42.96066" lon="1.13593">
        <ele>774</ele>
        <time>2025-09-20T08:10:42.000Z</time>
      </trkpt>
      <trkpt lat="42.96065" lon="1.13589">
        <ele>774</ele>
        <time>2025-09-20T08:10:43.000Z</time>
      </trkpt>
      <trkpt lat="42.96063" lon="1.13585">
        <ele>774</ele>
        <time>2025-09-20T08:10:44.000Z</time>
      </trkpt>
      <trkpt lat="42.96062" lon="1.13582">
        <ele>774</ele>
        <time>2025-09-20T08:10:45.000Z</time>
      </trkpt>
      <trkpt lat="42.9606" lon="1.13579">
        <ele>774</ele>
        <time>2025-09-20T08:10:46.000Z</time>
      </trkpt>
      <trkpt lat="42.96059" lon="1.13575">
        <ele>775</ele>
        <time>2025-09-20T08:10:47.000Z</time>
      </trkpt>
      <trkpt lat="42.96058" lon="1.13572">
        <ele>775</ele>
        <time>2025-09-20T08:10:48.000Z</time>
      </trkpt>
      <trkpt lat="42.96057" lon="1.13568">
        <ele>775</ele>
        <time>2025-09-20T08:10:49.000Z</time>
      </trkpt>
      <trkpt lat="42.96056" lon="1.13564">
        <ele>775</ele>
        <time>2025-09-20T08:10:50.000Z</time>
      </trkpt>
      <trkpt lat="42.96055" lon="1.13561">
        <ele>775</ele>
        <time>2025-09-20T08:10:51.000Z</time>
      </trkpt>
      <trkpt lat="42.96053" lon="1.13558">
        <ele>775</ele>
        <time>2025-09-20T08:10:52.000Z</time>
      </trkpt>
      <trkpt lat="42.96051" lon="1.13555">
        <ele>775</ele>
        <time>2025-09-20T08:10:53.000Z</time>
      </trkpt>
      <trkpt lat="42.9605" lon="1.13552">
        <ele>775</ele>
        <time>2025-09-20T08:10:54.000Z</time>
      </trkpt>
      <trkpt lat="42.96049" lon="1.13548">
        <ele>775</ele>
        <time>2025-09-20T08:10:55.000Z</time>
      </trkpt>
      <trkpt lat="42.96048" lon="1.13544">
        <ele>775</ele>
        <time>2025-09-20T08:10:56.000Z</time>
      </trkpt>
      <trkpt lat="42.96047" lon="1.13541">
        <ele>775</ele>
        <time>2025-09-20T08:10:57.000Z</time>
      </trkpt>
      <trkpt lat="42.96046" lon="1.13537">
        <ele>775</ele>
        <time>2025-09-20T08:10:58.000Z</time>
      </trkpt>
      <trkpt lat="42.96046" lon="1.13534">
        <ele>775</ele>
        <time>2025-09-20T08:10:59.000Z</time>
      </trkpt>
      <trkpt lat="42.96045" lon="1.1353">
        <ele>776</ele>
        <time>2025-09-20T08:11:00.000Z</time>
      </trkpt>
      <trkpt lat="42.96045" lon="1.13527">
        <ele>776</ele>
        <time>2025-09-20T08:11:01.000Z</time>
      </trkpt>
      <trkpt lat="42.96046" lon="1.13523">
        <ele>776</ele>
        <time>2025-09-20T08:11:02.000Z</time>
      </trkpt>
      <trkpt lat="42.96045" lon="1.13519">
        <ele>776</ele>
        <time>2025-09-20T08:11:03.000Z</time>
      </trkpt>
      <trkpt lat="42.96045" lon="1.13515">
        <ele>776</ele>
        <time>2025-09-20T08:11:04.000Z</time>
      </trkpt>
      <trkpt lat="42.96045" lon="1.13512">
        <ele>777</ele>
        <time>2025-09-20T08:11:05.000Z</time>
      </trkpt>
      <trkpt lat="42.96044" lon="1.13508">
        <ele>777</ele>
        <time>2025-09-20T08:11:06.000Z</time>
      </trkpt>
      <trkpt lat="42.96044" lon="1.13504">
        <ele>778</ele>
        <time>2025-09-20T08:11:07.000Z</time>
      </trkpt>
      <trkpt lat="42.96044" lon="1.135">
        <ele>778</ele>
        <time>2025-09-20T08:11:08.000Z</time>
      </trkpt>
      <trkpt lat="42.96045" lon="1.13496">
        <ele>778</ele>
        <time>2025-09-20T08:11:09.000Z</time>
      </trkpt>
      <trkpt lat="42.96045" lon="1.13492">
        <ele>778</ele>
        <time>2025-09-20T08:11:10.000Z</time>
      </trkpt>
      <trkpt lat="42.96046" lon="1.13488">
        <ele>778</ele>
        <time>2025-09-20T08:11:11.000Z</time>
      </trkpt>
      <trkpt lat="42.96046" lon="1.13484">
        <ele>778</ele>
        <time>2025-09-20T08:11:12.000Z</time>
      </trkpt>
      <trkpt lat="42.96045" lon="1.1348">
        <ele>778</ele>
        <time>2025-09-20T08:11:13.000Z</time>
      </trkpt>
      <trkpt lat="42.96045" lon="1.13476">
        <ele>777</ele>
        <time>2025-09-20T08:11:14.000Z</time>
      </trkpt>
      <trkpt lat="42.96044" lon="1.13473">
        <ele>778</ele>
        <time>2025-09-20T08:11:15.000Z</time>
      </trkpt>
      <trkpt lat="42.96043" lon="1.13469">
        <ele>779</ele>
        <time>2025-09-20T08:11:16.000Z</time>
      </trkpt>
      <trkpt lat="42.96042" lon="1.13466">
        <ele>779</ele>
        <time>2025-09-20T08:11:17.000Z</time>
      </trkpt>
      <trkpt lat="42.9604" lon="1.13463">
        <ele>779</ele>
        <time>2025-09-20T08:11:18.000Z</time>
      </trkpt>
      <trkpt lat="42.96038" lon="1.13459">
        <ele>780</ele>
        <time>2025-09-20T08:11:19.000Z</time>
      </trkpt>
      <trkpt lat="42.96037" lon="1.13455">
        <ele>780</ele>
        <time>2025-09-20T08:11:20.000Z</time>
      </trkpt>
      <trkpt lat="42.96036" lon="1.13451">
        <ele>780</ele>
        <time>2025-09-20T08:11:21.000Z</time>
      </trkpt>
      <trkpt lat="42.96034" lon="1.13447">
        <ele>780</ele>
        <time>2025-09-20T08:11:22.000Z</time>
      </trkpt>
      <trkpt lat="42.96034" lon="1.13442">
        <ele>780</ele>
        <time>2025-09-20T08:11:23.000Z</time>
      </trkpt>
      <trkpt lat="42.96034" lon="1.13437">
        <ele>780</ele>
        <time>2025-09-20T08:11:24.000Z</time>
      </trkpt>
      <trkpt lat="42.96033" lon="1.13433">
        <ele>780</ele>
        <time>2025-09-20T08:11:25.000Z</time>
      </trkpt>
      <trkpt lat="42.96033" lon="1.13429">
        <ele>780</ele>
        <time>2025-09-20T08:11:26.000Z</time>
      </trkpt>
      <trkpt lat="42.96033" lon="1.13424">
        <ele>781</ele>
        <time>2025-09-20T08:11:27.000Z</time>
      </trkpt>
      <trkpt lat="42.96033" lon="1.1342">
        <ele>781</ele>
        <time>2025-09-20T08:11:28.000Z</time>
      </trkpt>
      <trkpt lat="42.96034" lon="1.13416">
        <ele>780</ele>
        <time>2025-09-20T08:11:29.000Z</time>
      </trkpt>
      <trkpt lat="42.96033" lon="1.13413">
        <ele>779</ele>
        <time>2025-09-20T08:11:30.000Z</time>
      </trkpt>
      <trkpt lat="42.96033" lon="1.13409">
        <ele>779</ele>
        <time>2025-09-20T08:11:31.000Z</time>
      </trkpt>
      <trkpt lat="42.96033" lon="1.13406">
        <ele>779</ele>
        <time>2025-09-20T08:11:32.000Z</time>
      </trkpt>
      <trkpt lat="42.96034" lon="1.13403">
        <ele>778</ele>
        <time>2025-09-20T08:11:33.000Z</time>
      </trkpt>
      <trkpt lat="42.96035" lon="1.134">
        <ele>778</ele>
        <time>2025-09-20T08:11:34.000Z</time>
      </trkpt>
      <trkpt lat="42.96036" lon="1.13397">
        <ele>778</ele>
        <time>2025-09-20T08:11:35.000Z</time>
      </trkpt>
      <trkpt lat="42.96036" lon="1.13393">
        <ele>778</ele>
        <time>2025-09-20T08:11:36.000Z</time>
      </trkpt>
      <trkpt lat="42.96036" lon="1.13389">
        <ele>778</ele>
        <time>2025-09-20T08:11:37.000Z</time>
      </trkpt>
      <trkpt lat="42.96037" lon="1.13386">
        <ele>778</ele>
        <time>2025-09-20T08:11:38.000Z</time>
      </trkpt>
      <trkpt lat="42.96037" lon="1.13383">
        <ele>778</ele>
        <time>2025-09-20T08:11:39.000Z</time>
      </trkpt>
      <trkpt lat="42.96038" lon="1.13379">
        <ele>778</ele>
        <time>2025-09-20T08:11:40.000Z</time>
      </trkpt>
      <trkpt lat="42.96039" lon="1.13376">
        <ele>778</ele>
        <time>2025-09-20T08:11:41.000Z</time>
      </trkpt>
      <trkpt lat="42.96039" lon="1.13375">
        <ele>778</ele>
        <time>2025-09-20T08:11:42.000Z</time>
      </trkpt>
      <trkpt lat="42.96039" lon="1.13374">
        <ele>779</ele>
        <time>2025-09-20T08:11:43.000Z</time>
      </trkpt>
      <trkpt lat="42.96039" lon="1.13372">
        <ele>779</ele>
        <time>2025-09-20T08:11:44.000Z</time>
      </trkpt>
      <trkpt lat="42.9604" lon="1.13371">
        <ele>780</ele>
        <time>2025-09-20T08:11:45.000Z</time>
      </trkpt>
      <trkpt lat="42.96041" lon="1.13369">
        <ele>780</ele>
        <time>2025-09-20T08:11:46.000Z</time>
      </trkpt>
      <trkpt lat="42.96041" lon="1.13368">
        <ele>780</ele>
        <time>2025-09-20T08:11:47.000Z</time>
      </trkpt>
      <trkpt lat="42.96042" lon="1.13367">
        <ele>780</ele>
        <time>2025-09-20T08:11:48.000Z</time>
      </trkpt>
      <trkpt lat="42.96042" lon="1.13366">
        <ele>780</ele>
        <time>2025-09-20T08:11:49.000Z</time>
      </trkpt>
      <trkpt lat="42.96042" lon="1.13365">
        <ele>780</ele>
        <time>2025-09-20T08:11:50.000Z</time>
      </trkpt>
      <trkpt lat="42.96042" lon="1.13364">
        <ele>780</ele>
        <time>2025-09-20T08:11:51.000Z</time>
      </trkpt>
      <trkpt lat="42.96042" lon="1.13362">
        <ele>781</ele>
        <time>2025-09-20T08:14:13.000Z</time>
      </trkpt>
      <trkpt lat="42.96042" lon="1.13359">
        <ele>781</ele>
        <time>2025-09-20T08:14:14.000Z</time>
      </trkpt>
      <trkpt lat="42.96042" lon="1.13356">
        <ele>780</ele>
        <time>2025-09-20T08:14:15.000Z</time>
      </trkpt>
      <trkpt lat="42.96042" lon="1.1335">
        <ele>780</ele>
        <time>2025-09-20T08:14:16.000Z</time>
      </trkpt>
      <trkpt lat="42.96042" lon="1.13344">
        <ele>779</ele>
        <time>2025-09-20T08:14:17.000Z</time>
      </trkpt>
      <trkpt lat="42.96041" lon="1.13338">
        <ele>778</ele>
        <time>2025-09-20T08:14:18.000Z</time>
      </trkpt>
      <trkpt lat="42.9604" lon="1.13329">
        <ele>778</ele>
        <time>2025-09-20T08:14:19.000Z</time>
      </trkpt>
      <trkpt lat="42.96038" lon="1.13321">
        <ele>777</ele>
        <time>2025-09-20T08:14:20.000Z</time>
      </trkpt>
      <trkpt lat="42.96035" lon="1.13312">
        <ele>776</ele>
        <time>2025-09-20T08:14:21.000Z</time>
      </trkpt>
      <trkpt lat="42.96032" lon="1.13304">
        <ele>776</ele>
        <time>2025-09-20T08:14:22.000Z</time>
      </trkpt>
      <trkpt lat="42.9603" lon="1.13295">
        <ele>776</ele>
        <time>2025-09-20T08:14:23.000Z</time>
      </trkpt>
      <trkpt lat="42.96027" lon="1.13288">
        <ele>776</ele>
        <time>2025-09-20T08:14:24.000Z</time>
      </trkpt>
      <trkpt lat="42.96024" lon="1.13283">
        <ele>776</ele>
        <time>2025-09-20T08:14:25.000Z</time>
      </trkpt>
      <trkpt lat="42.96018" lon="1.13284">
        <ele>776</ele>
        <time>2025-09-20T08:14:26.000Z</time>
      </trkpt>
      <trkpt lat="42.96012" lon="1.13287">
        <ele>775</ele>
        <time>2025-09-20T08:14:27.000Z</time>
      </trkpt>
      <trkpt lat="42.96007" lon="1.1329">
        <ele>775</ele>
        <time>2025-09-20T08:14:28.000Z</time>
      </trkpt>
      <trkpt lat="42.96001" lon="1.13293">
        <ele>775</ele>
        <time>2025-09-20T08:14:29.000Z</time>
      </trkpt>
      <trkpt lat="42.95995" lon="1.13295">
        <ele>775</ele>
        <time>2025-09-20T08:14:30.000Z</time>
      </trkpt>
      <trkpt lat="42.95988" lon="1.13297">
        <ele>774</ele>
        <time>2025-09-20T08:14:31.000Z</time>
      </trkpt>
      <trkpt lat="42.95982" lon="1.133">
        <ele>773</ele>
        <time>2025-09-20T08:14:32.000Z</time>
      </trkpt>
      <trkpt lat="42.95974" lon="1.13303">
        <ele>772</ele>
        <time>2025-09-20T08:14:33.000Z</time>
      </trkpt>
      <trkpt lat="42.95967" lon="1.13307">
        <ele>771</ele>
        <time>2025-09-20T08:14:34.000Z</time>
      </trkpt>
      <trkpt lat="42.9596" lon="1.1331">
        <ele>770</ele>
        <time>2025-09-20T08:14:35.000Z</time>
      </trkpt>
      <trkpt lat="42.95952" lon="1.13312">
        <ele>768</ele>
        <time>2025-09-20T08:14:36.000Z</time>
      </trkpt>
      <trkpt lat="42.95945" lon="1.13311">
        <ele>767</ele>
        <time>2025-09-20T08:14:37.000Z</time>
      </trkpt>
      <trkpt lat="42.95939" lon="1.13306">
        <ele>766</ele>
        <time>2025-09-20T08:14:38.000Z</time>
      </trkpt>
      <trkpt lat="42.95935" lon="1.13302">
        <ele>766</ele>
        <time>2025-09-20T08:14:39.000Z</time>
      </trkpt>
      <trkpt lat="42.9593" lon="1.13304">
        <ele>765</ele>
        <time>2025-09-20T08:14:40.000Z</time>
      </trkpt>
      <trkpt lat="42.95925" lon="1.1331">
        <ele>764</ele>
        <time>2025-09-20T08:14:41.000Z</time>
      </trkpt>
      <trkpt lat="42.95925" lon="1.1332">
        <ele>763</ele>
        <time>2025-09-20T08:14:42.000Z</time>
      </trkpt>
      <trkpt lat="42.95926" lon="1.1333">
        <ele>762</ele>
        <time>2025-09-20T08:14:43.000Z</time>
      </trkpt>
      <trkpt lat="42.95927" lon="1.13341">
        <ele>760</ele>
        <time>2025-09-20T08:14:44.000Z</time>
      </trkpt>
      <trkpt lat="42.95928" lon="1.13353">
        <ele>760</ele>
        <time>2025-09-20T08:14:45.000Z</time>
      </trkpt>
      <trkpt lat="42.95927" lon="1.13364">
        <ele>759</ele>
        <time>2025-09-20T08:14:46.000Z</time>
      </trkpt>
      <trkpt lat="42.95926" lon="1.13377">
        <ele>759</ele>
        <time>2025-09-20T08:14:47.000Z</time>
      </trkpt>
      <trkpt lat="42.95924" lon="1.1339">
        <ele>758</ele>
        <time>2025-09-20T08:14:48.000Z</time>
      </trkpt>
      <trkpt lat="42.95923" lon="1.13403">
        <ele>758</ele>
        <time>2025-09-20T08:14:49.000Z</time>
      </trkpt>
      <trkpt lat="42.95922" lon="1.13416">
        <ele>757</ele>
        <time>2025-09-20T08:14:50.000Z</time>
      </trkpt>
      <trkpt lat="42.95921" lon="1.13428">
        <ele>756</ele>
        <time>2025-09-20T08:14:51.000Z</time>
      </trkpt>
      <trkpt lat="42.9592" lon="1.13439">
        <ele>756</ele>
        <time>2025-09-20T08:14:52.000Z</time>
      </trkpt>
      <trkpt lat="42.9592" lon="1.1345">
        <ele>755</ele>
        <time>2025-09-20T08:14:53.000Z</time>
      </trkpt>
      <trkpt lat="42.95919" lon="1.13461">
        <ele>754</ele>
        <time>2025-09-20T08:14:54.000Z</time>
      </trkpt>
      <trkpt lat="42.95918" lon="1.13473">
        <ele>753</ele>
        <time>2025-09-20T08:14:55.000Z</time>
      </trkpt>
      <trkpt lat="42.95917" lon="1.13485">
        <ele>753</ele>
        <time>2025-09-20T08:14:56.000Z</time>
      </trkpt>
      <trkpt lat="42.95917" lon="1.13498">
        <ele>751</ele>
        <time>2025-09-20T08:14:57.000Z</time>
      </trkpt>
      <trkpt lat="42.95916" lon="1.13511">
        <ele>750</ele>
        <time>2025-09-20T08:14:58.000Z</time>
      </trkpt>
      <trkpt lat="42.95915" lon="1.13524">
        <ele>748</ele>
        <time>2025-09-20T08:14:59.000Z</time>
      </trkpt>
      <trkpt lat="42.95914" lon="1.13537">
        <ele>747</ele>
        <time>2025-09-20T08:15:00.000Z</time>
      </trkpt>
      <trkpt lat="42.95913" lon="1.13549">
        <ele>746</ele>
        <time>2025-09-20T08:15:01.000Z</time>
      </trkpt>
      <trkpt lat="42.95912" lon="1.1356">
        <ele>746</ele>
        <time>2025-09-20T08:15:02.000Z</time>
      </trkpt>
      <trkpt lat="42.95911" lon="1.13571">
        <ele>745</ele>
        <time>2025-09-20T08:15:03.000Z</time>
      </trkpt>
      <trkpt lat="42.9591" lon="1.13582">
        <ele>744</ele>
        <time>2025-09-20T08:15:04.000Z</time>
      </trkpt>
      <trkpt lat="42.95909" lon="1.13593">
        <ele>743</ele>
        <time>2025-09-20T08:15:05.000Z</time>
      </trkpt>
      <trkpt lat="42.95909" lon="1.13603">
        <ele>743</ele>
        <time>2025-09-20T08:15:06.000Z</time>
      </trkpt>
      <trkpt lat="42.95909" lon="1.13612">
        <ele>743</ele>
        <time>2025-09-20T08:15:07.000Z</time>
      </trkpt>
      <trkpt lat="42.95908" lon="1.13621">
        <ele>742</ele>
        <time>2025-09-20T08:15:08.000Z</time>
      </trkpt>
      <trkpt lat="42.95906" lon="1.1363">
        <ele>743</ele>
        <time>2025-09-20T08:15:09.000Z</time>
      </trkpt>
      <trkpt lat="42.95901" lon="1.13639">
        <ele>743</ele>
        <time>2025-09-20T08:15:10.000Z</time>
      </trkpt>
      <trkpt lat="42.95898" lon="1.13648">
        <ele>744</ele>
        <time>2025-09-20T08:15:11.000Z</time>
      </trkpt>
      <trkpt lat="42.95895" lon="1.13657">
        <ele>744</ele>
        <time>2025-09-20T08:15:12.000Z</time>
      </trkpt>
      <trkpt lat="42.95892" lon="1.13665">
        <ele>743</ele>
        <time>2025-09-20T08:15:13.000Z</time>
      </trkpt>
      <trkpt lat="42.95888" lon="1.13673">
        <ele>744</ele>
        <time>2025-09-20T08:15:14.000Z</time>
      </trkpt>
      <trkpt lat="42.95886" lon="1.13681">
        <ele>744</ele>
        <time>2025-09-20T08:15:15.000Z</time>
      </trkpt>
      <trkpt lat="42.95884" lon="1.13688">
        <ele>744</ele>
        <time>2025-09-20T08:15:16.000Z</time>
      </trkpt>
      <trkpt lat="42.95882" lon="1.13694">
        <ele>744</ele>
        <time>2025-09-20T08:15:17.000Z</time>
      </trkpt>
      <trkpt lat="42.95881" lon="1.13701">
        <ele>744</ele>
        <time>2025-09-20T08:15:18.000Z</time>
      </trkpt>
      <trkpt lat="42.9588" lon="1.13709">
        <ele>744</ele>
        <time>2025-09-20T08:15:19.000Z</time>
      </trkpt>
      <trkpt lat="42.95879" lon="1.13716">
        <ele>744</ele>
        <time>2025-09-20T08:15:20.000Z</time>
      </trkpt>
      <trkpt lat="42.95877" lon="1.13723">
        <ele>744</ele>
        <time>2025-09-20T08:15:21.000Z</time>
      </trkpt>
      <trkpt lat="42.95876" lon="1.13729">
        <ele>744</ele>
        <time>2025-09-20T08:15:22.000Z</time>
      </trkpt>
      <trkpt lat="42.95876" lon="1.13735">
        <ele>743</ele>
        <time>2025-09-20T08:15:23.000Z</time>
      </trkpt>
      <trkpt lat="42.95876" lon="1.1374">
        <ele>743</ele>
        <time>2025-09-20T08:15:24.000Z</time>
      </trkpt>
      <trkpt lat="42.95877" lon="1.13745">
        <ele>743</ele>
        <time>2025-09-20T08:15:25.000Z</time>
      </trkpt>
      <trkpt lat="42.95877" lon="1.13749">
        <ele>743</ele>
        <time>2025-09-20T08:15:26.000Z</time>
      </trkpt>
      <trkpt lat="42.95877" lon="1.13754">
        <ele>743</ele>
        <time>2025-09-20T08:15:27.000Z</time>
      </trkpt>
      <trkpt lat="42.95877" lon="1.13758">
        <ele>743</ele>
        <time>2025-09-20T08:15:28.000Z</time>
      </trkpt>
      <trkpt lat="42.95877" lon="1.13763">
        <ele>743</ele>
        <time>2025-09-20T08:15:29.000Z</time>
      </trkpt>
      <trkpt lat="42.95877" lon="1.13767">
        <ele>742</ele>
        <time>2025-09-20T08:15:30.000Z</time>
      </trkpt>
      <trkpt lat="42.95878" lon="1.13771">
        <ele>743</ele>
        <time>2025-09-20T08:15:31.000Z</time>
      </trkpt>
      <trkpt lat="42.95878" lon="1.13775">
        <ele>743</ele>
        <time>2025-09-20T08:15:32.000Z</time>
      </trkpt>
      <trkpt lat="42.95877" lon="1.13779">
        <ele>743</ele>
        <time>2025-09-20T08:15:33.000Z</time>
      </trkpt>
      <trkpt lat="42.95876" lon="1.13783">
        <ele>743</ele>
        <time>2025-09-20T08:15:34.000Z</time>
      </trkpt>
      <trkpt lat="42.95873" lon="1.13786">
        <ele>744</ele>
        <time>2025-09-20T08:15:35.000Z</time>
      </trkpt>
      <trkpt lat="42.95871" lon="1.13788">
        <ele>745</ele>
        <time>2025-09-20T08:15:36.000Z</time>
      </trkpt>
      <trkpt lat="42.95868" lon="1.1379">
        <ele>745</ele>
        <time>2025-09-20T08:15:37.000Z</time>
      </trkpt>
      <trkpt lat="42.95866" lon="1.13791">
        <ele>746</ele>
        <time>2025-09-20T08:15:38.000Z</time>
      </trkpt>
      <trkpt lat="42.95863" lon="1.13792">
        <ele>746</ele>
        <time>2025-09-20T08:15:39.000Z</time>
      </trkpt>
      <trkpt lat="42.95861" lon="1.13793">
        <ele>746</ele>
        <time>2025-09-20T08:15:40.000Z</time>
      </trkpt>
      <trkpt lat="42.95858" lon="1.13795">
        <ele>747</ele>
        <time>2025-09-20T08:15:41.000Z</time>
      </trkpt>
      <trkpt lat="42.95856" lon="1.13796">
        <ele>747</ele>
        <time>2025-09-20T08:15:42.000Z</time>
      </trkpt>
      <trkpt lat="42.95853" lon="1.13796">
        <ele>748</ele>
        <time>2025-09-20T08:15:43.000Z</time>
      </trkpt>
      <trkpt lat="42.9585" lon="1.13798">
        <ele>749</ele>
        <time>2025-09-20T08:15:44.000Z</time>
      </trkpt>
      <trkpt lat="42.95848" lon="1.13799">
        <ele>749</ele>
        <time>2025-09-20T08:15:45.000Z</time>
      </trkpt>
      <trkpt lat="42.95845" lon="1.138">
        <ele>750</ele>
        <time>2025-09-20T08:15:46.000Z</time>
      </trkpt>
      <trkpt lat="42.95843" lon="1.138">
        <ele>750</ele>
        <time>2025-09-20T08:15:47.000Z</time>
      </trkpt>
      <trkpt lat="42.9584" lon="1.138">
        <ele>751</ele>
        <time>2025-09-20T08:15:48.000Z</time>
      </trkpt>
      <trkpt lat="42.95838" lon="1.138">
        <ele>751</ele>
        <time>2025-09-20T08:15:49.000Z</time>
      </trkpt>
      <trkpt lat="42.95835" lon="1.13799">
        <ele>751</ele>
        <time>2025-09-20T08:15:50.000Z</time>
      </trkpt>
      <trkpt lat="42.95833" lon="1.13798">
        <ele>752</ele>
        <time>2025-09-20T08:15:51.000Z</time>
      </trkpt>
      <trkpt lat="42.95831" lon="1.13797">
        <ele>752</ele>
        <time>2025-09-20T08:15:52.000Z</time>
      </trkpt>
      <trkpt lat="42.95829" lon="1.13796">
        <ele>753</ele>
        <time>2025-09-20T08:15:53.000Z</time>
      </trkpt>
      <trkpt lat="42.95826" lon="1.13795">
        <ele>753</ele>
        <time>2025-09-20T08:15:54.000Z</time>
      </trkpt>
      <trkpt lat="42.95824" lon="1.13794">
        <ele>754</ele>
        <time>2025-09-20T08:15:55.000Z</time>
      </trkpt>
      <trkpt lat="42.95822" lon="1.13794">
        <ele>754</ele>
        <time>2025-09-20T08:15:56.000Z</time>
      </trkpt>
      <trkpt lat="42.95819" lon="1.13792">
        <ele>754</ele>
        <time>2025-09-20T08:15:57.000Z</time>
      </trkpt>
      <trkpt lat="42.95817" lon="1.13791">
        <ele>754</ele>
        <time>2025-09-20T08:15:58.000Z</time>
      </trkpt>
      <trkpt lat="42.95814" lon="1.1379">
        <ele>755</ele>
        <time>2025-09-20T08:15:59.000Z</time>
      </trkpt>
      <trkpt lat="42.95812" lon="1.13788">
        <ele>755</ele>
        <time>2025-09-20T08:16:00.000Z</time>
      </trkpt>
      <trkpt lat="42.95811" lon="1.13786">
        <ele>756</ele>
        <time>2025-09-20T08:16:01.000Z</time>
      </trkpt>
      <trkpt lat="42.95809" lon="1.13784">
        <ele>756</ele>
        <time>2025-09-20T08:16:02.000Z</time>
      </trkpt>
      <trkpt lat="42.95806" lon="1.13782">
        <ele>756</ele>
        <time>2025-09-20T08:16:03.000Z</time>
      </trkpt>
      <trkpt lat="42.95805" lon="1.13781">
        <ele>756</ele>
        <time>2025-09-20T08:16:04.000Z</time>
      </trkpt>
      <trkpt lat="42.95802" lon="1.13779">
        <ele>757</ele>
        <time>2025-09-20T08:16:05.000Z</time>
      </trkpt>
      <trkpt lat="42.958" lon="1.13777">
        <ele>758</ele>
        <time>2025-09-20T08:16:06.000Z</time>
      </trkpt>
      <trkpt lat="42.95797" lon="1.13776">
        <ele>758</ele>
        <time>2025-09-20T08:16:07.000Z</time>
      </trkpt>
      <trkpt lat="42.95795" lon="1.13775">
        <ele>759</ele>
        <time>2025-09-20T08:16:08.000Z</time>
      </trkpt>
      <trkpt lat="42.95793" lon="1.13774">
        <ele>760</ele>
        <time>2025-09-20T08:16:09.000Z</time>
      </trkpt>
      <trkpt lat="42.95791" lon="1.13774">
        <ele>760</ele>
        <time>2025-09-20T08:16:10.000Z</time>
      </trkpt>
      <trkpt lat="42.95788" lon="1.13774">
        <ele>760</ele>
        <time>2025-09-20T08:16:11.000Z</time>
      </trkpt>
      <trkpt lat="42.95786" lon="1.13777">
        <ele>760</ele>
        <time>2025-09-20T08:16:12.000Z</time>
      </trkpt>
      <trkpt lat="42.95785" lon="1.13779">
        <ele>760</ele>
        <time>2025-09-20T08:16:13.000Z</time>
      </trkpt>
      <trkpt lat="42.95784" lon="1.13781">
        <ele>760</ele>
        <time>2025-09-20T08:16:14.000Z</time>
      </trkpt>
      <trkpt lat="42.95784" lon="1.13784">
        <ele>760</ele>
        <time>2025-09-20T08:16:15.000Z</time>
      </trkpt>
      <trkpt lat="42.95783" lon="1.13788">
        <ele>760</ele>
        <time>2025-09-20T08:16:16.000Z</time>
      </trkpt>
      <trkpt lat="42.95783" lon="1.13791">
        <ele>759</ele>
        <time>2025-09-20T08:16:17.000Z</time>
      </trkpt>
      <trkpt lat="42.95783" lon="1.13794">
        <ele>759</ele>
        <time>2025-09-20T08:16:18.000Z</time>
      </trkpt>
      <trkpt lat="42.95782" lon="1.13797">
        <ele>759</ele>
        <time>2025-09-20T08:16:19.000Z</time>
      </trkpt>
      <trkpt lat="42.95781" lon="1.13799">
        <ele>760</ele>
        <time>2025-09-20T08:16:20.000Z</time>
      </trkpt>
      <trkpt lat="42.95781" lon="1.13801">
        <ele>760</ele>
        <time>2025-09-20T08:16:21.000Z</time>
      </trkpt>
      <trkpt lat="42.9578" lon="1.13802">
        <ele>760</ele>
        <time>2025-09-20T08:16:22.000Z</time>
      </trkpt>
      <trkpt lat="42.9578" lon="1.13804">
        <ele>760</ele>
        <time>2025-09-20T08:16:23.000Z</time>
      </trkpt>
      <trkpt lat="42.95779" lon="1.13805">
        <ele>760</ele>
        <time>2025-09-20T08:16:24.000Z</time>
      </trkpt>
      <trkpt lat="42.95778" lon="1.13806">
        <ele>760</ele>
        <time>2025-09-20T08:16:25.000Z</time>
      </trkpt>
      <trkpt lat="42.95777" lon="1.13807">
        <ele>761</ele>
        <time>2025-09-20T08:16:26.000Z</time>
      </trkpt>
      <trkpt lat="42.95775" lon="1.13808">
        <ele>761</ele>
        <time>2025-09-20T08:16:27.000Z</time>
      </trkpt>
      <trkpt lat="42.95773" lon="1.13808">
        <ele>761</ele>
        <time>2025-09-20T08:16:28.000Z</time>
      </trkpt>
      <trkpt lat="42.9577" lon="1.13807">
        <ele>761</ele>
        <time>2025-09-20T08:16:29.000Z</time>
      </trkpt>
      <trkpt lat="42.95768" lon="1.13807">
        <ele>761</ele>
        <time>2025-09-20T08:16:30.000Z</time>
      </trkpt>
      <trkpt lat="42.95765" lon="1.13807">
        <ele>761</ele>
        <time>2025-09-20T08:16:31.000Z</time>
      </trkpt>
      <trkpt lat="42.95763" lon="1.13807">
        <ele>761</ele>
        <time>2025-09-20T08:16:32.000Z</time>
      </trkpt>
      <trkpt lat="42.95761" lon="1.13807">
        <ele>762</ele>
        <time>2025-09-20T08:16:33.000Z</time>
      </trkpt>
      <trkpt lat="42.95758" lon="1.13808">
        <ele>762</ele>
        <time>2025-09-20T08:16:34.000Z</time>
      </trkpt>
      <trkpt lat="42.95756" lon="1.13808">
        <ele>763</ele>
        <time>2025-09-20T08:16:35.000Z</time>
      </trkpt>
      <trkpt lat="42.95753" lon="1.13809">
        <ele>763</ele>
        <time>2025-09-20T08:16:36.000Z</time>
      </trkpt>
      <trkpt lat="42.95751" lon="1.13809">
        <ele>764</ele>
        <time>2025-09-20T08:16:37.000Z</time>
      </trkpt>
      <trkpt lat="42.95749" lon="1.13809">
        <ele>764</ele>
        <time>2025-09-20T08:16:38.000Z</time>
      </trkpt>
      <trkpt lat="42.95747" lon="1.13809">
        <ele>766</ele>
        <time>2025-09-20T08:16:39.000Z</time>
      </trkpt>
      <trkpt lat="42.95745" lon="1.13808">
        <ele>766</ele>
        <time>2025-09-20T08:16:40.000Z</time>
      </trkpt>
      <trkpt lat="42.95743" lon="1.13808">
        <ele>767</ele>
        <time>2025-09-20T08:16:41.000Z</time>
      </trkpt>
      <trkpt lat="42.95741" lon="1.13808">
        <ele>768</ele>
        <time>2025-09-20T08:16:42.000Z</time>
      </trkpt>
      <trkpt lat="42.95738" lon="1.13807">
        <ele>768</ele>
        <time>2025-09-20T08:16:43.000Z</time>
      </trkpt>
      <trkpt lat="42.95737" lon="1.13807">
        <ele>769</ele>
        <time>2025-09-20T08:16:44.000Z</time>
      </trkpt>
      <trkpt lat="42.95736" lon="1.13806">
        <ele>771</ele>
        <time>2025-09-20T08:16:45.000Z</time>
      </trkpt>
      <trkpt lat="42.95733" lon="1.13806">
        <ele>772</ele>
        <time>2025-09-20T08:16:46.000Z</time>
      </trkpt>
      <trkpt lat="42.95732" lon="1.13806">
        <ele>772</ele>
        <time>2025-09-20T08:16:47.000Z</time>
      </trkpt>
      <trkpt lat="42.9573" lon="1.13806">
        <ele>773</ele>
        <time>2025-09-20T08:16:48.000Z</time>
      </trkpt>
      <trkpt lat="42.95728" lon="1.13806">
        <ele>773</ele>
        <time>2025-09-20T08:16:49.000Z</time>
      </trkpt>
      <trkpt lat="42.95726" lon="1.13806">
        <ele>774</ele>
        <time>2025-09-20T08:16:50.000Z</time>
      </trkpt>
      <trkpt lat="42.95725" lon="1.13805">
        <ele>774</ele>
        <time>2025-09-20T08:16:51.000Z</time>
      </trkpt>
      <trkpt lat="42.95723" lon="1.13805">
        <ele>774</ele>
        <time>2025-09-20T08:16:52.000Z</time>
      </trkpt>
      <trkpt lat="42.95721" lon="1.13804">
        <ele>775</ele>
        <time>2025-09-20T08:16:53.000Z</time>
      </trkpt>
      <trkpt lat="42.95719" lon="1.13804">
        <ele>775</ele>
        <time>2025-09-20T08:16:54.000Z</time>
      </trkpt>
      <trkpt lat="42.95717" lon="1.13804">
        <ele>775</ele>
        <time>2025-09-20T08:16:55.000Z</time>
      </trkpt>
      <trkpt lat="42.95715" lon="1.13806">
        <ele>775</ele>
        <time>2025-09-20T08:16:56.000Z</time>
      </trkpt>
      <trkpt lat="42.95713" lon="1.13807">
        <ele>776</ele>
        <time>2025-09-20T08:16:57.000Z</time>
      </trkpt>
      <trkpt lat="42.95711" lon="1.13808">
        <ele>776</ele>
        <time>2025-09-20T08:16:58.000Z</time>
      </trkpt>
      <trkpt lat="42.95709" lon="1.13808">
        <ele>777</ele>
        <time>2025-09-20T08:16:59.000Z</time>
      </trkpt>
      <trkpt lat="42.95708" lon="1.13809">
        <ele>777</ele>
        <time>2025-09-20T08:17:00.000Z</time>
      </trkpt>
      <trkpt lat="42.95706" lon="1.1381">
        <ele>777</ele>
        <time>2025-09-20T08:17:01.000Z</time>
      </trkpt>
      <trkpt lat="42.95704" lon="1.13811">
        <ele>777</ele>
        <time>2025-09-20T08:17:02.000Z</time>
      </trkpt>
      <trkpt lat="42.95701" lon="1.13811">
        <ele>777</ele>
        <time>2025-09-20T08:17:03.000Z</time>
      </trkpt>
      <trkpt lat="42.95698" lon="1.13811">
        <ele>777</ele>
        <time>2025-09-20T08:17:04.000Z</time>
      </trkpt>
      <trkpt lat="42.95696" lon="1.13811">
        <ele>777</ele>
        <time>2025-09-20T08:17:05.000Z</time>
      </trkpt>
      <trkpt lat="42.95692" lon="1.13812">
        <ele>777</ele>
        <time>2025-09-20T08:17:06.000Z</time>
      </trkpt>
      <trkpt lat="42.95688" lon="1.13813">
        <ele>778</ele>
        <time>2025-09-20T08:17:07.000Z</time>
      </trkpt>
      <trkpt lat="42.95684" lon="1.13813">
        <ele>779</ele>
        <time>2025-09-20T08:17:08.000Z</time>
      </trkpt>
      <trkpt lat="42.95681" lon="1.13814">
        <ele>780</ele>
        <time>2025-09-20T08:17:09.000Z</time>
      </trkpt>
      <trkpt lat="42.95678" lon="1.13815">
        <ele>780</ele>
        <time>2025-09-20T08:17:10.000Z</time>
      </trkpt>
      <trkpt lat="42.95675" lon="1.13815">
        <ele>780</ele>
        <time>2025-09-20T08:17:11.000Z</time>
      </trkpt>
      <trkpt lat="42.95672" lon="1.13816">
        <ele>780</ele>
        <time>2025-09-20T08:17:12.000Z</time>
      </trkpt>
      <trkpt lat="42.9567" lon="1.13816">
        <ele>781</ele>
        <time>2025-09-20T08:17:13.000Z</time>
      </trkpt>
      <trkpt lat="42.95667" lon="1.13816">
        <ele>781</ele>
        <time>2025-09-20T08:17:14.000Z</time>
      </trkpt>
      <trkpt lat="42.95664" lon="1.13816">
        <ele>782</ele>
        <time>2025-09-20T08:17:15.000Z</time>
      </trkpt>
      <trkpt lat="42.95661" lon="1.13817">
        <ele>784</ele>
        <time>2025-09-20T08:17:16.000Z</time>
      </trkpt>
      <trkpt lat="42.9566" lon="1.13817">
        <ele>785</ele>
        <time>2025-09-20T08:17:17.000Z</time>
      </trkpt>
      <trkpt lat="42.95657" lon="1.13817">
        <ele>785</ele>
        <time>2025-09-20T08:17:18.000Z</time>
      </trkpt>
      <trkpt lat="42.95655" lon="1.13817">
        <ele>786</ele>
        <time>2025-09-20T08:17:19.000Z</time>
      </trkpt>
      <trkpt lat="42.95652" lon="1.13818">
        <ele>786</ele>
        <time>2025-09-20T08:17:20.000Z</time>
      </trkpt>
      <trkpt lat="42.9565" lon="1.13818">
        <ele>787</ele>
        <time>2025-09-20T08:17:21.000Z</time>
      </trkpt>
      <trkpt lat="42.95647" lon="1.13819">
        <ele>788</ele>
        <time>2025-09-20T08:17:22.000Z</time>
      </trkpt>
      <trkpt lat="42.95644" lon="1.13819">
        <ele>789</ele>
        <time>2025-09-20T08:17:23.000Z</time>
      </trkpt>
      <trkpt lat="42.95642" lon="1.13818">
        <ele>789</ele>
        <time>2025-09-20T08:17:24.000Z</time>
      </trkpt>
      <trkpt lat="42.9564" lon="1.13818">
        <ele>790</ele>
        <time>2025-09-20T08:17:25.000Z</time>
      </trkpt>
      <trkpt lat="42.95637" lon="1.13818">
        <ele>790</ele>
        <time>2025-09-20T08:17:26.000Z</time>
      </trkpt>
      <trkpt lat="42.95635" lon="1.13817">
        <ele>791</ele>
        <time>2025-09-20T08:17:27.000Z</time>
      </trkpt>
      <trkpt lat="42.95632" lon="1.13818">
        <ele>792</ele>
        <time>2025-09-20T08:17:28.000Z</time>
      </trkpt>
      <trkpt lat="42.9563" lon="1.13818">
        <ele>793</ele>
        <time>2025-09-20T08:17:29.000Z</time>
      </trkpt>
      <trkpt lat="42.95627" lon="1.13817">
        <ele>793</ele>
        <time>2025-09-20T08:17:30.000Z</time>
      </trkpt>
      <trkpt lat="42.95624" lon="1.13815">
        <ele>794</ele>
        <time>2025-09-20T08:17:31.000Z</time>
      </trkpt>
      <trkpt lat="42.95621" lon="1.13814">
        <ele>794</ele>
        <time>2025-09-20T08:17:32.000Z</time>
      </trkpt>
      <trkpt lat="42.95619" lon="1.13813">
        <ele>793</ele>
        <time>2025-09-20T08:17:33.000Z</time>
      </trkpt>
      <trkpt lat="42.95617" lon="1.13812">
        <ele>793</ele>
        <time>2025-09-20T08:17:34.000Z</time>
      </trkpt>
      <trkpt lat="42.95614" lon="1.13811">
        <ele>793</ele>
        <time>2025-09-20T08:17:35.000Z</time>
      </trkpt>
      <trkpt lat="42.95612" lon="1.13811">
        <ele>790</ele>
        <time>2025-09-20T08:17:36.000Z</time>
      </trkpt>
      <trkpt lat="42.95609" lon="1.1381">
        <ele>789</ele>
        <time>2025-09-20T08:17:37.000Z</time>
      </trkpt>
      <trkpt lat="42.95607" lon="1.1381">
        <ele>789</ele>
        <time>2025-09-20T08:17:38.000Z</time>
      </trkpt>
      <trkpt lat="42.95604" lon="1.13809">
        <ele>789</ele>
        <time>2025-09-20T08:17:39.000Z</time>
      </trkpt>
      <trkpt lat="42.95601" lon="1.13809">
        <ele>789</ele>
        <time>2025-09-20T08:17:40.000Z</time>
      </trkpt>
      <trkpt lat="42.95599" lon="1.1381">
        <ele>789</ele>
        <time>2025-09-20T08:17:41.000Z</time>
      </trkpt>
      <trkpt lat="42.95595" lon="1.1381">
        <ele>790</ele>
        <time>2025-09-20T08:17:42.000Z</time>
      </trkpt>
      <trkpt lat="42.95592" lon="1.1381">
        <ele>790</ele>
        <time>2025-09-20T08:17:43.000Z</time>
      </trkpt>
      <trkpt lat="42.95589" lon="1.1381">
        <ele>789</ele>
        <time>2025-09-20T08:17:44.000Z</time>
      </trkpt>
      <trkpt lat="42.95586" lon="1.1381">
        <ele>789</ele>
        <time>2025-09-20T08:17:45.000Z</time>
      </trkpt>
      <trkpt lat="42.95583" lon="1.13809">
        <ele>789</ele>
        <time>2025-09-20T08:17:46.000Z</time>
      </trkpt>
      <trkpt lat="42.9558" lon="1.13808">
        <ele>789</ele>
        <time>2025-09-20T08:17:47.000Z</time>
      </trkpt>
      <trkpt lat="42.95577" lon="1.13807">
        <ele>789</ele>
        <time>2025-09-20T08:17:48.000Z</time>
      </trkpt>
      <trkpt lat="42.95575" lon="1.13805">
        <ele>789</ele>
        <time>2025-09-20T08:17:49.000Z</time>
      </trkpt>
      <trkpt lat="42.95573" lon="1.13802">
        <ele>790</ele>
        <time>2025-09-20T08:17:50.000Z</time>
      </trkpt>
      <trkpt lat="42.95572" lon="1.13798">
        <ele>790</ele>
        <time>2025-09-20T08:17:51.000Z</time>
      </trkpt>
      <trkpt lat="42.95572" lon="1.13794">
        <ele>791</ele>
        <time>2025-09-20T08:17:52.000Z</time>
      </trkpt>
      <trkpt lat="42.95571" lon="1.1379">
        <ele>791</ele>
        <time>2025-09-20T08:17:53.000Z</time>
      </trkpt>
      <trkpt lat="42.9557" lon="1.13786">
        <ele>792</ele>
        <time>2025-09-20T08:17:54.000Z</time>
      </trkpt>
      <trkpt lat="42.95568" lon="1.13782">
        <ele>793</ele>
        <time>2025-09-20T08:17:55.000Z</time>
      </trkpt>
      <trkpt lat="42.95566" lon="1.13779">
        <ele>793</ele>
        <time>2025-09-20T08:17:56.000Z</time>
      </trkpt>
      <trkpt lat="42.95563" lon="1.13777">
        <ele>794</ele>
        <time>2025-09-20T08:17:57.000Z</time>
      </trkpt>
      <trkpt lat="42.95561" lon="1.13775">
        <ele>795</ele>
        <time>2025-09-20T08:17:58.000Z</time>
      </trkpt>
      <trkpt lat="42.95559" lon="1.13773">
        <ele>795</ele>
        <time>2025-09-20T08:17:59.000Z</time>
      </trkpt>
      <trkpt lat="42.95557" lon="1.13771">
        <ele>796</ele>
        <time>2025-09-20T08:18:00.000Z</time>
      </trkpt>
      <trkpt lat="42.95555" lon="1.1377">
        <ele>796</ele>
        <time>2025-09-20T08:18:01.000Z</time>
      </trkpt>
      <trkpt lat="42.95554" lon="1.13769">
        <ele>796</ele>
        <time>2025-09-20T08:18:02.000Z</time>
      </trkpt>
      <trkpt lat="42.95551" lon="1.13768">
        <ele>796</ele>
        <time>2025-09-20T08:18:03.000Z</time>
      </trkpt>
      <trkpt lat="42.95548" lon="1.13768">
        <ele>797</ele>
        <time>2025-09-20T08:18:04.000Z</time>
      </trkpt>
      <trkpt lat="42.95546" lon="1.13767">
        <ele>796</ele>
        <time>2025-09-20T08:18:05.000Z</time>
      </trkpt>
      <trkpt lat="42.95543" lon="1.13766">
        <ele>796</ele>
        <time>2025-09-20T08:18:06.000Z</time>
      </trkpt>
      <trkpt lat="42.9554" lon="1.13766">
        <ele>795</ele>
        <time>2025-09-20T08:18:07.000Z</time>
      </trkpt>
      <trkpt lat="42.95538" lon="1.13766">
        <ele>796</ele>
        <time>2025-09-20T08:18:08.000Z</time>
      </trkpt>
      <trkpt lat="42.95536" lon="1.13765">
        <ele>796</ele>
        <time>2025-09-20T08:18:09.000Z</time>
      </trkpt>
      <trkpt lat="42.95534" lon="1.13764">
        <ele>796</ele>
        <time>2025-09-20T08:18:10.000Z</time>
      </trkpt>
      <trkpt lat="42.95533" lon="1.13764">
        <ele>796</ele>
        <time>2025-09-20T08:18:11.000Z</time>
      </trkpt>
      <trkpt lat="42.95531" lon="1.13763">
        <ele>797</ele>
        <time>2025-09-20T08:18:12.000Z</time>
      </trkpt>
      <trkpt lat="42.95529" lon="1.13763">
        <ele>797</ele>
        <time>2025-09-20T08:18:13.000Z</time>
      </trkpt>
      <trkpt lat="42.95527" lon="1.13763">
        <ele>797</ele>
        <time>2025-09-20T08:18:14.000Z</time>
      </trkpt>
      <trkpt lat="42.95525" lon="1.13763">
        <ele>797</ele>
        <time>2025-09-20T08:18:15.000Z</time>
      </trkpt>
      <trkpt lat="42.95523" lon="1.13762">
        <ele>797</ele>
        <time>2025-09-20T08:18:16.000Z</time>
      </trkpt>
      <trkpt lat="42.9552" lon="1.13762">
        <ele>798</ele>
        <time>2025-09-20T08:18:17.000Z</time>
      </trkpt>
      <trkpt lat="42.95518" lon="1.13761">
        <ele>798</ele>
        <time>2025-09-20T08:18:18.000Z</time>
      </trkpt>
      <trkpt lat="42.95516" lon="1.13759">
        <ele>798</ele>
        <time>2025-09-20T08:18:19.000Z</time>
      </trkpt>
      <trkpt lat="42.95513" lon="1.13758">
        <ele>798</ele>
        <time>2025-09-20T08:18:20.000Z</time>
      </trkpt>
      <trkpt lat="42.95511" lon="1.13757">
        <ele>798</ele>
        <time>2025-09-20T08:18:21.000Z</time>
      </trkpt>
      <trkpt lat="42.95508" lon="1.13757">
        <ele>798</ele>
        <time>2025-09-20T08:18:22.000Z</time>
      </trkpt>
      <trkpt lat="42.95505" lon="1.13757">
        <ele>799</ele>
        <time>2025-09-20T08:18:23.000Z</time>
      </trkpt>
      <trkpt lat="42.95503" lon="1.13756">
        <ele>799</ele>
        <time>2025-09-20T08:18:24.000Z</time>
      </trkpt>
      <trkpt lat="42.955" lon="1.13756">
        <ele>799</ele>
        <time>2025-09-20T08:18:25.000Z</time>
      </trkpt>
      <trkpt lat="42.95497" lon="1.13756">
        <ele>799</ele>
        <time>2025-09-20T08:18:26.000Z</time>
      </trkpt>
      <trkpt lat="42.95494" lon="1.13756">
        <ele>799</ele>
        <time>2025-09-20T08:18:27.000Z</time>
      </trkpt>
      <trkpt lat="42.95491" lon="1.13755">
        <ele>800</ele>
        <time>2025-09-20T08:18:28.000Z</time>
      </trkpt>
      <trkpt lat="42.95489" lon="1.13755">
        <ele>800</ele>
        <time>2025-09-20T08:18:29.000Z</time>
      </trkpt>
      <trkpt lat="42.95487" lon="1.13755">
        <ele>800</ele>
        <time>2025-09-20T08:18:30.000Z</time>
      </trkpt>
      <trkpt lat="42.95485" lon="1.13755">
        <ele>800</ele>
        <time>2025-09-20T08:18:31.000Z</time>
      </trkpt>
      <trkpt lat="42.95483" lon="1.13754">
        <ele>800</ele>
        <time>2025-09-20T08:18:32.000Z</time>
      </trkpt>
      <trkpt lat="42.9548" lon="1.13754">
        <ele>801</ele>
        <time>2025-09-20T08:18:33.000Z</time>
      </trkpt>
      <trkpt lat="42.95478" lon="1.13754">
        <ele>801</ele>
        <time>2025-09-20T08:18:34.000Z</time>
      </trkpt>
      <trkpt lat="42.95476" lon="1.13754">
        <ele>802</ele>
        <time>2025-09-20T08:18:35.000Z</time>
      </trkpt>
      <trkpt lat="42.95474" lon="1.13754">
        <ele>802</ele>
        <time>2025-09-20T08:18:36.000Z</time>
      </trkpt>
      <trkpt lat="42.95472" lon="1.13754">
        <ele>803</ele>
        <time>2025-09-20T08:18:37.000Z</time>
      </trkpt>
      <trkpt lat="42.95469" lon="1.13755">
        <ele>804</ele>
        <time>2025-09-20T08:18:38.000Z</time>
      </trkpt>
      <trkpt lat="42.95467" lon="1.13754">
        <ele>805</ele>
        <time>2025-09-20T08:18:39.000Z</time>
      </trkpt>
      <trkpt lat="42.95465" lon="1.13753">
        <ele>805</ele>
        <time>2025-09-20T08:18:40.000Z</time>
      </trkpt>
      <trkpt lat="42.95463" lon="1.13752">
        <ele>805</ele>
        <time>2025-09-20T08:18:41.000Z</time>
      </trkpt>
      <trkpt lat="42.95461" lon="1.13752">
        <ele>805</ele>
        <time>2025-09-20T08:18:42.000Z</time>
      </trkpt>
      <trkpt lat="42.95459" lon="1.13753">
        <ele>806</ele>
        <time>2025-09-20T08:18:43.000Z</time>
      </trkpt>
      <trkpt lat="42.95457" lon="1.13754">
        <ele>806</ele>
        <time>2025-09-20T08:18:44.000Z</time>
      </trkpt>
      <trkpt lat="42.95455" lon="1.13755">
        <ele>807</ele>
        <time>2025-09-20T08:18:45.000Z</time>
      </trkpt>
      <trkpt lat="42.95452" lon="1.13756">
        <ele>808</ele>
        <time>2025-09-20T08:18:46.000Z</time>
      </trkpt>
      <trkpt lat="42.9545" lon="1.13756">
        <ele>808</ele>
        <time>2025-09-20T08:18:47.000Z</time>
      </trkpt>
      <trkpt lat="42.95448" lon="1.13756">
        <ele>808</ele>
        <time>2025-09-20T08:18:48.000Z</time>
      </trkpt>
      <trkpt lat="42.95446" lon="1.13756">
        <ele>808</ele>
        <time>2025-09-20T08:18:49.000Z</time>
      </trkpt>
      <trkpt lat="42.95443" lon="1.13756">
        <ele>808</ele>
        <time>2025-09-20T08:18:50.000Z</time>
      </trkpt>
      <trkpt lat="42.95441" lon="1.13755">
        <ele>809</ele>
        <time>2025-09-20T08:18:51.000Z</time>
      </trkpt>
      <trkpt lat="42.95439" lon="1.13755">
        <ele>809</ele>
        <time>2025-09-20T08:18:52.000Z</time>
      </trkpt>
      <trkpt lat="42.95438" lon="1.13756">
        <ele>810</ele>
        <time>2025-09-20T08:18:53.000Z</time>
      </trkpt>
      <trkpt lat="42.95435" lon="1.13756">
        <ele>810</ele>
        <time>2025-09-20T08:18:54.000Z</time>
      </trkpt>
      <trkpt lat="42.95433" lon="1.13757">
        <ele>810</ele>
        <time>2025-09-20T08:18:55.000Z</time>
      </trkpt>
      <trkpt lat="42.9543" lon="1.13756">
        <ele>811</ele>
        <time>2025-09-20T08:18:56.000Z</time>
      </trkpt>
      <trkpt lat="42.95428" lon="1.13756">
        <ele>812</ele>
        <time>2025-09-20T08:18:57.000Z</time>
      </trkpt>
      <trkpt lat="42.95425" lon="1.13754">
        <ele>812</ele>
        <time>2025-09-20T08:18:58.000Z</time>
      </trkpt>
      <trkpt lat="42.95424" lon="1.13754">
        <ele>812</ele>
        <time>2025-09-20T08:18:59.000Z</time>
      </trkpt>
      <trkpt lat="42.95422" lon="1.13753">
        <ele>812</ele>
        <time>2025-09-20T08:19:00.000Z</time>
      </trkpt>
      <trkpt lat="42.95421" lon="1.13752">
        <ele>812</ele>
        <time>2025-09-20T08:19:01.000Z</time>
      </trkpt>
      <trkpt lat="42.95419" lon="1.13751">
        <ele>812</ele>
        <time>2025-09-20T08:19:02.000Z</time>
      </trkpt>
      <trkpt lat="42.95417" lon="1.13749">
        <ele>812</ele>
        <time>2025-09-20T08:19:03.000Z</time>
      </trkpt>
      <trkpt lat="42.95415" lon="1.13748">
        <ele>813</ele>
        <time>2025-09-20T08:19:04.000Z</time>
      </trkpt>
      <trkpt lat="42.95414" lon="1.13747">
        <ele>814</ele>
        <time>2025-09-20T08:19:05.000Z</time>
      </trkpt>
      <trkpt lat="42.95412" lon="1.13745">
        <ele>815</ele>
        <time>2025-09-20T08:19:06.000Z</time>
      </trkpt>
      <trkpt lat="42.9541" lon="1.13744">
        <ele>816</ele>
        <time>2025-09-20T08:19:07.000Z</time>
      </trkpt>
      <trkpt lat="42.95409" lon="1.13742">
        <ele>816</ele>
        <time>2025-09-20T08:19:08.000Z</time>
      </trkpt>
      <trkpt lat="42.95407" lon="1.13741">
        <ele>817</ele>
        <time>2025-09-20T08:19:09.000Z</time>
      </trkpt>
      <trkpt lat="42.95405" lon="1.1374">
        <ele>818</ele>
        <time>2025-09-20T08:19:10.000Z</time>
      </trkpt>
      <trkpt lat="42.95403" lon="1.13737">
        <ele>819</ele>
        <time>2025-09-20T08:19:11.000Z</time>
      </trkpt>
      <trkpt lat="42.95401" lon="1.13736">
        <ele>819</ele>
        <time>2025-09-20T08:19:12.000Z</time>
      </trkpt>
      <trkpt lat="42.95398" lon="1.13734">
        <ele>820</ele>
        <time>2025-09-20T08:19:13.000Z</time>
      </trkpt>
      <trkpt lat="42.95397" lon="1.13731">
        <ele>820</ele>
        <time>2025-09-20T08:19:14.000Z</time>
      </trkpt>
      <trkpt lat="42.95395" lon="1.13729">
        <ele>822</ele>
        <time>2025-09-20T08:19:15.000Z</time>
      </trkpt>
      <trkpt lat="42.95393" lon="1.13726">
        <ele>823</ele>
        <time>2025-09-20T08:19:16.000Z</time>
      </trkpt>
      <trkpt lat="42.95391" lon="1.13724">
        <ele>824</ele>
        <time>2025-09-20T08:19:17.000Z</time>
      </trkpt>
      <trkpt lat="42.95389" lon="1.13722">
        <ele>825</ele>
        <time>2025-09-20T08:19:18.000Z</time>
      </trkpt>
      <trkpt lat="42.95388" lon="1.13719">
        <ele>825</ele>
        <time>2025-09-20T08:19:19.000Z</time>
      </trkpt>
      <trkpt lat="42.95386" lon="1.13717">
        <ele>825</ele>
        <time>2025-09-20T08:19:20.000Z</time>
      </trkpt>
      <trkpt lat="42.95384" lon="1.13714">
        <ele>826</ele>
        <time>2025-09-20T08:19:21.000Z</time>
      </trkpt>
      <trkpt lat="42.95382" lon="1.13712">
        <ele>826</ele>
        <time>2025-09-20T08:19:22.000Z</time>
      </trkpt>
      <trkpt lat="42.9538" lon="1.1371">
        <ele>826</ele>
        <time>2025-09-20T08:19:23.000Z</time>
      </trkpt>
      <trkpt lat="42.9538" lon="1.13707">
        <ele>827</ele>
        <time>2025-09-20T08:19:24.000Z</time>
      </trkpt>
      <trkpt lat="42.95379" lon="1.13704">
        <ele>827</ele>
        <time>2025-09-20T08:19:25.000Z</time>
      </trkpt>
      <trkpt lat="42.95378" lon="1.13702">
        <ele>828</ele>
        <time>2025-09-20T08:19:26.000Z</time>
      </trkpt>
      <trkpt lat="42.95377" lon="1.137">
        <ele>829</ele>
        <time>2025-09-20T08:19:27.000Z</time>
      </trkpt>
      <trkpt lat="42.95376" lon="1.13698">
        <ele>829</ele>
        <time>2025-09-20T08:19:28.000Z</time>
      </trkpt>
      <trkpt lat="42.95374" lon="1.13696">
        <ele>829</ele>
        <time>2025-09-20T08:19:29.000Z</time>
      </trkpt>
      <trkpt lat="42.95372" lon="1.13693">
        <ele>829</ele>
        <time>2025-09-20T08:19:30.000Z</time>
      </trkpt>
      <trkpt lat="42.9537" lon="1.13691">
        <ele>829</ele>
        <time>2025-09-20T08:19:31.000Z</time>
      </trkpt>
      <trkpt lat="42.95369" lon="1.1369">
        <ele>830</ele>
        <time>2025-09-20T08:19:32.000Z</time>
      </trkpt>
      <trkpt lat="42.95367" lon="1.13688">
        <ele>830</ele>
        <time>2025-09-20T08:19:33.000Z</time>
      </trkpt>
      <trkpt lat="42.95365" lon="1.13687">
        <ele>830</ele>
        <time>2025-09-20T08:19:34.000Z</time>
      </trkpt>
      <trkpt lat="42.95364" lon="1.13686">
        <ele>830</ele>
        <time>2025-09-20T08:19:35.000Z</time>
      </trkpt>
      <trkpt lat="42.95362" lon="1.13684">
        <ele>830</ele>
        <time>2025-09-20T08:19:36.000Z</time>
      </trkpt>
      <trkpt lat="42.9536" lon="1.13683">
        <ele>831</ele>
        <time>2025-09-20T08:19:37.000Z</time>
      </trkpt>
      <trkpt lat="42.95358" lon="1.13683">
        <ele>831</ele>
        <time>2025-09-20T08:19:38.000Z</time>
      </trkpt>
      <trkpt lat="42.95356" lon="1.13682">
        <ele>832</ele>
        <time>2025-09-20T08:19:39.000Z</time>
      </trkpt>
      <trkpt lat="42.95355" lon="1.13681">
        <ele>834</ele>
        <time>2025-09-20T08:19:40.000Z</time>
      </trkpt>
      <trkpt lat="42.95354" lon="1.1368">
        <ele>834</ele>
        <time>2025-09-20T08:19:41.000Z</time>
      </trkpt>
      <trkpt lat="42.95352" lon="1.13679">
        <ele>834</ele>
        <time>2025-09-20T08:19:42.000Z</time>
      </trkpt>
      <trkpt lat="42.9535" lon="1.13679">
        <ele>833</ele>
        <time>2025-09-20T08:19:43.000Z</time>
      </trkpt>
      <trkpt lat="42.95349" lon="1.13678">
        <ele>833</ele>
        <time>2025-09-20T08:19:44.000Z</time>
      </trkpt>
      <trkpt lat="42.95347" lon="1.13678">
        <ele>834</ele>
        <time>2025-09-20T08:19:45.000Z</time>
      </trkpt>
      <trkpt lat="42.95345" lon="1.13676">
        <ele>835</ele>
        <time>2025-09-20T08:19:46.000Z</time>
      </trkpt>
      <trkpt lat="42.95343" lon="1.13675">
        <ele>835</ele>
        <time>2025-09-20T08:19:47.000Z</time>
      </trkpt>
      <trkpt lat="42.95342" lon="1.13675">
        <ele>834</ele>
        <time>2025-09-20T08:19:48.000Z</time>
      </trkpt>
      <trkpt lat="42.95339" lon="1.13674">
        <ele>834</ele>
        <time>2025-09-20T08:19:49.000Z</time>
      </trkpt>
      <trkpt lat="42.95337" lon="1.13673">
        <ele>835</ele>
        <time>2025-09-20T08:19:50.000Z</time>
      </trkpt>
      <trkpt lat="42.95335" lon="1.13671">
        <ele>837</ele>
        <time>2025-09-20T08:19:51.000Z</time>
      </trkpt>
      <trkpt lat="42.95334" lon="1.1367">
        <ele>837</ele>
        <time>2025-09-20T08:19:52.000Z</time>
      </trkpt>
      <trkpt lat="42.95332" lon="1.13669">
        <ele>838</ele>
        <time>2025-09-20T08:19:53.000Z</time>
      </trkpt>
      <trkpt lat="42.9533" lon="1.13668">
        <ele>839</ele>
        <time>2025-09-20T08:19:54.000Z</time>
      </trkpt>
      <trkpt lat="42.95329" lon="1.13666">
        <ele>840</ele>
        <time>2025-09-20T08:19:55.000Z</time>
      </trkpt>
      <trkpt lat="42.95328" lon="1.13664">
        <ele>841</ele>
        <time>2025-09-20T08:19:56.000Z</time>
      </trkpt>
      <trkpt lat="42.95326" lon="1.13663">
        <ele>841</ele>
        <time>2025-09-20T08:19:57.000Z</time>
      </trkpt>
      <trkpt lat="42.95325" lon="1.13662">
        <ele>841</ele>
        <time>2025-09-20T08:19:58.000Z</time>
      </trkpt>
      <trkpt lat="42.95324" lon="1.13661">
        <ele>841</ele>
        <time>2025-09-20T08:19:59.000Z</time>
      </trkpt>
      <trkpt lat="42.95323" lon="1.13659">
        <ele>842</ele>
        <time>2025-09-20T08:20:00.000Z</time>
      </trkpt>
      <trkpt lat="42.95321" lon="1.13658">
        <ele>841</ele>
        <time>2025-09-20T08:20:01.000Z</time>
      </trkpt>
      <trkpt lat="42.9532" lon="1.13655">
        <ele>841</ele>
        <time>2025-09-20T08:20:02.000Z</time>
      </trkpt>
      <trkpt lat="42.95319" lon="1.13654">
        <ele>841</ele>
        <time>2025-09-20T08:20:03.000Z</time>
      </trkpt>
      <trkpt lat="42.95317" lon="1.13652">
        <ele>840</ele>
        <time>2025-09-20T08:20:04.000Z</time>
      </trkpt>
      <trkpt lat="42.95316" lon="1.13651">
        <ele>841</ele>
        <time>2025-09-20T08:20:05.000Z</time>
      </trkpt>
      <trkpt lat="42.95315" lon="1.1365">
        <ele>841</ele>
        <time>2025-09-20T08:20:06.000Z</time>
      </trkpt>
      <trkpt lat="42.95313" lon="1.13649">
        <ele>840</ele>
        <time>2025-09-20T08:20:07.000Z</time>
      </trkpt>
      <trkpt lat="42.95312" lon="1.13647">
        <ele>840</ele>
        <time>2025-09-20T08:20:08.000Z</time>
      </trkpt>
      <trkpt lat="42.95309" lon="1.13644">
        <ele>840</ele>
        <time>2025-09-20T08:20:09.000Z</time>
      </trkpt>
      <trkpt lat="42.95309" lon="1.13644">
        <ele>840</ele>
        <time>2025-09-20T08:20:10.000Z</time>
      </trkpt>
      <trkpt lat="42.95308" lon="1.13643">
        <ele>839</ele>
        <time>2025-09-20T08:20:11.000Z</time>
      </trkpt>
      <trkpt lat="42.95306" lon="1.13641">
        <ele>839</ele>
        <time>2025-09-20T08:20:12.000Z</time>
      </trkpt>
      <trkpt lat="42.95305" lon="1.1364">
        <ele>839</ele>
        <time>2025-09-20T08:20:13.000Z</time>
      </trkpt>
      <trkpt lat="42.95303" lon="1.13638">
        <ele>839</ele>
        <time>2025-09-20T08:20:14.000Z</time>
      </trkpt>
      <trkpt lat="42.95301" lon="1.13637">
        <ele>839</ele>
        <time>2025-09-20T08:20:15.000Z</time>
      </trkpt>
      <trkpt lat="42.953" lon="1.13636">
        <ele>839</ele>
        <time>2025-09-20T08:20:16.000Z</time>
      </trkpt>
      <trkpt lat="42.953" lon="1.13635">
        <ele>839</ele>
        <time>2025-09-20T08:20:17.000Z</time>
      </trkpt>
      <trkpt lat="42.95299" lon="1.13633">
        <ele>839</ele>
        <time>2025-09-20T08:20:18.000Z</time>
      </trkpt>
      <trkpt lat="42.95298" lon="1.13631">
        <ele>840</ele>
        <time>2025-09-20T08:20:19.000Z</time>
      </trkpt>
      <trkpt lat="42.95297" lon="1.1363">
        <ele>841</ele>
        <time>2025-09-20T08:20:20.000Z</time>
      </trkpt>
      <trkpt lat="42.95295" lon="1.13629">
        <ele>842</ele>
        <time>2025-09-20T08:20:21.000Z</time>
      </trkpt>
      <trkpt lat="42.95293" lon="1.13629">
        <ele>842</ele>
        <time>2025-09-20T08:20:22.000Z</time>
      </trkpt>
      <trkpt lat="42.95292" lon="1.13629">
        <ele>842</ele>
        <time>2025-09-20T08:20:23.000Z</time>
      </trkpt>
      <trkpt lat="42.9529" lon="1.13628">
        <ele>843</ele>
        <time>2025-09-20T08:20:24.000Z</time>
      </trkpt>
      <trkpt lat="42.95289" lon="1.13628">
        <ele>843</ele>
        <time>2025-09-20T08:20:25.000Z</time>
      </trkpt>
      <trkpt lat="42.95285" lon="1.13625">
        <ele>843</ele>
        <time>2025-09-20T08:20:39.000Z</time>
      </trkpt>
      <trkpt lat="42.95284" lon="1.13624">
        <ele>843</ele>
        <time>2025-09-20T08:20:40.000Z</time>
      </trkpt>
      <trkpt lat="42.95282" lon="1.13623">
        <ele>843</ele>
        <time>2025-09-20T08:20:41.000Z</time>
      </trkpt>
      <trkpt lat="42.95281" lon="1.13623">
        <ele>843</ele>
        <time>2025-09-20T08:20:42.000Z</time>
      </trkpt>
      <trkpt lat="42.9528" lon="1.13622">
        <ele>843</ele>
        <time>2025-09-20T08:20:43.000Z</time>
      </trkpt>
      <trkpt lat="42.95278" lon="1.13621">
        <ele>843</ele>
        <time>2025-09-20T08:20:44.000Z</time>
      </trkpt>
      <trkpt lat="42.95276" lon="1.13621">
        <ele>844</ele>
        <time>2025-09-20T08:20:45.000Z</time>
      </trkpt>
      <trkpt lat="42.95275" lon="1.1362">
        <ele>844</ele>
        <time>2025-09-20T08:20:46.000Z</time>
      </trkpt>
      <trkpt lat="42.95273" lon="1.13619">
        <ele>844</ele>
        <time>2025-09-20T08:20:47.000Z</time>
      </trkpt>
      <trkpt lat="42.95271" lon="1.13618">
        <ele>844</ele>
        <time>2025-09-20T08:20:48.000Z</time>
      </trkpt>
      <trkpt lat="42.9527" lon="1.13618">
        <ele>844</ele>
        <time>2025-09-20T08:20:49.000Z</time>
      </trkpt>
      <trkpt lat="42.95267" lon="1.13618">
        <ele>844</ele>
        <time>2025-09-20T08:20:50.000Z</time>
      </trkpt>
      <trkpt lat="42.95265" lon="1.13617">
        <ele>844</ele>
        <time>2025-09-20T08:20:51.000Z</time>
      </trkpt>
      <trkpt lat="42.95264" lon="1.13616">
        <ele>844</ele>
        <time>2025-09-20T08:20:52.000Z</time>
      </trkpt>
      <trkpt lat="42.95263" lon="1.13615">
        <ele>845</ele>
        <time>2025-09-20T08:20:53.000Z</time>
      </trkpt>
      <trkpt lat="42.9526" lon="1.13613">
        <ele>845</ele>
        <time>2025-09-20T08:20:54.000Z</time>
      </trkpt>
      <trkpt lat="42.95259" lon="1.13612">
        <ele>845</ele>
        <time>2025-09-20T08:20:55.000Z</time>
      </trkpt>
      <trkpt lat="42.95256" lon="1.1361">
        <ele>846</ele>
        <time>2025-09-20T08:20:56.000Z</time>
      </trkpt>
      <trkpt lat="42.95254" lon="1.13609">
        <ele>846</ele>
        <time>2025-09-20T08:20:57.000Z</time>
      </trkpt>
      <trkpt lat="42.95252" lon="1.13608">
        <ele>847</ele>
        <time>2025-09-20T08:20:58.000Z</time>
      </trkpt>
      <trkpt lat="42.9525" lon="1.13606">
        <ele>847</ele>
        <time>2025-09-20T08:20:59.000Z</time>
      </trkpt>
      <trkpt lat="42.95248" lon="1.13605">
        <ele>847</ele>
        <time>2025-09-20T08:21:00.000Z</time>
      </trkpt>
      <trkpt lat="42.95246" lon="1.13603">
        <ele>847</ele>
        <time>2025-09-20T08:21:01.000Z</time>
      </trkpt>
      <trkpt lat="42.95245" lon="1.13601">
        <ele>847</ele>
        <time>2025-09-20T08:21:02.000Z</time>
      </trkpt>
      <trkpt lat="42.95243" lon="1.136">
        <ele>846</ele>
        <time>2025-09-20T08:21:03.000Z</time>
      </trkpt>
      <trkpt lat="42.9524" lon="1.13598">
        <ele>846</ele>
        <time>2025-09-20T08:21:04.000Z</time>
      </trkpt>
      <trkpt lat="42.95238" lon="1.13597">
        <ele>847</ele>
        <time>2025-09-20T08:21:05.000Z</time>
      </trkpt>
      <trkpt lat="42.95236" lon="1.13596">
        <ele>847</ele>
        <time>2025-09-20T08:21:06.000Z</time>
      </trkpt>
      <trkpt lat="42.95234" lon="1.13595">
        <ele>848</ele>
        <time>2025-09-20T08:21:07.000Z</time>
      </trkpt>
      <trkpt lat="42.95232" lon="1.13593">
        <ele>848</ele>
        <time>2025-09-20T08:21:08.000Z</time>
      </trkpt>
      <trkpt lat="42.9523" lon="1.13592">
        <ele>848</ele>
        <time>2025-09-20T08:21:09.000Z</time>
      </trkpt>
      <trkpt lat="42.95228" lon="1.13591">
        <ele>848</ele>
        <time>2025-09-20T08:21:10.000Z</time>
      </trkpt>
      <trkpt lat="42.95226" lon="1.1359">
        <ele>849</ele>
        <time>2025-09-20T08:21:11.000Z</time>
      </trkpt>
      <trkpt lat="42.95223" lon="1.13589">
        <ele>850</ele>
        <time>2025-09-20T08:21:12.000Z</time>
      </trkpt>
      <trkpt lat="42.95221" lon="1.13588">
        <ele>850</ele>
        <time>2025-09-20T08:21:13.000Z</time>
      </trkpt>
      <trkpt lat="42.95219" lon="1.13587">
        <ele>851</ele>
        <time>2025-09-20T08:21:14.000Z</time>
      </trkpt>
      <trkpt lat="42.95218" lon="1.13587">
        <ele>851</ele>
        <time>2025-09-20T08:21:15.000Z</time>
      </trkpt>
      <trkpt lat="42.95215" lon="1.13586">
        <ele>852</ele>
        <time>2025-09-20T08:21:16.000Z</time>
      </trkpt>
      <trkpt lat="42.95214" lon="1.13585">
        <ele>852</ele>
        <time>2025-09-20T08:21:17.000Z</time>
      </trkpt>
      <trkpt lat="42.95211" lon="1.13584">
        <ele>852</ele>
        <time>2025-09-20T08:21:18.000Z</time>
      </trkpt>
      <trkpt lat="42.95208" lon="1.13583">
        <ele>852</ele>
        <time>2025-09-20T08:21:19.000Z</time>
      </trkpt>
      <trkpt lat="42.95205" lon="1.13581">
        <ele>851</ele>
        <time>2025-09-20T08:21:20.000Z</time>
      </trkpt>
      <trkpt lat="42.95202" lon="1.13578">
        <ele>852</ele>
        <time>2025-09-20T08:21:21.000Z</time>
      </trkpt>
      <trkpt lat="42.95199" lon="1.13576">
        <ele>852</ele>
        <time>2025-09-20T08:21:22.000Z</time>
      </trkpt>
      <trkpt lat="42.95196" lon="1.13575">
        <ele>853</ele>
        <time>2025-09-20T08:21:23.000Z</time>
      </trkpt>
      <trkpt lat="42.95194" lon="1.13574">
        <ele>853</ele>
        <time>2025-09-20T08:21:24.000Z</time>
      </trkpt>
      <trkpt lat="42.95192" lon="1.13573">
        <ele>853</ele>
        <time>2025-09-20T08:21:25.000Z</time>
      </trkpt>
      <trkpt lat="42.9519" lon="1.13572">
        <ele>852</ele>
        <time>2025-09-20T08:21:26.000Z</time>
      </trkpt>
      <trkpt lat="42.95187" lon="1.1357">
        <ele>852</ele>
        <time>2025-09-20T08:21:27.000Z</time>
      </trkpt>
      <trkpt lat="42.95184" lon="1.13567">
        <ele>853</ele>
        <time>2025-09-20T08:21:28.000Z</time>
      </trkpt>
      <trkpt lat="42.95182" lon="1.13565">
        <ele>853</ele>
        <time>2025-09-20T08:21:29.000Z</time>
      </trkpt>
      <trkpt lat="42.9518" lon="1.13563">
        <ele>853</ele>
        <time>2025-09-20T08:21:30.000Z</time>
      </trkpt>
      <trkpt lat="42.95179" lon="1.13561">
        <ele>853</ele>
        <time>2025-09-20T08:21:31.000Z</time>
      </trkpt>
      <trkpt lat="42.95177" lon="1.13561">
        <ele>853</ele>
        <time>2025-09-20T08:21:32.000Z</time>
      </trkpt>
      <trkpt lat="42.95176" lon="1.1356">
        <ele>854</ele>
        <time>2025-09-20T08:21:48.000Z</time>
      </trkpt>
      <trkpt lat="42.95176" lon="1.13559">
        <ele>853</ele>
        <time>2025-09-20T08:21:49.000Z</time>
      </trkpt>
      <trkpt lat="42.95175" lon="1.13558">
        <ele>853</ele>
        <time>2025-09-20T08:21:50.000Z</time>
      </trkpt>
      <trkpt lat="42.95173" lon="1.13557">
        <ele>854</ele>
        <time>2025-09-20T08:21:51.000Z</time>
      </trkpt>
      <trkpt lat="42.95172" lon="1.13557">
        <ele>853</ele>
        <time>2025-09-20T08:21:52.000Z</time>
      </trkpt>
      <trkpt lat="42.95171" lon="1.13556">
        <ele>853</ele>
        <time>2025-09-20T08:21:53.000Z</time>
      </trkpt>
      <trkpt lat="42.9517" lon="1.13556">
        <ele>853</ele>
        <time>2025-09-20T08:21:54.000Z</time>
      </trkpt>
      <trkpt lat="42.95169" lon="1.13555">
        <ele>853</ele>
        <time>2025-09-20T08:21:55.000Z</time>
      </trkpt>
      <trkpt lat="42.95167" lon="1.13555">
        <ele>854</ele>
        <time>2025-09-20T08:21:56.000Z</time>
      </trkpt>
      <trkpt lat="42.95165" lon="1.13556">
        <ele>854</ele>
        <time>2025-09-20T08:21:57.000Z</time>
      </trkpt>
      <trkpt lat="42.95164" lon="1.13556">
        <ele>854</ele>
        <time>2025-09-20T08:21:58.000Z</time>
      </trkpt>
      <trkpt lat="42.95162" lon="1.13557">
        <ele>853</ele>
        <time>2025-09-20T08:21:59.000Z</time>
      </trkpt>
      <trkpt lat="42.9516" lon="1.13557">
        <ele>854</ele>
        <time>2025-09-20T08:22:00.000Z</time>
      </trkpt>
      <trkpt lat="42.95157" lon="1.13557">
        <ele>854</ele>
        <time>2025-09-20T08:22:01.000Z</time>
      </trkpt>
      <trkpt lat="42.95155" lon="1.13558">
        <ele>854</ele>
        <time>2025-09-20T08:22:02.000Z</time>
      </trkpt>
      <trkpt lat="42.95154" lon="1.13558">
        <ele>854</ele>
        <time>2025-09-20T08:22:03.000Z</time>
      </trkpt>
      <trkpt lat="42.95152" lon="1.13559">
        <ele>855</ele>
        <time>2025-09-20T08:22:04.000Z</time>
      </trkpt>
      <trkpt lat="42.95149" lon="1.13559">
        <ele>855</ele>
        <time>2025-09-20T08:22:05.000Z</time>
      </trkpt>
      <trkpt lat="42.95148" lon="1.13559">
        <ele>855</ele>
        <time>2025-09-20T08:22:06.000Z</time>
      </trkpt>
      <trkpt lat="42.95146" lon="1.13559">
        <ele>855</ele>
        <time>2025-09-20T08:22:07.000Z</time>
      </trkpt>
      <trkpt lat="42.95144" lon="1.13559">
        <ele>856</ele>
        <time>2025-09-20T08:22:08.000Z</time>
      </trkpt>
      <trkpt lat="42.95141" lon="1.13559">
        <ele>855</ele>
        <time>2025-09-20T08:22:09.000Z</time>
      </trkpt>
      <trkpt lat="42.9514" lon="1.13559">
        <ele>855</ele>
        <time>2025-09-20T08:22:10.000Z</time>
      </trkpt>
      <trkpt lat="42.95138" lon="1.13558">
        <ele>855</ele>
        <time>2025-09-20T08:22:11.000Z</time>
      </trkpt>
      <trkpt lat="42.95135" lon="1.13559">
        <ele>855</ele>
        <time>2025-09-20T08:22:12.000Z</time>
      </trkpt>
      <trkpt lat="42.95133" lon="1.13559">
        <ele>855</ele>
        <time>2025-09-20T08:22:13.000Z</time>
      </trkpt>
      <trkpt lat="42.9513" lon="1.13559">
        <ele>855</ele>
        <time>2025-09-20T08:22:14.000Z</time>
      </trkpt>
      <trkpt lat="42.95128" lon="1.13559">
        <ele>856</ele>
        <time>2025-09-20T08:22:15.000Z</time>
      </trkpt>
      <trkpt lat="42.95126" lon="1.13558">
        <ele>856</ele>
        <time>2025-09-20T08:22:16.000Z</time>
      </trkpt>
      <trkpt lat="42.95123" lon="1.13558">
        <ele>856</ele>
        <time>2025-09-20T08:22:17.000Z</time>
      </trkpt>
      <trkpt lat="42.95121" lon="1.13557">
        <ele>856</ele>
        <time>2025-09-20T08:22:18.000Z</time>
      </trkpt>
      <trkpt lat="42.95119" lon="1.13556">
        <ele>856</ele>
        <time>2025-09-20T08:22:19.000Z</time>
      </trkpt>
      <trkpt lat="42.95117" lon="1.13555">
        <ele>857</ele>
        <time>2025-09-20T08:22:20.000Z</time>
      </trkpt>
      <trkpt lat="42.95115" lon="1.13555">
        <ele>857</ele>
        <time>2025-09-20T08:22:21.000Z</time>
      </trkpt>
      <trkpt lat="42.95114" lon="1.13555">
        <ele>858</ele>
        <time>2025-09-20T08:22:22.000Z</time>
      </trkpt>
      <trkpt lat="42.95112" lon="1.13554">
        <ele>858</ele>
        <time>2025-09-20T08:22:23.000Z</time>
      </trkpt>
      <trkpt lat="42.9511" lon="1.13554">
        <ele>858</ele>
        <time>2025-09-20T08:22:24.000Z</time>
      </trkpt>
      <trkpt lat="42.95108" lon="1.13554">
        <ele>859</ele>
        <time>2025-09-20T08:22:25.000Z</time>
      </trkpt>
      <trkpt lat="42.95105" lon="1.13554">
        <ele>859</ele>
        <time>2025-09-20T08:22:26.000Z</time>
      </trkpt>
      <trkpt lat="42.95104" lon="1.13554">
        <ele>859</ele>
        <time>2025-09-20T08:22:27.000Z</time>
      </trkpt>
      <trkpt lat="42.95103" lon="1.13554">
        <ele>858</ele>
        <time>2025-09-20T08:22:28.000Z</time>
      </trkpt>
      <trkpt lat="42.95101" lon="1.13554">
        <ele>858</ele>
        <time>2025-09-20T08:22:29.000Z</time>
      </trkpt>
      <trkpt lat="42.951" lon="1.13555">
        <ele>859</ele>
        <time>2025-09-20T08:22:30.000Z</time>
      </trkpt>
      <trkpt lat="42.951" lon="1.13555">
        <ele>859</ele>
        <time>2025-09-20T08:22:31.000Z</time>
      </trkpt>
      <trkpt lat="42.95099" lon="1.13554">
        <ele>858</ele>
        <time>2025-09-20T08:22:32.000Z</time>
      </trkpt>
      <trkpt lat="42.95099" lon="1.13552">
        <ele>858</ele>
        <time>2025-09-20T08:22:33.000Z</time>
      </trkpt>
      <trkpt lat="42.95101" lon="1.13551">
        <ele>858</ele>
        <time>2025-09-20T08:22:34.000Z</time>
      </trkpt>
      <trkpt lat="42.95103" lon="1.13549">
        <ele>857</ele>
        <time>2025-09-20T08:22:35.000Z</time>
      </trkpt>
      <trkpt lat="42.95105" lon="1.13545">
        <ele>856</ele>
        <time>2025-09-20T08:22:36.000Z</time>
      </trkpt>
      <trkpt lat="42.95107" lon="1.13542">
        <ele>855</ele>
        <time>2025-09-20T08:22:37.000Z</time>
      </trkpt>
      <trkpt lat="42.95108" lon="1.13538">
        <ele>853</ele>
        <time>2025-09-20T08:22:38.000Z</time>
      </trkpt>
      <trkpt lat="42.95111" lon="1.13534">
        <ele>851</ele>
        <time>2025-09-20T08:22:39.000Z</time>
      </trkpt>
      <trkpt lat="42.95114" lon="1.13529">
        <ele>849</ele>
        <time>2025-09-20T08:22:40.000Z</time>
      </trkpt>
      <trkpt lat="42.95115" lon="1.13523">
        <ele>846</ele>
        <time>2025-09-20T08:22:41.000Z</time>
      </trkpt>
      <trkpt lat="42.95117" lon="1.13517">
        <ele>846</ele>
        <time>2025-09-20T08:22:42.000Z</time>
      </trkpt>
      <trkpt lat="42.95118" lon="1.13513">
        <ele>845</ele>
        <time>2025-09-20T08:22:43.000Z</time>
      </trkpt>
      <trkpt lat="42.9512" lon="1.13509">
        <ele>845</ele>
        <time>2025-09-20T08:22:44.000Z</time>
      </trkpt>
      <trkpt lat="42.9512" lon="1.13507">
        <ele>845</ele>
        <time>2025-09-20T08:22:45.000Z</time>
      </trkpt>
      <trkpt lat="42.9512" lon="1.13508">
        <ele>846</ele>
        <time>2025-09-20T08:22:46.000Z</time>
      </trkpt>
      <trkpt lat="42.95121" lon="1.13507">
        <ele>847</ele>
        <time>2025-09-20T08:22:47.000Z</time>
      </trkpt>
      <trkpt lat="42.95124" lon="1.13502">
        <ele>850</ele>
        <time>2025-09-20T08:25:06.000Z</time>
      </trkpt>
      <trkpt lat="42.95124" lon="1.13501">
        <ele>850</ele>
        <time>2025-09-20T08:25:07.000Z</time>
      </trkpt>
      <trkpt lat="42.95125" lon="1.135">
        <ele>850</ele>
        <time>2025-09-20T08:25:08.000Z</time>
      </trkpt>
      <trkpt lat="42.95126" lon="1.13498">
        <ele>849</ele>
        <time>2025-09-20T08:25:09.000Z</time>
      </trkpt>
      <trkpt lat="42.95128" lon="1.13496">
        <ele>849</ele>
        <time>2025-09-20T08:25:10.000Z</time>
      </trkpt>
      <trkpt lat="42.9513" lon="1.13494">
        <ele>848</ele>
        <time>2025-09-20T08:25:11.000Z</time>
      </trkpt>
      <trkpt lat="42.95133" lon="1.13492">
        <ele>847</ele>
        <time>2025-09-20T08:25:12.000Z</time>
      </trkpt>
      <trkpt lat="42.95137" lon="1.13489">
        <ele>846</ele>
        <time>2025-09-20T08:25:13.000Z</time>
      </trkpt>
      <trkpt lat="42.9514" lon="1.13487">
        <ele>845</ele>
        <time>2025-09-20T08:25:14.000Z</time>
      </trkpt>
      <trkpt lat="42.95143" lon="1.13483">
        <ele>843</ele>
        <time>2025-09-20T08:25:15.000Z</time>
      </trkpt>
      <trkpt lat="42.95147" lon="1.1348">
        <ele>843</ele>
        <time>2025-09-20T08:25:16.000Z</time>
      </trkpt>
      <trkpt lat="42.9515" lon="1.13475">
        <ele>842</ele>
        <time>2025-09-20T08:25:17.000Z</time>
      </trkpt>
      <trkpt lat="42.95152" lon="1.13469">
        <ele>843</ele>
        <time>2025-09-20T08:25:18.000Z</time>
      </trkpt>
      <trkpt lat="42.95153" lon="1.1346">
        <ele>844</ele>
        <time>2025-09-20T08:25:19.000Z</time>
      </trkpt>
      <trkpt lat="42.95153" lon="1.13454">
        <ele>845</ele>
        <time>2025-09-20T08:25:20.000Z</time>
      </trkpt>
      <trkpt lat="42.95154" lon="1.13449">
        <ele>845</ele>
        <time>2025-09-20T08:25:21.000Z</time>
      </trkpt>
      <trkpt lat="42.95154" lon="1.13445">
        <ele>846</ele>
        <time>2025-09-20T08:25:22.000Z</time>
      </trkpt>
      <trkpt lat="42.95154" lon="1.1344">
        <ele>847</ele>
        <time>2025-09-20T08:25:23.000Z</time>
      </trkpt>
      <trkpt lat="42.95154" lon="1.13435">
        <ele>847</ele>
        <time>2025-09-20T08:25:24.000Z</time>
      </trkpt>
      <trkpt lat="42.95155" lon="1.1343">
        <ele>846</ele>
        <time>2025-09-20T08:25:25.000Z</time>
      </trkpt>
      <trkpt lat="42.95156" lon="1.13425">
        <ele>846</ele>
        <time>2025-09-20T08:25:26.000Z</time>
      </trkpt>
      <trkpt lat="42.95158" lon="1.13419">
        <ele>845</ele>
        <time>2025-09-20T08:25:27.000Z</time>
      </trkpt>
      <trkpt lat="42.95159" lon="1.13413">
        <ele>845</ele>
        <time>2025-09-20T08:25:28.000Z</time>
      </trkpt>
      <trkpt lat="42.9516" lon="1.13405">
        <ele>843</ele>
        <time>2025-09-20T08:25:29.000Z</time>
      </trkpt>
      <trkpt lat="42.9516" lon="1.13398">
        <ele>842</ele>
        <time>2025-09-20T08:25:30.000Z</time>
      </trkpt>
      <trkpt lat="42.9516" lon="1.13393">
        <ele>842</ele>
        <time>2025-09-20T08:25:31.000Z</time>
      </trkpt>
      <trkpt lat="42.9516" lon="1.13388">
        <ele>842</ele>
        <time>2025-09-20T08:25:32.000Z</time>
      </trkpt>
      <trkpt lat="42.95159" lon="1.13382">
        <ele>843</ele>
        <time>2025-09-20T08:25:33.000Z</time>
      </trkpt>
      <trkpt lat="42.95159" lon="1.13377">
        <ele>843</ele>
        <time>2025-09-20T08:25:34.000Z</time>
      </trkpt>
      <trkpt lat="42.95158" lon="1.13372">
        <ele>843</ele>
        <time>2025-09-20T08:25:35.000Z</time>
      </trkpt>
      <trkpt lat="42.95158" lon="1.13368">
        <ele>844</ele>
        <time>2025-09-20T08:25:36.000Z</time>
      </trkpt>
      <trkpt lat="42.95156" lon="1.13362">
        <ele>844</ele>
        <time>2025-09-20T08:25:37.000Z</time>
      </trkpt>
      <trkpt lat="42.95156" lon="1.13357">
        <ele>845</ele>
        <time>2025-09-20T08:25:38.000Z</time>
      </trkpt>
      <trkpt lat="42.95156" lon="1.13353">
        <ele>845</ele>
        <time>2025-09-20T08:25:39.000Z</time>
      </trkpt>
      <trkpt lat="42.95156" lon="1.13351">
        <ele>846</ele>
        <time>2025-09-20T08:25:40.000Z</time>
      </trkpt>
      <trkpt lat="42.95157" lon="1.1335">
        <ele>846</ele>
        <time>2025-09-20T08:25:41.000Z</time>
      </trkpt>
      <trkpt lat="42.95157" lon="1.13348">
        <ele>847</ele>
        <time>2025-09-20T08:25:42.000Z</time>
      </trkpt>
      <trkpt lat="42.95157" lon="1.13345">
        <ele>848</ele>
        <time>2025-09-20T08:25:43.000Z</time>
      </trkpt>
      <trkpt lat="42.95157" lon="1.13341">
        <ele>848</ele>
        <time>2025-09-20T08:25:44.000Z</time>
      </trkpt>
      <trkpt lat="42.95157" lon="1.13339">
        <ele>849</ele>
        <time>2025-09-20T08:25:45.000Z</time>
      </trkpt>
      <trkpt lat="42.95156" lon="1.13336">
        <ele>850</ele>
        <time>2025-09-20T08:25:46.000Z</time>
      </trkpt>
      <trkpt lat="42.95156" lon="1.13334">
        <ele>850</ele>
        <time>2025-09-20T08:25:47.000Z</time>
      </trkpt>
      <trkpt lat="42.95155" lon="1.13331">
        <ele>851</ele>
        <time>2025-09-20T08:25:48.000Z</time>
      </trkpt>
      <trkpt lat="42.95154" lon="1.13329">
        <ele>851</ele>
        <time>2025-09-20T08:25:49.000Z</time>
      </trkpt>
      <trkpt lat="42.95153" lon="1.13328">
        <ele>851</ele>
        <time>2025-09-20T08:25:50.000Z</time>
      </trkpt>
      <trkpt lat="42.95152" lon="1.13326">
        <ele>852</ele>
        <time>2025-09-20T08:25:51.000Z</time>
      </trkpt>
      <trkpt lat="42.95152" lon="1.13324">
        <ele>852</ele>
        <time>2025-09-20T08:25:52.000Z</time>
      </trkpt>
      <trkpt lat="42.95152" lon="1.13322">
        <ele>852</ele>
        <time>2025-09-20T08:25:53.000Z</time>
      </trkpt>
      <trkpt lat="42.95152" lon="1.13319">
        <ele>852</ele>
        <time>2025-09-20T08:25:54.000Z</time>
      </trkpt>
      <trkpt lat="42.95152" lon="1.13317">
        <ele>852</ele>
        <time>2025-09-20T08:25:55.000Z</time>
      </trkpt>
      <trkpt lat="42.95152" lon="1.13315">
        <ele>852</ele>
        <time>2025-09-20T08:25:56.000Z</time>
      </trkpt>
      <trkpt lat="42.95152" lon="1.13313">
        <ele>852</ele>
        <time>2025-09-20T08:25:57.000Z</time>
      </trkpt>
      <trkpt lat="42.95152" lon="1.13311">
        <ele>853</ele>
        <time>2025-09-20T08:25:58.000Z</time>
      </trkpt>
      <trkpt lat="42.95152" lon="1.13309">
        <ele>853</ele>
        <time>2025-09-20T08:25:59.000Z</time>
      </trkpt>
      <trkpt lat="42.95152" lon="1.13306">
        <ele>852</ele>
        <time>2025-09-20T08:26:00.000Z</time>
      </trkpt>
      <trkpt lat="42.95152" lon="1.13303">
        <ele>853</ele>
        <time>2025-09-20T08:26:01.000Z</time>
      </trkpt>
      <trkpt lat="42.95152" lon="1.133">
        <ele>852</ele>
        <time>2025-09-20T08:26:02.000Z</time>
      </trkpt>
      <trkpt lat="42.95152" lon="1.13298">
        <ele>853</ele>
        <time>2025-09-20T08:26:03.000Z</time>
      </trkpt>
      <trkpt lat="42.95152" lon="1.13296">
        <ele>853</ele>
        <time>2025-09-20T08:26:04.000Z</time>
      </trkpt>
      <trkpt lat="42.95153" lon="1.13294">
        <ele>853</ele>
        <time>2025-09-20T08:26:05.000Z</time>
      </trkpt>
      <trkpt lat="42.95154" lon="1.13293">
        <ele>853</ele>
        <time>2025-09-20T08:26:06.000Z</time>
      </trkpt>
      <trkpt lat="42.95155" lon="1.13292">
        <ele>853</ele>
        <time>2025-09-20T08:26:07.000Z</time>
      </trkpt>
      <trkpt lat="42.95156" lon="1.13291">
        <ele>853</ele>
        <time>2025-09-20T08:26:08.000Z</time>
      </trkpt>
      <trkpt lat="42.95157" lon="1.13289">
        <ele>853</ele>
        <time>2025-09-20T08:26:09.000Z</time>
      </trkpt>
      <trkpt lat="42.95159" lon="1.13288">
        <ele>853</ele>
        <time>2025-09-20T08:26:10.000Z</time>
      </trkpt>
      <trkpt lat="42.9516" lon="1.13286">
        <ele>852</ele>
        <time>2025-09-20T08:26:11.000Z</time>
      </trkpt>
      <trkpt lat="42.95162" lon="1.13284">
        <ele>852</ele>
        <time>2025-09-20T08:26:12.000Z</time>
      </trkpt>
      <trkpt lat="42.95163" lon="1.13282">
        <ele>852</ele>
        <time>2025-09-20T08:26:13.000Z</time>
      </trkpt>
      <trkpt lat="42.95165" lon="1.13282">
        <ele>853</ele>
        <time>2025-09-20T08:26:14.000Z</time>
      </trkpt>
      <trkpt lat="42.95167" lon="1.13282">
        <ele>853</ele>
        <time>2025-09-20T08:26:15.000Z</time>
      </trkpt>
      <trkpt lat="42.95169" lon="1.13282">
        <ele>853</ele>
        <time>2025-09-20T08:26:16.000Z</time>
      </trkpt>
      <trkpt lat="42.95171" lon="1.13282">
        <ele>854</ele>
        <time>2025-09-20T08:26:17.000Z</time>
      </trkpt>
      <trkpt lat="42.95173" lon="1.13282">
        <ele>854</ele>
        <time>2025-09-20T08:26:18.000Z</time>
      </trkpt>
      <trkpt lat="42.95175" lon="1.13282">
        <ele>855</ele>
        <time>2025-09-20T08:26:19.000Z</time>
      </trkpt>
      <trkpt lat="42.95178" lon="1.13281">
        <ele>856</ele>
        <time>2025-09-20T08:26:20.000Z</time>
      </trkpt>
      <trkpt lat="42.9518" lon="1.13281">
        <ele>856</ele>
        <time>2025-09-20T08:26:21.000Z</time>
      </trkpt>
      <trkpt lat="42.95182" lon="1.13281">
        <ele>856</ele>
        <time>2025-09-20T08:26:22.000Z</time>
      </trkpt>
      <trkpt lat="42.95185" lon="1.13281">
        <ele>856</ele>
        <time>2025-09-20T08:26:23.000Z</time>
      </trkpt>
      <trkpt lat="42.95187" lon="1.13281">
        <ele>856</ele>
        <time>2025-09-20T08:26:24.000Z</time>
      </trkpt>
      <trkpt lat="42.95189" lon="1.13281">
        <ele>856</ele>
        <time>2025-09-20T08:26:25.000Z</time>
      </trkpt>
      <trkpt lat="42.95191" lon="1.13282">
        <ele>857</ele>
        <time>2025-09-20T08:26:26.000Z</time>
      </trkpt>
      <trkpt lat="42.95194" lon="1.13282">
        <ele>858</ele>
        <time>2025-09-20T08:26:27.000Z</time>
      </trkpt>
      <trkpt lat="42.95196" lon="1.13283">
        <ele>858</ele>
        <time>2025-09-20T08:26:28.000Z</time>
      </trkpt>
      <trkpt lat="42.95198" lon="1.13282">
        <ele>859</ele>
        <time>2025-09-20T08:26:29.000Z</time>
      </trkpt>
      <trkpt lat="42.952" lon="1.13281">
        <ele>859</ele>
        <time>2025-09-20T08:26:30.000Z</time>
      </trkpt>
      <trkpt lat="42.95202" lon="1.1328">
        <ele>859</ele>
        <time>2025-09-20T08:26:31.000Z</time>
      </trkpt>
      <trkpt lat="42.95204" lon="1.13279">
        <ele>859</ele>
        <time>2025-09-20T08:26:32.000Z</time>
      </trkpt>
      <trkpt lat="42.95206" lon="1.13279">
        <ele>859</ele>
        <time>2025-09-20T08:26:33.000Z</time>
      </trkpt>
      <trkpt lat="42.95208" lon="1.13279">
        <ele>859</ele>
        <time>2025-09-20T08:26:34.000Z</time>
      </trkpt>
      <trkpt lat="42.95211" lon="1.13279">
        <ele>859</ele>
        <time>2025-09-20T08:26:35.000Z</time>
      </trkpt>
      <trkpt lat="42.95213" lon="1.13278">
        <ele>859</ele>
        <time>2025-09-20T08:26:36.000Z</time>
      </trkpt>
      <trkpt lat="42.95215" lon="1.13278">
        <ele>859</ele>
        <time>2025-09-20T08:26:37.000Z</time>
      </trkpt>
      <trkpt lat="42.95217" lon="1.13278">
        <ele>858</ele>
        <time>2025-09-20T08:26:38.000Z</time>
      </trkpt>
      <trkpt lat="42.9522" lon="1.13278">
        <ele>858</ele>
        <time>2025-09-20T08:26:39.000Z</time>
      </trkpt>
      <trkpt lat="42.95222" lon="1.13277">
        <ele>858</ele>
        <time>2025-09-20T08:26:40.000Z</time>
      </trkpt>
      <trkpt lat="42.95224" lon="1.13277">
        <ele>857</ele>
        <time>2025-09-20T08:26:41.000Z</time>
      </trkpt>
      <trkpt lat="42.95226" lon="1.13277">
        <ele>858</ele>
        <time>2025-09-20T08:26:42.000Z</time>
      </trkpt>
      <trkpt lat="42.95228" lon="1.13277">
        <ele>858</ele>
        <time>2025-09-20T08:26:43.000Z</time>
      </trkpt>
      <trkpt lat="42.95231" lon="1.13278">
        <ele>859</ele>
        <time>2025-09-20T08:26:44.000Z</time>
      </trkpt>
      <trkpt lat="42.95233" lon="1.13278">
        <ele>859</ele>
        <time>2025-09-20T08:26:45.000Z</time>
      </trkpt>
      <trkpt lat="42.95236" lon="1.13278">
        <ele>859</ele>
        <time>2025-09-20T08:26:46.000Z</time>
      </trkpt>
      <trkpt lat="42.95238" lon="1.13278">
        <ele>860</ele>
        <time>2025-09-20T08:26:47.000Z</time>
      </trkpt>
      <trkpt lat="42.9524" lon="1.13278">
        <ele>860</ele>
        <time>2025-09-20T08:26:48.000Z</time>
      </trkpt>
      <trkpt lat="42.95243" lon="1.13278">
        <ele>860</ele>
        <time>2025-09-20T08:26:49.000Z</time>
      </trkpt>
      <trkpt lat="42.95245" lon="1.13278">
        <ele>860</ele>
        <time>2025-09-20T08:26:50.000Z</time>
      </trkpt>
      <trkpt lat="42.95248" lon="1.13278">
        <ele>861</ele>
        <time>2025-09-20T08:26:51.000Z</time>
      </trkpt>
      <trkpt lat="42.95251" lon="1.13278">
        <ele>861</ele>
        <time>2025-09-20T08:26:52.000Z</time>
      </trkpt>
      <trkpt lat="42.95253" lon="1.13279">
        <ele>862</ele>
        <time>2025-09-20T08:26:53.000Z</time>
      </trkpt>
      <trkpt lat="42.95256" lon="1.13279">
        <ele>861</ele>
        <time>2025-09-20T08:26:54.000Z</time>
      </trkpt>
      <trkpt lat="42.95259" lon="1.1328">
        <ele>862</ele>
        <time>2025-09-20T08:26:55.000Z</time>
      </trkpt>
      <trkpt lat="42.95262" lon="1.1328">
        <ele>863</ele>
        <time>2025-09-20T08:26:56.000Z</time>
      </trkpt>
      <trkpt lat="42.95265" lon="1.1328">
        <ele>864</ele>
        <time>2025-09-20T08:26:57.000Z</time>
      </trkpt>
      <trkpt lat="42.95268" lon="1.1328">
        <ele>864</ele>
        <time>2025-09-20T08:26:58.000Z</time>
      </trkpt>
      <trkpt lat="42.95271" lon="1.13281">
        <ele>865</ele>
        <time>2025-09-20T08:26:59.000Z</time>
      </trkpt>
      <trkpt lat="42.95274" lon="1.13281">
        <ele>865</ele>
        <time>2025-09-20T08:27:00.000Z</time>
      </trkpt>
      <trkpt lat="42.95277" lon="1.13281">
        <ele>865</ele>
        <time>2025-09-20T08:27:01.000Z</time>
      </trkpt>
      <trkpt lat="42.95279" lon="1.13281">
        <ele>866</ele>
        <time>2025-09-20T08:27:02.000Z</time>
      </trkpt>
      <trkpt lat="42.95281" lon="1.13281">
        <ele>866</ele>
        <time>2025-09-20T08:27:03.000Z</time>
      </trkpt>
      <trkpt lat="42.95282" lon="1.13281">
        <ele>866</ele>
        <time>2025-09-20T08:27:04.000Z</time>
      </trkpt>
      <trkpt lat="42.95284" lon="1.13282">
        <ele>866</ele>
        <time>2025-09-20T08:27:05.000Z</time>
      </trkpt>
      <trkpt lat="42.95286" lon="1.13282">
        <ele>866</ele>
        <time>2025-09-20T08:27:06.000Z</time>
      </trkpt>
      <trkpt lat="42.95288" lon="1.13281">
        <ele>867</ele>
        <time>2025-09-20T08:27:07.000Z</time>
      </trkpt>
      <trkpt lat="42.9529" lon="1.13281">
        <ele>868</ele>
        <time>2025-09-20T08:27:08.000Z</time>
      </trkpt>
      <trkpt lat="42.95292" lon="1.13281">
        <ele>868</ele>
        <time>2025-09-20T08:27:09.000Z</time>
      </trkpt>
      <trkpt lat="42.95295" lon="1.1328">
        <ele>868</ele>
        <time>2025-09-20T08:27:10.000Z</time>
      </trkpt>
      <trkpt lat="42.95297" lon="1.13278">
        <ele>867</ele>
        <time>2025-09-20T08:27:11.000Z</time>
      </trkpt>
      <trkpt lat="42.95299" lon="1.13276">
        <ele>866</ele>
        <time>2025-09-20T08:27:12.000Z</time>
      </trkpt>
      <trkpt lat="42.95301" lon="1.13275">
        <ele>866</ele>
        <time>2025-09-20T08:27:13.000Z</time>
      </trkpt>
      <trkpt lat="42.95303" lon="1.13274">
        <ele>866</ele>
        <time>2025-09-20T08:27:14.000Z</time>
      </trkpt>
      <trkpt lat="42.95304" lon="1.13273">
        <ele>867</ele>
        <time>2025-09-20T08:27:15.000Z</time>
      </trkpt>
      <trkpt lat="42.95306" lon="1.13272">
        <ele>867</ele>
        <time>2025-09-20T08:27:16.000Z</time>
      </trkpt>
      <trkpt lat="42.95308" lon="1.13272">
        <ele>866</ele>
        <time>2025-09-20T08:27:17.000Z</time>
      </trkpt>
      <trkpt lat="42.9531" lon="1.13271">
        <ele>866</ele>
        <time>2025-09-20T08:27:18.000Z</time>
      </trkpt>
      <trkpt lat="42.95313" lon="1.13269">
        <ele>865</ele>
        <time>2025-09-20T08:27:19.000Z</time>
      </trkpt>
      <trkpt lat="42.95316" lon="1.13267">
        <ele>864</ele>
        <time>2025-09-20T08:27:20.000Z</time>
      </trkpt>
      <trkpt lat="42.95319" lon="1.13265">
        <ele>865</ele>
        <time>2025-09-20T08:27:21.000Z</time>
      </trkpt>
      <trkpt lat="42.95322" lon="1.13263">
        <ele>866</ele>
        <time>2025-09-20T08:27:22.000Z</time>
      </trkpt>
      <trkpt lat="42.95325" lon="1.13261">
        <ele>866</ele>
        <time>2025-09-20T08:27:23.000Z</time>
      </trkpt>
      <trkpt lat="42.95328" lon="1.13259">
        <ele>867</ele>
        <time>2025-09-20T08:27:24.000Z</time>
      </trkpt>
      <trkpt lat="42.9533" lon="1.1326">
        <ele>869</ele>
        <time>2025-09-20T08:27:25.000Z</time>
      </trkpt>
      <trkpt lat="42.95333" lon="1.13261">
        <ele>870</ele>
        <time>2025-09-20T08:27:26.000Z</time>
      </trkpt>
      <trkpt lat="42.95335" lon="1.13263">
        <ele>870</ele>
        <time>2025-09-20T08:27:27.000Z</time>
      </trkpt>
      <trkpt lat="42.95337" lon="1.13264">
        <ele>869</ele>
        <time>2025-09-20T08:27:28.000Z</time>
      </trkpt>
      <trkpt lat="42.95339" lon="1.13267">
        <ele>869</ele>
        <time>2025-09-20T08:27:29.000Z</time>
      </trkpt>
      <trkpt lat="42.95341" lon="1.13269">
        <ele>869</ele>
        <time>2025-09-20T08:27:30.000Z</time>
      </trkpt>
      <trkpt lat="42.95345" lon="1.1327">
        <ele>868</ele>
        <time>2025-09-20T08:27:31.000Z</time>
      </trkpt>
      <trkpt lat="42.95348" lon="1.13273">
        <ele>867</ele>
        <time>2025-09-20T08:27:32.000Z</time>
      </trkpt>
      <trkpt lat="42.95351" lon="1.13275">
        <ele>866</ele>
        <time>2025-09-20T08:27:33.000Z</time>
      </trkpt>
      <trkpt lat="42.95356" lon="1.13279">
        <ele>865</ele>
        <time>2025-09-20T08:27:34.000Z</time>
      </trkpt>
      <trkpt lat="42.9536" lon="1.13281">
        <ele>864</ele>
        <time>2025-09-20T08:27:35.000Z</time>
      </trkpt>
      <trkpt lat="42.95365" lon="1.13283">
        <ele>864</ele>
        <time>2025-09-20T08:27:36.000Z</time>
      </trkpt>
      <trkpt lat="42.95371" lon="1.13286">
        <ele>865</ele>
        <time>2025-09-20T08:27:37.000Z</time>
      </trkpt>
      <trkpt lat="42.95376" lon="1.13287">
        <ele>865</ele>
        <time>2025-09-20T08:27:38.000Z</time>
      </trkpt>
      <trkpt lat="42.9538" lon="1.13289">
        <ele>865</ele>
        <time>2025-09-20T08:27:39.000Z</time>
      </trkpt>
      <trkpt lat="42.95386" lon="1.13289">
        <ele>866</ele>
        <time>2025-09-20T08:27:40.000Z</time>
      </trkpt>
      <trkpt lat="42.9539" lon="1.13291">
        <ele>866</ele>
        <time>2025-09-20T08:27:41.000Z</time>
      </trkpt>
      <trkpt lat="42.95393" lon="1.13293">
        <ele>866</ele>
        <time>2025-09-20T08:27:42.000Z</time>
      </trkpt>
      <trkpt lat="42.95396" lon="1.13294">
        <ele>866</ele>
        <time>2025-09-20T08:27:43.000Z</time>
      </trkpt>
      <trkpt lat="42.95399" lon="1.13294">
        <ele>866</ele>
        <time>2025-09-20T08:27:44.000Z</time>
      </trkpt>
      <trkpt lat="42.95401" lon="1.13294">
        <ele>865</ele>
        <time>2025-09-20T08:27:45.000Z</time>
      </trkpt>
      <trkpt lat="42.95403" lon="1.13294">
        <ele>865</ele>
        <time>2025-09-20T08:27:46.000Z</time>
      </trkpt>
      <trkpt lat="42.95405" lon="1.13293">
        <ele>865</ele>
        <time>2025-09-20T08:27:47.000Z</time>
      </trkpt>
      <trkpt lat="42.95406" lon="1.13291">
        <ele>865</ele>
        <time>2025-09-20T08:27:48.000Z</time>
      </trkpt>
      <trkpt lat="42.95408" lon="1.1329">
        <ele>865</ele>
        <time>2025-09-20T08:27:49.000Z</time>
      </trkpt>
      <trkpt lat="42.95409" lon="1.13289">
        <ele>865</ele>
        <time>2025-09-20T08:27:50.000Z</time>
      </trkpt>
      <trkpt lat="42.95411" lon="1.13289">
        <ele>865</ele>
        <time>2025-09-20T08:27:51.000Z</time>
      </trkpt>
      <trkpt lat="42.95412" lon="1.13288">
        <ele>865</ele>
        <time>2025-09-20T08:27:52.000Z</time>
      </trkpt>
      <trkpt lat="42.95414" lon="1.13287">
        <ele>865</ele>
        <time>2025-09-20T08:27:53.000Z</time>
      </trkpt>
      <trkpt lat="42.95415" lon="1.13285">
        <ele>865</ele>
        <time>2025-09-20T08:27:54.000Z</time>
      </trkpt>
      <trkpt lat="42.95417" lon="1.13284">
        <ele>865</ele>
        <time>2025-09-20T08:27:55.000Z</time>
      </trkpt>
      <trkpt lat="42.95418" lon="1.13284">
        <ele>865</ele>
        <time>2025-09-20T08:27:56.000Z</time>
      </trkpt>
      <trkpt lat="42.9542" lon="1.13284">
        <ele>865</ele>
        <time>2025-09-20T08:27:57.000Z</time>
      </trkpt>
      <trkpt lat="42.95421" lon="1.13283">
        <ele>865</ele>
        <time>2025-09-20T08:27:58.000Z</time>
      </trkpt>
      <trkpt lat="42.95423" lon="1.13282">
        <ele>866</ele>
        <time>2025-09-20T08:27:59.000Z</time>
      </trkpt>
      <trkpt lat="42.95424" lon="1.13281">
        <ele>866</ele>
        <time>2025-09-20T08:28:00.000Z</time>
      </trkpt>
      <trkpt lat="42.95425" lon="1.1328">
        <ele>866</ele>
        <time>2025-09-20T08:28:01.000Z</time>
      </trkpt>
      <trkpt lat="42.95427" lon="1.1328">
        <ele>866</ele>
        <time>2025-09-20T08:28:02.000Z</time>
      </trkpt>
      <trkpt lat="42.95429" lon="1.13279">
        <ele>867</ele>
        <time>2025-09-20T08:28:03.000Z</time>
      </trkpt>
      <trkpt lat="42.9543" lon="1.13278">
        <ele>866</ele>
        <time>2025-09-20T08:28:04.000Z</time>
      </trkpt>
      <trkpt lat="42.95432" lon="1.13276">
        <ele>867</ele>
        <time>2025-09-20T08:28:05.000Z</time>
      </trkpt>
      <trkpt lat="42.95434" lon="1.13275">
        <ele>867</ele>
        <time>2025-09-20T08:28:06.000Z</time>
      </trkpt>
      <trkpt lat="42.95435" lon="1.13273">
        <ele>867</ele>
        <time>2025-09-20T08:28:07.000Z</time>
      </trkpt>
      <trkpt lat="42.95437" lon="1.1327">
        <ele>867</ele>
        <time>2025-09-20T08:28:08.000Z</time>
      </trkpt>
      <trkpt lat="42.95438" lon="1.13268">
        <ele>867</ele>
        <time>2025-09-20T08:28:09.000Z</time>
      </trkpt>
      <trkpt lat="42.95439" lon="1.13267">
        <ele>866</ele>
        <time>2025-09-20T08:28:10.000Z</time>
      </trkpt>
      <trkpt lat="42.95439" lon="1.13266">
        <ele>866</ele>
        <time>2025-09-20T08:28:11.000Z</time>
      </trkpt>
      <trkpt lat="42.9544" lon="1.13269">
        <ele>865</ele>
        <time>2025-09-20T08:28:12.000Z</time>
      </trkpt>
      <trkpt lat="42.95444" lon="1.13263">
        <ele>865</ele>
        <time>2025-09-20T08:28:26.000Z</time>
      </trkpt>
      <trkpt lat="42.95445" lon="1.13262">
        <ele>865</ele>
        <time>2025-09-20T08:28:27.000Z</time>
      </trkpt>
      <trkpt lat="42.95446" lon="1.13261">
        <ele>864</ele>
        <time>2025-09-20T08:28:28.000Z</time>
      </trkpt>
      <trkpt lat="42.95448" lon="1.13259">
        <ele>863</ele>
        <time>2025-09-20T08:28:29.000Z</time>
      </trkpt>
      <trkpt lat="42.95449" lon="1.13258">
        <ele>862</ele>
        <time>2025-09-20T08:28:30.000Z</time>
      </trkpt>
      <trkpt lat="42.95451" lon="1.13257">
        <ele>861</ele>
        <time>2025-09-20T08:28:31.000Z</time>
      </trkpt>
      <trkpt lat="42.95453" lon="1.13256">
        <ele>860</ele>
        <time>2025-09-20T08:28:32.000Z</time>
      </trkpt>
      <trkpt lat="42.95454" lon="1.13254">
        <ele>860</ele>
        <time>2025-09-20T08:28:33.000Z</time>
      </trkpt>
      <trkpt lat="42.95455" lon="1.13252">
        <ele>860</ele>
        <time>2025-09-20T08:28:34.000Z</time>
      </trkpt>
      <trkpt lat="42.95456" lon="1.13249">
        <ele>860</ele>
        <time>2025-09-20T08:28:35.000Z</time>
      </trkpt>
      <trkpt lat="42.95457" lon="1.13246">
        <ele>859</ele>
        <time>2025-09-20T08:28:36.000Z</time>
      </trkpt>
      <trkpt lat="42.95457" lon="1.13243">
        <ele>860</ele>
        <time>2025-09-20T08:28:37.000Z</time>
      </trkpt>
      <trkpt lat="42.95458" lon="1.1324">
        <ele>860</ele>
        <time>2025-09-20T08:28:38.000Z</time>
      </trkpt>
      <trkpt lat="42.9546" lon="1.13238">
        <ele>861</ele>
        <time>2025-09-20T08:28:39.000Z</time>
      </trkpt>
      <trkpt lat="42.95462" lon="1.13238">
        <ele>861</ele>
        <time>2025-09-20T08:28:40.000Z</time>
      </trkpt>
      <trkpt lat="42.95463" lon="1.13236">
        <ele>861</ele>
        <time>2025-09-20T08:28:41.000Z</time>
      </trkpt>
      <trkpt lat="42.95465" lon="1.13235">
        <ele>862</ele>
        <time>2025-09-20T08:28:42.000Z</time>
      </trkpt>
      <trkpt lat="42.95466" lon="1.13234">
        <ele>862</ele>
        <time>2025-09-20T08:28:43.000Z</time>
      </trkpt>
      <trkpt lat="42.95467" lon="1.13234">
        <ele>863</ele>
        <time>2025-09-20T08:28:44.000Z</time>
      </trkpt>
      <trkpt lat="42.95469" lon="1.13234">
        <ele>863</ele>
        <time>2025-09-20T08:28:45.000Z</time>
      </trkpt>
      <trkpt lat="42.9547" lon="1.13234">
        <ele>863</ele>
        <time>2025-09-20T08:28:46.000Z</time>
      </trkpt>
      <trkpt lat="42.95473" lon="1.13234">
        <ele>862</ele>
        <time>2025-09-20T08:28:47.000Z</time>
      </trkpt>
      <trkpt lat="42.95476" lon="1.13234">
        <ele>862</ele>
        <time>2025-09-20T08:28:48.000Z</time>
      </trkpt>
      <trkpt lat="42.9548" lon="1.13234">
        <ele>862</ele>
        <time>2025-09-20T08:28:49.000Z</time>
      </trkpt>
      <trkpt lat="42.95484" lon="1.13234">
        <ele>862</ele>
        <time>2025-09-20T08:28:50.000Z</time>
      </trkpt>
      <trkpt lat="42.95488" lon="1.13232">
        <ele>862</ele>
        <time>2025-09-20T08:28:51.000Z</time>
      </trkpt>
      <trkpt lat="42.95494" lon="1.13229">
        <ele>860</ele>
        <time>2025-09-20T08:28:52.000Z</time>
      </trkpt>
      <trkpt lat="42.95501" lon="1.13223">
        <ele>857</ele>
        <time>2025-09-20T08:28:53.000Z</time>
      </trkpt>
      <trkpt lat="42.9551" lon="1.13216">
        <ele>854</ele>
        <time>2025-09-20T08:28:54.000Z</time>
      </trkpt>
      <trkpt lat="42.95519" lon="1.13206">
        <ele>850</ele>
        <time>2025-09-20T08:28:55.000Z</time>
      </trkpt>
      <trkpt lat="42.9553" lon="1.13194">
        <ele>849</ele>
        <time>2025-09-20T08:28:56.000Z</time>
      </trkpt>
      <trkpt lat="42.95539" lon="1.13186">
        <ele>850</ele>
        <time>2025-09-20T08:28:57.000Z</time>
      </trkpt>
      <trkpt lat="42.95548" lon="1.13177">
        <ele>849</ele>
        <time>2025-09-20T08:28:58.000Z</time>
      </trkpt>
      <trkpt lat="42.95556" lon="1.13168">
        <ele>849</ele>
        <time>2025-09-20T08:28:59.000Z</time>
      </trkpt>
      <trkpt lat="42.95564" lon="1.13159">
        <ele>848</ele>
        <time>2025-09-20T08:29:00.000Z</time>
      </trkpt>
      <trkpt lat="42.95571" lon="1.13148">
        <ele>846</ele>
        <time>2025-09-20T08:29:01.000Z</time>
      </trkpt>
      <trkpt lat="42.95578" lon="1.13137">
        <ele>845</ele>
        <time>2025-09-20T08:29:02.000Z</time>
      </trkpt>
      <trkpt lat="42.95585" lon="1.13127">
        <ele>844</ele>
        <time>2025-09-20T08:29:03.000Z</time>
      </trkpt>
      <trkpt lat="42.95592" lon="1.13118">
        <ele>843</ele>
        <time>2025-09-20T08:29:04.000Z</time>
      </trkpt>
      <trkpt lat="42.95598" lon="1.13111">
        <ele>842</ele>
        <time>2025-09-20T08:29:05.000Z</time>
      </trkpt>
      <trkpt lat="42.95604" lon="1.13106">
        <ele>840</ele>
        <time>2025-09-20T08:29:06.000Z</time>
      </trkpt>
      <trkpt lat="42.9561" lon="1.131">
        <ele>839</ele>
        <time>2025-09-20T08:29:07.000Z</time>
      </trkpt>
      <trkpt lat="42.95615" lon="1.13093">
        <ele>838</ele>
        <time>2025-09-20T08:29:08.000Z</time>
      </trkpt>
      <trkpt lat="42.95618" lon="1.13085">
        <ele>837</ele>
        <time>2025-09-20T08:29:09.000Z</time>
      </trkpt>
      <trkpt lat="42.95619" lon="1.13075">
        <ele>835</ele>
        <time>2025-09-20T08:29:10.000Z</time>
      </trkpt>
      <trkpt lat="42.9562" lon="1.13066">
        <ele>834</ele>
        <time>2025-09-20T08:29:11.000Z</time>
      </trkpt>
      <trkpt lat="42.95621" lon="1.13058">
        <ele>834</ele>
        <time>2025-09-20T08:29:12.000Z</time>
      </trkpt>
      <trkpt lat="42.95624" lon="1.13051">
        <ele>833</ele>
        <time>2025-09-20T08:29:13.000Z</time>
      </trkpt>
      <trkpt lat="42.95628" lon="1.13043">
        <ele>833</ele>
        <time>2025-09-20T08:29:14.000Z</time>
      </trkpt>
      <trkpt lat="42.95632" lon="1.13036">
        <ele>833</ele>
        <time>2025-09-20T08:29:15.000Z</time>
      </trkpt>
      <trkpt lat="42.95636" lon="1.13027">
        <ele>833</ele>
        <time>2025-09-20T08:29:16.000Z</time>
      </trkpt>
      <trkpt lat="42.95641" lon="1.13018">
        <ele>832</ele>
        <time>2025-09-20T08:29:17.000Z</time>
      </trkpt>
      <trkpt lat="42.95646" lon="1.13009">
        <ele>830</ele>
        <time>2025-09-20T08:29:18.000Z</time>
      </trkpt>
      <trkpt lat="42.95651" lon="1.13">
        <ele>828</ele>
        <time>2025-09-20T08:29:19.000Z</time>
      </trkpt>
      <trkpt lat="42.95656" lon="1.12989">
        <ele>826</ele>
        <time>2025-09-20T08:29:20.000Z</time>
      </trkpt>
      <trkpt lat="42.95659" lon="1.12977">
        <ele>825</ele>
        <time>2025-09-20T08:29:21.000Z</time>
      </trkpt>
      <trkpt lat="42.95661" lon="1.12964">
        <ele>824</ele>
        <time>2025-09-20T08:29:22.000Z</time>
      </trkpt>
      <trkpt lat="42.95661" lon="1.12951">
        <ele>824</ele>
        <time>2025-09-20T08:29:23.000Z</time>
      </trkpt>
      <trkpt lat="42.95662" lon="1.12938">
        <ele>823</ele>
        <time>2025-09-20T08:29:24.000Z</time>
      </trkpt>
      <trkpt lat="42.95662" lon="1.12926">
        <ele>822</ele>
        <time>2025-09-20T08:29:25.000Z</time>
      </trkpt>
      <trkpt lat="42.95663" lon="1.12915">
        <ele>821</ele>
        <time>2025-09-20T08:29:26.000Z</time>
      </trkpt>
      <trkpt lat="42.95664" lon="1.12903">
        <ele>821</ele>
        <time>2025-09-20T08:29:27.000Z</time>
      </trkpt>
      <trkpt lat="42.95663" lon="1.12893">
        <ele>821</ele>
        <time>2025-09-20T08:29:28.000Z</time>
      </trkpt>
      <trkpt lat="42.95663" lon="1.12884">
        <ele>821</ele>
        <time>2025-09-20T08:29:29.000Z</time>
      </trkpt>
      <trkpt lat="42.95665" lon="1.12876">
        <ele>820</ele>
        <time>2025-09-20T08:29:30.000Z</time>
      </trkpt>
      <trkpt lat="42.95666" lon="1.12868">
        <ele>820</ele>
        <time>2025-09-20T08:29:31.000Z</time>
      </trkpt>
      <trkpt lat="42.95668" lon="1.1286">
        <ele>819</ele>
        <time>2025-09-20T08:29:32.000Z</time>
      </trkpt>
      <trkpt lat="42.9567" lon="1.12852">
        <ele>817</ele>
        <time>2025-09-20T08:29:33.000Z</time>
      </trkpt>
      <trkpt lat="42.95672" lon="1.12845">
        <ele>816</ele>
        <time>2025-09-20T08:29:34.000Z</time>
      </trkpt>
      <trkpt lat="42.95674" lon="1.12838">
        <ele>815</ele>
        <time>2025-09-20T08:29:35.000Z</time>
      </trkpt>
      <trkpt lat="42.95678" lon="1.12833">
        <ele>814</ele>
        <time>2025-09-20T08:29:36.000Z</time>
      </trkpt>
      <trkpt lat="42.95683" lon="1.12829">
        <ele>813</ele>
        <time>2025-09-20T08:29:37.000Z</time>
      </trkpt>
      <trkpt lat="42.95688" lon="1.12824">
        <ele>813</ele>
        <time>2025-09-20T08:29:38.000Z</time>
      </trkpt>
      <trkpt lat="42.95693" lon="1.12818">
        <ele>813</ele>
        <time>2025-09-20T08:29:39.000Z</time>
      </trkpt>
      <trkpt lat="42.95699" lon="1.12811">
        <ele>812</ele>
        <time>2025-09-20T08:29:40.000Z</time>
      </trkpt>
      <trkpt lat="42.95704" lon="1.12805">
        <ele>811</ele>
        <time>2025-09-20T08:29:41.000Z</time>
      </trkpt>
      <trkpt lat="42.95709" lon="1.12799">
        <ele>812</ele>
        <time>2025-09-20T08:29:42.000Z</time>
      </trkpt>
      <trkpt lat="42.95715" lon="1.12794">
        <ele>811</ele>
        <time>2025-09-20T08:29:43.000Z</time>
      </trkpt>
      <trkpt lat="42.95719" lon="1.12787">
        <ele>812</ele>
        <time>2025-09-20T08:29:44.000Z</time>
      </trkpt>
      <trkpt lat="42.95723" lon="1.12779">
        <ele>811</ele>
        <time>2025-09-20T08:29:45.000Z</time>
      </trkpt>
      <trkpt lat="42.95726" lon="1.12771">
        <ele>812</ele>
        <time>2025-09-20T08:29:46.000Z</time>
      </trkpt>
      <trkpt lat="42.95728" lon="1.12763">
        <ele>812</ele>
        <time>2025-09-20T08:29:47.000Z</time>
      </trkpt>
      <trkpt lat="42.9573" lon="1.12756">
        <ele>812</ele>
        <time>2025-09-20T08:29:48.000Z</time>
      </trkpt>
      <trkpt lat="42.95733" lon="1.12751">
        <ele>812</ele>
        <time>2025-09-20T08:29:49.000Z</time>
      </trkpt>
      <trkpt lat="42.95734" lon="1.12748">
        <ele>813</ele>
        <time>2025-09-20T08:29:50.000Z</time>
      </trkpt>
      <trkpt lat="42.95737" lon="1.12745">
        <ele>813</ele>
        <time>2025-09-20T08:29:51.000Z</time>
      </trkpt>
      <trkpt lat="42.95739" lon="1.12742">
        <ele>813</ele>
        <time>2025-09-20T08:29:52.000Z</time>
      </trkpt>
      <trkpt lat="42.9574" lon="1.12739">
        <ele>814</ele>
        <time>2025-09-20T08:29:53.000Z</time>
      </trkpt>
      <trkpt lat="42.95741" lon="1.12734">
        <ele>814</ele>
        <time>2025-09-20T08:29:54.000Z</time>
      </trkpt>
      <trkpt lat="42.9574" lon="1.12731">
        <ele>814</ele>
        <time>2025-09-20T08:29:55.000Z</time>
      </trkpt>
      <trkpt lat="42.9574" lon="1.12727">
        <ele>814</ele>
        <time>2025-09-20T08:29:56.000Z</time>
      </trkpt>
      <trkpt lat="42.95739" lon="1.12724">
        <ele>813</ele>
        <time>2025-09-20T08:29:57.000Z</time>
      </trkpt>
      <trkpt lat="42.95738" lon="1.1272">
        <ele>813</ele>
        <time>2025-09-20T08:29:58.000Z</time>
      </trkpt>
      <trkpt lat="42.95737" lon="1.12716">
        <ele>812</ele>
        <time>2025-09-20T08:29:59.000Z</time>
      </trkpt>
      <trkpt lat="42.95735" lon="1.12711">
        <ele>811</ele>
        <time>2025-09-20T08:30:00.000Z</time>
      </trkpt>
      <trkpt lat="42.95733" lon="1.12705">
        <ele>811</ele>
        <time>2025-09-20T08:30:01.000Z</time>
      </trkpt>
      <trkpt lat="42.9573" lon="1.12699">
        <ele>811</ele>
        <time>2025-09-20T08:30:02.000Z</time>
      </trkpt>
      <trkpt lat="42.95729" lon="1.12691">
        <ele>811</ele>
        <time>2025-09-20T08:30:03.000Z</time>
      </trkpt>
      <trkpt lat="42.95728" lon="1.12681">
        <ele>811</ele>
        <time>2025-09-20T08:30:04.000Z</time>
      </trkpt>
      <trkpt lat="42.95728" lon="1.12672">
        <ele>810</ele>
        <time>2025-09-20T08:30:05.000Z</time>
      </trkpt>
      <trkpt lat="42.95729" lon="1.12663">
        <ele>808</ele>
        <time>2025-09-20T08:30:06.000Z</time>
      </trkpt>
      <trkpt lat="42.95731" lon="1.12653">
        <ele>805</ele>
        <time>2025-09-20T08:30:07.000Z</time>
      </trkpt>
      <trkpt lat="42.95734" lon="1.12645">
        <ele>803</ele>
        <time>2025-09-20T08:30:08.000Z</time>
      </trkpt>
      <trkpt lat="42.95737" lon="1.12636">
        <ele>802</ele>
        <time>2025-09-20T08:30:09.000Z</time>
      </trkpt>
      <trkpt lat="42.95737" lon="1.12628">
        <ele>801</ele>
        <time>2025-09-20T08:30:10.000Z</time>
      </trkpt>
      <trkpt lat="42.9574" lon="1.12621">
        <ele>801</ele>
        <time>2025-09-20T08:30:11.000Z</time>
      </trkpt>
      <trkpt lat="42.95742" lon="1.12613">
        <ele>801</ele>
        <time>2025-09-20T08:30:12.000Z</time>
      </trkpt>
      <trkpt lat="42.95742" lon="1.12603">
        <ele>801</ele>
        <time>2025-09-20T08:30:13.000Z</time>
      </trkpt>
      <trkpt lat="42.9574" lon="1.12594">
        <ele>801</ele>
        <time>2025-09-20T08:30:14.000Z</time>
      </trkpt>
      <trkpt lat="42.9574" lon="1.12585">
        <ele>799</ele>
        <time>2025-09-20T08:30:15.000Z</time>
      </trkpt>
      <trkpt lat="42.9574" lon="1.12576">
        <ele>799</ele>
        <time>2025-09-20T08:30:16.000Z</time>
      </trkpt>
      <trkpt lat="42.95741" lon="1.12569">
        <ele>799</ele>
        <time>2025-09-20T08:30:17.000Z</time>
      </trkpt>
      <trkpt lat="42.95741" lon="1.12563">
        <ele>800</ele>
        <time>2025-09-20T08:30:18.000Z</time>
      </trkpt>
      <trkpt lat="42.95744" lon="1.12559">
        <ele>800</ele>
        <time>2025-09-20T08:30:19.000Z</time>
      </trkpt>
      <trkpt lat="42.95746" lon="1.12554">
        <ele>798</ele>
        <time>2025-09-20T08:30:20.000Z</time>
      </trkpt>
      <trkpt lat="42.9575" lon="1.12548">
        <ele>796</ele>
        <time>2025-09-20T08:30:21.000Z</time>
      </trkpt>
      <trkpt lat="42.95753" lon="1.12542">
        <ele>795</ele>
        <time>2025-09-20T08:30:22.000Z</time>
      </trkpt>
      <trkpt lat="42.95755" lon="1.12535">
        <ele>793</ele>
        <time>2025-09-20T08:30:23.000Z</time>
      </trkpt>
      <trkpt lat="42.95757" lon="1.12528">
        <ele>791</ele>
        <time>2025-09-20T08:30:24.000Z</time>
      </trkpt>
      <trkpt lat="42.95759" lon="1.12523">
        <ele>790</ele>
        <time>2025-09-20T08:30:25.000Z</time>
      </trkpt>
      <trkpt lat="42.95763" lon="1.12521">
        <ele>790</ele>
        <time>2025-09-20T08:30:26.000Z</time>
      </trkpt>
      <trkpt lat="42.95768" lon="1.1252">
        <ele>789</ele>
        <time>2025-09-20T08:30:27.000Z</time>
      </trkpt>
      <trkpt lat="42.95774" lon="1.12522">
        <ele>788</ele>
        <time>2025-09-20T08:30:28.000Z</time>
      </trkpt>
      <trkpt lat="42.95781" lon="1.12524">
        <ele>787</ele>
        <time>2025-09-20T08:30:29.000Z</time>
      </trkpt>
      <trkpt lat="42.95787" lon="1.12526">
        <ele>787</ele>
        <time>2025-09-20T08:30:30.000Z</time>
      </trkpt>
      <trkpt lat="42.95793" lon="1.12526">
        <ele>786</ele>
        <time>2025-09-20T08:30:31.000Z</time>
      </trkpt>
      <trkpt lat="42.95798" lon="1.12523">
        <ele>785</ele>
        <time>2025-09-20T08:30:32.000Z</time>
      </trkpt>
      <trkpt lat="42.95802" lon="1.12517">
        <ele>785</ele>
        <time>2025-09-20T08:30:33.000Z</time>
      </trkpt>
      <trkpt lat="42.95807" lon="1.12513">
        <ele>786</ele>
        <time>2025-09-20T08:30:34.000Z</time>
      </trkpt>
      <trkpt lat="42.95811" lon="1.12508">
        <ele>785</ele>
        <time>2025-09-20T08:30:35.000Z</time>
      </trkpt>
      <trkpt lat="42.95816" lon="1.12504">
        <ele>785</ele>
        <time>2025-09-20T08:30:36.000Z</time>
      </trkpt>
      <trkpt lat="42.95819" lon="1.125">
        <ele>786</ele>
        <time>2025-09-20T08:30:37.000Z</time>
      </trkpt>
      <trkpt lat="42.95821" lon="1.12496">
        <ele>786</ele>
        <time>2025-09-20T08:30:38.000Z</time>
      </trkpt>
      <trkpt lat="42.9582" lon="1.12492">
        <ele>786</ele>
        <time>2025-09-20T08:30:39.000Z</time>
      </trkpt>
      <trkpt lat="42.95818" lon="1.12488">
        <ele>785</ele>
        <time>2025-09-20T08:30:40.000Z</time>
      </trkpt>
      <trkpt lat="42.95817" lon="1.12484">
        <ele>784</ele>
        <time>2025-09-20T08:30:41.000Z</time>
      </trkpt>
      <trkpt lat="42.95816" lon="1.12478">
        <ele>783</ele>
        <time>2025-09-20T08:30:42.000Z</time>
      </trkpt>
      <trkpt lat="42.95816" lon="1.1247">
        <ele>782</ele>
        <time>2025-09-20T08:30:43.000Z</time>
      </trkpt>
      <trkpt lat="42.95817" lon="1.12462">
        <ele>781</ele>
        <time>2025-09-20T08:30:44.000Z</time>
      </trkpt>
      <trkpt lat="42.95818" lon="1.12452">
        <ele>780</ele>
        <time>2025-09-20T08:30:45.000Z</time>
      </trkpt>
      <trkpt lat="42.95819" lon="1.12442">
        <ele>780</ele>
        <time>2025-09-20T08:30:46.000Z</time>
      </trkpt>
      <trkpt lat="42.9582" lon="1.1243">
        <ele>778</ele>
        <time>2025-09-20T08:30:47.000Z</time>
      </trkpt>
      <trkpt lat="42.95822" lon="1.12418">
        <ele>777</ele>
        <time>2025-09-20T08:30:48.000Z</time>
      </trkpt>
      <trkpt lat="42.95824" lon="1.12404">
        <ele>775</ele>
        <time>2025-09-20T08:30:49.000Z</time>
      </trkpt>
      <trkpt lat="42.95828" lon="1.1239">
        <ele>773</ele>
        <time>2025-09-20T08:30:50.000Z</time>
      </trkpt>
      <trkpt lat="42.95831" lon="1.12374">
        <ele>771</ele>
        <time>2025-09-20T08:30:51.000Z</time>
      </trkpt>
      <trkpt lat="42.95835" lon="1.12359">
        <ele>770</ele>
        <time>2025-09-20T08:30:52.000Z</time>
      </trkpt>
      <trkpt lat="42.95836" lon="1.12342">
        <ele>768</ele>
        <time>2025-09-20T08:30:53.000Z</time>
      </trkpt>
      <trkpt lat="42.95837" lon="1.12326">
        <ele>767</ele>
        <time>2025-09-20T08:30:54.000Z</time>
      </trkpt>
      <trkpt lat="42.9584" lon="1.12309">
        <ele>765</ele>
        <time>2025-09-20T08:30:55.000Z</time>
      </trkpt>
      <trkpt lat="42.95845" lon="1.12292">
        <ele>763</ele>
        <time>2025-09-20T08:30:56.000Z</time>
      </trkpt>
      <trkpt lat="42.95851" lon="1.12275">
        <ele>761</ele>
        <time>2025-09-20T08:30:57.000Z</time>
      </trkpt>
      <trkpt lat="42.95858" lon="1.12259">
        <ele>760</ele>
        <time>2025-09-20T08:30:58.000Z</time>
      </trkpt>
      <trkpt lat="42.95866" lon="1.12243">
        <ele>759</ele>
        <time>2025-09-20T08:30:59.000Z</time>
      </trkpt>
      <trkpt lat="42.95873" lon="1.12227">
        <ele>758</ele>
        <time>2025-09-20T08:31:00.000Z</time>
      </trkpt>
      <trkpt lat="42.95882" lon="1.12213">
        <ele>759</ele>
        <time>2025-09-20T08:31:01.000Z</time>
      </trkpt>
      <trkpt lat="42.95891" lon="1.12199">
        <ele>759</ele>
        <time>2025-09-20T08:31:02.000Z</time>
      </trkpt>
      <trkpt lat="42.95899" lon="1.12184">
        <ele>758</ele>
        <time>2025-09-20T08:31:03.000Z</time>
      </trkpt>
      <trkpt lat="42.95907" lon="1.12168">
        <ele>758</ele>
        <time>2025-09-20T08:31:04.000Z</time>
      </trkpt>
      <trkpt lat="42.95914" lon="1.12153">
        <ele>756</ele>
        <time>2025-09-20T08:31:05.000Z</time>
      </trkpt>
      <trkpt lat="42.95922" lon="1.12137">
        <ele>755</ele>
        <time>2025-09-20T08:31:06.000Z</time>
      </trkpt>
      <trkpt lat="42.95929" lon="1.1212">
        <ele>753</ele>
        <time>2025-09-20T08:31:07.000Z</time>
      </trkpt>
      <trkpt lat="42.95935" lon="1.12103">
        <ele>751</ele>
        <time>2025-09-20T08:31:08.000Z</time>
      </trkpt>
      <trkpt lat="42.95942" lon="1.12085">
        <ele>749</ele>
        <time>2025-09-20T08:31:09.000Z</time>
      </trkpt>
      <trkpt lat="42.95949" lon="1.12068">
        <ele>747</ele>
        <time>2025-09-20T08:31:10.000Z</time>
      </trkpt>
      <trkpt lat="42.95957" lon="1.12052">
        <ele>746</ele>
        <time>2025-09-20T08:31:11.000Z</time>
      </trkpt>
      <trkpt lat="42.95967" lon="1.12037">
        <ele>746</ele>
        <time>2025-09-20T08:31:12.000Z</time>
      </trkpt>
      <trkpt lat="42.95975" lon="1.12024">
        <ele>745</ele>
        <time>2025-09-20T08:31:13.000Z</time>
      </trkpt>
      <trkpt lat="42.95984" lon="1.12009">
        <ele>745</ele>
        <time>2025-09-20T08:31:14.000Z</time>
      </trkpt>
      <trkpt lat="42.95992" lon="1.11994">
        <ele>745</ele>
        <time>2025-09-20T08:31:15.000Z</time>
      </trkpt>
      <trkpt lat="42.96001" lon="1.11981">
        <ele>745</ele>
        <time>2025-09-20T08:31:16.000Z</time>
      </trkpt>
      <trkpt lat="42.96009" lon="1.11968">
        <ele>745</ele>
        <time>2025-09-20T08:31:17.000Z</time>
      </trkpt>
      <trkpt lat="42.96016" lon="1.11954">
        <ele>745</ele>
        <time>2025-09-20T08:31:18.000Z</time>
      </trkpt>
      <trkpt lat="42.96022" lon="1.1194">
        <ele>743</ele>
        <time>2025-09-20T08:31:19.000Z</time>
      </trkpt>
      <trkpt lat="42.96027" lon="1.11924">
        <ele>741</ele>
        <time>2025-09-20T08:31:20.000Z</time>
      </trkpt>
      <trkpt lat="42.96032" lon="1.11908">
        <ele>739</ele>
        <time>2025-09-20T08:31:21.000Z</time>
      </trkpt>
      <trkpt lat="42.96037" lon="1.11892">
        <ele>739</ele>
        <time>2025-09-20T08:31:22.000Z</time>
      </trkpt>
      <trkpt lat="42.96043" lon="1.11875">
        <ele>738</ele>
        <time>2025-09-20T08:31:23.000Z</time>
      </trkpt>
      <trkpt lat="42.96047" lon="1.11859">
        <ele>738</ele>
        <time>2025-09-20T08:31:24.000Z</time>
      </trkpt>
      <trkpt lat="42.96053" lon="1.11845">
        <ele>738</ele>
        <time>2025-09-20T08:31:25.000Z</time>
      </trkpt>
      <trkpt lat="42.9606" lon="1.11834">
        <ele>738</ele>
        <time>2025-09-20T08:31:26.000Z</time>
      </trkpt>
      <trkpt lat="42.96068" lon="1.11824">
        <ele>739</ele>
        <time>2025-09-20T08:31:27.000Z</time>
      </trkpt>
      <trkpt lat="42.96074" lon="1.11816">
        <ele>740</ele>
        <time>2025-09-20T08:31:28.000Z</time>
      </trkpt>
      <trkpt lat="42.9608" lon="1.11807">
        <ele>740</ele>
        <time>2025-09-20T08:31:29.000Z</time>
      </trkpt>
      <trkpt lat="42.96085" lon="1.11799">
        <ele>740</ele>
        <time>2025-09-20T08:31:30.000Z</time>
      </trkpt>
      <trkpt lat="42.9609" lon="1.11791">
        <ele>741</ele>
        <time>2025-09-20T08:31:31.000Z</time>
      </trkpt>
      <trkpt lat="42.96094" lon="1.11781">
        <ele>740</ele>
        <time>2025-09-20T08:31:32.000Z</time>
      </trkpt>
      <trkpt lat="42.96097" lon="1.11771">
        <ele>740</ele>
        <time>2025-09-20T08:31:33.000Z</time>
      </trkpt>
      <trkpt lat="42.96099" lon="1.11762">
        <ele>739</ele>
        <time>2025-09-20T08:31:34.000Z</time>
      </trkpt>
      <trkpt lat="42.96102" lon="1.11752">
        <ele>738</ele>
        <time>2025-09-20T08:31:35.000Z</time>
      </trkpt>
      <trkpt lat="42.96107" lon="1.11743">
        <ele>738</ele>
        <time>2025-09-20T08:31:36.000Z</time>
      </trkpt>
      <trkpt lat="42.96113" lon="1.11736">
        <ele>738</ele>
        <time>2025-09-20T08:31:37.000Z</time>
      </trkpt>
      <trkpt lat="42.96119" lon="1.1173">
        <ele>738</ele>
        <time>2025-09-20T08:31:38.000Z</time>
      </trkpt>
      <trkpt lat="42.96126" lon="1.11724">
        <ele>737</ele>
        <time>2025-09-20T08:31:39.000Z</time>
      </trkpt>
      <trkpt lat="42.96133" lon="1.1172">
        <ele>736</ele>
        <time>2025-09-20T08:31:40.000Z</time>
      </trkpt>
      <trkpt lat="42.9614" lon="1.11716">
        <ele>736</ele>
        <time>2025-09-20T08:31:41.000Z</time>
      </trkpt>
      <trkpt lat="42.96149" lon="1.11712">
        <ele>735</ele>
        <time>2025-09-20T08:31:42.000Z</time>
      </trkpt>
      <trkpt lat="42.96158" lon="1.11712">
        <ele>734</ele>
        <time>2025-09-20T08:31:43.000Z</time>
      </trkpt>
      <trkpt lat="42.96168" lon="1.11713">
        <ele>733</ele>
        <time>2025-09-20T08:31:44.000Z</time>
      </trkpt>
      <trkpt lat="42.96177" lon="1.11717">
        <ele>732</ele>
        <time>2025-09-20T08:31:45.000Z</time>
      </trkpt>
      <trkpt lat="42.96185" lon="1.11724">
        <ele>732</ele>
        <time>2025-09-20T08:31:46.000Z</time>
      </trkpt>
      <trkpt lat="42.96193" lon="1.11733">
        <ele>731</ele>
        <time>2025-09-20T08:31:47.000Z</time>
      </trkpt>
      <trkpt lat="42.962" lon="1.11742">
        <ele>731</ele>
        <time>2025-09-20T08:31:48.000Z</time>
      </trkpt>
      <trkpt lat="42.96206" lon="1.11752">
        <ele>730</ele>
        <time>2025-09-20T08:31:49.000Z</time>
      </trkpt>
      <trkpt lat="42.96211" lon="1.11762">
        <ele>730</ele>
        <time>2025-09-20T08:31:50.000Z</time>
      </trkpt>
      <trkpt lat="42.96214" lon="1.11772">
        <ele>730</ele>
        <time>2025-09-20T08:31:51.000Z</time>
      </trkpt>
      <trkpt lat="42.96216" lon="1.11783">
        <ele>730</ele>
        <time>2025-09-20T08:31:52.000Z</time>
      </trkpt>
      <trkpt lat="42.96215" lon="1.11793">
        <ele>731</ele>
        <time>2025-09-20T08:31:53.000Z</time>
      </trkpt>
      <trkpt lat="42.96213" lon="1.11801">
        <ele>731</ele>
        <time>2025-09-20T08:31:54.000Z</time>
      </trkpt>
      <trkpt lat="42.96211" lon="1.11808">
        <ele>731</ele>
        <time>2025-09-20T08:31:55.000Z</time>
      </trkpt>
      <trkpt lat="42.96209" lon="1.11815">
        <ele>731</ele>
        <time>2025-09-20T08:31:56.000Z</time>
      </trkpt>
      <trkpt lat="42.96209" lon="1.1182">
        <ele>732</ele>
        <time>2025-09-20T08:31:57.000Z</time>
      </trkpt>
      <trkpt lat="42.96209" lon="1.11825">
        <ele>732</ele>
        <time>2025-09-20T08:31:58.000Z</time>
      </trkpt>
      <trkpt lat="42.96209" lon="1.11829">
        <ele>732</ele>
        <time>2025-09-20T08:31:59.000Z</time>
      </trkpt>
      <trkpt lat="42.96209" lon="1.11832">
        <ele>732</ele>
        <time>2025-09-20T08:32:00.000Z</time>
      </trkpt>
      <trkpt lat="42.96209" lon="1.11836">
        <ele>732</ele>
        <time>2025-09-20T08:32:01.000Z</time>
      </trkpt>
      <trkpt lat="42.96209" lon="1.11841">
        <ele>732</ele>
        <time>2025-09-20T08:32:02.000Z</time>
      </trkpt>
      <trkpt lat="42.9621" lon="1.11846">
        <ele>732</ele>
        <time>2025-09-20T08:32:03.000Z</time>
      </trkpt>
      <trkpt lat="42.9621" lon="1.11851">
        <ele>732</ele>
        <time>2025-09-20T08:32:04.000Z</time>
      </trkpt>
      <trkpt lat="42.9621" lon="1.11856">
        <ele>732</ele>
        <time>2025-09-20T08:32:05.000Z</time>
      </trkpt>
      <trkpt lat="42.9621" lon="1.1186">
        <ele>732</ele>
        <time>2025-09-20T08:32:06.000Z</time>
      </trkpt>
      <trkpt lat="42.9621" lon="1.11865">
        <ele>732</ele>
        <time>2025-09-20T08:32:07.000Z</time>
      </trkpt>
      <trkpt lat="42.9621" lon="1.1187">
        <ele>733</ele>
        <time>2025-09-20T08:32:08.000Z</time>
      </trkpt>
      <trkpt lat="42.96211" lon="1.11874">
        <ele>733</ele>
        <time>2025-09-20T08:32:09.000Z</time>
      </trkpt>
      <trkpt lat="42.96212" lon="1.11878">
        <ele>733</ele>
        <time>2025-09-20T08:32:10.000Z</time>
      </trkpt>
      <trkpt lat="42.96212" lon="1.11882">
        <ele>733</ele>
        <time>2025-09-20T08:32:11.000Z</time>
      </trkpt>
      <trkpt lat="42.96213" lon="1.11886">
        <ele>733</ele>
        <time>2025-09-20T08:32:12.000Z</time>
      </trkpt>
      <trkpt lat="42.96214" lon="1.11891">
        <ele>733</ele>
        <time>2025-09-20T08:32:13.000Z</time>
      </trkpt>
      <trkpt lat="42.96216" lon="1.11895">
        <ele>733</ele>
        <time>2025-09-20T08:32:14.000Z</time>
      </trkpt>
      <trkpt lat="42.96218" lon="1.11902">
        <ele>734</ele>
        <time>2025-09-20T08:32:15.000Z</time>
      </trkpt>
      <trkpt lat="42.9622" lon="1.11908">
        <ele>735</ele>
        <time>2025-09-20T08:32:16.000Z</time>
      </trkpt>
      <trkpt lat="42.96222" lon="1.11914">
        <ele>735</ele>
        <time>2025-09-20T08:32:17.000Z</time>
      </trkpt>
      <trkpt lat="42.96224" lon="1.11921">
        <ele>734</ele>
        <time>2025-09-20T08:32:18.000Z</time>
      </trkpt>
      <trkpt lat="42.96227" lon="1.11929">
        <ele>734</ele>
        <time>2025-09-20T08:32:19.000Z</time>
      </trkpt>
      <trkpt lat="42.96229" lon="1.11936">
        <ele>734</ele>
        <time>2025-09-20T08:32:20.000Z</time>
      </trkpt>
      <trkpt lat="42.96231" lon="1.11945">
        <ele>734</ele>
        <time>2025-09-20T08:32:21.000Z</time>
      </trkpt>
      <trkpt lat="42.96233" lon="1.11953">
        <ele>733</ele>
        <time>2025-09-20T08:32:22.000Z</time>
      </trkpt>
      <trkpt lat="42.96236" lon="1.11961">
        <ele>733</ele>
        <time>2025-09-20T08:32:23.000Z</time>
      </trkpt>
      <trkpt lat="42.96238" lon="1.1197">
        <ele>733</ele>
        <time>2025-09-20T08:32:24.000Z</time>
      </trkpt>
      <trkpt lat="42.96241" lon="1.11979">
        <ele>732</ele>
        <time>2025-09-20T08:32:25.000Z</time>
      </trkpt>
      <trkpt lat="42.96244" lon="1.11988">
        <ele>732</ele>
        <time>2025-09-20T08:32:26.000Z</time>
      </trkpt>
      <trkpt lat="42.96248" lon="1.11998">
        <ele>730</ele>
        <time>2025-09-20T08:32:27.000Z</time>
      </trkpt>
      <trkpt lat="42.96252" lon="1.12009">
        <ele>729</ele>
        <time>2025-09-20T08:32:28.000Z</time>
      </trkpt>
      <trkpt lat="42.96257" lon="1.1202">
        <ele>728</ele>
        <time>2025-09-20T08:32:29.000Z</time>
      </trkpt>
      <trkpt lat="42.96263" lon="1.12031">
        <ele>728</ele>
        <time>2025-09-20T08:32:30.000Z</time>
      </trkpt>
      <trkpt lat="42.96268" lon="1.12042">
        <ele>727</ele>
        <time>2025-09-20T08:32:31.000Z</time>
      </trkpt>
      <trkpt lat="42.96272" lon="1.12053">
        <ele>726</ele>
        <time>2025-09-20T08:32:32.000Z</time>
      </trkpt>
      <trkpt lat="42.96276" lon="1.12063">
        <ele>725</ele>
        <time>2025-09-20T08:32:33.000Z</time>
      </trkpt>
      <trkpt lat="42.96279" lon="1.12074">
        <ele>725</ele>
        <time>2025-09-20T08:32:34.000Z</time>
      </trkpt>
      <trkpt lat="42.96281" lon="1.12084">
        <ele>725</ele>
        <time>2025-09-20T08:32:35.000Z</time>
      </trkpt>
      <trkpt lat="42.96283" lon="1.12092">
        <ele>724</ele>
        <time>2025-09-20T08:32:36.000Z</time>
      </trkpt>
      <trkpt lat="42.96284" lon="1.121">
        <ele>723</ele>
        <time>2025-09-20T08:32:37.000Z</time>
      </trkpt>
      <trkpt lat="42.96286" lon="1.12107">
        <ele>722</ele>
        <time>2025-09-20T08:32:38.000Z</time>
      </trkpt>
      <trkpt lat="42.96286" lon="1.12113">
        <ele>721</ele>
        <time>2025-09-20T08:32:39.000Z</time>
      </trkpt>
      <trkpt lat="42.96286" lon="1.12118">
        <ele>721</ele>
        <time>2025-09-20T08:32:40.000Z</time>
      </trkpt>
      <trkpt lat="42.96287" lon="1.12121">
        <ele>720</ele>
        <time>2025-09-20T08:32:41.000Z</time>
      </trkpt>
      <trkpt lat="42.96289" lon="1.12122">
        <ele>719</ele>
        <time>2025-09-20T08:32:42.000Z</time>
      </trkpt>
      <trkpt lat="42.96294" lon="1.12123">
        <ele>718</ele>
        <time>2025-09-20T08:32:43.000Z</time>
      </trkpt>
      <trkpt lat="42.963" lon="1.12122">
        <ele>717</ele>
        <time>2025-09-20T08:32:44.000Z</time>
      </trkpt>
      <trkpt lat="42.96306" lon="1.12121">
        <ele>716</ele>
        <time>2025-09-20T08:32:45.000Z</time>
      </trkpt>
      <trkpt lat="42.96313" lon="1.12119">
        <ele>716</ele>
        <time>2025-09-20T08:32:46.000Z</time>
      </trkpt>
      <trkpt lat="42.96319" lon="1.12118">
        <ele>715</ele>
        <time>2025-09-20T08:32:47.000Z</time>
      </trkpt>
      <trkpt lat="42.96325" lon="1.12119">
        <ele>713</ele>
        <time>2025-09-20T08:32:48.000Z</time>
      </trkpt>
      <trkpt lat="42.96331" lon="1.1212">
        <ele>712</ele>
        <time>2025-09-20T08:32:49.000Z</time>
      </trkpt>
      <trkpt lat="42.96337" lon="1.12123">
        <ele>711</ele>
        <time>2025-09-20T08:32:50.000Z</time>
      </trkpt>
      <trkpt lat="42.96342" lon="1.12124">
        <ele>710</ele>
        <time>2025-09-20T08:32:51.000Z</time>
      </trkpt>
      <trkpt lat="42.96345" lon="1.12126">
        <ele>709</ele>
        <time>2025-09-20T08:32:52.000Z</time>
      </trkpt>
      <trkpt lat="42.96348" lon="1.12128">
        <ele>707</ele>
        <time>2025-09-20T08:32:53.000Z</time>
      </trkpt>
      <trkpt lat="42.9635" lon="1.1213">
        <ele>706</ele>
        <time>2025-09-20T08:32:54.000Z</time>
      </trkpt>
      <trkpt lat="42.96353" lon="1.12134">
        <ele>705</ele>
        <time>2025-09-20T08:32:55.000Z</time>
      </trkpt>
      <trkpt lat="42.96355" lon="1.12139">
        <ele>704</ele>
        <time>2025-09-20T08:32:56.000Z</time>
      </trkpt>
      <trkpt lat="42.96357" lon="1.12145">
        <ele>703</ele>
        <time>2025-09-20T08:32:57.000Z</time>
      </trkpt>
      <trkpt lat="42.96359" lon="1.12152">
        <ele>702</ele>
        <time>2025-09-20T08:32:58.000Z</time>
      </trkpt>
      <trkpt lat="42.96361" lon="1.12159">
        <ele>700</ele>
        <time>2025-09-20T08:32:59.000Z</time>
      </trkpt>
      <trkpt lat="42.96362" lon="1.12166">
        <ele>700</ele>
        <time>2025-09-20T08:33:00.000Z</time>
      </trkpt>
      <trkpt lat="42.96362" lon="1.12173">
        <ele>699</ele>
        <time>2025-09-20T08:33:01.000Z</time>
      </trkpt>
      <trkpt lat="42.96363" lon="1.12181">
        <ele>698</ele>
        <time>2025-09-20T08:33:02.000Z</time>
      </trkpt>
      <trkpt lat="42.96362" lon="1.1219">
        <ele>696</ele>
        <time>2025-09-20T08:33:03.000Z</time>
      </trkpt>
      <trkpt lat="42.96361" lon="1.12203">
        <ele>693</ele>
        <time>2025-09-20T08:33:04.000Z</time>
      </trkpt>
      <trkpt lat="42.96361" lon="1.12215">
        <ele>693</ele>
        <time>2025-09-20T08:33:05.000Z</time>
      </trkpt>
      <trkpt lat="42.9636" lon="1.12226">
        <ele>693</ele>
        <time>2025-09-20T08:33:06.000Z</time>
      </trkpt>
      <trkpt lat="42.96359" lon="1.12237">
        <ele>692</ele>
        <time>2025-09-20T08:33:07.000Z</time>
      </trkpt>
      <trkpt lat="42.96359" lon="1.12248">
        <ele>692</ele>
        <time>2025-09-20T08:33:08.000Z</time>
      </trkpt>
      <trkpt lat="42.96358" lon="1.12258">
        <ele>692</ele>
        <time>2025-09-20T08:33:09.000Z</time>
      </trkpt>
      <trkpt lat="42.96356" lon="1.12269">
        <ele>690</ele>
        <time>2025-09-20T08:33:10.000Z</time>
      </trkpt>
      <trkpt lat="42.96355" lon="1.1228">
        <ele>689</ele>
        <time>2025-09-20T08:33:11.000Z</time>
      </trkpt>
      <trkpt lat="42.96352" lon="1.12291">
        <ele>688</ele>
        <time>2025-09-20T08:33:12.000Z</time>
      </trkpt>
      <trkpt lat="42.96349" lon="1.12301">
        <ele>686</ele>
        <time>2025-09-20T08:33:13.000Z</time>
      </trkpt>
      <trkpt lat="42.96346" lon="1.12311">
        <ele>686</ele>
        <time>2025-09-20T08:33:14.000Z</time>
      </trkpt>
      <trkpt lat="42.96342" lon="1.1232">
        <ele>685</ele>
        <time>2025-09-20T08:33:15.000Z</time>
      </trkpt>
      <trkpt lat="42.96338" lon="1.12328">
        <ele>685</ele>
        <time>2025-09-20T08:33:16.000Z</time>
      </trkpt>
      <trkpt lat="42.96334" lon="1.12335">
        <ele>686</ele>
        <time>2025-09-20T08:33:17.000Z</time>
      </trkpt>
      <trkpt lat="42.96332" lon="1.12341">
        <ele>686</ele>
        <time>2025-09-20T08:33:18.000Z</time>
      </trkpt>
      <trkpt lat="42.96331" lon="1.12345">
        <ele>686</ele>
        <time>2025-09-20T08:33:19.000Z</time>
      </trkpt>
      <trkpt lat="42.96332" lon="1.12348">
        <ele>685</ele>
        <time>2025-09-20T08:33:20.000Z</time>
      </trkpt>
      <trkpt lat="42.96335" lon="1.12348">
        <ele>685</ele>
        <time>2025-09-20T08:33:21.000Z</time>
      </trkpt>
      <trkpt lat="42.96337" lon="1.1235">
        <ele>684</ele>
        <time>2025-09-20T08:33:22.000Z</time>
      </trkpt>
      <trkpt lat="42.96342" lon="1.1235">
        <ele>683</ele>
        <time>2025-09-20T08:33:23.000Z</time>
      </trkpt>
      <trkpt lat="42.96349" lon="1.12348">
        <ele>682</ele>
        <time>2025-09-20T08:33:24.000Z</time>
      </trkpt>
      <trkpt lat="42.96356" lon="1.12347">
        <ele>682</ele>
        <time>2025-09-20T08:33:25.000Z</time>
      </trkpt>
      <trkpt lat="42.96363" lon="1.12347">
        <ele>681</ele>
        <time>2025-09-20T08:33:26.000Z</time>
      </trkpt>
      <trkpt lat="42.96369" lon="1.12349">
        <ele>681</ele>
        <time>2025-09-20T08:33:27.000Z</time>
      </trkpt>
      <trkpt lat="42.96375" lon="1.12352">
        <ele>680</ele>
        <time>2025-09-20T08:33:28.000Z</time>
      </trkpt>
      <trkpt lat="42.96382" lon="1.12354">
        <ele>678</ele>
        <time>2025-09-20T08:33:29.000Z</time>
      </trkpt>
      <trkpt lat="42.96391" lon="1.12355">
        <ele>677</ele>
        <time>2025-09-20T08:33:30.000Z</time>
      </trkpt>
      <trkpt lat="42.964" lon="1.12358">
        <ele>675</ele>
        <time>2025-09-20T08:33:31.000Z</time>
      </trkpt>
      <trkpt lat="42.96409" lon="1.12362">
        <ele>674</ele>
        <time>2025-09-20T08:33:32.000Z</time>
      </trkpt>
      <trkpt lat="42.96417" lon="1.12366">
        <ele>673</ele>
        <time>2025-09-20T08:33:33.000Z</time>
      </trkpt>
      <trkpt lat="42.96424" lon="1.12368">
        <ele>673</ele>
        <time>2025-09-20T08:33:34.000Z</time>
      </trkpt>
      <trkpt lat="42.96432" lon="1.1237">
        <ele>672</ele>
        <time>2025-09-20T08:33:35.000Z</time>
      </trkpt>
      <trkpt lat="42.9644" lon="1.12373">
        <ele>672</ele>
        <time>2025-09-20T08:33:36.000Z</time>
      </trkpt>
      <trkpt lat="42.96448" lon="1.12376">
        <ele>671</ele>
        <time>2025-09-20T08:33:37.000Z</time>
      </trkpt>
      <trkpt lat="42.96456" lon="1.12377">
        <ele>670</ele>
        <time>2025-09-20T08:33:38.000Z</time>
      </trkpt>
      <trkpt lat="42.96463" lon="1.12379">
        <ele>670</ele>
        <time>2025-09-20T08:33:39.000Z</time>
      </trkpt>
      <trkpt lat="42.96472" lon="1.12379">
        <ele>669</ele>
        <time>2025-09-20T08:33:40.000Z</time>
      </trkpt>
      <trkpt lat="42.96479" lon="1.1238">
        <ele>667</ele>
        <time>2025-09-20T08:33:41.000Z</time>
      </trkpt>
      <trkpt lat="42.96487" lon="1.1238">
        <ele>665</ele>
        <time>2025-09-20T08:33:42.000Z</time>
      </trkpt>
      <trkpt lat="42.96493" lon="1.12381">
        <ele>663</ele>
        <time>2025-09-20T08:33:43.000Z</time>
      </trkpt>
      <trkpt lat="42.965" lon="1.12383">
        <ele>661</ele>
        <time>2025-09-20T08:33:44.000Z</time>
      </trkpt>
      <trkpt lat="42.96506" lon="1.12384">
        <ele>660</ele>
        <time>2025-09-20T08:33:45.000Z</time>
      </trkpt>
      <trkpt lat="42.96512" lon="1.12385">
        <ele>659</ele>
        <time>2025-09-20T08:33:46.000Z</time>
      </trkpt>
      <trkpt lat="42.96517" lon="1.12386">
        <ele>658</ele>
        <time>2025-09-20T08:33:47.000Z</time>
      </trkpt>
      <trkpt lat="42.96522" lon="1.12387">
        <ele>657</ele>
        <time>2025-09-20T08:33:48.000Z</time>
      </trkpt>
      <trkpt lat="42.96525" lon="1.12388">
        <ele>657</ele>
        <time>2025-09-20T08:33:49.000Z</time>
      </trkpt>
      <trkpt lat="42.96527" lon="1.12388">
        <ele>657</ele>
        <time>2025-09-20T08:33:50.000Z</time>
      </trkpt>
      <trkpt lat="42.96528" lon="1.12389">
        <ele>657</ele>
        <time>2025-09-20T08:33:51.000Z</time>
      </trkpt>
      <trkpt lat="42.96529" lon="1.12388">
        <ele>656</ele>
        <time>2025-09-20T08:33:52.000Z</time>
      </trkpt>
      <trkpt lat="42.96529" lon="1.12387">
        <ele>656</ele>
        <time>2025-09-20T08:33:53.000Z</time>
      </trkpt>
      <trkpt lat="42.96528" lon="1.12386">
        <ele>655</ele>
        <time>2025-09-20T08:33:54.000Z</time>
      </trkpt>
      <trkpt lat="42.96527" lon="1.12386">
        <ele>654</ele>
        <time>2025-09-20T08:33:55.000Z</time>
      </trkpt>
      <trkpt lat="42.96525" lon="1.12385">
        <ele>653</ele>
        <time>2025-09-20T08:33:56.000Z</time>
      </trkpt>
      <trkpt lat="42.96524" lon="1.12384">
        <ele>652</ele>
        <time>2025-09-20T08:33:57.000Z</time>
      </trkpt>
      <trkpt lat="42.96521" lon="1.12384">
        <ele>652</ele>
        <time>2025-09-20T08:33:58.000Z</time>
      </trkpt>
      <trkpt lat="42.96519" lon="1.12382">
        <ele>651</ele>
        <time>2025-09-20T08:33:59.000Z</time>
      </trkpt>
      <trkpt lat="42.96516" lon="1.12379">
        <ele>649</ele>
        <time>2025-09-20T08:34:00.000Z</time>
      </trkpt>
      <trkpt lat="42.96513" lon="1.12377">
        <ele>647</ele>
        <time>2025-09-20T08:34:01.000Z</time>
      </trkpt>
      <trkpt lat="42.96509" lon="1.12375">
        <ele>646</ele>
        <time>2025-09-20T08:34:02.000Z</time>
      </trkpt>
      <trkpt lat="42.96505" lon="1.12372">
        <ele>646</ele>
        <time>2025-09-20T08:34:03.000Z</time>
      </trkpt>
      <trkpt lat="42.96502" lon="1.12369">
        <ele>646</ele>
        <time>2025-09-20T08:34:04.000Z</time>
      </trkpt>
      <trkpt lat="42.96498" lon="1.12366">
        <ele>645</ele>
        <time>2025-09-20T08:34:05.000Z</time>
      </trkpt>
      <trkpt lat="42.96495" lon="1.12363">
        <ele>646</ele>
        <time>2025-09-20T08:34:06.000Z</time>
      </trkpt>
      <trkpt lat="42.96492" lon="1.12361">
        <ele>646</ele>
        <time>2025-09-20T08:34:07.000Z</time>
      </trkpt>
      <trkpt lat="42.96489" lon="1.1236">
        <ele>646</ele>
        <time>2025-09-20T08:34:08.000Z</time>
      </trkpt>
      <trkpt lat="42.96486" lon="1.12358">
        <ele>647</ele>
        <time>2025-09-20T08:34:09.000Z</time>
      </trkpt>
      <trkpt lat="42.96484" lon="1.12357">
        <ele>648</ele>
        <time>2025-09-20T08:34:10.000Z</time>
      </trkpt>
      <trkpt lat="42.96482" lon="1.12356">
        <ele>649</ele>
        <time>2025-09-20T08:34:11.000Z</time>
      </trkpt>
      <trkpt lat="42.96481" lon="1.12355">
        <ele>649</ele>
        <time>2025-09-20T08:34:12.000Z</time>
      </trkpt>
      <trkpt lat="42.96479" lon="1.12354">
        <ele>649</ele>
        <time>2025-09-20T08:34:13.000Z</time>
      </trkpt>
      <trkpt lat="42.9648" lon="1.12353">
        <ele>650</ele>
        <time>2025-09-20T08:34:14.000Z</time>
      </trkpt>
      <trkpt lat="42.96481" lon="1.12353">
        <ele>650</ele>
        <time>2025-09-20T08:34:15.000Z</time>
      </trkpt>
      <trkpt lat="42.96482" lon="1.12352">
        <ele>649</ele>
        <time>2025-09-20T08:34:16.000Z</time>
      </trkpt>
      <trkpt lat="42.96485" lon="1.1235">
        <ele>649</ele>
        <time>2025-09-20T08:34:17.000Z</time>
      </trkpt>
      <trkpt lat="42.96487" lon="1.12349">
        <ele>649</ele>
        <time>2025-09-20T08:34:18.000Z</time>
      </trkpt>
      <trkpt lat="42.96489" lon="1.12347">
        <ele>649</ele>
        <time>2025-09-20T08:34:19.000Z</time>
      </trkpt>
      <trkpt lat="42.96491" lon="1.12344">
        <ele>649</ele>
        <time>2025-09-20T08:34:20.000Z</time>
      </trkpt>
      <trkpt lat="42.96494" lon="1.12341">
        <ele>649</ele>
        <time>2025-09-20T08:34:21.000Z</time>
      </trkpt>
      <trkpt lat="42.96497" lon="1.12338">
        <ele>649</ele>
        <time>2025-09-20T08:34:22.000Z</time>
      </trkpt>
      <trkpt lat="42.965" lon="1.12335">
        <ele>649</ele>
        <time>2025-09-20T08:34:23.000Z</time>
      </trkpt>
      <trkpt lat="42.96503" lon="1.12332">
        <ele>649</ele>
        <time>2025-09-20T08:34:24.000Z</time>
      </trkpt>
      <trkpt lat="42.96507" lon="1.12328">
        <ele>649</ele>
        <time>2025-09-20T08:34:25.000Z</time>
      </trkpt>
      <trkpt lat="42.96511" lon="1.12325">
        <ele>649</ele>
        <time>2025-09-20T08:34:26.000Z</time>
      </trkpt>
      <trkpt lat="42.96514" lon="1.1232">
        <ele>649</ele>
        <time>2025-09-20T08:34:27.000Z</time>
      </trkpt>
      <trkpt lat="42.96518" lon="1.12316">
        <ele>649</ele>
        <time>2025-09-20T08:34:28.000Z</time>
      </trkpt>
      <trkpt lat="42.96522" lon="1.12311">
        <ele>648</ele>
        <time>2025-09-20T08:34:29.000Z</time>
      </trkpt>
      <trkpt lat="42.96525" lon="1.12306">
        <ele>648</ele>
        <time>2025-09-20T08:34:30.000Z</time>
      </trkpt>
      <trkpt lat="42.96528" lon="1.12301">
        <ele>648</ele>
        <time>2025-09-20T08:34:31.000Z</time>
      </trkpt>
      <trkpt lat="42.96532" lon="1.12295">
        <ele>649</ele>
        <time>2025-09-20T08:34:32.000Z</time>
      </trkpt>
      <trkpt lat="42.96535" lon="1.1229">
        <ele>649</ele>
        <time>2025-09-20T08:34:33.000Z</time>
      </trkpt>
      <trkpt lat="42.96538" lon="1.12285">
        <ele>649</ele>
        <time>2025-09-20T08:34:34.000Z</time>
      </trkpt>
      <trkpt lat="42.9654" lon="1.12281">
        <ele>648</ele>
        <time>2025-09-20T08:34:35.000Z</time>
      </trkpt>
      <trkpt lat="42.96543" lon="1.12277">
        <ele>648</ele>
        <time>2025-09-20T08:34:36.000Z</time>
      </trkpt>
      <trkpt lat="42.96545" lon="1.12272">
        <ele>647</ele>
        <time>2025-09-20T08:34:37.000Z</time>
      </trkpt>
      <trkpt lat="42.96549" lon="1.12266">
        <ele>648</ele>
        <time>2025-09-20T08:34:38.000Z</time>
      </trkpt>
      <trkpt lat="42.96552" lon="1.12261">
        <ele>649</ele>
        <time>2025-09-20T08:34:39.000Z</time>
      </trkpt>
      <trkpt lat="42.96555" lon="1.12255">
        <ele>649</ele>
        <time>2025-09-20T08:34:40.000Z</time>
      </trkpt>
      <trkpt lat="42.96558" lon="1.1225">
        <ele>650</ele>
        <time>2025-09-20T08:34:41.000Z</time>
      </trkpt>
      <trkpt lat="42.9656" lon="1.12245">
        <ele>651</ele>
        <time>2025-09-20T08:34:42.000Z</time>
      </trkpt>
      <trkpt lat="42.96562" lon="1.1224">
        <ele>651</ele>
        <time>2025-09-20T08:34:43.000Z</time>
      </trkpt>
      <trkpt lat="42.96565" lon="1.12235">
        <ele>651</ele>
        <time>2025-09-20T08:34:44.000Z</time>
      </trkpt>
      <trkpt lat="42.96569" lon="1.1223">
        <ele>651</ele>
        <time>2025-09-20T08:34:45.000Z</time>
      </trkpt>
      <trkpt lat="42.96573" lon="1.12225">
        <ele>651</ele>
        <time>2025-09-20T08:34:46.000Z</time>
      </trkpt>
      <trkpt lat="42.96576" lon="1.1222">
        <ele>650</ele>
        <time>2025-09-20T08:34:47.000Z</time>
      </trkpt>
      <trkpt lat="42.96578" lon="1.12215">
        <ele>650</ele>
        <time>2025-09-20T08:34:48.000Z</time>
      </trkpt>
      <trkpt lat="42.96581" lon="1.12211">
        <ele>650</ele>
        <time>2025-09-20T08:34:49.000Z</time>
      </trkpt>
      <trkpt lat="42.96583" lon="1.12206">
        <ele>649</ele>
        <time>2025-09-20T08:34:50.000Z</time>
      </trkpt>
      <trkpt lat="42.96585" lon="1.122">
        <ele>649</ele>
        <time>2025-09-20T08:34:51.000Z</time>
      </trkpt>
      <trkpt lat="42.96588" lon="1.12194">
        <ele>650</ele>
        <time>2025-09-20T08:34:52.000Z</time>
      </trkpt>
      <trkpt lat="42.9659" lon="1.12187">
        <ele>650</ele>
        <time>2025-09-20T08:34:53.000Z</time>
      </trkpt>
      <trkpt lat="42.96593" lon="1.12181">
        <ele>649</ele>
        <time>2025-09-20T08:34:54.000Z</time>
      </trkpt>
      <trkpt lat="42.96596" lon="1.12175">
        <ele>649</ele>
        <time>2025-09-20T08:34:55.000Z</time>
      </trkpt>
      <trkpt lat="42.96599" lon="1.12169">
        <ele>649</ele>
        <time>2025-09-20T08:34:56.000Z</time>
      </trkpt>
      <trkpt lat="42.96603" lon="1.12163">
        <ele>649</ele>
        <time>2025-09-20T08:34:57.000Z</time>
      </trkpt>
      <trkpt lat="42.96607" lon="1.12157">
        <ele>648</ele>
        <time>2025-09-20T08:34:58.000Z</time>
      </trkpt>
      <trkpt lat="42.96611" lon="1.1215">
        <ele>648</ele>
        <time>2025-09-20T08:34:59.000Z</time>
      </trkpt>
      <trkpt lat="42.96616" lon="1.12142">
        <ele>647</ele>
        <time>2025-09-20T08:35:00.000Z</time>
      </trkpt>
      <trkpt lat="42.96621" lon="1.12132">
        <ele>646</ele>
        <time>2025-09-20T08:35:01.000Z</time>
      </trkpt>
      <trkpt lat="42.96625" lon="1.12122">
        <ele>644</ele>
        <time>2025-09-20T08:35:02.000Z</time>
      </trkpt>
      <trkpt lat="42.9663" lon="1.12112">
        <ele>644</ele>
        <time>2025-09-20T08:35:03.000Z</time>
      </trkpt>
      <trkpt lat="42.96635" lon="1.12103">
        <ele>643</ele>
        <time>2025-09-20T08:35:04.000Z</time>
      </trkpt>
      <trkpt lat="42.9664" lon="1.12092">
        <ele>642</ele>
        <time>2025-09-20T08:35:05.000Z</time>
      </trkpt>
      <trkpt lat="42.96644" lon="1.12082">
        <ele>642</ele>
        <time>2025-09-20T08:35:06.000Z</time>
      </trkpt>
      <trkpt lat="42.96646" lon="1.12073">
        <ele>641</ele>
        <time>2025-09-20T08:35:07.000Z</time>
      </trkpt>
      <trkpt lat="42.96648" lon="1.12064">
        <ele>640</ele>
        <time>2025-09-20T08:35:08.000Z</time>
      </trkpt>
      <trkpt lat="42.9665" lon="1.12055">
        <ele>640</ele>
        <time>2025-09-20T08:35:09.000Z</time>
      </trkpt>
      <trkpt lat="42.9665" lon="1.12047">
        <ele>641</ele>
        <time>2025-09-20T08:35:10.000Z</time>
      </trkpt>
      <trkpt lat="42.96651" lon="1.12038">
        <ele>641</ele>
        <time>2025-09-20T08:35:11.000Z</time>
      </trkpt>
      <trkpt lat="42.96655" lon="1.12031">
        <ele>641</ele>
        <time>2025-09-20T08:35:12.000Z</time>
      </trkpt>
      <trkpt lat="42.96658" lon="1.12025">
        <ele>641</ele>
        <time>2025-09-20T08:35:13.000Z</time>
      </trkpt>
      <trkpt lat="42.96662" lon="1.12019">
        <ele>640</ele>
        <time>2025-09-20T08:35:14.000Z</time>
      </trkpt>
      <trkpt lat="42.96666" lon="1.12013">
        <ele>640</ele>
        <time>2025-09-20T08:35:15.000Z</time>
      </trkpt>
      <trkpt lat="42.96668" lon="1.12008">
        <ele>639</ele>
        <time>2025-09-20T08:35:16.000Z</time>
      </trkpt>
      <trkpt lat="42.96672" lon="1.12002">
        <ele>639</ele>
        <time>2025-09-20T08:35:17.000Z</time>
      </trkpt>
      <trkpt lat="42.96674" lon="1.11995">
        <ele>638</ele>
        <time>2025-09-20T08:35:18.000Z</time>
      </trkpt>
      <trkpt lat="42.96676" lon="1.11987">
        <ele>638</ele>
        <time>2025-09-20T08:35:19.000Z</time>
      </trkpt>
      <trkpt lat="42.96679" lon="1.1198">
        <ele>637</ele>
        <time>2025-09-20T08:35:20.000Z</time>
      </trkpt>
      <trkpt lat="42.96682" lon="1.11973">
        <ele>637</ele>
        <time>2025-09-20T08:35:21.000Z</time>
      </trkpt>
      <trkpt lat="42.96684" lon="1.11967">
        <ele>637</ele>
        <time>2025-09-20T08:35:22.000Z</time>
      </trkpt>
      <trkpt lat="42.96686" lon="1.1196">
        <ele>636</ele>
        <time>2025-09-20T08:35:23.000Z</time>
      </trkpt>
      <trkpt lat="42.96688" lon="1.11953">
        <ele>636</ele>
        <time>2025-09-20T08:35:24.000Z</time>
      </trkpt>
      <trkpt lat="42.96689" lon="1.11946">
        <ele>635</ele>
        <time>2025-09-20T08:35:25.000Z</time>
      </trkpt>
      <trkpt lat="42.96691" lon="1.11941">
        <ele>635</ele>
        <time>2025-09-20T08:35:26.000Z</time>
      </trkpt>
      <trkpt lat="42.96694" lon="1.11934">
        <ele>635</ele>
        <time>2025-09-20T08:35:27.000Z</time>
      </trkpt>
      <trkpt lat="42.96697" lon="1.11927">
        <ele>635</ele>
        <time>2025-09-20T08:35:28.000Z</time>
      </trkpt>
      <trkpt lat="42.96699" lon="1.11921">
        <ele>635</ele>
        <time>2025-09-20T08:35:29.000Z</time>
      </trkpt>
      <trkpt lat="42.96702" lon="1.11914">
        <ele>635</ele>
        <time>2025-09-20T08:35:30.000Z</time>
      </trkpt>
      <trkpt lat="42.96706" lon="1.11911">
        <ele>636</ele>
        <time>2025-09-20T08:35:31.000Z</time>
      </trkpt>
      <trkpt lat="42.96708" lon="1.11908">
        <ele>636</ele>
        <time>2025-09-20T08:35:32.000Z</time>
      </trkpt>
      <trkpt lat="42.96711" lon="1.11903">
        <ele>635</ele>
        <time>2025-09-20T08:35:33.000Z</time>
      </trkpt>
      <trkpt lat="42.96714" lon="1.11897">
        <ele>635</ele>
        <time>2025-09-20T08:35:34.000Z</time>
      </trkpt>
      <trkpt lat="42.96717" lon="1.1189">
        <ele>633</ele>
        <time>2025-09-20T08:35:35.000Z</time>
      </trkpt>
      <trkpt lat="42.96721" lon="1.11883">
        <ele>631</ele>
        <time>2025-09-20T08:35:36.000Z</time>
      </trkpt>
      <trkpt lat="42.96724" lon="1.11875">
        <ele>629</ele>
        <time>2025-09-20T08:35:37.000Z</time>
      </trkpt>
      <trkpt lat="42.96727" lon="1.11868">
        <ele>628</ele>
        <time>2025-09-20T08:35:38.000Z</time>
      </trkpt>
      <trkpt lat="42.96728" lon="1.11861">
        <ele>628</ele>
        <time>2025-09-20T08:35:39.000Z</time>
      </trkpt>
      <trkpt lat="42.9673" lon="1.11861">
        <ele>629</ele>
        <time>2025-09-20T08:35:40.000Z</time>
      </trkpt>
      <trkpt lat="42.96732" lon="1.11863">
        <ele>629</ele>
        <time>2025-09-20T08:35:41.000Z</time>
      </trkpt>
      <trkpt lat="42.96735" lon="1.11867">
        <ele>629</ele>
        <time>2025-09-20T08:35:42.000Z</time>
      </trkpt>
      <trkpt lat="42.96738" lon="1.11871">
        <ele>628</ele>
        <time>2025-09-20T08:35:43.000Z</time>
      </trkpt>
      <trkpt lat="42.96742" lon="1.11877">
        <ele>627</ele>
        <time>2025-09-20T08:35:44.000Z</time>
      </trkpt>
      <trkpt lat="42.96747" lon="1.11884">
        <ele>625</ele>
        <time>2025-09-20T08:35:45.000Z</time>
      </trkpt>
      <trkpt lat="42.96752" lon="1.11891">
        <ele>623</ele>
        <time>2025-09-20T08:35:46.000Z</time>
      </trkpt>
      <trkpt lat="42.96757" lon="1.119">
        <ele>621</ele>
        <time>2025-09-20T08:35:47.000Z</time>
      </trkpt>
      <trkpt lat="42.96762" lon="1.11907">
        <ele>620</ele>
        <time>2025-09-20T08:35:48.000Z</time>
      </trkpt>
      <trkpt lat="42.96767" lon="1.11914">
        <ele>619</ele>
        <time>2025-09-20T08:35:49.000Z</time>
      </trkpt>
      <trkpt lat="42.96771" lon="1.1192">
        <ele>619</ele>
        <time>2025-09-20T08:35:50.000Z</time>
      </trkpt>
      <trkpt lat="42.96774" lon="1.11923">
        <ele>619</ele>
        <time>2025-09-20T08:35:51.000Z</time>
      </trkpt>
      <trkpt lat="42.96775" lon="1.11922">
        <ele>619</ele>
        <time>2025-09-20T08:35:52.000Z</time>
      </trkpt>
      <trkpt lat="42.96775" lon="1.11919">
        <ele>619</ele>
        <time>2025-09-20T08:35:53.000Z</time>
      </trkpt>
      <trkpt lat="42.96776" lon="1.11915">
        <ele>618</ele>
        <time>2025-09-20T08:35:54.000Z</time>
      </trkpt>
      <trkpt lat="42.96777" lon="1.11912">
        <ele>618</ele>
        <time>2025-09-20T08:35:55.000Z</time>
      </trkpt>
      <trkpt lat="42.96778" lon="1.11908">
        <ele>617</ele>
        <time>2025-09-20T08:35:56.000Z</time>
      </trkpt>
      <trkpt lat="42.96779" lon="1.11904">
        <ele>617</ele>
        <time>2025-09-20T08:35:57.000Z</time>
      </trkpt>
      <trkpt lat="42.96779" lon="1.11899">
        <ele>616</ele>
        <time>2025-09-20T08:35:58.000Z</time>
      </trkpt>
      <trkpt lat="42.9678" lon="1.11894">
        <ele>615</ele>
        <time>2025-09-20T08:35:59.000Z</time>
      </trkpt>
      <trkpt lat="42.96782" lon="1.1189">
        <ele>614</ele>
        <time>2025-09-20T08:36:00.000Z</time>
      </trkpt>
      <trkpt lat="42.96785" lon="1.11885">
        <ele>613</ele>
        <time>2025-09-20T08:36:01.000Z</time>
      </trkpt>
      <trkpt lat="42.96788" lon="1.1188">
        <ele>611</ele>
        <time>2025-09-20T08:36:02.000Z</time>
      </trkpt>
      <trkpt lat="42.96792" lon="1.11873">
        <ele>611</ele>
        <time>2025-09-20T08:36:03.000Z</time>
      </trkpt>
      <trkpt lat="42.96795" lon="1.11867">
        <ele>610</ele>
        <time>2025-09-20T08:36:04.000Z</time>
      </trkpt>
      <trkpt lat="42.96799" lon="1.11862">
        <ele>609</ele>
        <time>2025-09-20T08:36:05.000Z</time>
      </trkpt>
      <trkpt lat="42.96802" lon="1.11855">
        <ele>609</ele>
        <time>2025-09-20T08:36:06.000Z</time>
      </trkpt>
      <trkpt lat="42.96803" lon="1.11849">
        <ele>609</ele>
        <time>2025-09-20T08:36:07.000Z</time>
      </trkpt>
      <trkpt lat="42.96806" lon="1.11846">
        <ele>609</ele>
        <time>2025-09-20T08:36:08.000Z</time>
      </trkpt>
      <trkpt lat="42.96809" lon="1.11843">
        <ele>609</ele>
        <time>2025-09-20T08:36:09.000Z</time>
      </trkpt>
      <trkpt lat="42.9681" lon="1.11841">
        <ele>609</ele>
        <time>2025-09-20T08:36:10.000Z</time>
      </trkpt>
      <trkpt lat="42.9681" lon="1.11838">
        <ele>609</ele>
        <time>2025-09-20T08:36:11.000Z</time>
      </trkpt>
      <trkpt lat="42.9681" lon="1.11835">
        <ele>608</ele>
        <time>2025-09-20T08:36:12.000Z</time>
      </trkpt>
      <trkpt lat="42.96811" lon="1.11829">
        <ele>607</ele>
        <time>2025-09-20T08:36:13.000Z</time>
      </trkpt>
      <trkpt lat="42.96811" lon="1.11823">
        <ele>604</ele>
        <time>2025-09-20T08:36:14.000Z</time>
      </trkpt>
      <trkpt lat="42.96811" lon="1.11816">
        <ele>601</ele>
        <time>2025-09-20T08:36:15.000Z</time>
      </trkpt>
      <trkpt lat="42.96812" lon="1.11809">
        <ele>598</ele>
        <time>2025-09-20T08:36:16.000Z</time>
      </trkpt>
      <trkpt lat="42.96811" lon="1.11802">
        <ele>596</ele>
        <time>2025-09-20T08:36:17.000Z</time>
      </trkpt>
      <trkpt lat="42.96812" lon="1.11795">
        <ele>595</ele>
        <time>2025-09-20T08:36:18.000Z</time>
      </trkpt>
      <trkpt lat="42.96813" lon="1.11788">
        <ele>593</ele>
        <time>2025-09-20T08:36:19.000Z</time>
      </trkpt>
      <trkpt lat="42.96813" lon="1.11781">
        <ele>591</ele>
        <time>2025-09-20T08:36:20.000Z</time>
      </trkpt>
      <trkpt lat="42.96813" lon="1.11772">
        <ele>590</ele>
        <time>2025-09-20T08:36:21.000Z</time>
      </trkpt>
      <trkpt lat="42.96812" lon="1.11763">
        <ele>588</ele>
        <time>2025-09-20T08:36:22.000Z</time>
      </trkpt>
      <trkpt lat="42.96811" lon="1.11754">
        <ele>586</ele>
        <time>2025-09-20T08:36:23.000Z</time>
      </trkpt>
      <trkpt lat="42.9681" lon="1.11745">
        <ele>583</ele>
        <time>2025-09-20T08:36:24.000Z</time>
      </trkpt>
      <trkpt lat="42.96808" lon="1.11735">
        <ele>579</ele>
        <time>2025-09-20T08:36:25.000Z</time>
      </trkpt>
      <trkpt lat="42.96808" lon="1.11726">
        <ele>576</ele>
        <time>2025-09-20T08:36:26.000Z</time>
      </trkpt>
      <trkpt lat="42.96809" lon="1.11715">
        <ele>574</ele>
        <time>2025-09-20T08:36:27.000Z</time>
      </trkpt>
      <trkpt lat="42.96809" lon="1.11706">
        <ele>574</ele>
        <time>2025-09-20T08:36:28.000Z</time>
      </trkpt>
      <trkpt lat="42.9681" lon="1.11698">
        <ele>575</ele>
        <time>2025-09-20T08:36:29.000Z</time>
      </trkpt>
      <trkpt lat="42.96811" lon="1.1169">
        <ele>576</ele>
        <time>2025-09-20T08:36:30.000Z</time>
      </trkpt>
      <trkpt lat="42.96811" lon="1.11681">
        <ele>576</ele>
        <time>2025-09-20T08:36:31.000Z</time>
      </trkpt>
      <trkpt lat="42.96813" lon="1.11671">
        <ele>576</ele>
        <time>2025-09-20T08:36:32.000Z</time>
      </trkpt>
      <trkpt lat="42.96813" lon="1.11661">
        <ele>576</ele>
        <time>2025-09-20T08:36:33.000Z</time>
      </trkpt>
      <trkpt lat="42.96813" lon="1.11651">
        <ele>575</ele>
        <time>2025-09-20T08:36:34.000Z</time>
      </trkpt>
      <trkpt lat="42.96812" lon="1.11641">
        <ele>574</ele>
        <time>2025-09-20T08:36:35.000Z</time>
      </trkpt>
      <trkpt lat="42.96812" lon="1.11633">
        <ele>573</ele>
        <time>2025-09-20T08:36:36.000Z</time>
      </trkpt>
      <trkpt lat="42.96812" lon="1.11625">
        <ele>572</ele>
        <time>2025-09-20T08:36:37.000Z</time>
      </trkpt>
      <trkpt lat="42.96811" lon="1.11617">
        <ele>572</ele>
        <time>2025-09-20T08:36:38.000Z</time>
      </trkpt>
      <trkpt lat="42.9681" lon="1.1161">
        <ele>572</ele>
        <time>2025-09-20T08:36:39.000Z</time>
      </trkpt>
      <trkpt lat="42.9681" lon="1.11605">
        <ele>572</ele>
        <time>2025-09-20T08:36:40.000Z</time>
      </trkpt>
      <trkpt lat="42.96809" lon="1.116">
        <ele>572</ele>
        <time>2025-09-20T08:36:41.000Z</time>
      </trkpt>
      <trkpt lat="42.96808" lon="1.11596">
        <ele>572</ele>
        <time>2025-09-20T08:36:42.000Z</time>
      </trkpt>
      <trkpt lat="42.96808" lon="1.11592">
        <ele>571</ele>
        <time>2025-09-20T08:36:43.000Z</time>
      </trkpt>
      <trkpt lat="42.96809" lon="1.11588">
        <ele>570</ele>
        <time>2025-09-20T08:36:44.000Z</time>
      </trkpt>
      <trkpt lat="42.96809" lon="1.11582">
        <ele>569</ele>
        <time>2025-09-20T08:36:45.000Z</time>
      </trkpt>
      <trkpt lat="42.96809" lon="1.11577">
        <ele>567</ele>
        <time>2025-09-20T08:36:46.000Z</time>
      </trkpt>
      <trkpt lat="42.96807" lon="1.11571">
        <ele>567</ele>
        <time>2025-09-20T08:36:47.000Z</time>
      </trkpt>
      <trkpt lat="42.96805" lon="1.11564">
        <ele>566</ele>
        <time>2025-09-20T08:36:48.000Z</time>
      </trkpt>
      <trkpt lat="42.96805" lon="1.11557">
        <ele>565</ele>
        <time>2025-09-20T08:36:49.000Z</time>
      </trkpt>
      <trkpt lat="42.96804" lon="1.11551">
        <ele>565</ele>
        <time>2025-09-20T08:36:50.000Z</time>
      </trkpt>
      <trkpt lat="42.96803" lon="1.11544">
        <ele>564</ele>
        <time>2025-09-20T08:36:51.000Z</time>
      </trkpt>
      <trkpt lat="42.96802" lon="1.11539">
        <ele>564</ele>
        <time>2025-09-20T08:36:52.000Z</time>
      </trkpt>
      <trkpt lat="42.96802" lon="1.11534">
        <ele>563</ele>
        <time>2025-09-20T08:36:53.000Z</time>
      </trkpt>
      <trkpt lat="42.96802" lon="1.11529">
        <ele>563</ele>
        <time>2025-09-20T08:36:54.000Z</time>
      </trkpt>
      <trkpt lat="42.96802" lon="1.11524">
        <ele>562</ele>
        <time>2025-09-20T08:36:55.000Z</time>
      </trkpt>
      <trkpt lat="42.96801" lon="1.11518">
        <ele>561</ele>
        <time>2025-09-20T08:36:56.000Z</time>
      </trkpt>
      <trkpt lat="42.968" lon="1.11513">
        <ele>561</ele>
        <time>2025-09-20T08:36:57.000Z</time>
      </trkpt>
      <trkpt lat="42.96799" lon="1.11508">
        <ele>561</ele>
        <time>2025-09-20T08:36:58.000Z</time>
      </trkpt>
      <trkpt lat="42.96799" lon="1.11504">
        <ele>560</ele>
        <time>2025-09-20T08:36:59.000Z</time>
      </trkpt>
      <trkpt lat="42.96798" lon="1.11498">
        <ele>558</ele>
        <time>2025-09-20T08:37:00.000Z</time>
      </trkpt>
      <trkpt lat="42.96798" lon="1.11492">
        <ele>558</ele>
        <time>2025-09-20T08:37:01.000Z</time>
      </trkpt>
      <trkpt lat="42.96796" lon="1.11485">
        <ele>557</ele>
        <time>2025-09-20T08:37:02.000Z</time>
      </trkpt>
      <trkpt lat="42.96795" lon="1.11478">
        <ele>556</ele>
        <time>2025-09-20T08:37:03.000Z</time>
      </trkpt>
      <trkpt lat="42.96794" lon="1.11471">
        <ele>554</ele>
        <time>2025-09-20T08:37:04.000Z</time>
      </trkpt>
      <trkpt lat="42.96793" lon="1.11465">
        <ele>553</ele>
        <time>2025-09-20T08:37:05.000Z</time>
      </trkpt>
      <trkpt lat="42.96793" lon="1.1146">
        <ele>552</ele>
        <time>2025-09-20T08:37:06.000Z</time>
      </trkpt>
      <trkpt lat="42.96793" lon="1.11453">
        <ele>550</ele>
        <time>2025-09-20T08:37:07.000Z</time>
      </trkpt>
      <trkpt lat="42.96793" lon="1.11447">
        <ele>549</ele>
        <time>2025-09-20T08:37:08.000Z</time>
      </trkpt>
      <trkpt lat="42.96793" lon="1.1144">
        <ele>548</ele>
        <time>2025-09-20T08:37:09.000Z</time>
      </trkpt>
      <trkpt lat="42.96793" lon="1.11433">
        <ele>548</ele>
        <time>2025-09-20T08:37:10.000Z</time>
      </trkpt>
      <trkpt lat="42.96792" lon="1.11425">
        <ele>548</ele>
        <time>2025-09-20T08:37:11.000Z</time>
      </trkpt>
      <trkpt lat="42.96791" lon="1.11418">
        <ele>548</ele>
        <time>2025-09-20T08:37:12.000Z</time>
      </trkpt>
      <trkpt lat="42.96789" lon="1.11411">
        <ele>548</ele>
        <time>2025-09-20T08:37:13.000Z</time>
      </trkpt>
      <trkpt lat="42.96786" lon="1.11403">
        <ele>548</ele>
        <time>2025-09-20T08:37:14.000Z</time>
      </trkpt>
      <trkpt lat="42.96784" lon="1.11395">
        <ele>548</ele>
        <time>2025-09-20T08:37:15.000Z</time>
      </trkpt>
      <trkpt lat="42.96781" lon="1.11387">
        <ele>548</ele>
        <time>2025-09-20T08:37:16.000Z</time>
      </trkpt>
      <trkpt lat="42.96777" lon="1.1138">
        <ele>548</ele>
        <time>2025-09-20T08:37:17.000Z</time>
      </trkpt>
      <trkpt lat="42.96774" lon="1.11373">
        <ele>549</ele>
        <time>2025-09-20T08:37:18.000Z</time>
      </trkpt>
      <trkpt lat="42.96772" lon="1.11366">
        <ele>549</ele>
        <time>2025-09-20T08:37:19.000Z</time>
      </trkpt>
      <trkpt lat="42.9677" lon="1.11359">
        <ele>549</ele>
        <time>2025-09-20T08:37:20.000Z</time>
      </trkpt>
      <trkpt lat="42.96767" lon="1.11352">
        <ele>548</ele>
        <time>2025-09-20T08:37:21.000Z</time>
      </trkpt>
      <trkpt lat="42.96765" lon="1.11343">
        <ele>548</ele>
        <time>2025-09-20T08:37:22.000Z</time>
      </trkpt>
      <trkpt lat="42.96764" lon="1.11336">
        <ele>548</ele>
        <time>2025-09-20T08:37:23.000Z</time>
      </trkpt>
      <trkpt lat="42.96763" lon="1.1133">
        <ele>547</ele>
        <time>2025-09-20T08:37:24.000Z</time>
      </trkpt>
      <trkpt lat="42.96762" lon="1.11325">
        <ele>546</ele>
        <time>2025-09-20T08:37:25.000Z</time>
      </trkpt>
      <trkpt lat="42.96761" lon="1.1132">
        <ele>546</ele>
        <time>2025-09-20T08:37:26.000Z</time>
      </trkpt>
      <trkpt lat="42.9676" lon="1.11316">
        <ele>546</ele>
        <time>2025-09-20T08:37:27.000Z</time>
      </trkpt>
      <trkpt lat="42.9676" lon="1.11313">
        <ele>545</ele>
        <time>2025-09-20T08:37:28.000Z</time>
      </trkpt>
      <trkpt lat="42.96758" lon="1.11309">
        <ele>543</ele>
        <time>2025-09-20T08:37:29.000Z</time>
      </trkpt>
      <trkpt lat="42.96757" lon="1.11305">
        <ele>541</ele>
        <time>2025-09-20T08:37:30.000Z</time>
      </trkpt>
      <trkpt lat="42.96755" lon="1.11301">
        <ele>539</ele>
        <time>2025-09-20T08:37:31.000Z</time>
      </trkpt>
      <trkpt lat="42.96753" lon="1.11296">
        <ele>538</ele>
        <time>2025-09-20T08:37:32.000Z</time>
      </trkpt>
      <trkpt lat="42.96751" lon="1.11291">
        <ele>537</ele>
        <time>2025-09-20T08:37:33.000Z</time>
      </trkpt>
      <trkpt lat="42.96748" lon="1.11286">
        <ele>536</ele>
        <time>2025-09-20T08:37:34.000Z</time>
      </trkpt>
      <trkpt lat="42.96746" lon="1.11282">
        <ele>536</ele>
        <time>2025-09-20T08:37:35.000Z</time>
      </trkpt>
      <trkpt lat="42.96744" lon="1.11278">
        <ele>536</ele>
        <time>2025-09-20T08:37:36.000Z</time>
      </trkpt>
      <trkpt lat="42.96742" lon="1.11274">
        <ele>536</ele>
        <time>2025-09-20T08:37:37.000Z</time>
      </trkpt>
      <trkpt lat="42.96739" lon="1.11269">
        <ele>536</ele>
        <time>2025-09-20T08:37:38.000Z</time>
      </trkpt>
      <trkpt lat="42.96738" lon="1.11264">
        <ele>537</ele>
        <time>2025-09-20T08:37:39.000Z</time>
      </trkpt>
      <trkpt lat="42.96736" lon="1.11261">
        <ele>537</ele>
        <time>2025-09-20T08:37:40.000Z</time>
      </trkpt>
      <trkpt lat="42.96735" lon="1.11259">
        <ele>537</ele>
        <time>2025-09-20T08:37:41.000Z</time>
      </trkpt>
      <trkpt lat="42.96734" lon="1.11257">
        <ele>537</ele>
        <time>2025-09-20T08:37:42.000Z</time>
      </trkpt>
      <trkpt lat="42.96733" lon="1.11254">
        <ele>538</ele>
        <time>2025-09-20T08:37:43.000Z</time>
      </trkpt>
      <trkpt lat="42.96732" lon="1.11251">
        <ele>538</ele>
        <time>2025-09-20T08:37:44.000Z</time>
      </trkpt>
      <trkpt lat="42.9673" lon="1.11247">
        <ele>538</ele>
        <time>2025-09-20T08:37:45.000Z</time>
      </trkpt>
      <trkpt lat="42.96728" lon="1.11243">
        <ele>539</ele>
        <time>2025-09-20T08:37:46.000Z</time>
      </trkpt>
      <trkpt lat="42.96726" lon="1.11239">
        <ele>539</ele>
        <time>2025-09-20T08:37:47.000Z</time>
      </trkpt>
      <trkpt lat="42.96724" lon="1.11236">
        <ele>539</ele>
        <time>2025-09-20T08:37:48.000Z</time>
      </trkpt>
      <trkpt lat="42.96722" lon="1.11232">
        <ele>539</ele>
        <time>2025-09-20T08:37:49.000Z</time>
      </trkpt>
      <trkpt lat="42.9672" lon="1.11229">
        <ele>539</ele>
        <time>2025-09-20T08:37:50.000Z</time>
      </trkpt>
      <trkpt lat="42.96718" lon="1.11225">
        <ele>539</ele>
        <time>2025-09-20T08:37:51.000Z</time>
      </trkpt>
      <trkpt lat="42.96715" lon="1.1122">
        <ele>539</ele>
        <time>2025-09-20T08:37:52.000Z</time>
      </trkpt>
      <trkpt lat="42.96713" lon="1.11215">
        <ele>539</ele>
        <time>2025-09-20T08:37:53.000Z</time>
      </trkpt>
      <trkpt lat="42.9671" lon="1.11211">
        <ele>538</ele>
        <time>2025-09-20T08:37:54.000Z</time>
      </trkpt>
      <trkpt lat="42.96707" lon="1.11206">
        <ele>537</ele>
        <time>2025-09-20T08:37:55.000Z</time>
      </trkpt>
      <trkpt lat="42.96705" lon="1.11203">
        <ele>538</ele>
        <time>2025-09-20T08:37:56.000Z</time>
      </trkpt>
      <trkpt lat="42.96703" lon="1.11198">
        <ele>537</ele>
        <time>2025-09-20T08:37:57.000Z</time>
      </trkpt>
      <trkpt lat="42.96702" lon="1.11192">
        <ele>537</ele>
        <time>2025-09-20T08:37:58.000Z</time>
      </trkpt>
      <trkpt lat="42.96699" lon="1.11187">
        <ele>537</ele>
        <time>2025-09-20T08:37:59.000Z</time>
      </trkpt>
      <trkpt lat="42.96697" lon="1.11181">
        <ele>536</ele>
        <time>2025-09-20T08:38:00.000Z</time>
      </trkpt>
      <trkpt lat="42.96695" lon="1.11176">
        <ele>535</ele>
        <time>2025-09-20T08:38:01.000Z</time>
      </trkpt>
      <trkpt lat="42.96692" lon="1.1117">
        <ele>534</ele>
        <time>2025-09-20T08:38:02.000Z</time>
      </trkpt>
      <trkpt lat="42.9669" lon="1.11163">
        <ele>534</ele>
        <time>2025-09-20T08:38:03.000Z</time>
      </trkpt>
      <trkpt lat="42.96687" lon="1.11157">
        <ele>532</ele>
        <time>2025-09-20T08:38:04.000Z</time>
      </trkpt>
      <trkpt lat="42.96684" lon="1.11149">
        <ele>530</ele>
        <time>2025-09-20T08:38:05.000Z</time>
      </trkpt>
      <trkpt lat="42.96681" lon="1.11141">
        <ele>529</ele>
        <time>2025-09-20T08:38:06.000Z</time>
      </trkpt>
      <trkpt lat="42.96677" lon="1.11133">
        <ele>528</ele>
        <time>2025-09-20T08:38:07.000Z</time>
      </trkpt>
      <trkpt lat="42.96675" lon="1.11126">
        <ele>528</ele>
        <time>2025-09-20T08:38:08.000Z</time>
      </trkpt>
      <trkpt lat="42.96671" lon="1.11119">
        <ele>528</ele>
        <time>2025-09-20T08:38:09.000Z</time>
      </trkpt>
      <trkpt lat="42.96669" lon="1.11112">
        <ele>528</ele>
        <time>2025-09-20T08:38:10.000Z</time>
      </trkpt>
      <trkpt lat="42.96665" lon="1.11105">
        <ele>528</ele>
        <time>2025-09-20T08:38:11.000Z</time>
      </trkpt>
      <trkpt lat="42.96662" lon="1.11097">
        <ele>527</ele>
        <time>2025-09-20T08:38:12.000Z</time>
      </trkpt>
      <trkpt lat="42.96658" lon="1.11088">
        <ele>526</ele>
        <time>2025-09-20T08:38:13.000Z</time>
      </trkpt>
      <trkpt lat="42.96654" lon="1.1108">
        <ele>525</ele>
        <time>2025-09-20T08:38:14.000Z</time>
      </trkpt>
      <trkpt lat="42.96651" lon="1.11073">
        <ele>525</ele>
        <time>2025-09-20T08:38:15.000Z</time>
      </trkpt>
      <trkpt lat="42.96649" lon="1.11066">
        <ele>525</ele>
        <time>2025-09-20T08:38:16.000Z</time>
      </trkpt>
      <trkpt lat="42.96646" lon="1.11059">
        <ele>524</ele>
        <time>2025-09-20T08:38:17.000Z</time>
      </trkpt>
      <trkpt lat="42.96643" lon="1.11052">
        <ele>523</ele>
        <time>2025-09-20T08:38:18.000Z</time>
      </trkpt>
      <trkpt lat="42.96638" lon="1.11044">
        <ele>523</ele>
        <time>2025-09-20T08:38:19.000Z</time>
      </trkpt>
      <trkpt lat="42.96635" lon="1.11036">
        <ele>522</ele>
        <time>2025-09-20T08:38:20.000Z</time>
      </trkpt>
      <trkpt lat="42.9663" lon="1.11027">
        <ele>522</ele>
        <time>2025-09-20T08:38:21.000Z</time>
      </trkpt>
      <trkpt lat="42.96625" lon="1.11019">
        <ele>522</ele>
        <time>2025-09-20T08:38:22.000Z</time>
      </trkpt>
      <trkpt lat="42.96619" lon="1.11012">
        <ele>521</ele>
        <time>2025-09-20T08:38:23.000Z</time>
      </trkpt>
      <trkpt lat="42.96613" lon="1.11005">
        <ele>521</ele>
        <time>2025-09-20T08:38:24.000Z</time>
      </trkpt>
      <trkpt lat="42.96607" lon="1.11">
        <ele>520</ele>
        <time>2025-09-20T08:38:25.000Z</time>
      </trkpt>
      <trkpt lat="42.96603" lon="1.10994">
        <ele>520</ele>
        <time>2025-09-20T08:38:26.000Z</time>
      </trkpt>
      <trkpt lat="42.96599" lon="1.10988">
        <ele>519</ele>
        <time>2025-09-20T08:38:27.000Z</time>
      </trkpt>
      <trkpt lat="42.96596" lon="1.10982">
        <ele>518</ele>
        <time>2025-09-20T08:38:28.000Z</time>
      </trkpt>
      <trkpt lat="42.96592" lon="1.10976">
        <ele>517</ele>
        <time>2025-09-20T08:38:29.000Z</time>
      </trkpt>
      <trkpt lat="42.9659" lon="1.10972">
        <ele>516</ele>
        <time>2025-09-20T08:38:30.000Z</time>
      </trkpt>
      <trkpt lat="42.96587" lon="1.10968">
        <ele>515</ele>
        <time>2025-09-20T08:38:31.000Z</time>
      </trkpt>
      <trkpt lat="42.96584" lon="1.10964">
        <ele>514</ele>
        <time>2025-09-20T08:38:32.000Z</time>
      </trkpt>
      <trkpt lat="42.9658" lon="1.10959">
        <ele>511</ele>
        <time>2025-09-20T08:38:33.000Z</time>
      </trkpt>
      <trkpt lat="42.96576" lon="1.10953">
        <ele>509</ele>
        <time>2025-09-20T08:38:34.000Z</time>
      </trkpt>
      <trkpt lat="42.96571" lon="1.10947">
        <ele>507</ele>
        <time>2025-09-20T08:38:35.000Z</time>
      </trkpt>
      <trkpt lat="42.96566" lon="1.10942">
        <ele>504</ele>
        <time>2025-09-20T08:38:36.000Z</time>
      </trkpt>
      <trkpt lat="42.96561" lon="1.10935">
        <ele>501</ele>
        <time>2025-09-20T08:38:37.000Z</time>
      </trkpt>
      <trkpt lat="42.96556" lon="1.10927">
        <ele>499</ele>
        <time>2025-09-20T08:38:38.000Z</time>
      </trkpt>
      <trkpt lat="42.96551" lon="1.10919">
        <ele>496</ele>
        <time>2025-09-20T08:38:39.000Z</time>
      </trkpt>
      <trkpt lat="42.96546" lon="1.10911">
        <ele>495</ele>
        <time>2025-09-20T08:38:40.000Z</time>
      </trkpt>
      <trkpt lat="42.96542" lon="1.10903">
        <ele>494</ele>
        <time>2025-09-20T08:38:41.000Z</time>
      </trkpt>
      <trkpt lat="42.96538" lon="1.10895">
        <ele>494</ele>
        <time>2025-09-20T08:38:42.000Z</time>
      </trkpt>
      <trkpt lat="42.96533" lon="1.10888">
        <ele>494</ele>
        <time>2025-09-20T08:38:43.000Z</time>
      </trkpt>
      <trkpt lat="42.9653" lon="1.10882">
        <ele>495</ele>
        <time>2025-09-20T08:38:44.000Z</time>
      </trkpt>
      <trkpt lat="42.96527" lon="1.10877">
        <ele>494</ele>
        <time>2025-09-20T08:38:45.000Z</time>
      </trkpt>
      <trkpt lat="42.96526" lon="1.10872">
        <ele>495</ele>
        <time>2025-09-20T08:38:46.000Z</time>
      </trkpt>
      <trkpt lat="42.96527" lon="1.10867">
        <ele>495</ele>
        <time>2025-09-20T08:38:47.000Z</time>
      </trkpt>
      <trkpt lat="42.96529" lon="1.10862">
        <ele>494</ele>
        <time>2025-09-20T08:38:48.000Z</time>
      </trkpt>
      <trkpt lat="42.96532" lon="1.10858">
        <ele>493</ele>
        <time>2025-09-20T08:38:49.000Z</time>
      </trkpt>
      <trkpt lat="42.96536" lon="1.10851">
        <ele>492</ele>
        <time>2025-09-20T08:38:50.000Z</time>
      </trkpt>
      <trkpt lat="42.96539" lon="1.10845">
        <ele>490</ele>
        <time>2025-09-20T08:38:51.000Z</time>
      </trkpt>
      <trkpt lat="42.96541" lon="1.1084">
        <ele>489</ele>
        <time>2025-09-20T08:38:52.000Z</time>
      </trkpt>
      <trkpt lat="42.96543" lon="1.10839">
        <ele>488</ele>
        <time>2025-09-20T08:38:53.000Z</time>
      </trkpt>
      <trkpt lat="42.96546" lon="1.1084">
        <ele>488</ele>
        <time>2025-09-20T08:38:54.000Z</time>
      </trkpt>
      <trkpt lat="42.96547" lon="1.10842">
        <ele>488</ele>
        <time>2025-09-20T08:38:55.000Z</time>
      </trkpt>
      <trkpt lat="42.96547" lon="1.10843">
        <ele>487</ele>
        <time>2025-09-20T08:38:56.000Z</time>
      </trkpt>
      <trkpt lat="42.96547" lon="1.10844">
        <ele>488</ele>
        <time>2025-09-20T08:38:57.000Z</time>
      </trkpt>
      <trkpt lat="42.96548" lon="1.10843">
        <ele>486</ele>
        <time>2025-09-20T08:39:59.000Z</time>
      </trkpt>
      <trkpt lat="42.96549" lon="1.1084">
        <ele>486</ele>
        <time>2025-09-20T08:40:00.000Z</time>
      </trkpt>
      <trkpt lat="42.9655" lon="1.10837">
        <ele>486</ele>
        <time>2025-09-20T08:40:01.000Z</time>
      </trkpt>
      <trkpt lat="42.96549" lon="1.10834">
        <ele>486</ele>
        <time>2025-09-20T08:40:02.000Z</time>
      </trkpt>
      <trkpt lat="42.96548" lon="1.10829">
        <ele>485</ele>
        <time>2025-09-20T08:40:03.000Z</time>
      </trkpt>
      <trkpt lat="42.96546" lon="1.10824">
        <ele>485</ele>
        <time>2025-09-20T08:40:04.000Z</time>
      </trkpt>
      <trkpt lat="42.96544" lon="1.10818">
        <ele>483</ele>
        <time>2025-09-20T08:40:05.000Z</time>
      </trkpt>
      <trkpt lat="42.96545" lon="1.1081">
        <ele>483</ele>
        <time>2025-09-20T08:40:06.000Z</time>
      </trkpt>
      <trkpt lat="42.96547" lon="1.10802">
        <ele>483</ele>
        <time>2025-09-20T08:40:07.000Z</time>
      </trkpt>
      <trkpt lat="42.9655" lon="1.10794">
        <ele>481</ele>
        <time>2025-09-20T08:40:08.000Z</time>
      </trkpt>
      <trkpt lat="42.96553" lon="1.10785">
        <ele>479</ele>
        <time>2025-09-20T08:40:09.000Z</time>
      </trkpt>
      <trkpt lat="42.96557" lon="1.10777">
        <ele>478</ele>
        <time>2025-09-20T08:40:10.000Z</time>
      </trkpt>
      <trkpt lat="42.96561" lon="1.10769">
        <ele>477</ele>
        <time>2025-09-20T08:40:11.000Z</time>
      </trkpt>
      <trkpt lat="42.96562" lon="1.1076">
        <ele>477</ele>
        <time>2025-09-20T08:40:12.000Z</time>
      </trkpt>
      <trkpt lat="42.9656" lon="1.10751">
        <ele>477</ele>
        <time>2025-09-20T08:40:13.000Z</time>
      </trkpt>
      <trkpt lat="42.96555" lon="1.10742">
        <ele>477</ele>
        <time>2025-09-20T08:40:14.000Z</time>
      </trkpt>
      <trkpt lat="42.96551" lon="1.10733">
        <ele>477</ele>
        <time>2025-09-20T08:40:15.000Z</time>
      </trkpt>
      <trkpt lat="42.96547" lon="1.10725">
        <ele>477</ele>
        <time>2025-09-20T08:40:16.000Z</time>
      </trkpt>
      <trkpt lat="42.96544" lon="1.10716">
        <ele>477</ele>
        <time>2025-09-20T08:40:17.000Z</time>
      </trkpt>
      <trkpt lat="42.96542" lon="1.10707">
        <ele>476</ele>
        <time>2025-09-20T08:40:18.000Z</time>
      </trkpt>
      <trkpt lat="42.96539" lon="1.10698">
        <ele>475</ele>
        <time>2025-09-20T08:40:19.000Z</time>
      </trkpt>
      <trkpt lat="42.96537" lon="1.10688">
        <ele>475</ele>
        <time>2025-09-20T08:40:20.000Z</time>
      </trkpt>
      <trkpt lat="42.96535" lon="1.10679">
        <ele>475</ele>
        <time>2025-09-20T08:40:21.000Z</time>
      </trkpt>
      <trkpt lat="42.96532" lon="1.10669">
        <ele>475</ele>
        <time>2025-09-20T08:40:22.000Z</time>
      </trkpt>
      <trkpt lat="42.96528" lon="1.1066">
        <ele>475</ele>
        <time>2025-09-20T08:40:23.000Z</time>
      </trkpt>
      <trkpt lat="42.96525" lon="1.10652">
        <ele>475</ele>
        <time>2025-09-20T08:40:24.000Z</time>
      </trkpt>
      <trkpt lat="42.96521" lon="1.10644">
        <ele>476</ele>
        <time>2025-09-20T08:40:25.000Z</time>
      </trkpt>
      <trkpt lat="42.96517" lon="1.10636">
        <ele>476</ele>
        <time>2025-09-20T08:40:26.000Z</time>
      </trkpt>
      <trkpt lat="42.96515" lon="1.10629">
        <ele>477</ele>
        <time>2025-09-20T08:40:27.000Z</time>
      </trkpt>
      <trkpt lat="42.96512" lon="1.10622">
        <ele>477</ele>
        <time>2025-09-20T08:40:28.000Z</time>
      </trkpt>
      <trkpt lat="42.96509" lon="1.10615">
        <ele>477</ele>
        <time>2025-09-20T08:40:29.000Z</time>
      </trkpt>
      <trkpt lat="42.96507" lon="1.10609">
        <ele>477</ele>
        <time>2025-09-20T08:40:30.000Z</time>
      </trkpt>
      <trkpt lat="42.96505" lon="1.10601">
        <ele>477</ele>
        <time>2025-09-20T08:40:31.000Z</time>
      </trkpt>
      <trkpt lat="42.96503" lon="1.10595">
        <ele>477</ele>
        <time>2025-09-20T08:40:32.000Z</time>
      </trkpt>
      <trkpt lat="42.96501" lon="1.10588">
        <ele>477</ele>
        <time>2025-09-20T08:40:33.000Z</time>
      </trkpt>
      <trkpt lat="42.965" lon="1.10582">
        <ele>476</ele>
        <time>2025-09-20T08:40:34.000Z</time>
      </trkpt>
      <trkpt lat="42.96498" lon="1.10575">
        <ele>476</ele>
        <time>2025-09-20T08:40:35.000Z</time>
      </trkpt>
      <trkpt lat="42.96497" lon="1.10569">
        <ele>476</ele>
        <time>2025-09-20T08:40:36.000Z</time>
      </trkpt>
      <trkpt lat="42.96496" lon="1.10562">
        <ele>475</ele>
        <time>2025-09-20T08:40:37.000Z</time>
      </trkpt>
      <trkpt lat="42.96495" lon="1.10556">
        <ele>475</ele>
        <time>2025-09-20T08:40:38.000Z</time>
      </trkpt>
      <trkpt lat="42.96494" lon="1.1055">
        <ele>475</ele>
        <time>2025-09-20T08:40:39.000Z</time>
      </trkpt>
      <trkpt lat="42.96494" lon="1.10546">
        <ele>475</ele>
        <time>2025-09-20T08:40:40.000Z</time>
      </trkpt>
      <trkpt lat="42.96493" lon="1.10541">
        <ele>475</ele>
        <time>2025-09-20T08:40:41.000Z</time>
      </trkpt>
      <trkpt lat="42.96492" lon="1.10536">
        <ele>475</ele>
        <time>2025-09-20T08:40:42.000Z</time>
      </trkpt>
      <trkpt lat="42.96491" lon="1.10532">
        <ele>476</ele>
        <time>2025-09-20T08:40:43.000Z</time>
      </trkpt>
      <trkpt lat="42.96491" lon="1.10528">
        <ele>475</ele>
        <time>2025-09-20T08:40:44.000Z</time>
      </trkpt>
      <trkpt lat="42.9649" lon="1.10523">
        <ele>475</ele>
        <time>2025-09-20T08:40:45.000Z</time>
      </trkpt>
      <trkpt lat="42.96488" lon="1.10519">
        <ele>476</ele>
        <time>2025-09-20T08:40:46.000Z</time>
      </trkpt>
      <trkpt lat="42.96487" lon="1.10516">
        <ele>476</ele>
        <time>2025-09-20T08:40:47.000Z</time>
      </trkpt>
      <trkpt lat="42.96485" lon="1.10512">
        <ele>476</ele>
        <time>2025-09-20T08:40:48.000Z</time>
      </trkpt>
      <trkpt lat="42.96484" lon="1.10509">
        <ele>477</ele>
        <time>2025-09-20T08:40:49.000Z</time>
      </trkpt>
      <trkpt lat="42.96483" lon="1.10504">
        <ele>477</ele>
        <time>2025-09-20T08:40:50.000Z</time>
      </trkpt>
      <trkpt lat="42.96481" lon="1.10501">
        <ele>477</ele>
        <time>2025-09-20T08:40:51.000Z</time>
      </trkpt>
      <trkpt lat="42.9648" lon="1.10498">
        <ele>477</ele>
        <time>2025-09-20T08:40:52.000Z</time>
      </trkpt>
      <trkpt lat="42.96479" lon="1.10494">
        <ele>478</ele>
        <time>2025-09-20T08:40:53.000Z</time>
      </trkpt>
      <trkpt lat="42.96477" lon="1.1049">
        <ele>478</ele>
        <time>2025-09-20T08:40:54.000Z</time>
      </trkpt>
      <trkpt lat="42.96475" lon="1.10486">
        <ele>479</ele>
        <time>2025-09-20T08:40:55.000Z</time>
      </trkpt>
      <trkpt lat="42.96473" lon="1.10482">
        <ele>479</ele>
        <time>2025-09-20T08:40:56.000Z</time>
      </trkpt>
      <trkpt lat="42.96472" lon="1.10479">
        <ele>479</ele>
        <time>2025-09-20T08:40:57.000Z</time>
      </trkpt>
      <trkpt lat="42.96471" lon="1.10475">
        <ele>479</ele>
        <time>2025-09-20T08:40:58.000Z</time>
      </trkpt>
      <trkpt lat="42.9647" lon="1.10472">
        <ele>479</ele>
        <time>2025-09-20T08:40:59.000Z</time>
      </trkpt>
      <trkpt lat="42.96469" lon="1.10469">
        <ele>479</ele>
        <time>2025-09-20T08:41:00.000Z</time>
      </trkpt>
      <trkpt lat="42.96467" lon="1.10466">
        <ele>479</ele>
        <time>2025-09-20T08:41:01.000Z</time>
      </trkpt>
      <trkpt lat="42.96466" lon="1.10463">
        <ele>479</ele>
        <time>2025-09-20T08:41:02.000Z</time>
      </trkpt>
      <trkpt lat="42.96465" lon="1.10459">
        <ele>480</ele>
        <time>2025-09-20T08:41:03.000Z</time>
      </trkpt>
      <trkpt lat="42.96463" lon="1.10454">
        <ele>479</ele>
        <time>2025-09-20T08:41:04.000Z</time>
      </trkpt>
      <trkpt lat="42.96461" lon="1.10449">
        <ele>479</ele>
        <time>2025-09-20T08:41:05.000Z</time>
      </trkpt>
      <trkpt lat="42.9646" lon="1.10444">
        <ele>479</ele>
        <time>2025-09-20T08:41:06.000Z</time>
      </trkpt>
      <trkpt lat="42.96458" lon="1.10438">
        <ele>480</ele>
        <time>2025-09-20T08:41:07.000Z</time>
      </trkpt>
      <trkpt lat="42.96456" lon="1.10431">
        <ele>479</ele>
        <time>2025-09-20T08:41:08.000Z</time>
      </trkpt>
      <trkpt lat="42.96456" lon="1.10425">
        <ele>479</ele>
        <time>2025-09-20T08:41:09.000Z</time>
      </trkpt>
      <trkpt lat="42.96458" lon="1.10419">
        <ele>478</ele>
        <time>2025-09-20T08:41:10.000Z</time>
      </trkpt>
      <trkpt lat="42.96463" lon="1.10412">
        <ele>477</ele>
        <time>2025-09-20T08:41:11.000Z</time>
      </trkpt>
      <trkpt lat="42.96468" lon="1.10407">
        <ele>476</ele>
        <time>2025-09-20T08:41:12.000Z</time>
      </trkpt>
      <trkpt lat="42.96475" lon="1.10403">
        <ele>475</ele>
        <time>2025-09-20T08:41:13.000Z</time>
      </trkpt>
      <trkpt lat="42.96481" lon="1.10398">
        <ele>476</ele>
        <time>2025-09-20T08:41:14.000Z</time>
      </trkpt>
      <trkpt lat="42.96486" lon="1.10392">
        <ele>476</ele>
        <time>2025-09-20T08:41:15.000Z</time>
      </trkpt>
      <trkpt lat="42.96493" lon="1.10387">
        <ele>476</ele>
        <time>2025-09-20T08:41:16.000Z</time>
      </trkpt>
      <trkpt lat="42.96499" lon="1.10381">
        <ele>476</ele>
        <time>2025-09-20T08:41:17.000Z</time>
      </trkpt>
      <trkpt lat="42.96505" lon="1.10375">
        <ele>475</ele>
        <time>2025-09-20T08:41:18.000Z</time>
      </trkpt>
      <trkpt lat="42.9651" lon="1.10368">
        <ele>475</ele>
        <time>2025-09-20T08:41:19.000Z</time>
      </trkpt>
      <trkpt lat="42.96515" lon="1.10361">
        <ele>474</ele>
        <time>2025-09-20T08:41:20.000Z</time>
      </trkpt>
      <trkpt lat="42.96522" lon="1.10356">
        <ele>473</ele>
        <time>2025-09-20T08:41:21.000Z</time>
      </trkpt>
      <trkpt lat="42.96529" lon="1.10352">
        <ele>474</ele>
        <time>2025-09-20T08:41:22.000Z</time>
      </trkpt>
      <trkpt lat="42.96535" lon="1.10348">
        <ele>474</ele>
        <time>2025-09-20T08:41:23.000Z</time>
      </trkpt>
      <trkpt lat="42.9654" lon="1.10344">
        <ele>474</ele>
        <time>2025-09-20T08:41:24.000Z</time>
      </trkpt>
      <trkpt lat="42.96545" lon="1.1034">
        <ele>474</ele>
        <time>2025-09-20T08:41:25.000Z</time>
      </trkpt>
      <trkpt lat="42.9655" lon="1.10337">
        <ele>474</ele>
        <time>2025-09-20T08:41:26.000Z</time>
      </trkpt>
      <trkpt lat="42.96554" lon="1.10334">
        <ele>474</ele>
        <time>2025-09-20T08:41:27.000Z</time>
      </trkpt>
      <trkpt lat="42.96557" lon="1.10331">
        <ele>474</ele>
        <time>2025-09-20T08:41:28.000Z</time>
      </trkpt>
      <trkpt lat="42.96561" lon="1.10327">
        <ele>474</ele>
        <time>2025-09-20T08:41:29.000Z</time>
      </trkpt>
      <trkpt lat="42.96564" lon="1.10324">
        <ele>474</ele>
        <time>2025-09-20T08:41:30.000Z</time>
      </trkpt>
      <trkpt lat="42.96567" lon="1.1032">
        <ele>475</ele>
        <time>2025-09-20T08:41:31.000Z</time>
      </trkpt>
      <trkpt lat="42.9657" lon="1.10316">
        <ele>475</ele>
        <time>2025-09-20T08:41:32.000Z</time>
      </trkpt>
      <trkpt lat="42.96573" lon="1.10313">
        <ele>476</ele>
        <time>2025-09-20T08:41:33.000Z</time>
      </trkpt>
      <trkpt lat="42.96576" lon="1.10308">
        <ele>476</ele>
        <time>2025-09-20T08:41:34.000Z</time>
      </trkpt>
      <trkpt lat="42.96579" lon="1.10304">
        <ele>476</ele>
        <time>2025-09-20T08:41:35.000Z</time>
      </trkpt>
      <trkpt lat="42.96582" lon="1.10299">
        <ele>476</ele>
        <time>2025-09-20T08:41:36.000Z</time>
      </trkpt>
      <trkpt lat="42.96585" lon="1.10295">
        <ele>475</ele>
        <time>2025-09-20T08:41:37.000Z</time>
      </trkpt>
      <trkpt lat="42.96588" lon="1.10291">
        <ele>475</ele>
        <time>2025-09-20T08:41:38.000Z</time>
      </trkpt>
      <trkpt lat="42.96591" lon="1.10287">
        <ele>476</ele>
        <time>2025-09-20T08:41:39.000Z</time>
      </trkpt>
      <trkpt lat="42.96594" lon="1.10284">
        <ele>476</ele>
        <time>2025-09-20T08:41:40.000Z</time>
      </trkpt>
      <trkpt lat="42.96598" lon="1.10281">
        <ele>476</ele>
        <time>2025-09-20T08:41:41.000Z</time>
      </trkpt>
      <trkpt lat="42.96601" lon="1.10277">
        <ele>476</ele>
        <time>2025-09-20T08:41:42.000Z</time>
      </trkpt>
      <trkpt lat="42.96604" lon="1.10274">
        <ele>476</ele>
        <time>2025-09-20T08:41:43.000Z</time>
      </trkpt>
      <trkpt lat="42.96607" lon="1.10271">
        <ele>477</ele>
        <time>2025-09-20T08:41:44.000Z</time>
      </trkpt>
      <trkpt lat="42.9661" lon="1.10267">
        <ele>476</ele>
        <time>2025-09-20T08:41:45.000Z</time>
      </trkpt>
      <trkpt lat="42.96613" lon="1.10263">
        <ele>476</ele>
        <time>2025-09-20T08:41:46.000Z</time>
      </trkpt>
      <trkpt lat="42.96615" lon="1.10258">
        <ele>476</ele>
        <time>2025-09-20T08:41:47.000Z</time>
      </trkpt>
      <trkpt lat="42.96618" lon="1.10255">
        <ele>477</ele>
        <time>2025-09-20T08:41:48.000Z</time>
      </trkpt>
      <trkpt lat="42.96621" lon="1.10251">
        <ele>477</ele>
        <time>2025-09-20T08:41:49.000Z</time>
      </trkpt>
      <trkpt lat="42.96624" lon="1.10248">
        <ele>477</ele>
        <time>2025-09-20T08:41:50.000Z</time>
      </trkpt>
      <trkpt lat="42.96627" lon="1.10245">
        <ele>477</ele>
        <time>2025-09-20T08:41:51.000Z</time>
      </trkpt>
      <trkpt lat="42.96631" lon="1.10242">
        <ele>476</ele>
        <time>2025-09-20T08:41:52.000Z</time>
      </trkpt>
      <trkpt lat="42.96635" lon="1.1024">
        <ele>476</ele>
        <time>2025-09-20T08:41:53.000Z</time>
      </trkpt>
      <trkpt lat="42.96638" lon="1.10238">
        <ele>476</ele>
        <time>2025-09-20T08:41:54.000Z</time>
      </trkpt>
      <trkpt lat="42.96642" lon="1.10235">
        <ele>477</ele>
        <time>2025-09-20T08:41:55.000Z</time>
      </trkpt>
      <trkpt lat="42.96646" lon="1.10233">
        <ele>477</ele>
        <time>2025-09-20T08:41:56.000Z</time>
      </trkpt>
      <trkpt lat="42.96651" lon="1.1023">
        <ele>477</ele>
        <time>2025-09-20T08:41:57.000Z</time>
      </trkpt>
      <trkpt lat="42.96655" lon="1.10227">
        <ele>477</ele>
        <time>2025-09-20T08:41:58.000Z</time>
      </trkpt>
      <trkpt lat="42.96658" lon="1.10225">
        <ele>477</ele>
        <time>2025-09-20T08:41:59.000Z</time>
      </trkpt>
      <trkpt lat="42.96662" lon="1.10223">
        <ele>477</ele>
        <time>2025-09-20T08:42:00.000Z</time>
      </trkpt>
      <trkpt lat="42.96665" lon="1.10221">
        <ele>477</ele>
        <time>2025-09-20T08:42:01.000Z</time>
      </trkpt>
      <trkpt lat="42.96669" lon="1.10219">
        <ele>477</ele>
        <time>2025-09-20T08:42:02.000Z</time>
      </trkpt>
      <trkpt lat="42.96672" lon="1.10218">
        <ele>478</ele>
        <time>2025-09-20T08:42:03.000Z</time>
      </trkpt>
      <trkpt lat="42.96676" lon="1.10216">
        <ele>478</ele>
        <time>2025-09-20T08:42:04.000Z</time>
      </trkpt>
      <trkpt lat="42.9668" lon="1.10215">
        <ele>478</ele>
        <time>2025-09-20T08:42:05.000Z</time>
      </trkpt>
      <trkpt lat="42.96684" lon="1.10213">
        <ele>478</ele>
        <time>2025-09-20T08:42:06.000Z</time>
      </trkpt>
      <trkpt lat="42.96688" lon="1.10214">
        <ele>478</ele>
        <time>2025-09-20T08:42:07.000Z</time>
      </trkpt>
      <trkpt lat="42.96692" lon="1.10214">
        <ele>478</ele>
        <time>2025-09-20T08:42:08.000Z</time>
      </trkpt>
      <trkpt lat="42.96696" lon="1.10214">
        <ele>478</ele>
        <time>2025-09-20T08:42:09.000Z</time>
      </trkpt>
      <trkpt lat="42.967" lon="1.10214">
        <ele>479</ele>
        <time>2025-09-20T08:42:10.000Z</time>
      </trkpt>
      <trkpt lat="42.96703" lon="1.10211">
        <ele>479</ele>
        <time>2025-09-20T08:42:11.000Z</time>
      </trkpt>
      <trkpt lat="42.96706" lon="1.10208">
        <ele>479</ele>
        <time>2025-09-20T08:42:12.000Z</time>
      </trkpt>
      <trkpt lat="42.96709" lon="1.10204">
        <ele>479</ele>
        <time>2025-09-20T08:42:13.000Z</time>
      </trkpt>
      <trkpt lat="42.96713" lon="1.102">
        <ele>479</ele>
        <time>2025-09-20T08:42:14.000Z</time>
      </trkpt>
      <trkpt lat="42.96717" lon="1.10196">
        <ele>479</ele>
        <time>2025-09-20T08:42:15.000Z</time>
      </trkpt>
      <trkpt lat="42.96718" lon="1.10191">
        <ele>479</ele>
        <time>2025-09-20T08:42:16.000Z</time>
      </trkpt>
      <trkpt lat="42.96719" lon="1.10185">
        <ele>479</ele>
        <time>2025-09-20T08:42:17.000Z</time>
      </trkpt>
      <trkpt lat="42.96719" lon="1.1018">
        <ele>480</ele>
        <time>2025-09-20T08:42:18.000Z</time>
      </trkpt>
      <trkpt lat="42.96718" lon="1.10174">
        <ele>480</ele>
        <time>2025-09-20T08:42:19.000Z</time>
      </trkpt>
      <trkpt lat="42.96716" lon="1.10169">
        <ele>480</ele>
        <time>2025-09-20T08:42:20.000Z</time>
      </trkpt>
      <trkpt lat="42.96716" lon="1.10163">
        <ele>480</ele>
        <time>2025-09-20T08:42:21.000Z</time>
      </trkpt>
      <trkpt lat="42.96715" lon="1.10157">
        <ele>481</ele>
        <time>2025-09-20T08:42:22.000Z</time>
      </trkpt>
      <trkpt lat="42.96715" lon="1.1015">
        <ele>481</ele>
        <time>2025-09-20T08:42:23.000Z</time>
      </trkpt>
      <trkpt lat="42.96714" lon="1.10144">
        <ele>481</ele>
        <time>2025-09-20T08:42:24.000Z</time>
      </trkpt>
      <trkpt lat="42.96714" lon="1.10138">
        <ele>481</ele>
        <time>2025-09-20T08:42:25.000Z</time>
      </trkpt>
      <trkpt lat="42.96715" lon="1.10131">
        <ele>481</ele>
        <time>2025-09-20T08:42:26.000Z</time>
      </trkpt>
      <trkpt lat="42.96717" lon="1.10125">
        <ele>481</ele>
        <time>2025-09-20T08:42:27.000Z</time>
      </trkpt>
      <trkpt lat="42.96718" lon="1.10119">
        <ele>481</ele>
        <time>2025-09-20T08:42:28.000Z</time>
      </trkpt>
      <trkpt lat="42.96721" lon="1.10114">
        <ele>481</ele>
        <time>2025-09-20T08:42:29.000Z</time>
      </trkpt>
      <trkpt lat="42.96723" lon="1.10109">
        <ele>481</ele>
        <time>2025-09-20T08:42:30.000Z</time>
      </trkpt>
      <trkpt lat="42.96727" lon="1.10105">
        <ele>481</ele>
        <time>2025-09-20T08:42:31.000Z</time>
      </trkpt>
      <trkpt lat="42.9673" lon="1.10102">
        <ele>481</ele>
        <time>2025-09-20T08:42:32.000Z</time>
      </trkpt>
      <trkpt lat="42.96734" lon="1.10098">
        <ele>481</ele>
        <time>2025-09-20T08:42:33.000Z</time>
      </trkpt>
      <trkpt lat="42.96738" lon="1.10096">
        <ele>481</ele>
        <time>2025-09-20T08:42:34.000Z</time>
      </trkpt>
      <trkpt lat="42.96741" lon="1.10093">
        <ele>481</ele>
        <time>2025-09-20T08:42:35.000Z</time>
      </trkpt>
      <trkpt lat="42.96745" lon="1.10091">
        <ele>481</ele>
        <time>2025-09-20T08:42:36.000Z</time>
      </trkpt>
      <trkpt lat="42.96749" lon="1.10089">
        <ele>481</ele>
        <time>2025-09-20T08:42:37.000Z</time>
      </trkpt>
      <trkpt lat="42.96753" lon="1.10086">
        <ele>481</ele>
        <time>2025-09-20T08:42:38.000Z</time>
      </trkpt>
      <trkpt lat="42.96757" lon="1.10084">
        <ele>482</ele>
        <time>2025-09-20T08:42:39.000Z</time>
      </trkpt>
      <trkpt lat="42.96761" lon="1.10081">
        <ele>482</ele>
        <time>2025-09-20T08:42:40.000Z</time>
      </trkpt>
      <trkpt lat="42.96765" lon="1.10079">
        <ele>482</ele>
        <time>2025-09-20T08:42:41.000Z</time>
      </trkpt>
      <trkpt lat="42.96768" lon="1.10077">
        <ele>482</ele>
        <time>2025-09-20T08:42:42.000Z</time>
      </trkpt>
      <trkpt lat="42.96772" lon="1.10075">
        <ele>483</ele>
        <time>2025-09-20T08:42:43.000Z</time>
      </trkpt>
      <trkpt lat="42.96775" lon="1.10073">
        <ele>483</ele>
        <time>2025-09-20T08:42:44.000Z</time>
      </trkpt>
      <trkpt lat="42.96779" lon="1.10072">
        <ele>483</ele>
        <time>2025-09-20T08:42:45.000Z</time>
      </trkpt>
      <trkpt lat="42.96783" lon="1.1007">
        <ele>483</ele>
        <time>2025-09-20T08:42:46.000Z</time>
      </trkpt>
      <trkpt lat="42.96786" lon="1.10068">
        <ele>484</ele>
        <time>2025-09-20T08:42:47.000Z</time>
      </trkpt>
      <trkpt lat="42.9679" lon="1.10067">
        <ele>484</ele>
        <time>2025-09-20T08:42:48.000Z</time>
      </trkpt>
      <trkpt lat="42.96794" lon="1.10067">
        <ele>484</ele>
        <time>2025-09-20T08:42:49.000Z</time>
      </trkpt>
      <trkpt lat="42.96799" lon="1.10068">
        <ele>484</ele>
        <time>2025-09-20T08:42:50.000Z</time>
      </trkpt>
      <trkpt lat="42.96803" lon="1.1007">
        <ele>484</ele>
        <time>2025-09-20T08:42:51.000Z</time>
      </trkpt>
      <trkpt lat="42.96806" lon="1.10074">
        <ele>484</ele>
        <time>2025-09-20T08:42:52.000Z</time>
      </trkpt>
      <trkpt lat="42.96809" lon="1.10078">
        <ele>484</ele>
        <time>2025-09-20T08:42:53.000Z</time>
      </trkpt>
      <trkpt lat="42.96812" lon="1.10082">
        <ele>484</ele>
        <time>2025-09-20T08:42:54.000Z</time>
      </trkpt>
      <trkpt lat="42.96814" lon="1.10086">
        <ele>484</ele>
        <time>2025-09-20T08:42:55.000Z</time>
      </trkpt>
      <trkpt lat="42.96817" lon="1.1009">
        <ele>485</ele>
        <time>2025-09-20T08:42:56.000Z</time>
      </trkpt>
      <trkpt lat="42.9682" lon="1.10095">
        <ele>485</ele>
        <time>2025-09-20T08:42:57.000Z</time>
      </trkpt>
      <trkpt lat="42.96822" lon="1.10099">
        <ele>485</ele>
        <time>2025-09-20T08:42:58.000Z</time>
      </trkpt>
      <trkpt lat="42.96825" lon="1.10103">
        <ele>486</ele>
        <time>2025-09-20T08:42:59.000Z</time>
      </trkpt>
      <trkpt lat="42.96828" lon="1.10107">
        <ele>486</ele>
        <time>2025-09-20T08:43:00.000Z</time>
      </trkpt>
      <trkpt lat="42.96831" lon="1.1011">
        <ele>486</ele>
        <time>2025-09-20T08:43:01.000Z</time>
      </trkpt>
      <trkpt lat="42.96833" lon="1.10114">
        <ele>486</ele>
        <time>2025-09-20T08:43:02.000Z</time>
      </trkpt>
      <trkpt lat="42.96836" lon="1.10118">
        <ele>487</ele>
        <time>2025-09-20T08:43:03.000Z</time>
      </trkpt>
      <trkpt lat="42.96839" lon="1.10121">
        <ele>487</ele>
        <time>2025-09-20T08:43:04.000Z</time>
      </trkpt>
      <trkpt lat="42.96842" lon="1.10124">
        <ele>487</ele>
        <time>2025-09-20T08:43:05.000Z</time>
      </trkpt>
      <trkpt lat="42.96845" lon="1.10128">
        <ele>487</ele>
        <time>2025-09-20T08:43:06.000Z</time>
      </trkpt>
      <trkpt lat="42.96848" lon="1.10131">
        <ele>487</ele>
        <time>2025-09-20T08:43:07.000Z</time>
      </trkpt>
      <trkpt lat="42.96851" lon="1.10135">
        <ele>488</ele>
        <time>2025-09-20T08:43:08.000Z</time>
      </trkpt>
      <trkpt lat="42.96854" lon="1.10137">
        <ele>489</ele>
        <time>2025-09-20T08:43:09.000Z</time>
      </trkpt>
      <trkpt lat="42.96857" lon="1.1014">
        <ele>489</ele>
        <time>2025-09-20T08:43:10.000Z</time>
      </trkpt>
      <trkpt lat="42.96861" lon="1.10142">
        <ele>489</ele>
        <time>2025-09-20T08:43:11.000Z</time>
      </trkpt>
      <trkpt lat="42.96865" lon="1.10145">
        <ele>489</ele>
        <time>2025-09-20T08:43:12.000Z</time>
      </trkpt>
      <trkpt lat="42.96868" lon="1.10148">
        <ele>489</ele>
        <time>2025-09-20T08:43:13.000Z</time>
      </trkpt>
      <trkpt lat="42.96872" lon="1.1015">
        <ele>489</ele>
        <time>2025-09-20T08:43:14.000Z</time>
      </trkpt>
      <trkpt lat="42.96876" lon="1.10151">
        <ele>489</ele>
        <time>2025-09-20T08:43:15.000Z</time>
      </trkpt>
      <trkpt lat="42.9688" lon="1.10152">
        <ele>489</ele>
        <time>2025-09-20T08:43:16.000Z</time>
      </trkpt>
      <trkpt lat="42.96884" lon="1.10152">
        <ele>489</ele>
        <time>2025-09-20T08:43:17.000Z</time>
      </trkpt>
      <trkpt lat="42.96888" lon="1.10152">
        <ele>489</ele>
        <time>2025-09-20T08:43:18.000Z</time>
      </trkpt>
      <trkpt lat="42.96892" lon="1.10153">
        <ele>489</ele>
        <time>2025-09-20T08:43:19.000Z</time>
      </trkpt>
      <trkpt lat="42.96896" lon="1.10154">
        <ele>489</ele>
        <time>2025-09-20T08:43:20.000Z</time>
      </trkpt>
      <trkpt lat="42.969" lon="1.10154">
        <ele>489</ele>
        <time>2025-09-20T08:43:21.000Z</time>
      </trkpt>
      <trkpt lat="42.96904" lon="1.10154">
        <ele>489</ele>
        <time>2025-09-20T08:43:22.000Z</time>
      </trkpt>
      <trkpt lat="42.96909" lon="1.10155">
        <ele>489</ele>
        <time>2025-09-20T08:43:23.000Z</time>
      </trkpt>
      <trkpt lat="42.96913" lon="1.10155">
        <ele>489</ele>
        <time>2025-09-20T08:43:24.000Z</time>
      </trkpt>
      <trkpt lat="42.96917" lon="1.10156">
        <ele>489</ele>
        <time>2025-09-20T08:43:25.000Z</time>
      </trkpt>
      <trkpt lat="42.96921" lon="1.10157">
        <ele>489</ele>
        <time>2025-09-20T08:43:26.000Z</time>
      </trkpt>
      <trkpt lat="42.96925" lon="1.10158">
        <ele>490</ele>
        <time>2025-09-20T08:43:27.000Z</time>
      </trkpt>
      <trkpt lat="42.9693" lon="1.10159">
        <ele>490</ele>
        <time>2025-09-20T08:43:28.000Z</time>
      </trkpt>
      <trkpt lat="42.96934" lon="1.1016">
        <ele>490</ele>
        <time>2025-09-20T08:43:29.000Z</time>
      </trkpt>
      <trkpt lat="42.96939" lon="1.10161">
        <ele>490</ele>
        <time>2025-09-20T08:43:30.000Z</time>
      </trkpt>
      <trkpt lat="42.96943" lon="1.10163">
        <ele>490</ele>
        <time>2025-09-20T08:43:31.000Z</time>
      </trkpt>
      <trkpt lat="42.96947" lon="1.10165">
        <ele>491</ele>
        <time>2025-09-20T08:43:32.000Z</time>
      </trkpt>
      <trkpt lat="42.96951" lon="1.10166">
        <ele>491</ele>
        <time>2025-09-20T08:43:33.000Z</time>
      </trkpt>
      <trkpt lat="42.96956" lon="1.10167">
        <ele>491</ele>
        <time>2025-09-20T08:43:34.000Z</time>
      </trkpt>
      <trkpt lat="42.9696" lon="1.10168">
        <ele>491</ele>
        <time>2025-09-20T08:43:35.000Z</time>
      </trkpt>
      <trkpt lat="42.96964" lon="1.1017">
        <ele>491</ele>
        <time>2025-09-20T08:43:36.000Z</time>
      </trkpt>
      <trkpt lat="42.96969" lon="1.10172">
        <ele>492</ele>
        <time>2025-09-20T08:43:37.000Z</time>
      </trkpt>
      <trkpt lat="42.96973" lon="1.10174">
        <ele>492</ele>
        <time>2025-09-20T08:43:38.000Z</time>
      </trkpt>
      <trkpt lat="42.96977" lon="1.10176">
        <ele>492</ele>
        <time>2025-09-20T08:43:39.000Z</time>
      </trkpt>
      <trkpt lat="42.96981" lon="1.10179">
        <ele>492</ele>
        <time>2025-09-20T08:43:40.000Z</time>
      </trkpt>
      <trkpt lat="42.96986" lon="1.10181">
        <ele>492</ele>
        <time>2025-09-20T08:43:41.000Z</time>
      </trkpt>
      <trkpt lat="42.9699" lon="1.10183">
        <ele>492</ele>
        <time>2025-09-20T08:43:42.000Z</time>
      </trkpt>
      <trkpt lat="42.96994" lon="1.10186">
        <ele>492</ele>
        <time>2025-09-20T08:43:43.000Z</time>
      </trkpt>
      <trkpt lat="42.96998" lon="1.10189">
        <ele>492</ele>
        <time>2025-09-20T08:43:44.000Z</time>
      </trkpt>
      <trkpt lat="42.97002" lon="1.10192">
        <ele>492</ele>
        <time>2025-09-20T08:43:45.000Z</time>
      </trkpt>
      <trkpt lat="42.97006" lon="1.10194">
        <ele>492</ele>
        <time>2025-09-20T08:43:46.000Z</time>
      </trkpt>
      <trkpt lat="42.97011" lon="1.10196">
        <ele>492</ele>
        <time>2025-09-20T08:43:47.000Z</time>
      </trkpt>
      <trkpt lat="42.97015" lon="1.10198">
        <ele>492</ele>
        <time>2025-09-20T08:43:48.000Z</time>
      </trkpt>
      <trkpt lat="42.9702" lon="1.10201">
        <ele>492</ele>
        <time>2025-09-20T08:43:49.000Z</time>
      </trkpt>
      <trkpt lat="42.97024" lon="1.10203">
        <ele>492</ele>
        <time>2025-09-20T08:43:50.000Z</time>
      </trkpt>
      <trkpt lat="42.97028" lon="1.10205">
        <ele>492</ele>
        <time>2025-09-20T08:43:51.000Z</time>
      </trkpt>
      <trkpt lat="42.97033" lon="1.10207">
        <ele>493</ele>
        <time>2025-09-20T08:43:52.000Z</time>
      </trkpt>
      <trkpt lat="42.97037" lon="1.10208">
        <ele>493</ele>
        <time>2025-09-20T08:43:53.000Z</time>
      </trkpt>
      <trkpt lat="42.97041" lon="1.1021">
        <ele>493</ele>
        <time>2025-09-20T08:43:54.000Z</time>
      </trkpt>
      <trkpt lat="42.97045" lon="1.10211">
        <ele>493</ele>
        <time>2025-09-20T08:43:55.000Z</time>
      </trkpt>
      <trkpt lat="42.97049" lon="1.10212">
        <ele>493</ele>
        <time>2025-09-20T08:43:56.000Z</time>
      </trkpt>
      <trkpt lat="42.97054" lon="1.10214">
        <ele>493</ele>
        <time>2025-09-20T08:43:57.000Z</time>
      </trkpt>
      <trkpt lat="42.97058" lon="1.10216">
        <ele>494</ele>
        <time>2025-09-20T08:43:58.000Z</time>
      </trkpt>
      <trkpt lat="42.97062" lon="1.10218">
        <ele>494</ele>
        <time>2025-09-20T08:43:59.000Z</time>
      </trkpt>
      <trkpt lat="42.97066" lon="1.10221">
        <ele>494</ele>
        <time>2025-09-20T08:44:00.000Z</time>
      </trkpt>
      <trkpt lat="42.9707" lon="1.10224">
        <ele>494</ele>
        <time>2025-09-20T08:44:01.000Z</time>
      </trkpt>
      <trkpt lat="42.97074" lon="1.10227">
        <ele>494</ele>
        <time>2025-09-20T08:44:02.000Z</time>
      </trkpt>
      <trkpt lat="42.97077" lon="1.10231">
        <ele>495</ele>
        <time>2025-09-20T08:44:03.000Z</time>
      </trkpt>
      <trkpt lat="42.9708" lon="1.10234">
        <ele>495</ele>
        <time>2025-09-20T08:44:04.000Z</time>
      </trkpt>
      <trkpt lat="42.97084" lon="1.10237">
        <ele>495</ele>
        <time>2025-09-20T08:44:05.000Z</time>
      </trkpt>
      <trkpt lat="42.97088" lon="1.1024">
        <ele>495</ele>
        <time>2025-09-20T08:44:06.000Z</time>
      </trkpt>
      <trkpt lat="42.97092" lon="1.10244">
        <ele>495</ele>
        <time>2025-09-20T08:44:07.000Z</time>
      </trkpt>
      <trkpt lat="42.97095" lon="1.10247">
        <ele>495</ele>
        <time>2025-09-20T08:44:08.000Z</time>
      </trkpt>
      <trkpt lat="42.97099" lon="1.1025">
        <ele>495</ele>
        <time>2025-09-20T08:44:09.000Z</time>
      </trkpt>
      <trkpt lat="42.97102" lon="1.10252">
        <ele>495</ele>
        <time>2025-09-20T08:44:10.000Z</time>
      </trkpt>
      <trkpt lat="42.97107" lon="1.10255">
        <ele>495</ele>
        <time>2025-09-20T08:44:11.000Z</time>
      </trkpt>
      <trkpt lat="42.9711" lon="1.10258">
        <ele>495</ele>
        <time>2025-09-20T08:44:12.000Z</time>
      </trkpt>
      <trkpt lat="42.97113" lon="1.10261">
        <ele>495</ele>
        <time>2025-09-20T08:44:13.000Z</time>
      </trkpt>
      <trkpt lat="42.97117" lon="1.10264">
        <ele>496</ele>
        <time>2025-09-20T08:44:14.000Z</time>
      </trkpt>
      <trkpt lat="42.97121" lon="1.10267">
        <ele>496</ele>
        <time>2025-09-20T08:44:15.000Z</time>
      </trkpt>
      <trkpt lat="42.97124" lon="1.1027">
        <ele>496</ele>
        <time>2025-09-20T08:44:16.000Z</time>
      </trkpt>
      <trkpt lat="42.97128" lon="1.10273">
        <ele>496</ele>
        <time>2025-09-20T08:44:17.000Z</time>
      </trkpt>
      <trkpt lat="42.97131" lon="1.10275">
        <ele>496</ele>
        <time>2025-09-20T08:44:18.000Z</time>
      </trkpt>
      <trkpt lat="42.97135" lon="1.10278">
        <ele>496</ele>
        <time>2025-09-20T08:44:19.000Z</time>
      </trkpt>
      <trkpt lat="42.97139" lon="1.10281">
        <ele>496</ele>
        <time>2025-09-20T08:44:20.000Z</time>
      </trkpt>
      <trkpt lat="42.97142" lon="1.10283">
        <ele>497</ele>
        <time>2025-09-20T08:44:21.000Z</time>
      </trkpt>
      <trkpt lat="42.97145" lon="1.10286">
        <ele>497</ele>
        <time>2025-09-20T08:44:22.000Z</time>
      </trkpt>
      <trkpt lat="42.97148" lon="1.10288">
        <ele>498</ele>
        <time>2025-09-20T08:44:23.000Z</time>
      </trkpt>
      <trkpt lat="42.97152" lon="1.10291">
        <ele>498</ele>
        <time>2025-09-20T08:44:24.000Z</time>
      </trkpt>
      <trkpt lat="42.97155" lon="1.10294">
        <ele>498</ele>
        <time>2025-09-20T08:44:25.000Z</time>
      </trkpt>
      <trkpt lat="42.97157" lon="1.10296">
        <ele>499</ele>
        <time>2025-09-20T08:44:26.000Z</time>
      </trkpt>
      <trkpt lat="42.9716" lon="1.10299">
        <ele>499</ele>
        <time>2025-09-20T08:44:27.000Z</time>
      </trkpt>
      <trkpt lat="42.97163" lon="1.10301">
        <ele>499</ele>
        <time>2025-09-20T08:44:28.000Z</time>
      </trkpt>
      <trkpt lat="42.97166" lon="1.10304">
        <ele>500</ele>
        <time>2025-09-20T08:44:29.000Z</time>
      </trkpt>
      <trkpt lat="42.97169" lon="1.10307">
        <ele>500</ele>
        <time>2025-09-20T08:44:30.000Z</time>
      </trkpt>
      <trkpt lat="42.97172" lon="1.10309">
        <ele>501</ele>
        <time>2025-09-20T08:44:31.000Z</time>
      </trkpt>
      <trkpt lat="42.97174" lon="1.10313">
        <ele>501</ele>
        <time>2025-09-20T08:44:32.000Z</time>
      </trkpt>
      <trkpt lat="42.97177" lon="1.10315">
        <ele>501</ele>
        <time>2025-09-20T08:44:33.000Z</time>
      </trkpt>
      <trkpt lat="42.97179" lon="1.10318">
        <ele>502</ele>
        <time>2025-09-20T08:44:34.000Z</time>
      </trkpt>
      <trkpt lat="42.97182" lon="1.10321">
        <ele>502</ele>
        <time>2025-09-20T08:44:35.000Z</time>
      </trkpt>
      <trkpt lat="42.97184" lon="1.10324">
        <ele>502</ele>
        <time>2025-09-20T08:44:36.000Z</time>
      </trkpt>
      <trkpt lat="42.97187" lon="1.10327">
        <ele>503</ele>
        <time>2025-09-20T08:44:37.000Z</time>
      </trkpt>
      <trkpt lat="42.97189" lon="1.1033">
        <ele>503</ele>
        <time>2025-09-20T08:44:38.000Z</time>
      </trkpt>
      <trkpt lat="42.97192" lon="1.10332">
        <ele>504</ele>
        <time>2025-09-20T08:44:39.000Z</time>
      </trkpt>
      <trkpt lat="42.97196" lon="1.10335">
        <ele>504</ele>
        <time>2025-09-20T08:44:40.000Z</time>
      </trkpt>
      <trkpt lat="42.97199" lon="1.10338">
        <ele>504</ele>
        <time>2025-09-20T08:44:41.000Z</time>
      </trkpt>
      <trkpt lat="42.97202" lon="1.1034">
        <ele>504</ele>
        <time>2025-09-20T08:44:42.000Z</time>
      </trkpt>
      <trkpt lat="42.97204" lon="1.10343">
        <ele>504</ele>
        <time>2025-09-20T08:44:43.000Z</time>
      </trkpt>
      <trkpt lat="42.97207" lon="1.10346">
        <ele>505</ele>
        <time>2025-09-20T08:44:44.000Z</time>
      </trkpt>
      <trkpt lat="42.9721" lon="1.10347">
        <ele>505</ele>
        <time>2025-09-20T08:44:45.000Z</time>
      </trkpt>
      <trkpt lat="42.97213" lon="1.10349">
        <ele>505</ele>
        <time>2025-09-20T08:44:46.000Z</time>
      </trkpt>
      <trkpt lat="42.97216" lon="1.1035">
        <ele>505</ele>
        <time>2025-09-20T08:44:47.000Z</time>
      </trkpt>
      <trkpt lat="42.97219" lon="1.1035">
        <ele>505</ele>
        <time>2025-09-20T08:44:48.000Z</time>
      </trkpt>
      <trkpt lat="42.97222" lon="1.10351">
        <ele>505</ele>
        <time>2025-09-20T08:44:49.000Z</time>
      </trkpt>
      <trkpt lat="42.97225" lon="1.10352">
        <ele>505</ele>
        <time>2025-09-20T08:44:50.000Z</time>
      </trkpt>
      <trkpt lat="42.97229" lon="1.10353">
        <ele>505</ele>
        <time>2025-09-20T08:44:51.000Z</time>
      </trkpt>
      <trkpt lat="42.97232" lon="1.10354">
        <ele>505</ele>
        <time>2025-09-20T08:44:52.000Z</time>
      </trkpt>
      <trkpt lat="42.97237" lon="1.10356">
        <ele>505</ele>
        <time>2025-09-20T08:44:53.000Z</time>
      </trkpt>
      <trkpt lat="42.97243" lon="1.10358">
        <ele>504</ele>
        <time>2025-09-20T08:44:54.000Z</time>
      </trkpt>
      <trkpt lat="42.9725" lon="1.10358">
        <ele>503</ele>
        <time>2025-09-20T08:44:55.000Z</time>
      </trkpt>
      <trkpt lat="42.97256" lon="1.1036">
        <ele>503</ele>
        <time>2025-09-20T08:44:56.000Z</time>
      </trkpt>
      <trkpt lat="42.97263" lon="1.1036">
        <ele>502</ele>
        <time>2025-09-20T08:44:57.000Z</time>
      </trkpt>
      <trkpt lat="42.97271" lon="1.10361">
        <ele>501</ele>
        <time>2025-09-20T08:44:58.000Z</time>
      </trkpt>
      <trkpt lat="42.9728" lon="1.1036">
        <ele>500</ele>
        <time>2025-09-20T08:44:59.000Z</time>
      </trkpt>
      <trkpt lat="42.9729" lon="1.10353">
        <ele>498</ele>
        <time>2025-09-20T08:45:00.000Z</time>
      </trkpt>
      <trkpt lat="42.97299" lon="1.10342">
        <ele>497</ele>
        <time>2025-09-20T08:45:01.000Z</time>
      </trkpt>
      <trkpt lat="42.97308" lon="1.10333">
        <ele>495</ele>
        <time>2025-09-20T08:45:02.000Z</time>
      </trkpt>
      <trkpt lat="42.97319" lon="1.10326">
        <ele>494</ele>
        <time>2025-09-20T08:45:03.000Z</time>
      </trkpt>
      <trkpt lat="42.97329" lon="1.10318">
        <ele>493</ele>
        <time>2025-09-20T08:45:04.000Z</time>
      </trkpt>
      <trkpt lat="42.9734" lon="1.10309">
        <ele>491</ele>
        <time>2025-09-20T08:45:05.000Z</time>
      </trkpt>
      <trkpt lat="42.9735" lon="1.10301">
        <ele>491</ele>
        <time>2025-09-20T08:45:06.000Z</time>
      </trkpt>
      <trkpt lat="42.97359" lon="1.10293">
        <ele>490</ele>
        <time>2025-09-20T08:45:07.000Z</time>
      </trkpt>
      <trkpt lat="42.97369" lon="1.10284">
        <ele>490</ele>
        <time>2025-09-20T08:45:08.000Z</time>
      </trkpt>
      <trkpt lat="42.97378" lon="1.10276">
        <ele>490</ele>
        <time>2025-09-20T08:45:09.000Z</time>
      </trkpt>
      <trkpt lat="42.97387" lon="1.10267">
        <ele>489</ele>
        <time>2025-09-20T08:45:10.000Z</time>
      </trkpt>
      <trkpt lat="42.97396" lon="1.10258">
        <ele>489</ele>
        <time>2025-09-20T08:45:11.000Z</time>
      </trkpt>
      <trkpt lat="42.97404" lon="1.10249">
        <ele>488</ele>
        <time>2025-09-20T08:45:12.000Z</time>
      </trkpt>
      <trkpt lat="42.97413" lon="1.10241">
        <ele>488</ele>
        <time>2025-09-20T08:45:13.000Z</time>
      </trkpt>
      <trkpt lat="42.97423" lon="1.10237">
        <ele>488</ele>
        <time>2025-09-20T08:45:14.000Z</time>
      </trkpt>
      <trkpt lat="42.97433" lon="1.10233">
        <ele>488</ele>
        <time>2025-09-20T08:45:15.000Z</time>
      </trkpt>
      <trkpt lat="42.97443" lon="1.1023">
        <ele>488</ele>
        <time>2025-09-20T08:45:16.000Z</time>
      </trkpt>
      <trkpt lat="42.97452" lon="1.10225">
        <ele>488</ele>
        <time>2025-09-20T08:45:17.000Z</time>
      </trkpt>
      <trkpt lat="42.97461" lon="1.10219">
        <ele>488</ele>
        <time>2025-09-20T08:45:18.000Z</time>
      </trkpt>
      <trkpt lat="42.97468" lon="1.10213">
        <ele>489</ele>
        <time>2025-09-20T08:45:19.000Z</time>
      </trkpt>
      <trkpt lat="42.97474" lon="1.10206">
        <ele>488</ele>
        <time>2025-09-20T08:45:20.000Z</time>
      </trkpt>
      <trkpt lat="42.9748" lon="1.10199">
        <ele>488</ele>
        <time>2025-09-20T08:45:21.000Z</time>
      </trkpt>
      <trkpt lat="42.97484" lon="1.1019">
        <ele>488</ele>
        <time>2025-09-20T08:45:22.000Z</time>
      </trkpt>
      <trkpt lat="42.97486" lon="1.10181">
        <ele>487</ele>
        <time>2025-09-20T08:45:23.000Z</time>
      </trkpt>
      <trkpt lat="42.97488" lon="1.10172">
        <ele>487</ele>
        <time>2025-09-20T08:45:24.000Z</time>
      </trkpt>
      <trkpt lat="42.9749" lon="1.10164">
        <ele>487</ele>
        <time>2025-09-20T08:45:25.000Z</time>
      </trkpt>
      <trkpt lat="42.97492" lon="1.10155">
        <ele>487</ele>
        <time>2025-09-20T08:45:26.000Z</time>
      </trkpt>
      <trkpt lat="42.97494" lon="1.10147">
        <ele>488</ele>
        <time>2025-09-20T08:45:27.000Z</time>
      </trkpt>
      <trkpt lat="42.97496" lon="1.1014">
        <ele>488</ele>
        <time>2025-09-20T08:45:28.000Z</time>
      </trkpt>
      <trkpt lat="42.97499" lon="1.10134">
        <ele>488</ele>
        <time>2025-09-20T08:45:29.000Z</time>
      </trkpt>
      <trkpt lat="42.97502" lon="1.1013">
        <ele>488</ele>
        <time>2025-09-20T08:45:30.000Z</time>
      </trkpt>
      <trkpt lat="42.97506" lon="1.10127">
        <ele>488</ele>
        <time>2025-09-20T08:45:31.000Z</time>
      </trkpt>
      <trkpt lat="42.9751" lon="1.10124">
        <ele>489</ele>
        <time>2025-09-20T08:45:32.000Z</time>
      </trkpt>
      <trkpt lat="42.97514" lon="1.10121">
        <ele>488</ele>
        <time>2025-09-20T08:45:33.000Z</time>
      </trkpt>
      <trkpt lat="42.97518" lon="1.10118">
        <ele>488</ele>
        <time>2025-09-20T08:45:34.000Z</time>
      </trkpt>
      <trkpt lat="42.97521" lon="1.10116">
        <ele>489</ele>
        <time>2025-09-20T08:45:35.000Z</time>
      </trkpt>
      <trkpt lat="42.97525" lon="1.10113">
        <ele>489</ele>
        <time>2025-09-20T08:45:36.000Z</time>
      </trkpt>
      <trkpt lat="42.97528" lon="1.10111">
        <ele>489</ele>
        <time>2025-09-20T08:45:37.000Z</time>
      </trkpt>
      <trkpt lat="42.9753" lon="1.10109">
        <ele>490</ele>
        <time>2025-09-20T08:45:38.000Z</time>
      </trkpt>
      <trkpt lat="42.97533" lon="1.10107">
        <ele>490</ele>
        <time>2025-09-20T08:45:39.000Z</time>
      </trkpt>
      <trkpt lat="42.97536" lon="1.10105">
        <ele>490</ele>
        <time>2025-09-20T08:45:40.000Z</time>
      </trkpt>
      <trkpt lat="42.97539" lon="1.10103">
        <ele>490</ele>
        <time>2025-09-20T08:45:41.000Z</time>
      </trkpt>
      <trkpt lat="42.97542" lon="1.101">
        <ele>490</ele>
        <time>2025-09-20T08:45:42.000Z</time>
      </trkpt>
      <trkpt lat="42.97545" lon="1.10097">
        <ele>490</ele>
        <time>2025-09-20T08:45:43.000Z</time>
      </trkpt>
      <trkpt lat="42.97549" lon="1.10096">
        <ele>491</ele>
        <time>2025-09-20T08:45:44.000Z</time>
      </trkpt>
      <trkpt lat="42.97552" lon="1.10094">
        <ele>491</ele>
        <time>2025-09-20T08:45:45.000Z</time>
      </trkpt>
      <trkpt lat="42.97555" lon="1.10092">
        <ele>491</ele>
        <time>2025-09-20T08:45:46.000Z</time>
      </trkpt>
      <trkpt lat="42.97558" lon="1.1009">
        <ele>491</ele>
        <time>2025-09-20T08:45:47.000Z</time>
      </trkpt>
      <trkpt lat="42.97561" lon="1.10088">
        <ele>491</ele>
        <time>2025-09-20T08:45:48.000Z</time>
      </trkpt>
      <trkpt lat="42.97564" lon="1.10085">
        <ele>491</ele>
        <time>2025-09-20T08:45:49.000Z</time>
      </trkpt>
      <trkpt lat="42.97567" lon="1.10083">
        <ele>492</ele>
        <time>2025-09-20T08:45:50.000Z</time>
      </trkpt>
      <trkpt lat="42.97571" lon="1.10079">
        <ele>492</ele>
        <time>2025-09-20T08:45:51.000Z</time>
      </trkpt>
      <trkpt lat="42.97575" lon="1.10078">
        <ele>492</ele>
        <time>2025-09-20T08:45:52.000Z</time>
      </trkpt>
      <trkpt lat="42.97579" lon="1.10081">
        <ele>492</ele>
        <time>2025-09-20T08:45:53.000Z</time>
      </trkpt>
      <trkpt lat="42.97582" lon="1.10085">
        <ele>493</ele>
        <time>2025-09-20T08:45:54.000Z</time>
      </trkpt>
      <trkpt lat="42.97583" lon="1.1009">
        <ele>493</ele>
        <time>2025-09-20T08:45:55.000Z</time>
      </trkpt>
      <trkpt lat="42.97585" lon="1.10094">
        <ele>494</ele>
        <time>2025-09-20T08:45:56.000Z</time>
      </trkpt>
      <trkpt lat="42.97586" lon="1.10098">
        <ele>494</ele>
        <time>2025-09-20T08:45:57.000Z</time>
      </trkpt>
      <trkpt lat="42.97587" lon="1.10102">
        <ele>494</ele>
        <time>2025-09-20T08:45:58.000Z</time>
      </trkpt>
      <trkpt lat="42.97587" lon="1.10105">
        <ele>495</ele>
        <time>2025-09-20T08:45:59.000Z</time>
      </trkpt>
      <trkpt lat="42.97588" lon="1.10109">
        <ele>495</ele>
        <time>2025-09-20T08:46:00.000Z</time>
      </trkpt>
      <trkpt lat="42.97589" lon="1.10113">
        <ele>495</ele>
        <time>2025-09-20T08:46:01.000Z</time>
      </trkpt>
      <trkpt lat="42.9759" lon="1.10117">
        <ele>496</ele>
        <time>2025-09-20T08:46:02.000Z</time>
      </trkpt>
      <trkpt lat="42.97591" lon="1.10121">
        <ele>497</ele>
        <time>2025-09-20T08:46:03.000Z</time>
      </trkpt>
      <trkpt lat="42.97591" lon="1.10126">
        <ele>497</ele>
        <time>2025-09-20T08:46:04.000Z</time>
      </trkpt>
      <trkpt lat="42.97592" lon="1.10131">
        <ele>497</ele>
        <time>2025-09-20T08:46:05.000Z</time>
      </trkpt>
      <trkpt lat="42.97591" lon="1.10135">
        <ele>498</ele>
        <time>2025-09-20T08:46:06.000Z</time>
      </trkpt>
      <trkpt lat="42.9759" lon="1.10139">
        <ele>498</ele>
        <time>2025-09-20T08:46:07.000Z</time>
      </trkpt>
      <trkpt lat="42.97589" lon="1.10143">
        <ele>498</ele>
        <time>2025-09-20T08:46:08.000Z</time>
      </trkpt>
      <trkpt lat="42.97587" lon="1.10147">
        <ele>498</ele>
        <time>2025-09-20T08:46:09.000Z</time>
      </trkpt>
      <trkpt lat="42.97587" lon="1.10152">
        <ele>498</ele>
        <time>2025-09-20T08:46:10.000Z</time>
      </trkpt>
      <trkpt lat="42.97586" lon="1.10156">
        <ele>498</ele>
        <time>2025-09-20T08:46:11.000Z</time>
      </trkpt>
      <trkpt lat="42.97586" lon="1.10161">
        <ele>498</ele>
        <time>2025-09-20T08:46:12.000Z</time>
      </trkpt>
      <trkpt lat="42.97586" lon="1.10165">
        <ele>498</ele>
        <time>2025-09-20T08:46:13.000Z</time>
      </trkpt>
      <trkpt lat="42.97585" lon="1.10169">
        <ele>498</ele>
        <time>2025-09-20T08:46:14.000Z</time>
      </trkpt>
      <trkpt lat="42.97586" lon="1.10172">
        <ele>498</ele>
        <time>2025-09-20T08:46:15.000Z</time>
      </trkpt>
      <trkpt lat="42.97586" lon="1.10176">
        <ele>498</ele>
        <time>2025-09-20T08:46:16.000Z</time>
      </trkpt>
      <trkpt lat="42.97585" lon="1.1018">
        <ele>498</ele>
        <time>2025-09-20T08:46:17.000Z</time>
      </trkpt>
      <trkpt lat="42.97585" lon="1.10183">
        <ele>498</ele>
        <time>2025-09-20T08:46:18.000Z</time>
      </trkpt>
      <trkpt lat="42.97585" lon="1.10187">
        <ele>497</ele>
        <time>2025-09-20T08:46:19.000Z</time>
      </trkpt>
      <trkpt lat="42.97585" lon="1.10192">
        <ele>497</ele>
        <time>2025-09-20T08:46:20.000Z</time>
      </trkpt>
      <trkpt lat="42.97584" lon="1.10196">
        <ele>498</ele>
        <time>2025-09-20T08:46:21.000Z</time>
      </trkpt>
      <trkpt lat="42.97583" lon="1.10201">
        <ele>498</ele>
        <time>2025-09-20T08:46:22.000Z</time>
      </trkpt>
      <trkpt lat="42.97583" lon="1.10205">
        <ele>498</ele>
        <time>2025-09-20T08:46:23.000Z</time>
      </trkpt>
      <trkpt lat="42.97584" lon="1.1021">
        <ele>499</ele>
        <time>2025-09-20T08:46:24.000Z</time>
      </trkpt>
      <trkpt lat="42.97585" lon="1.10214">
        <ele>499</ele>
        <time>2025-09-20T08:46:25.000Z</time>
      </trkpt>
      <trkpt lat="42.97586" lon="1.10218">
        <ele>500</ele>
        <time>2025-09-20T08:46:26.000Z</time>
      </trkpt>
      <trkpt lat="42.97588" lon="1.10221">
        <ele>501</ele>
        <time>2025-09-20T08:46:27.000Z</time>
      </trkpt>
      <trkpt lat="42.9759" lon="1.10225">
        <ele>502</ele>
        <time>2025-09-20T08:46:28.000Z</time>
      </trkpt>
      <trkpt lat="42.97591" lon="1.10228">
        <ele>502</ele>
        <time>2025-09-20T08:46:29.000Z</time>
      </trkpt>
      <trkpt lat="42.97593" lon="1.10232">
        <ele>502</ele>
        <time>2025-09-20T08:46:30.000Z</time>
      </trkpt>
      <trkpt lat="42.97595" lon="1.10236">
        <ele>503</ele>
        <time>2025-09-20T08:46:31.000Z</time>
      </trkpt>
      <trkpt lat="42.97598" lon="1.10239">
        <ele>503</ele>
        <time>2025-09-20T08:46:32.000Z</time>
      </trkpt>
      <trkpt lat="42.976" lon="1.10243">
        <ele>503</ele>
        <time>2025-09-20T08:46:33.000Z</time>
      </trkpt>
      <trkpt lat="42.97604" lon="1.10247">
        <ele>504</ele>
        <time>2025-09-20T08:46:34.000Z</time>
      </trkpt>
      <trkpt lat="42.97608" lon="1.10251">
        <ele>503</ele>
        <time>2025-09-20T08:46:35.000Z</time>
      </trkpt>
      <trkpt lat="42.97612" lon="1.10254">
        <ele>504</ele>
        <time>2025-09-20T08:46:36.000Z</time>
      </trkpt>
      <trkpt lat="42.97616" lon="1.10261">
        <ele>503</ele>
        <time>2025-09-20T08:46:37.000Z</time>
      </trkpt>
      <trkpt lat="42.9762" lon="1.10267">
        <ele>503</ele>
        <time>2025-09-20T08:46:38.000Z</time>
      </trkpt>
      <trkpt lat="42.97623" lon="1.10273">
        <ele>502</ele>
        <time>2025-09-20T08:46:39.000Z</time>
      </trkpt>
      <trkpt lat="42.97626" lon="1.1028">
        <ele>502</ele>
        <time>2025-09-20T08:46:40.000Z</time>
      </trkpt>
      <trkpt lat="42.97628" lon="1.10286">
        <ele>503</ele>
        <time>2025-09-20T08:46:41.000Z</time>
      </trkpt>
      <trkpt lat="42.97631" lon="1.10292">
        <ele>503</ele>
        <time>2025-09-20T08:46:42.000Z</time>
      </trkpt>
      <trkpt lat="42.97633" lon="1.10297">
        <ele>502</ele>
        <time>2025-09-20T08:46:43.000Z</time>
      </trkpt>
      <trkpt lat="42.97636" lon="1.10302">
        <ele>502</ele>
        <time>2025-09-20T08:46:44.000Z</time>
      </trkpt>
      <trkpt lat="42.97638" lon="1.10307">
        <ele>502</ele>
        <time>2025-09-20T08:46:45.000Z</time>
      </trkpt>
      <trkpt lat="42.97641" lon="1.10313">
        <ele>502</ele>
        <time>2025-09-20T08:46:46.000Z</time>
      </trkpt>
      <trkpt lat="42.97644" lon="1.10319">
        <ele>502</ele>
        <time>2025-09-20T08:46:47.000Z</time>
      </trkpt>
      <trkpt lat="42.97647" lon="1.10327">
        <ele>502</ele>
        <time>2025-09-20T08:46:48.000Z</time>
      </trkpt>
      <trkpt lat="42.97651" lon="1.10336">
        <ele>501</ele>
        <time>2025-09-20T08:46:49.000Z</time>
      </trkpt>
      <trkpt lat="42.97656" lon="1.10345">
        <ele>501</ele>
        <time>2025-09-20T08:46:50.000Z</time>
      </trkpt>
      <trkpt lat="42.9766" lon="1.10352">
        <ele>500</ele>
        <time>2025-09-20T08:46:51.000Z</time>
      </trkpt>
      <trkpt lat="42.97664" lon="1.10359">
        <ele>500</ele>
        <time>2025-09-20T08:46:52.000Z</time>
      </trkpt>
      <trkpt lat="42.97669" lon="1.10365">
        <ele>500</ele>
        <time>2025-09-20T08:46:53.000Z</time>
      </trkpt>
      <trkpt lat="42.97673" lon="1.10371">
        <ele>499</ele>
        <time>2025-09-20T08:46:54.000Z</time>
      </trkpt>
      <trkpt lat="42.97677" lon="1.10376">
        <ele>500</ele>
        <time>2025-09-20T08:46:55.000Z</time>
      </trkpt>
      <trkpt lat="42.9768" lon="1.1038">
        <ele>500</ele>
        <time>2025-09-20T08:46:56.000Z</time>
      </trkpt>
      <trkpt lat="42.97683" lon="1.10383">
        <ele>500</ele>
        <time>2025-09-20T08:46:57.000Z</time>
      </trkpt>
      <trkpt lat="42.97687" lon="1.10387">
        <ele>501</ele>
        <time>2025-09-20T08:46:58.000Z</time>
      </trkpt>
      <trkpt lat="42.97689" lon="1.1039">
        <ele>501</ele>
        <time>2025-09-20T08:46:59.000Z</time>
      </trkpt>
      <trkpt lat="42.97691" lon="1.10393">
        <ele>501</ele>
        <time>2025-09-20T08:47:00.000Z</time>
      </trkpt>
      <trkpt lat="42.97693" lon="1.10397">
        <ele>501</ele>
        <time>2025-09-20T08:47:01.000Z</time>
      </trkpt>
      <trkpt lat="42.97696" lon="1.104">
        <ele>501</ele>
        <time>2025-09-20T08:47:02.000Z</time>
      </trkpt>
      <trkpt lat="42.97698" lon="1.10402">
        <ele>501</ele>
        <time>2025-09-20T08:47:03.000Z</time>
      </trkpt>
      <trkpt lat="42.97701" lon="1.10404">
        <ele>501</ele>
        <time>2025-09-20T08:47:04.000Z</time>
      </trkpt>
      <trkpt lat="42.97703" lon="1.10408">
        <ele>501</ele>
        <time>2025-09-20T08:47:05.000Z</time>
      </trkpt>
      <trkpt lat="42.97705" lon="1.1041">
        <ele>502</ele>
        <time>2025-09-20T08:47:06.000Z</time>
      </trkpt>
      <trkpt lat="42.97708" lon="1.10413">
        <ele>502</ele>
        <time>2025-09-20T08:47:07.000Z</time>
      </trkpt>
      <trkpt lat="42.9771" lon="1.10416">
        <ele>503</ele>
        <time>2025-09-20T08:47:08.000Z</time>
      </trkpt>
      <trkpt lat="42.97713" lon="1.10418">
        <ele>503</ele>
        <time>2025-09-20T08:47:09.000Z</time>
      </trkpt>
      <trkpt lat="42.97716" lon="1.10421">
        <ele>503</ele>
        <time>2025-09-20T08:47:10.000Z</time>
      </trkpt>
      <trkpt lat="42.97719" lon="1.10424">
        <ele>503</ele>
        <time>2025-09-20T08:47:11.000Z</time>
      </trkpt>
      <trkpt lat="42.97722" lon="1.10427">
        <ele>504</ele>
        <time>2025-09-20T08:47:12.000Z</time>
      </trkpt>
      <trkpt lat="42.97725" lon="1.1043">
        <ele>504</ele>
        <time>2025-09-20T08:47:13.000Z</time>
      </trkpt>
      <trkpt lat="42.97727" lon="1.10433">
        <ele>505</ele>
        <time>2025-09-20T08:47:14.000Z</time>
      </trkpt>
      <trkpt lat="42.9773" lon="1.10436">
        <ele>505</ele>
        <time>2025-09-20T08:47:15.000Z</time>
      </trkpt>
      <trkpt lat="42.97732" lon="1.10439">
        <ele>506</ele>
        <time>2025-09-20T08:47:16.000Z</time>
      </trkpt>
      <trkpt lat="42.97734" lon="1.10441">
        <ele>506</ele>
        <time>2025-09-20T08:47:17.000Z</time>
      </trkpt>
      <trkpt lat="42.97737" lon="1.10444">
        <ele>507</ele>
        <time>2025-09-20T08:47:18.000Z</time>
      </trkpt>
      <trkpt lat="42.9774" lon="1.10447">
        <ele>507</ele>
        <time>2025-09-20T08:47:19.000Z</time>
      </trkpt>
      <trkpt lat="42.97742" lon="1.10451">
        <ele>507</ele>
        <time>2025-09-20T08:47:20.000Z</time>
      </trkpt>
      <trkpt lat="42.97744" lon="1.10454">
        <ele>508</ele>
        <time>2025-09-20T08:47:21.000Z</time>
      </trkpt>
      <trkpt lat="42.97746" lon="1.10458">
        <ele>508</ele>
        <time>2025-09-20T08:47:22.000Z</time>
      </trkpt>
      <trkpt lat="42.97748" lon="1.10461">
        <ele>509</ele>
        <time>2025-09-20T08:47:23.000Z</time>
      </trkpt>
      <trkpt lat="42.97749" lon="1.10465">
        <ele>510</ele>
        <time>2025-09-20T08:47:24.000Z</time>
      </trkpt>
      <trkpt lat="42.97751" lon="1.10469">
        <ele>511</ele>
        <time>2025-09-20T08:47:25.000Z</time>
      </trkpt>
      <trkpt lat="42.97754" lon="1.10473">
        <ele>512</ele>
        <time>2025-09-20T08:47:26.000Z</time>
      </trkpt>
      <trkpt lat="42.97756" lon="1.10477">
        <ele>513</ele>
        <time>2025-09-20T08:47:27.000Z</time>
      </trkpt>
      <trkpt lat="42.97758" lon="1.1048">
        <ele>513</ele>
        <time>2025-09-20T08:47:28.000Z</time>
      </trkpt>
      <trkpt lat="42.97759" lon="1.10483">
        <ele>513</ele>
        <time>2025-09-20T08:47:29.000Z</time>
      </trkpt>
      <trkpt lat="42.97762" lon="1.10487">
        <ele>514</ele>
        <time>2025-09-20T08:47:30.000Z</time>
      </trkpt>
      <trkpt lat="42.97764" lon="1.1049">
        <ele>514</ele>
        <time>2025-09-20T08:47:31.000Z</time>
      </trkpt>
      <trkpt lat="42.97766" lon="1.10492">
        <ele>514</ele>
        <time>2025-09-20T08:47:32.000Z</time>
      </trkpt>
      <trkpt lat="42.97768" lon="1.10495">
        <ele>515</ele>
        <time>2025-09-20T08:47:33.000Z</time>
      </trkpt>
      <trkpt lat="42.97771" lon="1.10497">
        <ele>515</ele>
        <time>2025-09-20T08:47:34.000Z</time>
      </trkpt>
      <trkpt lat="42.97773" lon="1.10499">
        <ele>516</ele>
        <time>2025-09-20T08:47:35.000Z</time>
      </trkpt>
      <trkpt lat="42.97776" lon="1.10501">
        <ele>516</ele>
        <time>2025-09-20T08:47:36.000Z</time>
      </trkpt>
      <trkpt lat="42.97777" lon="1.10503">
        <ele>517</ele>
        <time>2025-09-20T08:47:37.000Z</time>
      </trkpt>
      <trkpt lat="42.97779" lon="1.10506">
        <ele>517</ele>
        <time>2025-09-20T08:47:38.000Z</time>
      </trkpt>
      <trkpt lat="42.97781" lon="1.10508">
        <ele>518</ele>
        <time>2025-09-20T08:47:39.000Z</time>
      </trkpt>
      <trkpt lat="42.97782" lon="1.1051">
        <ele>518</ele>
        <time>2025-09-20T08:47:40.000Z</time>
      </trkpt>
      <trkpt lat="42.97784" lon="1.10512">
        <ele>519</ele>
        <time>2025-09-20T08:47:41.000Z</time>
      </trkpt>
      <trkpt lat="42.97787" lon="1.10515">
        <ele>520</ele>
        <time>2025-09-20T08:47:42.000Z</time>
      </trkpt>
      <trkpt lat="42.97789" lon="1.10518">
        <ele>520</ele>
        <time>2025-09-20T08:47:43.000Z</time>
      </trkpt>
      <trkpt lat="42.97791" lon="1.10521">
        <ele>520</ele>
        <time>2025-09-20T08:47:44.000Z</time>
      </trkpt>
      <trkpt lat="42.97794" lon="1.10524">
        <ele>521</ele>
        <time>2025-09-20T08:47:45.000Z</time>
      </trkpt>
      <trkpt lat="42.97796" lon="1.10526">
        <ele>521</ele>
        <time>2025-09-20T08:47:46.000Z</time>
      </trkpt>
      <trkpt lat="42.97798" lon="1.10528">
        <ele>522</ele>
        <time>2025-09-20T08:47:47.000Z</time>
      </trkpt>
      <trkpt lat="42.978" lon="1.10531">
        <ele>522</ele>
        <time>2025-09-20T08:47:48.000Z</time>
      </trkpt>
      <trkpt lat="42.97803" lon="1.10533">
        <ele>523</ele>
        <time>2025-09-20T08:47:49.000Z</time>
      </trkpt>
      <trkpt lat="42.97805" lon="1.10536">
        <ele>524</ele>
        <time>2025-09-20T08:47:50.000Z</time>
      </trkpt>
      <trkpt lat="42.97808" lon="1.10538">
        <ele>524</ele>
        <time>2025-09-20T08:47:51.000Z</time>
      </trkpt>
      <trkpt lat="42.9781" lon="1.1054">
        <ele>525</ele>
        <time>2025-09-20T08:47:52.000Z</time>
      </trkpt>
      <trkpt lat="42.97813" lon="1.10541">
        <ele>526</ele>
        <time>2025-09-20T08:47:53.000Z</time>
      </trkpt>
      <trkpt lat="42.97815" lon="1.10544">
        <ele>526</ele>
        <time>2025-09-20T08:47:54.000Z</time>
      </trkpt>
      <trkpt lat="42.97818" lon="1.10546">
        <ele>527</ele>
        <time>2025-09-20T08:47:55.000Z</time>
      </trkpt>
      <trkpt lat="42.9782" lon="1.10548">
        <ele>528</ele>
        <time>2025-09-20T08:47:56.000Z</time>
      </trkpt>
      <trkpt lat="42.97822" lon="1.10551">
        <ele>528</ele>
        <time>2025-09-20T08:47:57.000Z</time>
      </trkpt>
      <trkpt lat="42.97825" lon="1.10553">
        <ele>529</ele>
        <time>2025-09-20T08:47:58.000Z</time>
      </trkpt>
      <trkpt lat="42.97829" lon="1.10556">
        <ele>529</ele>
        <time>2025-09-20T08:47:59.000Z</time>
      </trkpt>
      <trkpt lat="42.97832" lon="1.10559">
        <ele>530</ele>
        <time>2025-09-20T08:48:00.000Z</time>
      </trkpt>
      <trkpt lat="42.97835" lon="1.10561">
        <ele>530</ele>
        <time>2025-09-20T08:48:01.000Z</time>
      </trkpt>
      <trkpt lat="42.97837" lon="1.10564">
        <ele>531</ele>
        <time>2025-09-20T08:48:02.000Z</time>
      </trkpt>
      <trkpt lat="42.97839" lon="1.10566">
        <ele>531</ele>
        <time>2025-09-20T08:48:03.000Z</time>
      </trkpt>
      <trkpt lat="42.9784" lon="1.10568">
        <ele>531</ele>
        <time>2025-09-20T08:48:04.000Z</time>
      </trkpt>
      <trkpt lat="42.97841" lon="1.10571">
        <ele>532</ele>
        <time>2025-09-20T08:48:05.000Z</time>
      </trkpt>
      <trkpt lat="42.97841" lon="1.10574">
        <ele>531</ele>
        <time>2025-09-20T08:48:06.000Z</time>
      </trkpt>
      <trkpt lat="42.97841" lon="1.10577">
        <ele>531</ele>
        <time>2025-09-20T08:48:07.000Z</time>
      </trkpt>
      <trkpt lat="42.97841" lon="1.10581">
        <ele>532</ele>
        <time>2025-09-20T08:48:08.000Z</time>
      </trkpt>
      <trkpt lat="42.9784" lon="1.10585">
        <ele>532</ele>
        <time>2025-09-20T08:48:09.000Z</time>
      </trkpt>
      <trkpt lat="42.9784" lon="1.10588">
        <ele>532</ele>
        <time>2025-09-20T08:48:10.000Z</time>
      </trkpt>
      <trkpt lat="42.9784" lon="1.10591">
        <ele>532</ele>
        <time>2025-09-20T08:48:11.000Z</time>
      </trkpt>
      <trkpt lat="42.9784" lon="1.10595">
        <ele>533</ele>
        <time>2025-09-20T08:48:12.000Z</time>
      </trkpt>
      <trkpt lat="42.97841" lon="1.10598">
        <ele>533</ele>
        <time>2025-09-20T08:48:13.000Z</time>
      </trkpt>
      <trkpt lat="42.97841" lon="1.10602">
        <ele>533</ele>
        <time>2025-09-20T08:48:14.000Z</time>
      </trkpt>
      <trkpt lat="42.97843" lon="1.10606">
        <ele>534</ele>
        <time>2025-09-20T08:48:15.000Z</time>
      </trkpt>
      <trkpt lat="42.97844" lon="1.10608">
        <ele>534</ele>
        <time>2025-09-20T08:48:16.000Z</time>
      </trkpt>
      <trkpt lat="42.97845" lon="1.10611">
        <ele>536</ele>
        <time>2025-09-20T08:48:17.000Z</time>
      </trkpt>
      <trkpt lat="42.97846" lon="1.10614">
        <ele>537</ele>
        <time>2025-09-20T08:48:18.000Z</time>
      </trkpt>
      <trkpt lat="42.97846" lon="1.10617">
        <ele>538</ele>
        <time>2025-09-20T08:48:19.000Z</time>
      </trkpt>
      <trkpt lat="42.97848" lon="1.10621">
        <ele>538</ele>
        <time>2025-09-20T08:48:20.000Z</time>
      </trkpt>
      <trkpt lat="42.97849" lon="1.10624">
        <ele>538</ele>
        <time>2025-09-20T08:48:21.000Z</time>
      </trkpt>
      <trkpt lat="42.9785" lon="1.10627">
        <ele>538</ele>
        <time>2025-09-20T08:48:22.000Z</time>
      </trkpt>
      <trkpt lat="42.97852" lon="1.10631">
        <ele>538</ele>
        <time>2025-09-20T08:48:23.000Z</time>
      </trkpt>
      <trkpt lat="42.97852" lon="1.10635">
        <ele>538</ele>
        <time>2025-09-20T08:48:24.000Z</time>
      </trkpt>
      <trkpt lat="42.97852" lon="1.10638">
        <ele>539</ele>
        <time>2025-09-20T08:48:25.000Z</time>
      </trkpt>
      <trkpt lat="42.97852" lon="1.10642">
        <ele>539</ele>
        <time>2025-09-20T08:48:26.000Z</time>
      </trkpt>
      <trkpt lat="42.97851" lon="1.10645">
        <ele>539</ele>
        <time>2025-09-20T08:48:27.000Z</time>
      </trkpt>
      <trkpt lat="42.97851" lon="1.10649">
        <ele>539</ele>
        <time>2025-09-20T08:48:28.000Z</time>
      </trkpt>
      <trkpt lat="42.9785" lon="1.10652">
        <ele>539</ele>
        <time>2025-09-20T08:48:29.000Z</time>
      </trkpt>
      <trkpt lat="42.9785" lon="1.10656">
        <ele>539</ele>
        <time>2025-09-20T08:48:30.000Z</time>
      </trkpt>
      <trkpt lat="42.9785" lon="1.1066">
        <ele>539</ele>
        <time>2025-09-20T08:48:31.000Z</time>
      </trkpt>
      <trkpt lat="42.97849" lon="1.10664">
        <ele>539</ele>
        <time>2025-09-20T08:48:32.000Z</time>
      </trkpt>
      <trkpt lat="42.97849" lon="1.10667">
        <ele>539</ele>
        <time>2025-09-20T08:48:33.000Z</time>
      </trkpt>
      <trkpt lat="42.97848" lon="1.10671">
        <ele>540</ele>
        <time>2025-09-20T08:48:34.000Z</time>
      </trkpt>
      <trkpt lat="42.97848" lon="1.10674">
        <ele>540</ele>
        <time>2025-09-20T08:48:35.000Z</time>
      </trkpt>
      <trkpt lat="42.97848" lon="1.10678">
        <ele>540</ele>
        <time>2025-09-20T08:48:36.000Z</time>
      </trkpt>
      <trkpt lat="42.97848" lon="1.10682">
        <ele>540</ele>
        <time>2025-09-20T08:48:37.000Z</time>
      </trkpt>
      <trkpt lat="42.97849" lon="1.10684">
        <ele>539</ele>
        <time>2025-09-20T08:48:38.000Z</time>
      </trkpt>
      <trkpt lat="42.97849" lon="1.10687">
        <ele>539</ele>
        <time>2025-09-20T08:48:39.000Z</time>
      </trkpt>
      <trkpt lat="42.97848" lon="1.1069">
        <ele>539</ele>
        <time>2025-09-20T08:48:40.000Z</time>
      </trkpt>
      <trkpt lat="42.97848" lon="1.10693">
        <ele>540</ele>
        <time>2025-09-20T08:48:41.000Z</time>
      </trkpt>
      <trkpt lat="42.97848" lon="1.10697">
        <ele>540</ele>
        <time>2025-09-20T08:48:42.000Z</time>
      </trkpt>
      <trkpt lat="42.97848" lon="1.10701">
        <ele>540</ele>
        <time>2025-09-20T08:48:43.000Z</time>
      </trkpt>
      <trkpt lat="42.97848" lon="1.10705">
        <ele>541</ele>
        <time>2025-09-20T08:48:44.000Z</time>
      </trkpt>
      <trkpt lat="42.97847" lon="1.10708">
        <ele>541</ele>
        <time>2025-09-20T08:48:45.000Z</time>
      </trkpt>
      <trkpt lat="42.97846" lon="1.10711">
        <ele>541</ele>
        <time>2025-09-20T08:48:46.000Z</time>
      </trkpt>
      <trkpt lat="42.97846" lon="1.10714">
        <ele>541</ele>
        <time>2025-09-20T08:48:47.000Z</time>
      </trkpt>
      <trkpt lat="42.97845" lon="1.10718">
        <ele>542</ele>
        <time>2025-09-20T08:48:48.000Z</time>
      </trkpt>
      <trkpt lat="42.97844" lon="1.10721">
        <ele>542</ele>
        <time>2025-09-20T08:48:49.000Z</time>
      </trkpt>
      <trkpt lat="42.97843" lon="1.10725">
        <ele>543</ele>
        <time>2025-09-20T08:48:50.000Z</time>
      </trkpt>
      <trkpt lat="42.97842" lon="1.10728">
        <ele>543</ele>
        <time>2025-09-20T08:48:51.000Z</time>
      </trkpt>
      <trkpt lat="42.97842" lon="1.10731">
        <ele>543</ele>
        <time>2025-09-20T08:48:52.000Z</time>
      </trkpt>
      <trkpt lat="42.97841" lon="1.10734">
        <ele>544</ele>
        <time>2025-09-20T08:48:53.000Z</time>
      </trkpt>
      <trkpt lat="42.97841" lon="1.10737">
        <ele>545</ele>
        <time>2025-09-20T08:48:54.000Z</time>
      </trkpt>
      <trkpt lat="42.97841" lon="1.1074">
        <ele>545</ele>
        <time>2025-09-20T08:48:55.000Z</time>
      </trkpt>
      <trkpt lat="42.97841" lon="1.10743">
        <ele>545</ele>
        <time>2025-09-20T08:48:56.000Z</time>
      </trkpt>
      <trkpt lat="42.97841" lon="1.10746">
        <ele>545</ele>
        <time>2025-09-20T08:48:57.000Z</time>
      </trkpt>
      <trkpt lat="42.9784" lon="1.1075">
        <ele>545</ele>
        <time>2025-09-20T08:48:58.000Z</time>
      </trkpt>
      <trkpt lat="42.97841" lon="1.10754">
        <ele>546</ele>
        <time>2025-09-20T08:48:59.000Z</time>
      </trkpt>
      <trkpt lat="42.97841" lon="1.10757">
        <ele>547</ele>
        <time>2025-09-20T08:49:00.000Z</time>
      </trkpt>
      <trkpt lat="42.97842" lon="1.1076">
        <ele>548</ele>
        <time>2025-09-20T08:49:01.000Z</time>
      </trkpt>
      <trkpt lat="42.97844" lon="1.10762">
        <ele>549</ele>
        <time>2025-09-20T08:49:02.000Z</time>
      </trkpt>
      <trkpt lat="42.97847" lon="1.10761">
        <ele>550</ele>
        <time>2025-09-20T08:49:03.000Z</time>
      </trkpt>
      <trkpt lat="42.97848" lon="1.10758">
        <ele>549</ele>
        <time>2025-09-20T08:49:04.000Z</time>
      </trkpt>
      <trkpt lat="42.9785" lon="1.10755">
        <ele>550</ele>
        <time>2025-09-20T08:49:05.000Z</time>
      </trkpt>
      <trkpt lat="42.97852" lon="1.10752">
        <ele>550</ele>
        <time>2025-09-20T08:49:06.000Z</time>
      </trkpt>
      <trkpt lat="42.97854" lon="1.10748">
        <ele>550</ele>
        <time>2025-09-20T08:49:07.000Z</time>
      </trkpt>
      <trkpt lat="42.97856" lon="1.10744">
        <ele>550</ele>
        <time>2025-09-20T08:49:08.000Z</time>
      </trkpt>
      <trkpt lat="42.97858" lon="1.10739">
        <ele>551</ele>
        <time>2025-09-20T08:49:09.000Z</time>
      </trkpt>
      <trkpt lat="42.9786" lon="1.10734">
        <ele>551</ele>
        <time>2025-09-20T08:49:10.000Z</time>
      </trkpt>
      <trkpt lat="42.97863" lon="1.10729">
        <ele>551</ele>
        <time>2025-09-20T08:49:11.000Z</time>
      </trkpt>
      <trkpt lat="42.97865" lon="1.10724">
        <ele>551</ele>
        <time>2025-09-20T08:49:12.000Z</time>
      </trkpt>
      <trkpt lat="42.97866" lon="1.10718">
        <ele>550</ele>
        <time>2025-09-20T08:49:13.000Z</time>
      </trkpt>
      <trkpt lat="42.97868" lon="1.10713">
        <ele>550</ele>
        <time>2025-09-20T08:49:14.000Z</time>
      </trkpt>
      <trkpt lat="42.97869" lon="1.10709">
        <ele>550</ele>
        <time>2025-09-20T08:49:15.000Z</time>
      </trkpt>
      <trkpt lat="42.97871" lon="1.10705">
        <ele>550</ele>
        <time>2025-09-20T08:49:16.000Z</time>
      </trkpt>
      <trkpt lat="42.97873" lon="1.10702">
        <ele>550</ele>
        <time>2025-09-20T08:49:17.000Z</time>
      </trkpt>
      <trkpt lat="42.97873" lon="1.10698">
        <ele>549</ele>
        <time>2025-09-20T08:49:18.000Z</time>
      </trkpt>
      <trkpt lat="42.97874" lon="1.10695">
        <ele>549</ele>
        <time>2025-09-20T08:49:19.000Z</time>
      </trkpt>
      <trkpt lat="42.97875" lon="1.10693">
        <ele>549</ele>
        <time>2025-09-20T08:49:20.000Z</time>
      </trkpt>
      <trkpt lat="42.97875" lon="1.10692">
        <ele>549</ele>
        <time>2025-09-20T08:49:21.000Z</time>
      </trkpt>
      <trkpt lat="42.97875" lon="1.10689">
        <ele>549</ele>
        <time>2025-09-20T08:49:22.000Z</time>
      </trkpt>
      <trkpt lat="42.97874" lon="1.10687">
        <ele>549</ele>
        <time>2025-09-20T08:49:23.000Z</time>
      </trkpt>
      <trkpt lat="42.97874" lon="1.10684">
        <ele>549</ele>
        <time>2025-09-20T08:49:24.000Z</time>
      </trkpt>
      <trkpt lat="42.97874" lon="1.10681">
        <ele>549</ele>
        <time>2025-09-20T08:49:25.000Z</time>
      </trkpt>
      <trkpt lat="42.97875" lon="1.10677">
        <ele>550</ele>
        <time>2025-09-20T08:49:26.000Z</time>
      </trkpt>
      <trkpt lat="42.97877" lon="1.10673">
        <ele>549</ele>
        <time>2025-09-20T08:49:27.000Z</time>
      </trkpt>
      <trkpt lat="42.97878" lon="1.10669">
        <ele>549</ele>
        <time>2025-09-20T08:49:28.000Z</time>
      </trkpt>
      <trkpt lat="42.97879" lon="1.10665">
        <ele>549</ele>
        <time>2025-09-20T08:49:29.000Z</time>
      </trkpt>
      <trkpt lat="42.9788" lon="1.10661">
        <ele>549</ele>
        <time>2025-09-20T08:49:30.000Z</time>
      </trkpt>
      <trkpt lat="42.97881" lon="1.10657">
        <ele>549</ele>
        <time>2025-09-20T08:49:31.000Z</time>
      </trkpt>
      <trkpt lat="42.97883" lon="1.10653">
        <ele>549</ele>
        <time>2025-09-20T08:49:32.000Z</time>
      </trkpt>
      <trkpt lat="42.97884" lon="1.10649">
        <ele>549</ele>
        <time>2025-09-20T08:49:33.000Z</time>
      </trkpt>
      <trkpt lat="42.97885" lon="1.10644">
        <ele>549</ele>
        <time>2025-09-20T08:49:34.000Z</time>
      </trkpt>
      <trkpt lat="42.97887" lon="1.10639">
        <ele>549</ele>
        <time>2025-09-20T08:49:35.000Z</time>
      </trkpt>
      <trkpt lat="42.97888" lon="1.10634">
        <ele>549</ele>
        <time>2025-09-20T08:49:36.000Z</time>
      </trkpt>
      <trkpt lat="42.97889" lon="1.10629">
        <ele>550</ele>
        <time>2025-09-20T08:49:37.000Z</time>
      </trkpt>
      <trkpt lat="42.9789" lon="1.10624">
        <ele>551</ele>
        <time>2025-09-20T08:49:38.000Z</time>
      </trkpt>
      <trkpt lat="42.97891" lon="1.10618">
        <ele>551</ele>
        <time>2025-09-20T08:49:39.000Z</time>
      </trkpt>
      <trkpt lat="42.97893" lon="1.10612">
        <ele>551</ele>
        <time>2025-09-20T08:49:40.000Z</time>
      </trkpt>
      <trkpt lat="42.97894" lon="1.10607">
        <ele>551</ele>
        <time>2025-09-20T08:49:41.000Z</time>
      </trkpt>
      <trkpt lat="42.97895" lon="1.10602">
        <ele>551</ele>
        <time>2025-09-20T08:49:42.000Z</time>
      </trkpt>
      <trkpt lat="42.97896" lon="1.10597">
        <ele>551</ele>
        <time>2025-09-20T08:49:43.000Z</time>
      </trkpt>
      <trkpt lat="42.97897" lon="1.10592">
        <ele>551</ele>
        <time>2025-09-20T08:49:44.000Z</time>
      </trkpt>
      <trkpt lat="42.97899" lon="1.10588">
        <ele>551</ele>
        <time>2025-09-20T08:49:45.000Z</time>
      </trkpt>
      <trkpt lat="42.97901" lon="1.10583">
        <ele>551</ele>
        <time>2025-09-20T08:49:46.000Z</time>
      </trkpt>
      <trkpt lat="42.97903" lon="1.10579">
        <ele>551</ele>
        <time>2025-09-20T08:49:47.000Z</time>
      </trkpt>
      <trkpt lat="42.97905" lon="1.10574">
        <ele>551</ele>
        <time>2025-09-20T08:49:48.000Z</time>
      </trkpt>
      <trkpt lat="42.97907" lon="1.1057">
        <ele>551</ele>
        <time>2025-09-20T08:49:49.000Z</time>
      </trkpt>
      <trkpt lat="42.97909" lon="1.10565">
        <ele>551</ele>
        <time>2025-09-20T08:49:50.000Z</time>
      </trkpt>
      <trkpt lat="42.97911" lon="1.1056">
        <ele>552</ele>
        <time>2025-09-20T08:49:51.000Z</time>
      </trkpt>
      <trkpt lat="42.97913" lon="1.10556">
        <ele>551</ele>
        <time>2025-09-20T08:49:52.000Z</time>
      </trkpt>
      <trkpt lat="42.97915" lon="1.10552">
        <ele>551</ele>
        <time>2025-09-20T08:49:53.000Z</time>
      </trkpt>
      <trkpt lat="42.97917" lon="1.10547">
        <ele>552</ele>
        <time>2025-09-20T08:49:54.000Z</time>
      </trkpt>
      <trkpt lat="42.9792" lon="1.10542">
        <ele>551</ele>
        <time>2025-09-20T08:49:55.000Z</time>
      </trkpt>
      <trkpt lat="42.97923" lon="1.10537">
        <ele>551</ele>
        <time>2025-09-20T08:49:56.000Z</time>
      </trkpt>
      <trkpt lat="42.97925" lon="1.10531">
        <ele>551</ele>
        <time>2025-09-20T08:49:57.000Z</time>
      </trkpt>
      <trkpt lat="42.97928" lon="1.10526">
        <ele>552</ele>
        <time>2025-09-20T08:49:58.000Z</time>
      </trkpt>
      <trkpt lat="42.9793" lon="1.1052">
        <ele>552</ele>
        <time>2025-09-20T08:49:59.000Z</time>
      </trkpt>
      <trkpt lat="42.97932" lon="1.10513">
        <ele>551</ele>
        <time>2025-09-20T08:50:00.000Z</time>
      </trkpt>
      <trkpt lat="42.97935" lon="1.10508">
        <ele>551</ele>
        <time>2025-09-20T08:50:01.000Z</time>
      </trkpt>
      <trkpt lat="42.97938" lon="1.10501">
        <ele>551</ele>
        <time>2025-09-20T08:50:02.000Z</time>
      </trkpt>
      <trkpt lat="42.97941" lon="1.10494">
        <ele>551</ele>
        <time>2025-09-20T08:50:03.000Z</time>
      </trkpt>
      <trkpt lat="42.97943" lon="1.10488">
        <ele>551</ele>
        <time>2025-09-20T08:50:04.000Z</time>
      </trkpt>
      <trkpt lat="42.97945" lon="1.10481">
        <ele>550</ele>
        <time>2025-09-20T08:50:05.000Z</time>
      </trkpt>
      <trkpt lat="42.97948" lon="1.10474">
        <ele>550</ele>
        <time>2025-09-20T08:50:06.000Z</time>
      </trkpt>
      <trkpt lat="42.9795" lon="1.10465">
        <ele>550</ele>
        <time>2025-09-20T08:50:07.000Z</time>
      </trkpt>
      <trkpt lat="42.97952" lon="1.10457">
        <ele>549</ele>
        <time>2025-09-20T08:50:08.000Z</time>
      </trkpt>
      <trkpt lat="42.97954" lon="1.10449">
        <ele>549</ele>
        <time>2025-09-20T08:50:09.000Z</time>
      </trkpt>
      <trkpt lat="42.97957" lon="1.10441">
        <ele>549</ele>
        <time>2025-09-20T08:50:10.000Z</time>
      </trkpt>
      <trkpt lat="42.97958" lon="1.10433">
        <ele>549</ele>
        <time>2025-09-20T08:50:11.000Z</time>
      </trkpt>
      <trkpt lat="42.9796" lon="1.10426">
        <ele>549</ele>
        <time>2025-09-20T08:50:12.000Z</time>
      </trkpt>
      <trkpt lat="42.97962" lon="1.10418">
        <ele>549</ele>
        <time>2025-09-20T08:50:13.000Z</time>
      </trkpt>
      <trkpt lat="42.97964" lon="1.10411">
        <ele>548</ele>
        <time>2025-09-20T08:50:14.000Z</time>
      </trkpt>
      <trkpt lat="42.97965" lon="1.10403">
        <ele>548</ele>
        <time>2025-09-20T08:50:15.000Z</time>
      </trkpt>
      <trkpt lat="42.97967" lon="1.10395">
        <ele>548</ele>
        <time>2025-09-20T08:50:16.000Z</time>
      </trkpt>
      <trkpt lat="42.97968" lon="1.10387">
        <ele>549</ele>
        <time>2025-09-20T08:50:17.000Z</time>
      </trkpt>
      <trkpt lat="42.9797" lon="1.1038">
        <ele>548</ele>
        <time>2025-09-20T08:50:18.000Z</time>
      </trkpt>
      <trkpt lat="42.97971" lon="1.10373">
        <ele>548</ele>
        <time>2025-09-20T08:50:19.000Z</time>
      </trkpt>
      <trkpt lat="42.97973" lon="1.10366">
        <ele>548</ele>
        <time>2025-09-20T08:50:20.000Z</time>
      </trkpt>
      <trkpt lat="42.97974" lon="1.10359">
        <ele>549</ele>
        <time>2025-09-20T08:50:21.000Z</time>
      </trkpt>
      <trkpt lat="42.97976" lon="1.10353">
        <ele>549</ele>
        <time>2025-09-20T08:50:22.000Z</time>
      </trkpt>
      <trkpt lat="42.97977" lon="1.10346">
        <ele>549</ele>
        <time>2025-09-20T08:50:23.000Z</time>
      </trkpt>
      <trkpt lat="42.97979" lon="1.10339">
        <ele>549</ele>
        <time>2025-09-20T08:50:24.000Z</time>
      </trkpt>
      <trkpt lat="42.9798" lon="1.10333">
        <ele>549</ele>
        <time>2025-09-20T08:50:25.000Z</time>
      </trkpt>
      <trkpt lat="42.97981" lon="1.10327">
        <ele>549</ele>
        <time>2025-09-20T08:50:26.000Z</time>
      </trkpt>
      <trkpt lat="42.97982" lon="1.10321">
        <ele>549</ele>
        <time>2025-09-20T08:50:27.000Z</time>
      </trkpt>
      <trkpt lat="42.97983" lon="1.10316">
        <ele>549</ele>
        <time>2025-09-20T08:50:28.000Z</time>
      </trkpt>
      <trkpt lat="42.97983" lon="1.10311">
        <ele>550</ele>
        <time>2025-09-20T08:50:29.000Z</time>
      </trkpt>
      <trkpt lat="42.97985" lon="1.10306">
        <ele>550</ele>
        <time>2025-09-20T08:50:30.000Z</time>
      </trkpt>
      <trkpt lat="42.97986" lon="1.10303">
        <ele>550</ele>
        <time>2025-09-20T08:50:31.000Z</time>
      </trkpt>
      <trkpt lat="42.97989" lon="1.10299">
        <ele>550</ele>
        <time>2025-09-20T08:50:32.000Z</time>
      </trkpt>
      <trkpt lat="42.97991" lon="1.10296">
        <ele>550</ele>
        <time>2025-09-20T08:50:33.000Z</time>
      </trkpt>
      <trkpt lat="42.97993" lon="1.10293">
        <ele>550</ele>
        <time>2025-09-20T08:50:34.000Z</time>
      </trkpt>
      <trkpt lat="42.97995" lon="1.10291">
        <ele>550</ele>
        <time>2025-09-20T08:50:35.000Z</time>
      </trkpt>
      <trkpt lat="42.97996" lon="1.10288">
        <ele>550</ele>
        <time>2025-09-20T08:50:36.000Z</time>
      </trkpt>
      <trkpt lat="42.97997" lon="1.10286">
        <ele>550</ele>
        <time>2025-09-20T08:50:37.000Z</time>
      </trkpt>
      <trkpt lat="42.97998" lon="1.10284">
        <ele>550</ele>
        <time>2025-09-20T08:50:38.000Z</time>
      </trkpt>
      <trkpt lat="42.97999" lon="1.10282">
        <ele>550</ele>
        <time>2025-09-20T08:50:39.000Z</time>
      </trkpt>
      <trkpt lat="42.98001" lon="1.1028">
        <ele>550</ele>
        <time>2025-09-20T08:50:40.000Z</time>
      </trkpt>
      <trkpt lat="42.98002" lon="1.10277">
        <ele>550</ele>
        <time>2025-09-20T08:50:41.000Z</time>
      </trkpt>
      <trkpt lat="42.98002" lon="1.10274">
        <ele>550</ele>
        <time>2025-09-20T08:50:42.000Z</time>
      </trkpt>
      <trkpt lat="42.98003" lon="1.10272">
        <ele>551</ele>
        <time>2025-09-20T08:50:43.000Z</time>
      </trkpt>
      <trkpt lat="42.98004" lon="1.10269">
        <ele>551</ele>
        <time>2025-09-20T08:50:44.000Z</time>
      </trkpt>
      <trkpt lat="42.98006" lon="1.10267">
        <ele>551</ele>
        <time>2025-09-20T08:50:45.000Z</time>
      </trkpt>
      <trkpt lat="42.98007" lon="1.10265">
        <ele>551</ele>
        <time>2025-09-20T08:50:46.000Z</time>
      </trkpt>
      <trkpt lat="42.98009" lon="1.10263">
        <ele>552</ele>
        <time>2025-09-20T08:50:47.000Z</time>
      </trkpt>
      <trkpt lat="42.9801" lon="1.1026">
        <ele>552</ele>
        <time>2025-09-20T08:50:48.000Z</time>
      </trkpt>
      <trkpt lat="42.98012" lon="1.10257">
        <ele>553</ele>
        <time>2025-09-20T08:50:49.000Z</time>
      </trkpt>
      <trkpt lat="42.98013" lon="1.10255">
        <ele>553</ele>
        <time>2025-09-20T08:50:50.000Z</time>
      </trkpt>
      <trkpt lat="42.98014" lon="1.10252">
        <ele>553</ele>
        <time>2025-09-20T08:50:51.000Z</time>
      </trkpt>
      <trkpt lat="42.98015" lon="1.10248">
        <ele>554</ele>
        <time>2025-09-20T08:50:52.000Z</time>
      </trkpt>
      <trkpt lat="42.98016" lon="1.10246">
        <ele>554</ele>
        <time>2025-09-20T08:50:53.000Z</time>
      </trkpt>
      <trkpt lat="42.98017" lon="1.10243">
        <ele>555</ele>
        <time>2025-09-20T08:50:54.000Z</time>
      </trkpt>
      <trkpt lat="42.98017" lon="1.1024">
        <ele>555</ele>
        <time>2025-09-20T08:50:55.000Z</time>
      </trkpt>
      <trkpt lat="42.98018" lon="1.10237">
        <ele>556</ele>
        <time>2025-09-20T08:50:56.000Z</time>
      </trkpt>
      <trkpt lat="42.98019" lon="1.10234">
        <ele>556</ele>
        <time>2025-09-20T08:50:57.000Z</time>
      </trkpt>
      <trkpt lat="42.9802" lon="1.10231">
        <ele>556</ele>
        <time>2025-09-20T08:50:58.000Z</time>
      </trkpt>
      <trkpt lat="42.98022" lon="1.10228">
        <ele>557</ele>
        <time>2025-09-20T08:50:59.000Z</time>
      </trkpt>
      <trkpt lat="42.98022" lon="1.10227">
        <ele>557</ele>
        <time>2025-09-20T08:51:00.000Z</time>
      </trkpt>
      <trkpt lat="42.98023" lon="1.10224">
        <ele>557</ele>
        <time>2025-09-20T08:51:01.000Z</time>
      </trkpt>
      <trkpt lat="42.98025" lon="1.10221">
        <ele>557</ele>
        <time>2025-09-20T08:51:02.000Z</time>
      </trkpt>
      <trkpt lat="42.98026" lon="1.10218">
        <ele>557</ele>
        <time>2025-09-20T08:51:03.000Z</time>
      </trkpt>
      <trkpt lat="42.98028" lon="1.10215">
        <ele>557</ele>
        <time>2025-09-20T08:51:04.000Z</time>
      </trkpt>
      <trkpt lat="42.98029" lon="1.10212">
        <ele>558</ele>
        <time>2025-09-20T08:51:05.000Z</time>
      </trkpt>
      <trkpt lat="42.98031" lon="1.1021">
        <ele>559</ele>
        <time>2025-09-20T08:51:06.000Z</time>
      </trkpt>
      <trkpt lat="42.98032" lon="1.10207">
        <ele>559</ele>
        <time>2025-09-20T08:51:07.000Z</time>
      </trkpt>
      <trkpt lat="42.98034" lon="1.10204">
        <ele>560</ele>
        <time>2025-09-20T08:51:08.000Z</time>
      </trkpt>
      <trkpt lat="42.98036" lon="1.10202">
        <ele>560</ele>
        <time>2025-09-20T08:51:09.000Z</time>
      </trkpt>
      <trkpt lat="42.98038" lon="1.102">
        <ele>561</ele>
        <time>2025-09-20T08:51:10.000Z</time>
      </trkpt>
      <trkpt lat="42.98039" lon="1.10197">
        <ele>562</ele>
        <time>2025-09-20T08:51:11.000Z</time>
      </trkpt>
      <trkpt lat="42.9804" lon="1.10195">
        <ele>562</ele>
        <time>2025-09-20T08:51:12.000Z</time>
      </trkpt>
      <trkpt lat="42.98042" lon="1.10193">
        <ele>563</ele>
        <time>2025-09-20T08:51:13.000Z</time>
      </trkpt>
      <trkpt lat="42.98043" lon="1.1019">
        <ele>564</ele>
        <time>2025-09-20T08:51:14.000Z</time>
      </trkpt>
      <trkpt lat="42.98044" lon="1.10187">
        <ele>564</ele>
        <time>2025-09-20T08:51:15.000Z</time>
      </trkpt>
      <trkpt lat="42.98045" lon="1.10184">
        <ele>564</ele>
        <time>2025-09-20T08:51:16.000Z</time>
      </trkpt>
      <trkpt lat="42.98045" lon="1.10181">
        <ele>563</ele>
        <time>2025-09-20T08:51:17.000Z</time>
      </trkpt>
      <trkpt lat="42.98046" lon="1.10177">
        <ele>564</ele>
        <time>2025-09-20T08:51:18.000Z</time>
      </trkpt>
      <trkpt lat="42.98047" lon="1.10175">
        <ele>564</ele>
        <time>2025-09-20T08:51:19.000Z</time>
      </trkpt>
      <trkpt lat="42.98047" lon="1.10172">
        <ele>565</ele>
        <time>2025-09-20T08:51:20.000Z</time>
      </trkpt>
      <trkpt lat="42.98049" lon="1.10169">
        <ele>565</ele>
        <time>2025-09-20T08:51:21.000Z</time>
      </trkpt>
      <trkpt lat="42.9805" lon="1.10165">
        <ele>565</ele>
        <time>2025-09-20T08:51:22.000Z</time>
      </trkpt>
      <trkpt lat="42.98051" lon="1.10162">
        <ele>566</ele>
        <time>2025-09-20T08:51:23.000Z</time>
      </trkpt>
      <trkpt lat="42.98052" lon="1.10159">
        <ele>567</ele>
        <time>2025-09-20T08:51:24.000Z</time>
      </trkpt>
      <trkpt lat="42.98052" lon="1.10156">
        <ele>567</ele>
        <time>2025-09-20T08:51:25.000Z</time>
      </trkpt>
      <trkpt lat="42.98054" lon="1.10153">
        <ele>567</ele>
        <time>2025-09-20T08:51:26.000Z</time>
      </trkpt>
      <trkpt lat="42.98054" lon="1.10151">
        <ele>567</ele>
        <time>2025-09-20T08:51:27.000Z</time>
      </trkpt>
      <trkpt lat="42.98055" lon="1.10147">
        <ele>567</ele>
        <time>2025-09-20T08:51:28.000Z</time>
      </trkpt>
      <trkpt lat="42.98056" lon="1.10143">
        <ele>568</ele>
        <time>2025-09-20T08:51:29.000Z</time>
      </trkpt>
      <trkpt lat="42.98056" lon="1.10141">
        <ele>568</ele>
        <time>2025-09-20T08:51:30.000Z</time>
      </trkpt>
      <trkpt lat="42.98057" lon="1.10136">
        <ele>567</ele>
        <time>2025-09-20T08:51:31.000Z</time>
      </trkpt>
      <trkpt lat="42.98058" lon="1.10132">
        <ele>567</ele>
        <time>2025-09-20T08:51:32.000Z</time>
      </trkpt>
      <trkpt lat="42.98058" lon="1.10128">
        <ele>568</ele>
        <time>2025-09-20T08:51:33.000Z</time>
      </trkpt>
      <trkpt lat="42.98059" lon="1.10125">
        <ele>568</ele>
        <time>2025-09-20T08:51:34.000Z</time>
      </trkpt>
      <trkpt lat="42.9806" lon="1.1012">
        <ele>569</ele>
        <time>2025-09-20T08:51:35.000Z</time>
      </trkpt>
      <trkpt lat="42.98061" lon="1.10117">
        <ele>569</ele>
        <time>2025-09-20T08:51:36.000Z</time>
      </trkpt>
      <trkpt lat="42.98062" lon="1.10113">
        <ele>570</ele>
        <time>2025-09-20T08:51:37.000Z</time>
      </trkpt>
      <trkpt lat="42.98062" lon="1.1011">
        <ele>572</ele>
        <time>2025-09-20T08:51:38.000Z</time>
      </trkpt>
      <trkpt lat="42.98064" lon="1.10106">
        <ele>572</ele>
        <time>2025-09-20T08:51:39.000Z</time>
      </trkpt>
      <trkpt lat="42.98065" lon="1.10103">
        <ele>573</ele>
        <time>2025-09-20T08:51:40.000Z</time>
      </trkpt>
      <trkpt lat="42.98066" lon="1.10099">
        <ele>574</ele>
        <time>2025-09-20T08:51:41.000Z</time>
      </trkpt>
      <trkpt lat="42.98068" lon="1.10095">
        <ele>574</ele>
        <time>2025-09-20T08:51:42.000Z</time>
      </trkpt>
      <trkpt lat="42.98069" lon="1.10091">
        <ele>574</ele>
        <time>2025-09-20T08:51:43.000Z</time>
      </trkpt>
      <trkpt lat="42.9807" lon="1.10088">
        <ele>573</ele>
        <time>2025-09-20T08:51:44.000Z</time>
      </trkpt>
      <trkpt lat="42.98071" lon="1.10084">
        <ele>573</ele>
        <time>2025-09-20T08:51:45.000Z</time>
      </trkpt>
      <trkpt lat="42.98072" lon="1.10081">
        <ele>573</ele>
        <time>2025-09-20T08:51:46.000Z</time>
      </trkpt>
      <trkpt lat="42.98072" lon="1.10077">
        <ele>572</ele>
        <time>2025-09-20T08:51:47.000Z</time>
      </trkpt>
      <trkpt lat="42.98073" lon="1.10074">
        <ele>572</ele>
        <time>2025-09-20T08:51:48.000Z</time>
      </trkpt>
      <trkpt lat="42.98074" lon="1.1007">
        <ele>572</ele>
        <time>2025-09-20T08:51:49.000Z</time>
      </trkpt>
      <trkpt lat="42.98075" lon="1.10067">
        <ele>572</ele>
        <time>2025-09-20T08:51:50.000Z</time>
      </trkpt>
      <trkpt lat="42.98075" lon="1.10064">
        <ele>572</ele>
        <time>2025-09-20T08:51:51.000Z</time>
      </trkpt>
      <trkpt lat="42.98076" lon="1.10061">
        <ele>572</ele>
        <time>2025-09-20T08:51:52.000Z</time>
      </trkpt>
      <trkpt lat="42.98078" lon="1.10056">
        <ele>572</ele>
        <time>2025-09-20T08:51:53.000Z</time>
      </trkpt>
      <trkpt lat="42.98079" lon="1.10052">
        <ele>573</ele>
        <time>2025-09-20T08:51:54.000Z</time>
      </trkpt>
      <trkpt lat="42.9808" lon="1.10048">
        <ele>573</ele>
        <time>2025-09-20T08:51:55.000Z</time>
      </trkpt>
      <trkpt lat="42.98081" lon="1.10044">
        <ele>573</ele>
        <time>2025-09-20T08:51:56.000Z</time>
      </trkpt>
      <trkpt lat="42.98082" lon="1.1004">
        <ele>573</ele>
        <time>2025-09-20T08:51:57.000Z</time>
      </trkpt>
      <trkpt lat="42.98084" lon="1.10036">
        <ele>573</ele>
        <time>2025-09-20T08:51:58.000Z</time>
      </trkpt>
      <trkpt lat="42.98085" lon="1.10033">
        <ele>574</ele>
        <time>2025-09-20T08:51:59.000Z</time>
      </trkpt>
      <trkpt lat="42.98086" lon="1.10029">
        <ele>574</ele>
        <time>2025-09-20T08:52:00.000Z</time>
      </trkpt>
      <trkpt lat="42.98087" lon="1.10025">
        <ele>575</ele>
        <time>2025-09-20T08:52:01.000Z</time>
      </trkpt>
      <trkpt lat="42.98088" lon="1.10021">
        <ele>575</ele>
        <time>2025-09-20T08:52:02.000Z</time>
      </trkpt>
      <trkpt lat="42.9809" lon="1.10018">
        <ele>575</ele>
        <time>2025-09-20T08:52:03.000Z</time>
      </trkpt>
      <trkpt lat="42.98092" lon="1.10014">
        <ele>576</ele>
        <time>2025-09-20T08:52:04.000Z</time>
      </trkpt>
      <trkpt lat="42.98093" lon="1.10011">
        <ele>576</ele>
        <time>2025-09-20T08:52:05.000Z</time>
      </trkpt>
      <trkpt lat="42.98094" lon="1.10007">
        <ele>576</ele>
        <time>2025-09-20T08:52:06.000Z</time>
      </trkpt>
      <trkpt lat="42.98096" lon="1.10003">
        <ele>576</ele>
        <time>2025-09-20T08:52:07.000Z</time>
      </trkpt>
      <trkpt lat="42.98096" lon="1.09999">
        <ele>575</ele>
        <time>2025-09-20T08:52:08.000Z</time>
      </trkpt>
      <trkpt lat="42.98097" lon="1.09995">
        <ele>576</ele>
        <time>2025-09-20T08:52:09.000Z</time>
      </trkpt>
      <trkpt lat="42.98098" lon="1.09991">
        <ele>575</ele>
        <time>2025-09-20T08:52:10.000Z</time>
      </trkpt>
      <trkpt lat="42.98099" lon="1.09986">
        <ele>575</ele>
        <time>2025-09-20T08:52:11.000Z</time>
      </trkpt>
      <trkpt lat="42.981" lon="1.09981">
        <ele>575</ele>
        <time>2025-09-20T08:52:12.000Z</time>
      </trkpt>
      <trkpt lat="42.98101" lon="1.09978">
        <ele>576</ele>
        <time>2025-09-20T08:52:13.000Z</time>
      </trkpt>
      <trkpt lat="42.98103" lon="1.09974">
        <ele>576</ele>
        <time>2025-09-20T08:52:14.000Z</time>
      </trkpt>
      <trkpt lat="42.98105" lon="1.09972">
        <ele>576</ele>
        <time>2025-09-20T08:52:15.000Z</time>
      </trkpt>
      <trkpt lat="42.98106" lon="1.0997">
        <ele>577</ele>
        <time>2025-09-20T08:52:16.000Z</time>
      </trkpt>
      <trkpt lat="42.98108" lon="1.09968">
        <ele>578</ele>
        <time>2025-09-20T08:52:17.000Z</time>
      </trkpt>
      <trkpt lat="42.98109" lon="1.09965">
        <ele>579</ele>
        <time>2025-09-20T08:52:18.000Z</time>
      </trkpt>
      <trkpt lat="42.9811" lon="1.09963">
        <ele>579</ele>
        <time>2025-09-20T08:52:19.000Z</time>
      </trkpt>
      <trkpt lat="42.98111" lon="1.09962">
        <ele>580</ele>
        <time>2025-09-20T08:52:20.000Z</time>
      </trkpt>
      <trkpt lat="42.98112" lon="1.09959">
        <ele>580</ele>
        <time>2025-09-20T08:52:21.000Z</time>
      </trkpt>
      <trkpt lat="42.98114" lon="1.09957">
        <ele>580</ele>
        <time>2025-09-20T08:52:22.000Z</time>
      </trkpt>
      <trkpt lat="42.98115" lon="1.09956">
        <ele>580</ele>
        <time>2025-09-20T08:52:23.000Z</time>
      </trkpt>
      <trkpt lat="42.98117" lon="1.09954">
        <ele>579</ele>
        <time>2025-09-20T08:52:24.000Z</time>
      </trkpt>
      <trkpt lat="42.98119" lon="1.09952">
        <ele>580</ele>
        <time>2025-09-20T08:52:25.000Z</time>
      </trkpt>
      <trkpt lat="42.98121" lon="1.09949">
        <ele>581</ele>
        <time>2025-09-20T08:52:26.000Z</time>
      </trkpt>
      <trkpt lat="42.98123" lon="1.09946">
        <ele>582</ele>
        <time>2025-09-20T08:52:27.000Z</time>
      </trkpt>
      <trkpt lat="42.98125" lon="1.09944">
        <ele>582</ele>
        <time>2025-09-20T08:52:28.000Z</time>
      </trkpt>
      <trkpt lat="42.98126" lon="1.09942">
        <ele>582</ele>
        <time>2025-09-20T08:52:29.000Z</time>
      </trkpt>
      <trkpt lat="42.98128" lon="1.09941">
        <ele>583</ele>
        <time>2025-09-20T08:52:30.000Z</time>
      </trkpt>
      <trkpt lat="42.9813" lon="1.09939">
        <ele>583</ele>
        <time>2025-09-20T08:52:31.000Z</time>
      </trkpt>
      <trkpt lat="42.98132" lon="1.09938">
        <ele>584</ele>
        <time>2025-09-20T08:52:32.000Z</time>
      </trkpt>
      <trkpt lat="42.98133" lon="1.09936">
        <ele>585</ele>
        <time>2025-09-20T08:52:33.000Z</time>
      </trkpt>
      <trkpt lat="42.98136" lon="1.09935">
        <ele>585</ele>
        <time>2025-09-20T08:52:34.000Z</time>
      </trkpt>
      <trkpt lat="42.98138" lon="1.09934">
        <ele>586</ele>
        <time>2025-09-20T08:52:35.000Z</time>
      </trkpt>
      <trkpt lat="42.98139" lon="1.09934">
        <ele>586</ele>
        <time>2025-09-20T08:52:36.000Z</time>
      </trkpt>
      <trkpt lat="42.98141" lon="1.09933">
        <ele>587</ele>
        <time>2025-09-20T08:52:37.000Z</time>
      </trkpt>
      <trkpt lat="42.98142" lon="1.09932">
        <ele>587</ele>
        <time>2025-09-20T08:52:38.000Z</time>
      </trkpt>
      <trkpt lat="42.98144" lon="1.09931">
        <ele>587</ele>
        <time>2025-09-20T08:52:39.000Z</time>
      </trkpt>
      <trkpt lat="42.98146" lon="1.09929">
        <ele>588</ele>
        <time>2025-09-20T08:52:40.000Z</time>
      </trkpt>
      <trkpt lat="42.98148" lon="1.09926">
        <ele>589</ele>
        <time>2025-09-20T08:52:41.000Z</time>
      </trkpt>
      <trkpt lat="42.98151" lon="1.09923">
        <ele>588</ele>
        <time>2025-09-20T08:52:42.000Z</time>
      </trkpt>
      <trkpt lat="42.98152" lon="1.0992">
        <ele>588</ele>
        <time>2025-09-20T08:52:43.000Z</time>
      </trkpt>
      <trkpt lat="42.98154" lon="1.09917">
        <ele>589</ele>
        <time>2025-09-20T08:52:44.000Z</time>
      </trkpt>
      <trkpt lat="42.98155" lon="1.09915">
        <ele>589</ele>
        <time>2025-09-20T08:52:45.000Z</time>
      </trkpt>
      <trkpt lat="42.98156" lon="1.09912">
        <ele>590</ele>
        <time>2025-09-20T08:52:46.000Z</time>
      </trkpt>
      <trkpt lat="42.98157" lon="1.0991">
        <ele>591</ele>
        <time>2025-09-20T08:52:47.000Z</time>
      </trkpt>
      <trkpt lat="42.98158" lon="1.09907">
        <ele>591</ele>
        <time>2025-09-20T08:52:48.000Z</time>
      </trkpt>
      <trkpt lat="42.98158" lon="1.09904">
        <ele>591</ele>
        <time>2025-09-20T08:52:49.000Z</time>
      </trkpt>
      <trkpt lat="42.98159" lon="1.099">
        <ele>592</ele>
        <time>2025-09-20T08:52:50.000Z</time>
      </trkpt>
      <trkpt lat="42.9816" lon="1.09897">
        <ele>592</ele>
        <time>2025-09-20T08:52:51.000Z</time>
      </trkpt>
      <trkpt lat="42.98161" lon="1.09894">
        <ele>592</ele>
        <time>2025-09-20T08:52:52.000Z</time>
      </trkpt>
      <trkpt lat="42.98161" lon="1.09892">
        <ele>592</ele>
        <time>2025-09-20T08:52:53.000Z</time>
      </trkpt>
      <trkpt lat="42.98161" lon="1.09889">
        <ele>592</ele>
        <time>2025-09-20T08:52:54.000Z</time>
      </trkpt>
      <trkpt lat="42.98162" lon="1.09885">
        <ele>593</ele>
        <time>2025-09-20T08:52:55.000Z</time>
      </trkpt>
      <trkpt lat="42.98163" lon="1.09883">
        <ele>594</ele>
        <time>2025-09-20T08:52:56.000Z</time>
      </trkpt>
      <trkpt lat="42.98164" lon="1.0988">
        <ele>594</ele>
        <time>2025-09-20T08:52:57.000Z</time>
      </trkpt>
      <trkpt lat="42.98165" lon="1.09877">
        <ele>594</ele>
        <time>2025-09-20T08:52:58.000Z</time>
      </trkpt>
      <trkpt lat="42.98167" lon="1.09874">
        <ele>595</ele>
        <time>2025-09-20T08:52:59.000Z</time>
      </trkpt>
      <trkpt lat="42.98168" lon="1.09871">
        <ele>595</ele>
        <time>2025-09-20T08:53:00.000Z</time>
      </trkpt>
      <trkpt lat="42.98169" lon="1.09868">
        <ele>596</ele>
        <time>2025-09-20T08:53:01.000Z</time>
      </trkpt>
      <trkpt lat="42.9817" lon="1.09865">
        <ele>596</ele>
        <time>2025-09-20T08:53:02.000Z</time>
      </trkpt>
      <trkpt lat="42.9817" lon="1.09862">
        <ele>597</ele>
        <time>2025-09-20T08:53:03.000Z</time>
      </trkpt>
      <trkpt lat="42.98172" lon="1.09859">
        <ele>597</ele>
        <time>2025-09-20T08:53:04.000Z</time>
      </trkpt>
      <trkpt lat="42.98173" lon="1.09856">
        <ele>597</ele>
        <time>2025-09-20T08:53:05.000Z</time>
      </trkpt>
      <trkpt lat="42.98174" lon="1.09852">
        <ele>597</ele>
        <time>2025-09-20T08:53:06.000Z</time>
      </trkpt>
      <trkpt lat="42.98176" lon="1.0985">
        <ele>598</ele>
        <time>2025-09-20T08:53:07.000Z</time>
      </trkpt>
      <trkpt lat="42.98177" lon="1.09847">
        <ele>599</ele>
        <time>2025-09-20T08:53:08.000Z</time>
      </trkpt>
      <trkpt lat="42.98178" lon="1.09844">
        <ele>599</ele>
        <time>2025-09-20T08:53:09.000Z</time>
      </trkpt>
      <trkpt lat="42.98179" lon="1.09841">
        <ele>598</ele>
        <time>2025-09-20T08:53:10.000Z</time>
      </trkpt>
      <trkpt lat="42.98181" lon="1.09838">
        <ele>598</ele>
        <time>2025-09-20T08:53:11.000Z</time>
      </trkpt>
      <trkpt lat="42.98182" lon="1.09835">
        <ele>599</ele>
        <time>2025-09-20T08:53:12.000Z</time>
      </trkpt>
      <trkpt lat="42.98183" lon="1.09833">
        <ele>600</ele>
        <time>2025-09-20T08:53:13.000Z</time>
      </trkpt>
      <trkpt lat="42.98184" lon="1.0983">
        <ele>600</ele>
        <time>2025-09-20T08:53:14.000Z</time>
      </trkpt>
      <trkpt lat="42.98185" lon="1.09827">
        <ele>600</ele>
        <time>2025-09-20T08:53:15.000Z</time>
      </trkpt>
      <trkpt lat="42.98185" lon="1.09824">
        <ele>600</ele>
        <time>2025-09-20T08:53:16.000Z</time>
      </trkpt>
      <trkpt lat="42.98185" lon="1.09822">
        <ele>601</ele>
        <time>2025-09-20T08:53:17.000Z</time>
      </trkpt>
      <trkpt lat="42.98187" lon="1.0982">
        <ele>601</ele>
        <time>2025-09-20T08:53:18.000Z</time>
      </trkpt>
      <trkpt lat="42.98187" lon="1.09817">
        <ele>601</ele>
        <time>2025-09-20T08:53:19.000Z</time>
      </trkpt>
      <trkpt lat="42.98188" lon="1.09814">
        <ele>601</ele>
        <time>2025-09-20T08:53:20.000Z</time>
      </trkpt>
      <trkpt lat="42.98189" lon="1.0981">
        <ele>601</ele>
        <time>2025-09-20T08:53:21.000Z</time>
      </trkpt>
      <trkpt lat="42.9819" lon="1.09807">
        <ele>602</ele>
        <time>2025-09-20T08:53:22.000Z</time>
      </trkpt>
      <trkpt lat="42.9819" lon="1.09804">
        <ele>602</ele>
        <time>2025-09-20T08:53:23.000Z</time>
      </trkpt>
      <trkpt lat="42.9819" lon="1.09801">
        <ele>602</ele>
        <time>2025-09-20T08:53:24.000Z</time>
      </trkpt>
      <trkpt lat="42.9819" lon="1.09798">
        <ele>603</ele>
        <time>2025-09-20T08:53:25.000Z</time>
      </trkpt>
      <trkpt lat="42.98191" lon="1.09795">
        <ele>603</ele>
        <time>2025-09-20T08:53:26.000Z</time>
      </trkpt>
      <trkpt lat="42.98192" lon="1.09792">
        <ele>603</ele>
        <time>2025-09-20T08:53:27.000Z</time>
      </trkpt>
      <trkpt lat="42.98193" lon="1.09788">
        <ele>603</ele>
        <time>2025-09-20T08:53:28.000Z</time>
      </trkpt>
      <trkpt lat="42.98193" lon="1.09785">
        <ele>603</ele>
        <time>2025-09-20T08:53:29.000Z</time>
      </trkpt>
      <trkpt lat="42.98193" lon="1.09781">
        <ele>603</ele>
        <time>2025-09-20T08:53:30.000Z</time>
      </trkpt>
      <trkpt lat="42.98192" lon="1.09779">
        <ele>603</ele>
        <time>2025-09-20T08:53:31.000Z</time>
      </trkpt>
      <trkpt lat="42.98191" lon="1.09775">
        <ele>604</ele>
        <time>2025-09-20T08:53:32.000Z</time>
      </trkpt>
      <trkpt lat="42.98191" lon="1.09772">
        <ele>604</ele>
        <time>2025-09-20T08:53:33.000Z</time>
      </trkpt>
      <trkpt lat="42.9819" lon="1.09769">
        <ele>605</ele>
        <time>2025-09-20T08:53:34.000Z</time>
      </trkpt>
      <trkpt lat="42.9819" lon="1.09766">
        <ele>606</ele>
        <time>2025-09-20T08:53:35.000Z</time>
      </trkpt>
      <trkpt lat="42.9819" lon="1.09763">
        <ele>606</ele>
        <time>2025-09-20T08:53:36.000Z</time>
      </trkpt>
      <trkpt lat="42.9819" lon="1.09759">
        <ele>607</ele>
        <time>2025-09-20T08:53:37.000Z</time>
      </trkpt>
      <trkpt lat="42.98191" lon="1.09757">
        <ele>607</ele>
        <time>2025-09-20T08:53:38.000Z</time>
      </trkpt>
      <trkpt lat="42.98191" lon="1.09754">
        <ele>607</ele>
        <time>2025-09-20T08:53:39.000Z</time>
      </trkpt>
      <trkpt lat="42.9819" lon="1.09751">
        <ele>607</ele>
        <time>2025-09-20T08:53:40.000Z</time>
      </trkpt>
      <trkpt lat="42.9819" lon="1.09748">
        <ele>607</ele>
        <time>2025-09-20T08:53:41.000Z</time>
      </trkpt>
      <trkpt lat="42.98188" lon="1.09745">
        <ele>607</ele>
        <time>2025-09-20T08:53:42.000Z</time>
      </trkpt>
      <trkpt lat="42.98186" lon="1.09741">
        <ele>608</ele>
        <time>2025-09-20T08:53:43.000Z</time>
      </trkpt>
      <trkpt lat="42.98184" lon="1.09739">
        <ele>610</ele>
        <time>2025-09-20T08:53:44.000Z</time>
      </trkpt>
      <trkpt lat="42.98183" lon="1.09736">
        <ele>610</ele>
        <time>2025-09-20T08:53:45.000Z</time>
      </trkpt>
      <trkpt lat="42.98183" lon="1.09733">
        <ele>609</ele>
        <time>2025-09-20T08:53:46.000Z</time>
      </trkpt>
      <trkpt lat="42.98182" lon="1.09729">
        <ele>609</ele>
        <time>2025-09-20T08:53:47.000Z</time>
      </trkpt>
      <trkpt lat="42.98181" lon="1.09725">
        <ele>610</ele>
        <time>2025-09-20T08:53:48.000Z</time>
      </trkpt>
      <trkpt lat="42.9818" lon="1.09723">
        <ele>610</ele>
        <time>2025-09-20T08:53:49.000Z</time>
      </trkpt>
      <trkpt lat="42.98179" lon="1.0972">
        <ele>611</ele>
        <time>2025-09-20T08:53:50.000Z</time>
      </trkpt>
      <trkpt lat="42.98179" lon="1.09716">
        <ele>611</ele>
        <time>2025-09-20T08:53:51.000Z</time>
      </trkpt>
      <trkpt lat="42.98178" lon="1.09713">
        <ele>611</ele>
        <time>2025-09-20T08:53:52.000Z</time>
      </trkpt>
      <trkpt lat="42.98177" lon="1.09711">
        <ele>611</ele>
        <time>2025-09-20T08:53:53.000Z</time>
      </trkpt>
      <trkpt lat="42.98177" lon="1.09708">
        <ele>611</ele>
        <time>2025-09-20T08:53:54.000Z</time>
      </trkpt>
      <trkpt lat="42.98176" lon="1.09705">
        <ele>612</ele>
        <time>2025-09-20T08:53:55.000Z</time>
      </trkpt>
      <trkpt lat="42.98175" lon="1.09702">
        <ele>612</ele>
        <time>2025-09-20T08:53:56.000Z</time>
      </trkpt>
      <trkpt lat="42.98175" lon="1.09698">
        <ele>612</ele>
        <time>2025-09-20T08:53:57.000Z</time>
      </trkpt>
      <trkpt lat="42.98174" lon="1.09695">
        <ele>612</ele>
        <time>2025-09-20T08:53:58.000Z</time>
      </trkpt>
      <trkpt lat="42.98174" lon="1.09691">
        <ele>611</ele>
        <time>2025-09-20T08:53:59.000Z</time>
      </trkpt>
      <trkpt lat="42.98173" lon="1.09688">
        <ele>611</ele>
        <time>2025-09-20T08:54:00.000Z</time>
      </trkpt>
      <trkpt lat="42.98172" lon="1.09686">
        <ele>612</ele>
        <time>2025-09-20T08:54:01.000Z</time>
      </trkpt>
      <trkpt lat="42.98171" lon="1.09683">
        <ele>612</ele>
        <time>2025-09-20T08:54:02.000Z</time>
      </trkpt>
      <trkpt lat="42.98171" lon="1.0968">
        <ele>612</ele>
        <time>2025-09-20T08:54:03.000Z</time>
      </trkpt>
      <trkpt lat="42.98171" lon="1.09678">
        <ele>612</ele>
        <time>2025-09-20T08:54:04.000Z</time>
      </trkpt>
      <trkpt lat="42.98172" lon="1.09674">
        <ele>612</ele>
        <time>2025-09-20T08:54:05.000Z</time>
      </trkpt>
      <trkpt lat="42.98173" lon="1.09669">
        <ele>612</ele>
        <time>2025-09-20T08:54:06.000Z</time>
      </trkpt>
      <trkpt lat="42.98176" lon="1.09664">
        <ele>611</ele>
        <time>2025-09-20T08:54:07.000Z</time>
      </trkpt>
      <trkpt lat="42.98178" lon="1.09658">
        <ele>611</ele>
        <time>2025-09-20T08:54:08.000Z</time>
      </trkpt>
      <trkpt lat="42.98181" lon="1.09652">
        <ele>611</ele>
        <time>2025-09-20T08:54:09.000Z</time>
      </trkpt>
      <trkpt lat="42.98184" lon="1.09646">
        <ele>611</ele>
        <time>2025-09-20T08:54:10.000Z</time>
      </trkpt>
      <trkpt lat="42.98186" lon="1.09639">
        <ele>610</ele>
        <time>2025-09-20T08:54:11.000Z</time>
      </trkpt>
      <trkpt lat="42.98189" lon="1.09632">
        <ele>610</ele>
        <time>2025-09-20T08:54:12.000Z</time>
      </trkpt>
      <trkpt lat="42.98192" lon="1.09624">
        <ele>609</ele>
        <time>2025-09-20T08:54:13.000Z</time>
      </trkpt>
      <trkpt lat="42.98196" lon="1.09616">
        <ele>609</ele>
        <time>2025-09-20T08:54:14.000Z</time>
      </trkpt>
      <trkpt lat="42.98199" lon="1.09609">
        <ele>609</ele>
        <time>2025-09-20T08:54:15.000Z</time>
      </trkpt>
      <trkpt lat="42.98204" lon="1.096">
        <ele>608</ele>
        <time>2025-09-20T08:54:16.000Z</time>
      </trkpt>
      <trkpt lat="42.98208" lon="1.09591">
        <ele>608</ele>
        <time>2025-09-20T08:54:17.000Z</time>
      </trkpt>
      <trkpt lat="42.98212" lon="1.09581">
        <ele>607</ele>
        <time>2025-09-20T08:54:18.000Z</time>
      </trkpt>
      <trkpt lat="42.98215" lon="1.0957">
        <ele>606</ele>
        <time>2025-09-20T08:54:19.000Z</time>
      </trkpt>
      <trkpt lat="42.98218" lon="1.09559">
        <ele>606</ele>
        <time>2025-09-20T08:54:20.000Z</time>
      </trkpt>
      <trkpt lat="42.98221" lon="1.09548">
        <ele>605</ele>
        <time>2025-09-20T08:54:21.000Z</time>
      </trkpt>
      <trkpt lat="42.98223" lon="1.09536">
        <ele>604</ele>
        <time>2025-09-20T08:54:22.000Z</time>
      </trkpt>
      <trkpt lat="42.98224" lon="1.09525">
        <ele>603</ele>
        <time>2025-09-20T08:54:23.000Z</time>
      </trkpt>
      <trkpt lat="42.98225" lon="1.09513">
        <ele>602</ele>
        <time>2025-09-20T08:54:24.000Z</time>
      </trkpt>
      <trkpt lat="42.98225" lon="1.095">
        <ele>600</ele>
        <time>2025-09-20T08:54:25.000Z</time>
      </trkpt>
      <trkpt lat="42.98225" lon="1.09487">
        <ele>599</ele>
        <time>2025-09-20T08:54:26.000Z</time>
      </trkpt>
      <trkpt lat="42.98224" lon="1.09473">
        <ele>598</ele>
        <time>2025-09-20T08:54:27.000Z</time>
      </trkpt>
      <trkpt lat="42.9822" lon="1.0946">
        <ele>597</ele>
        <time>2025-09-20T08:54:28.000Z</time>
      </trkpt>
      <trkpt lat="42.98215" lon="1.09447">
        <ele>596</ele>
        <time>2025-09-20T08:54:29.000Z</time>
      </trkpt>
      <trkpt lat="42.9821" lon="1.09434">
        <ele>594</ele>
        <time>2025-09-20T08:54:30.000Z</time>
      </trkpt>
      <trkpt lat="42.98206" lon="1.09421">
        <ele>592</ele>
        <time>2025-09-20T08:54:31.000Z</time>
      </trkpt>
      <trkpt lat="42.98202" lon="1.0941">
        <ele>591</ele>
        <time>2025-09-20T08:54:32.000Z</time>
      </trkpt>
      <trkpt lat="42.98197" lon="1.09398">
        <ele>589</ele>
        <time>2025-09-20T08:54:33.000Z</time>
      </trkpt>
      <trkpt lat="42.98194" lon="1.09388">
        <ele>588</ele>
        <time>2025-09-20T08:54:34.000Z</time>
      </trkpt>
      <trkpt lat="42.98191" lon="1.09381">
        <ele>587</ele>
        <time>2025-09-20T08:54:35.000Z</time>
      </trkpt>
      <trkpt lat="42.9819" lon="1.09375">
        <ele>587</ele>
        <time>2025-09-20T08:54:36.000Z</time>
      </trkpt>
      <trkpt lat="42.98189" lon="1.0937">
        <ele>587</ele>
        <time>2025-09-20T08:54:37.000Z</time>
      </trkpt>
      <trkpt lat="42.98191" lon="1.09367">
        <ele>586</ele>
        <time>2025-09-20T08:54:38.000Z</time>
      </trkpt>
      <trkpt lat="42.98194" lon="1.09364">
        <ele>586</ele>
        <time>2025-09-20T08:54:39.000Z</time>
      </trkpt>
      <trkpt lat="42.98199" lon="1.09361">
        <ele>586</ele>
        <time>2025-09-20T08:54:40.000Z</time>
      </trkpt>
      <trkpt lat="42.98204" lon="1.09359">
        <ele>586</ele>
        <time>2025-09-20T08:54:41.000Z</time>
      </trkpt>
      <trkpt lat="42.98209" lon="1.09355">
        <ele>586</ele>
        <time>2025-09-20T08:54:42.000Z</time>
      </trkpt>
      <trkpt lat="42.98214" lon="1.09352">
        <ele>585</ele>
        <time>2025-09-20T08:54:43.000Z</time>
      </trkpt>
      <trkpt lat="42.98221" lon="1.09347">
        <ele>585</ele>
        <time>2025-09-20T08:54:44.000Z</time>
      </trkpt>
      <trkpt lat="42.98227" lon="1.09342">
        <ele>584</ele>
        <time>2025-09-20T08:54:45.000Z</time>
      </trkpt>
      <trkpt lat="42.98232" lon="1.09334">
        <ele>583</ele>
        <time>2025-09-20T08:54:46.000Z</time>
      </trkpt>
      <trkpt lat="42.98237" lon="1.09325">
        <ele>583</ele>
        <time>2025-09-20T08:54:47.000Z</time>
      </trkpt>
      <trkpt lat="42.98241" lon="1.09315">
        <ele>583</ele>
        <time>2025-09-20T08:54:48.000Z</time>
      </trkpt>
      <trkpt lat="42.98244" lon="1.09307">
        <ele>583</ele>
        <time>2025-09-20T08:54:49.000Z</time>
      </trkpt>
      <trkpt lat="42.98246" lon="1.093">
        <ele>583</ele>
        <time>2025-09-20T08:54:50.000Z</time>
      </trkpt>
      <trkpt lat="42.9825" lon="1.09294">
        <ele>583</ele>
        <time>2025-09-20T08:54:51.000Z</time>
      </trkpt>
      <trkpt lat="42.98253" lon="1.0929">
        <ele>583</ele>
        <time>2025-09-20T08:54:52.000Z</time>
      </trkpt>
      <trkpt lat="42.98258" lon="1.09288">
        <ele>582</ele>
        <time>2025-09-20T08:54:53.000Z</time>
      </trkpt>
      <trkpt lat="42.98263" lon="1.09285">
        <ele>582</ele>
        <time>2025-09-20T08:54:54.000Z</time>
      </trkpt>
      <trkpt lat="42.98268" lon="1.09284">
        <ele>582</ele>
        <time>2025-09-20T08:54:55.000Z</time>
      </trkpt>
      <trkpt lat="42.98272" lon="1.09283">
        <ele>582</ele>
        <time>2025-09-20T08:54:56.000Z</time>
      </trkpt>
      <trkpt lat="42.98277" lon="1.09282">
        <ele>582</ele>
        <time>2025-09-20T08:54:57.000Z</time>
      </trkpt>
      <trkpt lat="42.98281" lon="1.09279">
        <ele>582</ele>
        <time>2025-09-20T08:54:58.000Z</time>
      </trkpt>
      <trkpt lat="42.98286" lon="1.09275">
        <ele>582</ele>
        <time>2025-09-20T08:54:59.000Z</time>
      </trkpt>
      <trkpt lat="42.9829" lon="1.09271">
        <ele>582</ele>
        <time>2025-09-20T08:55:00.000Z</time>
      </trkpt>
      <trkpt lat="42.98294" lon="1.09267">
        <ele>581</ele>
        <time>2025-09-20T08:55:01.000Z</time>
      </trkpt>
      <trkpt lat="42.98298" lon="1.09264">
        <ele>581</ele>
        <time>2025-09-20T08:55:02.000Z</time>
      </trkpt>
      <trkpt lat="42.98303" lon="1.09261">
        <ele>581</ele>
        <time>2025-09-20T08:55:03.000Z</time>
      </trkpt>
      <trkpt lat="42.98307" lon="1.09259">
        <ele>581</ele>
        <time>2025-09-20T08:55:04.000Z</time>
      </trkpt>
      <trkpt lat="42.9831" lon="1.09255">
        <ele>581</ele>
        <time>2025-09-20T08:55:05.000Z</time>
      </trkpt>
      <trkpt lat="42.98313" lon="1.09252">
        <ele>581</ele>
        <time>2025-09-20T08:55:06.000Z</time>
      </trkpt>
      <trkpt lat="42.98316" lon="1.09249">
        <ele>582</ele>
        <time>2025-09-20T08:55:07.000Z</time>
      </trkpt>
      <trkpt lat="42.98318" lon="1.09246">
        <ele>582</ele>
        <time>2025-09-20T08:55:08.000Z</time>
      </trkpt>
      <trkpt lat="42.98321" lon="1.09243">
        <ele>582</ele>
        <time>2025-09-20T08:55:09.000Z</time>
      </trkpt>
      <trkpt lat="42.98323" lon="1.09241">
        <ele>582</ele>
        <time>2025-09-20T08:55:10.000Z</time>
      </trkpt>
      <trkpt lat="42.98326" lon="1.09238">
        <ele>582</ele>
        <time>2025-09-20T08:55:11.000Z</time>
      </trkpt>
      <trkpt lat="42.98329" lon="1.09236">
        <ele>582</ele>
        <time>2025-09-20T08:55:12.000Z</time>
      </trkpt>
      <trkpt lat="42.98332" lon="1.09234">
        <ele>583</ele>
        <time>2025-09-20T08:55:13.000Z</time>
      </trkpt>
      <trkpt lat="42.98335" lon="1.09231">
        <ele>583</ele>
        <time>2025-09-20T08:55:14.000Z</time>
      </trkpt>
      <trkpt lat="42.98338" lon="1.09228">
        <ele>583</ele>
        <time>2025-09-20T08:55:15.000Z</time>
      </trkpt>
      <trkpt lat="42.98341" lon="1.09226">
        <ele>583</ele>
        <time>2025-09-20T08:55:16.000Z</time>
      </trkpt>
      <trkpt lat="42.98343" lon="1.09224">
        <ele>583</ele>
        <time>2025-09-20T08:55:17.000Z</time>
      </trkpt>
      <trkpt lat="42.98347" lon="1.09222">
        <ele>583</ele>
        <time>2025-09-20T08:55:18.000Z</time>
      </trkpt>
      <trkpt lat="42.9835" lon="1.09221">
        <ele>584</ele>
        <time>2025-09-20T08:55:19.000Z</time>
      </trkpt>
      <trkpt lat="42.98354" lon="1.09221">
        <ele>584</ele>
        <time>2025-09-20T08:55:20.000Z</time>
      </trkpt>
      <trkpt lat="42.98357" lon="1.0922">
        <ele>585</ele>
        <time>2025-09-20T08:55:21.000Z</time>
      </trkpt>
      <trkpt lat="42.9836" lon="1.09218">
        <ele>585</ele>
        <time>2025-09-20T08:55:22.000Z</time>
      </trkpt>
      <trkpt lat="42.98363" lon="1.09216">
        <ele>586</ele>
        <time>2025-09-20T08:55:23.000Z</time>
      </trkpt>
      <trkpt lat="42.98366" lon="1.09215">
        <ele>586</ele>
        <time>2025-09-20T08:55:24.000Z</time>
      </trkpt>
      <trkpt lat="42.98369" lon="1.09213">
        <ele>586</ele>
        <time>2025-09-20T08:55:25.000Z</time>
      </trkpt>
      <trkpt lat="42.98373" lon="1.09212">
        <ele>586</ele>
        <time>2025-09-20T08:55:26.000Z</time>
      </trkpt>
      <trkpt lat="42.98376" lon="1.09211">
        <ele>586</ele>
        <time>2025-09-20T08:55:27.000Z</time>
      </trkpt>
      <trkpt lat="42.9838" lon="1.0921">
        <ele>586</ele>
        <time>2025-09-20T08:55:28.000Z</time>
      </trkpt>
      <trkpt lat="42.98383" lon="1.0921">
        <ele>587</ele>
        <time>2025-09-20T08:55:29.000Z</time>
      </trkpt>
      <trkpt lat="42.98386" lon="1.09209">
        <ele>587</ele>
        <time>2025-09-20T08:55:30.000Z</time>
      </trkpt>
      <trkpt lat="42.9839" lon="1.09209">
        <ele>587</ele>
        <time>2025-09-20T08:55:31.000Z</time>
      </trkpt>
      <trkpt lat="42.98393" lon="1.09208">
        <ele>587</ele>
        <time>2025-09-20T08:55:32.000Z</time>
      </trkpt>
      <trkpt lat="42.98396" lon="1.09209">
        <ele>587</ele>
        <time>2025-09-20T08:55:33.000Z</time>
      </trkpt>
      <trkpt lat="42.984" lon="1.09209">
        <ele>587</ele>
        <time>2025-09-20T08:55:34.000Z</time>
      </trkpt>
      <trkpt lat="42.98404" lon="1.09209">
        <ele>588</ele>
        <time>2025-09-20T08:55:35.000Z</time>
      </trkpt>
      <trkpt lat="42.98408" lon="1.09208">
        <ele>588</ele>
        <time>2025-09-20T08:55:36.000Z</time>
      </trkpt>
      <trkpt lat="42.98411" lon="1.09208">
        <ele>589</ele>
        <time>2025-09-20T08:55:37.000Z</time>
      </trkpt>
      <trkpt lat="42.98414" lon="1.09209">
        <ele>589</ele>
        <time>2025-09-20T08:55:38.000Z</time>
      </trkpt>
      <trkpt lat="42.98418" lon="1.09209">
        <ele>590</ele>
        <time>2025-09-20T08:55:39.000Z</time>
      </trkpt>
      <trkpt lat="42.98421" lon="1.09208">
        <ele>590</ele>
        <time>2025-09-20T08:55:40.000Z</time>
      </trkpt>
      <trkpt lat="42.98424" lon="1.09209">
        <ele>590</ele>
        <time>2025-09-20T08:55:41.000Z</time>
      </trkpt>
      <trkpt lat="42.98427" lon="1.0921">
        <ele>590</ele>
        <time>2025-09-20T08:55:42.000Z</time>
      </trkpt>
      <trkpt lat="42.98431" lon="1.0921">
        <ele>590</ele>
        <time>2025-09-20T08:55:43.000Z</time>
      </trkpt>
      <trkpt lat="42.98434" lon="1.09211">
        <ele>590</ele>
        <time>2025-09-20T08:55:44.000Z</time>
      </trkpt>
      <trkpt lat="42.98437" lon="1.09212">
        <ele>590</ele>
        <time>2025-09-20T08:55:45.000Z</time>
      </trkpt>
      <trkpt lat="42.9844" lon="1.09213">
        <ele>590</ele>
        <time>2025-09-20T08:55:46.000Z</time>
      </trkpt>
      <trkpt lat="42.98444" lon="1.09214">
        <ele>590</ele>
        <time>2025-09-20T08:55:47.000Z</time>
      </trkpt>
      <trkpt lat="42.98448" lon="1.09216">
        <ele>591</ele>
        <time>2025-09-20T08:55:48.000Z</time>
      </trkpt>
      <trkpt lat="42.98451" lon="1.09217">
        <ele>592</ele>
        <time>2025-09-20T08:55:49.000Z</time>
      </trkpt>
      <trkpt lat="42.98454" lon="1.09218">
        <ele>592</ele>
        <time>2025-09-20T08:55:50.000Z</time>
      </trkpt>
      <trkpt lat="42.98457" lon="1.09219">
        <ele>592</ele>
        <time>2025-09-20T08:55:51.000Z</time>
      </trkpt>
      <trkpt lat="42.98461" lon="1.09221">
        <ele>592</ele>
        <time>2025-09-20T08:55:52.000Z</time>
      </trkpt>
      <trkpt lat="42.98464" lon="1.09223">
        <ele>592</ele>
        <time>2025-09-20T08:55:53.000Z</time>
      </trkpt>
      <trkpt lat="42.98467" lon="1.09224">
        <ele>592</ele>
        <time>2025-09-20T08:55:54.000Z</time>
      </trkpt>
      <trkpt lat="42.9847" lon="1.09225">
        <ele>592</ele>
        <time>2025-09-20T08:55:55.000Z</time>
      </trkpt>
      <trkpt lat="42.98474" lon="1.09226">
        <ele>591</ele>
        <time>2025-09-20T08:55:56.000Z</time>
      </trkpt>
      <trkpt lat="42.98477" lon="1.09227">
        <ele>591</ele>
        <time>2025-09-20T08:55:57.000Z</time>
      </trkpt>
      <trkpt lat="42.98481" lon="1.09228">
        <ele>591</ele>
        <time>2025-09-20T08:55:58.000Z</time>
      </trkpt>
      <trkpt lat="42.98484" lon="1.09229">
        <ele>591</ele>
        <time>2025-09-20T08:55:59.000Z</time>
      </trkpt>
      <trkpt lat="42.98488" lon="1.09229">
        <ele>592</ele>
        <time>2025-09-20T08:56:00.000Z</time>
      </trkpt>
      <trkpt lat="42.98493" lon="1.09229">
        <ele>592</ele>
        <time>2025-09-20T08:56:01.000Z</time>
      </trkpt>
      <trkpt lat="42.98497" lon="1.0923">
        <ele>593</ele>
        <time>2025-09-20T08:56:02.000Z</time>
      </trkpt>
      <trkpt lat="42.98501" lon="1.09231">
        <ele>593</ele>
        <time>2025-09-20T08:56:03.000Z</time>
      </trkpt>
      <trkpt lat="42.98505" lon="1.09231">
        <ele>592</ele>
        <time>2025-09-20T08:56:04.000Z</time>
      </trkpt>
      <trkpt lat="42.98508" lon="1.09231">
        <ele>592</ele>
        <time>2025-09-20T08:56:05.000Z</time>
      </trkpt>
      <trkpt lat="42.98512" lon="1.09232">
        <ele>592</ele>
        <time>2025-09-20T08:56:06.000Z</time>
      </trkpt>
      <trkpt lat="42.98517" lon="1.09234">
        <ele>593</ele>
        <time>2025-09-20T08:56:07.000Z</time>
      </trkpt>
      <trkpt lat="42.9852" lon="1.09235">
        <ele>593</ele>
        <time>2025-09-20T08:56:08.000Z</time>
      </trkpt>
      <trkpt lat="42.98524" lon="1.09235">
        <ele>593</ele>
        <time>2025-09-20T08:56:09.000Z</time>
      </trkpt>
      <trkpt lat="42.98528" lon="1.09236">
        <ele>593</ele>
        <time>2025-09-20T08:56:10.000Z</time>
      </trkpt>
      <trkpt lat="42.98531" lon="1.09236">
        <ele>593</ele>
        <time>2025-09-20T08:56:11.000Z</time>
      </trkpt>
      <trkpt lat="42.98535" lon="1.09237">
        <ele>593</ele>
        <time>2025-09-20T08:56:12.000Z</time>
      </trkpt>
      <trkpt lat="42.9854" lon="1.09238">
        <ele>593</ele>
        <time>2025-09-20T08:56:13.000Z</time>
      </trkpt>
      <trkpt lat="42.98543" lon="1.09239">
        <ele>594</ele>
        <time>2025-09-20T08:56:14.000Z</time>
      </trkpt>
      <trkpt lat="42.98547" lon="1.0924">
        <ele>594</ele>
        <time>2025-09-20T08:56:15.000Z</time>
      </trkpt>
      <trkpt lat="42.98552" lon="1.09241">
        <ele>594</ele>
        <time>2025-09-20T08:56:16.000Z</time>
      </trkpt>
      <trkpt lat="42.98556" lon="1.09242">
        <ele>594</ele>
        <time>2025-09-20T08:56:17.000Z</time>
      </trkpt>
      <trkpt lat="42.9856" lon="1.09243">
        <ele>594</ele>
        <time>2025-09-20T08:56:18.000Z</time>
      </trkpt>
      <trkpt lat="42.98564" lon="1.09244">
        <ele>594</ele>
        <time>2025-09-20T08:56:19.000Z</time>
      </trkpt>
      <trkpt lat="42.98567" lon="1.09245">
        <ele>594</ele>
        <time>2025-09-20T08:56:20.000Z</time>
      </trkpt>
      <trkpt lat="42.9857" lon="1.09246">
        <ele>594</ele>
        <time>2025-09-20T08:56:21.000Z</time>
      </trkpt>
      <trkpt lat="42.98574" lon="1.09248">
        <ele>594</ele>
        <time>2025-09-20T08:56:22.000Z</time>
      </trkpt>
      <trkpt lat="42.98577" lon="1.0925">
        <ele>594</ele>
        <time>2025-09-20T08:56:23.000Z</time>
      </trkpt>
      <trkpt lat="42.98581" lon="1.09252">
        <ele>594</ele>
        <time>2025-09-20T08:56:24.000Z</time>
      </trkpt>
      <trkpt lat="42.98585" lon="1.09254">
        <ele>594</ele>
        <time>2025-09-20T08:56:25.000Z</time>
      </trkpt>
      <trkpt lat="42.98589" lon="1.09257">
        <ele>595</ele>
        <time>2025-09-20T08:56:26.000Z</time>
      </trkpt>
      <trkpt lat="42.98592" lon="1.0926">
        <ele>595</ele>
        <time>2025-09-20T08:56:27.000Z</time>
      </trkpt>
      <trkpt lat="42.98596" lon="1.09262">
        <ele>596</ele>
        <time>2025-09-20T08:56:28.000Z</time>
      </trkpt>
      <trkpt lat="42.986" lon="1.09265">
        <ele>596</ele>
        <time>2025-09-20T08:56:29.000Z</time>
      </trkpt>
      <trkpt lat="42.98604" lon="1.09267">
        <ele>597</ele>
        <time>2025-09-20T08:56:30.000Z</time>
      </trkpt>
      <trkpt lat="42.98607" lon="1.0927">
        <ele>597</ele>
        <time>2025-09-20T08:56:31.000Z</time>
      </trkpt>
      <trkpt lat="42.98611" lon="1.09272">
        <ele>597</ele>
        <time>2025-09-20T08:56:32.000Z</time>
      </trkpt>
      <trkpt lat="42.98614" lon="1.09274">
        <ele>597</ele>
        <time>2025-09-20T08:56:33.000Z</time>
      </trkpt>
      <trkpt lat="42.98617" lon="1.09276">
        <ele>597</ele>
        <time>2025-09-20T08:56:34.000Z</time>
      </trkpt>
      <trkpt lat="42.9862" lon="1.09278">
        <ele>597</ele>
        <time>2025-09-20T08:56:35.000Z</time>
      </trkpt>
      <trkpt lat="42.98623" lon="1.0928">
        <ele>597</ele>
        <time>2025-09-20T08:56:36.000Z</time>
      </trkpt>
      <trkpt lat="42.98626" lon="1.09282">
        <ele>597</ele>
        <time>2025-09-20T08:56:37.000Z</time>
      </trkpt>
      <trkpt lat="42.9863" lon="1.09284">
        <ele>597</ele>
        <time>2025-09-20T08:56:38.000Z</time>
      </trkpt>
      <trkpt lat="42.98633" lon="1.09286">
        <ele>597</ele>
        <time>2025-09-20T08:56:39.000Z</time>
      </trkpt>
      <trkpt lat="42.98636" lon="1.09288">
        <ele>597</ele>
        <time>2025-09-20T08:56:40.000Z</time>
      </trkpt>
      <trkpt lat="42.9864" lon="1.09291">
        <ele>596</ele>
        <time>2025-09-20T08:56:41.000Z</time>
      </trkpt>
      <trkpt lat="42.98645" lon="1.09294">
        <ele>596</ele>
        <time>2025-09-20T08:56:42.000Z</time>
      </trkpt>
      <trkpt lat="42.9865" lon="1.09297">
        <ele>596</ele>
        <time>2025-09-20T08:56:43.000Z</time>
      </trkpt>
      <trkpt lat="42.98656" lon="1.093">
        <ele>596</ele>
        <time>2025-09-20T08:56:44.000Z</time>
      </trkpt>
      <trkpt lat="42.98661" lon="1.09302">
        <ele>595</ele>
        <time>2025-09-20T08:56:45.000Z</time>
      </trkpt>
      <trkpt lat="42.98667" lon="1.09304">
        <ele>596</ele>
        <time>2025-09-20T08:56:46.000Z</time>
      </trkpt>
      <trkpt lat="42.98674" lon="1.09306">
        <ele>596</ele>
        <time>2025-09-20T08:56:47.000Z</time>
      </trkpt>
      <trkpt lat="42.98679" lon="1.09307">
        <ele>596</ele>
        <time>2025-09-20T08:56:48.000Z</time>
      </trkpt>
      <trkpt lat="42.98685" lon="1.09309">
        <ele>596</ele>
        <time>2025-09-20T08:56:49.000Z</time>
      </trkpt>
      <trkpt lat="42.98691" lon="1.0931">
        <ele>595</ele>
        <time>2025-09-20T08:56:50.000Z</time>
      </trkpt>
      <trkpt lat="42.98697" lon="1.09312">
        <ele>595</ele>
        <time>2025-09-20T08:56:51.000Z</time>
      </trkpt>
      <trkpt lat="42.98703" lon="1.09314">
        <ele>596</ele>
        <time>2025-09-20T08:56:52.000Z</time>
      </trkpt>
      <trkpt lat="42.98708" lon="1.09315">
        <ele>595</ele>
        <time>2025-09-20T08:56:53.000Z</time>
      </trkpt>
      <trkpt lat="42.98714" lon="1.09316">
        <ele>595</ele>
        <time>2025-09-20T08:56:54.000Z</time>
      </trkpt>
      <trkpt lat="42.98719" lon="1.09318">
        <ele>594</ele>
        <time>2025-09-20T08:56:55.000Z</time>
      </trkpt>
      <trkpt lat="42.98725" lon="1.0932">
        <ele>594</ele>
        <time>2025-09-20T08:56:56.000Z</time>
      </trkpt>
      <trkpt lat="42.98731" lon="1.09323">
        <ele>594</ele>
        <time>2025-09-20T08:56:57.000Z</time>
      </trkpt>
      <trkpt lat="42.98736" lon="1.09326">
        <ele>594</ele>
        <time>2025-09-20T08:56:58.000Z</time>
      </trkpt>
      <trkpt lat="42.98743" lon="1.09328">
        <ele>594</ele>
        <time>2025-09-20T08:56:59.000Z</time>
      </trkpt>
      <trkpt lat="42.9875" lon="1.09332">
        <ele>593</ele>
        <time>2025-09-20T08:57:00.000Z</time>
      </trkpt>
      <trkpt lat="42.98755" lon="1.09336">
        <ele>592</ele>
        <time>2025-09-20T08:57:01.000Z</time>
      </trkpt>
      <trkpt lat="42.98761" lon="1.09339">
        <ele>593</ele>
        <time>2025-09-20T08:57:02.000Z</time>
      </trkpt>
      <trkpt lat="42.98767" lon="1.09339">
        <ele>593</ele>
        <time>2025-09-20T08:57:03.000Z</time>
      </trkpt>
      <trkpt lat="42.98772" lon="1.09338">
        <ele>594</ele>
        <time>2025-09-20T08:57:04.000Z</time>
      </trkpt>
      <trkpt lat="42.98776" lon="1.09336">
        <ele>593</ele>
        <time>2025-09-20T08:57:05.000Z</time>
      </trkpt>
      <trkpt lat="42.98781" lon="1.09335">
        <ele>593</ele>
        <time>2025-09-20T08:57:06.000Z</time>
      </trkpt>
      <trkpt lat="42.98785" lon="1.09335">
        <ele>593</ele>
        <time>2025-09-20T08:57:07.000Z</time>
      </trkpt>
      <trkpt lat="42.98789" lon="1.09334">
        <ele>593</ele>
        <time>2025-09-20T08:57:08.000Z</time>
      </trkpt>
      <trkpt lat="42.98794" lon="1.09334">
        <ele>593</ele>
        <time>2025-09-20T08:57:09.000Z</time>
      </trkpt>
      <trkpt lat="42.98798" lon="1.09333">
        <ele>593</ele>
        <time>2025-09-20T08:57:10.000Z</time>
      </trkpt>
      <trkpt lat="42.98801" lon="1.09333">
        <ele>594</ele>
        <time>2025-09-20T08:57:11.000Z</time>
      </trkpt>
      <trkpt lat="42.98804" lon="1.09332">
        <ele>594</ele>
        <time>2025-09-20T08:57:12.000Z</time>
      </trkpt>
      <trkpt lat="42.98808" lon="1.09332">
        <ele>594</ele>
        <time>2025-09-20T08:57:13.000Z</time>
      </trkpt>
      <trkpt lat="42.98811" lon="1.09331">
        <ele>594</ele>
        <time>2025-09-20T08:57:14.000Z</time>
      </trkpt>
      <trkpt lat="42.98814" lon="1.0933">
        <ele>594</ele>
        <time>2025-09-20T08:57:15.000Z</time>
      </trkpt>
      <trkpt lat="42.98817" lon="1.09329">
        <ele>594</ele>
        <time>2025-09-20T08:57:16.000Z</time>
      </trkpt>
      <trkpt lat="42.98819" lon="1.09329">
        <ele>595</ele>
        <time>2025-09-20T08:57:17.000Z</time>
      </trkpt>
      <trkpt lat="42.98821" lon="1.09328">
        <ele>595</ele>
        <time>2025-09-20T08:57:18.000Z</time>
      </trkpt>
      <trkpt lat="42.98823" lon="1.09327">
        <ele>594</ele>
        <time>2025-09-20T08:57:19.000Z</time>
      </trkpt>
      <trkpt lat="42.98826" lon="1.09326">
        <ele>595</ele>
        <time>2025-09-20T08:57:20.000Z</time>
      </trkpt>
      <trkpt lat="42.98829" lon="1.09325">
        <ele>595</ele>
        <time>2025-09-20T08:57:21.000Z</time>
      </trkpt>
      <trkpt lat="42.98831" lon="1.09323">
        <ele>595</ele>
        <time>2025-09-20T08:57:22.000Z</time>
      </trkpt>
      <trkpt lat="42.98834" lon="1.09321">
        <ele>595</ele>
        <time>2025-09-20T08:57:23.000Z</time>
      </trkpt>
      <trkpt lat="42.98837" lon="1.09319">
        <ele>595</ele>
        <time>2025-09-20T08:57:24.000Z</time>
      </trkpt>
      <trkpt lat="42.9884" lon="1.09317">
        <ele>595</ele>
        <time>2025-09-20T08:57:25.000Z</time>
      </trkpt>
      <trkpt lat="42.98843" lon="1.09315">
        <ele>595</ele>
        <time>2025-09-20T08:57:26.000Z</time>
      </trkpt>
      <trkpt lat="42.98846" lon="1.09314">
        <ele>595</ele>
        <time>2025-09-20T08:57:27.000Z</time>
      </trkpt>
      <trkpt lat="42.98848" lon="1.09313">
        <ele>595</ele>
        <time>2025-09-20T08:57:28.000Z</time>
      </trkpt>
      <trkpt lat="42.98851" lon="1.09311">
        <ele>595</ele>
        <time>2025-09-20T08:57:29.000Z</time>
      </trkpt>
      <trkpt lat="42.98853" lon="1.0931">
        <ele>595</ele>
        <time>2025-09-20T08:57:30.000Z</time>
      </trkpt>
      <trkpt lat="42.98856" lon="1.09308">
        <ele>595</ele>
        <time>2025-09-20T08:57:31.000Z</time>
      </trkpt>
      <trkpt lat="42.98858" lon="1.09306">
        <ele>596</ele>
        <time>2025-09-20T08:57:32.000Z</time>
      </trkpt>
      <trkpt lat="42.9886" lon="1.09305">
        <ele>596</ele>
        <time>2025-09-20T08:57:33.000Z</time>
      </trkpt>
      <trkpt lat="42.98863" lon="1.09303">
        <ele>596</ele>
        <time>2025-09-20T08:57:34.000Z</time>
      </trkpt>
      <trkpt lat="42.98865" lon="1.09302">
        <ele>596</ele>
        <time>2025-09-20T08:57:35.000Z</time>
      </trkpt>
      <trkpt lat="42.98868" lon="1.09301">
        <ele>595</ele>
        <time>2025-09-20T08:57:36.000Z</time>
      </trkpt>
      <trkpt lat="42.9887" lon="1.09299">
        <ele>595</ele>
        <time>2025-09-20T08:57:37.000Z</time>
      </trkpt>
      <trkpt lat="42.98873" lon="1.09298">
        <ele>596</ele>
        <time>2025-09-20T08:57:38.000Z</time>
      </trkpt>
      <trkpt lat="42.98877" lon="1.09295">
        <ele>596</ele>
        <time>2025-09-20T08:57:39.000Z</time>
      </trkpt>
      <trkpt lat="42.9888" lon="1.09294">
        <ele>596</ele>
        <time>2025-09-20T08:57:40.000Z</time>
      </trkpt>
      <trkpt lat="42.98883" lon="1.09292">
        <ele>597</ele>
        <time>2025-09-20T08:57:41.000Z</time>
      </trkpt>
      <trkpt lat="42.98886" lon="1.09291">
        <ele>597</ele>
        <time>2025-09-20T08:57:42.000Z</time>
      </trkpt>
      <trkpt lat="42.98888" lon="1.0929">
        <ele>598</ele>
        <time>2025-09-20T08:57:43.000Z</time>
      </trkpt>
      <trkpt lat="42.98891" lon="1.09289">
        <ele>599</ele>
        <time>2025-09-20T08:57:44.000Z</time>
      </trkpt>
      <trkpt lat="42.98893" lon="1.09289">
        <ele>599</ele>
        <time>2025-09-20T08:57:45.000Z</time>
      </trkpt>
      <trkpt lat="42.98895" lon="1.09288">
        <ele>599</ele>
        <time>2025-09-20T08:57:46.000Z</time>
      </trkpt>
      <trkpt lat="42.98897" lon="1.09288">
        <ele>599</ele>
        <time>2025-09-20T08:57:47.000Z</time>
      </trkpt>
      <trkpt lat="42.98899" lon="1.09287">
        <ele>599</ele>
        <time>2025-09-20T08:57:48.000Z</time>
      </trkpt>
      <trkpt lat="42.98901" lon="1.09287">
        <ele>599</ele>
        <time>2025-09-20T08:57:49.000Z</time>
      </trkpt>
      <trkpt lat="42.98903" lon="1.09286">
        <ele>599</ele>
        <time>2025-09-20T08:57:50.000Z</time>
      </trkpt>
      <trkpt lat="42.98906" lon="1.09285">
        <ele>599</ele>
        <time>2025-09-20T08:57:51.000Z</time>
      </trkpt>
      <trkpt lat="42.98909" lon="1.09284">
        <ele>599</ele>
        <time>2025-09-20T08:57:52.000Z</time>
      </trkpt>
      <trkpt lat="42.98911" lon="1.09283">
        <ele>599</ele>
        <time>2025-09-20T08:57:53.000Z</time>
      </trkpt>
      <trkpt lat="42.98914" lon="1.09281">
        <ele>600</ele>
        <time>2025-09-20T08:57:54.000Z</time>
      </trkpt>
      <trkpt lat="42.98917" lon="1.09281">
        <ele>600</ele>
        <time>2025-09-20T08:57:55.000Z</time>
      </trkpt>
      <trkpt lat="42.98921" lon="1.0928">
        <ele>600</ele>
        <time>2025-09-20T08:57:56.000Z</time>
      </trkpt>
      <trkpt lat="42.98924" lon="1.09279">
        <ele>600</ele>
        <time>2025-09-20T08:57:57.000Z</time>
      </trkpt>
      <trkpt lat="42.98927" lon="1.09278">
        <ele>600</ele>
        <time>2025-09-20T08:57:58.000Z</time>
      </trkpt>
      <trkpt lat="42.9893" lon="1.09277">
        <ele>600</ele>
        <time>2025-09-20T08:57:59.000Z</time>
      </trkpt>
      <trkpt lat="42.98933" lon="1.09276">
        <ele>600</ele>
        <time>2025-09-20T08:58:00.000Z</time>
      </trkpt>
      <trkpt lat="42.98935" lon="1.09275">
        <ele>600</ele>
        <time>2025-09-20T08:58:01.000Z</time>
      </trkpt>
      <trkpt lat="42.98938" lon="1.09275">
        <ele>600</ele>
        <time>2025-09-20T08:58:02.000Z</time>
      </trkpt>
      <trkpt lat="42.98941" lon="1.09275">
        <ele>600</ele>
        <time>2025-09-20T08:58:03.000Z</time>
      </trkpt>
      <trkpt lat="42.98944" lon="1.09275">
        <ele>599</ele>
        <time>2025-09-20T08:58:04.000Z</time>
      </trkpt>
      <trkpt lat="42.98947" lon="1.09275">
        <ele>600</ele>
        <time>2025-09-20T08:58:05.000Z</time>
      </trkpt>
      <trkpt lat="42.9895" lon="1.09274">
        <ele>600</ele>
        <time>2025-09-20T08:58:06.000Z</time>
      </trkpt>
      <trkpt lat="42.98953" lon="1.09273">
        <ele>600</ele>
        <time>2025-09-20T08:58:07.000Z</time>
      </trkpt>
      <trkpt lat="42.98957" lon="1.09272">
        <ele>600</ele>
        <time>2025-09-20T08:58:08.000Z</time>
      </trkpt>
      <trkpt lat="42.9896" lon="1.09272">
        <ele>600</ele>
        <time>2025-09-20T08:58:09.000Z</time>
      </trkpt>
      <trkpt lat="42.98964" lon="1.0927">
        <ele>601</ele>
        <time>2025-09-20T08:58:10.000Z</time>
      </trkpt>
      <trkpt lat="42.98968" lon="1.09269">
        <ele>602</ele>
        <time>2025-09-20T08:58:11.000Z</time>
      </trkpt>
      <trkpt lat="42.98973" lon="1.09268">
        <ele>602</ele>
        <time>2025-09-20T08:58:12.000Z</time>
      </trkpt>
      <trkpt lat="42.98978" lon="1.09268">
        <ele>602</ele>
        <time>2025-09-20T08:58:13.000Z</time>
      </trkpt>
      <trkpt lat="42.98983" lon="1.09268">
        <ele>603</ele>
        <time>2025-09-20T08:58:14.000Z</time>
      </trkpt>
      <trkpt lat="42.98988" lon="1.09268">
        <ele>603</ele>
        <time>2025-09-20T08:58:15.000Z</time>
      </trkpt>
      <trkpt lat="42.98993" lon="1.09268">
        <ele>603</ele>
        <time>2025-09-20T08:58:16.000Z</time>
      </trkpt>
      <trkpt lat="42.98997" lon="1.09268">
        <ele>603</ele>
        <time>2025-09-20T08:58:17.000Z</time>
      </trkpt>
      <trkpt lat="42.99002" lon="1.09267">
        <ele>604</ele>
        <time>2025-09-20T08:58:18.000Z</time>
      </trkpt>
      <trkpt lat="42.99006" lon="1.09266">
        <ele>604</ele>
        <time>2025-09-20T08:58:19.000Z</time>
      </trkpt>
      <trkpt lat="42.99011" lon="1.09265">
        <ele>605</ele>
        <time>2025-09-20T08:58:20.000Z</time>
      </trkpt>
      <trkpt lat="42.99015" lon="1.09265">
        <ele>605</ele>
        <time>2025-09-20T08:58:21.000Z</time>
      </trkpt>
      <trkpt lat="42.99019" lon="1.09266">
        <ele>605</ele>
        <time>2025-09-20T08:58:22.000Z</time>
      </trkpt>
      <trkpt lat="42.99023" lon="1.09266">
        <ele>606</ele>
        <time>2025-09-20T08:58:23.000Z</time>
      </trkpt>
      <trkpt lat="42.99026" lon="1.09266">
        <ele>606</ele>
        <time>2025-09-20T08:58:24.000Z</time>
      </trkpt>
      <trkpt lat="42.9903" lon="1.09266">
        <ele>607</ele>
        <time>2025-09-20T08:58:25.000Z</time>
      </trkpt>
      <trkpt lat="42.99033" lon="1.09266">
        <ele>608</ele>
        <time>2025-09-20T08:58:26.000Z</time>
      </trkpt>
      <trkpt lat="42.99035" lon="1.09267">
        <ele>608</ele>
        <time>2025-09-20T08:58:27.000Z</time>
      </trkpt>
      <trkpt lat="42.99037" lon="1.09267">
        <ele>608</ele>
        <time>2025-09-20T08:58:28.000Z</time>
      </trkpt>
      <trkpt lat="42.9904" lon="1.09267">
        <ele>608</ele>
        <time>2025-09-20T08:58:29.000Z</time>
      </trkpt>
      <trkpt lat="42.99042" lon="1.09268">
        <ele>608</ele>
        <time>2025-09-20T08:58:30.000Z</time>
      </trkpt>
      <trkpt lat="42.99044" lon="1.09269">
        <ele>608</ele>
        <time>2025-09-20T08:58:31.000Z</time>
      </trkpt>
      <trkpt lat="42.99046" lon="1.09269">
        <ele>608</ele>
        <time>2025-09-20T08:58:32.000Z</time>
      </trkpt>
      <trkpt lat="42.99049" lon="1.09271">
        <ele>608</ele>
        <time>2025-09-20T08:58:33.000Z</time>
      </trkpt>
      <trkpt lat="42.99051" lon="1.09273">
        <ele>608</ele>
        <time>2025-09-20T08:58:34.000Z</time>
      </trkpt>
      <trkpt lat="42.99054" lon="1.09274">
        <ele>608</ele>
        <time>2025-09-20T08:58:35.000Z</time>
      </trkpt>
      <trkpt lat="42.99056" lon="1.09275">
        <ele>608</ele>
        <time>2025-09-20T08:58:36.000Z</time>
      </trkpt>
      <trkpt lat="42.99058" lon="1.09277">
        <ele>608</ele>
        <time>2025-09-20T08:58:37.000Z</time>
      </trkpt>
      <trkpt lat="42.99061" lon="1.09279">
        <ele>608</ele>
        <time>2025-09-20T08:58:38.000Z</time>
      </trkpt>
      <trkpt lat="42.99063" lon="1.0928">
        <ele>608</ele>
        <time>2025-09-20T08:58:39.000Z</time>
      </trkpt>
      <trkpt lat="42.99066" lon="1.09282">
        <ele>609</ele>
        <time>2025-09-20T08:58:40.000Z</time>
      </trkpt>
      <trkpt lat="42.99068" lon="1.09283">
        <ele>609</ele>
        <time>2025-09-20T08:58:41.000Z</time>
      </trkpt>
      <trkpt lat="42.9907" lon="1.09285">
        <ele>609</ele>
        <time>2025-09-20T08:58:42.000Z</time>
      </trkpt>
      <trkpt lat="42.99073" lon="1.09286">
        <ele>608</ele>
        <time>2025-09-20T08:58:43.000Z</time>
      </trkpt>
      <trkpt lat="42.99074" lon="1.09288">
        <ele>608</ele>
        <time>2025-09-20T08:58:44.000Z</time>
      </trkpt>
      <trkpt lat="42.99076" lon="1.09289">
        <ele>608</ele>
        <time>2025-09-20T08:58:45.000Z</time>
      </trkpt>
      <trkpt lat="42.99078" lon="1.0929">
        <ele>608</ele>
        <time>2025-09-20T08:58:46.000Z</time>
      </trkpt>
      <trkpt lat="42.9908" lon="1.09292">
        <ele>608</ele>
        <time>2025-09-20T08:58:47.000Z</time>
      </trkpt>
      <trkpt lat="42.99082" lon="1.09293">
        <ele>609</ele>
        <time>2025-09-20T08:58:48.000Z</time>
      </trkpt>
      <trkpt lat="42.99085" lon="1.09294">
        <ele>609</ele>
        <time>2025-09-20T08:58:49.000Z</time>
      </trkpt>
      <trkpt lat="42.99087" lon="1.09296">
        <ele>609</ele>
        <time>2025-09-20T08:58:50.000Z</time>
      </trkpt>
      <trkpt lat="42.99089" lon="1.09297">
        <ele>609</ele>
        <time>2025-09-20T08:58:51.000Z</time>
      </trkpt>
      <trkpt lat="42.99091" lon="1.09297">
        <ele>609</ele>
        <time>2025-09-20T08:58:52.000Z</time>
      </trkpt>
      <trkpt lat="42.99093" lon="1.09298">
        <ele>609</ele>
        <time>2025-09-20T08:58:53.000Z</time>
      </trkpt>
      <trkpt lat="42.99095" lon="1.09299">
        <ele>609</ele>
        <time>2025-09-20T08:58:54.000Z</time>
      </trkpt>
      <trkpt lat="42.99096" lon="1.093">
        <ele>609</ele>
        <time>2025-09-20T08:58:55.000Z</time>
      </trkpt>
      <trkpt lat="42.99099" lon="1.09299">
        <ele>610</ele>
        <time>2025-09-20T08:58:56.000Z</time>
      </trkpt>
      <trkpt lat="42.99102" lon="1.09299">
        <ele>610</ele>
        <time>2025-09-20T08:58:57.000Z</time>
      </trkpt>
      <trkpt lat="42.99105" lon="1.09298">
        <ele>610</ele>
        <time>2025-09-20T08:58:58.000Z</time>
      </trkpt>
      <trkpt lat="42.99108" lon="1.09298">
        <ele>610</ele>
        <time>2025-09-20T08:58:59.000Z</time>
      </trkpt>
      <trkpt lat="42.9911" lon="1.09297">
        <ele>610</ele>
        <time>2025-09-20T08:59:00.000Z</time>
      </trkpt>
      <trkpt lat="42.99113" lon="1.09296">
        <ele>610</ele>
        <time>2025-09-20T08:59:01.000Z</time>
      </trkpt>
      <trkpt lat="42.99116" lon="1.09295">
        <ele>610</ele>
        <time>2025-09-20T08:59:02.000Z</time>
      </trkpt>
      <trkpt lat="42.99117" lon="1.09294">
        <ele>610</ele>
        <time>2025-09-20T08:59:03.000Z</time>
      </trkpt>
      <trkpt lat="42.99119" lon="1.09293">
        <ele>611</ele>
        <time>2025-09-20T08:59:04.000Z</time>
      </trkpt>
      <trkpt lat="42.99121" lon="1.09293">
        <ele>611</ele>
        <time>2025-09-20T08:59:05.000Z</time>
      </trkpt>
      <trkpt lat="42.99123" lon="1.09292">
        <ele>611</ele>
        <time>2025-09-20T08:59:06.000Z</time>
      </trkpt>
      <trkpt lat="42.99126" lon="1.09291">
        <ele>611</ele>
        <time>2025-09-20T08:59:07.000Z</time>
      </trkpt>
      <trkpt lat="42.99128" lon="1.09289">
        <ele>611</ele>
        <time>2025-09-20T08:59:08.000Z</time>
      </trkpt>
      <trkpt lat="42.9913" lon="1.09286">
        <ele>611</ele>
        <time>2025-09-20T08:59:09.000Z</time>
      </trkpt>
      <trkpt lat="42.99133" lon="1.09285">
        <ele>611</ele>
        <time>2025-09-20T08:59:10.000Z</time>
      </trkpt>
      <trkpt lat="42.99135" lon="1.09283">
        <ele>611</ele>
        <time>2025-09-20T08:59:11.000Z</time>
      </trkpt>
      <trkpt lat="42.99138" lon="1.09281">
        <ele>611</ele>
        <time>2025-09-20T08:59:12.000Z</time>
      </trkpt>
      <trkpt lat="42.9914" lon="1.09279">
        <ele>611</ele>
        <time>2025-09-20T08:59:13.000Z</time>
      </trkpt>
      <trkpt lat="42.99143" lon="1.09277">
        <ele>611</ele>
        <time>2025-09-20T08:59:14.000Z</time>
      </trkpt>
      <trkpt lat="42.99145" lon="1.09275">
        <ele>611</ele>
        <time>2025-09-20T08:59:15.000Z</time>
      </trkpt>
      <trkpt lat="42.99147" lon="1.09274">
        <ele>611</ele>
        <time>2025-09-20T08:59:16.000Z</time>
      </trkpt>
      <trkpt lat="42.99149" lon="1.09272">
        <ele>612</ele>
        <time>2025-09-20T08:59:17.000Z</time>
      </trkpt>
      <trkpt lat="42.99151" lon="1.09269">
        <ele>611</ele>
        <time>2025-09-20T08:59:18.000Z</time>
      </trkpt>
      <trkpt lat="42.99153" lon="1.09266">
        <ele>611</ele>
        <time>2025-09-20T08:59:19.000Z</time>
      </trkpt>
      <trkpt lat="42.99156" lon="1.09264">
        <ele>611</ele>
        <time>2025-09-20T08:59:20.000Z</time>
      </trkpt>
      <trkpt lat="42.99158" lon="1.09262">
        <ele>611</ele>
        <time>2025-09-20T08:59:21.000Z</time>
      </trkpt>
      <trkpt lat="42.99161" lon="1.09259">
        <ele>611</ele>
        <time>2025-09-20T08:59:22.000Z</time>
      </trkpt>
      <trkpt lat="42.99163" lon="1.09256">
        <ele>611</ele>
        <time>2025-09-20T08:59:23.000Z</time>
      </trkpt>
      <trkpt lat="42.99165" lon="1.09253">
        <ele>611</ele>
        <time>2025-09-20T08:59:24.000Z</time>
      </trkpt>
      <trkpt lat="42.99167" lon="1.0925">
        <ele>612</ele>
        <time>2025-09-20T08:59:25.000Z</time>
      </trkpt>
      <trkpt lat="42.99169" lon="1.09248">
        <ele>611</ele>
        <time>2025-09-20T08:59:26.000Z</time>
      </trkpt>
      <trkpt lat="42.99171" lon="1.09245">
        <ele>612</ele>
        <time>2025-09-20T08:59:27.000Z</time>
      </trkpt>
      <trkpt lat="42.99173" lon="1.09242">
        <ele>612</ele>
        <time>2025-09-20T08:59:28.000Z</time>
      </trkpt>
      <trkpt lat="42.99176" lon="1.09239">
        <ele>613</ele>
        <time>2025-09-20T08:59:29.000Z</time>
      </trkpt>
      <trkpt lat="42.99178" lon="1.09236">
        <ele>613</ele>
        <time>2025-09-20T08:59:30.000Z</time>
      </trkpt>
      <trkpt lat="42.9918" lon="1.09233">
        <ele>613</ele>
        <time>2025-09-20T08:59:31.000Z</time>
      </trkpt>
      <trkpt lat="42.99182" lon="1.0923">
        <ele>613</ele>
        <time>2025-09-20T08:59:32.000Z</time>
      </trkpt>
      <trkpt lat="42.99183" lon="1.09227">
        <ele>614</ele>
        <time>2025-09-20T08:59:33.000Z</time>
      </trkpt>
      <trkpt lat="42.99185" lon="1.09224">
        <ele>614</ele>
        <time>2025-09-20T08:59:34.000Z</time>
      </trkpt>
      <trkpt lat="42.99187" lon="1.09222">
        <ele>614</ele>
        <time>2025-09-20T08:59:35.000Z</time>
      </trkpt>
      <trkpt lat="42.99189" lon="1.09218">
        <ele>614</ele>
        <time>2025-09-20T08:59:36.000Z</time>
      </trkpt>
      <trkpt lat="42.99191" lon="1.09215">
        <ele>615</ele>
        <time>2025-09-20T08:59:37.000Z</time>
      </trkpt>
      <trkpt lat="42.99193" lon="1.09211">
        <ele>615</ele>
        <time>2025-09-20T08:59:38.000Z</time>
      </trkpt>
      <trkpt lat="42.99195" lon="1.09207">
        <ele>615</ele>
        <time>2025-09-20T08:59:39.000Z</time>
      </trkpt>
      <trkpt lat="42.99196" lon="1.09204">
        <ele>615</ele>
        <time>2025-09-20T08:59:40.000Z</time>
      </trkpt>
      <trkpt lat="42.99197" lon="1.09201">
        <ele>615</ele>
        <time>2025-09-20T08:59:41.000Z</time>
      </trkpt>
      <trkpt lat="42.99199" lon="1.09198">
        <ele>615</ele>
        <time>2025-09-20T08:59:42.000Z</time>
      </trkpt>
      <trkpt lat="42.99201" lon="1.09195">
        <ele>615</ele>
        <time>2025-09-20T08:59:43.000Z</time>
      </trkpt>
      <trkpt lat="42.99202" lon="1.09191">
        <ele>616</ele>
        <time>2025-09-20T08:59:44.000Z</time>
      </trkpt>
      <trkpt lat="42.99204" lon="1.09187">
        <ele>616</ele>
        <time>2025-09-20T08:59:45.000Z</time>
      </trkpt>
      <trkpt lat="42.99205" lon="1.09183">
        <ele>617</ele>
        <time>2025-09-20T08:59:46.000Z</time>
      </trkpt>
      <trkpt lat="42.99206" lon="1.09179">
        <ele>617</ele>
        <time>2025-09-20T08:59:47.000Z</time>
      </trkpt>
      <trkpt lat="42.99207" lon="1.09175">
        <ele>617</ele>
        <time>2025-09-20T08:59:48.000Z</time>
      </trkpt>
      <trkpt lat="42.99208" lon="1.09171">
        <ele>617</ele>
        <time>2025-09-20T08:59:49.000Z</time>
      </trkpt>
      <trkpt lat="42.99208" lon="1.09167">
        <ele>617</ele>
        <time>2025-09-20T08:59:50.000Z</time>
      </trkpt>
      <trkpt lat="42.99209" lon="1.09163">
        <ele>618</ele>
        <time>2025-09-20T08:59:51.000Z</time>
      </trkpt>
      <trkpt lat="42.99209" lon="1.09159">
        <ele>618</ele>
        <time>2025-09-20T08:59:52.000Z</time>
      </trkpt>
      <trkpt lat="42.99209" lon="1.09156">
        <ele>618</ele>
        <time>2025-09-20T08:59:53.000Z</time>
      </trkpt>
      <trkpt lat="42.99209" lon="1.09152">
        <ele>619</ele>
        <time>2025-09-20T08:59:54.000Z</time>
      </trkpt>
      <trkpt lat="42.9921" lon="1.0915">
        <ele>619</ele>
        <time>2025-09-20T08:59:55.000Z</time>
      </trkpt>
      <trkpt lat="42.99211" lon="1.09146">
        <ele>618</ele>
        <time>2025-09-20T08:59:56.000Z</time>
      </trkpt>
      <trkpt lat="42.99212" lon="1.09143">
        <ele>617</ele>
        <time>2025-09-20T08:59:57.000Z</time>
      </trkpt>
      <trkpt lat="42.99212" lon="1.09138">
        <ele>615</ele>
        <time>2025-09-20T08:59:58.000Z</time>
      </trkpt>
      <trkpt lat="42.99212" lon="1.09134">
        <ele>613</ele>
        <time>2025-09-20T08:59:59.000Z</time>
      </trkpt>
      <trkpt lat="42.99212" lon="1.09132">
        <ele>612</ele>
        <time>2025-09-20T09:00:00.000Z</time>
      </trkpt>
      <trkpt lat="42.99212" lon="1.09129">
        <ele>612</ele>
        <time>2025-09-20T09:00:01.000Z</time>
      </trkpt>
      <trkpt lat="42.99212" lon="1.09126">
        <ele>611</ele>
        <time>2025-09-20T09:00:02.000Z</time>
      </trkpt>
      <trkpt lat="42.99213" lon="1.09124">
        <ele>611</ele>
        <time>2025-09-20T09:00:03.000Z</time>
      </trkpt>
      <trkpt lat="42.99213" lon="1.09122">
        <ele>612</ele>
        <time>2025-09-20T09:00:04.000Z</time>
      </trkpt>
      <trkpt lat="42.99213" lon="1.09121">
        <ele>613</ele>
        <time>2025-09-20T09:00:05.000Z</time>
      </trkpt>
      <trkpt lat="42.99213" lon="1.09119">
        <ele>614</ele>
        <time>2025-09-20T09:00:06.000Z</time>
      </trkpt>
      <trkpt lat="42.99213" lon="1.09116">
        <ele>615</ele>
        <time>2025-09-20T09:00:07.000Z</time>
      </trkpt>
      <trkpt lat="42.99214" lon="1.09114">
        <ele>616</ele>
        <time>2025-09-20T09:00:08.000Z</time>
      </trkpt>
      <trkpt lat="42.99214" lon="1.09111">
        <ele>616</ele>
        <time>2025-09-20T09:00:09.000Z</time>
      </trkpt>
      <trkpt lat="42.99214" lon="1.09108">
        <ele>617</ele>
        <time>2025-09-20T09:00:10.000Z</time>
      </trkpt>
      <trkpt lat="42.99213" lon="1.09105">
        <ele>618</ele>
        <time>2025-09-20T09:00:11.000Z</time>
      </trkpt>
      <trkpt lat="42.99213" lon="1.09101">
        <ele>618</ele>
        <time>2025-09-20T09:00:12.000Z</time>
      </trkpt>
      <trkpt lat="42.99212" lon="1.09099">
        <ele>619</ele>
        <time>2025-09-20T09:00:13.000Z</time>
      </trkpt>
      <trkpt lat="42.99212" lon="1.09096">
        <ele>620</ele>
        <time>2025-09-20T09:00:14.000Z</time>
      </trkpt>
      <trkpt lat="42.99211" lon="1.09094">
        <ele>621</ele>
        <time>2025-09-20T09:00:15.000Z</time>
      </trkpt>
      <trkpt lat="42.99211" lon="1.09091">
        <ele>622</ele>
        <time>2025-09-20T09:00:16.000Z</time>
      </trkpt>
      <trkpt lat="42.99212" lon="1.09089">
        <ele>623</ele>
        <time>2025-09-20T09:00:17.000Z</time>
      </trkpt>
      <trkpt lat="42.99212" lon="1.09087">
        <ele>623</ele>
        <time>2025-09-20T09:00:18.000Z</time>
      </trkpt>
      <trkpt lat="42.99212" lon="1.09084">
        <ele>623</ele>
        <time>2025-09-20T09:00:19.000Z</time>
      </trkpt>
      <trkpt lat="42.99212" lon="1.09082">
        <ele>624</ele>
        <time>2025-09-20T09:00:20.000Z</time>
      </trkpt>
      <trkpt lat="42.99212" lon="1.0908">
        <ele>624</ele>
        <time>2025-09-20T09:00:21.000Z</time>
      </trkpt>
      <trkpt lat="42.99212" lon="1.09078">
        <ele>625</ele>
        <time>2025-09-20T09:00:22.000Z</time>
      </trkpt>
      <trkpt lat="42.99212" lon="1.09077">
        <ele>625</ele>
        <time>2025-09-20T09:00:23.000Z</time>
      </trkpt>
      <trkpt lat="42.99212" lon="1.09074">
        <ele>624</ele>
        <time>2025-09-20T09:00:24.000Z</time>
      </trkpt>
      <trkpt lat="42.99211" lon="1.09071">
        <ele>624</ele>
        <time>2025-09-20T09:00:25.000Z</time>
      </trkpt>
      <trkpt lat="42.9921" lon="1.09069">
        <ele>624</ele>
        <time>2025-09-20T09:00:26.000Z</time>
      </trkpt>
      <trkpt lat="42.99209" lon="1.09069">
        <ele>625</ele>
        <time>2025-09-20T09:00:27.000Z</time>
      </trkpt>
      <trkpt lat="42.99207" lon="1.0907">
        <ele>625</ele>
        <time>2025-09-20T09:00:28.000Z</time>
      </trkpt>
      <trkpt lat="42.99206" lon="1.09072">
        <ele>626</ele>
        <time>2025-09-20T09:00:29.000Z</time>
      </trkpt>
      <trkpt lat="42.99205" lon="1.09075">
        <ele>626</ele>
        <time>2025-09-20T09:00:30.000Z</time>
      </trkpt>
      <trkpt lat="42.99205" lon="1.09077">
        <ele>626</ele>
        <time>2025-09-20T09:00:31.000Z</time>
      </trkpt>
      <trkpt lat="42.99204" lon="1.09079">
        <ele>626</ele>
        <time>2025-09-20T09:00:32.000Z</time>
      </trkpt>
      <trkpt lat="42.99203" lon="1.09082">
        <ele>626</ele>
        <time>2025-09-20T09:00:33.000Z</time>
      </trkpt>
      <trkpt lat="42.99202" lon="1.09084">
        <ele>626</ele>
        <time>2025-09-20T09:00:34.000Z</time>
      </trkpt>
      <trkpt lat="42.99202" lon="1.09086">
        <ele>627</ele>
        <time>2025-09-20T09:00:35.000Z</time>
      </trkpt>
      <trkpt lat="42.992" lon="1.09088">
        <ele>627</ele>
        <time>2025-09-20T09:00:36.000Z</time>
      </trkpt>
      <trkpt lat="42.99198" lon="1.0909">
        <ele>627</ele>
        <time>2025-09-20T09:00:37.000Z</time>
      </trkpt>
      <trkpt lat="42.99197" lon="1.09093">
        <ele>627</ele>
        <time>2025-09-20T09:00:38.000Z</time>
      </trkpt>
      <trkpt lat="42.99196" lon="1.09095">
        <ele>627</ele>
        <time>2025-09-20T09:00:39.000Z</time>
      </trkpt>
      <trkpt lat="42.99195" lon="1.09098">
        <ele>627</ele>
        <time>2025-09-20T09:00:40.000Z</time>
      </trkpt>
      <trkpt lat="42.99194" lon="1.091">
        <ele>627</ele>
        <time>2025-09-20T09:00:41.000Z</time>
      </trkpt>
      <trkpt lat="42.99193" lon="1.09102">
        <ele>627</ele>
        <time>2025-09-20T09:00:42.000Z</time>
      </trkpt>
      <trkpt lat="42.99192" lon="1.09104">
        <ele>628</ele>
        <time>2025-09-20T09:00:43.000Z</time>
      </trkpt>
      <trkpt lat="42.9919" lon="1.09106">
        <ele>628</ele>
        <time>2025-09-20T09:00:44.000Z</time>
      </trkpt>
      <trkpt lat="42.99188" lon="1.09107">
        <ele>629</ele>
        <time>2025-09-20T09:00:45.000Z</time>
      </trkpt>
      <trkpt lat="42.99187" lon="1.09109">
        <ele>630</ele>
        <time>2025-09-20T09:00:46.000Z</time>
      </trkpt>
      <trkpt lat="42.99185" lon="1.0911">
        <ele>631</ele>
        <time>2025-09-20T09:00:47.000Z</time>
      </trkpt>
      <trkpt lat="42.99184" lon="1.09113">
        <ele>631</ele>
        <time>2025-09-20T09:00:48.000Z</time>
      </trkpt>
      <trkpt lat="42.99183" lon="1.09115">
        <ele>631</ele>
        <time>2025-09-20T09:00:49.000Z</time>
      </trkpt>
      <trkpt lat="42.99182" lon="1.09116">
        <ele>631</ele>
        <time>2025-09-20T09:00:50.000Z</time>
      </trkpt>
      <trkpt lat="42.99179" lon="1.09117">
        <ele>632</ele>
        <time>2025-09-20T09:00:51.000Z</time>
      </trkpt>
      <trkpt lat="42.99177" lon="1.09117">
        <ele>632</ele>
        <time>2025-09-20T09:00:52.000Z</time>
      </trkpt>
      <trkpt lat="42.99175" lon="1.09119">
        <ele>632</ele>
        <time>2025-09-20T09:00:53.000Z</time>
      </trkpt>
      <trkpt lat="42.99174" lon="1.0912">
        <ele>633</ele>
        <time>2025-09-20T09:00:54.000Z</time>
      </trkpt>
      <trkpt lat="42.99172" lon="1.09122">
        <ele>633</ele>
        <time>2025-09-20T09:00:55.000Z</time>
      </trkpt>
      <trkpt lat="42.9917" lon="1.09124">
        <ele>633</ele>
        <time>2025-09-20T09:00:56.000Z</time>
      </trkpt>
      <trkpt lat="42.99168" lon="1.09124">
        <ele>633</ele>
        <time>2025-09-20T09:00:57.000Z</time>
      </trkpt>
      <trkpt lat="42.99167" lon="1.09126">
        <ele>633</ele>
        <time>2025-09-20T09:00:58.000Z</time>
      </trkpt>
      <trkpt lat="42.99166" lon="1.09127">
        <ele>633</ele>
        <time>2025-09-20T09:00:59.000Z</time>
      </trkpt>
      <trkpt lat="42.99164" lon="1.09128">
        <ele>634</ele>
        <time>2025-09-20T09:01:00.000Z</time>
      </trkpt>
      <trkpt lat="42.99162" lon="1.09129">
        <ele>634</ele>
        <time>2025-09-20T09:01:01.000Z</time>
      </trkpt>
      <trkpt lat="42.99161" lon="1.0913">
        <ele>634</ele>
        <time>2025-09-20T09:01:02.000Z</time>
      </trkpt>
      <trkpt lat="42.99159" lon="1.09131">
        <ele>634</ele>
        <time>2025-09-20T09:01:03.000Z</time>
      </trkpt>
      <trkpt lat="42.99157" lon="1.09132">
        <ele>634</ele>
        <time>2025-09-20T09:01:04.000Z</time>
      </trkpt>
      <trkpt lat="42.99155" lon="1.09133">
        <ele>634</ele>
        <time>2025-09-20T09:01:05.000Z</time>
      </trkpt>
      <trkpt lat="42.99153" lon="1.09133">
        <ele>635</ele>
        <time>2025-09-20T09:01:06.000Z</time>
      </trkpt>
      <trkpt lat="42.99152" lon="1.09133">
        <ele>635</ele>
        <time>2025-09-20T09:01:07.000Z</time>
      </trkpt>
      <trkpt lat="42.99151" lon="1.09134">
        <ele>635</ele>
        <time>2025-09-20T09:01:08.000Z</time>
      </trkpt>
      <trkpt lat="42.99149" lon="1.09135">
        <ele>635</ele>
        <time>2025-09-20T09:01:09.000Z</time>
      </trkpt>
      <trkpt lat="42.99147" lon="1.09134">
        <ele>635</ele>
        <time>2025-09-20T09:01:10.000Z</time>
      </trkpt>
      <trkpt lat="42.99146" lon="1.09133">
        <ele>636</ele>
        <time>2025-09-20T09:01:11.000Z</time>
      </trkpt>
      <trkpt lat="42.99145" lon="1.09131">
        <ele>636</ele>
        <time>2025-09-20T09:01:12.000Z</time>
      </trkpt>
      <trkpt lat="42.99144" lon="1.09129">
        <ele>637</ele>
        <time>2025-09-20T09:01:13.000Z</time>
      </trkpt>
      <trkpt lat="42.99144" lon="1.09127">
        <ele>637</ele>
        <time>2025-09-20T09:01:14.000Z</time>
      </trkpt>
      <trkpt lat="42.99145" lon="1.09125">
        <ele>637</ele>
        <time>2025-09-20T09:01:15.000Z</time>
      </trkpt>
      <trkpt lat="42.99145" lon="1.09122">
        <ele>637</ele>
        <time>2025-09-20T09:01:16.000Z</time>
      </trkpt>
      <trkpt lat="42.99146" lon="1.09119">
        <ele>637</ele>
        <time>2025-09-20T09:01:17.000Z</time>
      </trkpt>
      <trkpt lat="42.99147" lon="1.09116">
        <ele>637</ele>
        <time>2025-09-20T09:01:18.000Z</time>
      </trkpt>
      <trkpt lat="42.99148" lon="1.09114">
        <ele>637</ele>
        <time>2025-09-20T09:01:19.000Z</time>
      </trkpt>
      <trkpt lat="42.99148" lon="1.09111">
        <ele>637</ele>
        <time>2025-09-20T09:01:20.000Z</time>
      </trkpt>
      <trkpt lat="42.99149" lon="1.09109">
        <ele>637</ele>
        <time>2025-09-20T09:01:21.000Z</time>
      </trkpt>
      <trkpt lat="42.99149" lon="1.09106">
        <ele>637</ele>
        <time>2025-09-20T09:01:22.000Z</time>
      </trkpt>
      <trkpt lat="42.9915" lon="1.09104">
        <ele>638</ele>
        <time>2025-09-20T09:01:23.000Z</time>
      </trkpt>
      <trkpt lat="42.9915" lon="1.09102">
        <ele>638</ele>
        <time>2025-09-20T09:01:24.000Z</time>
      </trkpt>
      <trkpt lat="42.9915" lon="1.09099">
        <ele>639</ele>
        <time>2025-09-20T09:01:25.000Z</time>
      </trkpt>
      <trkpt lat="42.9915" lon="1.09096">
        <ele>639</ele>
        <time>2025-09-20T09:01:26.000Z</time>
      </trkpt>
      <trkpt lat="42.99151" lon="1.09094">
        <ele>640</ele>
        <time>2025-09-20T09:01:27.000Z</time>
      </trkpt>
      <trkpt lat="42.99151" lon="1.09091">
        <ele>640</ele>
        <time>2025-09-20T09:01:28.000Z</time>
      </trkpt>
      <trkpt lat="42.99151" lon="1.09089">
        <ele>641</ele>
        <time>2025-09-20T09:01:29.000Z</time>
      </trkpt>
      <trkpt lat="42.99152" lon="1.09086">
        <ele>641</ele>
        <time>2025-09-20T09:01:30.000Z</time>
      </trkpt>
      <trkpt lat="42.99152" lon="1.09084">
        <ele>641</ele>
        <time>2025-09-20T09:01:31.000Z</time>
      </trkpt>
      <trkpt lat="42.99153" lon="1.09082">
        <ele>642</ele>
        <time>2025-09-20T09:01:32.000Z</time>
      </trkpt>
      <trkpt lat="42.99153" lon="1.09079">
        <ele>642</ele>
        <time>2025-09-20T09:01:33.000Z</time>
      </trkpt>
      <trkpt lat="42.99152" lon="1.09076">
        <ele>641</ele>
        <time>2025-09-20T09:01:34.000Z</time>
      </trkpt>
      <trkpt lat="42.99153" lon="1.09074">
        <ele>642</ele>
        <time>2025-09-20T09:01:35.000Z</time>
      </trkpt>
      <trkpt lat="42.99153" lon="1.09072">
        <ele>642</ele>
        <time>2025-09-20T09:01:36.000Z</time>
      </trkpt>
      <trkpt lat="42.99154" lon="1.0907">
        <ele>641</ele>
        <time>2025-09-20T09:01:37.000Z</time>
      </trkpt>
      <trkpt lat="42.99155" lon="1.09067">
        <ele>641</ele>
        <time>2025-09-20T09:01:38.000Z</time>
      </trkpt>
      <trkpt lat="42.99155" lon="1.09064">
        <ele>641</ele>
        <time>2025-09-20T09:01:39.000Z</time>
      </trkpt>
      <trkpt lat="42.99156" lon="1.0906">
        <ele>641</ele>
        <time>2025-09-20T09:01:40.000Z</time>
      </trkpt>
      <trkpt lat="42.99156" lon="1.09057">
        <ele>641</ele>
        <time>2025-09-20T09:01:41.000Z</time>
      </trkpt>
      <trkpt lat="42.99156" lon="1.09053">
        <ele>642</ele>
        <time>2025-09-20T09:01:42.000Z</time>
      </trkpt>
      <trkpt lat="42.99156" lon="1.09049">
        <ele>642</ele>
        <time>2025-09-20T09:01:43.000Z</time>
      </trkpt>
      <trkpt lat="42.99157" lon="1.09044">
        <ele>643</ele>
        <time>2025-09-20T09:01:44.000Z</time>
      </trkpt>
      <trkpt lat="42.99156" lon="1.09039">
        <ele>643</ele>
        <time>2025-09-20T09:01:45.000Z</time>
      </trkpt>
      <trkpt lat="42.99157" lon="1.09035">
        <ele>642</ele>
        <time>2025-09-20T09:01:46.000Z</time>
      </trkpt>
      <trkpt lat="42.99157" lon="1.0903">
        <ele>643</ele>
        <time>2025-09-20T09:01:47.000Z</time>
      </trkpt>
      <trkpt lat="42.99156" lon="1.09026">
        <ele>643</ele>
        <time>2025-09-20T09:01:48.000Z</time>
      </trkpt>
      <trkpt lat="42.99156" lon="1.09021">
        <ele>644</ele>
        <time>2025-09-20T09:01:49.000Z</time>
      </trkpt>
      <trkpt lat="42.99156" lon="1.09017">
        <ele>644</ele>
        <time>2025-09-20T09:01:50.000Z</time>
      </trkpt>
      <trkpt lat="42.99156" lon="1.09013">
        <ele>645</ele>
        <time>2025-09-20T09:01:51.000Z</time>
      </trkpt>
      <trkpt lat="42.99156" lon="1.09008">
        <ele>645</ele>
        <time>2025-09-20T09:01:52.000Z</time>
      </trkpt>
      <trkpt lat="42.99155" lon="1.09004">
        <ele>645</ele>
        <time>2025-09-20T09:01:53.000Z</time>
      </trkpt>
      <trkpt lat="42.99154" lon="1.09">
        <ele>645</ele>
        <time>2025-09-20T09:01:54.000Z</time>
      </trkpt>
      <trkpt lat="42.99154" lon="1.08995">
        <ele>644</ele>
        <time>2025-09-20T09:01:55.000Z</time>
      </trkpt>
      <trkpt lat="42.99153" lon="1.08991">
        <ele>644</ele>
        <time>2025-09-20T09:01:56.000Z</time>
      </trkpt>
      <trkpt lat="42.99153" lon="1.08987">
        <ele>644</ele>
        <time>2025-09-20T09:01:57.000Z</time>
      </trkpt>
      <trkpt lat="42.99152" lon="1.08983">
        <ele>645</ele>
        <time>2025-09-20T09:01:58.000Z</time>
      </trkpt>
      <trkpt lat="42.99151" lon="1.08978">
        <ele>644</ele>
        <time>2025-09-20T09:01:59.000Z</time>
      </trkpt>
      <trkpt lat="42.9915" lon="1.08974">
        <ele>645</ele>
        <time>2025-09-20T09:02:00.000Z</time>
      </trkpt>
      <trkpt lat="42.99149" lon="1.08969">
        <ele>645</ele>
        <time>2025-09-20T09:02:01.000Z</time>
      </trkpt>
      <trkpt lat="42.99148" lon="1.08965">
        <ele>645</ele>
        <time>2025-09-20T09:02:02.000Z</time>
      </trkpt>
      <trkpt lat="42.99147" lon="1.0896">
        <ele>645</ele>
        <time>2025-09-20T09:02:03.000Z</time>
      </trkpt>
      <trkpt lat="42.99145" lon="1.08956">
        <ele>646</ele>
        <time>2025-09-20T09:02:04.000Z</time>
      </trkpt>
      <trkpt lat="42.99144" lon="1.08952">
        <ele>646</ele>
        <time>2025-09-20T09:02:05.000Z</time>
      </trkpt>
      <trkpt lat="42.99143" lon="1.08948">
        <ele>646</ele>
        <time>2025-09-20T09:02:06.000Z</time>
      </trkpt>
      <trkpt lat="42.99141" lon="1.08943">
        <ele>646</ele>
        <time>2025-09-20T09:02:07.000Z</time>
      </trkpt>
      <trkpt lat="42.99139" lon="1.08939">
        <ele>646</ele>
        <time>2025-09-20T09:02:08.000Z</time>
      </trkpt>
      <trkpt lat="42.99138" lon="1.08934">
        <ele>647</ele>
        <time>2025-09-20T09:02:09.000Z</time>
      </trkpt>
      <trkpt lat="42.99137" lon="1.0893">
        <ele>647</ele>
        <time>2025-09-20T09:02:10.000Z</time>
      </trkpt>
      <trkpt lat="42.99134" lon="1.08925">
        <ele>647</ele>
        <time>2025-09-20T09:02:11.000Z</time>
      </trkpt>
      <trkpt lat="42.99133" lon="1.08922">
        <ele>647</ele>
        <time>2025-09-20T09:02:12.000Z</time>
      </trkpt>
      <trkpt lat="42.99132" lon="1.08918">
        <ele>647</ele>
        <time>2025-09-20T09:02:13.000Z</time>
      </trkpt>
      <trkpt lat="42.9913" lon="1.08914">
        <ele>647</ele>
        <time>2025-09-20T09:02:14.000Z</time>
      </trkpt>
      <trkpt lat="42.99128" lon="1.0891">
        <ele>647</ele>
        <time>2025-09-20T09:02:15.000Z</time>
      </trkpt>
      <trkpt lat="42.99126" lon="1.08906">
        <ele>647</ele>
        <time>2025-09-20T09:02:16.000Z</time>
      </trkpt>
      <trkpt lat="42.99125" lon="1.08903">
        <ele>648</ele>
        <time>2025-09-20T09:02:17.000Z</time>
      </trkpt>
      <trkpt lat="42.99123" lon="1.089">
        <ele>648</ele>
        <time>2025-09-20T09:02:18.000Z</time>
      </trkpt>
      <trkpt lat="42.9912" lon="1.08897">
        <ele>648</ele>
        <time>2025-09-20T09:02:19.000Z</time>
      </trkpt>
      <trkpt lat="42.99119" lon="1.08893">
        <ele>648</ele>
        <time>2025-09-20T09:02:20.000Z</time>
      </trkpt>
      <trkpt lat="42.99117" lon="1.08889">
        <ele>647</ele>
        <time>2025-09-20T09:02:21.000Z</time>
      </trkpt>
      <trkpt lat="42.99115" lon="1.08885">
        <ele>647</ele>
        <time>2025-09-20T09:02:22.000Z</time>
      </trkpt>
      <trkpt lat="42.99114" lon="1.0888">
        <ele>647</ele>
        <time>2025-09-20T09:02:23.000Z</time>
      </trkpt>
      <trkpt lat="42.99111" lon="1.08875">
        <ele>649</ele>
        <time>2025-09-20T09:02:24.000Z</time>
      </trkpt>
      <trkpt lat="42.99109" lon="1.0887">
        <ele>649</ele>
        <time>2025-09-20T09:02:25.000Z</time>
      </trkpt>
      <trkpt lat="42.99107" lon="1.08866">
        <ele>649</ele>
        <time>2025-09-20T09:02:26.000Z</time>
      </trkpt>
      <trkpt lat="42.99105" lon="1.08861">
        <ele>649</ele>
        <time>2025-09-20T09:02:27.000Z</time>
      </trkpt>
      <trkpt lat="42.99102" lon="1.08855">
        <ele>648</ele>
        <time>2025-09-20T09:02:28.000Z</time>
      </trkpt>
      <trkpt lat="42.99099" lon="1.0885">
        <ele>647</ele>
        <time>2025-09-20T09:02:29.000Z</time>
      </trkpt>
      <trkpt lat="42.99096" lon="1.08844">
        <ele>646</ele>
        <time>2025-09-20T09:02:30.000Z</time>
      </trkpt>
      <trkpt lat="42.99094" lon="1.08839">
        <ele>646</ele>
        <time>2025-09-20T09:02:31.000Z</time>
      </trkpt>
      <trkpt lat="42.99092" lon="1.08835">
        <ele>646</ele>
        <time>2025-09-20T09:02:32.000Z</time>
      </trkpt>
      <trkpt lat="42.99089" lon="1.08831">
        <ele>646</ele>
        <time>2025-09-20T09:02:33.000Z</time>
      </trkpt>
      <trkpt lat="42.99087" lon="1.08827">
        <ele>646</ele>
        <time>2025-09-20T09:02:34.000Z</time>
      </trkpt>
      <trkpt lat="42.99085" lon="1.08824">
        <ele>646</ele>
        <time>2025-09-20T09:02:35.000Z</time>
      </trkpt>
      <trkpt lat="42.99083" lon="1.08822">
        <ele>645</ele>
        <time>2025-09-20T09:02:36.000Z</time>
      </trkpt>
      <trkpt lat="42.99081" lon="1.0882">
        <ele>645</ele>
        <time>2025-09-20T09:02:37.000Z</time>
      </trkpt>
      <trkpt lat="42.99078" lon="1.08817">
        <ele>645</ele>
        <time>2025-09-20T09:02:38.000Z</time>
      </trkpt>
      <trkpt lat="42.99076" lon="1.08813">
        <ele>645</ele>
        <time>2025-09-20T09:02:39.000Z</time>
      </trkpt>
      <trkpt lat="42.99074" lon="1.0881">
        <ele>645</ele>
        <time>2025-09-20T09:02:40.000Z</time>
      </trkpt>
      <trkpt lat="42.99071" lon="1.08806">
        <ele>645</ele>
        <time>2025-09-20T09:02:41.000Z</time>
      </trkpt>
      <trkpt lat="42.99069" lon="1.08802">
        <ele>644</ele>
        <time>2025-09-20T09:02:42.000Z</time>
      </trkpt>
      <trkpt lat="42.99066" lon="1.08798">
        <ele>645</ele>
        <time>2025-09-20T09:02:43.000Z</time>
      </trkpt>
      <trkpt lat="42.99064" lon="1.08794">
        <ele>645</ele>
        <time>2025-09-20T09:02:44.000Z</time>
      </trkpt>
      <trkpt lat="42.99062" lon="1.08791">
        <ele>645</ele>
        <time>2025-09-20T09:02:45.000Z</time>
      </trkpt>
      <trkpt lat="42.9906" lon="1.08786">
        <ele>645</ele>
        <time>2025-09-20T09:02:46.000Z</time>
      </trkpt>
      <trkpt lat="42.99058" lon="1.08783">
        <ele>646</ele>
        <time>2025-09-20T09:02:47.000Z</time>
      </trkpt>
      <trkpt lat="42.99056" lon="1.0878">
        <ele>646</ele>
        <time>2025-09-20T09:02:48.000Z</time>
      </trkpt>
      <trkpt lat="42.99053" lon="1.08776">
        <ele>646</ele>
        <time>2025-09-20T09:02:49.000Z</time>
      </trkpt>
      <trkpt lat="42.99051" lon="1.08773">
        <ele>646</ele>
        <time>2025-09-20T09:02:50.000Z</time>
      </trkpt>
      <trkpt lat="42.99049" lon="1.0877">
        <ele>646</ele>
        <time>2025-09-20T09:02:51.000Z</time>
      </trkpt>
      <trkpt lat="42.99047" lon="1.08767">
        <ele>646</ele>
        <time>2025-09-20T09:02:52.000Z</time>
      </trkpt>
      <trkpt lat="42.99044" lon="1.08764">
        <ele>647</ele>
        <time>2025-09-20T09:02:53.000Z</time>
      </trkpt>
      <trkpt lat="42.99042" lon="1.08761">
        <ele>647</ele>
        <time>2025-09-20T09:02:54.000Z</time>
      </trkpt>
      <trkpt lat="42.99038" lon="1.0876">
        <ele>647</ele>
        <time>2025-09-20T09:02:55.000Z</time>
      </trkpt>
      <trkpt lat="42.99035" lon="1.08758">
        <ele>648</ele>
        <time>2025-09-20T09:02:56.000Z</time>
      </trkpt>
      <trkpt lat="42.99032" lon="1.08757">
        <ele>648</ele>
        <time>2025-09-20T09:02:57.000Z</time>
      </trkpt>
      <trkpt lat="42.99029" lon="1.08757">
        <ele>648</ele>
        <time>2025-09-20T09:02:58.000Z</time>
      </trkpt>
      <trkpt lat="42.99025" lon="1.08757">
        <ele>648</ele>
        <time>2025-09-20T09:02:59.000Z</time>
      </trkpt>
      <trkpt lat="42.99022" lon="1.08757">
        <ele>648</ele>
        <time>2025-09-20T09:03:00.000Z</time>
      </trkpt>
      <trkpt lat="42.99019" lon="1.08757">
        <ele>648</ele>
        <time>2025-09-20T09:03:01.000Z</time>
      </trkpt>
      <trkpt lat="42.99015" lon="1.08758">
        <ele>648</ele>
        <time>2025-09-20T09:03:02.000Z</time>
      </trkpt>
      <trkpt lat="42.99012" lon="1.08758">
        <ele>649</ele>
        <time>2025-09-20T09:03:03.000Z</time>
      </trkpt>
      <trkpt lat="42.99009" lon="1.08758">
        <ele>649</ele>
        <time>2025-09-20T09:03:04.000Z</time>
      </trkpt>
      <trkpt lat="42.99007" lon="1.08759">
        <ele>649</ele>
        <time>2025-09-20T09:03:05.000Z</time>
      </trkpt>
      <trkpt lat="42.99004" lon="1.0876">
        <ele>650</ele>
        <time>2025-09-20T09:03:06.000Z</time>
      </trkpt>
      <trkpt lat="42.99002" lon="1.08762">
        <ele>650</ele>
        <time>2025-09-20T09:03:07.000Z</time>
      </trkpt>
      <trkpt lat="42.99" lon="1.08763">
        <ele>651</ele>
        <time>2025-09-20T09:03:08.000Z</time>
      </trkpt>
      <trkpt lat="42.98997" lon="1.08764">
        <ele>651</ele>
        <time>2025-09-20T09:03:09.000Z</time>
      </trkpt>
      <trkpt lat="42.98995" lon="1.08765">
        <ele>651</ele>
        <time>2025-09-20T09:03:10.000Z</time>
      </trkpt>
      <trkpt lat="42.98992" lon="1.08766">
        <ele>652</ele>
        <time>2025-09-20T09:03:11.000Z</time>
      </trkpt>
      <trkpt lat="42.9899" lon="1.08766">
        <ele>652</ele>
        <time>2025-09-20T09:03:12.000Z</time>
      </trkpt>
      <trkpt lat="42.98987" lon="1.08766">
        <ele>651</ele>
        <time>2025-09-20T09:03:13.000Z</time>
      </trkpt>
      <trkpt lat="42.98984" lon="1.08766">
        <ele>651</ele>
        <time>2025-09-20T09:03:14.000Z</time>
      </trkpt>
      <trkpt lat="42.98981" lon="1.08767">
        <ele>651</ele>
        <time>2025-09-20T09:03:15.000Z</time>
      </trkpt>
      <trkpt lat="42.98978" lon="1.08767">
        <ele>652</ele>
        <time>2025-09-20T09:03:16.000Z</time>
      </trkpt>
      <trkpt lat="42.98976" lon="1.08768">
        <ele>652</ele>
        <time>2025-09-20T09:03:17.000Z</time>
      </trkpt>
      <trkpt lat="42.98973" lon="1.08768">
        <ele>652</ele>
        <time>2025-09-20T09:03:18.000Z</time>
      </trkpt>
      <trkpt lat="42.9897" lon="1.08768">
        <ele>652</ele>
        <time>2025-09-20T09:03:19.000Z</time>
      </trkpt>
      <trkpt lat="42.98967" lon="1.08768">
        <ele>652</ele>
        <time>2025-09-20T09:03:20.000Z</time>
      </trkpt>
      <trkpt lat="42.98965" lon="1.08768">
        <ele>652</ele>
        <time>2025-09-20T09:03:21.000Z</time>
      </trkpt>
      <trkpt lat="42.98962" lon="1.08768">
        <ele>652</ele>
        <time>2025-09-20T09:03:22.000Z</time>
      </trkpt>
      <trkpt lat="42.98959" lon="1.08768">
        <ele>652</ele>
        <time>2025-09-20T09:03:23.000Z</time>
      </trkpt>
      <trkpt lat="42.98957" lon="1.08768">
        <ele>652</ele>
        <time>2025-09-20T09:03:24.000Z</time>
      </trkpt>
      <trkpt lat="42.98955" lon="1.08769">
        <ele>652</ele>
        <time>2025-09-20T09:03:25.000Z</time>
      </trkpt>
      <trkpt lat="42.98952" lon="1.0877">
        <ele>653</ele>
        <time>2025-09-20T09:03:26.000Z</time>
      </trkpt>
      <trkpt lat="42.98951" lon="1.0877">
        <ele>653</ele>
        <time>2025-09-20T09:03:27.000Z</time>
      </trkpt>
      <trkpt lat="42.98948" lon="1.08771">
        <ele>653</ele>
        <time>2025-09-20T09:03:28.000Z</time>
      </trkpt>
      <trkpt lat="42.98946" lon="1.08771">
        <ele>653</ele>
        <time>2025-09-20T09:03:29.000Z</time>
      </trkpt>
      <trkpt lat="42.98943" lon="1.08771">
        <ele>653</ele>
        <time>2025-09-20T09:03:30.000Z</time>
      </trkpt>
      <trkpt lat="42.98941" lon="1.08772">
        <ele>653</ele>
        <time>2025-09-20T09:03:31.000Z</time>
      </trkpt>
      <trkpt lat="42.98938" lon="1.08772">
        <ele>654</ele>
        <time>2025-09-20T09:03:32.000Z</time>
      </trkpt>
      <trkpt lat="42.98936" lon="1.08773">
        <ele>655</ele>
        <time>2025-09-20T09:03:33.000Z</time>
      </trkpt>
      <trkpt lat="42.98934" lon="1.08773">
        <ele>655</ele>
        <time>2025-09-20T09:03:34.000Z</time>
      </trkpt>
      <trkpt lat="42.98931" lon="1.08773">
        <ele>655</ele>
        <time>2025-09-20T09:03:35.000Z</time>
      </trkpt>
      <trkpt lat="42.98929" lon="1.08773">
        <ele>656</ele>
        <time>2025-09-20T09:03:36.000Z</time>
      </trkpt>
      <trkpt lat="42.98927" lon="1.08774">
        <ele>656</ele>
        <time>2025-09-20T09:03:37.000Z</time>
      </trkpt>
      <trkpt lat="42.98925" lon="1.08775">
        <ele>656</ele>
        <time>2025-09-20T09:03:38.000Z</time>
      </trkpt>
      <trkpt lat="42.98922" lon="1.08775">
        <ele>657</ele>
        <time>2025-09-20T09:03:39.000Z</time>
      </trkpt>
      <trkpt lat="42.9892" lon="1.08775">
        <ele>658</ele>
        <time>2025-09-20T09:03:40.000Z</time>
      </trkpt>
      <trkpt lat="42.98918" lon="1.08775">
        <ele>658</ele>
        <time>2025-09-20T09:03:41.000Z</time>
      </trkpt>
      <trkpt lat="42.98916" lon="1.08776">
        <ele>658</ele>
        <time>2025-09-20T09:03:42.000Z</time>
      </trkpt>
      <trkpt lat="42.98914" lon="1.08775">
        <ele>658</ele>
        <time>2025-09-20T09:03:43.000Z</time>
      </trkpt>
      <trkpt lat="42.98912" lon="1.08776">
        <ele>658</ele>
        <time>2025-09-20T09:03:44.000Z</time>
      </trkpt>
      <trkpt lat="42.9891" lon="1.08777">
        <ele>657</ele>
        <time>2025-09-20T09:03:45.000Z</time>
      </trkpt>
      <trkpt lat="42.98907" lon="1.08778">
        <ele>657</ele>
        <time>2025-09-20T09:03:46.000Z</time>
      </trkpt>
      <trkpt lat="42.98904" lon="1.08779">
        <ele>658</ele>
        <time>2025-09-20T09:03:47.000Z</time>
      </trkpt>
      <trkpt lat="42.98902" lon="1.08779">
        <ele>658</ele>
        <time>2025-09-20T09:03:48.000Z</time>
      </trkpt>
      <trkpt lat="42.98899" lon="1.0878">
        <ele>659</ele>
        <time>2025-09-20T09:03:49.000Z</time>
      </trkpt>
      <trkpt lat="42.98895" lon="1.08781">
        <ele>660</ele>
        <time>2025-09-20T09:03:50.000Z</time>
      </trkpt>
      <trkpt lat="42.98892" lon="1.08783">
        <ele>660</ele>
        <time>2025-09-20T09:03:51.000Z</time>
      </trkpt>
      <trkpt lat="42.98889" lon="1.08784">
        <ele>660</ele>
        <time>2025-09-20T09:03:52.000Z</time>
      </trkpt>
      <trkpt lat="42.98887" lon="1.08784">
        <ele>661</ele>
        <time>2025-09-20T09:03:53.000Z</time>
      </trkpt>
      <trkpt lat="42.98884" lon="1.08786">
        <ele>661</ele>
        <time>2025-09-20T09:03:54.000Z</time>
      </trkpt>
      <trkpt lat="42.98882" lon="1.08787">
        <ele>661</ele>
        <time>2025-09-20T09:03:55.000Z</time>
      </trkpt>
      <trkpt lat="42.9888" lon="1.08788">
        <ele>661</ele>
        <time>2025-09-20T09:03:56.000Z</time>
      </trkpt>
      <trkpt lat="42.98878" lon="1.08788">
        <ele>662</ele>
        <time>2025-09-20T09:03:57.000Z</time>
      </trkpt>
      <trkpt lat="42.98875" lon="1.0879">
        <ele>663</ele>
        <time>2025-09-20T09:03:58.000Z</time>
      </trkpt>
      <trkpt lat="42.98872" lon="1.0879">
        <ele>663</ele>
        <time>2025-09-20T09:03:59.000Z</time>
      </trkpt>
      <trkpt lat="42.9887" lon="1.08792">
        <ele>664</ele>
        <time>2025-09-20T09:04:00.000Z</time>
      </trkpt>
      <trkpt lat="42.98868" lon="1.08793">
        <ele>665</ele>
        <time>2025-09-20T09:04:01.000Z</time>
      </trkpt>
      <trkpt lat="42.98866" lon="1.08794">
        <ele>665</ele>
        <time>2025-09-20T09:04:02.000Z</time>
      </trkpt>
      <trkpt lat="42.98864" lon="1.08795">
        <ele>665</ele>
        <time>2025-09-20T09:04:03.000Z</time>
      </trkpt>
      <trkpt lat="42.98861" lon="1.08796">
        <ele>665</ele>
        <time>2025-09-20T09:04:04.000Z</time>
      </trkpt>
      <trkpt lat="42.98859" lon="1.08796">
        <ele>666</ele>
        <time>2025-09-20T09:04:05.000Z</time>
      </trkpt>
      <trkpt lat="42.98856" lon="1.08796">
        <ele>667</ele>
        <time>2025-09-20T09:04:06.000Z</time>
      </trkpt>
      <trkpt lat="42.98854" lon="1.08796">
        <ele>668</ele>
        <time>2025-09-20T09:04:07.000Z</time>
      </trkpt>
      <trkpt lat="42.98852" lon="1.08797">
        <ele>669</ele>
        <time>2025-09-20T09:04:08.000Z</time>
      </trkpt>
      <trkpt lat="42.9885" lon="1.08798">
        <ele>670</ele>
        <time>2025-09-20T09:04:09.000Z</time>
      </trkpt>
      <trkpt lat="42.98848" lon="1.08799">
        <ele>670</ele>
        <time>2025-09-20T09:04:10.000Z</time>
      </trkpt>
      <trkpt lat="42.98846" lon="1.08799">
        <ele>671</ele>
        <time>2025-09-20T09:04:11.000Z</time>
      </trkpt>
      <trkpt lat="42.98844" lon="1.088">
        <ele>671</ele>
        <time>2025-09-20T09:04:12.000Z</time>
      </trkpt>
      <trkpt lat="42.98842" lon="1.088">
        <ele>671</ele>
        <time>2025-09-20T09:04:13.000Z</time>
      </trkpt>
      <trkpt lat="42.9884" lon="1.08801">
        <ele>670</ele>
        <time>2025-09-20T09:04:14.000Z</time>
      </trkpt>
      <trkpt lat="42.98838" lon="1.08801">
        <ele>670</ele>
        <time>2025-09-20T09:04:15.000Z</time>
      </trkpt>
      <trkpt lat="42.98836" lon="1.08801">
        <ele>669</ele>
        <time>2025-09-20T09:04:16.000Z</time>
      </trkpt>
      <trkpt lat="42.98834" lon="1.08801">
        <ele>669</ele>
        <time>2025-09-20T09:04:17.000Z</time>
      </trkpt>
      <trkpt lat="42.98832" lon="1.08801">
        <ele>668</ele>
        <time>2025-09-20T09:04:18.000Z</time>
      </trkpt>
      <trkpt lat="42.9883" lon="1.08801">
        <ele>669</ele>
        <time>2025-09-20T09:04:19.000Z</time>
      </trkpt>
      <trkpt lat="42.98828" lon="1.08801">
        <ele>669</ele>
        <time>2025-09-20T09:04:20.000Z</time>
      </trkpt>
      <trkpt lat="42.98826" lon="1.08801">
        <ele>669</ele>
        <time>2025-09-20T09:04:21.000Z</time>
      </trkpt>
      <trkpt lat="42.98825" lon="1.088">
        <ele>670</ele>
        <time>2025-09-20T09:04:22.000Z</time>
      </trkpt>
      <trkpt lat="42.98823" lon="1.08799">
        <ele>670</ele>
        <time>2025-09-20T09:04:23.000Z</time>
      </trkpt>
      <trkpt lat="42.9882" lon="1.08798">
        <ele>671</ele>
        <time>2025-09-20T09:04:24.000Z</time>
      </trkpt>
      <trkpt lat="42.98818" lon="1.08798">
        <ele>671</ele>
        <time>2025-09-20T09:04:25.000Z</time>
      </trkpt>
      <trkpt lat="42.98816" lon="1.08798">
        <ele>672</ele>
        <time>2025-09-20T09:04:26.000Z</time>
      </trkpt>
      <trkpt lat="42.98814" lon="1.08797">
        <ele>673</ele>
        <time>2025-09-20T09:04:27.000Z</time>
      </trkpt>
      <trkpt lat="42.98811" lon="1.08796">
        <ele>674</ele>
        <time>2025-09-20T09:04:28.000Z</time>
      </trkpt>
      <trkpt lat="42.98809" lon="1.08795">
        <ele>674</ele>
        <time>2025-09-20T09:04:29.000Z</time>
      </trkpt>
      <trkpt lat="42.98807" lon="1.08795">
        <ele>675</ele>
        <time>2025-09-20T09:04:30.000Z</time>
      </trkpt>
      <trkpt lat="42.98805" lon="1.08794">
        <ele>675</ele>
        <time>2025-09-20T09:04:31.000Z</time>
      </trkpt>
      <trkpt lat="42.98803" lon="1.08793">
        <ele>675</ele>
        <time>2025-09-20T09:04:32.000Z</time>
      </trkpt>
      <trkpt lat="42.98801" lon="1.08792">
        <ele>675</ele>
        <time>2025-09-20T09:04:33.000Z</time>
      </trkpt>
      <trkpt lat="42.98799" lon="1.08792">
        <ele>675</ele>
        <time>2025-09-20T09:04:34.000Z</time>
      </trkpt>
      <trkpt lat="42.98797" lon="1.08792">
        <ele>676</ele>
        <time>2025-09-20T09:04:35.000Z</time>
      </trkpt>
      <trkpt lat="42.98794" lon="1.08793">
        <ele>676</ele>
        <time>2025-09-20T09:04:36.000Z</time>
      </trkpt>
      <trkpt lat="42.98792" lon="1.08793">
        <ele>676</ele>
        <time>2025-09-20T09:04:37.000Z</time>
      </trkpt>
      <trkpt lat="42.98789" lon="1.08793">
        <ele>676</ele>
        <time>2025-09-20T09:04:38.000Z</time>
      </trkpt>
      <trkpt lat="42.98787" lon="1.08793">
        <ele>677</ele>
        <time>2025-09-20T09:04:39.000Z</time>
      </trkpt>
      <trkpt lat="42.98785" lon="1.08794">
        <ele>677</ele>
        <time>2025-09-20T09:04:40.000Z</time>
      </trkpt>
      <trkpt lat="42.98784" lon="1.08795">
        <ele>677</ele>
        <time>2025-09-20T09:04:41.000Z</time>
      </trkpt>
      <trkpt lat="42.98782" lon="1.08795">
        <ele>677</ele>
        <time>2025-09-20T09:04:42.000Z</time>
      </trkpt>
      <trkpt lat="42.98779" lon="1.08796">
        <ele>678</ele>
        <time>2025-09-20T09:04:43.000Z</time>
      </trkpt>
      <trkpt lat="42.98777" lon="1.08797">
        <ele>678</ele>
        <time>2025-09-20T09:04:44.000Z</time>
      </trkpt>
      <trkpt lat="42.98775" lon="1.08798">
        <ele>678</ele>
        <time>2025-09-20T09:04:45.000Z</time>
      </trkpt>
      <trkpt lat="42.98772" lon="1.08799">
        <ele>679</ele>
        <time>2025-09-20T09:04:46.000Z</time>
      </trkpt>
      <trkpt lat="42.9877" lon="1.08801">
        <ele>680</ele>
        <time>2025-09-20T09:04:47.000Z</time>
      </trkpt>
      <trkpt lat="42.98769" lon="1.08802">
        <ele>680</ele>
        <time>2025-09-20T09:04:48.000Z</time>
      </trkpt>
      <trkpt lat="42.98766" lon="1.08802">
        <ele>681</ele>
        <time>2025-09-20T09:04:49.000Z</time>
      </trkpt>
      <trkpt lat="42.98763" lon="1.08802">
        <ele>680</ele>
        <time>2025-09-20T09:04:50.000Z</time>
      </trkpt>
      <trkpt lat="42.9876" lon="1.08801">
        <ele>681</ele>
        <time>2025-09-20T09:04:51.000Z</time>
      </trkpt>
      <trkpt lat="42.98758" lon="1.08801">
        <ele>681</ele>
        <time>2025-09-20T09:04:52.000Z</time>
      </trkpt>
      <trkpt lat="42.98756" lon="1.08802">
        <ele>682</ele>
        <time>2025-09-20T09:04:53.000Z</time>
      </trkpt>
      <trkpt lat="42.98753" lon="1.08801">
        <ele>682</ele>
        <time>2025-09-20T09:04:54.000Z</time>
      </trkpt>
      <trkpt lat="42.9875" lon="1.08801">
        <ele>683</ele>
        <time>2025-09-20T09:04:55.000Z</time>
      </trkpt>
      <trkpt lat="42.98747" lon="1.08801">
        <ele>683</ele>
        <time>2025-09-20T09:04:56.000Z</time>
      </trkpt>
      <trkpt lat="42.98744" lon="1.08801">
        <ele>684</ele>
        <time>2025-09-20T09:04:57.000Z</time>
      </trkpt>
      <trkpt lat="42.98741" lon="1.08801">
        <ele>684</ele>
        <time>2025-09-20T09:04:58.000Z</time>
      </trkpt>
      <trkpt lat="42.98738" lon="1.08801">
        <ele>684</ele>
        <time>2025-09-20T09:04:59.000Z</time>
      </trkpt>
      <trkpt lat="42.98735" lon="1.08801">
        <ele>685</ele>
        <time>2025-09-20T09:05:00.000Z</time>
      </trkpt>
      <trkpt lat="42.98732" lon="1.08801">
        <ele>685</ele>
        <time>2025-09-20T09:05:01.000Z</time>
      </trkpt>
      <trkpt lat="42.98729" lon="1.08801">
        <ele>685</ele>
        <time>2025-09-20T09:05:02.000Z</time>
      </trkpt>
      <trkpt lat="42.98727" lon="1.08801">
        <ele>686</ele>
        <time>2025-09-20T09:05:03.000Z</time>
      </trkpt>
      <trkpt lat="42.98724" lon="1.088">
        <ele>686</ele>
        <time>2025-09-20T09:05:04.000Z</time>
      </trkpt>
      <trkpt lat="42.98722" lon="1.088">
        <ele>686</ele>
        <time>2025-09-20T09:05:05.000Z</time>
      </trkpt>
      <trkpt lat="42.98719" lon="1.088">
        <ele>686</ele>
        <time>2025-09-20T09:05:06.000Z</time>
      </trkpt>
      <trkpt lat="42.98717" lon="1.08801">
        <ele>686</ele>
        <time>2025-09-20T09:05:07.000Z</time>
      </trkpt>
      <trkpt lat="42.98714" lon="1.08801">
        <ele>687</ele>
        <time>2025-09-20T09:05:08.000Z</time>
      </trkpt>
      <trkpt lat="42.98711" lon="1.08802">
        <ele>686</ele>
        <time>2025-09-20T09:05:09.000Z</time>
      </trkpt>
      <trkpt lat="42.98709" lon="1.08802">
        <ele>686</ele>
        <time>2025-09-20T09:05:10.000Z</time>
      </trkpt>
      <trkpt lat="42.98706" lon="1.08802">
        <ele>686</ele>
        <time>2025-09-20T09:05:11.000Z</time>
      </trkpt>
      <trkpt lat="42.98704" lon="1.08802">
        <ele>686</ele>
        <time>2025-09-20T09:05:12.000Z</time>
      </trkpt>
      <trkpt lat="42.98702" lon="1.08802">
        <ele>687</ele>
        <time>2025-09-20T09:05:13.000Z</time>
      </trkpt>
      <trkpt lat="42.98699" lon="1.08802">
        <ele>687</ele>
        <time>2025-09-20T09:05:14.000Z</time>
      </trkpt>
      <trkpt lat="42.98696" lon="1.08802">
        <ele>687</ele>
        <time>2025-09-20T09:05:15.000Z</time>
      </trkpt>
      <trkpt lat="42.98694" lon="1.08802">
        <ele>687</ele>
        <time>2025-09-20T09:05:16.000Z</time>
      </trkpt>
      <trkpt lat="42.98692" lon="1.08801">
        <ele>687</ele>
        <time>2025-09-20T09:05:17.000Z</time>
      </trkpt>
      <trkpt lat="42.9869" lon="1.08801">
        <ele>688</ele>
        <time>2025-09-20T09:05:18.000Z</time>
      </trkpt>
      <trkpt lat="42.98687" lon="1.088">
        <ele>688</ele>
        <time>2025-09-20T09:05:19.000Z</time>
      </trkpt>
      <trkpt lat="42.98685" lon="1.088">
        <ele>689</ele>
        <time>2025-09-20T09:05:20.000Z</time>
      </trkpt>
      <trkpt lat="42.98682" lon="1.088">
        <ele>688</ele>
        <time>2025-09-20T09:05:21.000Z</time>
      </trkpt>
      <trkpt lat="42.9868" lon="1.08799">
        <ele>689</ele>
        <time>2025-09-20T09:05:22.000Z</time>
      </trkpt>
      <trkpt lat="42.98678" lon="1.08799">
        <ele>689</ele>
        <time>2025-09-20T09:05:23.000Z</time>
      </trkpt>
      <trkpt lat="42.98676" lon="1.08799">
        <ele>689</ele>
        <time>2025-09-20T09:05:24.000Z</time>
      </trkpt>
      <trkpt lat="42.98673" lon="1.08798">
        <ele>690</ele>
        <time>2025-09-20T09:05:25.000Z</time>
      </trkpt>
      <trkpt lat="42.98671" lon="1.08798">
        <ele>690</ele>
        <time>2025-09-20T09:05:26.000Z</time>
      </trkpt>
      <trkpt lat="42.98669" lon="1.08798">
        <ele>690</ele>
        <time>2025-09-20T09:05:27.000Z</time>
      </trkpt>
      <trkpt lat="42.98667" lon="1.08798">
        <ele>690</ele>
        <time>2025-09-20T09:05:28.000Z</time>
      </trkpt>
      <trkpt lat="42.98665" lon="1.08798">
        <ele>690</ele>
        <time>2025-09-20T09:05:29.000Z</time>
      </trkpt>
      <trkpt lat="42.98663" lon="1.08798">
        <ele>691</ele>
        <time>2025-09-20T09:05:30.000Z</time>
      </trkpt>
      <trkpt lat="42.9866" lon="1.08797">
        <ele>691</ele>
        <time>2025-09-20T09:05:31.000Z</time>
      </trkpt>
      <trkpt lat="42.98658" lon="1.08797">
        <ele>690</ele>
        <time>2025-09-20T09:05:32.000Z</time>
      </trkpt>
      <trkpt lat="42.98656" lon="1.08797">
        <ele>691</ele>
        <time>2025-09-20T09:05:33.000Z</time>
      </trkpt>
      <trkpt lat="42.98654" lon="1.08796">
        <ele>691</ele>
        <time>2025-09-20T09:05:34.000Z</time>
      </trkpt>
      <trkpt lat="42.98652" lon="1.08796">
        <ele>691</ele>
        <time>2025-09-20T09:05:35.000Z</time>
      </trkpt>
      <trkpt lat="42.98649" lon="1.08796">
        <ele>692</ele>
        <time>2025-09-20T09:05:36.000Z</time>
      </trkpt>
      <trkpt lat="42.98647" lon="1.08796">
        <ele>692</ele>
        <time>2025-09-20T09:05:37.000Z</time>
      </trkpt>
      <trkpt lat="42.98645" lon="1.08795">
        <ele>693</ele>
        <time>2025-09-20T09:05:38.000Z</time>
      </trkpt>
      <trkpt lat="42.98643" lon="1.08794">
        <ele>693</ele>
        <time>2025-09-20T09:05:39.000Z</time>
      </trkpt>
      <trkpt lat="42.98641" lon="1.08793">
        <ele>693</ele>
        <time>2025-09-20T09:05:40.000Z</time>
      </trkpt>
      <trkpt lat="42.98639" lon="1.08793">
        <ele>692</ele>
        <time>2025-09-20T09:05:41.000Z</time>
      </trkpt>
      <trkpt lat="42.98636" lon="1.08792">
        <ele>692</ele>
        <time>2025-09-20T09:05:42.000Z</time>
      </trkpt>
      <trkpt lat="42.98634" lon="1.08792">
        <ele>692</ele>
        <time>2025-09-20T09:05:43.000Z</time>
      </trkpt>
      <trkpt lat="42.98632" lon="1.08791">
        <ele>693</ele>
        <time>2025-09-20T09:05:44.000Z</time>
      </trkpt>
      <trkpt lat="42.9863" lon="1.0879">
        <ele>693</ele>
        <time>2025-09-20T09:05:45.000Z</time>
      </trkpt>
      <trkpt lat="42.98628" lon="1.08789">
        <ele>693</ele>
        <time>2025-09-20T09:05:46.000Z</time>
      </trkpt>
      <trkpt lat="42.98626" lon="1.08788">
        <ele>694</ele>
        <time>2025-09-20T09:05:47.000Z</time>
      </trkpt>
      <trkpt lat="42.98625" lon="1.08787">
        <ele>694</ele>
        <time>2025-09-20T09:05:48.000Z</time>
      </trkpt>
      <trkpt lat="42.98622" lon="1.08785">
        <ele>695</ele>
        <time>2025-09-20T09:05:49.000Z</time>
      </trkpt>
      <trkpt lat="42.9862" lon="1.08784">
        <ele>695</ele>
        <time>2025-09-20T09:05:50.000Z</time>
      </trkpt>
      <trkpt lat="42.98618" lon="1.08782">
        <ele>696</ele>
        <time>2025-09-20T09:05:51.000Z</time>
      </trkpt>
      <trkpt lat="42.98615" lon="1.0878">
        <ele>696</ele>
        <time>2025-09-20T09:05:52.000Z</time>
      </trkpt>
      <trkpt lat="42.98612" lon="1.08778">
        <ele>696</ele>
        <time>2025-09-20T09:05:53.000Z</time>
      </trkpt>
      <trkpt lat="42.9861" lon="1.08776">
        <ele>696</ele>
        <time>2025-09-20T09:05:54.000Z</time>
      </trkpt>
      <trkpt lat="42.98607" lon="1.08774">
        <ele>697</ele>
        <time>2025-09-20T09:05:55.000Z</time>
      </trkpt>
      <trkpt lat="42.98605" lon="1.08773">
        <ele>697</ele>
        <time>2025-09-20T09:05:56.000Z</time>
      </trkpt>
      <trkpt lat="42.98602" lon="1.08771">
        <ele>698</ele>
        <time>2025-09-20T09:05:57.000Z</time>
      </trkpt>
      <trkpt lat="42.986" lon="1.08769">
        <ele>697</ele>
        <time>2025-09-20T09:05:58.000Z</time>
      </trkpt>
      <trkpt lat="42.98597" lon="1.08767">
        <ele>697</ele>
        <time>2025-09-20T09:05:59.000Z</time>
      </trkpt>
      <trkpt lat="42.98594" lon="1.08766">
        <ele>697</ele>
        <time>2025-09-20T09:06:00.000Z</time>
      </trkpt>
      <trkpt lat="42.98591" lon="1.08765">
        <ele>697</ele>
        <time>2025-09-20T09:06:01.000Z</time>
      </trkpt>
      <trkpt lat="42.98589" lon="1.08763">
        <ele>697</ele>
        <time>2025-09-20T09:06:02.000Z</time>
      </trkpt>
      <trkpt lat="42.98586" lon="1.08761">
        <ele>697</ele>
        <time>2025-09-20T09:06:03.000Z</time>
      </trkpt>
      <trkpt lat="42.98584" lon="1.08759">
        <ele>697</ele>
        <time>2025-09-20T09:06:04.000Z</time>
      </trkpt>
      <trkpt lat="42.98581" lon="1.08759">
        <ele>697</ele>
        <time>2025-09-20T09:06:05.000Z</time>
      </trkpt>
      <trkpt lat="42.98577" lon="1.08757">
        <ele>698</ele>
        <time>2025-09-20T09:06:06.000Z</time>
      </trkpt>
      <trkpt lat="42.98575" lon="1.08756">
        <ele>698</ele>
        <time>2025-09-20T09:06:07.000Z</time>
      </trkpt>
      <trkpt lat="42.98572" lon="1.08754">
        <ele>698</ele>
        <time>2025-09-20T09:06:08.000Z</time>
      </trkpt>
      <trkpt lat="42.98569" lon="1.08753">
        <ele>697</ele>
        <time>2025-09-20T09:06:09.000Z</time>
      </trkpt>
      <trkpt lat="42.98567" lon="1.08752">
        <ele>697</ele>
        <time>2025-09-20T09:06:10.000Z</time>
      </trkpt>
      <trkpt lat="42.98564" lon="1.08749">
        <ele>697</ele>
        <time>2025-09-20T09:06:11.000Z</time>
      </trkpt>
      <trkpt lat="42.98561" lon="1.08748">
        <ele>698</ele>
        <time>2025-09-20T09:06:12.000Z</time>
      </trkpt>
      <trkpt lat="42.98558" lon="1.08746">
        <ele>698</ele>
        <time>2025-09-20T09:06:13.000Z</time>
      </trkpt>
      <trkpt lat="42.98555" lon="1.08746">
        <ele>698</ele>
        <time>2025-09-20T09:06:14.000Z</time>
      </trkpt>
      <trkpt lat="42.98553" lon="1.08744">
        <ele>698</ele>
        <time>2025-09-20T09:06:15.000Z</time>
      </trkpt>
      <trkpt lat="42.9855" lon="1.08743">
        <ele>699</ele>
        <time>2025-09-20T09:06:16.000Z</time>
      </trkpt>
      <trkpt lat="42.98548" lon="1.08741">
        <ele>698</ele>
        <time>2025-09-20T09:06:17.000Z</time>
      </trkpt>
      <trkpt lat="42.98545" lon="1.0874">
        <ele>699</ele>
        <time>2025-09-20T09:06:18.000Z</time>
      </trkpt>
      <trkpt lat="42.98542" lon="1.08737">
        <ele>699</ele>
        <time>2025-09-20T09:06:19.000Z</time>
      </trkpt>
      <trkpt lat="42.98539" lon="1.08736">
        <ele>699</ele>
        <time>2025-09-20T09:06:20.000Z</time>
      </trkpt>
      <trkpt lat="42.98537" lon="1.08735">
        <ele>698</ele>
        <time>2025-09-20T09:06:21.000Z</time>
      </trkpt>
      <trkpt lat="42.98534" lon="1.08734">
        <ele>698</ele>
        <time>2025-09-20T09:06:22.000Z</time>
      </trkpt>
      <trkpt lat="42.98531" lon="1.08733">
        <ele>698</ele>
        <time>2025-09-20T09:06:23.000Z</time>
      </trkpt>
      <trkpt lat="42.98529" lon="1.08733">
        <ele>698</ele>
        <time>2025-09-20T09:06:24.000Z</time>
      </trkpt>
      <trkpt lat="42.98526" lon="1.08732">
        <ele>699</ele>
        <time>2025-09-20T09:06:25.000Z</time>
      </trkpt>
      <trkpt lat="42.98523" lon="1.08732">
        <ele>699</ele>
        <time>2025-09-20T09:06:26.000Z</time>
      </trkpt>
      <trkpt lat="42.9852" lon="1.08733">
        <ele>699</ele>
        <time>2025-09-20T09:06:27.000Z</time>
      </trkpt>
      <trkpt lat="42.98518" lon="1.08734">
        <ele>699</ele>
        <time>2025-09-20T09:06:28.000Z</time>
      </trkpt>
      <trkpt lat="42.98515" lon="1.08735">
        <ele>699</ele>
        <time>2025-09-20T09:06:29.000Z</time>
      </trkpt>
      <trkpt lat="42.98513" lon="1.08737">
        <ele>699</ele>
        <time>2025-09-20T09:06:30.000Z</time>
      </trkpt>
      <trkpt lat="42.98511" lon="1.08739">
        <ele>699</ele>
        <time>2025-09-20T09:06:31.000Z</time>
      </trkpt>
      <trkpt lat="42.98509" lon="1.0874">
        <ele>699</ele>
        <time>2025-09-20T09:06:32.000Z</time>
      </trkpt>
      <trkpt lat="42.98507" lon="1.08742">
        <ele>699</ele>
        <time>2025-09-20T09:06:33.000Z</time>
      </trkpt>
      <trkpt lat="42.98504" lon="1.08744">
        <ele>699</ele>
        <time>2025-09-20T09:06:34.000Z</time>
      </trkpt>
      <trkpt lat="42.98503" lon="1.08746">
        <ele>700</ele>
        <time>2025-09-20T09:06:35.000Z</time>
      </trkpt>
      <trkpt lat="42.98501" lon="1.0875">
        <ele>700</ele>
        <time>2025-09-20T09:06:36.000Z</time>
      </trkpt>
      <trkpt lat="42.98499" lon="1.08752">
        <ele>700</ele>
        <time>2025-09-20T09:06:37.000Z</time>
      </trkpt>
      <trkpt lat="42.98497" lon="1.08755">
        <ele>700</ele>
        <time>2025-09-20T09:06:38.000Z</time>
      </trkpt>
      <trkpt lat="42.98495" lon="1.08759">
        <ele>700</ele>
        <time>2025-09-20T09:06:39.000Z</time>
      </trkpt>
      <trkpt lat="42.98493" lon="1.08762">
        <ele>700</ele>
        <time>2025-09-20T09:06:40.000Z</time>
      </trkpt>
      <trkpt lat="42.98492" lon="1.08765">
        <ele>700</ele>
        <time>2025-09-20T09:06:41.000Z</time>
      </trkpt>
      <trkpt lat="42.9849" lon="1.08767">
        <ele>701</ele>
        <time>2025-09-20T09:06:42.000Z</time>
      </trkpt>
      <trkpt lat="42.98488" lon="1.0877">
        <ele>701</ele>
        <time>2025-09-20T09:06:43.000Z</time>
      </trkpt>
      <trkpt lat="42.98487" lon="1.08771">
        <ele>701</ele>
        <time>2025-09-20T09:06:44.000Z</time>
      </trkpt>
      <trkpt lat="42.98486" lon="1.08774">
        <ele>701</ele>
        <time>2025-09-20T09:06:45.000Z</time>
      </trkpt>
      <trkpt lat="42.98484" lon="1.08776">
        <ele>701</ele>
        <time>2025-09-20T09:06:46.000Z</time>
      </trkpt>
      <trkpt lat="42.98483" lon="1.08779">
        <ele>701</ele>
        <time>2025-09-20T09:06:47.000Z</time>
      </trkpt>
      <trkpt lat="42.98482" lon="1.08781">
        <ele>701</ele>
        <time>2025-09-20T09:06:48.000Z</time>
      </trkpt>
      <trkpt lat="42.98481" lon="1.08784">
        <ele>701</ele>
        <time>2025-09-20T09:06:49.000Z</time>
      </trkpt>
      <trkpt lat="42.9848" lon="1.08787">
        <ele>700</ele>
        <time>2025-09-20T09:06:50.000Z</time>
      </trkpt>
      <trkpt lat="42.98479" lon="1.08789">
        <ele>701</ele>
        <time>2025-09-20T09:06:51.000Z</time>
      </trkpt>
      <trkpt lat="42.98478" lon="1.08792">
        <ele>701</ele>
        <time>2025-09-20T09:06:52.000Z</time>
      </trkpt>
      <trkpt lat="42.98476" lon="1.08795">
        <ele>701</ele>
        <time>2025-09-20T09:06:53.000Z</time>
      </trkpt>
      <trkpt lat="42.98475" lon="1.08798">
        <ele>701</ele>
        <time>2025-09-20T09:06:54.000Z</time>
      </trkpt>
      <trkpt lat="42.98473" lon="1.08802">
        <ele>701</ele>
        <time>2025-09-20T09:06:55.000Z</time>
      </trkpt>
      <trkpt lat="42.98472" lon="1.08805">
        <ele>701</ele>
        <time>2025-09-20T09:06:56.000Z</time>
      </trkpt>
      <trkpt lat="42.98471" lon="1.08808">
        <ele>701</ele>
        <time>2025-09-20T09:06:57.000Z</time>
      </trkpt>
      <trkpt lat="42.98469" lon="1.08811">
        <ele>701</ele>
        <time>2025-09-20T09:06:58.000Z</time>
      </trkpt>
      <trkpt lat="42.98468" lon="1.08813">
        <ele>701</ele>
        <time>2025-09-20T09:06:59.000Z</time>
      </trkpt>
      <trkpt lat="42.98466" lon="1.08816">
        <ele>702</ele>
        <time>2025-09-20T09:07:00.000Z</time>
      </trkpt>
      <trkpt lat="42.98465" lon="1.08819">
        <ele>702</ele>
        <time>2025-09-20T09:07:01.000Z</time>
      </trkpt>
      <trkpt lat="42.98463" lon="1.08822">
        <ele>703</ele>
        <time>2025-09-20T09:07:02.000Z</time>
      </trkpt>
      <trkpt lat="42.98462" lon="1.08824">
        <ele>702</ele>
        <time>2025-09-20T09:07:03.000Z</time>
      </trkpt>
      <trkpt lat="42.9846" lon="1.08827">
        <ele>702</ele>
        <time>2025-09-20T09:07:04.000Z</time>
      </trkpt>
      <trkpt lat="42.98459" lon="1.08829">
        <ele>703</ele>
        <time>2025-09-20T09:07:05.000Z</time>
      </trkpt>
      <trkpt lat="42.98457" lon="1.08833">
        <ele>703</ele>
        <time>2025-09-20T09:07:06.000Z</time>
      </trkpt>
      <trkpt lat="42.98455" lon="1.08835">
        <ele>703</ele>
        <time>2025-09-20T09:07:07.000Z</time>
      </trkpt>
      <trkpt lat="42.98453" lon="1.08837">
        <ele>703</ele>
        <time>2025-09-20T09:07:08.000Z</time>
      </trkpt>
      <trkpt lat="42.98452" lon="1.0884">
        <ele>704</ele>
        <time>2025-09-20T09:07:09.000Z</time>
      </trkpt>
      <trkpt lat="42.9845" lon="1.08843">
        <ele>704</ele>
        <time>2025-09-20T09:07:10.000Z</time>
      </trkpt>
      <trkpt lat="42.98448" lon="1.08846">
        <ele>703</ele>
        <time>2025-09-20T09:07:11.000Z</time>
      </trkpt>
      <trkpt lat="42.98446" lon="1.08848">
        <ele>704</ele>
        <time>2025-09-20T09:07:12.000Z</time>
      </trkpt>
      <trkpt lat="42.98445" lon="1.08851">
        <ele>704</ele>
        <time>2025-09-20T09:07:13.000Z</time>
      </trkpt>
      <trkpt lat="42.98443" lon="1.08853">
        <ele>704</ele>
        <time>2025-09-20T09:07:14.000Z</time>
      </trkpt>
      <trkpt lat="42.9844" lon="1.08856">
        <ele>704</ele>
        <time>2025-09-20T09:07:15.000Z</time>
      </trkpt>
      <trkpt lat="42.98438" lon="1.08857">
        <ele>704</ele>
        <time>2025-09-20T09:07:16.000Z</time>
      </trkpt>
      <trkpt lat="42.98436" lon="1.08861">
        <ele>704</ele>
        <time>2025-09-20T09:07:17.000Z</time>
      </trkpt>
      <trkpt lat="42.98434" lon="1.08864">
        <ele>704</ele>
        <time>2025-09-20T09:07:18.000Z</time>
      </trkpt>
      <trkpt lat="42.98432" lon="1.08867">
        <ele>704</ele>
        <time>2025-09-20T09:07:19.000Z</time>
      </trkpt>
      <trkpt lat="42.9843" lon="1.08871">
        <ele>704</ele>
        <time>2025-09-20T09:07:20.000Z</time>
      </trkpt>
      <trkpt lat="42.98428" lon="1.08874">
        <ele>704</ele>
        <time>2025-09-20T09:07:21.000Z</time>
      </trkpt>
      <trkpt lat="42.98426" lon="1.08876">
        <ele>704</ele>
        <time>2025-09-20T09:07:22.000Z</time>
      </trkpt>
      <trkpt lat="42.98424" lon="1.08878">
        <ele>704</ele>
        <time>2025-09-20T09:07:23.000Z</time>
      </trkpt>
      <trkpt lat="42.98422" lon="1.08881">
        <ele>704</ele>
        <time>2025-09-20T09:07:24.000Z</time>
      </trkpt>
      <trkpt lat="42.9842" lon="1.08884">
        <ele>704</ele>
        <time>2025-09-20T09:07:25.000Z</time>
      </trkpt>
      <trkpt lat="42.98417" lon="1.08886">
        <ele>703</ele>
        <time>2025-09-20T09:07:26.000Z</time>
      </trkpt>
      <trkpt lat="42.98415" lon="1.08888">
        <ele>703</ele>
        <time>2025-09-20T09:07:27.000Z</time>
      </trkpt>
      <trkpt lat="42.98413" lon="1.0889">
        <ele>703</ele>
        <time>2025-09-20T09:07:28.000Z</time>
      </trkpt>
      <trkpt lat="42.9841" lon="1.08892">
        <ele>703</ele>
        <time>2025-09-20T09:07:29.000Z</time>
      </trkpt>
      <trkpt lat="42.98406" lon="1.08892">
        <ele>703</ele>
        <time>2025-09-20T09:07:30.000Z</time>
      </trkpt>
      <trkpt lat="42.98403" lon="1.08892">
        <ele>702</ele>
        <time>2025-09-20T09:07:31.000Z</time>
      </trkpt>
      <trkpt lat="42.984" lon="1.08891">
        <ele>703</ele>
        <time>2025-09-20T09:07:32.000Z</time>
      </trkpt>
      <trkpt lat="42.98397" lon="1.0889">
        <ele>703</ele>
        <time>2025-09-20T09:07:33.000Z</time>
      </trkpt>
      <trkpt lat="42.98394" lon="1.08887">
        <ele>703</ele>
        <time>2025-09-20T09:07:34.000Z</time>
      </trkpt>
      <trkpt lat="42.98392" lon="1.08885">
        <ele>703</ele>
        <time>2025-09-20T09:07:35.000Z</time>
      </trkpt>
      <trkpt lat="42.98389" lon="1.08882">
        <ele>703</ele>
        <time>2025-09-20T09:07:36.000Z</time>
      </trkpt>
      <trkpt lat="42.98387" lon="1.0888">
        <ele>703</ele>
        <time>2025-09-20T09:07:37.000Z</time>
      </trkpt>
      <trkpt lat="42.98385" lon="1.08879">
        <ele>703</ele>
        <time>2025-09-20T09:07:38.000Z</time>
      </trkpt>
      <trkpt lat="42.98383" lon="1.08878">
        <ele>703</ele>
        <time>2025-09-20T09:07:39.000Z</time>
      </trkpt>
      <trkpt lat="42.98381" lon="1.08875">
        <ele>702</ele>
        <time>2025-09-20T09:07:40.000Z</time>
      </trkpt>
      <trkpt lat="42.9838" lon="1.08873">
        <ele>702</ele>
        <time>2025-09-20T09:07:41.000Z</time>
      </trkpt>
      <trkpt lat="42.98379" lon="1.0887">
        <ele>702</ele>
        <time>2025-09-20T09:07:42.000Z</time>
      </trkpt>
      <trkpt lat="42.98378" lon="1.08866">
        <ele>702</ele>
        <time>2025-09-20T09:07:43.000Z</time>
      </trkpt>
      <trkpt lat="42.98376" lon="1.08862">
        <ele>702</ele>
        <time>2025-09-20T09:07:44.000Z</time>
      </trkpt>
      <trkpt lat="42.98374" lon="1.08859">
        <ele>702</ele>
        <time>2025-09-20T09:07:45.000Z</time>
      </trkpt>
      <trkpt lat="42.98372" lon="1.08857">
        <ele>702</ele>
        <time>2025-09-20T09:07:46.000Z</time>
      </trkpt>
      <trkpt lat="42.9837" lon="1.08854">
        <ele>703</ele>
        <time>2025-09-20T09:07:47.000Z</time>
      </trkpt>
      <trkpt lat="42.98367" lon="1.08852">
        <ele>703</ele>
        <time>2025-09-20T09:07:48.000Z</time>
      </trkpt>
      <trkpt lat="42.98366" lon="1.0885">
        <ele>703</ele>
        <time>2025-09-20T09:07:49.000Z</time>
      </trkpt>
      <trkpt lat="42.98363" lon="1.08848">
        <ele>703</ele>
        <time>2025-09-20T09:07:50.000Z</time>
      </trkpt>
      <trkpt lat="42.98361" lon="1.08846">
        <ele>703</ele>
        <time>2025-09-20T09:07:51.000Z</time>
      </trkpt>
      <trkpt lat="42.98359" lon="1.08844">
        <ele>703</ele>
        <time>2025-09-20T09:07:52.000Z</time>
      </trkpt>
      <trkpt lat="42.98357" lon="1.08841">
        <ele>703</ele>
        <time>2025-09-20T09:07:53.000Z</time>
      </trkpt>
      <trkpt lat="42.98355" lon="1.08838">
        <ele>703</ele>
        <time>2025-09-20T09:07:54.000Z</time>
      </trkpt>
      <trkpt lat="42.98353" lon="1.08836">
        <ele>703</ele>
        <time>2025-09-20T09:07:55.000Z</time>
      </trkpt>
      <trkpt lat="42.98351" lon="1.08835">
        <ele>703</ele>
        <time>2025-09-20T09:07:56.000Z</time>
      </trkpt>
      <trkpt lat="42.98349" lon="1.08832">
        <ele>703</ele>
        <time>2025-09-20T09:07:57.000Z</time>
      </trkpt>
      <trkpt lat="42.98347" lon="1.08829">
        <ele>703</ele>
        <time>2025-09-20T09:07:58.000Z</time>
      </trkpt>
      <trkpt lat="42.98345" lon="1.08827">
        <ele>703</ele>
        <time>2025-09-20T09:07:59.000Z</time>
      </trkpt>
      <trkpt lat="42.98343" lon="1.08824">
        <ele>703</ele>
        <time>2025-09-20T09:08:00.000Z</time>
      </trkpt>
      <trkpt lat="42.98341" lon="1.08822">
        <ele>703</ele>
        <time>2025-09-20T09:08:01.000Z</time>
      </trkpt>
      <trkpt lat="42.98339" lon="1.0882">
        <ele>703</ele>
        <time>2025-09-20T09:08:02.000Z</time>
      </trkpt>
      <trkpt lat="42.98337" lon="1.08818">
        <ele>703</ele>
        <time>2025-09-20T09:08:03.000Z</time>
      </trkpt>
      <trkpt lat="42.98335" lon="1.08815">
        <ele>703</ele>
        <time>2025-09-20T09:08:04.000Z</time>
      </trkpt>
      <trkpt lat="42.98333" lon="1.08812">
        <ele>704</ele>
        <time>2025-09-20T09:08:05.000Z</time>
      </trkpt>
      <trkpt lat="42.98331" lon="1.08808">
        <ele>704</ele>
        <time>2025-09-20T09:08:06.000Z</time>
      </trkpt>
      <trkpt lat="42.98329" lon="1.08805">
        <ele>704</ele>
        <time>2025-09-20T09:08:07.000Z</time>
      </trkpt>
      <trkpt lat="42.98328" lon="1.08802">
        <ele>704</ele>
        <time>2025-09-20T09:08:08.000Z</time>
      </trkpt>
      <trkpt lat="42.98326" lon="1.08799">
        <ele>704</ele>
        <time>2025-09-20T09:08:09.000Z</time>
      </trkpt>
      <trkpt lat="42.98324" lon="1.08796">
        <ele>704</ele>
        <time>2025-09-20T09:08:10.000Z</time>
      </trkpt>
      <trkpt lat="42.98323" lon="1.08793">
        <ele>704</ele>
        <time>2025-09-20T09:08:11.000Z</time>
      </trkpt>
      <trkpt lat="42.98321" lon="1.0879">
        <ele>704</ele>
        <time>2025-09-20T09:08:12.000Z</time>
      </trkpt>
      <trkpt lat="42.9832" lon="1.08788">
        <ele>704</ele>
        <time>2025-09-20T09:08:13.000Z</time>
      </trkpt>
      <trkpt lat="42.98319" lon="1.08785">
        <ele>705</ele>
        <time>2025-09-20T09:08:14.000Z</time>
      </trkpt>
      <trkpt lat="42.98318" lon="1.08783">
        <ele>705</ele>
        <time>2025-09-20T09:08:15.000Z</time>
      </trkpt>
      <trkpt lat="42.98317" lon="1.0878">
        <ele>705</ele>
        <time>2025-09-20T09:08:16.000Z</time>
      </trkpt>
      <trkpt lat="42.98316" lon="1.08777">
        <ele>705</ele>
        <time>2025-09-20T09:08:17.000Z</time>
      </trkpt>
      <trkpt lat="42.98315" lon="1.08774">
        <ele>705</ele>
        <time>2025-09-20T09:08:18.000Z</time>
      </trkpt>
      <trkpt lat="42.98314" lon="1.08771">
        <ele>705</ele>
        <time>2025-09-20T09:08:19.000Z</time>
      </trkpt>
      <trkpt lat="42.98314" lon="1.08768">
        <ele>706</ele>
        <time>2025-09-20T09:08:20.000Z</time>
      </trkpt>
      <trkpt lat="42.98313" lon="1.08764">
        <ele>705</ele>
        <time>2025-09-20T09:08:21.000Z</time>
      </trkpt>
      <trkpt lat="42.98312" lon="1.08762">
        <ele>706</ele>
        <time>2025-09-20T09:08:22.000Z</time>
      </trkpt>
      <trkpt lat="42.98311" lon="1.08759">
        <ele>706</ele>
        <time>2025-09-20T09:08:23.000Z</time>
      </trkpt>
      <trkpt lat="42.9831" lon="1.08757">
        <ele>706</ele>
        <time>2025-09-20T09:08:24.000Z</time>
      </trkpt>
      <trkpt lat="42.98308" lon="1.08754">
        <ele>706</ele>
        <time>2025-09-20T09:08:25.000Z</time>
      </trkpt>
      <trkpt lat="42.98307" lon="1.08751">
        <ele>707</ele>
        <time>2025-09-20T09:08:26.000Z</time>
      </trkpt>
      <trkpt lat="42.98305" lon="1.08748">
        <ele>707</ele>
        <time>2025-09-20T09:08:27.000Z</time>
      </trkpt>
      <trkpt lat="42.98304" lon="1.08746">
        <ele>707</ele>
        <time>2025-09-20T09:08:28.000Z</time>
      </trkpt>
      <trkpt lat="42.98303" lon="1.08744">
        <ele>706</ele>
        <time>2025-09-20T09:08:29.000Z</time>
      </trkpt>
      <trkpt lat="42.98302" lon="1.08741">
        <ele>706</ele>
        <time>2025-09-20T09:08:30.000Z</time>
      </trkpt>
      <trkpt lat="42.98301" lon="1.08739">
        <ele>707</ele>
        <time>2025-09-20T09:08:31.000Z</time>
      </trkpt>
      <trkpt lat="42.983" lon="1.08737">
        <ele>707</ele>
        <time>2025-09-20T09:08:32.000Z</time>
      </trkpt>
      <trkpt lat="42.98299" lon="1.08735">
        <ele>707</ele>
        <time>2025-09-20T09:08:33.000Z</time>
      </trkpt>
      <trkpt lat="42.98298" lon="1.08733">
        <ele>708</ele>
        <time>2025-09-20T09:08:34.000Z</time>
      </trkpt>
      <trkpt lat="42.98297" lon="1.08732">
        <ele>708</ele>
        <time>2025-09-20T09:08:35.000Z</time>
      </trkpt>
      <trkpt lat="42.98297" lon="1.0873">
        <ele>709</ele>
        <time>2025-09-20T09:08:36.000Z</time>
      </trkpt>
      <trkpt lat="42.98297" lon="1.08727">
        <ele>709</ele>
        <time>2025-09-20T09:08:37.000Z</time>
      </trkpt>
      <trkpt lat="42.98297" lon="1.08726">
        <ele>708</ele>
        <time>2025-09-20T09:08:38.000Z</time>
      </trkpt>
      <trkpt lat="42.98298" lon="1.08724">
        <ele>708</ele>
        <time>2025-09-20T09:08:39.000Z</time>
      </trkpt>
      <trkpt lat="42.98298" lon="1.08723">
        <ele>707</ele>
        <time>2025-09-20T09:08:40.000Z</time>
      </trkpt>
      <trkpt lat="42.983" lon="1.08723">
        <ele>707</ele>
        <time>2025-09-20T09:08:41.000Z</time>
      </trkpt>
      <trkpt lat="42.98302" lon="1.08722">
        <ele>708</ele>
        <time>2025-09-20T09:08:42.000Z</time>
      </trkpt>
      <trkpt lat="42.98303" lon="1.08721">
        <ele>708</ele>
        <time>2025-09-20T09:08:43.000Z</time>
      </trkpt>
      <trkpt lat="42.98305" lon="1.08719">
        <ele>708</ele>
        <time>2025-09-20T09:08:44.000Z</time>
      </trkpt>
      <trkpt lat="42.98307" lon="1.08717">
        <ele>709</ele>
        <time>2025-09-20T09:08:45.000Z</time>
      </trkpt>
      <trkpt lat="42.98308" lon="1.08713">
        <ele>709</ele>
        <time>2025-09-20T09:08:46.000Z</time>
      </trkpt>
      <trkpt lat="42.98308" lon="1.0871">
        <ele>709</ele>
        <time>2025-09-20T09:08:47.000Z</time>
      </trkpt>
      <trkpt lat="42.98309" lon="1.08707">
        <ele>709</ele>
        <time>2025-09-20T09:08:48.000Z</time>
      </trkpt>
      <trkpt lat="42.9831" lon="1.08705">
        <ele>708</ele>
        <time>2025-09-20T09:08:49.000Z</time>
      </trkpt>
      <trkpt lat="42.9831" lon="1.08701">
        <ele>709</ele>
        <time>2025-09-20T09:08:50.000Z</time>
      </trkpt>
      <trkpt lat="42.98311" lon="1.08698">
        <ele>709</ele>
        <time>2025-09-20T09:08:51.000Z</time>
      </trkpt>
      <trkpt lat="42.98311" lon="1.08697">
        <ele>709</ele>
        <time>2025-09-20T09:08:52.000Z</time>
      </trkpt>
      <trkpt lat="42.98311" lon="1.08695">
        <ele>709</ele>
        <time>2025-09-20T09:08:53.000Z</time>
      </trkpt>
      <trkpt lat="42.98312" lon="1.08693">
        <ele>709</ele>
        <time>2025-09-20T09:08:54.000Z</time>
      </trkpt>
      <trkpt lat="42.98314" lon="1.08691">
        <ele>708</ele>
        <time>2025-09-20T09:08:55.000Z</time>
      </trkpt>
      <trkpt lat="42.98316" lon="1.0869">
        <ele>708</ele>
        <time>2025-09-20T09:08:56.000Z</time>
      </trkpt>
      <trkpt lat="42.98317" lon="1.08687">
        <ele>708</ele>
        <time>2025-09-20T09:08:57.000Z</time>
      </trkpt>
      <trkpt lat="42.98317" lon="1.08684">
        <ele>708</ele>
        <time>2025-09-20T09:08:58.000Z</time>
      </trkpt>
      <trkpt lat="42.98318" lon="1.08682">
        <ele>708</ele>
        <time>2025-09-20T09:08:59.000Z</time>
      </trkpt>
      <trkpt lat="42.98317" lon="1.08679">
        <ele>707</ele>
        <time>2025-09-20T09:09:00.000Z</time>
      </trkpt>
      <trkpt lat="42.98316" lon="1.08677">
        <ele>708</ele>
        <time>2025-09-20T09:09:01.000Z</time>
      </trkpt>
      <trkpt lat="42.98315" lon="1.08674">
        <ele>708</ele>
        <time>2025-09-20T09:09:02.000Z</time>
      </trkpt>
      <trkpt lat="42.98314" lon="1.08672">
        <ele>708</ele>
        <time>2025-09-20T09:09:03.000Z</time>
      </trkpt>
      <trkpt lat="42.98313" lon="1.0867">
        <ele>708</ele>
        <time>2025-09-20T09:09:04.000Z</time>
      </trkpt>
      <trkpt lat="42.98312" lon="1.08669">
        <ele>708</ele>
        <time>2025-09-20T09:09:05.000Z</time>
      </trkpt>
      <trkpt lat="42.98311" lon="1.08668">
        <ele>709</ele>
        <time>2025-09-20T09:09:06.000Z</time>
      </trkpt>
      <trkpt lat="42.98311" lon="1.08666">
        <ele>709</ele>
        <time>2025-09-20T09:09:07.000Z</time>
      </trkpt>
      <trkpt lat="42.9831" lon="1.08664">
        <ele>710</ele>
        <time>2025-09-20T09:09:08.000Z</time>
      </trkpt>
      <trkpt lat="42.98309" lon="1.08661">
        <ele>710</ele>
        <time>2025-09-20T09:09:09.000Z</time>
      </trkpt>
      <trkpt lat="42.98309" lon="1.08659">
        <ele>710</ele>
        <time>2025-09-20T09:09:10.000Z</time>
      </trkpt>
      <trkpt lat="42.98309" lon="1.08657">
        <ele>710</ele>
        <time>2025-09-20T09:09:11.000Z</time>
      </trkpt>
      <trkpt lat="42.98309" lon="1.08655">
        <ele>711</ele>
        <time>2025-09-20T09:09:12.000Z</time>
      </trkpt>
      <trkpt lat="42.98309" lon="1.08652">
        <ele>710</ele>
        <time>2025-09-20T09:09:13.000Z</time>
      </trkpt>
      <trkpt lat="42.98309" lon="1.0865">
        <ele>710</ele>
        <time>2025-09-20T09:09:14.000Z</time>
      </trkpt>
      <trkpt lat="42.98309" lon="1.08647">
        <ele>711</ele>
        <time>2025-09-20T09:09:15.000Z</time>
      </trkpt>
      <trkpt lat="42.98309" lon="1.08645">
        <ele>711</ele>
        <time>2025-09-20T09:09:16.000Z</time>
      </trkpt>
      <trkpt lat="42.98308" lon="1.08642">
        <ele>712</ele>
        <time>2025-09-20T09:09:17.000Z</time>
      </trkpt>
      <trkpt lat="42.98309" lon="1.08639">
        <ele>712</ele>
        <time>2025-09-20T09:09:18.000Z</time>
      </trkpt>
      <trkpt lat="42.9831" lon="1.08636">
        <ele>712</ele>
        <time>2025-09-20T09:09:19.000Z</time>
      </trkpt>
      <trkpt lat="42.9831" lon="1.08634">
        <ele>712</ele>
        <time>2025-09-20T09:09:20.000Z</time>
      </trkpt>
      <trkpt lat="42.9831" lon="1.08632">
        <ele>712</ele>
        <time>2025-09-20T09:09:21.000Z</time>
      </trkpt>
      <trkpt lat="42.9831" lon="1.0863">
        <ele>713</ele>
        <time>2025-09-20T09:09:22.000Z</time>
      </trkpt>
      <trkpt lat="42.9831" lon="1.08628">
        <ele>714</ele>
        <time>2025-09-20T09:09:23.000Z</time>
      </trkpt>
      <trkpt lat="42.98309" lon="1.08625">
        <ele>714</ele>
        <time>2025-09-20T09:09:24.000Z</time>
      </trkpt>
      <trkpt lat="42.98309" lon="1.08622">
        <ele>715</ele>
        <time>2025-09-20T09:09:25.000Z</time>
      </trkpt>
      <trkpt lat="42.98308" lon="1.0862">
        <ele>715</ele>
        <time>2025-09-20T09:09:26.000Z</time>
      </trkpt>
      <trkpt lat="42.98307" lon="1.08617">
        <ele>715</ele>
        <time>2025-09-20T09:09:27.000Z</time>
      </trkpt>
      <trkpt lat="42.98307" lon="1.08614">
        <ele>715</ele>
        <time>2025-09-20T09:09:28.000Z</time>
      </trkpt>
      <trkpt lat="42.98306" lon="1.08612">
        <ele>715</ele>
        <time>2025-09-20T09:09:29.000Z</time>
      </trkpt>
      <trkpt lat="42.98306" lon="1.08609">
        <ele>716</ele>
        <time>2025-09-20T09:09:30.000Z</time>
      </trkpt>
      <trkpt lat="42.98305" lon="1.08607">
        <ele>717</ele>
        <time>2025-09-20T09:09:31.000Z</time>
      </trkpt>
      <trkpt lat="42.98305" lon="1.08605">
        <ele>717</ele>
        <time>2025-09-20T09:09:32.000Z</time>
      </trkpt>
      <trkpt lat="42.98305" lon="1.08602">
        <ele>718</ele>
        <time>2025-09-20T09:09:33.000Z</time>
      </trkpt>
      <trkpt lat="42.98305" lon="1.086">
        <ele>718</ele>
        <time>2025-09-20T09:09:34.000Z</time>
      </trkpt>
      <trkpt lat="42.98305" lon="1.08598">
        <ele>719</ele>
        <time>2025-09-20T09:09:35.000Z</time>
      </trkpt>
      <trkpt lat="42.98304" lon="1.08596">
        <ele>719</ele>
        <time>2025-09-20T09:09:36.000Z</time>
      </trkpt>
      <trkpt lat="42.98304" lon="1.08593">
        <ele>719</ele>
        <time>2025-09-20T09:09:37.000Z</time>
      </trkpt>
      <trkpt lat="42.98303" lon="1.08591">
        <ele>720</ele>
        <time>2025-09-20T09:09:38.000Z</time>
      </trkpt>
      <trkpt lat="42.98302" lon="1.08588">
        <ele>720</ele>
        <time>2025-09-20T09:09:39.000Z</time>
      </trkpt>
      <trkpt lat="42.98301" lon="1.08587">
        <ele>721</ele>
        <time>2025-09-20T09:09:40.000Z</time>
      </trkpt>
      <trkpt lat="42.983" lon="1.08584">
        <ele>722</ele>
        <time>2025-09-20T09:09:41.000Z</time>
      </trkpt>
      <trkpt lat="42.983" lon="1.08582">
        <ele>723</ele>
        <time>2025-09-20T09:09:42.000Z</time>
      </trkpt>
      <trkpt lat="42.983" lon="1.08579">
        <ele>723</ele>
        <time>2025-09-20T09:09:43.000Z</time>
      </trkpt>
      <trkpt lat="42.98299" lon="1.08576">
        <ele>723</ele>
        <time>2025-09-20T09:09:44.000Z</time>
      </trkpt>
      <trkpt lat="42.98298" lon="1.08574">
        <ele>723</ele>
        <time>2025-09-20T09:09:45.000Z</time>
      </trkpt>
      <trkpt lat="42.98297" lon="1.08572">
        <ele>724</ele>
        <time>2025-09-20T09:09:46.000Z</time>
      </trkpt>
      <trkpt lat="42.98296" lon="1.0857">
        <ele>724</ele>
        <time>2025-09-20T09:09:47.000Z</time>
      </trkpt>
      <trkpt lat="42.98295" lon="1.08568">
        <ele>724</ele>
        <time>2025-09-20T09:09:48.000Z</time>
      </trkpt>
      <trkpt lat="42.98294" lon="1.08565">
        <ele>724</ele>
        <time>2025-09-20T09:09:49.000Z</time>
      </trkpt>
      <trkpt lat="42.98294" lon="1.08563">
        <ele>724</ele>
        <time>2025-09-20T09:09:50.000Z</time>
      </trkpt>
      <trkpt lat="42.98294" lon="1.0856">
        <ele>725</ele>
        <time>2025-09-20T09:09:51.000Z</time>
      </trkpt>
      <trkpt lat="42.98293" lon="1.08558">
        <ele>725</ele>
        <time>2025-09-20T09:09:52.000Z</time>
      </trkpt>
      <trkpt lat="42.98292" lon="1.08555">
        <ele>725</ele>
        <time>2025-09-20T09:09:53.000Z</time>
      </trkpt>
      <trkpt lat="42.98292" lon="1.08553">
        <ele>726</ele>
        <time>2025-09-20T09:09:54.000Z</time>
      </trkpt>
      <trkpt lat="42.98291" lon="1.0855">
        <ele>726</ele>
        <time>2025-09-20T09:09:55.000Z</time>
      </trkpt>
      <trkpt lat="42.9829" lon="1.08548">
        <ele>726</ele>
        <time>2025-09-20T09:09:56.000Z</time>
      </trkpt>
      <trkpt lat="42.9829" lon="1.08546">
        <ele>726</ele>
        <time>2025-09-20T09:09:57.000Z</time>
      </trkpt>
      <trkpt lat="42.98289" lon="1.08543">
        <ele>726</ele>
        <time>2025-09-20T09:09:58.000Z</time>
      </trkpt>
      <trkpt lat="42.98287" lon="1.08542">
        <ele>727</ele>
        <time>2025-09-20T09:09:59.000Z</time>
      </trkpt>
      <trkpt lat="42.98286" lon="1.0854">
        <ele>728</ele>
        <time>2025-09-20T09:10:00.000Z</time>
      </trkpt>
      <trkpt lat="42.98285" lon="1.08538">
        <ele>728</ele>
        <time>2025-09-20T09:10:01.000Z</time>
      </trkpt>
      <trkpt lat="42.98285" lon="1.08536">
        <ele>727</ele>
        <time>2025-09-20T09:10:02.000Z</time>
      </trkpt>
      <trkpt lat="42.98284" lon="1.08533">
        <ele>727</ele>
        <time>2025-09-20T09:10:03.000Z</time>
      </trkpt>
      <trkpt lat="42.98283" lon="1.08531">
        <ele>727</ele>
        <time>2025-09-20T09:10:04.000Z</time>
      </trkpt>
      <trkpt lat="42.98282" lon="1.0853">
        <ele>728</ele>
        <time>2025-09-20T09:10:05.000Z</time>
      </trkpt>
      <trkpt lat="42.98281" lon="1.08527">
        <ele>728</ele>
        <time>2025-09-20T09:10:06.000Z</time>
      </trkpt>
      <trkpt lat="42.98281" lon="1.08524">
        <ele>728</ele>
        <time>2025-09-20T09:10:07.000Z</time>
      </trkpt>
      <trkpt lat="42.9828" lon="1.08521">
        <ele>728</ele>
        <time>2025-09-20T09:10:08.000Z</time>
      </trkpt>
      <trkpt lat="42.98279" lon="1.08519">
        <ele>728</ele>
        <time>2025-09-20T09:10:09.000Z</time>
      </trkpt>
      <trkpt lat="42.98279" lon="1.08517">
        <ele>729</ele>
        <time>2025-09-20T09:10:10.000Z</time>
      </trkpt>
      <trkpt lat="42.98277" lon="1.08514">
        <ele>730</ele>
        <time>2025-09-20T09:10:11.000Z</time>
      </trkpt>
      <trkpt lat="42.98276" lon="1.08512">
        <ele>730</ele>
        <time>2025-09-20T09:10:12.000Z</time>
      </trkpt>
      <trkpt lat="42.98274" lon="1.08511">
        <ele>730</ele>
        <time>2025-09-20T09:10:13.000Z</time>
      </trkpt>
      <trkpt lat="42.98272" lon="1.08509">
        <ele>730</ele>
        <time>2025-09-20T09:10:14.000Z</time>
      </trkpt>
      <trkpt lat="42.9827" lon="1.08508">
        <ele>730</ele>
        <time>2025-09-20T09:10:15.000Z</time>
      </trkpt>
      <trkpt lat="42.98268" lon="1.08506">
        <ele>731</ele>
        <time>2025-09-20T09:10:16.000Z</time>
      </trkpt>
      <trkpt lat="42.98267" lon="1.08505">
        <ele>731</ele>
        <time>2025-09-20T09:10:17.000Z</time>
      </trkpt>
      <trkpt lat="42.98265" lon="1.08502">
        <ele>731</ele>
        <time>2025-09-20T09:10:18.000Z</time>
      </trkpt>
      <trkpt lat="42.98264" lon="1.085">
        <ele>731</ele>
        <time>2025-09-20T09:10:19.000Z</time>
      </trkpt>
      <trkpt lat="42.98263" lon="1.08498">
        <ele>731</ele>
        <time>2025-09-20T09:10:20.000Z</time>
      </trkpt>
      <trkpt lat="42.98261" lon="1.08496">
        <ele>731</ele>
        <time>2025-09-20T09:10:21.000Z</time>
      </trkpt>
      <trkpt lat="42.98259" lon="1.08495">
        <ele>731</ele>
        <time>2025-09-20T09:10:22.000Z</time>
      </trkpt>
      <trkpt lat="42.98257" lon="1.08494">
        <ele>732</ele>
        <time>2025-09-20T09:10:23.000Z</time>
      </trkpt>
      <trkpt lat="42.98255" lon="1.08494">
        <ele>732</ele>
        <time>2025-09-20T09:10:24.000Z</time>
      </trkpt>
      <trkpt lat="42.98253" lon="1.08492">
        <ele>732</ele>
        <time>2025-09-20T09:10:25.000Z</time>
      </trkpt>
      <trkpt lat="42.98252" lon="1.0849">
        <ele>733</ele>
        <time>2025-09-20T09:10:26.000Z</time>
      </trkpt>
      <trkpt lat="42.9825" lon="1.08488">
        <ele>733</ele>
        <time>2025-09-20T09:10:27.000Z</time>
      </trkpt>
      <trkpt lat="42.98248" lon="1.08486">
        <ele>733</ele>
        <time>2025-09-20T09:10:28.000Z</time>
      </trkpt>
      <trkpt lat="42.98246" lon="1.08484">
        <ele>733</ele>
        <time>2025-09-20T09:10:29.000Z</time>
      </trkpt>
      <trkpt lat="42.98245" lon="1.08482">
        <ele>733</ele>
        <time>2025-09-20T09:10:30.000Z</time>
      </trkpt>
      <trkpt lat="42.98243" lon="1.0848">
        <ele>733</ele>
        <time>2025-09-20T09:10:31.000Z</time>
      </trkpt>
      <trkpt lat="42.98241" lon="1.08477">
        <ele>733</ele>
        <time>2025-09-20T09:10:32.000Z</time>
      </trkpt>
      <trkpt lat="42.98239" lon="1.08475">
        <ele>733</ele>
        <time>2025-09-20T09:10:33.000Z</time>
      </trkpt>
      <trkpt lat="42.98237" lon="1.08471">
        <ele>732</ele>
        <time>2025-09-20T09:10:34.000Z</time>
      </trkpt>
      <trkpt lat="42.98235" lon="1.08468">
        <ele>733</ele>
        <time>2025-09-20T09:10:35.000Z</time>
      </trkpt>
      <trkpt lat="42.98233" lon="1.08465">
        <ele>733</ele>
        <time>2025-09-20T09:10:36.000Z</time>
      </trkpt>
      <trkpt lat="42.98231" lon="1.08462">
        <ele>732</ele>
        <time>2025-09-20T09:10:37.000Z</time>
      </trkpt>
      <trkpt lat="42.98229" lon="1.0846">
        <ele>732</ele>
        <time>2025-09-20T09:10:38.000Z</time>
      </trkpt>
      <trkpt lat="42.98226" lon="1.08458">
        <ele>732</ele>
        <time>2025-09-20T09:10:39.000Z</time>
      </trkpt>
      <trkpt lat="42.98224" lon="1.08456">
        <ele>732</ele>
        <time>2025-09-20T09:10:40.000Z</time>
      </trkpt>
      <trkpt lat="42.98222" lon="1.08453">
        <ele>732</ele>
        <time>2025-09-20T09:10:41.000Z</time>
      </trkpt>
      <trkpt lat="42.9822" lon="1.08449">
        <ele>732</ele>
        <time>2025-09-20T09:10:42.000Z</time>
      </trkpt>
      <trkpt lat="42.98218" lon="1.08446">
        <ele>732</ele>
        <time>2025-09-20T09:10:43.000Z</time>
      </trkpt>
      <trkpt lat="42.98216" lon="1.08442">
        <ele>733</ele>
        <time>2025-09-20T09:10:44.000Z</time>
      </trkpt>
      <trkpt lat="42.98214" lon="1.08438">
        <ele>733</ele>
        <time>2025-09-20T09:10:45.000Z</time>
      </trkpt>
      <trkpt lat="42.98212" lon="1.08435">
        <ele>733</ele>
        <time>2025-09-20T09:10:46.000Z</time>
      </trkpt>
      <trkpt lat="42.9821" lon="1.08433">
        <ele>733</ele>
        <time>2025-09-20T09:10:47.000Z</time>
      </trkpt>
      <trkpt lat="42.98207" lon="1.08433">
        <ele>733</ele>
        <time>2025-09-20T09:10:48.000Z</time>
      </trkpt>
      <trkpt lat="42.98205" lon="1.08434">
        <ele>733</ele>
        <time>2025-09-20T09:10:49.000Z</time>
      </trkpt>
      <trkpt lat="42.98202" lon="1.08434">
        <ele>733</ele>
        <time>2025-09-20T09:10:50.000Z</time>
      </trkpt>
      <trkpt lat="42.982" lon="1.08433">
        <ele>733</ele>
        <time>2025-09-20T09:10:51.000Z</time>
      </trkpt>
      <trkpt lat="42.98197" lon="1.08432">
        <ele>733</ele>
        <time>2025-09-20T09:10:52.000Z</time>
      </trkpt>
      <trkpt lat="42.98195" lon="1.08431">
        <ele>732</ele>
        <time>2025-09-20T09:10:53.000Z</time>
      </trkpt>
      <trkpt lat="42.98193" lon="1.08428">
        <ele>732</ele>
        <time>2025-09-20T09:10:54.000Z</time>
      </trkpt>
      <trkpt lat="42.98192" lon="1.08425">
        <ele>731</ele>
        <time>2025-09-20T09:10:55.000Z</time>
      </trkpt>
      <trkpt lat="42.98191" lon="1.08421">
        <ele>731</ele>
        <time>2025-09-20T09:10:56.000Z</time>
      </trkpt>
      <trkpt lat="42.98189" lon="1.08417">
        <ele>732</ele>
        <time>2025-09-20T09:10:57.000Z</time>
      </trkpt>
      <trkpt lat="42.98188" lon="1.08414">
        <ele>732</ele>
        <time>2025-09-20T09:10:58.000Z</time>
      </trkpt>
      <trkpt lat="42.98186" lon="1.08411">
        <ele>732</ele>
        <time>2025-09-20T09:10:59.000Z</time>
      </trkpt>
      <trkpt lat="42.98185" lon="1.08407">
        <ele>732</ele>
        <time>2025-09-20T09:11:00.000Z</time>
      </trkpt>
      <trkpt lat="42.98184" lon="1.08404">
        <ele>733</ele>
        <time>2025-09-20T09:11:01.000Z</time>
      </trkpt>
      <trkpt lat="42.98183" lon="1.08401">
        <ele>733</ele>
        <time>2025-09-20T09:11:02.000Z</time>
      </trkpt>
      <trkpt lat="42.98181" lon="1.084">
        <ele>733</ele>
        <time>2025-09-20T09:11:03.000Z</time>
      </trkpt>
      <trkpt lat="42.98179" lon="1.08399">
        <ele>733</ele>
        <time>2025-09-20T09:11:04.000Z</time>
      </trkpt>
      <trkpt lat="42.98178" lon="1.08396">
        <ele>734</ele>
        <time>2025-09-20T09:11:05.000Z</time>
      </trkpt>
      <trkpt lat="42.98178" lon="1.08394">
        <ele>734</ele>
        <time>2025-09-20T09:11:06.000Z</time>
      </trkpt>
      <trkpt lat="42.98178" lon="1.08391">
        <ele>735</ele>
        <time>2025-09-20T09:11:07.000Z</time>
      </trkpt>
      <trkpt lat="42.98177" lon="1.08389">
        <ele>734</ele>
        <time>2025-09-20T09:11:08.000Z</time>
      </trkpt>
      <trkpt lat="42.98177" lon="1.08386">
        <ele>734</ele>
        <time>2025-09-20T09:11:09.000Z</time>
      </trkpt>
      <trkpt lat="42.98176" lon="1.08384">
        <ele>734</ele>
        <time>2025-09-20T09:11:10.000Z</time>
      </trkpt>
      <trkpt lat="42.98175" lon="1.08382">
        <ele>735</ele>
        <time>2025-09-20T09:11:11.000Z</time>
      </trkpt>
      <trkpt lat="42.98175" lon="1.08378">
        <ele>735</ele>
        <time>2025-09-20T09:11:12.000Z</time>
      </trkpt>
      <trkpt lat="42.98174" lon="1.08376">
        <ele>735</ele>
        <time>2025-09-20T09:11:13.000Z</time>
      </trkpt>
      <trkpt lat="42.98173" lon="1.08373">
        <ele>736</ele>
        <time>2025-09-20T09:11:14.000Z</time>
      </trkpt>
      <trkpt lat="42.98172" lon="1.08371">
        <ele>735</ele>
        <time>2025-09-20T09:11:15.000Z</time>
      </trkpt>
      <trkpt lat="42.98171" lon="1.08368">
        <ele>736</ele>
        <time>2025-09-20T09:11:16.000Z</time>
      </trkpt>
      <trkpt lat="42.9817" lon="1.08366">
        <ele>736</ele>
        <time>2025-09-20T09:11:17.000Z</time>
      </trkpt>
      <trkpt lat="42.98168" lon="1.08364">
        <ele>736</ele>
        <time>2025-09-20T09:11:18.000Z</time>
      </trkpt>
      <trkpt lat="42.98168" lon="1.0836">
        <ele>736</ele>
        <time>2025-09-20T09:11:19.000Z</time>
      </trkpt>
      <trkpt lat="42.98167" lon="1.08358">
        <ele>737</ele>
        <time>2025-09-20T09:11:20.000Z</time>
      </trkpt>
      <trkpt lat="42.98165" lon="1.08356">
        <ele>738</ele>
        <time>2025-09-20T09:11:21.000Z</time>
      </trkpt>
      <trkpt lat="42.98164" lon="1.08353">
        <ele>739</ele>
        <time>2025-09-20T09:11:22.000Z</time>
      </trkpt>
      <trkpt lat="42.98163" lon="1.0835">
        <ele>739</ele>
        <time>2025-09-20T09:11:23.000Z</time>
      </trkpt>
      <trkpt lat="42.98162" lon="1.08348">
        <ele>739</ele>
        <time>2025-09-20T09:11:24.000Z</time>
      </trkpt>
      <trkpt lat="42.98162" lon="1.08345">
        <ele>740</ele>
        <time>2025-09-20T09:11:25.000Z</time>
      </trkpt>
      <trkpt lat="42.98161" lon="1.08342">
        <ele>740</ele>
        <time>2025-09-20T09:11:26.000Z</time>
      </trkpt>
      <trkpt lat="42.9816" lon="1.0834">
        <ele>741</ele>
        <time>2025-09-20T09:11:27.000Z</time>
      </trkpt>
      <trkpt lat="42.98158" lon="1.08338">
        <ele>741</ele>
        <time>2025-09-20T09:11:28.000Z</time>
      </trkpt>
      <trkpt lat="42.98157" lon="1.08336">
        <ele>741</ele>
        <time>2025-09-20T09:11:29.000Z</time>
      </trkpt>
      <trkpt lat="42.98156" lon="1.08333">
        <ele>742</ele>
        <time>2025-09-20T09:11:30.000Z</time>
      </trkpt>
      <trkpt lat="42.98156" lon="1.0833">
        <ele>742</ele>
        <time>2025-09-20T09:11:31.000Z</time>
      </trkpt>
      <trkpt lat="42.98155" lon="1.08327">
        <ele>742</ele>
        <time>2025-09-20T09:11:32.000Z</time>
      </trkpt>
      <trkpt lat="42.98154" lon="1.08325">
        <ele>743</ele>
        <time>2025-09-20T09:11:33.000Z</time>
      </trkpt>
      <trkpt lat="42.98153" lon="1.08323">
        <ele>743</ele>
        <time>2025-09-20T09:11:34.000Z</time>
      </trkpt>
      <trkpt lat="42.98152" lon="1.0832">
        <ele>744</ele>
        <time>2025-09-20T09:11:35.000Z</time>
      </trkpt>
      <trkpt lat="42.98151" lon="1.08318">
        <ele>744</ele>
        <time>2025-09-20T09:11:36.000Z</time>
      </trkpt>
      <trkpt lat="42.98151" lon="1.08316">
        <ele>745</ele>
        <time>2025-09-20T09:11:37.000Z</time>
      </trkpt>
      <trkpt lat="42.9815" lon="1.08313">
        <ele>746</ele>
        <time>2025-09-20T09:11:38.000Z</time>
      </trkpt>
      <trkpt lat="42.98149" lon="1.08311">
        <ele>746</ele>
        <time>2025-09-20T09:11:39.000Z</time>
      </trkpt>
      <trkpt lat="42.98148" lon="1.08309">
        <ele>747</ele>
        <time>2025-09-20T09:11:40.000Z</time>
      </trkpt>
      <trkpt lat="42.98147" lon="1.08306">
        <ele>747</ele>
        <time>2025-09-20T09:11:41.000Z</time>
      </trkpt>
      <trkpt lat="42.98145" lon="1.08303">
        <ele>748</ele>
        <time>2025-09-20T09:11:42.000Z</time>
      </trkpt>
      <trkpt lat="42.98144" lon="1.08301">
        <ele>749</ele>
        <time>2025-09-20T09:11:43.000Z</time>
      </trkpt>
      <trkpt lat="42.98143" lon="1.08299">
        <ele>749</ele>
        <time>2025-09-20T09:11:44.000Z</time>
      </trkpt>
      <trkpt lat="42.98142" lon="1.08297">
        <ele>750</ele>
        <time>2025-09-20T09:11:45.000Z</time>
      </trkpt>
      <trkpt lat="42.98141" lon="1.08295">
        <ele>750</ele>
        <time>2025-09-20T09:11:46.000Z</time>
      </trkpt>
      <trkpt lat="42.98139" lon="1.08294">
        <ele>752</ele>
        <time>2025-09-20T09:11:47.000Z</time>
      </trkpt>
      <trkpt lat="42.98136" lon="1.08294">
        <ele>752</ele>
        <time>2025-09-20T09:11:48.000Z</time>
      </trkpt>
      <trkpt lat="42.98134" lon="1.08294">
        <ele>752</ele>
        <time>2025-09-20T09:11:49.000Z</time>
      </trkpt>
      <trkpt lat="42.98132" lon="1.08294">
        <ele>753</ele>
        <time>2025-09-20T09:11:50.000Z</time>
      </trkpt>
      <trkpt lat="42.9813" lon="1.08293">
        <ele>753</ele>
        <time>2025-09-20T09:11:51.000Z</time>
      </trkpt>
      <trkpt lat="42.98129" lon="1.08292">
        <ele>753</ele>
        <time>2025-09-20T09:11:52.000Z</time>
      </trkpt>
      <trkpt lat="42.98127" lon="1.08291">
        <ele>753</ele>
        <time>2025-09-20T09:11:53.000Z</time>
      </trkpt>
      <trkpt lat="42.98126" lon="1.08288">
        <ele>753</ele>
        <time>2025-09-20T09:11:54.000Z</time>
      </trkpt>
      <trkpt lat="42.98125" lon="1.08286">
        <ele>753</ele>
        <time>2025-09-20T09:11:55.000Z</time>
      </trkpt>
      <trkpt lat="42.98124" lon="1.08284">
        <ele>754</ele>
        <time>2025-09-20T09:11:56.000Z</time>
      </trkpt>
      <trkpt lat="42.98123" lon="1.08282">
        <ele>755</ele>
        <time>2025-09-20T09:11:57.000Z</time>
      </trkpt>
      <trkpt lat="42.98121" lon="1.0828">
        <ele>756</ele>
        <time>2025-09-20T09:11:58.000Z</time>
      </trkpt>
      <trkpt lat="42.9812" lon="1.08278">
        <ele>757</ele>
        <time>2025-09-20T09:11:59.000Z</time>
      </trkpt>
      <trkpt lat="42.98119" lon="1.08276">
        <ele>758</ele>
        <time>2025-09-20T09:12:00.000Z</time>
      </trkpt>
      <trkpt lat="42.98118" lon="1.08274">
        <ele>759</ele>
        <time>2025-09-20T09:12:01.000Z</time>
      </trkpt>
      <trkpt lat="42.98116" lon="1.08273">
        <ele>760</ele>
        <time>2025-09-20T09:12:02.000Z</time>
      </trkpt>
      <trkpt lat="42.98114" lon="1.08271">
        <ele>761</ele>
        <time>2025-09-20T09:12:03.000Z</time>
      </trkpt>
      <trkpt lat="42.98113" lon="1.08269">
        <ele>761</ele>
        <time>2025-09-20T09:12:04.000Z</time>
      </trkpt>
      <trkpt lat="42.98111" lon="1.08267">
        <ele>762</ele>
        <time>2025-09-20T09:12:05.000Z</time>
      </trkpt>
      <trkpt lat="42.98109" lon="1.08265">
        <ele>762</ele>
        <time>2025-09-20T09:12:06.000Z</time>
      </trkpt>
      <trkpt lat="42.98107" lon="1.08264">
        <ele>763</ele>
        <time>2025-09-20T09:12:07.000Z</time>
      </trkpt>
      <trkpt lat="42.98105" lon="1.08263">
        <ele>762</ele>
        <time>2025-09-20T09:12:08.000Z</time>
      </trkpt>
      <trkpt lat="42.98103" lon="1.08261">
        <ele>763</ele>
        <time>2025-09-20T09:12:09.000Z</time>
      </trkpt>
      <trkpt lat="42.98102" lon="1.08259">
        <ele>763</ele>
        <time>2025-09-20T09:12:10.000Z</time>
      </trkpt>
      <trkpt lat="42.98101" lon="1.08257">
        <ele>762</ele>
        <time>2025-09-20T09:12:11.000Z</time>
      </trkpt>
      <trkpt lat="42.981" lon="1.08255">
        <ele>762</ele>
        <time>2025-09-20T09:12:12.000Z</time>
      </trkpt>
      <trkpt lat="42.98099" lon="1.08252">
        <ele>763</ele>
        <time>2025-09-20T09:12:13.000Z</time>
      </trkpt>
      <trkpt lat="42.98098" lon="1.0825">
        <ele>763</ele>
        <time>2025-09-20T09:12:14.000Z</time>
      </trkpt>
      <trkpt lat="42.98095" lon="1.08247">
        <ele>763</ele>
        <time>2025-09-20T09:12:15.000Z</time>
      </trkpt>
      <trkpt lat="42.98093" lon="1.08245">
        <ele>763</ele>
        <time>2025-09-20T09:12:16.000Z</time>
      </trkpt>
      <trkpt lat="42.98091" lon="1.08242">
        <ele>764</ele>
        <time>2025-09-20T09:12:17.000Z</time>
      </trkpt>
      <trkpt lat="42.98088" lon="1.0824">
        <ele>764</ele>
        <time>2025-09-20T09:12:18.000Z</time>
      </trkpt>
      <trkpt lat="42.98086" lon="1.08238">
        <ele>764</ele>
        <time>2025-09-20T09:12:19.000Z</time>
      </trkpt>
      <trkpt lat="42.98083" lon="1.08238">
        <ele>765</ele>
        <time>2025-09-20T09:12:20.000Z</time>
      </trkpt>
      <trkpt lat="42.9808" lon="1.08237">
        <ele>765</ele>
        <time>2025-09-20T09:12:21.000Z</time>
      </trkpt>
      <trkpt lat="42.98078" lon="1.08236">
        <ele>765</ele>
        <time>2025-09-20T09:12:22.000Z</time>
      </trkpt>
      <trkpt lat="42.98076" lon="1.08234">
        <ele>765</ele>
        <time>2025-09-20T09:12:23.000Z</time>
      </trkpt>
      <trkpt lat="42.98074" lon="1.08233">
        <ele>765</ele>
        <time>2025-09-20T09:12:24.000Z</time>
      </trkpt>
      <trkpt lat="42.98073" lon="1.08231">
        <ele>765</ele>
        <time>2025-09-20T09:12:25.000Z</time>
      </trkpt>
      <trkpt lat="42.98071" lon="1.08228">
        <ele>765</ele>
        <time>2025-09-20T09:12:26.000Z</time>
      </trkpt>
      <trkpt lat="42.98069" lon="1.08226">
        <ele>765</ele>
        <time>2025-09-20T09:12:27.000Z</time>
      </trkpt>
      <trkpt lat="42.98068" lon="1.08225">
        <ele>764</ele>
        <time>2025-09-20T09:12:28.000Z</time>
      </trkpt>
      <trkpt lat="42.98066" lon="1.08223">
        <ele>764</ele>
        <time>2025-09-20T09:12:29.000Z</time>
      </trkpt>
      <trkpt lat="42.98064" lon="1.08222">
        <ele>764</ele>
        <time>2025-09-20T09:12:30.000Z</time>
      </trkpt>
      <trkpt lat="42.98062" lon="1.08221">
        <ele>765</ele>
        <time>2025-09-20T09:12:31.000Z</time>
      </trkpt>
      <trkpt lat="42.9806" lon="1.0822">
        <ele>765</ele>
        <time>2025-09-20T09:12:32.000Z</time>
      </trkpt>
      <trkpt lat="42.98058" lon="1.08218">
        <ele>765</ele>
        <time>2025-09-20T09:12:33.000Z</time>
      </trkpt>
      <trkpt lat="42.98057" lon="1.08215">
        <ele>764</ele>
        <time>2025-09-20T09:12:34.000Z</time>
      </trkpt>
      <trkpt lat="42.98056" lon="1.08213">
        <ele>764</ele>
        <time>2025-09-20T09:12:35.000Z</time>
      </trkpt>
      <trkpt lat="42.98054" lon="1.08211">
        <ele>764</ele>
        <time>2025-09-20T09:12:36.000Z</time>
      </trkpt>
      <trkpt lat="42.98052" lon="1.0821">
        <ele>764</ele>
        <time>2025-09-20T09:12:37.000Z</time>
      </trkpt>
      <trkpt lat="42.98049" lon="1.08209">
        <ele>764</ele>
        <time>2025-09-20T09:12:38.000Z</time>
      </trkpt>
      <trkpt lat="42.98047" lon="1.08206">
        <ele>763</ele>
        <time>2025-09-20T09:12:39.000Z</time>
      </trkpt>
      <trkpt lat="42.98044" lon="1.08204">
        <ele>764</ele>
        <time>2025-09-20T09:12:40.000Z</time>
      </trkpt>
      <trkpt lat="42.98042" lon="1.082">
        <ele>764</ele>
        <time>2025-09-20T09:12:41.000Z</time>
      </trkpt>
      <trkpt lat="42.98039" lon="1.08196">
        <ele>763</ele>
        <time>2025-09-20T09:12:42.000Z</time>
      </trkpt>
      <trkpt lat="42.98037" lon="1.08192">
        <ele>763</ele>
        <time>2025-09-20T09:12:43.000Z</time>
      </trkpt>
      <trkpt lat="42.98034" lon="1.08187">
        <ele>762</ele>
        <time>2025-09-20T09:12:44.000Z</time>
      </trkpt>
      <trkpt lat="42.98031" lon="1.08182">
        <ele>762</ele>
        <time>2025-09-20T09:12:45.000Z</time>
      </trkpt>
      <trkpt lat="42.98028" lon="1.08178">
        <ele>761</ele>
        <time>2025-09-20T09:12:46.000Z</time>
      </trkpt>
      <trkpt lat="42.98026" lon="1.08174">
        <ele>761</ele>
        <time>2025-09-20T09:12:47.000Z</time>
      </trkpt>
      <trkpt lat="42.98023" lon="1.08169">
        <ele>760</ele>
        <time>2025-09-20T09:12:48.000Z</time>
      </trkpt>
      <trkpt lat="42.9802" lon="1.08166">
        <ele>760</ele>
        <time>2025-09-20T09:12:49.000Z</time>
      </trkpt>
      <trkpt lat="42.98017" lon="1.08163">
        <ele>760</ele>
        <time>2025-09-20T09:12:50.000Z</time>
      </trkpt>
      <trkpt lat="42.98014" lon="1.08158">
        <ele>759</ele>
        <time>2025-09-20T09:12:51.000Z</time>
      </trkpt>
      <trkpt lat="42.98012" lon="1.08153">
        <ele>758</ele>
        <time>2025-09-20T09:12:52.000Z</time>
      </trkpt>
      <trkpt lat="42.98011" lon="1.08147">
        <ele>757</ele>
        <time>2025-09-20T09:12:53.000Z</time>
      </trkpt>
      <trkpt lat="42.98008" lon="1.08141">
        <ele>755</ele>
        <time>2025-09-20T09:12:54.000Z</time>
      </trkpt>
      <trkpt lat="42.98004" lon="1.08135">
        <ele>755</ele>
        <time>2025-09-20T09:12:55.000Z</time>
      </trkpt>
      <trkpt lat="42.98" lon="1.0813">
        <ele>755</ele>
        <time>2025-09-20T09:12:56.000Z</time>
      </trkpt>
      <trkpt lat="42.97996" lon="1.08124">
        <ele>754</ele>
        <time>2025-09-20T09:12:57.000Z</time>
      </trkpt>
      <trkpt lat="42.97993" lon="1.08119">
        <ele>754</ele>
        <time>2025-09-20T09:12:58.000Z</time>
      </trkpt>
      <trkpt lat="42.97989" lon="1.08114">
        <ele>754</ele>
        <time>2025-09-20T09:12:59.000Z</time>
      </trkpt>
      <trkpt lat="42.97987" lon="1.08108">
        <ele>753</ele>
        <time>2025-09-20T09:13:00.000Z</time>
      </trkpt>
      <trkpt lat="42.97984" lon="1.08102">
        <ele>752</ele>
        <time>2025-09-20T09:13:01.000Z</time>
      </trkpt>
      <trkpt lat="42.97981" lon="1.08097">
        <ele>751</ele>
        <time>2025-09-20T09:13:02.000Z</time>
      </trkpt>
      <trkpt lat="42.97978" lon="1.08093">
        <ele>751</ele>
        <time>2025-09-20T09:13:03.000Z</time>
      </trkpt>
      <trkpt lat="42.97975" lon="1.08088">
        <ele>750</ele>
        <time>2025-09-20T09:13:04.000Z</time>
      </trkpt>
      <trkpt lat="42.97972" lon="1.08083">
        <ele>749</ele>
        <time>2025-09-20T09:13:05.000Z</time>
      </trkpt>
      <trkpt lat="42.97968" lon="1.08077">
        <ele>748</ele>
        <time>2025-09-20T09:13:06.000Z</time>
      </trkpt>
      <trkpt lat="42.97964" lon="1.08072">
        <ele>747</ele>
        <time>2025-09-20T09:13:07.000Z</time>
      </trkpt>
      <trkpt lat="42.9796" lon="1.08066">
        <ele>746</ele>
        <time>2025-09-20T09:13:08.000Z</time>
      </trkpt>
      <trkpt lat="42.97956" lon="1.08062">
        <ele>745</ele>
        <time>2025-09-20T09:13:09.000Z</time>
      </trkpt>
      <trkpt lat="42.97953" lon="1.08059">
        <ele>744</ele>
        <time>2025-09-20T09:13:10.000Z</time>
      </trkpt>
      <trkpt lat="42.9795" lon="1.08055">
        <ele>743</ele>
        <time>2025-09-20T09:13:11.000Z</time>
      </trkpt>
      <trkpt lat="42.97948" lon="1.08052">
        <ele>743</ele>
        <time>2025-09-20T09:13:12.000Z</time>
      </trkpt>
      <trkpt lat="42.97946" lon="1.08049">
        <ele>742</ele>
        <time>2025-09-20T09:13:13.000Z</time>
      </trkpt>
      <trkpt lat="42.97945" lon="1.08046">
        <ele>742</ele>
        <time>2025-09-20T09:13:14.000Z</time>
      </trkpt>
      <trkpt lat="42.97942" lon="1.08043">
        <ele>741</ele>
        <time>2025-09-20T09:13:15.000Z</time>
      </trkpt>
      <trkpt lat="42.97939" lon="1.0804">
        <ele>739</ele>
        <time>2025-09-20T09:13:16.000Z</time>
      </trkpt>
      <trkpt lat="42.97935" lon="1.08036">
        <ele>736</ele>
        <time>2025-09-20T09:13:17.000Z</time>
      </trkpt>
      <trkpt lat="42.97931" lon="1.08032">
        <ele>734</ele>
        <time>2025-09-20T09:13:18.000Z</time>
      </trkpt>
      <trkpt lat="42.97927" lon="1.08027">
        <ele>733</ele>
        <time>2025-09-20T09:13:19.000Z</time>
      </trkpt>
      <trkpt lat="42.97924" lon="1.08022">
        <ele>731</ele>
        <time>2025-09-20T09:13:20.000Z</time>
      </trkpt>
      <trkpt lat="42.97922" lon="1.08014">
        <ele>729</ele>
        <time>2025-09-20T09:13:21.000Z</time>
      </trkpt>
      <trkpt lat="42.9792" lon="1.08004">
        <ele>727</ele>
        <time>2025-09-20T09:13:22.000Z</time>
      </trkpt>
      <trkpt lat="42.9792" lon="1.07991">
        <ele>725</ele>
        <time>2025-09-20T09:13:23.000Z</time>
      </trkpt>
      <trkpt lat="42.9792" lon="1.07979">
        <ele>726</ele>
        <time>2025-09-20T09:13:24.000Z</time>
      </trkpt>
      <trkpt lat="42.97921" lon="1.07968">
        <ele>728</ele>
        <time>2025-09-20T09:13:25.000Z</time>
      </trkpt>
      <trkpt lat="42.97922" lon="1.07961">
        <ele>729</ele>
        <time>2025-09-20T09:13:26.000Z</time>
      </trkpt>
      <trkpt lat="42.97923" lon="1.07954">
        <ele>729</ele>
        <time>2025-09-20T09:13:27.000Z</time>
      </trkpt>
      <trkpt lat="42.97923" lon="1.07948">
        <ele>729</ele>
        <time>2025-09-20T09:13:28.000Z</time>
      </trkpt>
      <trkpt lat="42.97924" lon="1.07943">
        <ele>730</ele>
        <time>2025-09-20T09:13:29.000Z</time>
      </trkpt>
      <trkpt lat="42.97924" lon="1.07937">
        <ele>730</ele>
        <time>2025-09-20T09:13:30.000Z</time>
      </trkpt>
      <trkpt lat="42.97925" lon="1.07931">
        <ele>730</ele>
        <time>2025-09-20T09:13:31.000Z</time>
      </trkpt>
      <trkpt lat="42.97925" lon="1.07925">
        <ele>730</ele>
        <time>2025-09-20T09:13:32.000Z</time>
      </trkpt>
      <trkpt lat="42.97925" lon="1.07919">
        <ele>729</ele>
        <time>2025-09-20T09:13:33.000Z</time>
      </trkpt>
      <trkpt lat="42.97925" lon="1.07913">
        <ele>729</ele>
        <time>2025-09-20T09:13:34.000Z</time>
      </trkpt>
      <trkpt lat="42.97924" lon="1.07907">
        <ele>728</ele>
        <time>2025-09-20T09:13:35.000Z</time>
      </trkpt>
      <trkpt lat="42.97923" lon="1.079">
        <ele>728</ele>
        <time>2025-09-20T09:13:36.000Z</time>
      </trkpt>
      <trkpt lat="42.97921" lon="1.07893">
        <ele>727</ele>
        <time>2025-09-20T09:13:37.000Z</time>
      </trkpt>
      <trkpt lat="42.97919" lon="1.07886">
        <ele>727</ele>
        <time>2025-09-20T09:13:38.000Z</time>
      </trkpt>
      <trkpt lat="42.97918" lon="1.07878">
        <ele>726</ele>
        <time>2025-09-20T09:13:39.000Z</time>
      </trkpt>
      <trkpt lat="42.97916" lon="1.07871">
        <ele>726</ele>
        <time>2025-09-20T09:13:40.000Z</time>
      </trkpt>
      <trkpt lat="42.97914" lon="1.07863">
        <ele>726</ele>
        <time>2025-09-20T09:13:41.000Z</time>
      </trkpt>
      <trkpt lat="42.97913" lon="1.07854">
        <ele>725</ele>
        <time>2025-09-20T09:13:42.000Z</time>
      </trkpt>
      <trkpt lat="42.97911" lon="1.07845">
        <ele>725</ele>
        <time>2025-09-20T09:13:43.000Z</time>
      </trkpt>
      <trkpt lat="42.97909" lon="1.07837">
        <ele>725</ele>
        <time>2025-09-20T09:13:44.000Z</time>
      </trkpt>
      <trkpt lat="42.97906" lon="1.07829">
        <ele>724</ele>
        <time>2025-09-20T09:13:45.000Z</time>
      </trkpt>
      <trkpt lat="42.97903" lon="1.07821">
        <ele>723</ele>
        <time>2025-09-20T09:13:46.000Z</time>
      </trkpt>
      <trkpt lat="42.979" lon="1.07813">
        <ele>722</ele>
        <time>2025-09-20T09:13:47.000Z</time>
      </trkpt>
      <trkpt lat="42.97896" lon="1.07805">
        <ele>721</ele>
        <time>2025-09-20T09:13:48.000Z</time>
      </trkpt>
      <trkpt lat="42.97892" lon="1.07798">
        <ele>720</ele>
        <time>2025-09-20T09:13:49.000Z</time>
      </trkpt>
      <trkpt lat="42.97886" lon="1.07792">
        <ele>719</ele>
        <time>2025-09-20T09:13:50.000Z</time>
      </trkpt>
      <trkpt lat="42.97879" lon="1.07787">
        <ele>719</ele>
        <time>2025-09-20T09:13:51.000Z</time>
      </trkpt>
      <trkpt lat="42.97874" lon="1.07785">
        <ele>718</ele>
        <time>2025-09-20T09:13:52.000Z</time>
      </trkpt>
      <trkpt lat="42.97868" lon="1.07784">
        <ele>718</ele>
        <time>2025-09-20T09:13:53.000Z</time>
      </trkpt>
      <trkpt lat="42.97863" lon="1.07787">
        <ele>717</ele>
        <time>2025-09-20T09:13:54.000Z</time>
      </trkpt>
      <trkpt lat="42.97858" lon="1.07789">
        <ele>718</ele>
        <time>2025-09-20T09:13:55.000Z</time>
      </trkpt>
      <trkpt lat="42.97853" lon="1.07789">
        <ele>717</ele>
        <time>2025-09-20T09:13:56.000Z</time>
      </trkpt>
      <trkpt lat="42.97849" lon="1.07788">
        <ele>718</ele>
        <time>2025-09-20T09:13:57.000Z</time>
      </trkpt>
      <trkpt lat="42.97846" lon="1.07787">
        <ele>718</ele>
        <time>2025-09-20T09:13:58.000Z</time>
      </trkpt>
      <trkpt lat="42.97843" lon="1.07787">
        <ele>718</ele>
        <time>2025-09-20T09:13:59.000Z</time>
      </trkpt>
      <trkpt lat="42.9784" lon="1.07785">
        <ele>718</ele>
        <time>2025-09-20T09:14:00.000Z</time>
      </trkpt>
      <trkpt lat="42.97839" lon="1.07783">
        <ele>718</ele>
        <time>2025-09-20T09:14:01.000Z</time>
      </trkpt>
      <trkpt lat="42.97838" lon="1.07782">
        <ele>718</ele>
        <time>2025-09-20T09:14:02.000Z</time>
      </trkpt>
      <trkpt lat="42.97838" lon="1.07781">
        <ele>718</ele>
        <time>2025-09-20T09:14:03.000Z</time>
      </trkpt>
      <trkpt lat="42.97838" lon="1.07779">
        <ele>718</ele>
        <time>2025-09-20T09:14:04.000Z</time>
      </trkpt>
      <trkpt lat="42.97838" lon="1.07779">
        <ele>718</ele>
        <time>2025-09-20T09:14:05.000Z</time>
      </trkpt>
      <trkpt lat="42.97839" lon="1.07779">
        <ele>718</ele>
        <time>2025-09-20T09:14:06.000Z</time>
      </trkpt>
      <trkpt lat="42.97838" lon="1.07774">
        <ele>720</ele>
        <time>2025-09-20T09:16:05.000Z</time>
      </trkpt>
      <trkpt lat="42.97838" lon="1.07775">
        <ele>720</ele>
        <time>2025-09-20T09:16:06.000Z</time>
      </trkpt>
      <trkpt lat="42.97837" lon="1.07776">
        <ele>720</ele>
        <time>2025-09-20T09:16:07.000Z</time>
      </trkpt>
      <trkpt lat="42.97837" lon="1.07777">
        <ele>720</ele>
        <time>2025-09-20T09:16:08.000Z</time>
      </trkpt>
      <trkpt lat="42.97836" lon="1.0778">
        <ele>720</ele>
        <time>2025-09-20T09:22:31.000Z</time>
      </trkpt>
      <trkpt lat="42.97836" lon="1.07781">
        <ele>721</ele>
        <time>2025-09-20T09:22:32.000Z</time>
      </trkpt>
      <trkpt lat="42.97834" lon="1.07782">
        <ele>721</ele>
        <time>2025-09-20T09:22:33.000Z</time>
      </trkpt>
      <trkpt lat="42.97833" lon="1.07783">
        <ele>720</ele>
        <time>2025-09-20T09:22:34.000Z</time>
      </trkpt>
      <trkpt lat="42.97831" lon="1.07784">
        <ele>720</ele>
        <time>2025-09-20T09:22:35.000Z</time>
      </trkpt>
      <trkpt lat="42.97828" lon="1.07785">
        <ele>720</ele>
        <time>2025-09-20T09:22:36.000Z</time>
      </trkpt>
      <trkpt lat="42.97827" lon="1.07786">
        <ele>720</ele>
        <time>2025-09-20T09:22:37.000Z</time>
      </trkpt>
      <trkpt lat="42.97825" lon="1.07787">
        <ele>720</ele>
        <time>2025-09-20T09:22:38.000Z</time>
      </trkpt>
      <trkpt lat="42.97823" lon="1.07787">
        <ele>720</ele>
        <time>2025-09-20T09:22:39.000Z</time>
      </trkpt>
      <trkpt lat="42.9782" lon="1.07787">
        <ele>720</ele>
        <time>2025-09-20T09:22:40.000Z</time>
      </trkpt>
      <trkpt lat="42.97818" lon="1.07786">
        <ele>720</ele>
        <time>2025-09-20T09:22:41.000Z</time>
      </trkpt>
      <trkpt lat="42.97816" lon="1.07786">
        <ele>720</ele>
        <time>2025-09-20T09:22:42.000Z</time>
      </trkpt>
      <trkpt lat="42.97814" lon="1.07786">
        <ele>720</ele>
        <time>2025-09-20T09:22:43.000Z</time>
      </trkpt>
      <trkpt lat="42.97811" lon="1.07786">
        <ele>719</ele>
        <time>2025-09-20T09:22:44.000Z</time>
      </trkpt>
      <trkpt lat="42.9781" lon="1.07786">
        <ele>719</ele>
        <time>2025-09-20T09:22:45.000Z</time>
      </trkpt>
      <trkpt lat="42.97807" lon="1.07787">
        <ele>719</ele>
        <time>2025-09-20T09:22:46.000Z</time>
      </trkpt>
      <trkpt lat="42.97805" lon="1.07787">
        <ele>720</ele>
        <time>2025-09-20T09:22:47.000Z</time>
      </trkpt>
      <trkpt lat="42.97802" lon="1.07787">
        <ele>719</ele>
        <time>2025-09-20T09:22:48.000Z</time>
      </trkpt>
      <trkpt lat="42.97799" lon="1.07786">
        <ele>719</ele>
        <time>2025-09-20T09:22:49.000Z</time>
      </trkpt>
      <trkpt lat="42.97797" lon="1.07785">
        <ele>719</ele>
        <time>2025-09-20T09:22:50.000Z</time>
      </trkpt>
      <trkpt lat="42.97795" lon="1.07786">
        <ele>720</ele>
        <time>2025-09-20T09:22:51.000Z</time>
      </trkpt>
      <trkpt lat="42.97793" lon="1.07786">
        <ele>719</ele>
        <time>2025-09-20T09:22:52.000Z</time>
      </trkpt>
      <trkpt lat="42.97791" lon="1.07785">
        <ele>719</ele>
        <time>2025-09-20T09:22:53.000Z</time>
      </trkpt>
      <trkpt lat="42.97789" lon="1.07784">
        <ele>720</ele>
        <time>2025-09-20T09:22:54.000Z</time>
      </trkpt>
      <trkpt lat="42.97787" lon="1.07782">
        <ele>720</ele>
        <time>2025-09-20T09:22:55.000Z</time>
      </trkpt>
      <trkpt lat="42.97785" lon="1.07781">
        <ele>721</ele>
        <time>2025-09-20T09:22:56.000Z</time>
      </trkpt>
      <trkpt lat="42.97783" lon="1.0778">
        <ele>721</ele>
        <time>2025-09-20T09:22:57.000Z</time>
      </trkpt>
      <trkpt lat="42.9778" lon="1.07779">
        <ele>721</ele>
        <time>2025-09-20T09:22:58.000Z</time>
      </trkpt>
      <trkpt lat="42.97777" lon="1.07779">
        <ele>720</ele>
        <time>2025-09-20T09:22:59.000Z</time>
      </trkpt>
      <trkpt lat="42.97775" lon="1.07778">
        <ele>721</ele>
        <time>2025-09-20T09:23:00.000Z</time>
      </trkpt>
      <trkpt lat="42.97773" lon="1.07778">
        <ele>721</ele>
        <time>2025-09-20T09:23:01.000Z</time>
      </trkpt>
      <trkpt lat="42.9777" lon="1.07777">
        <ele>721</ele>
        <time>2025-09-20T09:23:02.000Z</time>
      </trkpt>
      <trkpt lat="42.97767" lon="1.07775">
        <ele>722</ele>
        <time>2025-09-20T09:23:03.000Z</time>
      </trkpt>
      <trkpt lat="42.97765" lon="1.07774">
        <ele>722</ele>
        <time>2025-09-20T09:23:04.000Z</time>
      </trkpt>
      <trkpt lat="42.97763" lon="1.07773">
        <ele>723</ele>
        <time>2025-09-20T09:23:05.000Z</time>
      </trkpt>
      <trkpt lat="42.97761" lon="1.07772">
        <ele>723</ele>
        <time>2025-09-20T09:23:06.000Z</time>
      </trkpt>
      <trkpt lat="42.97759" lon="1.07771">
        <ele>723</ele>
        <time>2025-09-20T09:23:07.000Z</time>
      </trkpt>
      <trkpt lat="42.97757" lon="1.0777">
        <ele>724</ele>
        <time>2025-09-20T09:23:08.000Z</time>
      </trkpt>
      <trkpt lat="42.97756" lon="1.07769">
        <ele>724</ele>
        <time>2025-09-20T09:23:09.000Z</time>
      </trkpt>
      <trkpt lat="42.97754" lon="1.07768">
        <ele>725</ele>
        <time>2025-09-20T09:23:10.000Z</time>
      </trkpt>
      <trkpt lat="42.97752" lon="1.07766">
        <ele>726</ele>
        <time>2025-09-20T09:23:11.000Z</time>
      </trkpt>
      <trkpt lat="42.9775" lon="1.07765">
        <ele>726</ele>
        <time>2025-09-20T09:23:12.000Z</time>
      </trkpt>
      <trkpt lat="42.97748" lon="1.07763">
        <ele>727</ele>
        <time>2025-09-20T09:23:13.000Z</time>
      </trkpt>
      <trkpt lat="42.97746" lon="1.07762">
        <ele>727</ele>
        <time>2025-09-20T09:23:14.000Z</time>
      </trkpt>
      <trkpt lat="42.97745" lon="1.0776">
        <ele>728</ele>
        <time>2025-09-20T09:23:15.000Z</time>
      </trkpt>
      <trkpt lat="42.97743" lon="1.07758">
        <ele>728</ele>
        <time>2025-09-20T09:23:16.000Z</time>
      </trkpt>
      <trkpt lat="42.97742" lon="1.07756">
        <ele>728</ele>
        <time>2025-09-20T09:23:17.000Z</time>
      </trkpt>
      <trkpt lat="42.9774" lon="1.07754">
        <ele>729</ele>
        <time>2025-09-20T09:23:18.000Z</time>
      </trkpt>
      <trkpt lat="42.97739" lon="1.07752">
        <ele>729</ele>
        <time>2025-09-20T09:23:19.000Z</time>
      </trkpt>
      <trkpt lat="42.97737" lon="1.0775">
        <ele>730</ele>
        <time>2025-09-20T09:23:20.000Z</time>
      </trkpt>
      <trkpt lat="42.97736" lon="1.07748">
        <ele>731</ele>
        <time>2025-09-20T09:23:21.000Z</time>
      </trkpt>
      <trkpt lat="42.97734" lon="1.07747">
        <ele>731</ele>
        <time>2025-09-20T09:23:22.000Z</time>
      </trkpt>
      <trkpt lat="42.97732" lon="1.07745">
        <ele>732</ele>
        <time>2025-09-20T09:23:23.000Z</time>
      </trkpt>
      <trkpt lat="42.97731" lon="1.07743">
        <ele>732</ele>
        <time>2025-09-20T09:23:24.000Z</time>
      </trkpt>
      <trkpt lat="42.97729" lon="1.07741">
        <ele>732</ele>
        <time>2025-09-20T09:23:25.000Z</time>
      </trkpt>
      <trkpt lat="42.97728" lon="1.07739">
        <ele>733</ele>
        <time>2025-09-20T09:23:26.000Z</time>
      </trkpt>
      <trkpt lat="42.97727" lon="1.07736">
        <ele>733</ele>
        <time>2025-09-20T09:23:27.000Z</time>
      </trkpt>
      <trkpt lat="42.97725" lon="1.07735">
        <ele>732</ele>
        <time>2025-09-20T09:23:28.000Z</time>
      </trkpt>
      <trkpt lat="42.97723" lon="1.07733">
        <ele>732</ele>
        <time>2025-09-20T09:23:29.000Z</time>
      </trkpt>
      <trkpt lat="42.97721" lon="1.07731">
        <ele>731</ele>
        <time>2025-09-20T09:23:30.000Z</time>
      </trkpt>
      <trkpt lat="42.97719" lon="1.0773">
        <ele>730</ele>
        <time>2025-09-20T09:23:31.000Z</time>
      </trkpt>
      <trkpt lat="42.97717" lon="1.07729">
        <ele>731</ele>
        <time>2025-09-20T09:23:32.000Z</time>
      </trkpt>
      <trkpt lat="42.97716" lon="1.07727">
        <ele>731</ele>
        <time>2025-09-20T09:23:33.000Z</time>
      </trkpt>
      <trkpt lat="42.97715" lon="1.07724">
        <ele>732</ele>
        <time>2025-09-20T09:23:34.000Z</time>
      </trkpt>
      <trkpt lat="42.97713" lon="1.07722">
        <ele>733</ele>
        <time>2025-09-20T09:23:35.000Z</time>
      </trkpt>
      <trkpt lat="42.97712" lon="1.0772">
        <ele>733</ele>
        <time>2025-09-20T09:23:36.000Z</time>
      </trkpt>
      <trkpt lat="42.9771" lon="1.07718">
        <ele>733</ele>
        <time>2025-09-20T09:23:37.000Z</time>
      </trkpt>
      <trkpt lat="42.97708" lon="1.07716">
        <ele>734</ele>
        <time>2025-09-20T09:23:38.000Z</time>
      </trkpt>
      <trkpt lat="42.97706" lon="1.07714">
        <ele>734</ele>
        <time>2025-09-20T09:23:39.000Z</time>
      </trkpt>
      <trkpt lat="42.97705" lon="1.07712">
        <ele>735</ele>
        <time>2025-09-20T09:23:40.000Z</time>
      </trkpt>
      <trkpt lat="42.97703" lon="1.07711">
        <ele>735</ele>
        <time>2025-09-20T09:23:41.000Z</time>
      </trkpt>
      <trkpt lat="42.97702" lon="1.07709">
        <ele>736</ele>
        <time>2025-09-20T09:23:42.000Z</time>
      </trkpt>
      <trkpt lat="42.97701" lon="1.07706">
        <ele>737</ele>
        <time>2025-09-20T09:23:43.000Z</time>
      </trkpt>
      <trkpt lat="42.977" lon="1.07704">
        <ele>738</ele>
        <time>2025-09-20T09:23:44.000Z</time>
      </trkpt>
      <trkpt lat="42.97698" lon="1.07703">
        <ele>739</ele>
        <time>2025-09-20T09:23:45.000Z</time>
      </trkpt>
      <trkpt lat="42.97697" lon="1.07701">
        <ele>739</ele>
        <time>2025-09-20T09:23:46.000Z</time>
      </trkpt>
      <trkpt lat="42.97696" lon="1.07699">
        <ele>741</ele>
        <time>2025-09-20T09:23:47.000Z</time>
      </trkpt>
      <trkpt lat="42.97695" lon="1.07696">
        <ele>742</ele>
        <time>2025-09-20T09:23:48.000Z</time>
      </trkpt>
      <trkpt lat="42.97693" lon="1.07695">
        <ele>742</ele>
        <time>2025-09-20T09:23:49.000Z</time>
      </trkpt>
      <trkpt lat="42.97691" lon="1.07694">
        <ele>742</ele>
        <time>2025-09-20T09:23:50.000Z</time>
      </trkpt>
      <trkpt lat="42.9769" lon="1.07691">
        <ele>741</ele>
        <time>2025-09-20T09:23:51.000Z</time>
      </trkpt>
      <trkpt lat="42.97688" lon="1.07689">
        <ele>741</ele>
        <time>2025-09-20T09:23:52.000Z</time>
      </trkpt>
      <trkpt lat="42.97688" lon="1.07686">
        <ele>742</ele>
        <time>2025-09-20T09:23:53.000Z</time>
      </trkpt>
      <trkpt lat="42.97687" lon="1.07683">
        <ele>742</ele>
        <time>2025-09-20T09:23:54.000Z</time>
      </trkpt>
      <trkpt lat="42.97686" lon="1.07681">
        <ele>743</ele>
        <time>2025-09-20T09:23:55.000Z</time>
      </trkpt>
      <trkpt lat="42.97685" lon="1.07679">
        <ele>743</ele>
        <time>2025-09-20T09:23:56.000Z</time>
      </trkpt>
      <trkpt lat="42.97683" lon="1.07678">
        <ele>744</ele>
        <time>2025-09-20T09:23:57.000Z</time>
      </trkpt>
      <trkpt lat="42.97682" lon="1.07676">
        <ele>745</ele>
        <time>2025-09-20T09:23:58.000Z</time>
      </trkpt>
      <trkpt lat="42.97681" lon="1.07674">
        <ele>745</ele>
        <time>2025-09-20T09:23:59.000Z</time>
      </trkpt>
      <trkpt lat="42.9768" lon="1.07672">
        <ele>745</ele>
        <time>2025-09-20T09:24:00.000Z</time>
      </trkpt>
      <trkpt lat="42.97678" lon="1.07671">
        <ele>745</ele>
        <time>2025-09-20T09:24:01.000Z</time>
      </trkpt>
      <trkpt lat="42.97677" lon="1.07669">
        <ele>746</ele>
        <time>2025-09-20T09:24:02.000Z</time>
      </trkpt>
      <trkpt lat="42.97675" lon="1.07667">
        <ele>746</ele>
        <time>2025-09-20T09:24:03.000Z</time>
      </trkpt>
      <trkpt lat="42.97674" lon="1.07664">
        <ele>746</ele>
        <time>2025-09-20T09:24:04.000Z</time>
      </trkpt>
      <trkpt lat="42.97672" lon="1.07662">
        <ele>747</ele>
        <time>2025-09-20T09:24:05.000Z</time>
      </trkpt>
      <trkpt lat="42.97671" lon="1.0766">
        <ele>748</ele>
        <time>2025-09-20T09:24:06.000Z</time>
      </trkpt>
      <trkpt lat="42.9767" lon="1.07659">
        <ele>748</ele>
        <time>2025-09-20T09:24:07.000Z</time>
      </trkpt>
      <trkpt lat="42.97669" lon="1.07656">
        <ele>749</ele>
        <time>2025-09-20T09:24:08.000Z</time>
      </trkpt>
      <trkpt lat="42.97668" lon="1.07653">
        <ele>750</ele>
        <time>2025-09-20T09:24:09.000Z</time>
      </trkpt>
      <trkpt lat="42.97666" lon="1.0765">
        <ele>751</ele>
        <time>2025-09-20T09:24:10.000Z</time>
      </trkpt>
      <trkpt lat="42.97664" lon="1.07651">
        <ele>752</ele>
        <time>2025-09-20T09:24:11.000Z</time>
      </trkpt>
      <trkpt lat="42.97662" lon="1.07649">
        <ele>752</ele>
        <time>2025-09-20T09:24:12.000Z</time>
      </trkpt>
      <trkpt lat="42.97661" lon="1.07647">
        <ele>751</ele>
        <time>2025-09-20T09:24:13.000Z</time>
      </trkpt>
      <trkpt lat="42.9766" lon="1.07646">
        <ele>751</ele>
        <time>2025-09-20T09:24:14.000Z</time>
      </trkpt>
      <trkpt lat="42.97659" lon="1.07644">
        <ele>752</ele>
        <time>2025-09-20T09:24:15.000Z</time>
      </trkpt>
      <trkpt lat="42.97658" lon="1.07643">
        <ele>752</ele>
        <time>2025-09-20T09:24:16.000Z</time>
      </trkpt>
      <trkpt lat="42.97657" lon="1.07642">
        <ele>752</ele>
        <time>2025-09-20T09:24:17.000Z</time>
      </trkpt>
      <trkpt lat="42.97655" lon="1.0764">
        <ele>752</ele>
        <time>2025-09-20T09:24:18.000Z</time>
      </trkpt>
      <trkpt lat="42.97654" lon="1.07639">
        <ele>752</ele>
        <time>2025-09-20T09:24:19.000Z</time>
      </trkpt>
      <trkpt lat="42.97652" lon="1.07638">
        <ele>752</ele>
        <time>2025-09-20T09:24:20.000Z</time>
      </trkpt>
      <trkpt lat="42.97651" lon="1.07636">
        <ele>752</ele>
        <time>2025-09-20T09:24:21.000Z</time>
      </trkpt>
      <trkpt lat="42.97649" lon="1.07634">
        <ele>752</ele>
        <time>2025-09-20T09:24:22.000Z</time>
      </trkpt>
      <trkpt lat="42.97647" lon="1.07633">
        <ele>752</ele>
        <time>2025-09-20T09:24:23.000Z</time>
      </trkpt>
      <trkpt lat="42.97646" lon="1.07632">
        <ele>752</ele>
        <time>2025-09-20T09:24:24.000Z</time>
      </trkpt>
      <trkpt lat="42.97644" lon="1.07631">
        <ele>752</ele>
        <time>2025-09-20T09:24:25.000Z</time>
      </trkpt>
      <trkpt lat="42.97643" lon="1.0763">
        <ele>753</ele>
        <time>2025-09-20T09:24:26.000Z</time>
      </trkpt>
      <trkpt lat="42.97641" lon="1.07628">
        <ele>753</ele>
        <time>2025-09-20T09:24:27.000Z</time>
      </trkpt>
      <trkpt lat="42.97639" lon="1.07626">
        <ele>755</ele>
        <time>2025-09-20T09:24:28.000Z</time>
      </trkpt>
      <trkpt lat="42.97637" lon="1.07624">
        <ele>755</ele>
        <time>2025-09-20T09:24:29.000Z</time>
      </trkpt>
      <trkpt lat="42.97635" lon="1.07624">
        <ele>756</ele>
        <time>2025-09-20T09:24:30.000Z</time>
      </trkpt>
      <trkpt lat="42.97634" lon="1.07623">
        <ele>756</ele>
        <time>2025-09-20T09:24:31.000Z</time>
      </trkpt>
      <trkpt lat="42.97632" lon="1.07621">
        <ele>756</ele>
        <time>2025-09-20T09:24:32.000Z</time>
      </trkpt>
      <trkpt lat="42.9763" lon="1.0762">
        <ele>756</ele>
        <time>2025-09-20T09:24:33.000Z</time>
      </trkpt>
      <trkpt lat="42.97628" lon="1.07619">
        <ele>756</ele>
        <time>2025-09-20T09:24:34.000Z</time>
      </trkpt>
      <trkpt lat="42.97627" lon="1.07618">
        <ele>756</ele>
        <time>2025-09-20T09:24:35.000Z</time>
      </trkpt>
      <trkpt lat="42.97626" lon="1.07617">
        <ele>756</ele>
        <time>2025-09-20T09:24:36.000Z</time>
      </trkpt>
      <trkpt lat="42.97625" lon="1.07616">
        <ele>757</ele>
        <time>2025-09-20T09:24:37.000Z</time>
      </trkpt>
      <trkpt lat="42.97624" lon="1.07614">
        <ele>757</ele>
        <time>2025-09-20T09:24:38.000Z</time>
      </trkpt>
      <trkpt lat="42.97623" lon="1.07612">
        <ele>758</ele>
        <time>2025-09-20T09:24:39.000Z</time>
      </trkpt>
      <trkpt lat="42.97621" lon="1.0761">
        <ele>758</ele>
        <time>2025-09-20T09:24:40.000Z</time>
      </trkpt>
      <trkpt lat="42.9762" lon="1.07609">
        <ele>758</ele>
        <time>2025-09-20T09:24:41.000Z</time>
      </trkpt>
      <trkpt lat="42.97618" lon="1.07608">
        <ele>759</ele>
        <time>2025-09-20T09:24:42.000Z</time>
      </trkpt>
      <trkpt lat="42.97617" lon="1.07607">
        <ele>759</ele>
        <time>2025-09-20T09:24:43.000Z</time>
      </trkpt>
      <trkpt lat="42.97616" lon="1.07605">
        <ele>760</ele>
        <time>2025-09-20T09:24:44.000Z</time>
      </trkpt>
      <trkpt lat="42.97614" lon="1.07603">
        <ele>760</ele>
        <time>2025-09-20T09:24:45.000Z</time>
      </trkpt>
      <trkpt lat="42.97613" lon="1.07602">
        <ele>759</ele>
        <time>2025-09-20T09:24:46.000Z</time>
      </trkpt>
      <trkpt lat="42.97611" lon="1.076">
        <ele>760</ele>
        <time>2025-09-20T09:24:47.000Z</time>
      </trkpt>
      <trkpt lat="42.9761" lon="1.07598">
        <ele>760</ele>
        <time>2025-09-20T09:24:48.000Z</time>
      </trkpt>
      <trkpt lat="42.97608" lon="1.07596">
        <ele>760</ele>
        <time>2025-09-20T09:24:49.000Z</time>
      </trkpt>
      <trkpt lat="42.97606" lon="1.07595">
        <ele>761</ele>
        <time>2025-09-20T09:24:50.000Z</time>
      </trkpt>
      <trkpt lat="42.97604" lon="1.07592">
        <ele>761</ele>
        <time>2025-09-20T09:24:51.000Z</time>
      </trkpt>
      <trkpt lat="42.97603" lon="1.0759">
        <ele>761</ele>
        <time>2025-09-20T09:24:52.000Z</time>
      </trkpt>
      <trkpt lat="42.97602" lon="1.07589">
        <ele>761</ele>
        <time>2025-09-20T09:24:53.000Z</time>
      </trkpt>
      <trkpt lat="42.97601" lon="1.07587">
        <ele>762</ele>
        <time>2025-09-20T09:24:54.000Z</time>
      </trkpt>
      <trkpt lat="42.97599" lon="1.07585">
        <ele>763</ele>
        <time>2025-09-20T09:24:55.000Z</time>
      </trkpt>
      <trkpt lat="42.97598" lon="1.07583">
        <ele>763</ele>
        <time>2025-09-20T09:24:56.000Z</time>
      </trkpt>
      <trkpt lat="42.97597" lon="1.07582">
        <ele>763</ele>
        <time>2025-09-20T09:24:57.000Z</time>
      </trkpt>
      <trkpt lat="42.97596" lon="1.07579">
        <ele>763</ele>
        <time>2025-09-20T09:24:58.000Z</time>
      </trkpt>
      <trkpt lat="42.97595" lon="1.07577">
        <ele>763</ele>
        <time>2025-09-20T09:24:59.000Z</time>
      </trkpt>
      <trkpt lat="42.97594" lon="1.07576">
        <ele>763</ele>
        <time>2025-09-20T09:25:00.000Z</time>
      </trkpt>
      <trkpt lat="42.97593" lon="1.07575">
        <ele>763</ele>
        <time>2025-09-20T09:25:01.000Z</time>
      </trkpt>
      <trkpt lat="42.97591" lon="1.07573">
        <ele>764</ele>
        <time>2025-09-20T09:25:02.000Z</time>
      </trkpt>
      <trkpt lat="42.97589" lon="1.07571">
        <ele>764</ele>
        <time>2025-09-20T09:25:03.000Z</time>
      </trkpt>
      <trkpt lat="42.97588" lon="1.07569">
        <ele>764</ele>
        <time>2025-09-20T09:25:04.000Z</time>
      </trkpt>
      <trkpt lat="42.97585" lon="1.07566">
        <ele>765</ele>
        <time>2025-09-20T09:25:05.000Z</time>
      </trkpt>
      <trkpt lat="42.97584" lon="1.07565">
        <ele>766</ele>
        <time>2025-09-20T09:25:06.000Z</time>
      </trkpt>
      <trkpt lat="42.97582" lon="1.07563">
        <ele>767</ele>
        <time>2025-09-20T09:25:07.000Z</time>
      </trkpt>
      <trkpt lat="42.9758" lon="1.07562">
        <ele>768</ele>
        <time>2025-09-20T09:25:08.000Z</time>
      </trkpt>
      <trkpt lat="42.97579" lon="1.07561">
        <ele>768</ele>
        <time>2025-09-20T09:25:09.000Z</time>
      </trkpt>
      <trkpt lat="42.97577" lon="1.07559">
        <ele>768</ele>
        <time>2025-09-20T09:25:10.000Z</time>
      </trkpt>
      <trkpt lat="42.97576" lon="1.07557">
        <ele>769</ele>
        <time>2025-09-20T09:25:11.000Z</time>
      </trkpt>
      <trkpt lat="42.97574" lon="1.07556">
        <ele>770</ele>
        <time>2025-09-20T09:25:12.000Z</time>
      </trkpt>
      <trkpt lat="42.97573" lon="1.07554">
        <ele>771</ele>
        <time>2025-09-20T09:25:13.000Z</time>
      </trkpt>
      <trkpt lat="42.97572" lon="1.07552">
        <ele>771</ele>
        <time>2025-09-20T09:25:14.000Z</time>
      </trkpt>
      <trkpt lat="42.97571" lon="1.0755">
        <ele>772</ele>
        <time>2025-09-20T09:25:15.000Z</time>
      </trkpt>
      <trkpt lat="42.9757" lon="1.07548">
        <ele>772</ele>
        <time>2025-09-20T09:25:16.000Z</time>
      </trkpt>
      <trkpt lat="42.97569" lon="1.07546">
        <ele>772</ele>
        <time>2025-09-20T09:25:17.000Z</time>
      </trkpt>
      <trkpt lat="42.97567" lon="1.07544">
        <ele>772</ele>
        <time>2025-09-20T09:25:18.000Z</time>
      </trkpt>
      <trkpt lat="42.97566" lon="1.07542">
        <ele>772</ele>
        <time>2025-09-20T09:25:19.000Z</time>
      </trkpt>
      <trkpt lat="42.97565" lon="1.0754">
        <ele>772</ele>
        <time>2025-09-20T09:25:20.000Z</time>
      </trkpt>
      <trkpt lat="42.97564" lon="1.07539">
        <ele>772</ele>
        <time>2025-09-20T09:25:21.000Z</time>
      </trkpt>
      <trkpt lat="42.97562" lon="1.07537">
        <ele>773</ele>
        <time>2025-09-20T09:25:22.000Z</time>
      </trkpt>
      <trkpt lat="42.97561" lon="1.07535">
        <ele>773</ele>
        <time>2025-09-20T09:25:23.000Z</time>
      </trkpt>
      <trkpt lat="42.9756" lon="1.07533">
        <ele>774</ele>
        <time>2025-09-20T09:25:24.000Z</time>
      </trkpt>
      <trkpt lat="42.97559" lon="1.07532">
        <ele>776</ele>
        <time>2025-09-20T09:25:25.000Z</time>
      </trkpt>
      <trkpt lat="42.97558" lon="1.0753">
        <ele>776</ele>
        <time>2025-09-20T09:25:26.000Z</time>
      </trkpt>
      <trkpt lat="42.97556" lon="1.07529">
        <ele>776</ele>
        <time>2025-09-20T09:25:27.000Z</time>
      </trkpt>
      <trkpt lat="42.97555" lon="1.07529">
        <ele>777</ele>
        <time>2025-09-20T09:25:28.000Z</time>
      </trkpt>
      <trkpt lat="42.97553" lon="1.07529">
        <ele>777</ele>
        <time>2025-09-20T09:25:29.000Z</time>
      </trkpt>
      <trkpt lat="42.97552" lon="1.07527">
        <ele>778</ele>
        <time>2025-09-20T09:25:30.000Z</time>
      </trkpt>
      <trkpt lat="42.97551" lon="1.07526">
        <ele>778</ele>
        <time>2025-09-20T09:25:31.000Z</time>
      </trkpt>
      <trkpt lat="42.97549" lon="1.07525">
        <ele>779</ele>
        <time>2025-09-20T09:25:32.000Z</time>
      </trkpt>
      <trkpt lat="42.97548" lon="1.07523">
        <ele>779</ele>
        <time>2025-09-20T09:25:33.000Z</time>
      </trkpt>
      <trkpt lat="42.97546" lon="1.07521">
        <ele>779</ele>
        <time>2025-09-20T09:25:34.000Z</time>
      </trkpt>
      <trkpt lat="42.97544" lon="1.07519">
        <ele>779</ele>
        <time>2025-09-20T09:25:35.000Z</time>
      </trkpt>
      <trkpt lat="42.97543" lon="1.07517">
        <ele>779</ele>
        <time>2025-09-20T09:25:36.000Z</time>
      </trkpt>
      <trkpt lat="42.97541" lon="1.07516">
        <ele>779</ele>
        <time>2025-09-20T09:25:37.000Z</time>
      </trkpt>
      <trkpt lat="42.9754" lon="1.07514">
        <ele>779</ele>
        <time>2025-09-20T09:25:38.000Z</time>
      </trkpt>
      <trkpt lat="42.97539" lon="1.07512">
        <ele>780</ele>
        <time>2025-09-20T09:25:39.000Z</time>
      </trkpt>
      <trkpt lat="42.97538" lon="1.07511">
        <ele>780</ele>
        <time>2025-09-20T09:25:40.000Z</time>
      </trkpt>
      <trkpt lat="42.97537" lon="1.07509">
        <ele>780</ele>
        <time>2025-09-20T09:25:41.000Z</time>
      </trkpt>
      <trkpt lat="42.97536" lon="1.07507">
        <ele>781</ele>
        <time>2025-09-20T09:25:42.000Z</time>
      </trkpt>
      <trkpt lat="42.97534" lon="1.07506">
        <ele>782</ele>
        <time>2025-09-20T09:25:43.000Z</time>
      </trkpt>
      <trkpt lat="42.97533" lon="1.07504">
        <ele>782</ele>
        <time>2025-09-20T09:25:44.000Z</time>
      </trkpt>
      <trkpt lat="42.97531" lon="1.07502">
        <ele>782</ele>
        <time>2025-09-20T09:25:45.000Z</time>
      </trkpt>
      <trkpt lat="42.97529" lon="1.07501">
        <ele>783</ele>
        <time>2025-09-20T09:25:46.000Z</time>
      </trkpt>
      <trkpt lat="42.97528" lon="1.07499">
        <ele>783</ele>
        <time>2025-09-20T09:25:47.000Z</time>
      </trkpt>
      <trkpt lat="42.97527" lon="1.07497">
        <ele>782</ele>
        <time>2025-09-20T09:25:48.000Z</time>
      </trkpt>
      <trkpt lat="42.97525" lon="1.07496">
        <ele>782</ele>
        <time>2025-09-20T09:25:49.000Z</time>
      </trkpt>
      <trkpt lat="42.97524" lon="1.07494">
        <ele>783</ele>
        <time>2025-09-20T09:25:50.000Z</time>
      </trkpt>
      <trkpt lat="42.97523" lon="1.07492">
        <ele>784</ele>
        <time>2025-09-20T09:25:51.000Z</time>
      </trkpt>
      <trkpt lat="42.97522" lon="1.07491">
        <ele>783</ele>
        <time>2025-09-20T09:25:52.000Z</time>
      </trkpt>
      <trkpt lat="42.97521" lon="1.0749">
        <ele>784</ele>
        <time>2025-09-20T09:25:53.000Z</time>
      </trkpt>
      <trkpt lat="42.97518" lon="1.07488">
        <ele>784</ele>
        <time>2025-09-20T09:25:54.000Z</time>
      </trkpt>
      <trkpt lat="42.97517" lon="1.07486">
        <ele>784</ele>
        <time>2025-09-20T09:25:55.000Z</time>
      </trkpt>
      <trkpt lat="42.97515" lon="1.07484">
        <ele>785</ele>
        <time>2025-09-20T09:25:56.000Z</time>
      </trkpt>
      <trkpt lat="42.97514" lon="1.07483">
        <ele>785</ele>
        <time>2025-09-20T09:25:57.000Z</time>
      </trkpt>
      <trkpt lat="42.97513" lon="1.07481">
        <ele>785</ele>
        <time>2025-09-20T09:25:58.000Z</time>
      </trkpt>
      <trkpt lat="42.97511" lon="1.0748">
        <ele>786</ele>
        <time>2025-09-20T09:25:59.000Z</time>
      </trkpt>
      <trkpt lat="42.9751" lon="1.07479">
        <ele>786</ele>
        <time>2025-09-20T09:26:00.000Z</time>
      </trkpt>
      <trkpt lat="42.97508" lon="1.07477">
        <ele>787</ele>
        <time>2025-09-20T09:26:01.000Z</time>
      </trkpt>
      <trkpt lat="42.97507" lon="1.07475">
        <ele>787</ele>
        <time>2025-09-20T09:26:02.000Z</time>
      </trkpt>
      <trkpt lat="42.97506" lon="1.07474">
        <ele>788</ele>
        <time>2025-09-20T09:26:03.000Z</time>
      </trkpt>
      <trkpt lat="42.97504" lon="1.07472">
        <ele>788</ele>
        <time>2025-09-20T09:26:04.000Z</time>
      </trkpt>
      <trkpt lat="42.97503" lon="1.07471">
        <ele>789</ele>
        <time>2025-09-20T09:26:05.000Z</time>
      </trkpt>
      <trkpt lat="42.97502" lon="1.07469">
        <ele>789</ele>
        <time>2025-09-20T09:26:06.000Z</time>
      </trkpt>
      <trkpt lat="42.97501" lon="1.07466">
        <ele>789</ele>
        <time>2025-09-20T09:26:07.000Z</time>
      </trkpt>
      <trkpt lat="42.97501" lon="1.07465">
        <ele>790</ele>
        <time>2025-09-20T09:26:08.000Z</time>
      </trkpt>
      <trkpt lat="42.975" lon="1.07463">
        <ele>791</ele>
        <time>2025-09-20T09:26:09.000Z</time>
      </trkpt>
      <trkpt lat="42.97499" lon="1.07461">
        <ele>791</ele>
        <time>2025-09-20T09:26:10.000Z</time>
      </trkpt>
      <trkpt lat="42.97498" lon="1.07459">
        <ele>792</ele>
        <time>2025-09-20T09:26:11.000Z</time>
      </trkpt>
      <trkpt lat="42.97497" lon="1.07458">
        <ele>792</ele>
        <time>2025-09-20T09:26:12.000Z</time>
      </trkpt>
      <trkpt lat="42.97495" lon="1.07455">
        <ele>793</ele>
        <time>2025-09-20T09:26:13.000Z</time>
      </trkpt>
      <trkpt lat="42.97494" lon="1.07453">
        <ele>793</ele>
        <time>2025-09-20T09:26:14.000Z</time>
      </trkpt>
      <trkpt lat="42.97492" lon="1.07451">
        <ele>793</ele>
        <time>2025-09-20T09:26:15.000Z</time>
      </trkpt>
      <trkpt lat="42.9749" lon="1.07448">
        <ele>794</ele>
        <time>2025-09-20T09:26:16.000Z</time>
      </trkpt>
      <trkpt lat="42.97489" lon="1.07447">
        <ele>795</ele>
        <time>2025-09-20T09:26:17.000Z</time>
      </trkpt>
      <trkpt lat="42.97488" lon="1.07445">
        <ele>795</ele>
        <time>2025-09-20T09:26:18.000Z</time>
      </trkpt>
      <trkpt lat="42.97486" lon="1.07443">
        <ele>795</ele>
        <time>2025-09-20T09:26:19.000Z</time>
      </trkpt>
      <trkpt lat="42.97485" lon="1.07441">
        <ele>796</ele>
        <time>2025-09-20T09:26:20.000Z</time>
      </trkpt>
      <trkpt lat="42.97484" lon="1.07438">
        <ele>796</ele>
        <time>2025-09-20T09:26:21.000Z</time>
      </trkpt>
      <trkpt lat="42.97482" lon="1.07436">
        <ele>796</ele>
        <time>2025-09-20T09:26:22.000Z</time>
      </trkpt>
      <trkpt lat="42.97481" lon="1.07434">
        <ele>797</ele>
        <time>2025-09-20T09:26:23.000Z</time>
      </trkpt>
      <trkpt lat="42.9748" lon="1.07432">
        <ele>797</ele>
        <time>2025-09-20T09:26:24.000Z</time>
      </trkpt>
      <trkpt lat="42.97479" lon="1.0743">
        <ele>798</ele>
        <time>2025-09-20T09:26:25.000Z</time>
      </trkpt>
      <trkpt lat="42.97478" lon="1.07428">
        <ele>798</ele>
        <time>2025-09-20T09:26:26.000Z</time>
      </trkpt>
      <trkpt lat="42.97477" lon="1.07427">
        <ele>798</ele>
        <time>2025-09-20T09:26:27.000Z</time>
      </trkpt>
      <trkpt lat="42.97475" lon="1.07425">
        <ele>797</ele>
        <time>2025-09-20T09:26:28.000Z</time>
      </trkpt>
      <trkpt lat="42.97475" lon="1.07424">
        <ele>797</ele>
        <time>2025-09-20T09:26:29.000Z</time>
      </trkpt>
      <trkpt lat="42.97475" lon="1.07421">
        <ele>797</ele>
        <time>2025-09-20T09:26:30.000Z</time>
      </trkpt>
      <trkpt lat="42.97474" lon="1.07419">
        <ele>798</ele>
        <time>2025-09-20T09:26:31.000Z</time>
      </trkpt>
      <trkpt lat="42.97473" lon="1.07417">
        <ele>798</ele>
        <time>2025-09-20T09:26:32.000Z</time>
      </trkpt>
      <trkpt lat="42.97472" lon="1.07414">
        <ele>798</ele>
        <time>2025-09-20T09:26:33.000Z</time>
      </trkpt>
      <trkpt lat="42.97471" lon="1.07413">
        <ele>798</ele>
        <time>2025-09-20T09:26:34.000Z</time>
      </trkpt>
      <trkpt lat="42.9747" lon="1.07411">
        <ele>798</ele>
        <time>2025-09-20T09:26:35.000Z</time>
      </trkpt>
      <trkpt lat="42.97469" lon="1.07408">
        <ele>798</ele>
        <time>2025-09-20T09:26:36.000Z</time>
      </trkpt>
      <trkpt lat="42.97468" lon="1.07406">
        <ele>798</ele>
        <time>2025-09-20T09:26:37.000Z</time>
      </trkpt>
      <trkpt lat="42.97467" lon="1.07404">
        <ele>798</ele>
        <time>2025-09-20T09:26:38.000Z</time>
      </trkpt>
      <trkpt lat="42.97465" lon="1.07402">
        <ele>798</ele>
        <time>2025-09-20T09:26:39.000Z</time>
      </trkpt>
      <trkpt lat="42.97464" lon="1.074">
        <ele>799</ele>
        <time>2025-09-20T09:26:40.000Z</time>
      </trkpt>
      <trkpt lat="42.97463" lon="1.07398">
        <ele>799</ele>
        <time>2025-09-20T09:26:41.000Z</time>
      </trkpt>
      <trkpt lat="42.97461" lon="1.07396">
        <ele>800</ele>
        <time>2025-09-20T09:26:42.000Z</time>
      </trkpt>
      <trkpt lat="42.97459" lon="1.07394">
        <ele>800</ele>
        <time>2025-09-20T09:26:43.000Z</time>
      </trkpt>
      <trkpt lat="42.97458" lon="1.07392">
        <ele>801</ele>
        <time>2025-09-20T09:26:44.000Z</time>
      </trkpt>
      <trkpt lat="42.97456" lon="1.07389">
        <ele>801</ele>
        <time>2025-09-20T09:26:45.000Z</time>
      </trkpt>
      <trkpt lat="42.97455" lon="1.07386">
        <ele>802</ele>
        <time>2025-09-20T09:26:46.000Z</time>
      </trkpt>
      <trkpt lat="42.97454" lon="1.07384">
        <ele>802</ele>
        <time>2025-09-20T09:26:47.000Z</time>
      </trkpt>
      <trkpt lat="42.97453" lon="1.07382">
        <ele>802</ele>
        <time>2025-09-20T09:26:48.000Z</time>
      </trkpt>
      <trkpt lat="42.97451" lon="1.07379">
        <ele>803</ele>
        <time>2025-09-20T09:26:49.000Z</time>
      </trkpt>
      <trkpt lat="42.9745" lon="1.07377">
        <ele>804</ele>
        <time>2025-09-20T09:26:50.000Z</time>
      </trkpt>
      <trkpt lat="42.97448" lon="1.07375">
        <ele>804</ele>
        <time>2025-09-20T09:26:51.000Z</time>
      </trkpt>
      <trkpt lat="42.97447" lon="1.07373">
        <ele>804</ele>
        <time>2025-09-20T09:26:52.000Z</time>
      </trkpt>
      <trkpt lat="42.97446" lon="1.07371">
        <ele>805</ele>
        <time>2025-09-20T09:26:53.000Z</time>
      </trkpt>
      <trkpt lat="42.97444" lon="1.0737">
        <ele>805</ele>
        <time>2025-09-20T09:26:54.000Z</time>
      </trkpt>
      <trkpt lat="42.97443" lon="1.07369">
        <ele>805</ele>
        <time>2025-09-20T09:26:55.000Z</time>
      </trkpt>
      <trkpt lat="42.97441" lon="1.07367">
        <ele>805</ele>
        <time>2025-09-20T09:26:56.000Z</time>
      </trkpt>
      <trkpt lat="42.9744" lon="1.07366">
        <ele>805</ele>
        <time>2025-09-20T09:26:57.000Z</time>
      </trkpt>
      <trkpt lat="42.97439" lon="1.07364">
        <ele>805</ele>
        <time>2025-09-20T09:26:58.000Z</time>
      </trkpt>
      <trkpt lat="42.97438" lon="1.07362">
        <ele>805</ele>
        <time>2025-09-20T09:26:59.000Z</time>
      </trkpt>
      <trkpt lat="42.97436" lon="1.07361">
        <ele>805</ele>
        <time>2025-09-20T09:27:00.000Z</time>
      </trkpt>
      <trkpt lat="42.97435" lon="1.0736">
        <ele>806</ele>
        <time>2025-09-20T09:27:01.000Z</time>
      </trkpt>
      <trkpt lat="42.97434" lon="1.07358">
        <ele>806</ele>
        <time>2025-09-20T09:27:02.000Z</time>
      </trkpt>
      <trkpt lat="42.97432" lon="1.07357">
        <ele>807</ele>
        <time>2025-09-20T09:27:03.000Z</time>
      </trkpt>
      <trkpt lat="42.97431" lon="1.07356">
        <ele>807</ele>
        <time>2025-09-20T09:27:04.000Z</time>
      </trkpt>
      <trkpt lat="42.97429" lon="1.07354">
        <ele>807</ele>
        <time>2025-09-20T09:27:05.000Z</time>
      </trkpt>
      <trkpt lat="42.97428" lon="1.07352">
        <ele>808</ele>
        <time>2025-09-20T09:27:06.000Z</time>
      </trkpt>
      <trkpt lat="42.97426" lon="1.07351">
        <ele>808</ele>
        <time>2025-09-20T09:27:07.000Z</time>
      </trkpt>
      <trkpt lat="42.97425" lon="1.07349">
        <ele>809</ele>
        <time>2025-09-20T09:27:08.000Z</time>
      </trkpt>
      <trkpt lat="42.97423" lon="1.07347">
        <ele>809</ele>
        <time>2025-09-20T09:27:09.000Z</time>
      </trkpt>
      <trkpt lat="42.97421" lon="1.07345">
        <ele>809</ele>
        <time>2025-09-20T09:27:10.000Z</time>
      </trkpt>
      <trkpt lat="42.9742" lon="1.07343">
        <ele>810</ele>
        <time>2025-09-20T09:27:11.000Z</time>
      </trkpt>
      <trkpt lat="42.97418" lon="1.07342">
        <ele>811</ele>
        <time>2025-09-20T09:27:12.000Z</time>
      </trkpt>
      <trkpt lat="42.97416" lon="1.0734">
        <ele>811</ele>
        <time>2025-09-20T09:27:13.000Z</time>
      </trkpt>
      <trkpt lat="42.97415" lon="1.07339">
        <ele>812</ele>
        <time>2025-09-20T09:27:14.000Z</time>
      </trkpt>
      <trkpt lat="42.97413" lon="1.07337">
        <ele>813</ele>
        <time>2025-09-20T09:27:15.000Z</time>
      </trkpt>
      <trkpt lat="42.97411" lon="1.07336">
        <ele>814</ele>
        <time>2025-09-20T09:27:16.000Z</time>
      </trkpt>
      <trkpt lat="42.9741" lon="1.07335">
        <ele>814</ele>
        <time>2025-09-20T09:27:17.000Z</time>
      </trkpt>
      <trkpt lat="42.97408" lon="1.07333">
        <ele>815</ele>
        <time>2025-09-20T09:27:18.000Z</time>
      </trkpt>
      <trkpt lat="42.97406" lon="1.07331">
        <ele>814</ele>
        <time>2025-09-20T09:27:19.000Z</time>
      </trkpt>
      <trkpt lat="42.97404" lon="1.0733">
        <ele>815</ele>
        <time>2025-09-20T09:27:20.000Z</time>
      </trkpt>
      <trkpt lat="42.97403" lon="1.07328">
        <ele>816</ele>
        <time>2025-09-20T09:27:21.000Z</time>
      </trkpt>
      <trkpt lat="42.97402" lon="1.07327">
        <ele>816</ele>
        <time>2025-09-20T09:27:22.000Z</time>
      </trkpt>
      <trkpt lat="42.974" lon="1.07325">
        <ele>816</ele>
        <time>2025-09-20T09:27:23.000Z</time>
      </trkpt>
      <trkpt lat="42.97399" lon="1.07323">
        <ele>817</ele>
        <time>2025-09-20T09:27:24.000Z</time>
      </trkpt>
      <trkpt lat="42.97398" lon="1.07321">
        <ele>818</ele>
        <time>2025-09-20T09:27:25.000Z</time>
      </trkpt>
      <trkpt lat="42.97396" lon="1.07319">
        <ele>817</ele>
        <time>2025-09-20T09:27:26.000Z</time>
      </trkpt>
      <trkpt lat="42.97394" lon="1.07318">
        <ele>817</ele>
        <time>2025-09-20T09:27:27.000Z</time>
      </trkpt>
      <trkpt lat="42.97393" lon="1.07317">
        <ele>817</ele>
        <time>2025-09-20T09:27:28.000Z</time>
      </trkpt>
      <trkpt lat="42.97391" lon="1.07315">
        <ele>817</ele>
        <time>2025-09-20T09:27:29.000Z</time>
      </trkpt>
      <trkpt lat="42.97389" lon="1.07313">
        <ele>817</ele>
        <time>2025-09-20T09:27:30.000Z</time>
      </trkpt>
      <trkpt lat="42.97388" lon="1.07312">
        <ele>818</ele>
        <time>2025-09-20T09:27:31.000Z</time>
      </trkpt>
      <trkpt lat="42.97386" lon="1.07309">
        <ele>819</ele>
        <time>2025-09-20T09:27:32.000Z</time>
      </trkpt>
      <trkpt lat="42.97385" lon="1.07308">
        <ele>819</ele>
        <time>2025-09-20T09:27:33.000Z</time>
      </trkpt>
      <trkpt lat="42.97382" lon="1.07305">
        <ele>820</ele>
        <time>2025-09-20T09:27:34.000Z</time>
      </trkpt>
      <trkpt lat="42.97381" lon="1.07304">
        <ele>820</ele>
        <time>2025-09-20T09:27:35.000Z</time>
      </trkpt>
      <trkpt lat="42.97379" lon="1.07302">
        <ele>820</ele>
        <time>2025-09-20T09:27:36.000Z</time>
      </trkpt>
      <trkpt lat="42.97376" lon="1.07302">
        <ele>821</ele>
        <time>2025-09-20T09:27:37.000Z</time>
      </trkpt>
      <trkpt lat="42.97374" lon="1.07301">
        <ele>821</ele>
        <time>2025-09-20T09:27:38.000Z</time>
      </trkpt>
      <trkpt lat="42.97373" lon="1.073">
        <ele>822</ele>
        <time>2025-09-20T09:27:39.000Z</time>
      </trkpt>
      <trkpt lat="42.97371" lon="1.07299">
        <ele>822</ele>
        <time>2025-09-20T09:27:40.000Z</time>
      </trkpt>
      <trkpt lat="42.97368" lon="1.07298">
        <ele>822</ele>
        <time>2025-09-20T09:27:41.000Z</time>
      </trkpt>
      <trkpt lat="42.97366" lon="1.07297">
        <ele>823</ele>
        <time>2025-09-20T09:27:42.000Z</time>
      </trkpt>
      <trkpt lat="42.97364" lon="1.07296">
        <ele>823</ele>
        <time>2025-09-20T09:27:43.000Z</time>
      </trkpt>
      <trkpt lat="42.97362" lon="1.07295">
        <ele>823</ele>
        <time>2025-09-20T09:27:44.000Z</time>
      </trkpt>
      <trkpt lat="42.9736" lon="1.07294">
        <ele>823</ele>
        <time>2025-09-20T09:27:45.000Z</time>
      </trkpt>
      <trkpt lat="42.97358" lon="1.07293">
        <ele>824</ele>
        <time>2025-09-20T09:27:46.000Z</time>
      </trkpt>
      <trkpt lat="42.97356" lon="1.07292">
        <ele>823</ele>
        <time>2025-09-20T09:27:47.000Z</time>
      </trkpt>
      <trkpt lat="42.97354" lon="1.07291">
        <ele>824</ele>
        <time>2025-09-20T09:27:48.000Z</time>
      </trkpt>
      <trkpt lat="42.97352" lon="1.0729">
        <ele>824</ele>
        <time>2025-09-20T09:27:49.000Z</time>
      </trkpt>
      <trkpt lat="42.9735" lon="1.07289">
        <ele>824</ele>
        <time>2025-09-20T09:27:50.000Z</time>
      </trkpt>
      <trkpt lat="42.97348" lon="1.07287">
        <ele>825</ele>
        <time>2025-09-20T09:27:51.000Z</time>
      </trkpt>
      <trkpt lat="42.97347" lon="1.07286">
        <ele>826</ele>
        <time>2025-09-20T09:27:52.000Z</time>
      </trkpt>
      <trkpt lat="42.97346" lon="1.07285">
        <ele>826</ele>
        <time>2025-09-20T09:27:53.000Z</time>
      </trkpt>
      <trkpt lat="42.97344" lon="1.07283">
        <ele>827</ele>
        <time>2025-09-20T09:27:54.000Z</time>
      </trkpt>
      <trkpt lat="42.97343" lon="1.07282">
        <ele>828</ele>
        <time>2025-09-20T09:27:55.000Z</time>
      </trkpt>
      <trkpt lat="42.97342" lon="1.07282">
        <ele>829</ele>
        <time>2025-09-20T09:27:56.000Z</time>
      </trkpt>
      <trkpt lat="42.9734" lon="1.07282">
        <ele>829</ele>
        <time>2025-09-20T09:27:57.000Z</time>
      </trkpt>
      <trkpt lat="42.97338" lon="1.07282">
        <ele>829</ele>
        <time>2025-09-20T09:27:58.000Z</time>
      </trkpt>
      <trkpt lat="42.97337" lon="1.07282">
        <ele>829</ele>
        <time>2025-09-20T09:27:59.000Z</time>
      </trkpt>
      <trkpt lat="42.97335" lon="1.07283">
        <ele>829</ele>
        <time>2025-09-20T09:28:00.000Z</time>
      </trkpt>
      <trkpt lat="42.97333" lon="1.07284">
        <ele>829</ele>
        <time>2025-09-20T09:28:01.000Z</time>
      </trkpt>
      <trkpt lat="42.97331" lon="1.07283">
        <ele>829</ele>
        <time>2025-09-20T09:28:02.000Z</time>
      </trkpt>
      <trkpt lat="42.97329" lon="1.07283">
        <ele>830</ele>
        <time>2025-09-20T09:28:03.000Z</time>
      </trkpt>
      <trkpt lat="42.97327" lon="1.07282">
        <ele>829</ele>
        <time>2025-09-20T09:28:04.000Z</time>
      </trkpt>
      <trkpt lat="42.97325" lon="1.07282">
        <ele>829</ele>
        <time>2025-09-20T09:28:05.000Z</time>
      </trkpt>
      <trkpt lat="42.97322" lon="1.07283">
        <ele>829</ele>
        <time>2025-09-20T09:28:06.000Z</time>
      </trkpt>
      <trkpt lat="42.9732" lon="1.07283">
        <ele>828</ele>
        <time>2025-09-20T09:28:07.000Z</time>
      </trkpt>
      <trkpt lat="42.97318" lon="1.07283">
        <ele>828</ele>
        <time>2025-09-20T09:28:08.000Z</time>
      </trkpt>
      <trkpt lat="42.97317" lon="1.07282">
        <ele>829</ele>
        <time>2025-09-20T09:28:09.000Z</time>
      </trkpt>
      <trkpt lat="42.97315" lon="1.07282">
        <ele>830</ele>
        <time>2025-09-20T09:28:10.000Z</time>
      </trkpt>
      <trkpt lat="42.97313" lon="1.07282">
        <ele>829</ele>
        <time>2025-09-20T09:28:11.000Z</time>
      </trkpt>
      <trkpt lat="42.97312" lon="1.07282">
        <ele>830</ele>
        <time>2025-09-20T09:28:12.000Z</time>
      </trkpt>
      <trkpt lat="42.9731" lon="1.07283">
        <ele>830</ele>
        <time>2025-09-20T09:28:13.000Z</time>
      </trkpt>
      <trkpt lat="42.97308" lon="1.07282">
        <ele>829</ele>
        <time>2025-09-20T09:28:14.000Z</time>
      </trkpt>
      <trkpt lat="42.97306" lon="1.07282">
        <ele>829</ele>
        <time>2025-09-20T09:28:15.000Z</time>
      </trkpt>
      <trkpt lat="42.97304" lon="1.07281">
        <ele>829</ele>
        <time>2025-09-20T09:28:16.000Z</time>
      </trkpt>
      <trkpt lat="42.97302" lon="1.07281">
        <ele>829</ele>
        <time>2025-09-20T09:28:17.000Z</time>
      </trkpt>
      <trkpt lat="42.97299" lon="1.07281">
        <ele>829</ele>
        <time>2025-09-20T09:28:18.000Z</time>
      </trkpt>
      <trkpt lat="42.97297" lon="1.0728">
        <ele>829</ele>
        <time>2025-09-20T09:28:19.000Z</time>
      </trkpt>
      <trkpt lat="42.97293" lon="1.07279">
        <ele>828</ele>
        <time>2025-09-20T09:28:20.000Z</time>
      </trkpt>
      <trkpt lat="42.9729" lon="1.07276">
        <ele>829</ele>
        <time>2025-09-20T09:28:21.000Z</time>
      </trkpt>
      <trkpt lat="42.97289" lon="1.0727">
        <ele>830</ele>
        <time>2025-09-20T09:28:22.000Z</time>
      </trkpt>
      <trkpt lat="42.97286" lon="1.07265">
        <ele>830</ele>
        <time>2025-09-20T09:28:23.000Z</time>
      </trkpt>
      <trkpt lat="42.97284" lon="1.07258">
        <ele>830</ele>
        <time>2025-09-20T09:28:24.000Z</time>
      </trkpt>
      <trkpt lat="42.97284" lon="1.07253">
        <ele>830</ele>
        <time>2025-09-20T09:28:25.000Z</time>
      </trkpt>
      <trkpt lat="42.97284" lon="1.0725">
        <ele>830</ele>
        <time>2025-09-20T09:28:26.000Z</time>
      </trkpt>
      <trkpt lat="42.97284" lon="1.07248">
        <ele>830</ele>
        <time>2025-09-20T09:28:27.000Z</time>
      </trkpt>
      <trkpt lat="42.97284" lon="1.07246">
        <ele>830</ele>
        <time>2025-09-20T09:28:28.000Z</time>
      </trkpt>
      <trkpt lat="42.97283" lon="1.07244">
        <ele>830</ele>
        <time>2025-09-20T09:28:29.000Z</time>
      </trkpt>
      <trkpt lat="42.97283" lon="1.07242">
        <ele>830</ele>
        <time>2025-09-20T09:28:30.000Z</time>
      </trkpt>
      <trkpt lat="42.97283" lon="1.07239">
        <ele>830</ele>
        <time>2025-09-20T09:28:31.000Z</time>
      </trkpt>
      <trkpt lat="42.97283" lon="1.07237">
        <ele>829</ele>
        <time>2025-09-20T09:28:32.000Z</time>
      </trkpt>
      <trkpt lat="42.97283" lon="1.07235">
        <ele>830</ele>
        <time>2025-09-20T09:28:33.000Z</time>
      </trkpt>
      <trkpt lat="42.97282" lon="1.07235">
        <ele>830</ele>
        <time>2025-09-20T09:28:34.000Z</time>
      </trkpt>
      <trkpt lat="42.97281" lon="1.07233">
        <ele>831</ele>
        <time>2025-09-20T09:28:35.000Z</time>
      </trkpt>
      <trkpt lat="42.9728" lon="1.07232">
        <ele>831</ele>
        <time>2025-09-20T09:28:36.000Z</time>
      </trkpt>
      <trkpt lat="42.97279" lon="1.07231">
        <ele>831</ele>
        <time>2025-09-20T09:28:37.000Z</time>
      </trkpt>
      <trkpt lat="42.97278" lon="1.07229">
        <ele>832</ele>
        <time>2025-09-20T09:28:38.000Z</time>
      </trkpt>
      <trkpt lat="42.97276" lon="1.07226">
        <ele>832</ele>
        <time>2025-09-20T09:28:39.000Z</time>
      </trkpt>
      <trkpt lat="42.97274" lon="1.07225">
        <ele>832</ele>
        <time>2025-09-20T09:28:40.000Z</time>
      </trkpt>
      <trkpt lat="42.97273" lon="1.07222">
        <ele>831</ele>
        <time>2025-09-20T09:28:41.000Z</time>
      </trkpt>
      <trkpt lat="42.97272" lon="1.0722">
        <ele>831</ele>
        <time>2025-09-20T09:28:42.000Z</time>
      </trkpt>
      <trkpt lat="42.97272" lon="1.07217">
        <ele>832</ele>
        <time>2025-09-20T09:28:43.000Z</time>
      </trkpt>
      <trkpt lat="42.9727" lon="1.07216">
        <ele>832</ele>
        <time>2025-09-20T09:28:44.000Z</time>
      </trkpt>
      <trkpt lat="42.97269" lon="1.07214">
        <ele>833</ele>
        <time>2025-09-20T09:28:45.000Z</time>
      </trkpt>
      <trkpt lat="42.97269" lon="1.07213">
        <ele>833</ele>
        <time>2025-09-20T09:28:46.000Z</time>
      </trkpt>
      <trkpt lat="42.97267" lon="1.07211">
        <ele>834</ele>
        <time>2025-09-20T09:28:47.000Z</time>
      </trkpt>
      <trkpt lat="42.97266" lon="1.07209">
        <ele>834</ele>
        <time>2025-09-20T09:28:48.000Z</time>
      </trkpt>
      <trkpt lat="42.97264" lon="1.07207">
        <ele>833</ele>
        <time>2025-09-20T09:28:49.000Z</time>
      </trkpt>
      <trkpt lat="42.97263" lon="1.07204">
        <ele>833</ele>
        <time>2025-09-20T09:28:50.000Z</time>
      </trkpt>
      <trkpt lat="42.97261" lon="1.07201">
        <ele>832</ele>
        <time>2025-09-20T09:28:51.000Z</time>
      </trkpt>
      <trkpt lat="42.97259" lon="1.07199">
        <ele>833</ele>
        <time>2025-09-20T09:28:52.000Z</time>
      </trkpt>
      <trkpt lat="42.97258" lon="1.07198">
        <ele>833</ele>
        <time>2025-09-20T09:28:53.000Z</time>
      </trkpt>
      <trkpt lat="42.97256" lon="1.07196">
        <ele>833</ele>
        <time>2025-09-20T09:28:54.000Z</time>
      </trkpt>
      <trkpt lat="42.97254" lon="1.07194">
        <ele>833</ele>
        <time>2025-09-20T09:28:55.000Z</time>
      </trkpt>
      <trkpt lat="42.97251" lon="1.07191">
        <ele>833</ele>
        <time>2025-09-20T09:28:56.000Z</time>
      </trkpt>
      <trkpt lat="42.97249" lon="1.07189">
        <ele>834</ele>
        <time>2025-09-20T09:28:57.000Z</time>
      </trkpt>
      <trkpt lat="42.97247" lon="1.07187">
        <ele>834</ele>
        <time>2025-09-20T09:28:58.000Z</time>
      </trkpt>
      <trkpt lat="42.97245" lon="1.07186">
        <ele>835</ele>
        <time>2025-09-20T09:28:59.000Z</time>
      </trkpt>
      <trkpt lat="42.97243" lon="1.07186">
        <ele>835</ele>
        <time>2025-09-20T09:29:00.000Z</time>
      </trkpt>
      <trkpt lat="42.9724" lon="1.07185">
        <ele>835</ele>
        <time>2025-09-20T09:29:01.000Z</time>
      </trkpt>
      <trkpt lat="42.97238" lon="1.07184">
        <ele>835</ele>
        <time>2025-09-20T09:29:02.000Z</time>
      </trkpt>
      <trkpt lat="42.97236" lon="1.07183">
        <ele>835</ele>
        <time>2025-09-20T09:29:03.000Z</time>
      </trkpt>
      <trkpt lat="42.97234" lon="1.07182">
        <ele>834</ele>
        <time>2025-09-20T09:29:04.000Z</time>
      </trkpt>
      <trkpt lat="42.97232" lon="1.0718">
        <ele>834</ele>
        <time>2025-09-20T09:29:05.000Z</time>
      </trkpt>
      <trkpt lat="42.97229" lon="1.07179">
        <ele>834</ele>
        <time>2025-09-20T09:29:06.000Z</time>
      </trkpt>
      <trkpt lat="42.97227" lon="1.07178">
        <ele>833</ele>
        <time>2025-09-20T09:29:07.000Z</time>
      </trkpt>
      <trkpt lat="42.97225" lon="1.07178">
        <ele>833</ele>
        <time>2025-09-20T09:29:08.000Z</time>
      </trkpt>
      <trkpt lat="42.97223" lon="1.07178">
        <ele>833</ele>
        <time>2025-09-20T09:29:09.000Z</time>
      </trkpt>
      <trkpt lat="42.97221" lon="1.07177">
        <ele>833</ele>
        <time>2025-09-20T09:29:10.000Z</time>
      </trkpt>
      <trkpt lat="42.97219" lon="1.07176">
        <ele>833</ele>
        <time>2025-09-20T09:29:11.000Z</time>
      </trkpt>
      <trkpt lat="42.97217" lon="1.07175">
        <ele>833</ele>
        <time>2025-09-20T09:29:12.000Z</time>
      </trkpt>
      <trkpt lat="42.97214" lon="1.07173">
        <ele>834</ele>
        <time>2025-09-20T09:29:13.000Z</time>
      </trkpt>
      <trkpt lat="42.97212" lon="1.07172">
        <ele>834</ele>
        <time>2025-09-20T09:29:14.000Z</time>
      </trkpt>
      <trkpt lat="42.9721" lon="1.07171">
        <ele>833</ele>
        <time>2025-09-20T09:29:15.000Z</time>
      </trkpt>
      <trkpt lat="42.97208" lon="1.0717">
        <ele>834</ele>
        <time>2025-09-20T09:29:16.000Z</time>
      </trkpt>
      <trkpt lat="42.97205" lon="1.0717">
        <ele>834</ele>
        <time>2025-09-20T09:29:17.000Z</time>
      </trkpt>
      <trkpt lat="42.97203" lon="1.07169">
        <ele>834</ele>
        <time>2025-09-20T09:29:18.000Z</time>
      </trkpt>
      <trkpt lat="42.972" lon="1.07168">
        <ele>834</ele>
        <time>2025-09-20T09:29:19.000Z</time>
      </trkpt>
      <trkpt lat="42.97198" lon="1.07168">
        <ele>834</ele>
        <time>2025-09-20T09:29:20.000Z</time>
      </trkpt>
      <trkpt lat="42.97196" lon="1.07166">
        <ele>835</ele>
        <time>2025-09-20T09:29:21.000Z</time>
      </trkpt>
      <trkpt lat="42.97194" lon="1.07165">
        <ele>835</ele>
        <time>2025-09-20T09:29:22.000Z</time>
      </trkpt>
      <trkpt lat="42.97192" lon="1.07163">
        <ele>835</ele>
        <time>2025-09-20T09:29:23.000Z</time>
      </trkpt>
      <trkpt lat="42.9719" lon="1.07161">
        <ele>835</ele>
        <time>2025-09-20T09:29:24.000Z</time>
      </trkpt>
      <trkpt lat="42.97188" lon="1.07159">
        <ele>836</ele>
        <time>2025-09-20T09:29:25.000Z</time>
      </trkpt>
      <trkpt lat="42.97186" lon="1.07157">
        <ele>836</ele>
        <time>2025-09-20T09:29:26.000Z</time>
      </trkpt>
      <trkpt lat="42.97184" lon="1.07155">
        <ele>836</ele>
        <time>2025-09-20T09:29:27.000Z</time>
      </trkpt>
      <trkpt lat="42.97182" lon="1.07153">
        <ele>836</ele>
        <time>2025-09-20T09:29:28.000Z</time>
      </trkpt>
      <trkpt lat="42.9718" lon="1.0715">
        <ele>837</ele>
        <time>2025-09-20T09:29:29.000Z</time>
      </trkpt>
      <trkpt lat="42.97179" lon="1.07148">
        <ele>837</ele>
        <time>2025-09-20T09:29:30.000Z</time>
      </trkpt>
      <trkpt lat="42.97178" lon="1.07145">
        <ele>838</ele>
        <time>2025-09-20T09:29:31.000Z</time>
      </trkpt>
      <trkpt lat="42.97176" lon="1.07142">
        <ele>838</ele>
        <time>2025-09-20T09:29:32.000Z</time>
      </trkpt>
      <trkpt lat="42.97175" lon="1.07139">
        <ele>838</ele>
        <time>2025-09-20T09:29:33.000Z</time>
      </trkpt>
      <trkpt lat="42.97175" lon="1.07136">
        <ele>839</ele>
        <time>2025-09-20T09:29:34.000Z</time>
      </trkpt>
      <trkpt lat="42.97174" lon="1.07134">
        <ele>839</ele>
        <time>2025-09-20T09:29:35.000Z</time>
      </trkpt>
      <trkpt lat="42.97173" lon="1.07131">
        <ele>839</ele>
        <time>2025-09-20T09:29:36.000Z</time>
      </trkpt>
      <trkpt lat="42.97172" lon="1.07129">
        <ele>840</ele>
        <time>2025-09-20T09:29:37.000Z</time>
      </trkpt>
      <trkpt lat="42.97172" lon="1.07126">
        <ele>841</ele>
        <time>2025-09-20T09:29:38.000Z</time>
      </trkpt>
      <trkpt lat="42.97172" lon="1.07124">
        <ele>841</ele>
        <time>2025-09-20T09:29:39.000Z</time>
      </trkpt>
      <trkpt lat="42.97172" lon="1.07121">
        <ele>842</ele>
        <time>2025-09-20T09:29:40.000Z</time>
      </trkpt>
      <trkpt lat="42.97171" lon="1.07119">
        <ele>842</ele>
        <time>2025-09-20T09:29:41.000Z</time>
      </trkpt>
      <trkpt lat="42.9717" lon="1.07116">
        <ele>842</ele>
        <time>2025-09-20T09:29:42.000Z</time>
      </trkpt>
      <trkpt lat="42.9717" lon="1.07113">
        <ele>842</ele>
        <time>2025-09-20T09:29:43.000Z</time>
      </trkpt>
      <trkpt lat="42.97171" lon="1.07111">
        <ele>842</ele>
        <time>2025-09-20T09:29:44.000Z</time>
      </trkpt>
      <trkpt lat="42.97171" lon="1.07108">
        <ele>841</ele>
        <time>2025-09-20T09:29:45.000Z</time>
      </trkpt>
      <trkpt lat="42.97172" lon="1.07106">
        <ele>841</ele>
        <time>2025-09-20T09:29:46.000Z</time>
      </trkpt>
      <trkpt lat="42.97172" lon="1.07101">
        <ele>842</ele>
        <time>2025-09-20T09:29:47.000Z</time>
      </trkpt>
      <trkpt lat="42.97171" lon="1.07099">
        <ele>843</ele>
        <time>2025-09-20T09:29:48.000Z</time>
      </trkpt>
      <trkpt lat="42.97169" lon="1.07097">
        <ele>843</ele>
        <time>2025-09-20T09:29:49.000Z</time>
      </trkpt>
      <trkpt lat="42.97168" lon="1.07096">
        <ele>843</ele>
        <time>2025-09-20T09:29:50.000Z</time>
      </trkpt>
      <trkpt lat="42.97166" lon="1.07095">
        <ele>843</ele>
        <time>2025-09-20T09:29:51.000Z</time>
      </trkpt>
      <trkpt lat="42.97165" lon="1.07094">
        <ele>844</ele>
        <time>2025-09-20T09:29:52.000Z</time>
      </trkpt>
      <trkpt lat="42.97163" lon="1.07093">
        <ele>844</ele>
        <time>2025-09-20T09:29:53.000Z</time>
      </trkpt>
      <trkpt lat="42.97162" lon="1.07091">
        <ele>844</ele>
        <time>2025-09-20T09:29:54.000Z</time>
      </trkpt>
      <trkpt lat="42.97162" lon="1.07089">
        <ele>845</ele>
        <time>2025-09-20T09:29:55.000Z</time>
      </trkpt>
      <trkpt lat="42.97161" lon="1.07087">
        <ele>845</ele>
        <time>2025-09-20T09:29:56.000Z</time>
      </trkpt>
      <trkpt lat="42.9716" lon="1.07086">
        <ele>846</ele>
        <time>2025-09-20T09:29:57.000Z</time>
      </trkpt>
      <trkpt lat="42.97158" lon="1.07084">
        <ele>846</ele>
        <time>2025-09-20T09:29:58.000Z</time>
      </trkpt>
      <trkpt lat="42.97157" lon="1.07083">
        <ele>847</ele>
        <time>2025-09-20T09:29:59.000Z</time>
      </trkpt>
      <trkpt lat="42.97155" lon="1.07081">
        <ele>847</ele>
        <time>2025-09-20T09:30:00.000Z</time>
      </trkpt>
      <trkpt lat="42.97154" lon="1.0708">
        <ele>847</ele>
        <time>2025-09-20T09:30:01.000Z</time>
      </trkpt>
      <trkpt lat="42.97153" lon="1.07079">
        <ele>848</ele>
        <time>2025-09-20T09:30:02.000Z</time>
      </trkpt>
      <trkpt lat="42.97151" lon="1.07077">
        <ele>848</ele>
        <time>2025-09-20T09:30:03.000Z</time>
      </trkpt>
      <trkpt lat="42.97149" lon="1.07077">
        <ele>848</ele>
        <time>2025-09-20T09:30:04.000Z</time>
      </trkpt>
      <trkpt lat="42.97147" lon="1.07076">
        <ele>848</ele>
        <time>2025-09-20T09:30:05.000Z</time>
      </trkpt>
      <trkpt lat="42.97146" lon="1.07075">
        <ele>849</ele>
        <time>2025-09-20T09:30:06.000Z</time>
      </trkpt>
      <trkpt lat="42.97144" lon="1.07075">
        <ele>849</ele>
        <time>2025-09-20T09:30:07.000Z</time>
      </trkpt>
      <trkpt lat="42.97142" lon="1.07074">
        <ele>849</ele>
        <time>2025-09-20T09:30:08.000Z</time>
      </trkpt>
      <trkpt lat="42.97141" lon="1.07073">
        <ele>850</ele>
        <time>2025-09-20T09:30:09.000Z</time>
      </trkpt>
      <trkpt lat="42.9714" lon="1.07073">
        <ele>850</ele>
        <time>2025-09-20T09:30:10.000Z</time>
      </trkpt>
      <trkpt lat="42.97138" lon="1.07073">
        <ele>850</ele>
        <time>2025-09-20T09:30:11.000Z</time>
      </trkpt>
      <trkpt lat="42.97137" lon="1.07072">
        <ele>849</ele>
        <time>2025-09-20T09:30:12.000Z</time>
      </trkpt>
      <trkpt lat="42.97135" lon="1.07072">
        <ele>849</ele>
        <time>2025-09-20T09:30:13.000Z</time>
      </trkpt>
      <trkpt lat="42.97134" lon="1.07072">
        <ele>849</ele>
        <time>2025-09-20T09:30:14.000Z</time>
      </trkpt>
      <trkpt lat="42.97133" lon="1.0707">
        <ele>850</ele>
        <time>2025-09-20T09:30:15.000Z</time>
      </trkpt>
      <trkpt lat="42.97131" lon="1.0707">
        <ele>850</ele>
        <time>2025-09-20T09:30:16.000Z</time>
      </trkpt>
      <trkpt lat="42.9713" lon="1.0707">
        <ele>850</ele>
        <time>2025-09-20T09:30:17.000Z</time>
      </trkpt>
      <trkpt lat="42.97128" lon="1.07069">
        <ele>851</ele>
        <time>2025-09-20T09:30:18.000Z</time>
      </trkpt>
      <trkpt lat="42.97126" lon="1.07069">
        <ele>851</ele>
        <time>2025-09-20T09:30:19.000Z</time>
      </trkpt>
      <trkpt lat="42.97125" lon="1.07068">
        <ele>851</ele>
        <time>2025-09-20T09:30:20.000Z</time>
      </trkpt>
      <trkpt lat="42.97122" lon="1.07068">
        <ele>852</ele>
        <time>2025-09-20T09:30:21.000Z</time>
      </trkpt>
      <trkpt lat="42.9712" lon="1.07068">
        <ele>853</ele>
        <time>2025-09-20T09:30:22.000Z</time>
      </trkpt>
      <trkpt lat="42.97118" lon="1.07068">
        <ele>853</ele>
        <time>2025-09-20T09:30:23.000Z</time>
      </trkpt>
      <trkpt lat="42.97117" lon="1.07068">
        <ele>854</ele>
        <time>2025-09-20T09:30:24.000Z</time>
      </trkpt>
      <trkpt lat="42.97115" lon="1.07068">
        <ele>855</ele>
        <time>2025-09-20T09:30:25.000Z</time>
      </trkpt>
      <trkpt lat="42.97114" lon="1.07068">
        <ele>856</ele>
        <time>2025-09-20T09:30:26.000Z</time>
      </trkpt>
      <trkpt lat="42.97112" lon="1.07068">
        <ele>856</ele>
        <time>2025-09-20T09:30:27.000Z</time>
      </trkpt>
      <trkpt lat="42.9711" lon="1.07068">
        <ele>857</ele>
        <time>2025-09-20T09:30:28.000Z</time>
      </trkpt>
      <trkpt lat="42.97109" lon="1.07068">
        <ele>857</ele>
        <time>2025-09-20T09:30:29.000Z</time>
      </trkpt>
      <trkpt lat="42.97107" lon="1.07068">
        <ele>857</ele>
        <time>2025-09-20T09:30:30.000Z</time>
      </trkpt>
      <trkpt lat="42.97105" lon="1.07067">
        <ele>857</ele>
        <time>2025-09-20T09:30:31.000Z</time>
      </trkpt>
      <trkpt lat="42.97103" lon="1.07068">
        <ele>857</ele>
        <time>2025-09-20T09:30:32.000Z</time>
      </trkpt>
      <trkpt lat="42.97101" lon="1.07067">
        <ele>858</ele>
        <time>2025-09-20T09:30:33.000Z</time>
      </trkpt>
      <trkpt lat="42.97099" lon="1.07066">
        <ele>858</ele>
        <time>2025-09-20T09:30:34.000Z</time>
      </trkpt>
      <trkpt lat="42.97097" lon="1.07066">
        <ele>859</ele>
        <time>2025-09-20T09:30:35.000Z</time>
      </trkpt>
      <trkpt lat="42.97095" lon="1.07067">
        <ele>860</ele>
        <time>2025-09-20T09:30:36.000Z</time>
      </trkpt>
      <trkpt lat="42.97093" lon="1.07067">
        <ele>860</ele>
        <time>2025-09-20T09:30:37.000Z</time>
      </trkpt>
      <trkpt lat="42.97091" lon="1.07068">
        <ele>860</ele>
        <time>2025-09-20T09:30:38.000Z</time>
      </trkpt>
      <trkpt lat="42.97089" lon="1.07069">
        <ele>859</ele>
        <time>2025-09-20T09:30:39.000Z</time>
      </trkpt>
      <trkpt lat="42.97087" lon="1.0707">
        <ele>859</ele>
        <time>2025-09-20T09:30:40.000Z</time>
      </trkpt>
      <trkpt lat="42.97085" lon="1.07071">
        <ele>859</ele>
        <time>2025-09-20T09:30:41.000Z</time>
      </trkpt>
      <trkpt lat="42.97084" lon="1.07073">
        <ele>859</ele>
        <time>2025-09-20T09:30:42.000Z</time>
      </trkpt>
      <trkpt lat="42.97082" lon="1.07074">
        <ele>860</ele>
        <time>2025-09-20T09:30:43.000Z</time>
      </trkpt>
      <trkpt lat="42.97081" lon="1.07075">
        <ele>860</ele>
        <time>2025-09-20T09:30:44.000Z</time>
      </trkpt>
      <trkpt lat="42.97079" lon="1.07076">
        <ele>860</ele>
        <time>2025-09-20T09:30:45.000Z</time>
      </trkpt>
      <trkpt lat="42.97077" lon="1.07077">
        <ele>860</ele>
        <time>2025-09-20T09:30:46.000Z</time>
      </trkpt>
      <trkpt lat="42.97075" lon="1.07078">
        <ele>860</ele>
        <time>2025-09-20T09:30:47.000Z</time>
      </trkpt>
      <trkpt lat="42.97074" lon="1.07079">
        <ele>861</ele>
        <time>2025-09-20T09:30:48.000Z</time>
      </trkpt>
      <trkpt lat="42.97072" lon="1.0708">
        <ele>861</ele>
        <time>2025-09-20T09:30:49.000Z</time>
      </trkpt>
      <trkpt lat="42.97071" lon="1.07081">
        <ele>862</ele>
        <time>2025-09-20T09:30:50.000Z</time>
      </trkpt>
      <trkpt lat="42.97069" lon="1.07081">
        <ele>862</ele>
        <time>2025-09-20T09:30:51.000Z</time>
      </trkpt>
      <trkpt lat="42.97068" lon="1.07081">
        <ele>863</ele>
        <time>2025-09-20T09:30:52.000Z</time>
      </trkpt>
      <trkpt lat="42.97066" lon="1.07081">
        <ele>864</ele>
        <time>2025-09-20T09:30:53.000Z</time>
      </trkpt>
      <trkpt lat="42.97065" lon="1.07082">
        <ele>864</ele>
        <time>2025-09-20T09:30:54.000Z</time>
      </trkpt>
      <trkpt lat="42.97063" lon="1.07082">
        <ele>865</ele>
        <time>2025-09-20T09:30:55.000Z</time>
      </trkpt>
      <trkpt lat="42.97062" lon="1.07082">
        <ele>865</ele>
        <time>2025-09-20T09:30:56.000Z</time>
      </trkpt>
      <trkpt lat="42.9706" lon="1.07083">
        <ele>865</ele>
        <time>2025-09-20T09:30:57.000Z</time>
      </trkpt>
      <trkpt lat="42.97058" lon="1.07083">
        <ele>866</ele>
        <time>2025-09-20T09:30:58.000Z</time>
      </trkpt>
      <trkpt lat="42.97056" lon="1.07083">
        <ele>866</ele>
        <time>2025-09-20T09:30:59.000Z</time>
      </trkpt>
      <trkpt lat="42.97054" lon="1.07083">
        <ele>867</ele>
        <time>2025-09-20T09:31:00.000Z</time>
      </trkpt>
      <trkpt lat="42.97052" lon="1.07083">
        <ele>867</ele>
        <time>2025-09-20T09:31:01.000Z</time>
      </trkpt>
      <trkpt lat="42.97051" lon="1.07083">
        <ele>867</ele>
        <time>2025-09-20T09:31:02.000Z</time>
      </trkpt>
      <trkpt lat="42.97049" lon="1.07083">
        <ele>867</ele>
        <time>2025-09-20T09:31:03.000Z</time>
      </trkpt>
      <trkpt lat="42.97047" lon="1.07083">
        <ele>868</ele>
        <time>2025-09-20T09:31:04.000Z</time>
      </trkpt>
      <trkpt lat="42.97044" lon="1.07083">
        <ele>868</ele>
        <time>2025-09-20T09:31:05.000Z</time>
      </trkpt>
      <trkpt lat="42.97043" lon="1.07082">
        <ele>868</ele>
        <time>2025-09-20T09:31:06.000Z</time>
      </trkpt>
      <trkpt lat="42.97041" lon="1.07082">
        <ele>869</ele>
        <time>2025-09-20T09:31:07.000Z</time>
      </trkpt>
      <trkpt lat="42.97039" lon="1.07081">
        <ele>870</ele>
        <time>2025-09-20T09:31:08.000Z</time>
      </trkpt>
      <trkpt lat="42.97038" lon="1.0708">
        <ele>871</ele>
        <time>2025-09-20T09:31:09.000Z</time>
      </trkpt>
      <trkpt lat="42.97038" lon="1.07079">
        <ele>872</ele>
        <time>2025-09-20T09:31:10.000Z</time>
      </trkpt>
      <trkpt lat="42.97037" lon="1.07077">
        <ele>873</ele>
        <time>2025-09-20T09:31:11.000Z</time>
      </trkpt>
      <trkpt lat="42.97035" lon="1.07075">
        <ele>874</ele>
        <time>2025-09-20T09:31:12.000Z</time>
      </trkpt>
      <trkpt lat="42.97034" lon="1.07073">
        <ele>876</ele>
        <time>2025-09-20T09:31:13.000Z</time>
      </trkpt>
      <trkpt lat="42.97033" lon="1.07072">
        <ele>877</ele>
        <time>2025-09-20T09:31:14.000Z</time>
      </trkpt>
      <trkpt lat="42.97032" lon="1.07071">
        <ele>878</ele>
        <time>2025-09-20T09:31:15.000Z</time>
      </trkpt>
      <trkpt lat="42.9703" lon="1.0707">
        <ele>879</ele>
        <time>2025-09-20T09:31:16.000Z</time>
      </trkpt>
      <trkpt lat="42.97029" lon="1.0707">
        <ele>879</ele>
        <time>2025-09-20T09:31:17.000Z</time>
      </trkpt>
      <trkpt lat="42.97026" lon="1.07069">
        <ele>880</ele>
        <time>2025-09-20T09:31:18.000Z</time>
      </trkpt>
      <trkpt lat="42.97024" lon="1.07069">
        <ele>880</ele>
        <time>2025-09-20T09:31:19.000Z</time>
      </trkpt>
      <trkpt lat="42.97023" lon="1.07069">
        <ele>880</ele>
        <time>2025-09-20T09:31:20.000Z</time>
      </trkpt>
      <trkpt lat="42.97021" lon="1.07068">
        <ele>881</ele>
        <time>2025-09-20T09:31:21.000Z</time>
      </trkpt>
      <trkpt lat="42.97019" lon="1.07068">
        <ele>880</ele>
        <time>2025-09-20T09:31:22.000Z</time>
      </trkpt>
      <trkpt lat="42.97017" lon="1.07069">
        <ele>880</ele>
        <time>2025-09-20T09:31:23.000Z</time>
      </trkpt>
      <trkpt lat="42.97015" lon="1.0707">
        <ele>880</ele>
        <time>2025-09-20T09:31:24.000Z</time>
      </trkpt>
      <trkpt lat="42.97013" lon="1.07071">
        <ele>879</ele>
        <time>2025-09-20T09:31:25.000Z</time>
      </trkpt>
      <trkpt lat="42.97012" lon="1.07072">
        <ele>880</ele>
        <time>2025-09-20T09:31:26.000Z</time>
      </trkpt>
      <trkpt lat="42.9701" lon="1.07072">
        <ele>880</ele>
        <time>2025-09-20T09:31:27.000Z</time>
      </trkpt>
      <trkpt lat="42.97009" lon="1.07073">
        <ele>880</ele>
        <time>2025-09-20T09:31:28.000Z</time>
      </trkpt>
      <trkpt lat="42.97008" lon="1.07072">
        <ele>880</ele>
        <time>2025-09-20T09:31:29.000Z</time>
      </trkpt>
      <trkpt lat="42.97006" lon="1.07072">
        <ele>880</ele>
        <time>2025-09-20T09:31:30.000Z</time>
      </trkpt>
      <trkpt lat="42.97004" lon="1.07071">
        <ele>881</ele>
        <time>2025-09-20T09:31:31.000Z</time>
      </trkpt>
      <trkpt lat="42.97003" lon="1.07071">
        <ele>881</ele>
        <time>2025-09-20T09:31:32.000Z</time>
      </trkpt>
      <trkpt lat="42.97001" lon="1.0707">
        <ele>880</ele>
        <time>2025-09-20T09:31:33.000Z</time>
      </trkpt>
      <trkpt lat="42.97" lon="1.07069">
        <ele>880</ele>
        <time>2025-09-20T09:31:34.000Z</time>
      </trkpt>
      <trkpt lat="42.96999" lon="1.07068">
        <ele>881</ele>
        <time>2025-09-20T09:31:35.000Z</time>
      </trkpt>
      <trkpt lat="42.96998" lon="1.07067">
        <ele>881</ele>
        <time>2025-09-20T09:31:36.000Z</time>
      </trkpt>
      <trkpt lat="42.96998" lon="1.07065">
        <ele>881</ele>
        <time>2025-09-20T09:31:37.000Z</time>
      </trkpt>
      <trkpt lat="42.96998" lon="1.07063">
        <ele>881</ele>
        <time>2025-09-20T09:31:38.000Z</time>
      </trkpt>
      <trkpt lat="42.96999" lon="1.07061">
        <ele>882</ele>
        <time>2025-09-20T09:31:39.000Z</time>
      </trkpt>
      <trkpt lat="42.96999" lon="1.07059">
        <ele>883</ele>
        <time>2025-09-20T09:31:40.000Z</time>
      </trkpt>
      <trkpt lat="42.97" lon="1.07057">
        <ele>884</ele>
        <time>2025-09-20T09:31:41.000Z</time>
      </trkpt>
      <trkpt lat="42.97001" lon="1.07055">
        <ele>884</ele>
        <time>2025-09-20T09:31:42.000Z</time>
      </trkpt>
      <trkpt lat="42.97001" lon="1.07053">
        <ele>884</ele>
        <time>2025-09-20T09:31:43.000Z</time>
      </trkpt>
      <trkpt lat="42.97003" lon="1.07051">
        <ele>884</ele>
        <time>2025-09-20T09:31:44.000Z</time>
      </trkpt>
      <trkpt lat="42.97004" lon="1.0705">
        <ele>885</ele>
        <time>2025-09-20T09:31:45.000Z</time>
      </trkpt>
      <trkpt lat="42.97005" lon="1.07049">
        <ele>885</ele>
        <time>2025-09-20T09:31:46.000Z</time>
      </trkpt>
      <trkpt lat="42.97007" lon="1.07048">
        <ele>885</ele>
        <time>2025-09-20T09:31:47.000Z</time>
      </trkpt>
      <trkpt lat="42.97009" lon="1.07046">
        <ele>885</ele>
        <time>2025-09-20T09:31:48.000Z</time>
      </trkpt>
      <trkpt lat="42.97011" lon="1.07044">
        <ele>884</ele>
        <time>2025-09-20T09:31:49.000Z</time>
      </trkpt>
      <trkpt lat="42.97012" lon="1.07042">
        <ele>884</ele>
        <time>2025-09-20T09:31:50.000Z</time>
      </trkpt>
      <trkpt lat="42.97013" lon="1.0704">
        <ele>884</ele>
        <time>2025-09-20T09:31:51.000Z</time>
      </trkpt>
      <trkpt lat="42.97014" lon="1.07039">
        <ele>884</ele>
        <time>2025-09-20T09:31:52.000Z</time>
      </trkpt>
      <trkpt lat="42.97015" lon="1.07037">
        <ele>885</ele>
        <time>2025-09-20T09:31:53.000Z</time>
      </trkpt>
      <trkpt lat="42.97017" lon="1.07035">
        <ele>884</ele>
        <time>2025-09-20T09:31:54.000Z</time>
      </trkpt>
      <trkpt lat="42.97018" lon="1.07033">
        <ele>884</ele>
        <time>2025-09-20T09:31:55.000Z</time>
      </trkpt>
      <trkpt lat="42.97019" lon="1.07032">
        <ele>884</ele>
        <time>2025-09-20T09:31:56.000Z</time>
      </trkpt>
      <trkpt lat="42.9702" lon="1.0703">
        <ele>884</ele>
        <time>2025-09-20T09:31:57.000Z</time>
      </trkpt>
      <trkpt lat="42.97021" lon="1.07029">
        <ele>885</ele>
        <time>2025-09-20T09:31:58.000Z</time>
      </trkpt>
      <trkpt lat="42.97023" lon="1.07028">
        <ele>886</ele>
        <time>2025-09-20T09:31:59.000Z</time>
      </trkpt>
      <trkpt lat="42.97024" lon="1.07026">
        <ele>887</ele>
        <time>2025-09-20T09:32:00.000Z</time>
      </trkpt>
      <trkpt lat="42.97026" lon="1.07024">
        <ele>888</ele>
        <time>2025-09-20T09:32:01.000Z</time>
      </trkpt>
      <trkpt lat="42.97027" lon="1.07021">
        <ele>889</ele>
        <time>2025-09-20T09:32:02.000Z</time>
      </trkpt>
      <trkpt lat="42.97028" lon="1.0702">
        <ele>890</ele>
        <time>2025-09-20T09:32:03.000Z</time>
      </trkpt>
      <trkpt lat="42.9703" lon="1.07019">
        <ele>891</ele>
        <time>2025-09-20T09:32:04.000Z</time>
      </trkpt>
      <trkpt lat="42.9703" lon="1.07017">
        <ele>891</ele>
        <time>2025-09-20T09:32:05.000Z</time>
      </trkpt>
      <trkpt lat="42.97031" lon="1.07015">
        <ele>892</ele>
        <time>2025-09-20T09:32:06.000Z</time>
      </trkpt>
      <trkpt lat="42.97032" lon="1.07013">
        <ele>892</ele>
        <time>2025-09-20T09:32:07.000Z</time>
      </trkpt>
      <trkpt lat="42.97033" lon="1.0701">
        <ele>893</ele>
        <time>2025-09-20T09:32:08.000Z</time>
      </trkpt>
      <trkpt lat="42.97033" lon="1.07008">
        <ele>893</ele>
        <time>2025-09-20T09:32:09.000Z</time>
      </trkpt>
      <trkpt lat="42.97034" lon="1.07006">
        <ele>894</ele>
        <time>2025-09-20T09:32:10.000Z</time>
      </trkpt>
      <trkpt lat="42.97035" lon="1.07004">
        <ele>895</ele>
        <time>2025-09-20T09:32:11.000Z</time>
      </trkpt>
      <trkpt lat="42.97035" lon="1.07002">
        <ele>894</ele>
        <time>2025-09-20T09:32:12.000Z</time>
      </trkpt>
      <trkpt lat="42.97035" lon="1.07">
        <ele>895</ele>
        <time>2025-09-20T09:32:13.000Z</time>
      </trkpt>
      <trkpt lat="42.97036" lon="1.06997">
        <ele>896</ele>
        <time>2025-09-20T09:32:14.000Z</time>
      </trkpt>
      <trkpt lat="42.97036" lon="1.06994">
        <ele>895</ele>
        <time>2025-09-20T09:32:15.000Z</time>
      </trkpt>
      <trkpt lat="42.97035" lon="1.06993">
        <ele>895</ele>
        <time>2025-09-20T09:32:16.000Z</time>
      </trkpt>
      <trkpt lat="42.97034" lon="1.06991">
        <ele>895</ele>
        <time>2025-09-20T09:32:17.000Z</time>
      </trkpt>
      <trkpt lat="42.97032" lon="1.0699">
        <ele>895</ele>
        <time>2025-09-20T09:32:18.000Z</time>
      </trkpt>
      <trkpt lat="42.9703" lon="1.06989">
        <ele>895</ele>
        <time>2025-09-20T09:32:19.000Z</time>
      </trkpt>
      <trkpt lat="42.97029" lon="1.06987">
        <ele>895</ele>
        <time>2025-09-20T09:32:20.000Z</time>
      </trkpt>
      <trkpt lat="42.97028" lon="1.06985">
        <ele>896</ele>
        <time>2025-09-20T09:32:21.000Z</time>
      </trkpt>
      <trkpt lat="42.97027" lon="1.06983">
        <ele>896</ele>
        <time>2025-09-20T09:32:22.000Z</time>
      </trkpt>
      <trkpt lat="42.97027" lon="1.06981">
        <ele>896</ele>
        <time>2025-09-20T09:32:23.000Z</time>
      </trkpt>
      <trkpt lat="42.97026" lon="1.0698">
        <ele>896</ele>
        <time>2025-09-20T09:32:24.000Z</time>
      </trkpt>
      <trkpt lat="42.97025" lon="1.06977">
        <ele>896</ele>
        <time>2025-09-20T09:32:25.000Z</time>
      </trkpt>
      <trkpt lat="42.97025" lon="1.06975">
        <ele>897</ele>
        <time>2025-09-20T09:32:26.000Z</time>
      </trkpt>
      <trkpt lat="42.97024" lon="1.06972">
        <ele>897</ele>
        <time>2025-09-20T09:32:27.000Z</time>
      </trkpt>
      <trkpt lat="42.97023" lon="1.0697">
        <ele>898</ele>
        <time>2025-09-20T09:32:28.000Z</time>
      </trkpt>
      <trkpt lat="42.97022" lon="1.06968">
        <ele>898</ele>
        <time>2025-09-20T09:32:29.000Z</time>
      </trkpt>
      <trkpt lat="42.97022" lon="1.06965">
        <ele>898</ele>
        <time>2025-09-20T09:32:30.000Z</time>
      </trkpt>
      <trkpt lat="42.97022" lon="1.06963">
        <ele>899</ele>
        <time>2025-09-20T09:32:31.000Z</time>
      </trkpt>
      <trkpt lat="42.97021" lon="1.06961">
        <ele>899</ele>
        <time>2025-09-20T09:32:32.000Z</time>
      </trkpt>
      <trkpt lat="42.97019" lon="1.06959">
        <ele>900</ele>
        <time>2025-09-20T09:32:33.000Z</time>
      </trkpt>
      <trkpt lat="42.97018" lon="1.06959">
        <ele>900</ele>
        <time>2025-09-20T09:32:34.000Z</time>
      </trkpt>
      <trkpt lat="42.97016" lon="1.06959">
        <ele>900</ele>
        <time>2025-09-20T09:32:35.000Z</time>
      </trkpt>
      <trkpt lat="42.97014" lon="1.0696">
        <ele>901</ele>
        <time>2025-09-20T09:32:36.000Z</time>
      </trkpt>
      <trkpt lat="42.97012" lon="1.06959">
        <ele>901</ele>
        <time>2025-09-20T09:32:37.000Z</time>
      </trkpt>
      <trkpt lat="42.97011" lon="1.06958">
        <ele>901</ele>
        <time>2025-09-20T09:32:38.000Z</time>
      </trkpt>
      <trkpt lat="42.9701" lon="1.06957">
        <ele>902</ele>
        <time>2025-09-20T09:32:39.000Z</time>
      </trkpt>
      <trkpt lat="42.97009" lon="1.06955">
        <ele>903</ele>
        <time>2025-09-20T09:32:40.000Z</time>
      </trkpt>
      <trkpt lat="42.97007" lon="1.06954">
        <ele>903</ele>
        <time>2025-09-20T09:32:41.000Z</time>
      </trkpt>
      <trkpt lat="42.97005" lon="1.06953">
        <ele>903</ele>
        <time>2025-09-20T09:32:42.000Z</time>
      </trkpt>
      <trkpt lat="42.97003" lon="1.06952">
        <ele>903</ele>
        <time>2025-09-20T09:32:43.000Z</time>
      </trkpt>
      <trkpt lat="42.97001" lon="1.0695">
        <ele>903</ele>
        <time>2025-09-20T09:32:44.000Z</time>
      </trkpt>
      <trkpt lat="42.97" lon="1.06949">
        <ele>903</ele>
        <time>2025-09-20T09:32:45.000Z</time>
      </trkpt>
      <trkpt lat="42.96999" lon="1.06947">
        <ele>903</ele>
        <time>2025-09-20T09:32:46.000Z</time>
      </trkpt>
      <trkpt lat="42.96998" lon="1.06944">
        <ele>903</ele>
        <time>2025-09-20T09:32:47.000Z</time>
      </trkpt>
      <trkpt lat="42.96996" lon="1.06942">
        <ele>904</ele>
        <time>2025-09-20T09:32:48.000Z</time>
      </trkpt>
      <trkpt lat="42.96995" lon="1.06939">
        <ele>903</ele>
        <time>2025-09-20T09:32:49.000Z</time>
      </trkpt>
      <trkpt lat="42.96993" lon="1.06936">
        <ele>903</ele>
        <time>2025-09-20T09:32:50.000Z</time>
      </trkpt>
      <trkpt lat="42.96993" lon="1.06933">
        <ele>903</ele>
        <time>2025-09-20T09:32:51.000Z</time>
      </trkpt>
      <trkpt lat="42.96992" lon="1.06929">
        <ele>902</ele>
        <time>2025-09-20T09:32:52.000Z</time>
      </trkpt>
      <trkpt lat="42.96991" lon="1.06924">
        <ele>901</ele>
        <time>2025-09-20T09:32:53.000Z</time>
      </trkpt>
      <trkpt lat="42.96988" lon="1.06922">
        <ele>901</ele>
        <time>2025-09-20T09:32:54.000Z</time>
      </trkpt>
      <trkpt lat="42.96986" lon="1.06919">
        <ele>901</ele>
        <time>2025-09-20T09:32:55.000Z</time>
      </trkpt>
      <trkpt lat="42.96985" lon="1.06917">
        <ele>900</ele>
        <time>2025-09-20T09:32:56.000Z</time>
      </trkpt>
      <trkpt lat="42.96983" lon="1.06913">
        <ele>900</ele>
        <time>2025-09-20T09:32:57.000Z</time>
      </trkpt>
      <trkpt lat="42.96982" lon="1.06911">
        <ele>899</ele>
        <time>2025-09-20T09:32:58.000Z</time>
      </trkpt>
      <trkpt lat="42.96982" lon="1.06906">
        <ele>898</ele>
        <time>2025-09-20T09:32:59.000Z</time>
      </trkpt>
      <trkpt lat="42.96981" lon="1.06901">
        <ele>898</ele>
        <time>2025-09-20T09:33:00.000Z</time>
      </trkpt>
      <trkpt lat="42.96979" lon="1.06895">
        <ele>897</ele>
        <time>2025-09-20T09:33:01.000Z</time>
      </trkpt>
      <trkpt lat="42.96978" lon="1.06888">
        <ele>898</ele>
        <time>2025-09-20T09:33:02.000Z</time>
      </trkpt>
      <trkpt lat="42.96976" lon="1.06883">
        <ele>899</ele>
        <time>2025-09-20T09:33:03.000Z</time>
      </trkpt>
      <trkpt lat="42.96976" lon="1.06879">
        <ele>898</ele>
        <time>2025-09-20T09:33:04.000Z</time>
      </trkpt>
      <trkpt lat="42.96975" lon="1.06874">
        <ele>898</ele>
        <time>2025-09-20T09:33:05.000Z</time>
      </trkpt>
      <trkpt lat="42.96972" lon="1.0687">
        <ele>897</ele>
        <time>2025-09-20T09:33:06.000Z</time>
      </trkpt>
      <trkpt lat="42.96969" lon="1.06866">
        <ele>897</ele>
        <time>2025-09-20T09:33:07.000Z</time>
      </trkpt>
      <trkpt lat="42.96966" lon="1.06861">
        <ele>896</ele>
        <time>2025-09-20T09:33:08.000Z</time>
      </trkpt>
      <trkpt lat="42.96964" lon="1.06855">
        <ele>895</ele>
        <time>2025-09-20T09:33:09.000Z</time>
      </trkpt>
      <trkpt lat="42.96963" lon="1.0685">
        <ele>895</ele>
        <time>2025-09-20T09:33:10.000Z</time>
      </trkpt>
      <trkpt lat="42.96964" lon="1.06845">
        <ele>895</ele>
        <time>2025-09-20T09:33:11.000Z</time>
      </trkpt>
      <trkpt lat="42.96965" lon="1.06841">
        <ele>895</ele>
        <time>2025-09-20T09:33:12.000Z</time>
      </trkpt>
      <trkpt lat="42.96966" lon="1.06838">
        <ele>895</ele>
        <time>2025-09-20T09:33:13.000Z</time>
      </trkpt>
      <trkpt lat="42.96966" lon="1.06835">
        <ele>895</ele>
        <time>2025-09-20T09:33:14.000Z</time>
      </trkpt>
      <trkpt lat="42.96967" lon="1.06832">
        <ele>896</ele>
        <time>2025-09-20T09:33:15.000Z</time>
      </trkpt>
      <trkpt lat="42.96969" lon="1.0683">
        <ele>897</ele>
        <time>2025-09-20T09:33:16.000Z</time>
      </trkpt>
      <trkpt lat="42.9697" lon="1.0683">
        <ele>897</ele>
        <time>2025-09-20T09:33:17.000Z</time>
      </trkpt>
      <trkpt lat="42.96971" lon="1.06828">
        <ele>898</ele>
        <time>2025-09-20T09:33:18.000Z</time>
      </trkpt>
      <trkpt lat="42.96972" lon="1.06827">
        <ele>899</ele>
        <time>2025-09-20T09:33:19.000Z</time>
      </trkpt>
      <trkpt lat="42.96973" lon="1.06825">
        <ele>899</ele>
        <time>2025-09-20T09:33:20.000Z</time>
      </trkpt>
      <trkpt lat="42.96974" lon="1.06824">
        <ele>900</ele>
        <time>2025-09-20T09:33:21.000Z</time>
      </trkpt>
      <trkpt lat="42.96976" lon="1.06823">
        <ele>899</ele>
        <time>2025-09-20T09:33:22.000Z</time>
      </trkpt>
      <trkpt lat="42.96977" lon="1.06821">
        <ele>899</ele>
        <time>2025-09-20T09:33:23.000Z</time>
      </trkpt>
      <trkpt lat="42.96978" lon="1.06819">
        <ele>899</ele>
        <time>2025-09-20T09:33:24.000Z</time>
      </trkpt>
      <trkpt lat="42.96979" lon="1.06817">
        <ele>900</ele>
        <time>2025-09-20T09:33:25.000Z</time>
      </trkpt>
      <trkpt lat="42.9698" lon="1.06816">
        <ele>900</ele>
        <time>2025-09-20T09:33:26.000Z</time>
      </trkpt>
      <trkpt lat="42.96981" lon="1.06814">
        <ele>900</ele>
        <time>2025-09-20T09:33:27.000Z</time>
      </trkpt>
      <trkpt lat="42.96983" lon="1.06813">
        <ele>900</ele>
        <time>2025-09-20T09:33:28.000Z</time>
      </trkpt>
      <trkpt lat="42.96984" lon="1.06812">
        <ele>901</ele>
        <time>2025-09-20T09:33:29.000Z</time>
      </trkpt>
      <trkpt lat="42.96984" lon="1.06811">
        <ele>901</ele>
        <time>2025-09-20T09:33:30.000Z</time>
      </trkpt>
      <trkpt lat="42.96985" lon="1.06809">
        <ele>901</ele>
        <time>2025-09-20T09:33:31.000Z</time>
      </trkpt>
      <trkpt lat="42.96985" lon="1.06808">
        <ele>901</ele>
        <time>2025-09-20T09:33:32.000Z</time>
      </trkpt>
      <trkpt lat="42.96986" lon="1.06808">
        <ele>901</ele>
        <time>2025-09-20T09:33:33.000Z</time>
      </trkpt>
      <trkpt lat="42.96987" lon="1.06805">
        <ele>901</ele>
        <time>2025-09-20T09:33:34.000Z</time>
      </trkpt>
      <trkpt lat="42.96988" lon="1.06804">
        <ele>902</ele>
        <time>2025-09-20T09:33:35.000Z</time>
      </trkpt>
      <trkpt lat="42.9699" lon="1.06802">
        <ele>902</ele>
        <time>2025-09-20T09:33:36.000Z</time>
      </trkpt>
      <trkpt lat="42.96992" lon="1.068">
        <ele>902</ele>
        <time>2025-09-20T09:33:37.000Z</time>
      </trkpt>
      <trkpt lat="42.96993" lon="1.06799">
        <ele>902</ele>
        <time>2025-09-20T09:33:38.000Z</time>
      </trkpt>
      <trkpt lat="42.96994" lon="1.06798">
        <ele>903</ele>
        <time>2025-09-20T09:33:39.000Z</time>
      </trkpt>
      <trkpt lat="42.96997" lon="1.06796">
        <ele>903</ele>
        <time>2025-09-20T09:33:40.000Z</time>
      </trkpt>
      <trkpt lat="42.96999" lon="1.06796">
        <ele>903</ele>
        <time>2025-09-20T09:33:41.000Z</time>
      </trkpt>
      <trkpt lat="42.97001" lon="1.06796">
        <ele>903</ele>
        <time>2025-09-20T09:33:42.000Z</time>
      </trkpt>
      <trkpt lat="42.97003" lon="1.06796">
        <ele>904</ele>
        <time>2025-09-20T09:33:43.000Z</time>
      </trkpt>
      <trkpt lat="42.97006" lon="1.06795">
        <ele>904</ele>
        <time>2025-09-20T09:33:44.000Z</time>
      </trkpt>
      <trkpt lat="42.97009" lon="1.06795">
        <ele>904</ele>
        <time>2025-09-20T09:33:45.000Z</time>
      </trkpt>
      <trkpt lat="42.97011" lon="1.06796">
        <ele>904</ele>
        <time>2025-09-20T09:33:46.000Z</time>
      </trkpt>
      <trkpt lat="42.97013" lon="1.06796">
        <ele>904</ele>
        <time>2025-09-20T09:33:47.000Z</time>
      </trkpt>
      <trkpt lat="42.97015" lon="1.06797">
        <ele>904</ele>
        <time>2025-09-20T09:33:48.000Z</time>
      </trkpt>
      <trkpt lat="42.97017" lon="1.06797">
        <ele>905</ele>
        <time>2025-09-20T09:33:49.000Z</time>
      </trkpt>
      <trkpt lat="42.97019" lon="1.06797">
        <ele>905</ele>
        <time>2025-09-20T09:33:50.000Z</time>
      </trkpt>
      <trkpt lat="42.9702" lon="1.06797">
        <ele>905</ele>
        <time>2025-09-20T09:33:51.000Z</time>
      </trkpt>
      <trkpt lat="42.97022" lon="1.06797">
        <ele>905</ele>
        <time>2025-09-20T09:33:52.000Z</time>
      </trkpt>
      <trkpt lat="42.97024" lon="1.06797">
        <ele>905</ele>
        <time>2025-09-20T09:33:53.000Z</time>
      </trkpt>
      <trkpt lat="42.97026" lon="1.06798">
        <ele>906</ele>
        <time>2025-09-20T09:33:54.000Z</time>
      </trkpt>
      <trkpt lat="42.97027" lon="1.06799">
        <ele>906</ele>
        <time>2025-09-20T09:33:55.000Z</time>
      </trkpt>
      <trkpt lat="42.97029" lon="1.06799">
        <ele>905</ele>
        <time>2025-09-20T09:33:56.000Z</time>
      </trkpt>
      <trkpt lat="42.97032" lon="1.068">
        <ele>906</ele>
        <time>2025-09-20T09:33:57.000Z</time>
      </trkpt>
      <trkpt lat="42.97033" lon="1.06801">
        <ele>906</ele>
        <time>2025-09-20T09:33:58.000Z</time>
      </trkpt>
      <trkpt lat="42.97035" lon="1.06802">
        <ele>907</ele>
        <time>2025-09-20T09:33:59.000Z</time>
      </trkpt>
      <trkpt lat="42.97037" lon="1.06804">
        <ele>907</ele>
        <time>2025-09-20T09:34:00.000Z</time>
      </trkpt>
      <trkpt lat="42.97039" lon="1.06806">
        <ele>908</ele>
        <time>2025-09-20T09:34:01.000Z</time>
      </trkpt>
      <trkpt lat="42.97041" lon="1.06807">
        <ele>908</ele>
        <time>2025-09-20T09:34:02.000Z</time>
      </trkpt>
      <trkpt lat="42.97043" lon="1.06809">
        <ele>908</ele>
        <time>2025-09-20T09:34:03.000Z</time>
      </trkpt>
      <trkpt lat="42.97045" lon="1.0681">
        <ele>908</ele>
        <time>2025-09-20T09:34:04.000Z</time>
      </trkpt>
      <trkpt lat="42.97047" lon="1.06811">
        <ele>908</ele>
        <time>2025-09-20T09:34:05.000Z</time>
      </trkpt>
      <trkpt lat="42.97049" lon="1.0681">
        <ele>908</ele>
        <time>2025-09-20T09:34:06.000Z</time>
      </trkpt>
      <trkpt lat="42.97052" lon="1.06809">
        <ele>908</ele>
        <time>2025-09-20T09:34:07.000Z</time>
      </trkpt>
      <trkpt lat="42.97053" lon="1.06807">
        <ele>908</ele>
        <time>2025-09-20T09:34:08.000Z</time>
      </trkpt>
      <trkpt lat="42.97055" lon="1.06806">
        <ele>908</ele>
        <time>2025-09-20T09:34:09.000Z</time>
      </trkpt>
      <trkpt lat="42.97058" lon="1.06805">
        <ele>909</ele>
        <time>2025-09-20T09:34:10.000Z</time>
      </trkpt>
      <trkpt lat="42.97061" lon="1.06804">
        <ele>909</ele>
        <time>2025-09-20T09:34:11.000Z</time>
      </trkpt>
      <trkpt lat="42.97063" lon="1.06802">
        <ele>909</ele>
        <time>2025-09-20T09:34:12.000Z</time>
      </trkpt>
      <trkpt lat="42.97065" lon="1.06801">
        <ele>909</ele>
        <time>2025-09-20T09:34:13.000Z</time>
      </trkpt>
      <trkpt lat="42.97067" lon="1.06799">
        <ele>910</ele>
        <time>2025-09-20T09:34:14.000Z</time>
      </trkpt>
      <trkpt lat="42.97069" lon="1.06798">
        <ele>910</ele>
        <time>2025-09-20T09:34:15.000Z</time>
      </trkpt>
      <trkpt lat="42.97071" lon="1.06797">
        <ele>911</ele>
        <time>2025-09-20T09:34:16.000Z</time>
      </trkpt>
      <trkpt lat="42.97072" lon="1.06795">
        <ele>911</ele>
        <time>2025-09-20T09:34:17.000Z</time>
      </trkpt>
      <trkpt lat="42.97074" lon="1.06794">
        <ele>911</ele>
        <time>2025-09-20T09:34:18.000Z</time>
      </trkpt>
      <trkpt lat="42.97076" lon="1.06793">
        <ele>911</ele>
        <time>2025-09-20T09:34:19.000Z</time>
      </trkpt>
      <trkpt lat="42.97078" lon="1.06791">
        <ele>911</ele>
        <time>2025-09-20T09:34:20.000Z</time>
      </trkpt>
      <trkpt lat="42.9708" lon="1.06791">
        <ele>912</ele>
        <time>2025-09-20T09:34:21.000Z</time>
      </trkpt>
      <trkpt lat="42.97082" lon="1.06789">
        <ele>913</ele>
        <time>2025-09-20T09:34:22.000Z</time>
      </trkpt>
      <trkpt lat="42.97085" lon="1.06787">
        <ele>914</ele>
        <time>2025-09-20T09:34:23.000Z</time>
      </trkpt>
      <trkpt lat="42.97086" lon="1.06785">
        <ele>914</ele>
        <time>2025-09-20T09:34:24.000Z</time>
      </trkpt>
      <trkpt lat="42.97088" lon="1.06782">
        <ele>915</ele>
        <time>2025-09-20T09:34:25.000Z</time>
      </trkpt>
      <trkpt lat="42.97089" lon="1.06779">
        <ele>915</ele>
        <time>2025-09-20T09:34:26.000Z</time>
      </trkpt>
      <trkpt lat="42.97091" lon="1.06776">
        <ele>915</ele>
        <time>2025-09-20T09:34:27.000Z</time>
      </trkpt>
      <trkpt lat="42.97094" lon="1.06775">
        <ele>915</ele>
        <time>2025-09-20T09:34:28.000Z</time>
      </trkpt>
      <trkpt lat="42.97096" lon="1.06773">
        <ele>916</ele>
        <time>2025-09-20T09:34:29.000Z</time>
      </trkpt>
      <trkpt lat="42.97098" lon="1.06772">
        <ele>916</ele>
        <time>2025-09-20T09:34:30.000Z</time>
      </trkpt>
      <trkpt lat="42.97099" lon="1.06769">
        <ele>916</ele>
        <time>2025-09-20T09:34:31.000Z</time>
      </trkpt>
      <trkpt lat="42.97101" lon="1.06767">
        <ele>916</ele>
        <time>2025-09-20T09:34:32.000Z</time>
      </trkpt>
      <trkpt lat="42.97103" lon="1.06766">
        <ele>916</ele>
        <time>2025-09-20T09:34:33.000Z</time>
      </trkpt>
      <trkpt lat="42.97106" lon="1.06765">
        <ele>916</ele>
        <time>2025-09-20T09:34:34.000Z</time>
      </trkpt>
      <trkpt lat="42.97108" lon="1.06763">
        <ele>916</ele>
        <time>2025-09-20T09:34:35.000Z</time>
      </trkpt>
      <trkpt lat="42.9711" lon="1.06762">
        <ele>917</ele>
        <time>2025-09-20T09:34:36.000Z</time>
      </trkpt>
      <trkpt lat="42.97112" lon="1.0676">
        <ele>917</ele>
        <time>2025-09-20T09:34:37.000Z</time>
      </trkpt>
      <trkpt lat="42.97114" lon="1.06759">
        <ele>918</ele>
        <time>2025-09-20T09:34:38.000Z</time>
      </trkpt>
      <trkpt lat="42.97117" lon="1.06757">
        <ele>917</ele>
        <time>2025-09-20T09:34:39.000Z</time>
      </trkpt>
      <trkpt lat="42.97119" lon="1.06755">
        <ele>917</ele>
        <time>2025-09-20T09:34:40.000Z</time>
      </trkpt>
      <trkpt lat="42.97122" lon="1.06752">
        <ele>918</ele>
        <time>2025-09-20T09:34:41.000Z</time>
      </trkpt>
      <trkpt lat="42.97125" lon="1.06749">
        <ele>918</ele>
        <time>2025-09-20T09:34:42.000Z</time>
      </trkpt>
      <trkpt lat="42.97127" lon="1.06747">
        <ele>919</ele>
        <time>2025-09-20T09:34:43.000Z</time>
      </trkpt>
      <trkpt lat="42.97128" lon="1.06746">
        <ele>919</ele>
        <time>2025-09-20T09:34:44.000Z</time>
      </trkpt>
      <trkpt lat="42.97131" lon="1.06745">
        <ele>920</ele>
        <time>2025-09-20T09:34:45.000Z</time>
      </trkpt>
      <trkpt lat="42.97133" lon="1.06742">
        <ele>921</ele>
        <time>2025-09-20T09:34:46.000Z</time>
      </trkpt>
      <trkpt lat="42.97136" lon="1.06741">
        <ele>921</ele>
        <time>2025-09-20T09:34:47.000Z</time>
      </trkpt>
      <trkpt lat="42.97138" lon="1.06739">
        <ele>922</ele>
        <time>2025-09-20T09:34:48.000Z</time>
      </trkpt>
      <trkpt lat="42.97141" lon="1.06739">
        <ele>923</ele>
        <time>2025-09-20T09:34:49.000Z</time>
      </trkpt>
      <trkpt lat="42.97143" lon="1.06739">
        <ele>923</ele>
        <time>2025-09-20T09:34:50.000Z</time>
      </trkpt>
      <trkpt lat="42.97146" lon="1.06738">
        <ele>924</ele>
        <time>2025-09-20T09:34:51.000Z</time>
      </trkpt>
      <trkpt lat="42.97147" lon="1.06737">
        <ele>924</ele>
        <time>2025-09-20T09:34:52.000Z</time>
      </trkpt>
      <trkpt lat="42.97149" lon="1.06737">
        <ele>924</ele>
        <time>2025-09-20T09:34:53.000Z</time>
      </trkpt>
      <trkpt lat="42.97151" lon="1.06736">
        <ele>926</ele>
        <time>2025-09-20T09:34:54.000Z</time>
      </trkpt>
      <trkpt lat="42.97152" lon="1.06736">
        <ele>926</ele>
        <time>2025-09-20T09:34:55.000Z</time>
      </trkpt>
      <trkpt lat="42.97154" lon="1.06734">
        <ele>926</ele>
        <time>2025-09-20T09:34:56.000Z</time>
      </trkpt>
      <trkpt lat="42.97155" lon="1.06733">
        <ele>926</ele>
        <time>2025-09-20T09:34:57.000Z</time>
      </trkpt>
      <trkpt lat="42.97156" lon="1.06732">
        <ele>927</ele>
        <time>2025-09-20T09:34:58.000Z</time>
      </trkpt>
      <trkpt lat="42.97158" lon="1.06731">
        <ele>927</ele>
        <time>2025-09-20T09:34:59.000Z</time>
      </trkpt>
      <trkpt lat="42.9716" lon="1.06731">
        <ele>927</ele>
        <time>2025-09-20T09:35:00.000Z</time>
      </trkpt>
      <trkpt lat="42.97161" lon="1.06729">
        <ele>927</ele>
        <time>2025-09-20T09:35:01.000Z</time>
      </trkpt>
      <trkpt lat="42.97163" lon="1.06728">
        <ele>926</ele>
        <time>2025-09-20T09:35:02.000Z</time>
      </trkpt>
      <trkpt lat="42.97165" lon="1.06728">
        <ele>926</ele>
        <time>2025-09-20T09:35:03.000Z</time>
      </trkpt>
      <trkpt lat="42.97167" lon="1.06727">
        <ele>926</ele>
        <time>2025-09-20T09:35:04.000Z</time>
      </trkpt>
      <trkpt lat="42.9717" lon="1.06726">
        <ele>926</ele>
        <time>2025-09-20T09:35:05.000Z</time>
      </trkpt>
      <trkpt lat="42.97172" lon="1.06726">
        <ele>926</ele>
        <time>2025-09-20T09:35:06.000Z</time>
      </trkpt>
      <trkpt lat="42.97174" lon="1.06726">
        <ele>926</ele>
        <time>2025-09-20T09:35:07.000Z</time>
      </trkpt>
      <trkpt lat="42.97176" lon="1.06726">
        <ele>926</ele>
        <time>2025-09-20T09:35:08.000Z</time>
      </trkpt>
      <trkpt lat="42.97178" lon="1.06727">
        <ele>926</ele>
        <time>2025-09-20T09:35:09.000Z</time>
      </trkpt>
      <trkpt lat="42.9718" lon="1.06727">
        <ele>927</ele>
        <time>2025-09-20T09:35:10.000Z</time>
      </trkpt>
      <trkpt lat="42.97182" lon="1.06728">
        <ele>927</ele>
        <time>2025-09-20T09:35:11.000Z</time>
      </trkpt>
      <trkpt lat="42.97183" lon="1.06728">
        <ele>927</ele>
        <time>2025-09-20T09:35:12.000Z</time>
      </trkpt>
      <trkpt lat="42.97185" lon="1.06728">
        <ele>928</ele>
        <time>2025-09-20T09:35:13.000Z</time>
      </trkpt>
      <trkpt lat="42.97186" lon="1.06727">
        <ele>928</ele>
        <time>2025-09-20T09:35:14.000Z</time>
      </trkpt>
      <trkpt lat="42.97188" lon="1.06728">
        <ele>928</ele>
        <time>2025-09-20T09:35:15.000Z</time>
      </trkpt>
      <trkpt lat="42.9719" lon="1.06728">
        <ele>928</ele>
        <time>2025-09-20T09:35:16.000Z</time>
      </trkpt>
      <trkpt lat="42.97192" lon="1.06728">
        <ele>928</ele>
        <time>2025-09-20T09:35:17.000Z</time>
      </trkpt>
      <trkpt lat="42.97193" lon="1.06728">
        <ele>928</ele>
        <time>2025-09-20T09:35:18.000Z</time>
      </trkpt>
      <trkpt lat="42.97194" lon="1.06728">
        <ele>928</ele>
        <time>2025-09-20T09:35:19.000Z</time>
      </trkpt>
      <trkpt lat="42.97194" lon="1.06728">
        <ele>929</ele>
        <time>2025-09-20T09:35:20.000Z</time>
      </trkpt>
      <trkpt lat="42.97194" lon="1.0673">
        <ele>929</ele>
        <time>2025-09-20T09:35:21.000Z</time>
      </trkpt>
      <trkpt lat="42.97195" lon="1.0673">
        <ele>930</ele>
        <time>2025-09-20T09:35:22.000Z</time>
      </trkpt>
      <trkpt lat="42.97196" lon="1.0673">
        <ele>930</ele>
        <time>2025-09-20T09:35:23.000Z</time>
      </trkpt>
      <trkpt lat="42.97197" lon="1.0673">
        <ele>929</ele>
        <time>2025-09-20T09:35:24.000Z</time>
      </trkpt>
      <trkpt lat="42.97199" lon="1.06731">
        <ele>929</ele>
        <time>2025-09-20T09:35:25.000Z</time>
      </trkpt>
      <trkpt lat="42.97201" lon="1.06732">
        <ele>930</ele>
        <time>2025-09-20T09:35:26.000Z</time>
      </trkpt>
      <trkpt lat="42.97203" lon="1.06732">
        <ele>930</ele>
        <time>2025-09-20T09:35:27.000Z</time>
      </trkpt>
      <trkpt lat="42.97205" lon="1.06732">
        <ele>930</ele>
        <time>2025-09-20T09:35:28.000Z</time>
      </trkpt>
      <trkpt lat="42.97207" lon="1.06733">
        <ele>930</ele>
        <time>2025-09-20T09:35:29.000Z</time>
      </trkpt>
      <trkpt lat="42.97209" lon="1.06734">
        <ele>930</ele>
        <time>2025-09-20T09:35:30.000Z</time>
      </trkpt>
      <trkpt lat="42.97212" lon="1.06735">
        <ele>930</ele>
        <time>2025-09-20T09:35:31.000Z</time>
      </trkpt>
      <trkpt lat="42.97215" lon="1.06736">
        <ele>930</ele>
        <time>2025-09-20T09:35:32.000Z</time>
      </trkpt>
      <trkpt lat="42.97217" lon="1.06737">
        <ele>931</ele>
        <time>2025-09-20T09:35:33.000Z</time>
      </trkpt>
      <trkpt lat="42.97219" lon="1.06738">
        <ele>931</ele>
        <time>2025-09-20T09:35:34.000Z</time>
      </trkpt>
      <trkpt lat="42.97221" lon="1.06738">
        <ele>932</ele>
        <time>2025-09-20T09:35:35.000Z</time>
      </trkpt>
      <trkpt lat="42.97223" lon="1.06738">
        <ele>932</ele>
        <time>2025-09-20T09:35:36.000Z</time>
      </trkpt>
      <trkpt lat="42.97226" lon="1.06738">
        <ele>932</ele>
        <time>2025-09-20T09:35:37.000Z</time>
      </trkpt>
      <trkpt lat="42.97227" lon="1.06738">
        <ele>932</ele>
        <time>2025-09-20T09:35:38.000Z</time>
      </trkpt>
      <trkpt lat="42.97228" lon="1.06736">
        <ele>933</ele>
        <time>2025-09-20T09:35:39.000Z</time>
      </trkpt>
      <trkpt lat="42.9723" lon="1.06734">
        <ele>932</ele>
        <time>2025-09-20T09:35:40.000Z</time>
      </trkpt>
      <trkpt lat="42.97231" lon="1.06731">
        <ele>933</ele>
        <time>2025-09-20T09:35:41.000Z</time>
      </trkpt>
      <trkpt lat="42.97231" lon="1.06728">
        <ele>933</ele>
        <time>2025-09-20T09:35:42.000Z</time>
      </trkpt>
      <trkpt lat="42.97232" lon="1.06726">
        <ele>933</ele>
        <time>2025-09-20T09:35:43.000Z</time>
      </trkpt>
      <trkpt lat="42.97232" lon="1.06724">
        <ele>934</ele>
        <time>2025-09-20T09:35:44.000Z</time>
      </trkpt>
      <trkpt lat="42.97233" lon="1.06722">
        <ele>934</ele>
        <time>2025-09-20T09:35:45.000Z</time>
      </trkpt>
      <trkpt lat="42.97233" lon="1.06719">
        <ele>934</ele>
        <time>2025-09-20T09:35:46.000Z</time>
      </trkpt>
      <trkpt lat="42.97234" lon="1.06717">
        <ele>934</ele>
        <time>2025-09-20T09:35:47.000Z</time>
      </trkpt>
      <trkpt lat="42.97235" lon="1.06715">
        <ele>934</ele>
        <time>2025-09-20T09:35:48.000Z</time>
      </trkpt>
      <trkpt lat="42.97237" lon="1.06713">
        <ele>934</ele>
        <time>2025-09-20T09:35:49.000Z</time>
      </trkpt>
      <trkpt lat="42.97239" lon="1.06711">
        <ele>935</ele>
        <time>2025-09-20T09:35:50.000Z</time>
      </trkpt>
      <trkpt lat="42.97241" lon="1.06709">
        <ele>936</ele>
        <time>2025-09-20T09:35:51.000Z</time>
      </trkpt>
      <trkpt lat="42.97243" lon="1.06707">
        <ele>936</ele>
        <time>2025-09-20T09:35:52.000Z</time>
      </trkpt>
      <trkpt lat="42.97244" lon="1.06704">
        <ele>935</ele>
        <time>2025-09-20T09:35:53.000Z</time>
      </trkpt>
      <trkpt lat="42.97245" lon="1.06701">
        <ele>934</ele>
        <time>2025-09-20T09:35:54.000Z</time>
      </trkpt>
      <trkpt lat="42.97246" lon="1.06698">
        <ele>935</ele>
        <time>2025-09-20T09:35:55.000Z</time>
      </trkpt>
      <trkpt lat="42.97247" lon="1.06696">
        <ele>936</ele>
        <time>2025-09-20T09:35:56.000Z</time>
      </trkpt>
      <trkpt lat="42.97249" lon="1.06694">
        <ele>937</ele>
        <time>2025-09-20T09:35:57.000Z</time>
      </trkpt>
      <trkpt lat="42.97249" lon="1.06692">
        <ele>938</ele>
        <time>2025-09-20T09:35:58.000Z</time>
      </trkpt>
      <trkpt lat="42.9725" lon="1.06689">
        <ele>939</ele>
        <time>2025-09-20T09:35:59.000Z</time>
      </trkpt>
      <trkpt lat="42.97251" lon="1.06687">
        <ele>940</ele>
        <time>2025-09-20T09:36:00.000Z</time>
      </trkpt>
      <trkpt lat="42.97253" lon="1.06685">
        <ele>940</ele>
        <time>2025-09-20T09:36:01.000Z</time>
      </trkpt>
      <trkpt lat="42.97255" lon="1.06683">
        <ele>941</ele>
        <time>2025-09-20T09:36:02.000Z</time>
      </trkpt>
      <trkpt lat="42.97256" lon="1.06681">
        <ele>942</ele>
        <time>2025-09-20T09:36:03.000Z</time>
      </trkpt>
      <trkpt lat="42.97258" lon="1.06679">
        <ele>942</ele>
        <time>2025-09-20T09:36:04.000Z</time>
      </trkpt>
      <trkpt lat="42.97259" lon="1.06677">
        <ele>942</ele>
        <time>2025-09-20T09:36:05.000Z</time>
      </trkpt>
      <trkpt lat="42.9726" lon="1.06676">
        <ele>942</ele>
        <time>2025-09-20T09:36:06.000Z</time>
      </trkpt>
      <trkpt lat="42.97261" lon="1.06674">
        <ele>943</ele>
        <time>2025-09-20T09:36:07.000Z</time>
      </trkpt>
      <trkpt lat="42.97263" lon="1.06673">
        <ele>943</ele>
        <time>2025-09-20T09:36:08.000Z</time>
      </trkpt>
      <trkpt lat="42.97264" lon="1.06671">
        <ele>943</ele>
        <time>2025-09-20T09:36:09.000Z</time>
      </trkpt>
      <trkpt lat="42.97266" lon="1.06669">
        <ele>943</ele>
        <time>2025-09-20T09:36:10.000Z</time>
      </trkpt>
      <trkpt lat="42.97268" lon="1.06668">
        <ele>944</ele>
        <time>2025-09-20T09:36:11.000Z</time>
      </trkpt>
      <trkpt lat="42.97271" lon="1.06666">
        <ele>944</ele>
        <time>2025-09-20T09:36:12.000Z</time>
      </trkpt>
      <trkpt lat="42.97273" lon="1.06664">
        <ele>944</ele>
        <time>2025-09-20T09:36:13.000Z</time>
      </trkpt>
      <trkpt lat="42.97275" lon="1.06662">
        <ele>944</ele>
        <time>2025-09-20T09:36:14.000Z</time>
      </trkpt>
      <trkpt lat="42.97277" lon="1.06661">
        <ele>944</ele>
        <time>2025-09-20T09:36:15.000Z</time>
      </trkpt>
      <trkpt lat="42.97279" lon="1.06661">
        <ele>944</ele>
        <time>2025-09-20T09:36:16.000Z</time>
      </trkpt>
      <trkpt lat="42.97281" lon="1.06661">
        <ele>944</ele>
        <time>2025-09-20T09:36:17.000Z</time>
      </trkpt>
      <trkpt lat="42.97284" lon="1.0666">
        <ele>944</ele>
        <time>2025-09-20T09:36:18.000Z</time>
      </trkpt>
      <trkpt lat="42.97286" lon="1.06659">
        <ele>943</ele>
        <time>2025-09-20T09:36:19.000Z</time>
      </trkpt>
      <trkpt lat="42.97288" lon="1.06657">
        <ele>943</ele>
        <time>2025-09-20T09:36:20.000Z</time>
      </trkpt>
      <trkpt lat="42.97291" lon="1.06654">
        <ele>944</ele>
        <time>2025-09-20T09:36:21.000Z</time>
      </trkpt>
      <trkpt lat="42.97292" lon="1.06651">
        <ele>944</ele>
        <time>2025-09-20T09:36:22.000Z</time>
      </trkpt>
      <trkpt lat="42.97294" lon="1.06649">
        <ele>944</ele>
        <time>2025-09-20T09:36:23.000Z</time>
      </trkpt>
      <trkpt lat="42.97295" lon="1.06646">
        <ele>945</ele>
        <time>2025-09-20T09:36:24.000Z</time>
      </trkpt>
      <trkpt lat="42.97296" lon="1.06643">
        <ele>945</ele>
        <time>2025-09-20T09:36:25.000Z</time>
      </trkpt>
      <trkpt lat="42.97297" lon="1.06641">
        <ele>945</ele>
        <time>2025-09-20T09:36:26.000Z</time>
      </trkpt>
      <trkpt lat="42.97298" lon="1.06638">
        <ele>945</ele>
        <time>2025-09-20T09:36:27.000Z</time>
      </trkpt>
      <trkpt lat="42.97299" lon="1.06637">
        <ele>945</ele>
        <time>2025-09-20T09:36:28.000Z</time>
      </trkpt>
      <trkpt lat="42.973" lon="1.06635">
        <ele>945</ele>
        <time>2025-09-20T09:36:29.000Z</time>
      </trkpt>
      <trkpt lat="42.973" lon="1.06633">
        <ele>946</ele>
        <time>2025-09-20T09:36:30.000Z</time>
      </trkpt>
      <trkpt lat="42.97301" lon="1.06633">
        <ele>946</ele>
        <time>2025-09-20T09:36:31.000Z</time>
      </trkpt>
      <trkpt lat="42.97301" lon="1.06632">
        <ele>946</ele>
        <time>2025-09-20T09:36:32.000Z</time>
      </trkpt>
      <trkpt lat="42.97304" lon="1.0663">
        <ele>946</ele>
        <time>2025-09-20T09:38:49.000Z</time>
      </trkpt>
      <trkpt lat="42.97305" lon="1.06628">
        <ele>945</ele>
        <time>2025-09-20T09:38:50.000Z</time>
      </trkpt>
      <trkpt lat="42.97308" lon="1.06626">
        <ele>946</ele>
        <time>2025-09-20T09:38:51.000Z</time>
      </trkpt>
      <trkpt lat="42.9731" lon="1.06623">
        <ele>946</ele>
        <time>2025-09-20T09:38:52.000Z</time>
      </trkpt>
      <trkpt lat="42.97311" lon="1.0662">
        <ele>945</ele>
        <time>2025-09-20T09:38:53.000Z</time>
      </trkpt>
      <trkpt lat="42.97313" lon="1.06617">
        <ele>945</ele>
        <time>2025-09-20T09:38:54.000Z</time>
      </trkpt>
      <trkpt lat="42.97315" lon="1.06614">
        <ele>945</ele>
        <time>2025-09-20T09:38:55.000Z</time>
      </trkpt>
      <trkpt lat="42.97317" lon="1.0661">
        <ele>945</ele>
        <time>2025-09-20T09:38:56.000Z</time>
      </trkpt>
      <trkpt lat="42.9732" lon="1.06606">
        <ele>945</ele>
        <time>2025-09-20T09:38:57.000Z</time>
      </trkpt>
      <trkpt lat="42.97323" lon="1.066">
        <ele>945</ele>
        <time>2025-09-20T09:38:58.000Z</time>
      </trkpt>
      <trkpt lat="42.97326" lon="1.06595">
        <ele>945</ele>
        <time>2025-09-20T09:38:59.000Z</time>
      </trkpt>
      <trkpt lat="42.9733" lon="1.06589">
        <ele>945</ele>
        <time>2025-09-20T09:39:00.000Z</time>
      </trkpt>
      <trkpt lat="42.97333" lon="1.06583">
        <ele>944</ele>
        <time>2025-09-20T09:39:01.000Z</time>
      </trkpt>
      <trkpt lat="42.97336" lon="1.06576">
        <ele>944</ele>
        <time>2025-09-20T09:39:02.000Z</time>
      </trkpt>
      <trkpt lat="42.97339" lon="1.0657">
        <ele>944</ele>
        <time>2025-09-20T09:39:03.000Z</time>
      </trkpt>
      <trkpt lat="42.97343" lon="1.06563">
        <ele>944</ele>
        <time>2025-09-20T09:39:04.000Z</time>
      </trkpt>
      <trkpt lat="42.97347" lon="1.06558">
        <ele>943</ele>
        <time>2025-09-20T09:39:05.000Z</time>
      </trkpt>
      <trkpt lat="42.97351" lon="1.06551">
        <ele>942</ele>
        <time>2025-09-20T09:39:06.000Z</time>
      </trkpt>
      <trkpt lat="42.97356" lon="1.06545">
        <ele>941</ele>
        <time>2025-09-20T09:39:07.000Z</time>
      </trkpt>
      <trkpt lat="42.97359" lon="1.0654">
        <ele>941</ele>
        <time>2025-09-20T09:39:08.000Z</time>
      </trkpt>
      <trkpt lat="42.97364" lon="1.06535">
        <ele>941</ele>
        <time>2025-09-20T09:39:09.000Z</time>
      </trkpt>
      <trkpt lat="42.97367" lon="1.0653">
        <ele>940</ele>
        <time>2025-09-20T09:39:10.000Z</time>
      </trkpt>
      <trkpt lat="42.97372" lon="1.06526">
        <ele>940</ele>
        <time>2025-09-20T09:39:11.000Z</time>
      </trkpt>
      <trkpt lat="42.97376" lon="1.06521">
        <ele>940</ele>
        <time>2025-09-20T09:39:12.000Z</time>
      </trkpt>
      <trkpt lat="42.97381" lon="1.06518">
        <ele>940</ele>
        <time>2025-09-20T09:39:13.000Z</time>
      </trkpt>
      <trkpt lat="42.97386" lon="1.06515">
        <ele>939</ele>
        <time>2025-09-20T09:39:14.000Z</time>
      </trkpt>
      <trkpt lat="42.97392" lon="1.06512">
        <ele>940</ele>
        <time>2025-09-20T09:39:15.000Z</time>
      </trkpt>
      <trkpt lat="42.97397" lon="1.06511">
        <ele>939</ele>
        <time>2025-09-20T09:39:16.000Z</time>
      </trkpt>
      <trkpt lat="42.97404" lon="1.06509">
        <ele>939</ele>
        <time>2025-09-20T09:39:17.000Z</time>
      </trkpt>
      <trkpt lat="42.97411" lon="1.06506">
        <ele>939</ele>
        <time>2025-09-20T09:39:18.000Z</time>
      </trkpt>
      <trkpt lat="42.97418" lon="1.06503">
        <ele>940</ele>
        <time>2025-09-20T09:39:19.000Z</time>
      </trkpt>
      <trkpt lat="42.97424" lon="1.06497">
        <ele>940</ele>
        <time>2025-09-20T09:39:20.000Z</time>
      </trkpt>
      <trkpt lat="42.9743" lon="1.06491">
        <ele>939</ele>
        <time>2025-09-20T09:39:21.000Z</time>
      </trkpt>
      <trkpt lat="42.97435" lon="1.06485">
        <ele>939</ele>
        <time>2025-09-20T09:39:22.000Z</time>
      </trkpt>
      <trkpt lat="42.97441" lon="1.06477">
        <ele>939</ele>
        <time>2025-09-20T09:39:23.000Z</time>
      </trkpt>
      <trkpt lat="42.97446" lon="1.06469">
        <ele>939</ele>
        <time>2025-09-20T09:39:24.000Z</time>
      </trkpt>
      <trkpt lat="42.97451" lon="1.06461">
        <ele>939</ele>
        <time>2025-09-20T09:39:25.000Z</time>
      </trkpt>
      <trkpt lat="42.97456" lon="1.06452">
        <ele>937</ele>
        <time>2025-09-20T09:39:26.000Z</time>
      </trkpt>
      <trkpt lat="42.97461" lon="1.06442">
        <ele>936</ele>
        <time>2025-09-20T09:39:27.000Z</time>
      </trkpt>
      <trkpt lat="42.97465" lon="1.06432">
        <ele>935</ele>
        <time>2025-09-20T09:39:28.000Z</time>
      </trkpt>
      <trkpt lat="42.97467" lon="1.0642">
        <ele>935</ele>
        <time>2025-09-20T09:39:29.000Z</time>
      </trkpt>
      <trkpt lat="42.97467" lon="1.06408">
        <ele>934</ele>
        <time>2025-09-20T09:39:30.000Z</time>
      </trkpt>
      <trkpt lat="42.97468" lon="1.06396">
        <ele>933</ele>
        <time>2025-09-20T09:39:31.000Z</time>
      </trkpt>
      <trkpt lat="42.97467" lon="1.06382">
        <ele>932</ele>
        <time>2025-09-20T09:39:32.000Z</time>
      </trkpt>
      <trkpt lat="42.97465" lon="1.06368">
        <ele>931</ele>
        <time>2025-09-20T09:39:33.000Z</time>
      </trkpt>
      <trkpt lat="42.97464" lon="1.06354">
        <ele>930</ele>
        <time>2025-09-20T09:39:34.000Z</time>
      </trkpt>
      <trkpt lat="42.97461" lon="1.06341">
        <ele>928</ele>
        <time>2025-09-20T09:39:35.000Z</time>
      </trkpt>
      <trkpt lat="42.97459" lon="1.06327">
        <ele>927</ele>
        <time>2025-09-20T09:39:36.000Z</time>
      </trkpt>
      <trkpt lat="42.97457" lon="1.06312">
        <ele>926</ele>
        <time>2025-09-20T09:39:37.000Z</time>
      </trkpt>
      <trkpt lat="42.97453" lon="1.06297">
        <ele>926</ele>
        <time>2025-09-20T09:39:38.000Z</time>
      </trkpt>
      <trkpt lat="42.9745" lon="1.06283">
        <ele>925</ele>
        <time>2025-09-20T09:39:39.000Z</time>
      </trkpt>
      <trkpt lat="42.97447" lon="1.06269">
        <ele>923</ele>
        <time>2025-09-20T09:39:40.000Z</time>
      </trkpt>
      <trkpt lat="42.97444" lon="1.06254">
        <ele>922</ele>
        <time>2025-09-20T09:39:41.000Z</time>
      </trkpt>
      <trkpt lat="42.97442" lon="1.06239">
        <ele>920</ele>
        <time>2025-09-20T09:39:42.000Z</time>
      </trkpt>
      <trkpt lat="42.9744" lon="1.06226">
        <ele>920</ele>
        <time>2025-09-20T09:39:43.000Z</time>
      </trkpt>
      <trkpt lat="42.9744" lon="1.06215">
        <ele>921</ele>
        <time>2025-09-20T09:39:44.000Z</time>
      </trkpt>
      <trkpt lat="42.97441" lon="1.06206">
        <ele>921</ele>
        <time>2025-09-20T09:39:45.000Z</time>
      </trkpt>
      <trkpt lat="42.97445" lon="1.06199">
        <ele>921</ele>
        <time>2025-09-20T09:39:46.000Z</time>
      </trkpt>
      <trkpt lat="42.97451" lon="1.06193">
        <ele>920</ele>
        <time>2025-09-20T09:39:47.000Z</time>
      </trkpt>
      <trkpt lat="42.97458" lon="1.06189">
        <ele>920</ele>
        <time>2025-09-20T09:39:48.000Z</time>
      </trkpt>
      <trkpt lat="42.97465" lon="1.06185">
        <ele>919</ele>
        <time>2025-09-20T09:39:49.000Z</time>
      </trkpt>
      <trkpt lat="42.97471" lon="1.06181">
        <ele>919</ele>
        <time>2025-09-20T09:39:50.000Z</time>
      </trkpt>
      <trkpt lat="42.97477" lon="1.06177">
        <ele>919</ele>
        <time>2025-09-20T09:39:51.000Z</time>
      </trkpt>
      <trkpt lat="42.97484" lon="1.06172">
        <ele>919</ele>
        <time>2025-09-20T09:39:52.000Z</time>
      </trkpt>
      <trkpt lat="42.97491" lon="1.06169">
        <ele>919</ele>
        <time>2025-09-20T09:39:53.000Z</time>
      </trkpt>
      <trkpt lat="42.97499" lon="1.06167">
        <ele>918</ele>
        <time>2025-09-20T09:39:54.000Z</time>
      </trkpt>
      <trkpt lat="42.97506" lon="1.06161">
        <ele>918</ele>
        <time>2025-09-20T09:39:55.000Z</time>
      </trkpt>
      <trkpt lat="42.97513" lon="1.06156">
        <ele>917</ele>
        <time>2025-09-20T09:39:56.000Z</time>
      </trkpt>
      <trkpt lat="42.97519" lon="1.0615">
        <ele>917</ele>
        <time>2025-09-20T09:39:57.000Z</time>
      </trkpt>
      <trkpt lat="42.97526" lon="1.06144">
        <ele>917</ele>
        <time>2025-09-20T09:39:58.000Z</time>
      </trkpt>
      <trkpt lat="42.97533" lon="1.06138">
        <ele>916</ele>
        <time>2025-09-20T09:39:59.000Z</time>
      </trkpt>
      <trkpt lat="42.9754" lon="1.06131">
        <ele>915</ele>
        <time>2025-09-20T09:40:00.000Z</time>
      </trkpt>
      <trkpt lat="42.97546" lon="1.06125">
        <ele>915</ele>
        <time>2025-09-20T09:40:01.000Z</time>
      </trkpt>
      <trkpt lat="42.97553" lon="1.06117">
        <ele>915</ele>
        <time>2025-09-20T09:40:02.000Z</time>
      </trkpt>
      <trkpt lat="42.9756" lon="1.06109">
        <ele>915</ele>
        <time>2025-09-20T09:40:03.000Z</time>
      </trkpt>
      <trkpt lat="42.97565" lon="1.061">
        <ele>915</ele>
        <time>2025-09-20T09:40:04.000Z</time>
      </trkpt>
      <trkpt lat="42.97569" lon="1.06091">
        <ele>914</ele>
        <time>2025-09-20T09:40:05.000Z</time>
      </trkpt>
      <trkpt lat="42.97574" lon="1.06082">
        <ele>912</ele>
        <time>2025-09-20T09:40:06.000Z</time>
      </trkpt>
      <trkpt lat="42.97579" lon="1.06072">
        <ele>912</ele>
        <time>2025-09-20T09:40:07.000Z</time>
      </trkpt>
      <trkpt lat="42.97584" lon="1.06062">
        <ele>911</ele>
        <time>2025-09-20T09:40:08.000Z</time>
      </trkpt>
      <trkpt lat="42.97588" lon="1.06052">
        <ele>911</ele>
        <time>2025-09-20T09:40:09.000Z</time>
      </trkpt>
      <trkpt lat="42.97589" lon="1.06042">
        <ele>911</ele>
        <time>2025-09-20T09:40:10.000Z</time>
      </trkpt>
      <trkpt lat="42.9759" lon="1.06031">
        <ele>910</ele>
        <time>2025-09-20T09:40:11.000Z</time>
      </trkpt>
      <trkpt lat="42.97588" lon="1.06021">
        <ele>909</ele>
        <time>2025-09-20T09:40:12.000Z</time>
      </trkpt>
      <trkpt lat="42.97587" lon="1.0601">
        <ele>909</ele>
        <time>2025-09-20T09:40:13.000Z</time>
      </trkpt>
      <trkpt lat="42.97586" lon="1.05999">
        <ele>909</ele>
        <time>2025-09-20T09:40:14.000Z</time>
      </trkpt>
      <trkpt lat="42.97585" lon="1.05989">
        <ele>909</ele>
        <time>2025-09-20T09:40:15.000Z</time>
      </trkpt>
      <trkpt lat="42.97583" lon="1.05978">
        <ele>909</ele>
        <time>2025-09-20T09:40:16.000Z</time>
      </trkpt>
      <trkpt lat="42.97579" lon="1.05968">
        <ele>909</ele>
        <time>2025-09-20T09:40:17.000Z</time>
      </trkpt>
      <trkpt lat="42.97575" lon="1.0596">
        <ele>909</ele>
        <time>2025-09-20T09:40:18.000Z</time>
      </trkpt>
      <trkpt lat="42.9757" lon="1.05952">
        <ele>909</ele>
        <time>2025-09-20T09:40:19.000Z</time>
      </trkpt>
      <trkpt lat="42.97565" lon="1.05943">
        <ele>909</ele>
        <time>2025-09-20T09:40:20.000Z</time>
      </trkpt>
      <trkpt lat="42.97561" lon="1.05934">
        <ele>909</ele>
        <time>2025-09-20T09:40:21.000Z</time>
      </trkpt>
      <trkpt lat="42.97556" lon="1.05925">
        <ele>908</ele>
        <time>2025-09-20T09:40:22.000Z</time>
      </trkpt>
      <trkpt lat="42.97551" lon="1.05916">
        <ele>908</ele>
        <time>2025-09-20T09:40:23.000Z</time>
      </trkpt>
      <trkpt lat="42.97547" lon="1.05907">
        <ele>908</ele>
        <time>2025-09-20T09:40:24.000Z</time>
      </trkpt>
      <trkpt lat="42.97541" lon="1.05898">
        <ele>908</ele>
        <time>2025-09-20T09:40:25.000Z</time>
      </trkpt>
      <trkpt lat="42.97536" lon="1.05889">
        <ele>907</ele>
        <time>2025-09-20T09:40:26.000Z</time>
      </trkpt>
      <trkpt lat="42.97531" lon="1.05879">
        <ele>906</ele>
        <time>2025-09-20T09:40:27.000Z</time>
      </trkpt>
      <trkpt lat="42.97526" lon="1.0587">
        <ele>906</ele>
        <time>2025-09-20T09:40:28.000Z</time>
      </trkpt>
      <trkpt lat="42.97521" lon="1.0586">
        <ele>905</ele>
        <time>2025-09-20T09:40:29.000Z</time>
      </trkpt>
      <trkpt lat="42.97516" lon="1.05851">
        <ele>905</ele>
        <time>2025-09-20T09:40:30.000Z</time>
      </trkpt>
      <trkpt lat="42.97511" lon="1.05842">
        <ele>905</ele>
        <time>2025-09-20T09:40:31.000Z</time>
      </trkpt>
      <trkpt lat="42.97506" lon="1.05832">
        <ele>904</ele>
        <time>2025-09-20T09:40:32.000Z</time>
      </trkpt>
      <trkpt lat="42.97501" lon="1.05824">
        <ele>904</ele>
        <time>2025-09-20T09:40:33.000Z</time>
      </trkpt>
      <trkpt lat="42.97495" lon="1.05816">
        <ele>903</ele>
        <time>2025-09-20T09:40:34.000Z</time>
      </trkpt>
      <trkpt lat="42.9749" lon="1.05809">
        <ele>903</ele>
        <time>2025-09-20T09:40:35.000Z</time>
      </trkpt>
      <trkpt lat="42.97484" lon="1.05801">
        <ele>903</ele>
        <time>2025-09-20T09:40:36.000Z</time>
      </trkpt>
      <trkpt lat="42.97478" lon="1.05793">
        <ele>903</ele>
        <time>2025-09-20T09:40:37.000Z</time>
      </trkpt>
      <trkpt lat="42.97473" lon="1.05785">
        <ele>903</ele>
        <time>2025-09-20T09:40:38.000Z</time>
      </trkpt>
      <trkpt lat="42.97467" lon="1.05777">
        <ele>903</ele>
        <time>2025-09-20T09:40:39.000Z</time>
      </trkpt>
      <trkpt lat="42.97461" lon="1.05769">
        <ele>903</ele>
        <time>2025-09-20T09:40:40.000Z</time>
      </trkpt>
      <trkpt lat="42.97456" lon="1.05761">
        <ele>903</ele>
        <time>2025-09-20T09:40:41.000Z</time>
      </trkpt>
      <trkpt lat="42.97452" lon="1.05753">
        <ele>904</ele>
        <time>2025-09-20T09:40:42.000Z</time>
      </trkpt>
      <trkpt lat="42.9745" lon="1.05746">
        <ele>903</ele>
        <time>2025-09-20T09:40:43.000Z</time>
      </trkpt>
      <trkpt lat="42.97452" lon="1.0574">
        <ele>903</ele>
        <time>2025-09-20T09:40:44.000Z</time>
      </trkpt>
      <trkpt lat="42.97456" lon="1.05734">
        <ele>903</ele>
        <time>2025-09-20T09:40:45.000Z</time>
      </trkpt>
      <trkpt lat="42.9746" lon="1.05728">
        <ele>902</ele>
        <time>2025-09-20T09:40:46.000Z</time>
      </trkpt>
      <trkpt lat="42.97465" lon="1.05723">
        <ele>902</ele>
        <time>2025-09-20T09:40:47.000Z</time>
      </trkpt>
      <trkpt lat="42.97469" lon="1.05718">
        <ele>902</ele>
        <time>2025-09-20T09:40:48.000Z</time>
      </trkpt>
      <trkpt lat="42.97473" lon="1.05713">
        <ele>902</ele>
        <time>2025-09-20T09:40:49.000Z</time>
      </trkpt>
      <trkpt lat="42.97477" lon="1.05708">
        <ele>901</ele>
        <time>2025-09-20T09:40:50.000Z</time>
      </trkpt>
      <trkpt lat="42.97481" lon="1.05702">
        <ele>901</ele>
        <time>2025-09-20T09:40:51.000Z</time>
      </trkpt>
      <trkpt lat="42.97485" lon="1.05696">
        <ele>901</ele>
        <time>2025-09-20T09:40:52.000Z</time>
      </trkpt>
      <trkpt lat="42.97489" lon="1.0569">
        <ele>901</ele>
        <time>2025-09-20T09:40:53.000Z</time>
      </trkpt>
      <trkpt lat="42.97493" lon="1.05685">
        <ele>901</ele>
        <time>2025-09-20T09:40:54.000Z</time>
      </trkpt>
      <trkpt lat="42.97497" lon="1.0568">
        <ele>901</ele>
        <time>2025-09-20T09:40:55.000Z</time>
      </trkpt>
      <trkpt lat="42.97502" lon="1.05675">
        <ele>901</ele>
        <time>2025-09-20T09:40:56.000Z</time>
      </trkpt>
      <trkpt lat="42.97507" lon="1.05671">
        <ele>902</ele>
        <time>2025-09-20T09:40:57.000Z</time>
      </trkpt>
      <trkpt lat="42.97511" lon="1.05666">
        <ele>903</ele>
        <time>2025-09-20T09:40:58.000Z</time>
      </trkpt>
      <trkpt lat="42.97516" lon="1.05661">
        <ele>903</ele>
        <time>2025-09-20T09:40:59.000Z</time>
      </trkpt>
      <trkpt lat="42.97519" lon="1.05655">
        <ele>903</ele>
        <time>2025-09-20T09:41:00.000Z</time>
      </trkpt>
      <trkpt lat="42.97522" lon="1.05648">
        <ele>903</ele>
        <time>2025-09-20T09:41:01.000Z</time>
      </trkpt>
      <trkpt lat="42.97525" lon="1.05639">
        <ele>904</ele>
        <time>2025-09-20T09:41:02.000Z</time>
      </trkpt>
      <trkpt lat="42.97527" lon="1.05635">
        <ele>905</ele>
        <time>2025-09-20T09:41:03.000Z</time>
      </trkpt>
      <trkpt lat="42.97529" lon="1.05632">
        <ele>905</ele>
        <time>2025-09-20T09:41:04.000Z</time>
      </trkpt>
      <trkpt lat="42.97531" lon="1.05628">
        <ele>905</ele>
        <time>2025-09-20T09:41:05.000Z</time>
      </trkpt>
      <trkpt lat="42.97532" lon="1.05623">
        <ele>905</ele>
        <time>2025-09-20T09:41:06.000Z</time>
      </trkpt>
      <trkpt lat="42.97533" lon="1.05618">
        <ele>905</ele>
        <time>2025-09-20T09:41:07.000Z</time>
      </trkpt>
      <trkpt lat="42.97534" lon="1.05613">
        <ele>905</ele>
        <time>2025-09-20T09:41:08.000Z</time>
      </trkpt>
      <trkpt lat="42.97535" lon="1.05607">
        <ele>906</ele>
        <time>2025-09-20T09:41:09.000Z</time>
      </trkpt>
      <trkpt lat="42.97536" lon="1.05602">
        <ele>907</ele>
        <time>2025-09-20T09:41:10.000Z</time>
      </trkpt>
      <trkpt lat="42.97537" lon="1.05598">
        <ele>907</ele>
        <time>2025-09-20T09:41:11.000Z</time>
      </trkpt>
      <trkpt lat="42.97538" lon="1.05593">
        <ele>907</ele>
        <time>2025-09-20T09:41:12.000Z</time>
      </trkpt>
      <trkpt lat="42.97539" lon="1.05589">
        <ele>907</ele>
        <time>2025-09-20T09:41:13.000Z</time>
      </trkpt>
      <trkpt lat="42.97539" lon="1.05585">
        <ele>908</ele>
        <time>2025-09-20T09:41:14.000Z</time>
      </trkpt>
      <trkpt lat="42.97539" lon="1.05582">
        <ele>908</ele>
        <time>2025-09-20T09:41:15.000Z</time>
      </trkpt>
      <trkpt lat="42.97539" lon="1.05579">
        <ele>908</ele>
        <time>2025-09-20T09:41:16.000Z</time>
      </trkpt>
      <trkpt lat="42.97539" lon="1.05577">
        <ele>908</ele>
        <time>2025-09-20T09:41:17.000Z</time>
      </trkpt>
      <trkpt lat="42.97541" lon="1.05573">
        <ele>909</ele>
        <time>2025-09-20T09:41:18.000Z</time>
      </trkpt>
      <trkpt lat="42.97544" lon="1.05571">
        <ele>909</ele>
        <time>2025-09-20T09:41:19.000Z</time>
      </trkpt>
      <trkpt lat="42.97547" lon="1.05569">
        <ele>910</ele>
        <time>2025-09-20T09:41:20.000Z</time>
      </trkpt>
      <trkpt lat="42.9755" lon="1.05569">
        <ele>910</ele>
        <time>2025-09-20T09:41:21.000Z</time>
      </trkpt>
      <trkpt lat="42.97552" lon="1.05569">
        <ele>910</ele>
        <time>2025-09-20T09:41:22.000Z</time>
      </trkpt>
      <trkpt lat="42.97555" lon="1.05568">
        <ele>910</ele>
        <time>2025-09-20T09:41:23.000Z</time>
      </trkpt>
      <trkpt lat="42.97558" lon="1.05568">
        <ele>910</ele>
        <time>2025-09-20T09:41:24.000Z</time>
      </trkpt>
      <trkpt lat="42.97561" lon="1.05566">
        <ele>910</ele>
        <time>2025-09-20T09:41:25.000Z</time>
      </trkpt>
      <trkpt lat="42.97564" lon="1.05565">
        <ele>909</ele>
        <time>2025-09-20T09:41:26.000Z</time>
      </trkpt>
      <trkpt lat="42.97567" lon="1.05562">
        <ele>908</ele>
        <time>2025-09-20T09:41:27.000Z</time>
      </trkpt>
      <trkpt lat="42.9757" lon="1.05559">
        <ele>908</ele>
        <time>2025-09-20T09:41:28.000Z</time>
      </trkpt>
      <trkpt lat="42.97572" lon="1.05556">
        <ele>908</ele>
        <time>2025-09-20T09:41:29.000Z</time>
      </trkpt>
      <trkpt lat="42.97575" lon="1.05553">
        <ele>908</ele>
        <time>2025-09-20T09:41:30.000Z</time>
      </trkpt>
      <trkpt lat="42.97577" lon="1.05549">
        <ele>908</ele>
        <time>2025-09-20T09:41:31.000Z</time>
      </trkpt>
      <trkpt lat="42.9758" lon="1.05545">
        <ele>908</ele>
        <time>2025-09-20T09:41:32.000Z</time>
      </trkpt>
      <trkpt lat="42.97582" lon="1.05543">
        <ele>909</ele>
        <time>2025-09-20T09:41:33.000Z</time>
      </trkpt>
      <trkpt lat="42.97585" lon="1.0554">
        <ele>910</ele>
        <time>2025-09-20T09:41:34.000Z</time>
      </trkpt>
      <trkpt lat="42.97587" lon="1.05536">
        <ele>910</ele>
        <time>2025-09-20T09:41:35.000Z</time>
      </trkpt>
      <trkpt lat="42.97589" lon="1.05533">
        <ele>911</ele>
        <time>2025-09-20T09:41:36.000Z</time>
      </trkpt>
      <trkpt lat="42.97591" lon="1.05531">
        <ele>911</ele>
        <time>2025-09-20T09:41:37.000Z</time>
      </trkpt>
      <trkpt lat="42.97595" lon="1.05529">
        <ele>912</ele>
        <time>2025-09-20T09:41:38.000Z</time>
      </trkpt>
      <trkpt lat="42.97597" lon="1.05528">
        <ele>913</ele>
        <time>2025-09-20T09:41:39.000Z</time>
      </trkpt>
      <trkpt lat="42.976" lon="1.05527">
        <ele>914</ele>
        <time>2025-09-20T09:41:40.000Z</time>
      </trkpt>
      <trkpt lat="42.97603" lon="1.05527">
        <ele>915</ele>
        <time>2025-09-20T09:41:41.000Z</time>
      </trkpt>
      <trkpt lat="42.97606" lon="1.05525">
        <ele>915</ele>
        <time>2025-09-20T09:41:42.000Z</time>
      </trkpt>
      <trkpt lat="42.9761" lon="1.05522">
        <ele>915</ele>
        <time>2025-09-20T09:41:43.000Z</time>
      </trkpt>
      <trkpt lat="42.97613" lon="1.05518">
        <ele>914</ele>
        <time>2025-09-20T09:41:44.000Z</time>
      </trkpt>
      <trkpt lat="42.97616" lon="1.05514">
        <ele>915</ele>
        <time>2025-09-20T09:41:45.000Z</time>
      </trkpt>
      <trkpt lat="42.97619" lon="1.0551">
        <ele>915</ele>
        <time>2025-09-20T09:41:46.000Z</time>
      </trkpt>
      <trkpt lat="42.97622" lon="1.05506">
        <ele>915</ele>
        <time>2025-09-20T09:41:47.000Z</time>
      </trkpt>
      <trkpt lat="42.97624" lon="1.05501">
        <ele>914</ele>
        <time>2025-09-20T09:41:48.000Z</time>
      </trkpt>
      <trkpt lat="42.97627" lon="1.05496">
        <ele>914</ele>
        <time>2025-09-20T09:41:49.000Z</time>
      </trkpt>
      <trkpt lat="42.9763" lon="1.05489">
        <ele>915</ele>
        <time>2025-09-20T09:41:50.000Z</time>
      </trkpt>
      <trkpt lat="42.97632" lon="1.05483">
        <ele>915</ele>
        <time>2025-09-20T09:41:51.000Z</time>
      </trkpt>
      <trkpt lat="42.97634" lon="1.05478">
        <ele>915</ele>
        <time>2025-09-20T09:41:52.000Z</time>
      </trkpt>
      <trkpt lat="42.97635" lon="1.05471">
        <ele>915</ele>
        <time>2025-09-20T09:41:53.000Z</time>
      </trkpt>
      <trkpt lat="42.97637" lon="1.05465">
        <ele>915</ele>
        <time>2025-09-20T09:41:54.000Z</time>
      </trkpt>
      <trkpt lat="42.97639" lon="1.05458">
        <ele>915</ele>
        <time>2025-09-20T09:41:55.000Z</time>
      </trkpt>
      <trkpt lat="42.9764" lon="1.05452">
        <ele>915</ele>
        <time>2025-09-20T09:41:56.000Z</time>
      </trkpt>
      <trkpt lat="42.97642" lon="1.05446">
        <ele>915</ele>
        <time>2025-09-20T09:41:57.000Z</time>
      </trkpt>
      <trkpt lat="42.97644" lon="1.05441">
        <ele>915</ele>
        <time>2025-09-20T09:41:58.000Z</time>
      </trkpt>
      <trkpt lat="42.97646" lon="1.05434">
        <ele>914</ele>
        <time>2025-09-20T09:41:59.000Z</time>
      </trkpt>
      <trkpt lat="42.97647" lon="1.05428">
        <ele>913</ele>
        <time>2025-09-20T09:42:00.000Z</time>
      </trkpt>
      <trkpt lat="42.97649" lon="1.05422">
        <ele>912</ele>
        <time>2025-09-20T09:42:01.000Z</time>
      </trkpt>
      <trkpt lat="42.97651" lon="1.05414">
        <ele>911</ele>
        <time>2025-09-20T09:42:02.000Z</time>
      </trkpt>
      <trkpt lat="42.97652" lon="1.05407">
        <ele>910</ele>
        <time>2025-09-20T09:42:03.000Z</time>
      </trkpt>
      <trkpt lat="42.97654" lon="1.05399">
        <ele>909</ele>
        <time>2025-09-20T09:42:04.000Z</time>
      </trkpt>
      <trkpt lat="42.97656" lon="1.05389">
        <ele>908</ele>
        <time>2025-09-20T09:42:05.000Z</time>
      </trkpt>
      <trkpt lat="42.97658" lon="1.0538">
        <ele>907</ele>
        <time>2025-09-20T09:42:06.000Z</time>
      </trkpt>
      <trkpt lat="42.97661" lon="1.0537">
        <ele>906</ele>
        <time>2025-09-20T09:42:07.000Z</time>
      </trkpt>
      <trkpt lat="42.97664" lon="1.05359">
        <ele>904</ele>
        <time>2025-09-20T09:42:08.000Z</time>
      </trkpt>
      <trkpt lat="42.97668" lon="1.05349">
        <ele>903</ele>
        <time>2025-09-20T09:42:09.000Z</time>
      </trkpt>
      <trkpt lat="42.97674" lon="1.05337">
        <ele>903</ele>
        <time>2025-09-20T09:42:10.000Z</time>
      </trkpt>
      <trkpt lat="42.97679" lon="1.05325">
        <ele>902</ele>
        <time>2025-09-20T09:42:11.000Z</time>
      </trkpt>
      <trkpt lat="42.97684" lon="1.05313">
        <ele>902</ele>
        <time>2025-09-20T09:42:12.000Z</time>
      </trkpt>
      <trkpt lat="42.97691" lon="1.05301">
        <ele>901</ele>
        <time>2025-09-20T09:42:13.000Z</time>
      </trkpt>
      <trkpt lat="42.97698" lon="1.05289">
        <ele>900</ele>
        <time>2025-09-20T09:42:14.000Z</time>
      </trkpt>
      <trkpt lat="42.97704" lon="1.05278">
        <ele>900</ele>
        <time>2025-09-20T09:42:15.000Z</time>
      </trkpt>
      <trkpt lat="42.97711" lon="1.05266">
        <ele>898</ele>
        <time>2025-09-20T09:42:16.000Z</time>
      </trkpt>
      <trkpt lat="42.97718" lon="1.05254">
        <ele>897</ele>
        <time>2025-09-20T09:42:17.000Z</time>
      </trkpt>
      <trkpt lat="42.97725" lon="1.05243">
        <ele>896</ele>
        <time>2025-09-20T09:42:18.000Z</time>
      </trkpt>
      <trkpt lat="42.97733" lon="1.05234">
        <ele>894</ele>
        <time>2025-09-20T09:42:19.000Z</time>
      </trkpt>
      <trkpt lat="42.97741" lon="1.05224">
        <ele>893</ele>
        <time>2025-09-20T09:42:20.000Z</time>
      </trkpt>
      <trkpt lat="42.9775" lon="1.05214">
        <ele>892</ele>
        <time>2025-09-20T09:42:21.000Z</time>
      </trkpt>
      <trkpt lat="42.97758" lon="1.05203">
        <ele>891</ele>
        <time>2025-09-20T09:42:22.000Z</time>
      </trkpt>
      <trkpt lat="42.97765" lon="1.05192">
        <ele>890</ele>
        <time>2025-09-20T09:42:23.000Z</time>
      </trkpt>
      <trkpt lat="42.97773" lon="1.05181">
        <ele>889</ele>
        <time>2025-09-20T09:42:24.000Z</time>
      </trkpt>
      <trkpt lat="42.97782" lon="1.0517">
        <ele>888</ele>
        <time>2025-09-20T09:42:25.000Z</time>
      </trkpt>
      <trkpt lat="42.9779" lon="1.05159">
        <ele>887</ele>
        <time>2025-09-20T09:42:26.000Z</time>
      </trkpt>
      <trkpt lat="42.97798" lon="1.05149">
        <ele>886</ele>
        <time>2025-09-20T09:42:27.000Z</time>
      </trkpt>
      <trkpt lat="42.97808" lon="1.0514">
        <ele>884</ele>
        <time>2025-09-20T09:42:28.000Z</time>
      </trkpt>
      <trkpt lat="42.97818" lon="1.05131">
        <ele>883</ele>
        <time>2025-09-20T09:42:29.000Z</time>
      </trkpt>
      <trkpt lat="42.97827" lon="1.05122">
        <ele>881</ele>
        <time>2025-09-20T09:42:30.000Z</time>
      </trkpt>
      <trkpt lat="42.97836" lon="1.05112">
        <ele>880</ele>
        <time>2025-09-20T09:42:31.000Z</time>
      </trkpt>
      <trkpt lat="42.97844" lon="1.05102">
        <ele>879</ele>
        <time>2025-09-20T09:42:32.000Z</time>
      </trkpt>
      <trkpt lat="42.9785" lon="1.05093">
        <ele>878</ele>
        <time>2025-09-20T09:42:33.000Z</time>
      </trkpt>
      <trkpt lat="42.97856" lon="1.05085">
        <ele>877</ele>
        <time>2025-09-20T09:42:34.000Z</time>
      </trkpt>
      <trkpt lat="42.97859" lon="1.05074">
        <ele>876</ele>
        <time>2025-09-20T09:42:35.000Z</time>
      </trkpt>
      <trkpt lat="42.9786" lon="1.05061">
        <ele>875</ele>
        <time>2025-09-20T09:42:36.000Z</time>
      </trkpt>
      <trkpt lat="42.97858" lon="1.05049">
        <ele>874</ele>
        <time>2025-09-20T09:42:37.000Z</time>
      </trkpt>
      <trkpt lat="42.97854" lon="1.05036">
        <ele>873</ele>
        <time>2025-09-20T09:42:38.000Z</time>
      </trkpt>
      <trkpt lat="42.97851" lon="1.05024">
        <ele>872</ele>
        <time>2025-09-20T09:42:39.000Z</time>
      </trkpt>
      <trkpt lat="42.97846" lon="1.05012">
        <ele>870</ele>
        <time>2025-09-20T09:42:40.000Z</time>
      </trkpt>
      <trkpt lat="42.97841" lon="1.04999">
        <ele>869</ele>
        <time>2025-09-20T09:42:41.000Z</time>
      </trkpt>
      <trkpt lat="42.97836" lon="1.04986">
        <ele>868</ele>
        <time>2025-09-20T09:42:42.000Z</time>
      </trkpt>
      <trkpt lat="42.97832" lon="1.04974">
        <ele>867</ele>
        <time>2025-09-20T09:42:43.000Z</time>
      </trkpt>
      <trkpt lat="42.97827" lon="1.0496">
        <ele>867</ele>
        <time>2025-09-20T09:42:44.000Z</time>
      </trkpt>
      <trkpt lat="42.97822" lon="1.04947">
        <ele>866</ele>
        <time>2025-09-20T09:42:45.000Z</time>
      </trkpt>
      <trkpt lat="42.97817" lon="1.04934">
        <ele>866</ele>
        <time>2025-09-20T09:42:46.000Z</time>
      </trkpt>
      <trkpt lat="42.97812" lon="1.04921">
        <ele>866</ele>
        <time>2025-09-20T09:42:47.000Z</time>
      </trkpt>
      <trkpt lat="42.97807" lon="1.04907">
        <ele>865</ele>
        <time>2025-09-20T09:42:48.000Z</time>
      </trkpt>
      <trkpt lat="42.978" lon="1.04893">
        <ele>865</ele>
        <time>2025-09-20T09:42:49.000Z</time>
      </trkpt>
      <trkpt lat="42.97794" lon="1.04881">
        <ele>863</ele>
        <time>2025-09-20T09:42:50.000Z</time>
      </trkpt>
      <trkpt lat="42.97789" lon="1.04869">
        <ele>863</ele>
        <time>2025-09-20T09:42:51.000Z</time>
      </trkpt>
      <trkpt lat="42.97785" lon="1.04858">
        <ele>863</ele>
        <time>2025-09-20T09:42:52.000Z</time>
      </trkpt>
      <trkpt lat="42.97782" lon="1.04847">
        <ele>863</ele>
        <time>2025-09-20T09:42:53.000Z</time>
      </trkpt>
      <trkpt lat="42.9778" lon="1.04837">
        <ele>863</ele>
        <time>2025-09-20T09:42:54.000Z</time>
      </trkpt>
      <trkpt lat="42.9778" lon="1.04826">
        <ele>863</ele>
        <time>2025-09-20T09:42:55.000Z</time>
      </trkpt>
      <trkpt lat="42.97783" lon="1.04815">
        <ele>862</ele>
        <time>2025-09-20T09:42:56.000Z</time>
      </trkpt>
      <trkpt lat="42.97789" lon="1.04807">
        <ele>862</ele>
        <time>2025-09-20T09:42:57.000Z</time>
      </trkpt>
      <trkpt lat="42.97796" lon="1.04798">
        <ele>861</ele>
        <time>2025-09-20T09:42:58.000Z</time>
      </trkpt>
      <trkpt lat="42.97803" lon="1.04792">
        <ele>859</ele>
        <time>2025-09-20T09:42:59.000Z</time>
      </trkpt>
      <trkpt lat="42.9781" lon="1.04786">
        <ele>858</ele>
        <time>2025-09-20T09:43:00.000Z</time>
      </trkpt>
      <trkpt lat="42.97817" lon="1.0478">
        <ele>857</ele>
        <time>2025-09-20T09:43:01.000Z</time>
      </trkpt>
      <trkpt lat="42.97826" lon="1.04773">
        <ele>856</ele>
        <time>2025-09-20T09:43:02.000Z</time>
      </trkpt>
      <trkpt lat="42.97834" lon="1.04765">
        <ele>854</ele>
        <time>2025-09-20T09:43:03.000Z</time>
      </trkpt>
      <trkpt lat="42.97841" lon="1.04757">
        <ele>852</ele>
        <time>2025-09-20T09:43:04.000Z</time>
      </trkpt>
      <trkpt lat="42.97847" lon="1.04748">
        <ele>850</ele>
        <time>2025-09-20T09:43:05.000Z</time>
      </trkpt>
      <trkpt lat="42.97853" lon="1.04741">
        <ele>847</ele>
        <time>2025-09-20T09:43:06.000Z</time>
      </trkpt>
      <trkpt lat="42.97859" lon="1.04736">
        <ele>845</ele>
        <time>2025-09-20T09:43:07.000Z</time>
      </trkpt>
      <trkpt lat="42.97867" lon="1.04733">
        <ele>844</ele>
        <time>2025-09-20T09:43:08.000Z</time>
      </trkpt>
      <trkpt lat="42.97877" lon="1.04732">
        <ele>843</ele>
        <time>2025-09-20T09:43:09.000Z</time>
      </trkpt>
      <trkpt lat="42.97886" lon="1.04731">
        <ele>842</ele>
        <time>2025-09-20T09:43:10.000Z</time>
      </trkpt>
      <trkpt lat="42.97896" lon="1.04732">
        <ele>841</ele>
        <time>2025-09-20T09:43:11.000Z</time>
      </trkpt>
      <trkpt lat="42.97906" lon="1.04734">
        <ele>839</ele>
        <time>2025-09-20T09:43:12.000Z</time>
      </trkpt>
      <trkpt lat="42.97916" lon="1.04736">
        <ele>839</ele>
        <time>2025-09-20T09:43:13.000Z</time>
      </trkpt>
      <trkpt lat="42.97926" lon="1.04737">
        <ele>838</ele>
        <time>2025-09-20T09:43:14.000Z</time>
      </trkpt>
      <trkpt lat="42.97938" lon="1.04735">
        <ele>839</ele>
        <time>2025-09-20T09:43:15.000Z</time>
      </trkpt>
      <trkpt lat="42.97948" lon="1.0473">
        <ele>839</ele>
        <time>2025-09-20T09:43:16.000Z</time>
      </trkpt>
      <trkpt lat="42.97958" lon="1.04726">
        <ele>839</ele>
        <time>2025-09-20T09:43:17.000Z</time>
      </trkpt>
      <trkpt lat="42.97966" lon="1.04721">
        <ele>839</ele>
        <time>2025-09-20T09:43:18.000Z</time>
      </trkpt>
      <trkpt lat="42.97976" lon="1.04714">
        <ele>840</ele>
        <time>2025-09-20T09:43:19.000Z</time>
      </trkpt>
      <trkpt lat="42.97984" lon="1.04709">
        <ele>840</ele>
        <time>2025-09-20T09:43:20.000Z</time>
      </trkpt>
      <trkpt lat="42.97993" lon="1.04702">
        <ele>839</ele>
        <time>2025-09-20T09:43:21.000Z</time>
      </trkpt>
      <trkpt lat="42.98001" lon="1.04698">
        <ele>839</ele>
        <time>2025-09-20T09:43:22.000Z</time>
      </trkpt>
      <trkpt lat="42.98011" lon="1.04695">
        <ele>838</ele>
        <time>2025-09-20T09:43:23.000Z</time>
      </trkpt>
      <trkpt lat="42.98021" lon="1.04695">
        <ele>838</ele>
        <time>2025-09-20T09:43:24.000Z</time>
      </trkpt>
      <trkpt lat="42.98029" lon="1.04695">
        <ele>837</ele>
        <time>2025-09-20T09:43:25.000Z</time>
      </trkpt>
      <trkpt lat="42.98037" lon="1.04693">
        <ele>836</ele>
        <time>2025-09-20T09:43:26.000Z</time>
      </trkpt>
      <trkpt lat="42.98044" lon="1.04689">
        <ele>834</ele>
        <time>2025-09-20T09:43:27.000Z</time>
      </trkpt>
      <trkpt lat="42.9805" lon="1.04682">
        <ele>833</ele>
        <time>2025-09-20T09:43:28.000Z</time>
      </trkpt>
      <trkpt lat="42.98056" lon="1.04673">
        <ele>831</ele>
        <time>2025-09-20T09:43:29.000Z</time>
      </trkpt>
      <trkpt lat="42.98061" lon="1.04662">
        <ele>830</ele>
        <time>2025-09-20T09:43:30.000Z</time>
      </trkpt>
      <trkpt lat="42.98065" lon="1.04652">
        <ele>830</ele>
        <time>2025-09-20T09:43:31.000Z</time>
      </trkpt>
      <trkpt lat="42.98067" lon="1.04641">
        <ele>830</ele>
        <time>2025-09-20T09:43:32.000Z</time>
      </trkpt>
      <trkpt lat="42.98067" lon="1.04631">
        <ele>829</ele>
        <time>2025-09-20T09:43:33.000Z</time>
      </trkpt>
      <trkpt lat="42.98066" lon="1.0462">
        <ele>829</ele>
        <time>2025-09-20T09:43:34.000Z</time>
      </trkpt>
      <trkpt lat="42.98064" lon="1.04611">
        <ele>828</ele>
        <time>2025-09-20T09:43:35.000Z</time>
      </trkpt>
      <trkpt lat="42.98063" lon="1.046">
        <ele>827</ele>
        <time>2025-09-20T09:43:36.000Z</time>
      </trkpt>
      <trkpt lat="42.98062" lon="1.04589">
        <ele>827</ele>
        <time>2025-09-20T09:43:37.000Z</time>
      </trkpt>
      <trkpt lat="42.98062" lon="1.04578">
        <ele>827</ele>
        <time>2025-09-20T09:43:38.000Z</time>
      </trkpt>
      <trkpt lat="42.98062" lon="1.04567">
        <ele>826</ele>
        <time>2025-09-20T09:43:39.000Z</time>
      </trkpt>
      <trkpt lat="42.98061" lon="1.04556">
        <ele>826</ele>
        <time>2025-09-20T09:43:40.000Z</time>
      </trkpt>
      <trkpt lat="42.9806" lon="1.04545">
        <ele>825</ele>
        <time>2025-09-20T09:43:41.000Z</time>
      </trkpt>
      <trkpt lat="42.9806" lon="1.04534">
        <ele>825</ele>
        <time>2025-09-20T09:43:42.000Z</time>
      </trkpt>
      <trkpt lat="42.9806" lon="1.04522">
        <ele>825</ele>
        <time>2025-09-20T09:43:43.000Z</time>
      </trkpt>
      <trkpt lat="42.98059" lon="1.04511">
        <ele>825</ele>
        <time>2025-09-20T09:43:44.000Z</time>
      </trkpt>
      <trkpt lat="42.98059" lon="1.04499">
        <ele>825</ele>
        <time>2025-09-20T09:43:45.000Z</time>
      </trkpt>
      <trkpt lat="42.98057" lon="1.04488">
        <ele>825</ele>
        <time>2025-09-20T09:43:46.000Z</time>
      </trkpt>
      <trkpt lat="42.98055" lon="1.04478">
        <ele>825</ele>
        <time>2025-09-20T09:43:47.000Z</time>
      </trkpt>
      <trkpt lat="42.98052" lon="1.04467">
        <ele>825</ele>
        <time>2025-09-20T09:43:48.000Z</time>
      </trkpt>
      <trkpt lat="42.9805" lon="1.04456">
        <ele>824</ele>
        <time>2025-09-20T09:43:49.000Z</time>
      </trkpt>
      <trkpt lat="42.98049" lon="1.04445">
        <ele>823</ele>
        <time>2025-09-20T09:43:50.000Z</time>
      </trkpt>
      <trkpt lat="42.9805" lon="1.04434">
        <ele>823</ele>
        <time>2025-09-20T09:43:51.000Z</time>
      </trkpt>
      <trkpt lat="42.98054" lon="1.04426">
        <ele>824</ele>
        <time>2025-09-20T09:43:52.000Z</time>
      </trkpt>
      <trkpt lat="42.9806" lon="1.0442">
        <ele>825</ele>
        <time>2025-09-20T09:43:53.000Z</time>
      </trkpt>
      <trkpt lat="42.98067" lon="1.04416">
        <ele>826</ele>
        <time>2025-09-20T09:43:54.000Z</time>
      </trkpt>
      <trkpt lat="42.98071" lon="1.04411">
        <ele>827</ele>
        <time>2025-09-20T09:43:55.000Z</time>
      </trkpt>
      <trkpt lat="42.98074" lon="1.04405">
        <ele>827</ele>
        <time>2025-09-20T09:43:56.000Z</time>
      </trkpt>
      <trkpt lat="42.98076" lon="1.04399">
        <ele>828</ele>
        <time>2025-09-20T09:43:57.000Z</time>
      </trkpt>
      <trkpt lat="42.98077" lon="1.04393">
        <ele>829</ele>
        <time>2025-09-20T09:43:58.000Z</time>
      </trkpt>
      <trkpt lat="42.98078" lon="1.04387">
        <ele>829</ele>
        <time>2025-09-20T09:43:59.000Z</time>
      </trkpt>
      <trkpt lat="42.98078" lon="1.04382">
        <ele>829</ele>
        <time>2025-09-20T09:44:00.000Z</time>
      </trkpt>
      <trkpt lat="42.98078" lon="1.04377">
        <ele>830</ele>
        <time>2025-09-20T09:44:01.000Z</time>
      </trkpt>
      <trkpt lat="42.98079" lon="1.04373">
        <ele>830</ele>
        <time>2025-09-20T09:44:02.000Z</time>
      </trkpt>
      <trkpt lat="42.98079" lon="1.04368">
        <ele>830</ele>
        <time>2025-09-20T09:44:03.000Z</time>
      </trkpt>
      <trkpt lat="42.98079" lon="1.04364">
        <ele>830</ele>
        <time>2025-09-20T09:44:04.000Z</time>
      </trkpt>
      <trkpt lat="42.98079" lon="1.04359">
        <ele>831</ele>
        <time>2025-09-20T09:44:05.000Z</time>
      </trkpt>
      <trkpt lat="42.98079" lon="1.04355">
        <ele>831</ele>
        <time>2025-09-20T09:44:06.000Z</time>
      </trkpt>
      <trkpt lat="42.98079" lon="1.0435">
        <ele>831</ele>
        <time>2025-09-20T09:44:07.000Z</time>
      </trkpt>
      <trkpt lat="42.9808" lon="1.04345">
        <ele>831</ele>
        <time>2025-09-20T09:44:08.000Z</time>
      </trkpt>
      <trkpt lat="42.98081" lon="1.0434">
        <ele>832</ele>
        <time>2025-09-20T09:44:09.000Z</time>
      </trkpt>
      <trkpt lat="42.98081" lon="1.04336">
        <ele>832</ele>
        <time>2025-09-20T09:44:10.000Z</time>
      </trkpt>
      <trkpt lat="42.98081" lon="1.04331">
        <ele>832</ele>
        <time>2025-09-20T09:44:11.000Z</time>
      </trkpt>
      <trkpt lat="42.98081" lon="1.04327">
        <ele>832</ele>
        <time>2025-09-20T09:44:12.000Z</time>
      </trkpt>
      <trkpt lat="42.98081" lon="1.04322">
        <ele>832</ele>
        <time>2025-09-20T09:44:13.000Z</time>
      </trkpt>
      <trkpt lat="42.98081" lon="1.04317">
        <ele>833</ele>
        <time>2025-09-20T09:44:14.000Z</time>
      </trkpt>
      <trkpt lat="42.98082" lon="1.04313">
        <ele>833</ele>
        <time>2025-09-20T09:44:15.000Z</time>
      </trkpt>
      <trkpt lat="42.98082" lon="1.04308">
        <ele>833</ele>
        <time>2025-09-20T09:44:16.000Z</time>
      </trkpt>
      <trkpt lat="42.98082" lon="1.04304">
        <ele>833</ele>
        <time>2025-09-20T09:44:17.000Z</time>
      </trkpt>
      <trkpt lat="42.98082" lon="1.04299">
        <ele>833</ele>
        <time>2025-09-20T09:44:18.000Z</time>
      </trkpt>
      <trkpt lat="42.98081" lon="1.04295">
        <ele>833</ele>
        <time>2025-09-20T09:44:19.000Z</time>
      </trkpt>
      <trkpt lat="42.9808" lon="1.0429">
        <ele>834</ele>
        <time>2025-09-20T09:44:20.000Z</time>
      </trkpt>
      <trkpt lat="42.98079" lon="1.04286">
        <ele>834</ele>
        <time>2025-09-20T09:44:21.000Z</time>
      </trkpt>
      <trkpt lat="42.98079" lon="1.04281">
        <ele>834</ele>
        <time>2025-09-20T09:44:22.000Z</time>
      </trkpt>
      <trkpt lat="42.98079" lon="1.04276">
        <ele>834</ele>
        <time>2025-09-20T09:44:23.000Z</time>
      </trkpt>
      <trkpt lat="42.98079" lon="1.04271">
        <ele>835</ele>
        <time>2025-09-20T09:44:24.000Z</time>
      </trkpt>
      <trkpt lat="42.98078" lon="1.04267">
        <ele>835</ele>
        <time>2025-09-20T09:44:25.000Z</time>
      </trkpt>
      <trkpt lat="42.98077" lon="1.04263">
        <ele>835</ele>
        <time>2025-09-20T09:44:26.000Z</time>
      </trkpt>
      <trkpt lat="42.98076" lon="1.04259">
        <ele>835</ele>
        <time>2025-09-20T09:44:27.000Z</time>
      </trkpt>
      <trkpt lat="42.98075" lon="1.04256">
        <ele>835</ele>
        <time>2025-09-20T09:44:28.000Z</time>
      </trkpt>
      <trkpt lat="42.98075" lon="1.04251">
        <ele>836</ele>
        <time>2025-09-20T09:44:29.000Z</time>
      </trkpt>
      <trkpt lat="42.98074" lon="1.04246">
        <ele>836</ele>
        <time>2025-09-20T09:44:30.000Z</time>
      </trkpt>
      <trkpt lat="42.98075" lon="1.04242">
        <ele>836</ele>
        <time>2025-09-20T09:44:31.000Z</time>
      </trkpt>
      <trkpt lat="42.98074" lon="1.04237">
        <ele>837</ele>
        <time>2025-09-20T09:44:32.000Z</time>
      </trkpt>
      <trkpt lat="42.98073" lon="1.04233">
        <ele>836</ele>
        <time>2025-09-20T09:44:33.000Z</time>
      </trkpt>
      <trkpt lat="42.98073" lon="1.04229">
        <ele>836</ele>
        <time>2025-09-20T09:44:34.000Z</time>
      </trkpt>
      <trkpt lat="42.98072" lon="1.04224">
        <ele>835</ele>
        <time>2025-09-20T09:44:35.000Z</time>
      </trkpt>
      <trkpt lat="42.9807" lon="1.04221">
        <ele>834</ele>
        <time>2025-09-20T09:44:36.000Z</time>
      </trkpt>
      <trkpt lat="42.9807" lon="1.04217">
        <ele>833</ele>
        <time>2025-09-20T09:44:37.000Z</time>
      </trkpt>
      <trkpt lat="42.9807" lon="1.04214">
        <ele>832</ele>
        <time>2025-09-20T09:44:38.000Z</time>
      </trkpt>
      <trkpt lat="42.98069" lon="1.0421">
        <ele>832</ele>
        <time>2025-09-20T09:44:39.000Z</time>
      </trkpt>
      <trkpt lat="42.98068" lon="1.04206">
        <ele>832</ele>
        <time>2025-09-20T09:44:40.000Z</time>
      </trkpt>
      <trkpt lat="42.98068" lon="1.04202">
        <ele>832</ele>
        <time>2025-09-20T09:44:41.000Z</time>
      </trkpt>
      <trkpt lat="42.98068" lon="1.04199">
        <ele>832</ele>
        <time>2025-09-20T09:44:42.000Z</time>
      </trkpt>
      <trkpt lat="42.98069" lon="1.04195">
        <ele>833</ele>
        <time>2025-09-20T09:44:43.000Z</time>
      </trkpt>
      <trkpt lat="42.98069" lon="1.04192">
        <ele>833</ele>
        <time>2025-09-20T09:44:44.000Z</time>
      </trkpt>
      <trkpt lat="42.98069" lon="1.04188">
        <ele>834</ele>
        <time>2025-09-20T09:44:45.000Z</time>
      </trkpt>
      <trkpt lat="42.98069" lon="1.04184">
        <ele>834</ele>
        <time>2025-09-20T09:44:46.000Z</time>
      </trkpt>
      <trkpt lat="42.98069" lon="1.04181">
        <ele>835</ele>
        <time>2025-09-20T09:44:47.000Z</time>
      </trkpt>
      <trkpt lat="42.98067" lon="1.04177">
        <ele>835</ele>
        <time>2025-09-20T09:44:48.000Z</time>
      </trkpt>
      <trkpt lat="42.98066" lon="1.04173">
        <ele>836</ele>
        <time>2025-09-20T09:44:49.000Z</time>
      </trkpt>
      <trkpt lat="42.98066" lon="1.04169">
        <ele>836</ele>
        <time>2025-09-20T09:44:50.000Z</time>
      </trkpt>
      <trkpt lat="42.98065" lon="1.04165">
        <ele>836</ele>
        <time>2025-09-20T09:44:51.000Z</time>
      </trkpt>
      <trkpt lat="42.98064" lon="1.04162">
        <ele>836</ele>
        <time>2025-09-20T09:44:52.000Z</time>
      </trkpt>
      <trkpt lat="42.98063" lon="1.04158">
        <ele>837</ele>
        <time>2025-09-20T09:44:53.000Z</time>
      </trkpt>
      <trkpt lat="42.98062" lon="1.04154">
        <ele>837</ele>
        <time>2025-09-20T09:44:54.000Z</time>
      </trkpt>
      <trkpt lat="42.98062" lon="1.0415">
        <ele>837</ele>
        <time>2025-09-20T09:44:55.000Z</time>
      </trkpt>
      <trkpt lat="42.98061" lon="1.04146">
        <ele>838</ele>
        <time>2025-09-20T09:44:56.000Z</time>
      </trkpt>
      <trkpt lat="42.98061" lon="1.04142">
        <ele>838</ele>
        <time>2025-09-20T09:44:57.000Z</time>
      </trkpt>
      <trkpt lat="42.98061" lon="1.04138">
        <ele>839</ele>
        <time>2025-09-20T09:44:58.000Z</time>
      </trkpt>
      <trkpt lat="42.98061" lon="1.04134">
        <ele>839</ele>
        <time>2025-09-20T09:44:59.000Z</time>
      </trkpt>
      <trkpt lat="42.98061" lon="1.0413">
        <ele>839</ele>
        <time>2025-09-20T09:45:00.000Z</time>
      </trkpt>
      <trkpt lat="42.98061" lon="1.04126">
        <ele>840</ele>
        <time>2025-09-20T09:45:01.000Z</time>
      </trkpt>
      <trkpt lat="42.98061" lon="1.04122">
        <ele>840</ele>
        <time>2025-09-20T09:45:02.000Z</time>
      </trkpt>
      <trkpt lat="42.9806" lon="1.04119">
        <ele>840</ele>
        <time>2025-09-20T09:45:03.000Z</time>
      </trkpt>
      <trkpt lat="42.9806" lon="1.04115">
        <ele>840</ele>
        <time>2025-09-20T09:45:04.000Z</time>
      </trkpt>
      <trkpt lat="42.98059" lon="1.04112">
        <ele>840</ele>
        <time>2025-09-20T09:45:05.000Z</time>
      </trkpt>
      <trkpt lat="42.98058" lon="1.04107">
        <ele>840</ele>
        <time>2025-09-20T09:45:06.000Z</time>
      </trkpt>
      <trkpt lat="42.98057" lon="1.04103">
        <ele>841</ele>
        <time>2025-09-20T09:45:07.000Z</time>
      </trkpt>
      <trkpt lat="42.98057" lon="1.04099">
        <ele>841</ele>
        <time>2025-09-20T09:45:08.000Z</time>
      </trkpt>
      <trkpt lat="42.98056" lon="1.04094">
        <ele>842</ele>
        <time>2025-09-20T09:45:09.000Z</time>
      </trkpt>
      <trkpt lat="42.98055" lon="1.04091">
        <ele>842</ele>
        <time>2025-09-20T09:45:10.000Z</time>
      </trkpt>
      <trkpt lat="42.98055" lon="1.04087">
        <ele>844</ele>
        <time>2025-09-20T09:45:11.000Z</time>
      </trkpt>
      <trkpt lat="42.98055" lon="1.04083">
        <ele>845</ele>
        <time>2025-09-20T09:45:12.000Z</time>
      </trkpt>
      <trkpt lat="42.98055" lon="1.04079">
        <ele>846</ele>
        <time>2025-09-20T09:45:13.000Z</time>
      </trkpt>
      <trkpt lat="42.98055" lon="1.04076">
        <ele>847</ele>
        <time>2025-09-20T09:45:14.000Z</time>
      </trkpt>
      <trkpt lat="42.98055" lon="1.04071">
        <ele>847</ele>
        <time>2025-09-20T09:45:15.000Z</time>
      </trkpt>
      <trkpt lat="42.98055" lon="1.04067">
        <ele>847</ele>
        <time>2025-09-20T09:45:16.000Z</time>
      </trkpt>
      <trkpt lat="42.98056" lon="1.04063">
        <ele>848</ele>
        <time>2025-09-20T09:45:17.000Z</time>
      </trkpt>
      <trkpt lat="42.98055" lon="1.04059">
        <ele>848</ele>
        <time>2025-09-20T09:45:18.000Z</time>
      </trkpt>
      <trkpt lat="42.98055" lon="1.04055">
        <ele>849</ele>
        <time>2025-09-20T09:45:19.000Z</time>
      </trkpt>
      <trkpt lat="42.98055" lon="1.04051">
        <ele>849</ele>
        <time>2025-09-20T09:45:20.000Z</time>
      </trkpt>
      <trkpt lat="42.98054" lon="1.04048">
        <ele>849</ele>
        <time>2025-09-20T09:45:21.000Z</time>
      </trkpt>
      <trkpt lat="42.98054" lon="1.04044">
        <ele>849</ele>
        <time>2025-09-20T09:45:22.000Z</time>
      </trkpt>
      <trkpt lat="42.98053" lon="1.0404">
        <ele>848</ele>
        <time>2025-09-20T09:45:23.000Z</time>
      </trkpt>
      <trkpt lat="42.98053" lon="1.04036">
        <ele>847</ele>
        <time>2025-09-20T09:45:24.000Z</time>
      </trkpt>
      <trkpt lat="42.98052" lon="1.04033">
        <ele>846</ele>
        <time>2025-09-20T09:45:25.000Z</time>
      </trkpt>
      <trkpt lat="42.98052" lon="1.04029">
        <ele>846</ele>
        <time>2025-09-20T09:45:26.000Z</time>
      </trkpt>
      <trkpt lat="42.98051" lon="1.04025">
        <ele>846</ele>
        <time>2025-09-20T09:45:27.000Z</time>
      </trkpt>
      <trkpt lat="42.98051" lon="1.04021">
        <ele>846</ele>
        <time>2025-09-20T09:45:28.000Z</time>
      </trkpt>
      <trkpt lat="42.9805" lon="1.04017">
        <ele>846</ele>
        <time>2025-09-20T09:45:29.000Z</time>
      </trkpt>
      <trkpt lat="42.98049" lon="1.04014">
        <ele>847</ele>
        <time>2025-09-20T09:45:30.000Z</time>
      </trkpt>
      <trkpt lat="42.98048" lon="1.0401">
        <ele>848</ele>
        <time>2025-09-20T09:45:31.000Z</time>
      </trkpt>
      <trkpt lat="42.98047" lon="1.04007">
        <ele>849</ele>
        <time>2025-09-20T09:45:32.000Z</time>
      </trkpt>
      <trkpt lat="42.98046" lon="1.04003">
        <ele>850</ele>
        <time>2025-09-20T09:45:33.000Z</time>
      </trkpt>
      <trkpt lat="42.98046" lon="1.04">
        <ele>850</ele>
        <time>2025-09-20T09:45:34.000Z</time>
      </trkpt>
      <trkpt lat="42.98045" lon="1.03996">
        <ele>850</ele>
        <time>2025-09-20T09:45:35.000Z</time>
      </trkpt>
      <trkpt lat="42.98044" lon="1.03993">
        <ele>850</ele>
        <time>2025-09-20T09:45:36.000Z</time>
      </trkpt>
      <trkpt lat="42.98044" lon="1.03989">
        <ele>850</ele>
        <time>2025-09-20T09:45:37.000Z</time>
      </trkpt>
      <trkpt lat="42.98045" lon="1.03985">
        <ele>850</ele>
        <time>2025-09-20T09:45:38.000Z</time>
      </trkpt>
      <trkpt lat="42.98045" lon="1.03981">
        <ele>850</ele>
        <time>2025-09-20T09:45:39.000Z</time>
      </trkpt>
      <trkpt lat="42.98044" lon="1.03977">
        <ele>850</ele>
        <time>2025-09-20T09:45:40.000Z</time>
      </trkpt>
      <trkpt lat="42.98045" lon="1.03973">
        <ele>850</ele>
        <time>2025-09-20T09:45:41.000Z</time>
      </trkpt>
      <trkpt lat="42.98045" lon="1.03969">
        <ele>851</ele>
        <time>2025-09-20T09:45:42.000Z</time>
      </trkpt>
      <trkpt lat="42.98045" lon="1.03965">
        <ele>852</ele>
        <time>2025-09-20T09:45:43.000Z</time>
      </trkpt>
      <trkpt lat="42.98045" lon="1.03961">
        <ele>852</ele>
        <time>2025-09-20T09:45:44.000Z</time>
      </trkpt>
      <trkpt lat="42.98044" lon="1.03958">
        <ele>851</ele>
        <time>2025-09-20T09:45:45.000Z</time>
      </trkpt>
      <trkpt lat="42.98043" lon="1.03953">
        <ele>851</ele>
        <time>2025-09-20T09:45:46.000Z</time>
      </trkpt>
      <trkpt lat="42.98042" lon="1.03949">
        <ele>851</ele>
        <time>2025-09-20T09:45:47.000Z</time>
      </trkpt>
      <trkpt lat="42.98041" lon="1.03945">
        <ele>851</ele>
        <time>2025-09-20T09:45:48.000Z</time>
      </trkpt>
      <trkpt lat="42.9804" lon="1.03941">
        <ele>851</ele>
        <time>2025-09-20T09:45:49.000Z</time>
      </trkpt>
      <trkpt lat="42.98039" lon="1.03939">
        <ele>851</ele>
        <time>2025-09-20T09:45:50.000Z</time>
      </trkpt>
      <trkpt lat="42.98039" lon="1.03935">
        <ele>853</ele>
        <time>2025-09-20T09:45:51.000Z</time>
      </trkpt>
      <trkpt lat="42.98038" lon="1.03932">
        <ele>853</ele>
        <time>2025-09-20T09:45:52.000Z</time>
      </trkpt>
      <trkpt lat="42.98036" lon="1.03928">
        <ele>853</ele>
        <time>2025-09-20T09:45:53.000Z</time>
      </trkpt>
      <trkpt lat="42.98035" lon="1.03925">
        <ele>853</ele>
        <time>2025-09-20T09:45:54.000Z</time>
      </trkpt>
      <trkpt lat="42.98035" lon="1.03922">
        <ele>854</ele>
        <time>2025-09-20T09:45:55.000Z</time>
      </trkpt>
      <trkpt lat="42.98034" lon="1.03918">
        <ele>854</ele>
        <time>2025-09-20T09:45:56.000Z</time>
      </trkpt>
      <trkpt lat="42.98034" lon="1.03914">
        <ele>854</ele>
        <time>2025-09-20T09:45:57.000Z</time>
      </trkpt>
      <trkpt lat="42.98033" lon="1.0391">
        <ele>854</ele>
        <time>2025-09-20T09:45:58.000Z</time>
      </trkpt>
      <trkpt lat="42.98033" lon="1.03906">
        <ele>854</ele>
        <time>2025-09-20T09:45:59.000Z</time>
      </trkpt>
      <trkpt lat="42.98032" lon="1.03902">
        <ele>854</ele>
        <time>2025-09-20T09:46:00.000Z</time>
      </trkpt>
      <trkpt lat="42.98032" lon="1.03898">
        <ele>854</ele>
        <time>2025-09-20T09:46:01.000Z</time>
      </trkpt>
      <trkpt lat="42.98031" lon="1.03895">
        <ele>854</ele>
        <time>2025-09-20T09:46:02.000Z</time>
      </trkpt>
      <trkpt lat="42.9803" lon="1.03892">
        <ele>853</ele>
        <time>2025-09-20T09:46:03.000Z</time>
      </trkpt>
      <trkpt lat="42.98029" lon="1.03888">
        <ele>852</ele>
        <time>2025-09-20T09:46:04.000Z</time>
      </trkpt>
      <trkpt lat="42.98027" lon="1.03884">
        <ele>851</ele>
        <time>2025-09-20T09:46:05.000Z</time>
      </trkpt>
      <trkpt lat="42.98026" lon="1.0388">
        <ele>851</ele>
        <time>2025-09-20T09:46:06.000Z</time>
      </trkpt>
      <trkpt lat="42.98025" lon="1.03876">
        <ele>850</ele>
        <time>2025-09-20T09:46:07.000Z</time>
      </trkpt>
      <trkpt lat="42.98024" lon="1.03872">
        <ele>850</ele>
        <time>2025-09-20T09:46:08.000Z</time>
      </trkpt>
      <trkpt lat="42.98023" lon="1.03868">
        <ele>851</ele>
        <time>2025-09-20T09:46:09.000Z</time>
      </trkpt>
      <trkpt lat="42.98023" lon="1.03864">
        <ele>851</ele>
        <time>2025-09-20T09:46:10.000Z</time>
      </trkpt>
      <trkpt lat="42.98022" lon="1.03859">
        <ele>851</ele>
        <time>2025-09-20T09:46:11.000Z</time>
      </trkpt>
      <trkpt lat="42.98022" lon="1.03855">
        <ele>852</ele>
        <time>2025-09-20T09:46:12.000Z</time>
      </trkpt>
      <trkpt lat="42.98022" lon="1.03851">
        <ele>853</ele>
        <time>2025-09-20T09:46:13.000Z</time>
      </trkpt>
      <trkpt lat="42.98024" lon="1.03848">
        <ele>854</ele>
        <time>2025-09-20T09:46:14.000Z</time>
      </trkpt>
      <trkpt lat="42.98026" lon="1.03846">
        <ele>855</ele>
        <time>2025-09-20T09:46:15.000Z</time>
      </trkpt>
      <trkpt lat="42.98029" lon="1.03844">
        <ele>855</ele>
        <time>2025-09-20T09:46:16.000Z</time>
      </trkpt>
      <trkpt lat="42.98032" lon="1.03843">
        <ele>856</ele>
        <time>2025-09-20T09:46:17.000Z</time>
      </trkpt>
      <trkpt lat="42.98036" lon="1.03842">
        <ele>857</ele>
        <time>2025-09-20T09:46:18.000Z</time>
      </trkpt>
      <trkpt lat="42.98039" lon="1.03842">
        <ele>857</ele>
        <time>2025-09-20T09:46:19.000Z</time>
      </trkpt>
      <trkpt lat="42.98042" lon="1.03842">
        <ele>857</ele>
        <time>2025-09-20T09:46:20.000Z</time>
      </trkpt>
      <trkpt lat="42.98046" lon="1.03842">
        <ele>857</ele>
        <time>2025-09-20T09:46:21.000Z</time>
      </trkpt>
      <trkpt lat="42.98049" lon="1.03842">
        <ele>857</ele>
        <time>2025-09-20T09:46:22.000Z</time>
      </trkpt>
      <trkpt lat="42.98052" lon="1.03843">
        <ele>858</ele>
        <time>2025-09-20T09:46:23.000Z</time>
      </trkpt>
      <trkpt lat="42.98056" lon="1.03843">
        <ele>858</ele>
        <time>2025-09-20T09:46:24.000Z</time>
      </trkpt>
      <trkpt lat="42.98059" lon="1.03843">
        <ele>859</ele>
        <time>2025-09-20T09:46:25.000Z</time>
      </trkpt>
      <trkpt lat="42.98062" lon="1.03843">
        <ele>859</ele>
        <time>2025-09-20T09:46:26.000Z</time>
      </trkpt>
      <trkpt lat="42.98065" lon="1.03843">
        <ele>859</ele>
        <time>2025-09-20T09:46:27.000Z</time>
      </trkpt>
      <trkpt lat="42.98068" lon="1.03844">
        <ele>859</ele>
        <time>2025-09-20T09:46:28.000Z</time>
      </trkpt>
      <trkpt lat="42.98071" lon="1.03844">
        <ele>859</ele>
        <time>2025-09-20T09:46:29.000Z</time>
      </trkpt>
      <trkpt lat="42.98073" lon="1.03843">
        <ele>859</ele>
        <time>2025-09-20T09:46:30.000Z</time>
      </trkpt>
      <trkpt lat="42.98076" lon="1.03843">
        <ele>859</ele>
        <time>2025-09-20T09:46:31.000Z</time>
      </trkpt>
      <trkpt lat="42.98078" lon="1.03843">
        <ele>859</ele>
        <time>2025-09-20T09:46:32.000Z</time>
      </trkpt>
      <trkpt lat="42.98082" lon="1.03844">
        <ele>859</ele>
        <time>2025-09-20T09:46:33.000Z</time>
      </trkpt>
      <trkpt lat="42.98085" lon="1.03844">
        <ele>859</ele>
        <time>2025-09-20T09:46:34.000Z</time>
      </trkpt>
      <trkpt lat="42.98089" lon="1.03844">
        <ele>859</ele>
        <time>2025-09-20T09:46:35.000Z</time>
      </trkpt>
      <trkpt lat="42.98092" lon="1.03845">
        <ele>859</ele>
        <time>2025-09-20T09:46:36.000Z</time>
      </trkpt>
      <trkpt lat="42.98095" lon="1.03846">
        <ele>859</ele>
        <time>2025-09-20T09:46:37.000Z</time>
      </trkpt>
      <trkpt lat="42.98098" lon="1.03846">
        <ele>859</ele>
        <time>2025-09-20T09:46:38.000Z</time>
      </trkpt>
      <trkpt lat="42.98101" lon="1.03847">
        <ele>859</ele>
        <time>2025-09-20T09:46:39.000Z</time>
      </trkpt>
      <trkpt lat="42.98104" lon="1.03848">
        <ele>859</ele>
        <time>2025-09-20T09:46:40.000Z</time>
      </trkpt>
      <trkpt lat="42.98108" lon="1.0385">
        <ele>860</ele>
        <time>2025-09-20T09:46:41.000Z</time>
      </trkpt>
      <trkpt lat="42.98111" lon="1.03851">
        <ele>860</ele>
        <time>2025-09-20T09:46:42.000Z</time>
      </trkpt>
      <trkpt lat="42.98114" lon="1.03852">
        <ele>860</ele>
        <time>2025-09-20T09:46:43.000Z</time>
      </trkpt>
      <trkpt lat="42.98116" lon="1.03853">
        <ele>861</ele>
        <time>2025-09-20T09:46:44.000Z</time>
      </trkpt>
      <trkpt lat="42.98119" lon="1.03855">
        <ele>861</ele>
        <time>2025-09-20T09:46:45.000Z</time>
      </trkpt>
      <trkpt lat="42.98122" lon="1.03856">
        <ele>862</ele>
        <time>2025-09-20T09:46:46.000Z</time>
      </trkpt>
      <trkpt lat="42.98125" lon="1.03857">
        <ele>862</ele>
        <time>2025-09-20T09:46:47.000Z</time>
      </trkpt>
      <trkpt lat="42.98128" lon="1.03858">
        <ele>863</ele>
        <time>2025-09-20T09:46:48.000Z</time>
      </trkpt>
      <trkpt lat="42.98131" lon="1.03859">
        <ele>862</ele>
        <time>2025-09-20T09:46:49.000Z</time>
      </trkpt>
      <trkpt lat="42.98133" lon="1.0386">
        <ele>863</ele>
        <time>2025-09-20T09:46:50.000Z</time>
      </trkpt>
      <trkpt lat="42.98136" lon="1.0386">
        <ele>863</ele>
        <time>2025-09-20T09:46:51.000Z</time>
      </trkpt>
      <trkpt lat="42.98139" lon="1.03861">
        <ele>863</ele>
        <time>2025-09-20T09:46:52.000Z</time>
      </trkpt>
      <trkpt lat="42.98142" lon="1.03861">
        <ele>863</ele>
        <time>2025-09-20T09:46:53.000Z</time>
      </trkpt>
      <trkpt lat="42.98145" lon="1.03863">
        <ele>863</ele>
        <time>2025-09-20T09:46:54.000Z</time>
      </trkpt>
      <trkpt lat="42.98148" lon="1.03864">
        <ele>862</ele>
        <time>2025-09-20T09:46:55.000Z</time>
      </trkpt>
      <trkpt lat="42.98151" lon="1.03864">
        <ele>862</ele>
        <time>2025-09-20T09:46:56.000Z</time>
      </trkpt>
      <trkpt lat="42.98155" lon="1.03864">
        <ele>862</ele>
        <time>2025-09-20T09:46:57.000Z</time>
      </trkpt>
      <trkpt lat="42.98159" lon="1.03865">
        <ele>862</ele>
        <time>2025-09-20T09:46:58.000Z</time>
      </trkpt>
      <trkpt lat="42.98162" lon="1.03865">
        <ele>862</ele>
        <time>2025-09-20T09:46:59.000Z</time>
      </trkpt>
      <trkpt lat="42.98165" lon="1.03865">
        <ele>862</ele>
        <time>2025-09-20T09:47:00.000Z</time>
      </trkpt>
      <trkpt lat="42.98167" lon="1.03866">
        <ele>861</ele>
        <time>2025-09-20T09:47:01.000Z</time>
      </trkpt>
      <trkpt lat="42.98171" lon="1.03866">
        <ele>861</ele>
        <time>2025-09-20T09:47:02.000Z</time>
      </trkpt>
      <trkpt lat="42.98174" lon="1.03867">
        <ele>861</ele>
        <time>2025-09-20T09:47:03.000Z</time>
      </trkpt>
      <trkpt lat="42.98176" lon="1.03868">
        <ele>861</ele>
        <time>2025-09-20T09:47:04.000Z</time>
      </trkpt>
      <trkpt lat="42.9818" lon="1.03868">
        <ele>861</ele>
        <time>2025-09-20T09:47:05.000Z</time>
      </trkpt>
      <trkpt lat="42.98183" lon="1.03869">
        <ele>862</ele>
        <time>2025-09-20T09:47:06.000Z</time>
      </trkpt>
      <trkpt lat="42.98186" lon="1.0387">
        <ele>863</ele>
        <time>2025-09-20T09:47:07.000Z</time>
      </trkpt>
      <trkpt lat="42.98189" lon="1.0387">
        <ele>863</ele>
        <time>2025-09-20T09:47:08.000Z</time>
      </trkpt>
      <trkpt lat="42.98192" lon="1.03871">
        <ele>863</ele>
        <time>2025-09-20T09:47:09.000Z</time>
      </trkpt>
      <trkpt lat="42.98195" lon="1.03871">
        <ele>863</ele>
        <time>2025-09-20T09:47:10.000Z</time>
      </trkpt>
      <trkpt lat="42.98198" lon="1.03872">
        <ele>864</ele>
        <time>2025-09-20T09:47:11.000Z</time>
      </trkpt>
      <trkpt lat="42.98202" lon="1.03872">
        <ele>864</ele>
        <time>2025-09-20T09:47:12.000Z</time>
      </trkpt>
      <trkpt lat="42.98205" lon="1.03873">
        <ele>864</ele>
        <time>2025-09-20T09:47:13.000Z</time>
      </trkpt>
      <trkpt lat="42.98208" lon="1.03873">
        <ele>865</ele>
        <time>2025-09-20T09:47:14.000Z</time>
      </trkpt>
      <trkpt lat="42.98211" lon="1.03873">
        <ele>865</ele>
        <time>2025-09-20T09:47:15.000Z</time>
      </trkpt>
      <trkpt lat="42.98215" lon="1.03874">
        <ele>865</ele>
        <time>2025-09-20T09:47:16.000Z</time>
      </trkpt>
      <trkpt lat="42.98219" lon="1.03874">
        <ele>865</ele>
        <time>2025-09-20T09:47:17.000Z</time>
      </trkpt>
      <trkpt lat="42.98222" lon="1.03874">
        <ele>865</ele>
        <time>2025-09-20T09:47:18.000Z</time>
      </trkpt>
      <trkpt lat="42.98226" lon="1.03875">
        <ele>865</ele>
        <time>2025-09-20T09:47:19.000Z</time>
      </trkpt>
      <trkpt lat="42.98229" lon="1.03877">
        <ele>865</ele>
        <time>2025-09-20T09:47:20.000Z</time>
      </trkpt>
      <trkpt lat="42.98233" lon="1.03878">
        <ele>865</ele>
        <time>2025-09-20T09:47:21.000Z</time>
      </trkpt>
      <trkpt lat="42.98236" lon="1.03878">
        <ele>865</ele>
        <time>2025-09-20T09:47:22.000Z</time>
      </trkpt>
      <trkpt lat="42.98239" lon="1.03878">
        <ele>865</ele>
        <time>2025-09-20T09:47:23.000Z</time>
      </trkpt>
      <trkpt lat="42.98243" lon="1.03879">
        <ele>865</ele>
        <time>2025-09-20T09:47:24.000Z</time>
      </trkpt>
      <trkpt lat="42.98247" lon="1.03881">
        <ele>865</ele>
        <time>2025-09-20T09:47:25.000Z</time>
      </trkpt>
      <trkpt lat="42.9825" lon="1.03882">
        <ele>865</ele>
        <time>2025-09-20T09:47:26.000Z</time>
      </trkpt>
      <trkpt lat="42.98254" lon="1.03883">
        <ele>864</ele>
        <time>2025-09-20T09:47:27.000Z</time>
      </trkpt>
      <trkpt lat="42.98256" lon="1.03884">
        <ele>864</ele>
        <time>2025-09-20T09:47:28.000Z</time>
      </trkpt>
      <trkpt lat="42.98259" lon="1.03885">
        <ele>864</ele>
        <time>2025-09-20T09:47:29.000Z</time>
      </trkpt>
      <trkpt lat="42.98262" lon="1.03887">
        <ele>865</ele>
        <time>2025-09-20T09:47:30.000Z</time>
      </trkpt>
      <trkpt lat="42.98266" lon="1.0389">
        <ele>866</ele>
        <time>2025-09-20T09:47:31.000Z</time>
      </trkpt>
      <trkpt lat="42.98269" lon="1.03892">
        <ele>866</ele>
        <time>2025-09-20T09:47:32.000Z</time>
      </trkpt>
      <trkpt lat="42.98271" lon="1.03894">
        <ele>866</ele>
        <time>2025-09-20T09:47:33.000Z</time>
      </trkpt>
      <trkpt lat="42.98274" lon="1.03896">
        <ele>865</ele>
        <time>2025-09-20T09:47:34.000Z</time>
      </trkpt>
      <trkpt lat="42.98276" lon="1.03899">
        <ele>865</ele>
        <time>2025-09-20T09:47:35.000Z</time>
      </trkpt>
      <trkpt lat="42.98278" lon="1.03901">
        <ele>865</ele>
        <time>2025-09-20T09:47:36.000Z</time>
      </trkpt>
      <trkpt lat="42.98282" lon="1.03904">
        <ele>865</ele>
        <time>2025-09-20T09:47:37.000Z</time>
      </trkpt>
      <trkpt lat="42.98285" lon="1.03906">
        <ele>866</ele>
        <time>2025-09-20T09:47:38.000Z</time>
      </trkpt>
      <trkpt lat="42.98287" lon="1.03909">
        <ele>866</ele>
        <time>2025-09-20T09:47:39.000Z</time>
      </trkpt>
      <trkpt lat="42.98291" lon="1.0391">
        <ele>866</ele>
        <time>2025-09-20T09:47:40.000Z</time>
      </trkpt>
      <trkpt lat="42.98293" lon="1.03912">
        <ele>866</ele>
        <time>2025-09-20T09:47:41.000Z</time>
      </trkpt>
      <trkpt lat="42.98296" lon="1.03914">
        <ele>866</ele>
        <time>2025-09-20T09:47:42.000Z</time>
      </trkpt>
      <trkpt lat="42.98299" lon="1.03915">
        <ele>866</ele>
        <time>2025-09-20T09:47:43.000Z</time>
      </trkpt>
      <trkpt lat="42.98303" lon="1.03916">
        <ele>866</ele>
        <time>2025-09-20T09:47:44.000Z</time>
      </trkpt>
      <trkpt lat="42.98306" lon="1.03917">
        <ele>867</ele>
        <time>2025-09-20T09:47:45.000Z</time>
      </trkpt>
      <trkpt lat="42.98309" lon="1.03918">
        <ele>867</ele>
        <time>2025-09-20T09:47:46.000Z</time>
      </trkpt>
      <trkpt lat="42.98312" lon="1.03919">
        <ele>867</ele>
        <time>2025-09-20T09:47:47.000Z</time>
      </trkpt>
      <trkpt lat="42.98314" lon="1.0392">
        <ele>867</ele>
        <time>2025-09-20T09:47:48.000Z</time>
      </trkpt>
      <trkpt lat="42.98318" lon="1.03921">
        <ele>867</ele>
        <time>2025-09-20T09:47:49.000Z</time>
      </trkpt>
      <trkpt lat="42.98321" lon="1.03923">
        <ele>867</ele>
        <time>2025-09-20T09:47:50.000Z</time>
      </trkpt>
      <trkpt lat="42.98324" lon="1.03924">
        <ele>867</ele>
        <time>2025-09-20T09:47:51.000Z</time>
      </trkpt>
      <trkpt lat="42.98327" lon="1.03926">
        <ele>866</ele>
        <time>2025-09-20T09:47:52.000Z</time>
      </trkpt>
      <trkpt lat="42.9833" lon="1.03928">
        <ele>866</ele>
        <time>2025-09-20T09:47:53.000Z</time>
      </trkpt>
      <trkpt lat="42.98332" lon="1.0393">
        <ele>867</ele>
        <time>2025-09-20T09:47:54.000Z</time>
      </trkpt>
      <trkpt lat="42.98335" lon="1.03931">
        <ele>867</ele>
        <time>2025-09-20T09:47:55.000Z</time>
      </trkpt>
      <trkpt lat="42.98338" lon="1.03933">
        <ele>867</ele>
        <time>2025-09-20T09:47:56.000Z</time>
      </trkpt>
      <trkpt lat="42.98341" lon="1.03935">
        <ele>867</ele>
        <time>2025-09-20T09:47:57.000Z</time>
      </trkpt>
      <trkpt lat="42.98345" lon="1.03936">
        <ele>867</ele>
        <time>2025-09-20T09:47:58.000Z</time>
      </trkpt>
      <trkpt lat="42.98348" lon="1.03937">
        <ele>867</ele>
        <time>2025-09-20T09:47:59.000Z</time>
      </trkpt>
      <trkpt lat="42.98351" lon="1.03938">
        <ele>867</ele>
        <time>2025-09-20T09:48:00.000Z</time>
      </trkpt>
      <trkpt lat="42.98354" lon="1.03939">
        <ele>867</ele>
        <time>2025-09-20T09:48:01.000Z</time>
      </trkpt>
      <trkpt lat="42.98358" lon="1.03939">
        <ele>867</ele>
        <time>2025-09-20T09:48:02.000Z</time>
      </trkpt>
      <trkpt lat="42.98361" lon="1.03939">
        <ele>868</ele>
        <time>2025-09-20T09:48:03.000Z</time>
      </trkpt>
      <trkpt lat="42.98365" lon="1.03939">
        <ele>868</ele>
        <time>2025-09-20T09:48:04.000Z</time>
      </trkpt>
      <trkpt lat="42.98368" lon="1.03938">
        <ele>868</ele>
        <time>2025-09-20T09:48:05.000Z</time>
      </trkpt>
      <trkpt lat="42.98372" lon="1.03937">
        <ele>868</ele>
        <time>2025-09-20T09:48:06.000Z</time>
      </trkpt>
      <trkpt lat="42.98375" lon="1.03937">
        <ele>869</ele>
        <time>2025-09-20T09:48:07.000Z</time>
      </trkpt>
      <trkpt lat="42.98378" lon="1.03937">
        <ele>869</ele>
        <time>2025-09-20T09:48:08.000Z</time>
      </trkpt>
      <trkpt lat="42.98381" lon="1.03937">
        <ele>869</ele>
        <time>2025-09-20T09:48:09.000Z</time>
      </trkpt>
      <trkpt lat="42.98385" lon="1.03936">
        <ele>869</ele>
        <time>2025-09-20T09:48:10.000Z</time>
      </trkpt>
      <trkpt lat="42.98388" lon="1.03935">
        <ele>870</ele>
        <time>2025-09-20T09:48:11.000Z</time>
      </trkpt>
      <trkpt lat="42.98391" lon="1.03935">
        <ele>869</ele>
        <time>2025-09-20T09:48:12.000Z</time>
      </trkpt>
      <trkpt lat="42.98395" lon="1.03934">
        <ele>870</ele>
        <time>2025-09-20T09:48:13.000Z</time>
      </trkpt>
      <trkpt lat="42.98398" lon="1.03932">
        <ele>870</ele>
        <time>2025-09-20T09:48:14.000Z</time>
      </trkpt>
      <trkpt lat="42.98401" lon="1.0393">
        <ele>870</ele>
        <time>2025-09-20T09:48:15.000Z</time>
      </trkpt>
      <trkpt lat="42.98405" lon="1.03927">
        <ele>869</ele>
        <time>2025-09-20T09:48:16.000Z</time>
      </trkpt>
      <trkpt lat="42.98407" lon="1.03925">
        <ele>870</ele>
        <time>2025-09-20T09:48:17.000Z</time>
      </trkpt>
      <trkpt lat="42.98409" lon="1.03923">
        <ele>870</ele>
        <time>2025-09-20T09:48:18.000Z</time>
      </trkpt>
      <trkpt lat="42.98412" lon="1.03921">
        <ele>869</ele>
        <time>2025-09-20T09:48:19.000Z</time>
      </trkpt>
      <trkpt lat="42.98414" lon="1.03919">
        <ele>869</ele>
        <time>2025-09-20T09:48:20.000Z</time>
      </trkpt>
      <trkpt lat="42.98418" lon="1.03916">
        <ele>869</ele>
        <time>2025-09-20T09:48:21.000Z</time>
      </trkpt>
      <trkpt lat="42.98421" lon="1.03913">
        <ele>869</ele>
        <time>2025-09-20T09:48:22.000Z</time>
      </trkpt>
      <trkpt lat="42.98424" lon="1.03911">
        <ele>869</ele>
        <time>2025-09-20T09:48:23.000Z</time>
      </trkpt>
      <trkpt lat="42.98427" lon="1.03908">
        <ele>870</ele>
        <time>2025-09-20T09:48:24.000Z</time>
      </trkpt>
      <trkpt lat="42.9843" lon="1.03905">
        <ele>870</ele>
        <time>2025-09-20T09:48:25.000Z</time>
      </trkpt>
      <trkpt lat="42.98434" lon="1.03903">
        <ele>870</ele>
        <time>2025-09-20T09:48:26.000Z</time>
      </trkpt>
      <trkpt lat="42.98437" lon="1.039">
        <ele>871</ele>
        <time>2025-09-20T09:48:27.000Z</time>
      </trkpt>
      <trkpt lat="42.98439" lon="1.03897">
        <ele>871</ele>
        <time>2025-09-20T09:48:28.000Z</time>
      </trkpt>
      <trkpt lat="42.98442" lon="1.03893">
        <ele>872</ele>
        <time>2025-09-20T09:48:29.000Z</time>
      </trkpt>
      <trkpt lat="42.98444" lon="1.0389">
        <ele>872</ele>
        <time>2025-09-20T09:48:30.000Z</time>
      </trkpt>
      <trkpt lat="42.98446" lon="1.03887">
        <ele>872</ele>
        <time>2025-09-20T09:48:31.000Z</time>
      </trkpt>
      <trkpt lat="42.98448" lon="1.03884">
        <ele>872</ele>
        <time>2025-09-20T09:48:32.000Z</time>
      </trkpt>
      <trkpt lat="42.9845" lon="1.03882">
        <ele>871</ele>
        <time>2025-09-20T09:48:33.000Z</time>
      </trkpt>
      <trkpt lat="42.98452" lon="1.03879">
        <ele>871</ele>
        <time>2025-09-20T09:48:34.000Z</time>
      </trkpt>
      <trkpt lat="42.98454" lon="1.03877">
        <ele>871</ele>
        <time>2025-09-20T09:48:35.000Z</time>
      </trkpt>
      <trkpt lat="42.98456" lon="1.03874">
        <ele>871</ele>
        <time>2025-09-20T09:48:36.000Z</time>
      </trkpt>
      <trkpt lat="42.98458" lon="1.0387">
        <ele>871</ele>
        <time>2025-09-20T09:48:37.000Z</time>
      </trkpt>
      <trkpt lat="42.9846" lon="1.03868">
        <ele>871</ele>
        <time>2025-09-20T09:48:38.000Z</time>
      </trkpt>
      <trkpt lat="42.98462" lon="1.03866">
        <ele>871</ele>
        <time>2025-09-20T09:48:39.000Z</time>
      </trkpt>
      <trkpt lat="42.98464" lon="1.03863">
        <ele>870</ele>
        <time>2025-09-20T09:48:40.000Z</time>
      </trkpt>
      <trkpt lat="42.98467" lon="1.03861">
        <ele>870</ele>
        <time>2025-09-20T09:48:41.000Z</time>
      </trkpt>
      <trkpt lat="42.9847" lon="1.03858">
        <ele>869</ele>
        <time>2025-09-20T09:48:42.000Z</time>
      </trkpt>
      <trkpt lat="42.98472" lon="1.03857">
        <ele>869</ele>
        <time>2025-09-20T09:48:43.000Z</time>
      </trkpt>
      <trkpt lat="42.98476" lon="1.03855">
        <ele>870</ele>
        <time>2025-09-20T09:48:44.000Z</time>
      </trkpt>
      <trkpt lat="42.9848" lon="1.03853">
        <ele>871</ele>
        <time>2025-09-20T09:48:45.000Z</time>
      </trkpt>
      <trkpt lat="42.98482" lon="1.03851">
        <ele>871</ele>
        <time>2025-09-20T09:48:46.000Z</time>
      </trkpt>
      <trkpt lat="42.98484" lon="1.0385">
        <ele>870</ele>
        <time>2025-09-20T09:48:47.000Z</time>
      </trkpt>
      <trkpt lat="42.98487" lon="1.03849">
        <ele>870</ele>
        <time>2025-09-20T09:48:48.000Z</time>
      </trkpt>
      <trkpt lat="42.9849" lon="1.03846">
        <ele>870</ele>
        <time>2025-09-20T09:48:49.000Z</time>
      </trkpt>
      <trkpt lat="42.98493" lon="1.03843">
        <ele>870</ele>
        <time>2025-09-20T09:48:50.000Z</time>
      </trkpt>
      <trkpt lat="42.98496" lon="1.0384">
        <ele>870</ele>
        <time>2025-09-20T09:48:51.000Z</time>
      </trkpt>
      <trkpt lat="42.98499" lon="1.03836">
        <ele>871</ele>
        <time>2025-09-20T09:48:52.000Z</time>
      </trkpt>
      <trkpt lat="42.98501" lon="1.03832">
        <ele>871</ele>
        <time>2025-09-20T09:48:53.000Z</time>
      </trkpt>
      <trkpt lat="42.98503" lon="1.03828">
        <ele>872</ele>
        <time>2025-09-20T09:48:54.000Z</time>
      </trkpt>
      <trkpt lat="42.98505" lon="1.03823">
        <ele>872</ele>
        <time>2025-09-20T09:48:55.000Z</time>
      </trkpt>
      <trkpt lat="42.98507" lon="1.03819">
        <ele>873</ele>
        <time>2025-09-20T09:48:56.000Z</time>
      </trkpt>
      <trkpt lat="42.98508" lon="1.03814">
        <ele>874</ele>
        <time>2025-09-20T09:48:57.000Z</time>
      </trkpt>
      <trkpt lat="42.9851" lon="1.0381">
        <ele>875</ele>
        <time>2025-09-20T09:48:58.000Z</time>
      </trkpt>
      <trkpt lat="42.98511" lon="1.03807">
        <ele>875</ele>
        <time>2025-09-20T09:48:59.000Z</time>
      </trkpt>
      <trkpt lat="42.98513" lon="1.03803">
        <ele>876</ele>
        <time>2025-09-20T09:49:00.000Z</time>
      </trkpt>
      <trkpt lat="42.98514" lon="1.038">
        <ele>875</ele>
        <time>2025-09-20T09:49:01.000Z</time>
      </trkpt>
      <trkpt lat="42.98515" lon="1.03796">
        <ele>876</ele>
        <time>2025-09-20T09:49:02.000Z</time>
      </trkpt>
      <trkpt lat="42.98516" lon="1.03792">
        <ele>877</ele>
        <time>2025-09-20T09:49:03.000Z</time>
      </trkpt>
      <trkpt lat="42.98517" lon="1.03787">
        <ele>877</ele>
        <time>2025-09-20T09:49:04.000Z</time>
      </trkpt>
      <trkpt lat="42.98518" lon="1.03783">
        <ele>877</ele>
        <time>2025-09-20T09:49:05.000Z</time>
      </trkpt>
      <trkpt lat="42.98519" lon="1.03779">
        <ele>877</ele>
        <time>2025-09-20T09:49:06.000Z</time>
      </trkpt>
      <trkpt lat="42.9852" lon="1.03775">
        <ele>876</ele>
        <time>2025-09-20T09:49:07.000Z</time>
      </trkpt>
      <trkpt lat="42.98522" lon="1.03771">
        <ele>877</ele>
        <time>2025-09-20T09:49:08.000Z</time>
      </trkpt>
      <trkpt lat="42.98524" lon="1.03767">
        <ele>877</ele>
        <time>2025-09-20T09:49:09.000Z</time>
      </trkpt>
      <trkpt lat="42.98525" lon="1.03763">
        <ele>877</ele>
        <time>2025-09-20T09:49:10.000Z</time>
      </trkpt>
      <trkpt lat="42.98525" lon="1.0376">
        <ele>877</ele>
        <time>2025-09-20T09:49:11.000Z</time>
      </trkpt>
      <trkpt lat="42.98526" lon="1.03756">
        <ele>877</ele>
        <time>2025-09-20T09:49:12.000Z</time>
      </trkpt>
      <trkpt lat="42.98527" lon="1.03753">
        <ele>877</ele>
        <time>2025-09-20T09:49:13.000Z</time>
      </trkpt>
      <trkpt lat="42.98528" lon="1.03748">
        <ele>877</ele>
        <time>2025-09-20T09:49:14.000Z</time>
      </trkpt>
      <trkpt lat="42.98529" lon="1.03744">
        <ele>877</ele>
        <time>2025-09-20T09:49:15.000Z</time>
      </trkpt>
      <trkpt lat="42.98529" lon="1.0374">
        <ele>877</ele>
        <time>2025-09-20T09:49:16.000Z</time>
      </trkpt>
      <trkpt lat="42.98531" lon="1.03735">
        <ele>878</ele>
        <time>2025-09-20T09:49:17.000Z</time>
      </trkpt>
      <trkpt lat="42.98532" lon="1.0373">
        <ele>878</ele>
        <time>2025-09-20T09:49:18.000Z</time>
      </trkpt>
      <trkpt lat="42.98533" lon="1.03726">
        <ele>878</ele>
        <time>2025-09-20T09:49:19.000Z</time>
      </trkpt>
      <trkpt lat="42.98535" lon="1.03721">
        <ele>878</ele>
        <time>2025-09-20T09:49:20.000Z</time>
      </trkpt>
      <trkpt lat="42.98536" lon="1.03717">
        <ele>878</ele>
        <time>2025-09-20T09:49:21.000Z</time>
      </trkpt>
      <trkpt lat="42.98537" lon="1.03713">
        <ele>878</ele>
        <time>2025-09-20T09:49:22.000Z</time>
      </trkpt>
      <trkpt lat="42.98538" lon="1.03709">
        <ele>878</ele>
        <time>2025-09-20T09:49:23.000Z</time>
      </trkpt>
      <trkpt lat="42.98539" lon="1.03704">
        <ele>878</ele>
        <time>2025-09-20T09:49:24.000Z</time>
      </trkpt>
      <trkpt lat="42.98541" lon="1.03699">
        <ele>878</ele>
        <time>2025-09-20T09:49:25.000Z</time>
      </trkpt>
      <trkpt lat="42.98542" lon="1.03695">
        <ele>878</ele>
        <time>2025-09-20T09:49:26.000Z</time>
      </trkpt>
      <trkpt lat="42.98544" lon="1.03691">
        <ele>878</ele>
        <time>2025-09-20T09:49:27.000Z</time>
      </trkpt>
      <trkpt lat="42.98545" lon="1.03685">
        <ele>878</ele>
        <time>2025-09-20T09:49:28.000Z</time>
      </trkpt>
      <trkpt lat="42.98546" lon="1.03679">
        <ele>878</ele>
        <time>2025-09-20T09:49:29.000Z</time>
      </trkpt>
      <trkpt lat="42.98548" lon="1.03673">
        <ele>878</ele>
        <time>2025-09-20T09:49:30.000Z</time>
      </trkpt>
      <trkpt lat="42.98549" lon="1.03668">
        <ele>878</ele>
        <time>2025-09-20T09:49:31.000Z</time>
      </trkpt>
      <trkpt lat="42.9855" lon="1.03663">
        <ele>878</ele>
        <time>2025-09-20T09:49:32.000Z</time>
      </trkpt>
      <trkpt lat="42.98552" lon="1.03658">
        <ele>879</ele>
        <time>2025-09-20T09:49:33.000Z</time>
      </trkpt>
      <trkpt lat="42.98553" lon="1.03652">
        <ele>879</ele>
        <time>2025-09-20T09:49:34.000Z</time>
      </trkpt>
      <trkpt lat="42.98554" lon="1.03646">
        <ele>879</ele>
        <time>2025-09-20T09:49:35.000Z</time>
      </trkpt>
      <trkpt lat="42.98555" lon="1.0364">
        <ele>879</ele>
        <time>2025-09-20T09:49:36.000Z</time>
      </trkpt>
      <trkpt lat="42.98557" lon="1.03636">
        <ele>878</ele>
        <time>2025-09-20T09:49:37.000Z</time>
      </trkpt>
      <trkpt lat="42.98558" lon="1.03632">
        <ele>878</ele>
        <time>2025-09-20T09:49:38.000Z</time>
      </trkpt>
      <trkpt lat="42.98559" lon="1.03627">
        <ele>878</ele>
        <time>2025-09-20T09:49:39.000Z</time>
      </trkpt>
      <trkpt lat="42.9856" lon="1.03623">
        <ele>878</ele>
        <time>2025-09-20T09:49:40.000Z</time>
      </trkpt>
      <trkpt lat="42.98561" lon="1.03618">
        <ele>878</ele>
        <time>2025-09-20T09:49:41.000Z</time>
      </trkpt>
      <trkpt lat="42.98561" lon="1.03612">
        <ele>878</ele>
        <time>2025-09-20T09:49:42.000Z</time>
      </trkpt>
      <trkpt lat="42.98561" lon="1.03607">
        <ele>877</ele>
        <time>2025-09-20T09:49:43.000Z</time>
      </trkpt>
      <trkpt lat="42.98562" lon="1.03602">
        <ele>877</ele>
        <time>2025-09-20T09:49:44.000Z</time>
      </trkpt>
      <trkpt lat="42.98561" lon="1.03595">
        <ele>877</ele>
        <time>2025-09-20T09:49:45.000Z</time>
      </trkpt>
      <trkpt lat="42.98559" lon="1.03589">
        <ele>878</ele>
        <time>2025-09-20T09:49:46.000Z</time>
      </trkpt>
      <trkpt lat="42.98559" lon="1.03584">
        <ele>878</ele>
        <time>2025-09-20T09:49:47.000Z</time>
      </trkpt>
      <trkpt lat="42.98559" lon="1.03579">
        <ele>879</ele>
        <time>2025-09-20T09:49:48.000Z</time>
      </trkpt>
      <trkpt lat="42.98559" lon="1.03573">
        <ele>879</ele>
        <time>2025-09-20T09:49:49.000Z</time>
      </trkpt>
      <trkpt lat="42.98559" lon="1.03567">
        <ele>881</ele>
        <time>2025-09-20T09:49:50.000Z</time>
      </trkpt>
      <trkpt lat="42.9856" lon="1.03561">
        <ele>882</ele>
        <time>2025-09-20T09:49:51.000Z</time>
      </trkpt>
      <trkpt lat="42.98561" lon="1.03556">
        <ele>882</ele>
        <time>2025-09-20T09:49:52.000Z</time>
      </trkpt>
      <trkpt lat="42.98561" lon="1.03551">
        <ele>882</ele>
        <time>2025-09-20T09:49:53.000Z</time>
      </trkpt>
      <trkpt lat="42.98562" lon="1.03547">
        <ele>882</ele>
        <time>2025-09-20T09:49:54.000Z</time>
      </trkpt>
      <trkpt lat="42.98562" lon="1.03542">
        <ele>882</ele>
        <time>2025-09-20T09:49:55.000Z</time>
      </trkpt>
      <trkpt lat="42.98563" lon="1.03538">
        <ele>882</ele>
        <time>2025-09-20T09:49:56.000Z</time>
      </trkpt>
      <trkpt lat="42.98563" lon="1.03534">
        <ele>883</ele>
        <time>2025-09-20T09:49:57.000Z</time>
      </trkpt>
      <trkpt lat="42.98564" lon="1.0353">
        <ele>883</ele>
        <time>2025-09-20T09:49:58.000Z</time>
      </trkpt>
      <trkpt lat="42.98564" lon="1.03526">
        <ele>883</ele>
        <time>2025-09-20T09:49:59.000Z</time>
      </trkpt>
      <trkpt lat="42.98564" lon="1.03522">
        <ele>883</ele>
        <time>2025-09-20T09:50:00.000Z</time>
      </trkpt>
      <trkpt lat="42.98564" lon="1.03518">
        <ele>883</ele>
        <time>2025-09-20T09:50:01.000Z</time>
      </trkpt>
      <trkpt lat="42.98563" lon="1.03514">
        <ele>883</ele>
        <time>2025-09-20T09:50:02.000Z</time>
      </trkpt>
      <trkpt lat="42.98563" lon="1.0351">
        <ele>883</ele>
        <time>2025-09-20T09:50:03.000Z</time>
      </trkpt>
      <trkpt lat="42.98563" lon="1.03506">
        <ele>884</ele>
        <time>2025-09-20T09:50:04.000Z</time>
      </trkpt>
      <trkpt lat="42.98563" lon="1.03501">
        <ele>884</ele>
        <time>2025-09-20T09:50:05.000Z</time>
      </trkpt>
      <trkpt lat="42.98563" lon="1.03498">
        <ele>884</ele>
        <time>2025-09-20T09:50:06.000Z</time>
      </trkpt>
      <trkpt lat="42.98563" lon="1.03493">
        <ele>884</ele>
        <time>2025-09-20T09:50:07.000Z</time>
      </trkpt>
      <trkpt lat="42.98563" lon="1.03489">
        <ele>884</ele>
        <time>2025-09-20T09:50:08.000Z</time>
      </trkpt>
      <trkpt lat="42.98563" lon="1.03484">
        <ele>884</ele>
        <time>2025-09-20T09:50:09.000Z</time>
      </trkpt>
      <trkpt lat="42.98564" lon="1.0348">
        <ele>884</ele>
        <time>2025-09-20T09:50:10.000Z</time>
      </trkpt>
      <trkpt lat="42.98564" lon="1.03475">
        <ele>884</ele>
        <time>2025-09-20T09:50:11.000Z</time>
      </trkpt>
      <trkpt lat="42.98565" lon="1.03471">
        <ele>885</ele>
        <time>2025-09-20T09:50:12.000Z</time>
      </trkpt>
      <trkpt lat="42.98565" lon="1.03467">
        <ele>885</ele>
        <time>2025-09-20T09:50:13.000Z</time>
      </trkpt>
      <trkpt lat="42.98565" lon="1.03464">
        <ele>885</ele>
        <time>2025-09-20T09:50:14.000Z</time>
      </trkpt>
      <trkpt lat="42.98565" lon="1.0346">
        <ele>886</ele>
        <time>2025-09-20T09:50:15.000Z</time>
      </trkpt>
      <trkpt lat="42.98565" lon="1.03455">
        <ele>886</ele>
        <time>2025-09-20T09:50:16.000Z</time>
      </trkpt>
      <trkpt lat="42.98565" lon="1.03451">
        <ele>886</ele>
        <time>2025-09-20T09:50:17.000Z</time>
      </trkpt>
      <trkpt lat="42.98566" lon="1.03446">
        <ele>886</ele>
        <time>2025-09-20T09:50:18.000Z</time>
      </trkpt>
      <trkpt lat="42.98566" lon="1.03442">
        <ele>885</ele>
        <time>2025-09-20T09:50:19.000Z</time>
      </trkpt>
      <trkpt lat="42.98566" lon="1.03437">
        <ele>885</ele>
        <time>2025-09-20T09:50:20.000Z</time>
      </trkpt>
      <trkpt lat="42.98566" lon="1.03433">
        <ele>885</ele>
        <time>2025-09-20T09:50:21.000Z</time>
      </trkpt>
      <trkpt lat="42.98567" lon="1.03429">
        <ele>885</ele>
        <time>2025-09-20T09:50:22.000Z</time>
      </trkpt>
      <trkpt lat="42.98567" lon="1.03425">
        <ele>886</ele>
        <time>2025-09-20T09:50:23.000Z</time>
      </trkpt>
      <trkpt lat="42.98568" lon="1.0342">
        <ele>886</ele>
        <time>2025-09-20T09:50:24.000Z</time>
      </trkpt>
      <trkpt lat="42.98568" lon="1.03416">
        <ele>887</ele>
        <time>2025-09-20T09:50:25.000Z</time>
      </trkpt>
      <trkpt lat="42.98568" lon="1.03411">
        <ele>888</ele>
        <time>2025-09-20T09:50:26.000Z</time>
      </trkpt>
      <trkpt lat="42.98569" lon="1.03407">
        <ele>888</ele>
        <time>2025-09-20T09:50:27.000Z</time>
      </trkpt>
      <trkpt lat="42.98569" lon="1.03403">
        <ele>888</ele>
        <time>2025-09-20T09:50:28.000Z</time>
      </trkpt>
      <trkpt lat="42.9857" lon="1.03399">
        <ele>889</ele>
        <time>2025-09-20T09:50:29.000Z</time>
      </trkpt>
      <trkpt lat="42.9857" lon="1.03394">
        <ele>890</ele>
        <time>2025-09-20T09:50:30.000Z</time>
      </trkpt>
      <trkpt lat="42.98571" lon="1.03389">
        <ele>890</ele>
        <time>2025-09-20T09:50:31.000Z</time>
      </trkpt>
      <trkpt lat="42.98572" lon="1.03385">
        <ele>891</ele>
        <time>2025-09-20T09:50:32.000Z</time>
      </trkpt>
      <trkpt lat="42.98572" lon="1.03381">
        <ele>891</ele>
        <time>2025-09-20T09:50:33.000Z</time>
      </trkpt>
      <trkpt lat="42.98572" lon="1.03376">
        <ele>891</ele>
        <time>2025-09-20T09:50:34.000Z</time>
      </trkpt>
      <trkpt lat="42.98572" lon="1.03372">
        <ele>891</ele>
        <time>2025-09-20T09:50:35.000Z</time>
      </trkpt>
      <trkpt lat="42.98573" lon="1.03367">
        <ele>890</ele>
        <time>2025-09-20T09:50:36.000Z</time>
      </trkpt>
      <trkpt lat="42.98573" lon="1.03362">
        <ele>890</ele>
        <time>2025-09-20T09:50:37.000Z</time>
      </trkpt>
      <trkpt lat="42.98573" lon="1.03358">
        <ele>890</ele>
        <time>2025-09-20T09:50:38.000Z</time>
      </trkpt>
      <trkpt lat="42.98573" lon="1.03352">
        <ele>890</ele>
        <time>2025-09-20T09:50:39.000Z</time>
      </trkpt>
      <trkpt lat="42.98574" lon="1.03347">
        <ele>890</ele>
        <time>2025-09-20T09:50:40.000Z</time>
      </trkpt>
      <trkpt lat="42.98574" lon="1.03343">
        <ele>890</ele>
        <time>2025-09-20T09:50:41.000Z</time>
      </trkpt>
      <trkpt lat="42.98574" lon="1.03338">
        <ele>890</ele>
        <time>2025-09-20T09:50:42.000Z</time>
      </trkpt>
      <trkpt lat="42.98574" lon="1.03333">
        <ele>890</ele>
        <time>2025-09-20T09:50:43.000Z</time>
      </trkpt>
      <trkpt lat="42.98575" lon="1.03328">
        <ele>890</ele>
        <time>2025-09-20T09:50:44.000Z</time>
      </trkpt>
      <trkpt lat="42.98576" lon="1.03324">
        <ele>890</ele>
        <time>2025-09-20T09:50:45.000Z</time>
      </trkpt>
      <trkpt lat="42.98576" lon="1.03319">
        <ele>890</ele>
        <time>2025-09-20T09:50:46.000Z</time>
      </trkpt>
      <trkpt lat="42.98576" lon="1.03314">
        <ele>890</ele>
        <time>2025-09-20T09:50:47.000Z</time>
      </trkpt>
      <trkpt lat="42.98575" lon="1.0331">
        <ele>890</ele>
        <time>2025-09-20T09:50:48.000Z</time>
      </trkpt>
      <trkpt lat="42.98576" lon="1.03305">
        <ele>891</ele>
        <time>2025-09-20T09:50:49.000Z</time>
      </trkpt>
      <trkpt lat="42.98575" lon="1.033">
        <ele>891</ele>
        <time>2025-09-20T09:50:50.000Z</time>
      </trkpt>
      <trkpt lat="42.98575" lon="1.03296">
        <ele>891</ele>
        <time>2025-09-20T09:50:51.000Z</time>
      </trkpt>
      <trkpt lat="42.98576" lon="1.0329">
        <ele>891</ele>
        <time>2025-09-20T09:50:52.000Z</time>
      </trkpt>
      <trkpt lat="42.98577" lon="1.03286">
        <ele>892</ele>
        <time>2025-09-20T09:50:53.000Z</time>
      </trkpt>
      <trkpt lat="42.98577" lon="1.03282">
        <ele>892</ele>
        <time>2025-09-20T09:50:54.000Z</time>
      </trkpt>
      <trkpt lat="42.98576" lon="1.03277">
        <ele>891</ele>
        <time>2025-09-20T09:50:55.000Z</time>
      </trkpt>
      <trkpt lat="42.98576" lon="1.03273">
        <ele>891</ele>
        <time>2025-09-20T09:50:56.000Z</time>
      </trkpt>
      <trkpt lat="42.98577" lon="1.03269">
        <ele>892</ele>
        <time>2025-09-20T09:50:57.000Z</time>
      </trkpt>
      <trkpt lat="42.98578" lon="1.03264">
        <ele>892</ele>
        <time>2025-09-20T09:50:58.000Z</time>
      </trkpt>
      <trkpt lat="42.98578" lon="1.03259">
        <ele>892</ele>
        <time>2025-09-20T09:50:59.000Z</time>
      </trkpt>
      <trkpt lat="42.98578" lon="1.03255">
        <ele>893</ele>
        <time>2025-09-20T09:51:00.000Z</time>
      </trkpt>
      <trkpt lat="42.98578" lon="1.0325">
        <ele>894</ele>
        <time>2025-09-20T09:51:01.000Z</time>
      </trkpt>
      <trkpt lat="42.98578" lon="1.03246">
        <ele>894</ele>
        <time>2025-09-20T09:51:02.000Z</time>
      </trkpt>
      <trkpt lat="42.98578" lon="1.03241">
        <ele>895</ele>
        <time>2025-09-20T09:51:03.000Z</time>
      </trkpt>
      <trkpt lat="42.98578" lon="1.03236">
        <ele>896</ele>
        <time>2025-09-20T09:51:04.000Z</time>
      </trkpt>
      <trkpt lat="42.98577" lon="1.03232">
        <ele>896</ele>
        <time>2025-09-20T09:51:05.000Z</time>
      </trkpt>
      <trkpt lat="42.98577" lon="1.03227">
        <ele>896</ele>
        <time>2025-09-20T09:51:06.000Z</time>
      </trkpt>
      <trkpt lat="42.98576" lon="1.03223">
        <ele>897</ele>
        <time>2025-09-20T09:51:07.000Z</time>
      </trkpt>
      <trkpt lat="42.98576" lon="1.03219">
        <ele>897</ele>
        <time>2025-09-20T09:51:08.000Z</time>
      </trkpt>
      <trkpt lat="42.98576" lon="1.03215">
        <ele>896</ele>
        <time>2025-09-20T09:51:09.000Z</time>
      </trkpt>
      <trkpt lat="42.98575" lon="1.03211">
        <ele>896</ele>
        <time>2025-09-20T09:51:10.000Z</time>
      </trkpt>
      <trkpt lat="42.98574" lon="1.03207">
        <ele>897</ele>
        <time>2025-09-20T09:51:11.000Z</time>
      </trkpt>
      <trkpt lat="42.98574" lon="1.03203">
        <ele>897</ele>
        <time>2025-09-20T09:51:12.000Z</time>
      </trkpt>
      <trkpt lat="42.98574" lon="1.03199">
        <ele>897</ele>
        <time>2025-09-20T09:51:13.000Z</time>
      </trkpt>
      <trkpt lat="42.98574" lon="1.03195">
        <ele>898</ele>
        <time>2025-09-20T09:51:14.000Z</time>
      </trkpt>
      <trkpt lat="42.98574" lon="1.03192">
        <ele>899</ele>
        <time>2025-09-20T09:51:15.000Z</time>
      </trkpt>
      <trkpt lat="42.98573" lon="1.03187">
        <ele>899</ele>
        <time>2025-09-20T09:51:16.000Z</time>
      </trkpt>
      <trkpt lat="42.98573" lon="1.03183">
        <ele>900</ele>
        <time>2025-09-20T09:51:17.000Z</time>
      </trkpt>
      <trkpt lat="42.98573" lon="1.0318">
        <ele>900</ele>
        <time>2025-09-20T09:51:18.000Z</time>
      </trkpt>
      <trkpt lat="42.98572" lon="1.03176">
        <ele>901</ele>
        <time>2025-09-20T09:51:19.000Z</time>
      </trkpt>
      <trkpt lat="42.98572" lon="1.03173">
        <ele>901</ele>
        <time>2025-09-20T09:51:20.000Z</time>
      </trkpt>
      <trkpt lat="42.98571" lon="1.0317">
        <ele>901</ele>
        <time>2025-09-20T09:51:21.000Z</time>
      </trkpt>
      <trkpt lat="42.98571" lon="1.03166">
        <ele>901</ele>
        <time>2025-09-20T09:51:22.000Z</time>
      </trkpt>
      <trkpt lat="42.9857" lon="1.03162">
        <ele>902</ele>
        <time>2025-09-20T09:51:23.000Z</time>
      </trkpt>
      <trkpt lat="42.98571" lon="1.03158">
        <ele>902</ele>
        <time>2025-09-20T09:51:24.000Z</time>
      </trkpt>
      <trkpt lat="42.9857" lon="1.03153">
        <ele>902</ele>
        <time>2025-09-20T09:51:25.000Z</time>
      </trkpt>
      <trkpt lat="42.98569" lon="1.03149">
        <ele>902</ele>
        <time>2025-09-20T09:51:26.000Z</time>
      </trkpt>
      <trkpt lat="42.98568" lon="1.03144">
        <ele>902</ele>
        <time>2025-09-20T09:51:27.000Z</time>
      </trkpt>
      <trkpt lat="42.98567" lon="1.03141">
        <ele>903</ele>
        <time>2025-09-20T09:51:28.000Z</time>
      </trkpt>
      <trkpt lat="42.98566" lon="1.03137">
        <ele>903</ele>
        <time>2025-09-20T09:51:29.000Z</time>
      </trkpt>
      <trkpt lat="42.98565" lon="1.03133">
        <ele>903</ele>
        <time>2025-09-20T09:51:30.000Z</time>
      </trkpt>
      <trkpt lat="42.98564" lon="1.03129">
        <ele>903</ele>
        <time>2025-09-20T09:51:31.000Z</time>
      </trkpt>
      <trkpt lat="42.98563" lon="1.03125">
        <ele>904</ele>
        <time>2025-09-20T09:51:32.000Z</time>
      </trkpt>
      <trkpt lat="42.98562" lon="1.03122">
        <ele>904</ele>
        <time>2025-09-20T09:51:33.000Z</time>
      </trkpt>
      <trkpt lat="42.98561" lon="1.03119">
        <ele>904</ele>
        <time>2025-09-20T09:51:34.000Z</time>
      </trkpt>
      <trkpt lat="42.9856" lon="1.03115">
        <ele>904</ele>
        <time>2025-09-20T09:51:35.000Z</time>
      </trkpt>
      <trkpt lat="42.98559" lon="1.03111">
        <ele>904</ele>
        <time>2025-09-20T09:51:36.000Z</time>
      </trkpt>
      <trkpt lat="42.98558" lon="1.03108">
        <ele>903</ele>
        <time>2025-09-20T09:51:37.000Z</time>
      </trkpt>
      <trkpt lat="42.98556" lon="1.03104">
        <ele>903</ele>
        <time>2025-09-20T09:51:38.000Z</time>
      </trkpt>
      <trkpt lat="42.98555" lon="1.03101">
        <ele>903</ele>
        <time>2025-09-20T09:51:39.000Z</time>
      </trkpt>
      <trkpt lat="42.98554" lon="1.03098">
        <ele>903</ele>
        <time>2025-09-20T09:51:40.000Z</time>
      </trkpt>
      <trkpt lat="42.98553" lon="1.03094">
        <ele>903</ele>
        <time>2025-09-20T09:51:41.000Z</time>
      </trkpt>
      <trkpt lat="42.98552" lon="1.0309">
        <ele>904</ele>
        <time>2025-09-20T09:51:42.000Z</time>
      </trkpt>
      <trkpt lat="42.98551" lon="1.03087">
        <ele>905</ele>
        <time>2025-09-20T09:51:43.000Z</time>
      </trkpt>
      <trkpt lat="42.98551" lon="1.03084">
        <ele>906</ele>
        <time>2025-09-20T09:51:44.000Z</time>
      </trkpt>
      <trkpt lat="42.98551" lon="1.0308">
        <ele>907</ele>
        <time>2025-09-20T09:51:45.000Z</time>
      </trkpt>
      <trkpt lat="42.9855" lon="1.03077">
        <ele>908</ele>
        <time>2025-09-20T09:51:46.000Z</time>
      </trkpt>
      <trkpt lat="42.9855" lon="1.03074">
        <ele>908</ele>
        <time>2025-09-20T09:51:47.000Z</time>
      </trkpt>
      <trkpt lat="42.98549" lon="1.0307">
        <ele>909</ele>
        <time>2025-09-20T09:51:48.000Z</time>
      </trkpt>
      <trkpt lat="42.98548" lon="1.03067">
        <ele>909</ele>
        <time>2025-09-20T09:51:49.000Z</time>
      </trkpt>
      <trkpt lat="42.98547" lon="1.03064">
        <ele>910</ele>
        <time>2025-09-20T09:51:50.000Z</time>
      </trkpt>
      <trkpt lat="42.98546" lon="1.0306">
        <ele>910</ele>
        <time>2025-09-20T09:51:51.000Z</time>
      </trkpt>
      <trkpt lat="42.98546" lon="1.03056">
        <ele>910</ele>
        <time>2025-09-20T09:51:52.000Z</time>
      </trkpt>
      <trkpt lat="42.98545" lon="1.03052">
        <ele>911</ele>
        <time>2025-09-20T09:51:53.000Z</time>
      </trkpt>
      <trkpt lat="42.98544" lon="1.03048">
        <ele>911</ele>
        <time>2025-09-20T09:51:54.000Z</time>
      </trkpt>
      <trkpt lat="42.98543" lon="1.03045">
        <ele>912</ele>
        <time>2025-09-20T09:51:55.000Z</time>
      </trkpt>
      <trkpt lat="42.98542" lon="1.03042">
        <ele>913</ele>
        <time>2025-09-20T09:51:56.000Z</time>
      </trkpt>
      <trkpt lat="42.98541" lon="1.03038">
        <ele>913</ele>
        <time>2025-09-20T09:51:57.000Z</time>
      </trkpt>
      <trkpt lat="42.9854" lon="1.03035">
        <ele>914</ele>
        <time>2025-09-20T09:51:58.000Z</time>
      </trkpt>
      <trkpt lat="42.98539" lon="1.03032">
        <ele>914</ele>
        <time>2025-09-20T09:51:59.000Z</time>
      </trkpt>
      <trkpt lat="42.98539" lon="1.03029">
        <ele>914</ele>
        <time>2025-09-20T09:52:00.000Z</time>
      </trkpt>
      <trkpt lat="42.98538" lon="1.03025">
        <ele>915</ele>
        <time>2025-09-20T09:52:01.000Z</time>
      </trkpt>
      <trkpt lat="42.98537" lon="1.03021">
        <ele>914</ele>
        <time>2025-09-20T09:52:02.000Z</time>
      </trkpt>
      <trkpt lat="42.98536" lon="1.03018">
        <ele>914</ele>
        <time>2025-09-20T09:52:03.000Z</time>
      </trkpt>
      <trkpt lat="42.98534" lon="1.03015">
        <ele>914</ele>
        <time>2025-09-20T09:52:04.000Z</time>
      </trkpt>
      <trkpt lat="42.98534" lon="1.03011">
        <ele>914</ele>
        <time>2025-09-20T09:52:05.000Z</time>
      </trkpt>
      <trkpt lat="42.98532" lon="1.03007">
        <ele>914</ele>
        <time>2025-09-20T09:52:06.000Z</time>
      </trkpt>
      <trkpt lat="42.98531" lon="1.03004">
        <ele>914</ele>
        <time>2025-09-20T09:52:07.000Z</time>
      </trkpt>
      <trkpt lat="42.9853" lon="1.03001">
        <ele>914</ele>
        <time>2025-09-20T09:52:08.000Z</time>
      </trkpt>
      <trkpt lat="42.98528" lon="1.02998">
        <ele>913</ele>
        <time>2025-09-20T09:52:09.000Z</time>
      </trkpt>
      <trkpt lat="42.98527" lon="1.02995">
        <ele>913</ele>
        <time>2025-09-20T09:52:10.000Z</time>
      </trkpt>
      <trkpt lat="42.98525" lon="1.02991">
        <ele>912</ele>
        <time>2025-09-20T09:52:11.000Z</time>
      </trkpt>
      <trkpt lat="42.98523" lon="1.02988">
        <ele>911</ele>
        <time>2025-09-20T09:52:12.000Z</time>
      </trkpt>
      <trkpt lat="42.98521" lon="1.02984">
        <ele>911</ele>
        <time>2025-09-20T09:52:13.000Z</time>
      </trkpt>
      <trkpt lat="42.9852" lon="1.0298">
        <ele>911</ele>
        <time>2025-09-20T09:52:14.000Z</time>
      </trkpt>
      <trkpt lat="42.98518" lon="1.02977">
        <ele>911</ele>
        <time>2025-09-20T09:52:15.000Z</time>
      </trkpt>
      <trkpt lat="42.98517" lon="1.02974">
        <ele>911</ele>
        <time>2025-09-20T09:52:16.000Z</time>
      </trkpt>
      <trkpt lat="42.98516" lon="1.02971">
        <ele>912</ele>
        <time>2025-09-20T09:52:17.000Z</time>
      </trkpt>
      <trkpt lat="42.98515" lon="1.02967">
        <ele>912</ele>
        <time>2025-09-20T09:52:18.000Z</time>
      </trkpt>
      <trkpt lat="42.98514" lon="1.02965">
        <ele>912</ele>
        <time>2025-09-20T09:52:19.000Z</time>
      </trkpt>
      <trkpt lat="42.98512" lon="1.02961">
        <ele>913</ele>
        <time>2025-09-20T09:52:20.000Z</time>
      </trkpt>
      <trkpt lat="42.98511" lon="1.02958">
        <ele>913</ele>
        <time>2025-09-20T09:52:21.000Z</time>
      </trkpt>
      <trkpt lat="42.9851" lon="1.02953">
        <ele>914</ele>
        <time>2025-09-20T09:52:22.000Z</time>
      </trkpt>
      <trkpt lat="42.98509" lon="1.0295">
        <ele>914</ele>
        <time>2025-09-20T09:52:23.000Z</time>
      </trkpt>
      <trkpt lat="42.98508" lon="1.02946">
        <ele>915</ele>
        <time>2025-09-20T09:52:24.000Z</time>
      </trkpt>
      <trkpt lat="42.98507" lon="1.02943">
        <ele>915</ele>
        <time>2025-09-20T09:52:25.000Z</time>
      </trkpt>
      <trkpt lat="42.98506" lon="1.0294">
        <ele>916</ele>
        <time>2025-09-20T09:52:26.000Z</time>
      </trkpt>
      <trkpt lat="42.98505" lon="1.02936">
        <ele>917</ele>
        <time>2025-09-20T09:52:27.000Z</time>
      </trkpt>
      <trkpt lat="42.98504" lon="1.02932">
        <ele>917</ele>
        <time>2025-09-20T09:52:28.000Z</time>
      </trkpt>
      <trkpt lat="42.98503" lon="1.02929">
        <ele>918</ele>
        <time>2025-09-20T09:52:29.000Z</time>
      </trkpt>
      <trkpt lat="42.98502" lon="1.02925">
        <ele>918</ele>
        <time>2025-09-20T09:52:30.000Z</time>
      </trkpt>
      <trkpt lat="42.98501" lon="1.02921">
        <ele>918</ele>
        <time>2025-09-20T09:52:31.000Z</time>
      </trkpt>
      <trkpt lat="42.98499" lon="1.02918">
        <ele>919</ele>
        <time>2025-09-20T09:52:32.000Z</time>
      </trkpt>
      <trkpt lat="42.98498" lon="1.02914">
        <ele>918</ele>
        <time>2025-09-20T09:52:33.000Z</time>
      </trkpt>
      <trkpt lat="42.98497" lon="1.02911">
        <ele>919</ele>
        <time>2025-09-20T09:52:34.000Z</time>
      </trkpt>
      <trkpt lat="42.98496" lon="1.02907">
        <ele>919</ele>
        <time>2025-09-20T09:52:35.000Z</time>
      </trkpt>
      <trkpt lat="42.98495" lon="1.02903">
        <ele>920</ele>
        <time>2025-09-20T09:52:36.000Z</time>
      </trkpt>
      <trkpt lat="42.98494" lon="1.02899">
        <ele>920</ele>
        <time>2025-09-20T09:52:37.000Z</time>
      </trkpt>
      <trkpt lat="42.98493" lon="1.02896">
        <ele>920</ele>
        <time>2025-09-20T09:52:38.000Z</time>
      </trkpt>
      <trkpt lat="42.98492" lon="1.02892">
        <ele>920</ele>
        <time>2025-09-20T09:52:39.000Z</time>
      </trkpt>
      <trkpt lat="42.98491" lon="1.02889">
        <ele>920</ele>
        <time>2025-09-20T09:52:40.000Z</time>
      </trkpt>
      <trkpt lat="42.98489" lon="1.02886">
        <ele>921</ele>
        <time>2025-09-20T09:52:41.000Z</time>
      </trkpt>
      <trkpt lat="42.98488" lon="1.02882">
        <ele>922</ele>
        <time>2025-09-20T09:52:42.000Z</time>
      </trkpt>
      <trkpt lat="42.98486" lon="1.02879">
        <ele>922</ele>
        <time>2025-09-20T09:52:43.000Z</time>
      </trkpt>
      <trkpt lat="42.98486" lon="1.02875">
        <ele>922</ele>
        <time>2025-09-20T09:52:44.000Z</time>
      </trkpt>
      <trkpt lat="42.98486" lon="1.02871">
        <ele>923</ele>
        <time>2025-09-20T09:52:45.000Z</time>
      </trkpt>
      <trkpt lat="42.98486" lon="1.02867">
        <ele>924</ele>
        <time>2025-09-20T09:52:46.000Z</time>
      </trkpt>
      <trkpt lat="42.98486" lon="1.02864">
        <ele>924</ele>
        <time>2025-09-20T09:52:47.000Z</time>
      </trkpt>
      <trkpt lat="42.98485" lon="1.0286">
        <ele>924</ele>
        <time>2025-09-20T09:52:48.000Z</time>
      </trkpt>
      <trkpt lat="42.98485" lon="1.02856">
        <ele>925</ele>
        <time>2025-09-20T09:52:49.000Z</time>
      </trkpt>
      <trkpt lat="42.98484" lon="1.02852">
        <ele>925</ele>
        <time>2025-09-20T09:52:50.000Z</time>
      </trkpt>
      <trkpt lat="42.98483" lon="1.02848">
        <ele>925</ele>
        <time>2025-09-20T09:52:51.000Z</time>
      </trkpt>
      <trkpt lat="42.98483" lon="1.02845">
        <ele>926</ele>
        <time>2025-09-20T09:52:52.000Z</time>
      </trkpt>
      <trkpt lat="42.98482" lon="1.02841">
        <ele>926</ele>
        <time>2025-09-20T09:52:53.000Z</time>
      </trkpt>
      <trkpt lat="42.98481" lon="1.02838">
        <ele>926</ele>
        <time>2025-09-20T09:52:54.000Z</time>
      </trkpt>
      <trkpt lat="42.98479" lon="1.02835">
        <ele>926</ele>
        <time>2025-09-20T09:52:55.000Z</time>
      </trkpt>
      <trkpt lat="42.98478" lon="1.02832">
        <ele>926</ele>
        <time>2025-09-20T09:52:56.000Z</time>
      </trkpt>
      <trkpt lat="42.98477" lon="1.02829">
        <ele>926</ele>
        <time>2025-09-20T09:52:57.000Z</time>
      </trkpt>
      <trkpt lat="42.98476" lon="1.02826">
        <ele>926</ele>
        <time>2025-09-20T09:52:58.000Z</time>
      </trkpt>
      <trkpt lat="42.98475" lon="1.02823">
        <ele>926</ele>
        <time>2025-09-20T09:52:59.000Z</time>
      </trkpt>
      <trkpt lat="42.98474" lon="1.02819">
        <ele>926</ele>
        <time>2025-09-20T09:53:00.000Z</time>
      </trkpt>
      <trkpt lat="42.98472" lon="1.02816">
        <ele>926</ele>
        <time>2025-09-20T09:53:01.000Z</time>
      </trkpt>
      <trkpt lat="42.98471" lon="1.02812">
        <ele>927</ele>
        <time>2025-09-20T09:53:02.000Z</time>
      </trkpt>
      <trkpt lat="42.9847" lon="1.02809">
        <ele>927</ele>
        <time>2025-09-20T09:53:03.000Z</time>
      </trkpt>
      <trkpt lat="42.98469" lon="1.02805">
        <ele>928</ele>
        <time>2025-09-20T09:53:04.000Z</time>
      </trkpt>
      <trkpt lat="42.98468" lon="1.02801">
        <ele>928</ele>
        <time>2025-09-20T09:53:05.000Z</time>
      </trkpt>
      <trkpt lat="42.98466" lon="1.02798">
        <ele>928</ele>
        <time>2025-09-20T09:53:06.000Z</time>
      </trkpt>
      <trkpt lat="42.98465" lon="1.02795">
        <ele>928</ele>
        <time>2025-09-20T09:53:07.000Z</time>
      </trkpt>
      <trkpt lat="42.98463" lon="1.02792">
        <ele>929</ele>
        <time>2025-09-20T09:53:08.000Z</time>
      </trkpt>
      <trkpt lat="42.98462" lon="1.02788">
        <ele>929</ele>
        <time>2025-09-20T09:53:09.000Z</time>
      </trkpt>
      <trkpt lat="42.98461" lon="1.02785">
        <ele>929</ele>
        <time>2025-09-20T09:53:10.000Z</time>
      </trkpt>
      <trkpt lat="42.98459" lon="1.02781">
        <ele>930</ele>
        <time>2025-09-20T09:53:11.000Z</time>
      </trkpt>
      <trkpt lat="42.98459" lon="1.02777">
        <ele>930</ele>
        <time>2025-09-20T09:53:12.000Z</time>
      </trkpt>
      <trkpt lat="42.98458" lon="1.02774">
        <ele>930</ele>
        <time>2025-09-20T09:53:13.000Z</time>
      </trkpt>
      <trkpt lat="42.98456" lon="1.0277">
        <ele>931</ele>
        <time>2025-09-20T09:53:14.000Z</time>
      </trkpt>
      <trkpt lat="42.98456" lon="1.02766">
        <ele>931</ele>
        <time>2025-09-20T09:53:15.000Z</time>
      </trkpt>
      <trkpt lat="42.98455" lon="1.02763">
        <ele>931</ele>
        <time>2025-09-20T09:53:16.000Z</time>
      </trkpt>
      <trkpt lat="42.98454" lon="1.02759">
        <ele>931</ele>
        <time>2025-09-20T09:53:17.000Z</time>
      </trkpt>
      <trkpt lat="42.98453" lon="1.02755">
        <ele>932</ele>
        <time>2025-09-20T09:53:18.000Z</time>
      </trkpt>
      <trkpt lat="42.98452" lon="1.02751">
        <ele>932</ele>
        <time>2025-09-20T09:53:19.000Z</time>
      </trkpt>
      <trkpt lat="42.98452" lon="1.02747">
        <ele>932</ele>
        <time>2025-09-20T09:53:20.000Z</time>
      </trkpt>
      <trkpt lat="42.98451" lon="1.02744">
        <ele>933</ele>
        <time>2025-09-20T09:53:21.000Z</time>
      </trkpt>
      <trkpt lat="42.98451" lon="1.0274">
        <ele>933</ele>
        <time>2025-09-20T09:53:22.000Z</time>
      </trkpt>
      <trkpt lat="42.9845" lon="1.02735">
        <ele>933</ele>
        <time>2025-09-20T09:53:23.000Z</time>
      </trkpt>
      <trkpt lat="42.9845" lon="1.02731">
        <ele>933</ele>
        <time>2025-09-20T09:53:24.000Z</time>
      </trkpt>
      <trkpt lat="42.9845" lon="1.02727">
        <ele>934</ele>
        <time>2025-09-20T09:53:25.000Z</time>
      </trkpt>
      <trkpt lat="42.9845" lon="1.02723">
        <ele>934</ele>
        <time>2025-09-20T09:53:26.000Z</time>
      </trkpt>
      <trkpt lat="42.98449" lon="1.02719">
        <ele>934</ele>
        <time>2025-09-20T09:53:27.000Z</time>
      </trkpt>
      <trkpt lat="42.98448" lon="1.02716">
        <ele>935</ele>
        <time>2025-09-20T09:53:28.000Z</time>
      </trkpt>
      <trkpt lat="42.98448" lon="1.02711">
        <ele>935</ele>
        <time>2025-09-20T09:53:29.000Z</time>
      </trkpt>
      <trkpt lat="42.98447" lon="1.02707">
        <ele>934</ele>
        <time>2025-09-20T09:53:30.000Z</time>
      </trkpt>
      <trkpt lat="42.98446" lon="1.02703">
        <ele>934</ele>
        <time>2025-09-20T09:53:31.000Z</time>
      </trkpt>
      <trkpt lat="42.98446" lon="1.02699">
        <ele>935</ele>
        <time>2025-09-20T09:53:32.000Z</time>
      </trkpt>
      <trkpt lat="42.98446" lon="1.02694">
        <ele>935</ele>
        <time>2025-09-20T09:53:33.000Z</time>
      </trkpt>
      <trkpt lat="42.98447" lon="1.02691">
        <ele>936</ele>
        <time>2025-09-20T09:53:34.000Z</time>
      </trkpt>
      <trkpt lat="42.98446" lon="1.02686">
        <ele>935</ele>
        <time>2025-09-20T09:53:35.000Z</time>
      </trkpt>
      <trkpt lat="42.98446" lon="1.02682">
        <ele>935</ele>
        <time>2025-09-20T09:53:36.000Z</time>
      </trkpt>
      <trkpt lat="42.98444" lon="1.02678">
        <ele>936</ele>
        <time>2025-09-20T09:53:37.000Z</time>
      </trkpt>
      <trkpt lat="42.98442" lon="1.02675">
        <ele>936</ele>
        <time>2025-09-20T09:53:38.000Z</time>
      </trkpt>
      <trkpt lat="42.9844" lon="1.02674">
        <ele>936</ele>
        <time>2025-09-20T09:53:39.000Z</time>
      </trkpt>
      <trkpt lat="42.98437" lon="1.02674">
        <ele>937</ele>
        <time>2025-09-20T09:53:40.000Z</time>
      </trkpt>
      <trkpt lat="42.98435" lon="1.02676">
        <ele>937</ele>
        <time>2025-09-20T09:53:41.000Z</time>
      </trkpt>
      <trkpt lat="42.98433" lon="1.0268">
        <ele>938</ele>
        <time>2025-09-20T09:53:42.000Z</time>
      </trkpt>
      <trkpt lat="42.98433" lon="1.02687">
        <ele>939</ele>
        <time>2025-09-20T09:53:43.000Z</time>
      </trkpt>
      <trkpt lat="42.98434" lon="1.02693">
        <ele>939</ele>
        <time>2025-09-20T09:53:44.000Z</time>
      </trkpt>
      <trkpt lat="42.98436" lon="1.02698">
        <ele>940</ele>
        <time>2025-09-20T09:53:45.000Z</time>
      </trkpt>
      <trkpt lat="42.98437" lon="1.02702">
        <ele>940</ele>
        <time>2025-09-20T09:53:46.000Z</time>
      </trkpt>
      <trkpt lat="42.98438" lon="1.02708">
        <ele>940</ele>
        <time>2025-09-20T09:53:47.000Z</time>
      </trkpt>
      <trkpt lat="42.98438" lon="1.02713">
        <ele>940</ele>
        <time>2025-09-20T09:53:48.000Z</time>
      </trkpt>
      <trkpt lat="42.98439" lon="1.02717">
        <ele>940</ele>
        <time>2025-09-20T09:53:49.000Z</time>
      </trkpt>
      <trkpt lat="42.98439" lon="1.02722">
        <ele>940</ele>
        <time>2025-09-20T09:53:50.000Z</time>
      </trkpt>
      <trkpt lat="42.98439" lon="1.02727">
        <ele>941</ele>
        <time>2025-09-20T09:53:51.000Z</time>
      </trkpt>
      <trkpt lat="42.98439" lon="1.02732">
        <ele>940</ele>
        <time>2025-09-20T09:53:52.000Z</time>
      </trkpt>
      <trkpt lat="42.98439" lon="1.02736">
        <ele>940</ele>
        <time>2025-09-20T09:53:53.000Z</time>
      </trkpt>
      <trkpt lat="42.98439" lon="1.02742">
        <ele>940</ele>
        <time>2025-09-20T09:53:54.000Z</time>
      </trkpt>
      <trkpt lat="42.9844" lon="1.02746">
        <ele>941</ele>
        <time>2025-09-20T09:53:55.000Z</time>
      </trkpt>
      <trkpt lat="42.9844" lon="1.0275">
        <ele>941</ele>
        <time>2025-09-20T09:53:56.000Z</time>
      </trkpt>
      <trkpt lat="42.9844" lon="1.02755">
        <ele>941</ele>
        <time>2025-09-20T09:53:57.000Z</time>
      </trkpt>
      <trkpt lat="42.98441" lon="1.02759">
        <ele>942</ele>
        <time>2025-09-20T09:53:58.000Z</time>
      </trkpt>
      <trkpt lat="42.98442" lon="1.02763">
        <ele>943</ele>
        <time>2025-09-20T09:53:59.000Z</time>
      </trkpt>
      <trkpt lat="42.98442" lon="1.02767">
        <ele>943</ele>
        <time>2025-09-20T09:54:00.000Z</time>
      </trkpt>
      <trkpt lat="42.98442" lon="1.02771">
        <ele>944</ele>
        <time>2025-09-20T09:54:01.000Z</time>
      </trkpt>
      <trkpt lat="42.98442" lon="1.02775">
        <ele>944</ele>
        <time>2025-09-20T09:54:02.000Z</time>
      </trkpt>
      <trkpt lat="42.98442" lon="1.0278">
        <ele>944</ele>
        <time>2025-09-20T09:54:03.000Z</time>
      </trkpt>
      <trkpt lat="42.98442" lon="1.02784">
        <ele>944</ele>
        <time>2025-09-20T09:54:04.000Z</time>
      </trkpt>
      <trkpt lat="42.98442" lon="1.02788">
        <ele>944</ele>
        <time>2025-09-20T09:54:05.000Z</time>
      </trkpt>
      <trkpt lat="42.98442" lon="1.02792">
        <ele>944</ele>
        <time>2025-09-20T09:54:06.000Z</time>
      </trkpt>
      <trkpt lat="42.98442" lon="1.02796">
        <ele>944</ele>
        <time>2025-09-20T09:54:07.000Z</time>
      </trkpt>
      <trkpt lat="42.98442" lon="1.028">
        <ele>945</ele>
        <time>2025-09-20T09:54:08.000Z</time>
      </trkpt>
      <trkpt lat="42.98441" lon="1.02804">
        <ele>945</ele>
        <time>2025-09-20T09:54:09.000Z</time>
      </trkpt>
      <trkpt lat="42.98441" lon="1.02808">
        <ele>945</ele>
        <time>2025-09-20T09:54:10.000Z</time>
      </trkpt>
      <trkpt lat="42.98441" lon="1.02811">
        <ele>945</ele>
        <time>2025-09-20T09:54:11.000Z</time>
      </trkpt>
      <trkpt lat="42.9844" lon="1.02815">
        <ele>945</ele>
        <time>2025-09-20T09:54:12.000Z</time>
      </trkpt>
      <trkpt lat="42.98439" lon="1.02818">
        <ele>945</ele>
        <time>2025-09-20T09:54:13.000Z</time>
      </trkpt>
      <trkpt lat="42.98438" lon="1.02822">
        <ele>946</ele>
        <time>2025-09-20T09:54:14.000Z</time>
      </trkpt>
      <trkpt lat="42.98438" lon="1.02825">
        <ele>946</ele>
        <time>2025-09-20T09:54:15.000Z</time>
      </trkpt>
      <trkpt lat="42.98438" lon="1.02829">
        <ele>946</ele>
        <time>2025-09-20T09:54:16.000Z</time>
      </trkpt>
      <trkpt lat="42.98438" lon="1.02833">
        <ele>947</ele>
        <time>2025-09-20T09:54:17.000Z</time>
      </trkpt>
      <trkpt lat="42.98438" lon="1.02836">
        <ele>947</ele>
        <time>2025-09-20T09:54:18.000Z</time>
      </trkpt>
      <trkpt lat="42.98438" lon="1.02839">
        <ele>947</ele>
        <time>2025-09-20T09:54:19.000Z</time>
      </trkpt>
      <trkpt lat="42.98438" lon="1.02842">
        <ele>946</ele>
        <time>2025-09-20T09:54:20.000Z</time>
      </trkpt>
      <trkpt lat="42.98438" lon="1.02846">
        <ele>946</ele>
        <time>2025-09-20T09:54:21.000Z</time>
      </trkpt>
      <trkpt lat="42.98438" lon="1.02849">
        <ele>946</ele>
        <time>2025-09-20T09:54:22.000Z</time>
      </trkpt>
      <trkpt lat="42.98438" lon="1.02853">
        <ele>946</ele>
        <time>2025-09-20T09:54:23.000Z</time>
      </trkpt>
      <trkpt lat="42.98439" lon="1.02856">
        <ele>946</ele>
        <time>2025-09-20T09:54:24.000Z</time>
      </trkpt>
      <trkpt lat="42.98439" lon="1.0286">
        <ele>946</ele>
        <time>2025-09-20T09:54:25.000Z</time>
      </trkpt>
      <trkpt lat="42.9844" lon="1.02863">
        <ele>946</ele>
        <time>2025-09-20T09:54:26.000Z</time>
      </trkpt>
      <trkpt lat="42.98442" lon="1.02867">
        <ele>947</ele>
        <time>2025-09-20T09:54:27.000Z</time>
      </trkpt>
      <trkpt lat="42.98443" lon="1.02871">
        <ele>947</ele>
        <time>2025-09-20T09:54:28.000Z</time>
      </trkpt>
      <trkpt lat="42.98442" lon="1.02874">
        <ele>948</ele>
        <time>2025-09-20T09:54:29.000Z</time>
      </trkpt>
      <trkpt lat="42.98443" lon="1.02876">
        <ele>948</ele>
        <time>2025-09-20T09:54:30.000Z</time>
      </trkpt>
      <trkpt lat="42.98443" lon="1.02879">
        <ele>949</ele>
        <time>2025-09-20T09:54:31.000Z</time>
      </trkpt>
      <trkpt lat="42.98442" lon="1.0288">
        <ele>949</ele>
        <time>2025-09-20T09:54:32.000Z</time>
      </trkpt>
      <trkpt lat="42.9844" lon="1.02881">
        <ele>950</ele>
        <time>2025-09-20T09:54:33.000Z</time>
      </trkpt>
      <trkpt lat="42.98438" lon="1.0288">
        <ele>949</ele>
        <time>2025-09-20T09:54:34.000Z</time>
      </trkpt>
      <trkpt lat="42.98437" lon="1.02878">
        <ele>949</ele>
        <time>2025-09-20T09:54:35.000Z</time>
      </trkpt>
      <trkpt lat="42.98436" lon="1.02876">
        <ele>949</ele>
        <time>2025-09-20T09:54:36.000Z</time>
      </trkpt>
      <trkpt lat="42.98435" lon="1.02873">
        <ele>949</ele>
        <time>2025-09-20T09:54:37.000Z</time>
      </trkpt>
      <trkpt lat="42.98434" lon="1.02871">
        <ele>949</ele>
        <time>2025-09-20T09:54:38.000Z</time>
      </trkpt>
      <trkpt lat="42.98434" lon="1.02868">
        <ele>949</ele>
        <time>2025-09-20T09:54:39.000Z</time>
      </trkpt>
      <trkpt lat="42.98433" lon="1.02865">
        <ele>949</ele>
        <time>2025-09-20T09:54:40.000Z</time>
      </trkpt>
      <trkpt lat="42.98433" lon="1.02862">
        <ele>950</ele>
        <time>2025-09-20T09:54:41.000Z</time>
      </trkpt>
      <trkpt lat="42.98433" lon="1.0286">
        <ele>950</ele>
        <time>2025-09-20T09:54:42.000Z</time>
      </trkpt>
      <trkpt lat="42.98432" lon="1.02856">
        <ele>950</ele>
        <time>2025-09-20T09:54:43.000Z</time>
      </trkpt>
      <trkpt lat="42.98432" lon="1.02853">
        <ele>950</ele>
        <time>2025-09-20T09:54:44.000Z</time>
      </trkpt>
      <trkpt lat="42.98431" lon="1.0285">
        <ele>951</ele>
        <time>2025-09-20T09:54:45.000Z</time>
      </trkpt>
      <trkpt lat="42.98431" lon="1.02847">
        <ele>951</ele>
        <time>2025-09-20T09:54:46.000Z</time>
      </trkpt>
      <trkpt lat="42.98431" lon="1.02844">
        <ele>951</ele>
        <time>2025-09-20T09:54:47.000Z</time>
      </trkpt>
      <trkpt lat="42.9843" lon="1.02842">
        <ele>951</ele>
        <time>2025-09-20T09:54:48.000Z</time>
      </trkpt>
      <trkpt lat="42.9843" lon="1.02839">
        <ele>952</ele>
        <time>2025-09-20T09:54:49.000Z</time>
      </trkpt>
      <trkpt lat="42.98429" lon="1.02837">
        <ele>952</ele>
        <time>2025-09-20T09:54:50.000Z</time>
      </trkpt>
      <trkpt lat="42.98429" lon="1.02836">
        <ele>952</ele>
        <time>2025-09-20T09:54:51.000Z</time>
      </trkpt>
      <trkpt lat="42.98429" lon="1.02835">
        <ele>952</ele>
        <time>2025-09-20T09:54:52.000Z</time>
      </trkpt>
      <trkpt lat="42.98428" lon="1.02835">
        <ele>952</ele>
        <time>2025-09-20T09:54:53.000Z</time>
      </trkpt>
      <trkpt lat="42.98428" lon="1.02836">
        <ele>952</ele>
        <time>2025-09-20T09:54:54.000Z</time>
      </trkpt>
      <trkpt lat="42.98427" lon="1.02834">
        <ele>953</ele>
        <time>2025-09-20T09:57:33.000Z</time>
      </trkpt>
      <trkpt lat="42.98428" lon="1.02832">
        <ele>953</ele>
        <time>2025-09-20T09:57:34.000Z</time>
      </trkpt>
      <trkpt lat="42.98428" lon="1.02831">
        <ele>955</ele>
        <time>2025-09-20T09:57:35.000Z</time>
      </trkpt>
      <trkpt lat="42.98428" lon="1.0283">
        <ele>955</ele>
        <time>2025-09-20T09:57:36.000Z</time>
      </trkpt>
      <trkpt lat="42.98428" lon="1.02829">
        <ele>955</ele>
        <time>2025-09-20T09:57:37.000Z</time>
      </trkpt>
      <trkpt lat="42.98428" lon="1.02826">
        <ele>955</ele>
        <time>2025-09-20T09:57:38.000Z</time>
      </trkpt>
      <trkpt lat="42.98427" lon="1.02823">
        <ele>956</ele>
        <time>2025-09-20T09:57:39.000Z</time>
      </trkpt>
      <trkpt lat="42.98427" lon="1.0282">
        <ele>956</ele>
        <time>2025-09-20T09:57:40.000Z</time>
      </trkpt>
      <trkpt lat="42.98426" lon="1.02817">
        <ele>956</ele>
        <time>2025-09-20T09:57:41.000Z</time>
      </trkpt>
      <trkpt lat="42.98425" lon="1.02814">
        <ele>956</ele>
        <time>2025-09-20T09:57:42.000Z</time>
      </trkpt>
      <trkpt lat="42.98424" lon="1.02812">
        <ele>956</ele>
        <time>2025-09-20T09:57:43.000Z</time>
      </trkpt>
      <trkpt lat="42.98424" lon="1.02808">
        <ele>956</ele>
        <time>2025-09-20T09:57:44.000Z</time>
      </trkpt>
      <trkpt lat="42.98423" lon="1.02805">
        <ele>957</ele>
        <time>2025-09-20T09:57:45.000Z</time>
      </trkpt>
      <trkpt lat="42.98422" lon="1.02802">
        <ele>957</ele>
        <time>2025-09-20T09:57:46.000Z</time>
      </trkpt>
      <trkpt lat="42.98422" lon="1.02799">
        <ele>957</ele>
        <time>2025-09-20T09:57:47.000Z</time>
      </trkpt>
      <trkpt lat="42.98421" lon="1.02796">
        <ele>957</ele>
        <time>2025-09-20T09:57:48.000Z</time>
      </trkpt>
      <trkpt lat="42.9842" lon="1.02792">
        <ele>957</ele>
        <time>2025-09-20T09:57:49.000Z</time>
      </trkpt>
      <trkpt lat="42.98419" lon="1.02789">
        <ele>957</ele>
        <time>2025-09-20T09:57:50.000Z</time>
      </trkpt>
      <trkpt lat="42.98418" lon="1.02785">
        <ele>958</ele>
        <time>2025-09-20T09:57:51.000Z</time>
      </trkpt>
      <trkpt lat="42.98418" lon="1.02782">
        <ele>958</ele>
        <time>2025-09-20T09:57:52.000Z</time>
      </trkpt>
      <trkpt lat="42.98417" lon="1.02779">
        <ele>959</ele>
        <time>2025-09-20T09:57:53.000Z</time>
      </trkpt>
      <trkpt lat="42.98417" lon="1.02776">
        <ele>960</ele>
        <time>2025-09-20T09:57:54.000Z</time>
      </trkpt>
      <trkpt lat="42.98416" lon="1.02773">
        <ele>961</ele>
        <time>2025-09-20T09:57:55.000Z</time>
      </trkpt>
      <trkpt lat="42.98415" lon="1.02769">
        <ele>961</ele>
        <time>2025-09-20T09:57:56.000Z</time>
      </trkpt>
      <trkpt lat="42.98415" lon="1.02765">
        <ele>960</ele>
        <time>2025-09-20T09:57:57.000Z</time>
      </trkpt>
      <trkpt lat="42.98414" lon="1.02761">
        <ele>960</ele>
        <time>2025-09-20T09:57:58.000Z</time>
      </trkpt>
      <trkpt lat="42.98413" lon="1.02757">
        <ele>960</ele>
        <time>2025-09-20T09:57:59.000Z</time>
      </trkpt>
      <trkpt lat="42.98413" lon="1.02753">
        <ele>961</ele>
        <time>2025-09-20T09:58:00.000Z</time>
      </trkpt>
      <trkpt lat="42.98412" lon="1.02749">
        <ele>961</ele>
        <time>2025-09-20T09:58:01.000Z</time>
      </trkpt>
      <trkpt lat="42.98411" lon="1.02745">
        <ele>960</ele>
        <time>2025-09-20T09:58:02.000Z</time>
      </trkpt>
      <trkpt lat="42.98411" lon="1.02741">
        <ele>961</ele>
        <time>2025-09-20T09:58:03.000Z</time>
      </trkpt>
      <trkpt lat="42.98411" lon="1.02737">
        <ele>961</ele>
        <time>2025-09-20T09:58:04.000Z</time>
      </trkpt>
      <trkpt lat="42.9841" lon="1.02734">
        <ele>961</ele>
        <time>2025-09-20T09:58:05.000Z</time>
      </trkpt>
      <trkpt lat="42.9841" lon="1.0273">
        <ele>961</ele>
        <time>2025-09-20T09:58:06.000Z</time>
      </trkpt>
      <trkpt lat="42.9841" lon="1.02726">
        <ele>962</ele>
        <time>2025-09-20T09:58:07.000Z</time>
      </trkpt>
      <trkpt lat="42.9841" lon="1.02723">
        <ele>962</ele>
        <time>2025-09-20T09:58:08.000Z</time>
      </trkpt>
      <trkpt lat="42.98409" lon="1.02719">
        <ele>963</ele>
        <time>2025-09-20T09:58:09.000Z</time>
      </trkpt>
      <trkpt lat="42.98409" lon="1.02716">
        <ele>964</ele>
        <time>2025-09-20T09:58:10.000Z</time>
      </trkpt>
      <trkpt lat="42.98408" lon="1.02712">
        <ele>963</ele>
        <time>2025-09-20T09:58:11.000Z</time>
      </trkpt>
      <trkpt lat="42.98407" lon="1.02708">
        <ele>964</ele>
        <time>2025-09-20T09:58:12.000Z</time>
      </trkpt>
      <trkpt lat="42.98406" lon="1.02704">
        <ele>965</ele>
        <time>2025-09-20T09:58:13.000Z</time>
      </trkpt>
      <trkpt lat="42.98406" lon="1.02701">
        <ele>966</ele>
        <time>2025-09-20T09:58:14.000Z</time>
      </trkpt>
      <trkpt lat="42.98405" lon="1.02698">
        <ele>967</ele>
        <time>2025-09-20T09:58:15.000Z</time>
      </trkpt>
      <trkpt lat="42.98404" lon="1.02694">
        <ele>967</ele>
        <time>2025-09-20T09:58:16.000Z</time>
      </trkpt>
      <trkpt lat="42.98403" lon="1.0269">
        <ele>967</ele>
        <time>2025-09-20T09:58:17.000Z</time>
      </trkpt>
      <trkpt lat="42.98402" lon="1.02687">
        <ele>967</ele>
        <time>2025-09-20T09:58:18.000Z</time>
      </trkpt>
      <trkpt lat="42.98401" lon="1.02684">
        <ele>967</ele>
        <time>2025-09-20T09:58:19.000Z</time>
      </trkpt>
      <trkpt lat="42.984" lon="1.0268">
        <ele>968</ele>
        <time>2025-09-20T09:58:20.000Z</time>
      </trkpt>
      <trkpt lat="42.98398" lon="1.02677">
        <ele>968</ele>
        <time>2025-09-20T09:58:21.000Z</time>
      </trkpt>
      <trkpt lat="42.98397" lon="1.02674">
        <ele>968</ele>
        <time>2025-09-20T09:58:22.000Z</time>
      </trkpt>
      <trkpt lat="42.98396" lon="1.02671">
        <ele>969</ele>
        <time>2025-09-20T09:58:23.000Z</time>
      </trkpt>
      <trkpt lat="42.98394" lon="1.02669">
        <ele>969</ele>
        <time>2025-09-20T09:58:24.000Z</time>
      </trkpt>
      <trkpt lat="42.98393" lon="1.02667">
        <ele>969</ele>
        <time>2025-09-20T09:58:25.000Z</time>
      </trkpt>
      <trkpt lat="42.98392" lon="1.02664">
        <ele>969</ele>
        <time>2025-09-20T09:58:26.000Z</time>
      </trkpt>
      <trkpt lat="42.98391" lon="1.0266">
        <ele>969</ele>
        <time>2025-09-20T09:58:27.000Z</time>
      </trkpt>
      <trkpt lat="42.98389" lon="1.02657">
        <ele>969</ele>
        <time>2025-09-20T09:58:28.000Z</time>
      </trkpt>
      <trkpt lat="42.98387" lon="1.02653">
        <ele>969</ele>
        <time>2025-09-20T09:58:29.000Z</time>
      </trkpt>
      <trkpt lat="42.98386" lon="1.0265">
        <ele>970</ele>
        <time>2025-09-20T09:58:30.000Z</time>
      </trkpt>
      <trkpt lat="42.98384" lon="1.02647">
        <ele>970</ele>
        <time>2025-09-20T09:58:31.000Z</time>
      </trkpt>
      <trkpt lat="42.98383" lon="1.02644">
        <ele>971</ele>
        <time>2025-09-20T09:58:32.000Z</time>
      </trkpt>
      <trkpt lat="42.98381" lon="1.02641">
        <ele>971</ele>
        <time>2025-09-20T09:58:33.000Z</time>
      </trkpt>
      <trkpt lat="42.9838" lon="1.02638">
        <ele>971</ele>
        <time>2025-09-20T09:58:34.000Z</time>
      </trkpt>
      <trkpt lat="42.98378" lon="1.02635">
        <ele>972</ele>
        <time>2025-09-20T09:58:35.000Z</time>
      </trkpt>
      <trkpt lat="42.98377" lon="1.02632">
        <ele>972</ele>
        <time>2025-09-20T09:58:36.000Z</time>
      </trkpt>
      <trkpt lat="42.98377" lon="1.02628">
        <ele>972</ele>
        <time>2025-09-20T09:58:37.000Z</time>
      </trkpt>
      <trkpt lat="42.98375" lon="1.02625">
        <ele>972</ele>
        <time>2025-09-20T09:58:38.000Z</time>
      </trkpt>
      <trkpt lat="42.98374" lon="1.02622">
        <ele>972</ele>
        <time>2025-09-20T09:58:39.000Z</time>
      </trkpt>
      <trkpt lat="42.98373" lon="1.02619">
        <ele>972</ele>
        <time>2025-09-20T09:58:40.000Z</time>
      </trkpt>
      <trkpt lat="42.98372" lon="1.02616">
        <ele>972</ele>
        <time>2025-09-20T09:58:41.000Z</time>
      </trkpt>
      <trkpt lat="42.98371" lon="1.02614">
        <ele>972</ele>
        <time>2025-09-20T09:58:42.000Z</time>
      </trkpt>
      <trkpt lat="42.98369" lon="1.02611">
        <ele>973</ele>
        <time>2025-09-20T09:58:43.000Z</time>
      </trkpt>
      <trkpt lat="42.98368" lon="1.02608">
        <ele>973</ele>
        <time>2025-09-20T09:58:44.000Z</time>
      </trkpt>
      <trkpt lat="42.98367" lon="1.02604">
        <ele>973</ele>
        <time>2025-09-20T09:58:45.000Z</time>
      </trkpt>
      <trkpt lat="42.98366" lon="1.026">
        <ele>973</ele>
        <time>2025-09-20T09:58:46.000Z</time>
      </trkpt>
      <trkpt lat="42.98366" lon="1.02596">
        <ele>973</ele>
        <time>2025-09-20T09:58:47.000Z</time>
      </trkpt>
      <trkpt lat="42.98365" lon="1.02593">
        <ele>973</ele>
        <time>2025-09-20T09:58:48.000Z</time>
      </trkpt>
      <trkpt lat="42.98364" lon="1.02589">
        <ele>972</ele>
        <time>2025-09-20T09:58:49.000Z</time>
      </trkpt>
      <trkpt lat="42.98364" lon="1.02585">
        <ele>973</ele>
        <time>2025-09-20T09:58:50.000Z</time>
      </trkpt>
      <trkpt lat="42.98362" lon="1.02582">
        <ele>974</ele>
        <time>2025-09-20T09:58:51.000Z</time>
      </trkpt>
      <trkpt lat="42.98362" lon="1.02578">
        <ele>974</ele>
        <time>2025-09-20T09:58:52.000Z</time>
      </trkpt>
      <trkpt lat="42.98361" lon="1.02575">
        <ele>975</ele>
        <time>2025-09-20T09:58:53.000Z</time>
      </trkpt>
      <trkpt lat="42.9836" lon="1.0257">
        <ele>975</ele>
        <time>2025-09-20T09:58:54.000Z</time>
      </trkpt>
      <trkpt lat="42.9836" lon="1.02565">
        <ele>976</ele>
        <time>2025-09-20T09:58:55.000Z</time>
      </trkpt>
      <trkpt lat="42.98359" lon="1.02561">
        <ele>976</ele>
        <time>2025-09-20T09:58:56.000Z</time>
      </trkpt>
      <trkpt lat="42.98358" lon="1.02557">
        <ele>977</ele>
        <time>2025-09-20T09:58:57.000Z</time>
      </trkpt>
      <trkpt lat="42.98358" lon="1.02553">
        <ele>977</ele>
        <time>2025-09-20T09:58:58.000Z</time>
      </trkpt>
      <trkpt lat="42.98357" lon="1.0255">
        <ele>977</ele>
        <time>2025-09-20T09:58:59.000Z</time>
      </trkpt>
      <trkpt lat="42.98356" lon="1.02546">
        <ele>977</ele>
        <time>2025-09-20T09:59:00.000Z</time>
      </trkpt>
      <trkpt lat="42.98356" lon="1.02542">
        <ele>977</ele>
        <time>2025-09-20T09:59:01.000Z</time>
      </trkpt>
      <trkpt lat="42.98355" lon="1.02538">
        <ele>978</ele>
        <time>2025-09-20T09:59:02.000Z</time>
      </trkpt>
      <trkpt lat="42.98355" lon="1.02535">
        <ele>978</ele>
        <time>2025-09-20T09:59:03.000Z</time>
      </trkpt>
      <trkpt lat="42.98355" lon="1.02531">
        <ele>978</ele>
        <time>2025-09-20T09:59:04.000Z</time>
      </trkpt>
      <trkpt lat="42.98355" lon="1.02528">
        <ele>978</ele>
        <time>2025-09-20T09:59:05.000Z</time>
      </trkpt>
      <trkpt lat="42.98357" lon="1.02524">
        <ele>978</ele>
        <time>2025-09-20T09:59:06.000Z</time>
      </trkpt>
      <trkpt lat="42.98358" lon="1.02521">
        <ele>978</ele>
        <time>2025-09-20T09:59:07.000Z</time>
      </trkpt>
      <trkpt lat="42.9836" lon="1.02518">
        <ele>978</ele>
        <time>2025-09-20T09:59:08.000Z</time>
      </trkpt>
      <trkpt lat="42.98363" lon="1.02516">
        <ele>977</ele>
        <time>2025-09-20T09:59:09.000Z</time>
      </trkpt>
      <trkpt lat="42.98365" lon="1.02515">
        <ele>977</ele>
        <time>2025-09-20T09:59:10.000Z</time>
      </trkpt>
      <trkpt lat="42.98368" lon="1.02514">
        <ele>977</ele>
        <time>2025-09-20T09:59:11.000Z</time>
      </trkpt>
      <trkpt lat="42.9837" lon="1.02512">
        <ele>977</ele>
        <time>2025-09-20T09:59:12.000Z</time>
      </trkpt>
      <trkpt lat="42.98372" lon="1.0251">
        <ele>977</ele>
        <time>2025-09-20T09:59:13.000Z</time>
      </trkpt>
      <trkpt lat="42.98375" lon="1.02507">
        <ele>977</ele>
        <time>2025-09-20T09:59:14.000Z</time>
      </trkpt>
      <trkpt lat="42.98378" lon="1.02506">
        <ele>977</ele>
        <time>2025-09-20T09:59:15.000Z</time>
      </trkpt>
      <trkpt lat="42.98382" lon="1.02504">
        <ele>976</ele>
        <time>2025-09-20T09:59:16.000Z</time>
      </trkpt>
      <trkpt lat="42.98385" lon="1.02501">
        <ele>976</ele>
        <time>2025-09-20T09:59:17.000Z</time>
      </trkpt>
      <trkpt lat="42.98387" lon="1.02497">
        <ele>975</ele>
        <time>2025-09-20T09:59:18.000Z</time>
      </trkpt>
      <trkpt lat="42.98389" lon="1.02494">
        <ele>975</ele>
        <time>2025-09-20T09:59:19.000Z</time>
      </trkpt>
      <trkpt lat="42.98391" lon="1.02491">
        <ele>975</ele>
        <time>2025-09-20T09:59:20.000Z</time>
      </trkpt>
      <trkpt lat="42.98392" lon="1.02486">
        <ele>975</ele>
        <time>2025-09-20T09:59:21.000Z</time>
      </trkpt>
      <trkpt lat="42.98392" lon="1.02482">
        <ele>976</ele>
        <time>2025-09-20T09:59:22.000Z</time>
      </trkpt>
      <trkpt lat="42.98393" lon="1.02477">
        <ele>977</ele>
        <time>2025-09-20T09:59:23.000Z</time>
      </trkpt>
      <trkpt lat="42.98394" lon="1.02473">
        <ele>977</ele>
        <time>2025-09-20T09:59:24.000Z</time>
      </trkpt>
      <trkpt lat="42.98395" lon="1.02468">
        <ele>978</ele>
        <time>2025-09-20T09:59:25.000Z</time>
      </trkpt>
      <trkpt lat="42.98396" lon="1.02464">
        <ele>978</ele>
        <time>2025-09-20T09:59:26.000Z</time>
      </trkpt>
      <trkpt lat="42.98396" lon="1.0246">
        <ele>979</ele>
        <time>2025-09-20T09:59:27.000Z</time>
      </trkpt>
      <trkpt lat="42.98397" lon="1.02455">
        <ele>978</ele>
        <time>2025-09-20T09:59:28.000Z</time>
      </trkpt>
      <trkpt lat="42.98398" lon="1.0245">
        <ele>979</ele>
        <time>2025-09-20T09:59:29.000Z</time>
      </trkpt>
      <trkpt lat="42.98399" lon="1.02446">
        <ele>979</ele>
        <time>2025-09-20T09:59:30.000Z</time>
      </trkpt>
      <trkpt lat="42.984" lon="1.02441">
        <ele>979</ele>
        <time>2025-09-20T09:59:31.000Z</time>
      </trkpt>
      <trkpt lat="42.984" lon="1.02437">
        <ele>979</ele>
        <time>2025-09-20T09:59:32.000Z</time>
      </trkpt>
      <trkpt lat="42.98401" lon="1.02433">
        <ele>979</ele>
        <time>2025-09-20T09:59:33.000Z</time>
      </trkpt>
      <trkpt lat="42.98402" lon="1.02427">
        <ele>980</ele>
        <time>2025-09-20T09:59:34.000Z</time>
      </trkpt>
      <trkpt lat="42.98404" lon="1.02422">
        <ele>981</ele>
        <time>2025-09-20T09:59:35.000Z</time>
      </trkpt>
      <trkpt lat="42.98405" lon="1.02416">
        <ele>981</ele>
        <time>2025-09-20T09:59:36.000Z</time>
      </trkpt>
      <trkpt lat="42.98406" lon="1.02412">
        <ele>981</ele>
        <time>2025-09-20T09:59:37.000Z</time>
      </trkpt>
      <trkpt lat="42.98407" lon="1.02408">
        <ele>981</ele>
        <time>2025-09-20T09:59:38.000Z</time>
      </trkpt>
      <trkpt lat="42.98408" lon="1.02404">
        <ele>981</ele>
        <time>2025-09-20T09:59:39.000Z</time>
      </trkpt>
      <trkpt lat="42.98408" lon="1.02399">
        <ele>981</ele>
        <time>2025-09-20T09:59:40.000Z</time>
      </trkpt>
      <trkpt lat="42.98409" lon="1.02394">
        <ele>980</ele>
        <time>2025-09-20T09:59:41.000Z</time>
      </trkpt>
      <trkpt lat="42.9841" lon="1.02389">
        <ele>980</ele>
        <time>2025-09-20T09:59:42.000Z</time>
      </trkpt>
      <trkpt lat="42.98412" lon="1.02385">
        <ele>980</ele>
        <time>2025-09-20T09:59:43.000Z</time>
      </trkpt>
      <trkpt lat="42.98413" lon="1.02379">
        <ele>981</ele>
        <time>2025-09-20T09:59:44.000Z</time>
      </trkpt>
      <trkpt lat="42.98414" lon="1.02374">
        <ele>980</ele>
        <time>2025-09-20T09:59:45.000Z</time>
      </trkpt>
      <trkpt lat="42.98415" lon="1.02369">
        <ele>980</ele>
        <time>2025-09-20T09:59:46.000Z</time>
      </trkpt>
      <trkpt lat="42.98416" lon="1.02364">
        <ele>980</ele>
        <time>2025-09-20T09:59:47.000Z</time>
      </trkpt>
      <trkpt lat="42.98416" lon="1.02359">
        <ele>980</ele>
        <time>2025-09-20T09:59:48.000Z</time>
      </trkpt>
      <trkpt lat="42.98418" lon="1.02353">
        <ele>981</ele>
        <time>2025-09-20T09:59:49.000Z</time>
      </trkpt>
      <trkpt lat="42.98419" lon="1.02348">
        <ele>981</ele>
        <time>2025-09-20T09:59:50.000Z</time>
      </trkpt>
      <trkpt lat="42.9842" lon="1.02343">
        <ele>981</ele>
        <time>2025-09-20T09:59:51.000Z</time>
      </trkpt>
      <trkpt lat="42.98422" lon="1.02338">
        <ele>981</ele>
        <time>2025-09-20T09:59:52.000Z</time>
      </trkpt>
      <trkpt lat="42.98424" lon="1.02333">
        <ele>981</ele>
        <time>2025-09-20T09:59:53.000Z</time>
      </trkpt>
      <trkpt lat="42.98425" lon="1.02328">
        <ele>981</ele>
        <time>2025-09-20T09:59:54.000Z</time>
      </trkpt>
      <trkpt lat="42.98426" lon="1.02324">
        <ele>981</ele>
        <time>2025-09-20T09:59:55.000Z</time>
      </trkpt>
      <trkpt lat="42.98427" lon="1.0232">
        <ele>981</ele>
        <time>2025-09-20T09:59:56.000Z</time>
      </trkpt>
      <trkpt lat="42.98429" lon="1.02315">
        <ele>981</ele>
        <time>2025-09-20T09:59:57.000Z</time>
      </trkpt>
      <trkpt lat="42.9843" lon="1.02309">
        <ele>981</ele>
        <time>2025-09-20T09:59:58.000Z</time>
      </trkpt>
      <trkpt lat="42.98432" lon="1.02303">
        <ele>981</ele>
        <time>2025-09-20T09:59:59.000Z</time>
      </trkpt>
      <trkpt lat="42.98433" lon="1.02297">
        <ele>981</ele>
        <time>2025-09-20T10:00:00.000Z</time>
      </trkpt>
      <trkpt lat="42.98434" lon="1.02292">
        <ele>981</ele>
        <time>2025-09-20T10:00:01.000Z</time>
      </trkpt>
      <trkpt lat="42.98435" lon="1.02286">
        <ele>980</ele>
        <time>2025-09-20T10:00:02.000Z</time>
      </trkpt>
      <trkpt lat="42.98436" lon="1.02281">
        <ele>981</ele>
        <time>2025-09-20T10:00:03.000Z</time>
      </trkpt>
      <trkpt lat="42.98437" lon="1.02276">
        <ele>980</ele>
        <time>2025-09-20T10:00:04.000Z</time>
      </trkpt>
      <trkpt lat="42.98437" lon="1.02271">
        <ele>980</ele>
        <time>2025-09-20T10:00:05.000Z</time>
      </trkpt>
      <trkpt lat="42.98438" lon="1.02266">
        <ele>980</ele>
        <time>2025-09-20T10:00:06.000Z</time>
      </trkpt>
      <trkpt lat="42.98439" lon="1.02261">
        <ele>980</ele>
        <time>2025-09-20T10:00:07.000Z</time>
      </trkpt>
      <trkpt lat="42.9844" lon="1.02256">
        <ele>980</ele>
        <time>2025-09-20T10:00:08.000Z</time>
      </trkpt>
      <trkpt lat="42.98441" lon="1.02251">
        <ele>980</ele>
        <time>2025-09-20T10:00:09.000Z</time>
      </trkpt>
      <trkpt lat="42.98442" lon="1.02246">
        <ele>980</ele>
        <time>2025-09-20T10:00:10.000Z</time>
      </trkpt>
      <trkpt lat="42.98443" lon="1.02242">
        <ele>980</ele>
        <time>2025-09-20T10:00:11.000Z</time>
      </trkpt>
      <trkpt lat="42.98444" lon="1.02238">
        <ele>980</ele>
        <time>2025-09-20T10:00:12.000Z</time>
      </trkpt>
      <trkpt lat="42.98445" lon="1.02233">
        <ele>980</ele>
        <time>2025-09-20T10:00:13.000Z</time>
      </trkpt>
      <trkpt lat="42.98446" lon="1.02228">
        <ele>979</ele>
        <time>2025-09-20T10:00:14.000Z</time>
      </trkpt>
      <trkpt lat="42.98448" lon="1.02223">
        <ele>979</ele>
        <time>2025-09-20T10:00:15.000Z</time>
      </trkpt>
      <trkpt lat="42.98449" lon="1.02217">
        <ele>979</ele>
        <time>2025-09-20T10:00:16.000Z</time>
      </trkpt>
      <trkpt lat="42.9845" lon="1.02212">
        <ele>979</ele>
        <time>2025-09-20T10:00:17.000Z</time>
      </trkpt>
      <trkpt lat="42.98452" lon="1.02206">
        <ele>979</ele>
        <time>2025-09-20T10:00:18.000Z</time>
      </trkpt>
      <trkpt lat="42.98453" lon="1.022">
        <ele>980</ele>
        <time>2025-09-20T10:00:19.000Z</time>
      </trkpt>
      <trkpt lat="42.98454" lon="1.02195">
        <ele>980</ele>
        <time>2025-09-20T10:00:20.000Z</time>
      </trkpt>
      <trkpt lat="42.98455" lon="1.02189">
        <ele>980</ele>
        <time>2025-09-20T10:00:21.000Z</time>
      </trkpt>
      <trkpt lat="42.98457" lon="1.02184">
        <ele>980</ele>
        <time>2025-09-20T10:00:22.000Z</time>
      </trkpt>
      <trkpt lat="42.98458" lon="1.02179">
        <ele>980</ele>
        <time>2025-09-20T10:00:23.000Z</time>
      </trkpt>
      <trkpt lat="42.98459" lon="1.02173">
        <ele>980</ele>
        <time>2025-09-20T10:00:24.000Z</time>
      </trkpt>
      <trkpt lat="42.9846" lon="1.02168">
        <ele>979</ele>
        <time>2025-09-20T10:00:25.000Z</time>
      </trkpt>
      <trkpt lat="42.98461" lon="1.02163">
        <ele>978</ele>
        <time>2025-09-20T10:00:26.000Z</time>
      </trkpt>
      <trkpt lat="42.98462" lon="1.02157">
        <ele>978</ele>
        <time>2025-09-20T10:00:27.000Z</time>
      </trkpt>
      <trkpt lat="42.98464" lon="1.02151">
        <ele>978</ele>
        <time>2025-09-20T10:00:28.000Z</time>
      </trkpt>
      <trkpt lat="42.98465" lon="1.02145">
        <ele>977</ele>
        <time>2025-09-20T10:00:29.000Z</time>
      </trkpt>
      <trkpt lat="42.98466" lon="1.02138">
        <ele>977</ele>
        <time>2025-09-20T10:00:30.000Z</time>
      </trkpt>
      <trkpt lat="42.98468" lon="1.02132">
        <ele>977</ele>
        <time>2025-09-20T10:00:31.000Z</time>
      </trkpt>
      <trkpt lat="42.9847" lon="1.02125">
        <ele>977</ele>
        <time>2025-09-20T10:00:32.000Z</time>
      </trkpt>
      <trkpt lat="42.98472" lon="1.02118">
        <ele>977</ele>
        <time>2025-09-20T10:00:33.000Z</time>
      </trkpt>
      <trkpt lat="42.98473" lon="1.02111">
        <ele>977</ele>
        <time>2025-09-20T10:00:34.000Z</time>
      </trkpt>
      <trkpt lat="42.98474" lon="1.02103">
        <ele>977</ele>
        <time>2025-09-20T10:00:35.000Z</time>
      </trkpt>
      <trkpt lat="42.98475" lon="1.02094">
        <ele>977</ele>
        <time>2025-09-20T10:00:36.000Z</time>
      </trkpt>
      <trkpt lat="42.98475" lon="1.02087">
        <ele>976</ele>
        <time>2025-09-20T10:00:37.000Z</time>
      </trkpt>
      <trkpt lat="42.98473" lon="1.02079">
        <ele>975</ele>
        <time>2025-09-20T10:00:38.000Z</time>
      </trkpt>
      <trkpt lat="42.98471" lon="1.0207">
        <ele>975</ele>
        <time>2025-09-20T10:00:39.000Z</time>
      </trkpt>
      <trkpt lat="42.98468" lon="1.02061">
        <ele>975</ele>
        <time>2025-09-20T10:00:40.000Z</time>
      </trkpt>
      <trkpt lat="42.98464" lon="1.02051">
        <ele>975</ele>
        <time>2025-09-20T10:00:41.000Z</time>
      </trkpt>
      <trkpt lat="42.98461" lon="1.02042">
        <ele>975</ele>
        <time>2025-09-20T10:00:42.000Z</time>
      </trkpt>
      <trkpt lat="42.98458" lon="1.02031">
        <ele>974</ele>
        <time>2025-09-20T10:00:43.000Z</time>
      </trkpt>
      <trkpt lat="42.98457" lon="1.02021">
        <ele>973</ele>
        <time>2025-09-20T10:00:44.000Z</time>
      </trkpt>
      <trkpt lat="42.98455" lon="1.02012">
        <ele>973</ele>
        <time>2025-09-20T10:00:45.000Z</time>
      </trkpt>
      <trkpt lat="42.98452" lon="1.02004">
        <ele>972</ele>
        <time>2025-09-20T10:00:46.000Z</time>
      </trkpt>
      <trkpt lat="42.98448" lon="1.01997">
        <ele>971</ele>
        <time>2025-09-20T10:00:47.000Z</time>
      </trkpt>
      <trkpt lat="42.98443" lon="1.01989">
        <ele>970</ele>
        <time>2025-09-20T10:00:48.000Z</time>
      </trkpt>
      <trkpt lat="42.98438" lon="1.01981">
        <ele>969</ele>
        <time>2025-09-20T10:00:49.000Z</time>
      </trkpt>
      <trkpt lat="42.98432" lon="1.01972">
        <ele>969</ele>
        <time>2025-09-20T10:00:50.000Z</time>
      </trkpt>
      <trkpt lat="42.98427" lon="1.01964">
        <ele>968</ele>
        <time>2025-09-20T10:00:51.000Z</time>
      </trkpt>
      <trkpt lat="42.98424" lon="1.01954">
        <ele>968</ele>
        <time>2025-09-20T10:00:52.000Z</time>
      </trkpt>
      <trkpt lat="42.98424" lon="1.01943">
        <ele>968</ele>
        <time>2025-09-20T10:00:53.000Z</time>
      </trkpt>
      <trkpt lat="42.98425" lon="1.01931">
        <ele>967</ele>
        <time>2025-09-20T10:00:54.000Z</time>
      </trkpt>
      <trkpt lat="42.98427" lon="1.01918">
        <ele>967</ele>
        <time>2025-09-20T10:00:55.000Z</time>
      </trkpt>
      <trkpt lat="42.9843" lon="1.01906">
        <ele>967</ele>
        <time>2025-09-20T10:00:56.000Z</time>
      </trkpt>
      <trkpt lat="42.98432" lon="1.01893">
        <ele>966</ele>
        <time>2025-09-20T10:00:57.000Z</time>
      </trkpt>
      <trkpt lat="42.98433" lon="1.01882">
        <ele>965</ele>
        <time>2025-09-20T10:00:58.000Z</time>
      </trkpt>
      <trkpt lat="42.98435" lon="1.01871">
        <ele>964</ele>
        <time>2025-09-20T10:00:59.000Z</time>
      </trkpt>
      <trkpt lat="42.98437" lon="1.01861">
        <ele>963</ele>
        <time>2025-09-20T10:01:00.000Z</time>
      </trkpt>
      <trkpt lat="42.98441" lon="1.01851">
        <ele>963</ele>
        <time>2025-09-20T10:01:01.000Z</time>
      </trkpt>
      <trkpt lat="42.98444" lon="1.01843">
        <ele>962</ele>
        <time>2025-09-20T10:01:02.000Z</time>
      </trkpt>
      <trkpt lat="42.98447" lon="1.01833">
        <ele>962</ele>
        <time>2025-09-20T10:01:03.000Z</time>
      </trkpt>
      <trkpt lat="42.9845" lon="1.01824">
        <ele>961</ele>
        <time>2025-09-20T10:01:04.000Z</time>
      </trkpt>
      <trkpt lat="42.98453" lon="1.01815">
        <ele>961</ele>
        <time>2025-09-20T10:01:05.000Z</time>
      </trkpt>
      <trkpt lat="42.98454" lon="1.01805">
        <ele>961</ele>
        <time>2025-09-20T10:01:06.000Z</time>
      </trkpt>
      <trkpt lat="42.98458" lon="1.01796">
        <ele>961</ele>
        <time>2025-09-20T10:01:07.000Z</time>
      </trkpt>
      <trkpt lat="42.98462" lon="1.01789">
        <ele>962</ele>
        <time>2025-09-20T10:01:08.000Z</time>
      </trkpt>
      <trkpt lat="42.98466" lon="1.01782">
        <ele>962</ele>
        <time>2025-09-20T10:01:09.000Z</time>
      </trkpt>
      <trkpt lat="42.98471" lon="1.01776">
        <ele>962</ele>
        <time>2025-09-20T10:01:10.000Z</time>
      </trkpt>
      <trkpt lat="42.98475" lon="1.01771">
        <ele>963</ele>
        <time>2025-09-20T10:01:11.000Z</time>
      </trkpt>
      <trkpt lat="42.98479" lon="1.01764">
        <ele>962</ele>
        <time>2025-09-20T10:01:12.000Z</time>
      </trkpt>
      <trkpt lat="42.98481" lon="1.01758">
        <ele>962</ele>
        <time>2025-09-20T10:01:13.000Z</time>
      </trkpt>
      <trkpt lat="42.98482" lon="1.0175">
        <ele>961</ele>
        <time>2025-09-20T10:01:14.000Z</time>
      </trkpt>
      <trkpt lat="42.98482" lon="1.01742">
        <ele>961</ele>
        <time>2025-09-20T10:01:15.000Z</time>
      </trkpt>
      <trkpt lat="42.98481" lon="1.01734">
        <ele>962</ele>
        <time>2025-09-20T10:01:16.000Z</time>
      </trkpt>
      <trkpt lat="42.9848" lon="1.01726">
        <ele>962</ele>
        <time>2025-09-20T10:01:17.000Z</time>
      </trkpt>
      <trkpt lat="42.98479" lon="1.0172">
        <ele>963</ele>
        <time>2025-09-20T10:01:18.000Z</time>
      </trkpt>
      <trkpt lat="42.98478" lon="1.01716">
        <ele>964</ele>
        <time>2025-09-20T10:01:19.000Z</time>
      </trkpt>
      <trkpt lat="42.98477" lon="1.01711">
        <ele>964</ele>
        <time>2025-09-20T10:01:20.000Z</time>
      </trkpt>
      <trkpt lat="42.98475" lon="1.01707">
        <ele>964</ele>
        <time>2025-09-20T10:01:21.000Z</time>
      </trkpt>
      <trkpt lat="42.98474" lon="1.01702">
        <ele>964</ele>
        <time>2025-09-20T10:01:22.000Z</time>
      </trkpt>
      <trkpt lat="42.98472" lon="1.01698">
        <ele>963</ele>
        <time>2025-09-20T10:01:23.000Z</time>
      </trkpt>
      <trkpt lat="42.98471" lon="1.01693">
        <ele>963</ele>
        <time>2025-09-20T10:01:24.000Z</time>
      </trkpt>
      <trkpt lat="42.9847" lon="1.01688">
        <ele>964</ele>
        <time>2025-09-20T10:01:25.000Z</time>
      </trkpt>
      <trkpt lat="42.98468" lon="1.01684">
        <ele>964</ele>
        <time>2025-09-20T10:01:26.000Z</time>
      </trkpt>
      <trkpt lat="42.98467" lon="1.0168">
        <ele>964</ele>
        <time>2025-09-20T10:01:27.000Z</time>
      </trkpt>
      <trkpt lat="42.98465" lon="1.01675">
        <ele>965</ele>
        <time>2025-09-20T10:01:28.000Z</time>
      </trkpt>
      <trkpt lat="42.98464" lon="1.01671">
        <ele>965</ele>
        <time>2025-09-20T10:01:29.000Z</time>
      </trkpt>
      <trkpt lat="42.98462" lon="1.01666">
        <ele>965</ele>
        <time>2025-09-20T10:01:30.000Z</time>
      </trkpt>
      <trkpt lat="42.98461" lon="1.01662">
        <ele>966</ele>
        <time>2025-09-20T10:01:31.000Z</time>
      </trkpt>
      <trkpt lat="42.98459" lon="1.01658">
        <ele>966</ele>
        <time>2025-09-20T10:01:32.000Z</time>
      </trkpt>
      <trkpt lat="42.98458" lon="1.01654">
        <ele>966</ele>
        <time>2025-09-20T10:01:33.000Z</time>
      </trkpt>
      <trkpt lat="42.98457" lon="1.0165">
        <ele>966</ele>
        <time>2025-09-20T10:01:34.000Z</time>
      </trkpt>
      <trkpt lat="42.98456" lon="1.01646">
        <ele>966</ele>
        <time>2025-09-20T10:01:35.000Z</time>
      </trkpt>
      <trkpt lat="42.98455" lon="1.01642">
        <ele>966</ele>
        <time>2025-09-20T10:01:36.000Z</time>
      </trkpt>
      <trkpt lat="42.98454" lon="1.01637">
        <ele>966</ele>
        <time>2025-09-20T10:01:37.000Z</time>
      </trkpt>
      <trkpt lat="42.98453" lon="1.01633">
        <ele>966</ele>
        <time>2025-09-20T10:01:38.000Z</time>
      </trkpt>
      <trkpt lat="42.98452" lon="1.0163">
        <ele>967</ele>
        <time>2025-09-20T10:01:39.000Z</time>
      </trkpt>
      <trkpt lat="42.98452" lon="1.01626">
        <ele>967</ele>
        <time>2025-09-20T10:01:40.000Z</time>
      </trkpt>
      <trkpt lat="42.9845" lon="1.01622">
        <ele>967</ele>
        <time>2025-09-20T10:01:41.000Z</time>
      </trkpt>
      <trkpt lat="42.9845" lon="1.01618">
        <ele>966</ele>
        <time>2025-09-20T10:01:42.000Z</time>
      </trkpt>
      <trkpt lat="42.98449" lon="1.01614">
        <ele>967</ele>
        <time>2025-09-20T10:01:43.000Z</time>
      </trkpt>
      <trkpt lat="42.98448" lon="1.01611">
        <ele>968</ele>
        <time>2025-09-20T10:01:44.000Z</time>
      </trkpt>
      <trkpt lat="42.98447" lon="1.01607">
        <ele>968</ele>
        <time>2025-09-20T10:01:45.000Z</time>
      </trkpt>
      <trkpt lat="42.98446" lon="1.01603">
        <ele>968</ele>
        <time>2025-09-20T10:01:46.000Z</time>
      </trkpt>
      <trkpt lat="42.98444" lon="1.01598">
        <ele>969</ele>
        <time>2025-09-20T10:01:47.000Z</time>
      </trkpt>
      <trkpt lat="42.98443" lon="1.01594">
        <ele>969</ele>
        <time>2025-09-20T10:01:48.000Z</time>
      </trkpt>
      <trkpt lat="42.9844" lon="1.01591">
        <ele>969</ele>
        <time>2025-09-20T10:01:49.000Z</time>
      </trkpt>
      <trkpt lat="42.98439" lon="1.01587">
        <ele>970</ele>
        <time>2025-09-20T10:01:50.000Z</time>
      </trkpt>
      <trkpt lat="42.98437" lon="1.01584">
        <ele>970</ele>
        <time>2025-09-20T10:01:51.000Z</time>
      </trkpt>
      <trkpt lat="42.98435" lon="1.01581">
        <ele>970</ele>
        <time>2025-09-20T10:01:52.000Z</time>
      </trkpt>
      <trkpt lat="42.98433" lon="1.01578">
        <ele>971</ele>
        <time>2025-09-20T10:01:53.000Z</time>
      </trkpt>
      <trkpt lat="42.98431" lon="1.01575">
        <ele>971</ele>
        <time>2025-09-20T10:01:54.000Z</time>
      </trkpt>
      <trkpt lat="42.9843" lon="1.01571">
        <ele>971</ele>
        <time>2025-09-20T10:01:55.000Z</time>
      </trkpt>
      <trkpt lat="42.98428" lon="1.01568">
        <ele>972</ele>
        <time>2025-09-20T10:01:56.000Z</time>
      </trkpt>
      <trkpt lat="42.98427" lon="1.01563">
        <ele>972</ele>
        <time>2025-09-20T10:01:57.000Z</time>
      </trkpt>
      <trkpt lat="42.98425" lon="1.0156">
        <ele>972</ele>
        <time>2025-09-20T10:01:58.000Z</time>
      </trkpt>
      <trkpt lat="42.98424" lon="1.01556">
        <ele>973</ele>
        <time>2025-09-20T10:01:59.000Z</time>
      </trkpt>
      <trkpt lat="42.98422" lon="1.01552">
        <ele>973</ele>
        <time>2025-09-20T10:02:00.000Z</time>
      </trkpt>
      <trkpt lat="42.98421" lon="1.01549">
        <ele>973</ele>
        <time>2025-09-20T10:02:01.000Z</time>
      </trkpt>
      <trkpt lat="42.98419" lon="1.01545">
        <ele>974</ele>
        <time>2025-09-20T10:02:02.000Z</time>
      </trkpt>
      <trkpt lat="42.98418" lon="1.01542">
        <ele>974</ele>
        <time>2025-09-20T10:02:03.000Z</time>
      </trkpt>
      <trkpt lat="42.98416" lon="1.01539">
        <ele>974</ele>
        <time>2025-09-20T10:02:04.000Z</time>
      </trkpt>
      <trkpt lat="42.98415" lon="1.01536">
        <ele>974</ele>
        <time>2025-09-20T10:02:05.000Z</time>
      </trkpt>
      <trkpt lat="42.98413" lon="1.01533">
        <ele>975</ele>
        <time>2025-09-20T10:02:06.000Z</time>
      </trkpt>
      <trkpt lat="42.98411" lon="1.01529">
        <ele>975</ele>
        <time>2025-09-20T10:02:07.000Z</time>
      </trkpt>
      <trkpt lat="42.98409" lon="1.01526">
        <ele>975</ele>
        <time>2025-09-20T10:02:08.000Z</time>
      </trkpt>
      <trkpt lat="42.98408" lon="1.01523">
        <ele>975</ele>
        <time>2025-09-20T10:02:09.000Z</time>
      </trkpt>
      <trkpt lat="42.98407" lon="1.01519">
        <ele>975</ele>
        <time>2025-09-20T10:02:10.000Z</time>
      </trkpt>
      <trkpt lat="42.98405" lon="1.01515">
        <ele>975</ele>
        <time>2025-09-20T10:02:11.000Z</time>
      </trkpt>
      <trkpt lat="42.98403" lon="1.01512">
        <ele>976</ele>
        <time>2025-09-20T10:02:12.000Z</time>
      </trkpt>
      <trkpt lat="42.98401" lon="1.01508">
        <ele>976</ele>
        <time>2025-09-20T10:02:13.000Z</time>
      </trkpt>
      <trkpt lat="42.984" lon="1.01505">
        <ele>976</ele>
        <time>2025-09-20T10:02:14.000Z</time>
      </trkpt>
      <trkpt lat="42.98398" lon="1.01502">
        <ele>976</ele>
        <time>2025-09-20T10:02:15.000Z</time>
      </trkpt>
      <trkpt lat="42.98397" lon="1.01499">
        <ele>976</ele>
        <time>2025-09-20T10:02:16.000Z</time>
      </trkpt>
      <trkpt lat="42.98395" lon="1.01496">
        <ele>977</ele>
        <time>2025-09-20T10:02:17.000Z</time>
      </trkpt>
      <trkpt lat="42.98393" lon="1.01492">
        <ele>977</ele>
        <time>2025-09-20T10:02:18.000Z</time>
      </trkpt>
      <trkpt lat="42.98391" lon="1.01488">
        <ele>977</ele>
        <time>2025-09-20T10:02:19.000Z</time>
      </trkpt>
      <trkpt lat="42.98389" lon="1.01484">
        <ele>977</ele>
        <time>2025-09-20T10:02:20.000Z</time>
      </trkpt>
      <trkpt lat="42.98387" lon="1.0148">
        <ele>978</ele>
        <time>2025-09-20T10:02:21.000Z</time>
      </trkpt>
      <trkpt lat="42.98385" lon="1.01477">
        <ele>978</ele>
        <time>2025-09-20T10:02:22.000Z</time>
      </trkpt>
      <trkpt lat="42.98383" lon="1.01473">
        <ele>978</ele>
        <time>2025-09-20T10:02:23.000Z</time>
      </trkpt>
      <trkpt lat="42.98382" lon="1.01469">
        <ele>978</ele>
        <time>2025-09-20T10:02:24.000Z</time>
      </trkpt>
      <trkpt lat="42.9838" lon="1.01466">
        <ele>978</ele>
        <time>2025-09-20T10:02:25.000Z</time>
      </trkpt>
      <trkpt lat="42.98378" lon="1.01462">
        <ele>979</ele>
        <time>2025-09-20T10:02:26.000Z</time>
      </trkpt>
      <trkpt lat="42.98376" lon="1.01459">
        <ele>979</ele>
        <time>2025-09-20T10:02:27.000Z</time>
      </trkpt>
      <trkpt lat="42.98374" lon="1.01455">
        <ele>979</ele>
        <time>2025-09-20T10:02:28.000Z</time>
      </trkpt>
      <trkpt lat="42.98372" lon="1.01452">
        <ele>980</ele>
        <time>2025-09-20T10:02:29.000Z</time>
      </trkpt>
      <trkpt lat="42.9837" lon="1.01449">
        <ele>981</ele>
        <time>2025-09-20T10:02:30.000Z</time>
      </trkpt>
      <trkpt lat="42.98368" lon="1.01446">
        <ele>981</ele>
        <time>2025-09-20T10:02:31.000Z</time>
      </trkpt>
      <trkpt lat="42.98366" lon="1.01443">
        <ele>981</ele>
        <time>2025-09-20T10:02:32.000Z</time>
      </trkpt>
      <trkpt lat="42.98364" lon="1.0144">
        <ele>982</ele>
        <time>2025-09-20T10:02:33.000Z</time>
      </trkpt>
      <trkpt lat="42.98362" lon="1.01438">
        <ele>981</ele>
        <time>2025-09-20T10:02:34.000Z</time>
      </trkpt>
      <trkpt lat="42.98359" lon="1.01435">
        <ele>981</ele>
        <time>2025-09-20T10:02:35.000Z</time>
      </trkpt>
      <trkpt lat="42.98357" lon="1.01433">
        <ele>981</ele>
        <time>2025-09-20T10:02:36.000Z</time>
      </trkpt>
      <trkpt lat="42.98354" lon="1.0143">
        <ele>981</ele>
        <time>2025-09-20T10:02:37.000Z</time>
      </trkpt>
      <trkpt lat="42.98352" lon="1.01427">
        <ele>981</ele>
        <time>2025-09-20T10:02:38.000Z</time>
      </trkpt>
      <trkpt lat="42.98349" lon="1.01424">
        <ele>982</ele>
        <time>2025-09-20T10:02:39.000Z</time>
      </trkpt>
      <trkpt lat="42.98346" lon="1.01421">
        <ele>981</ele>
        <time>2025-09-20T10:02:40.000Z</time>
      </trkpt>
      <trkpt lat="42.98344" lon="1.01419">
        <ele>981</ele>
        <time>2025-09-20T10:02:41.000Z</time>
      </trkpt>
      <trkpt lat="42.98341" lon="1.01415">
        <ele>982</ele>
        <time>2025-09-20T10:02:42.000Z</time>
      </trkpt>
      <trkpt lat="42.98338" lon="1.01413">
        <ele>983</ele>
        <time>2025-09-20T10:02:43.000Z</time>
      </trkpt>
      <trkpt lat="42.98335" lon="1.0141">
        <ele>984</ele>
        <time>2025-09-20T10:02:44.000Z</time>
      </trkpt>
      <trkpt lat="42.98332" lon="1.01405">
        <ele>986</ele>
        <time>2025-09-20T10:02:45.000Z</time>
      </trkpt>
      <trkpt lat="42.98329" lon="1.01402">
        <ele>987</ele>
        <time>2025-09-20T10:02:46.000Z</time>
      </trkpt>
      <trkpt lat="42.98327" lon="1.014">
        <ele>988</ele>
        <time>2025-09-20T10:02:47.000Z</time>
      </trkpt>
      <trkpt lat="42.98325" lon="1.01398">
        <ele>988</ele>
        <time>2025-09-20T10:02:48.000Z</time>
      </trkpt>
      <trkpt lat="42.98323" lon="1.01395">
        <ele>989</ele>
        <time>2025-09-20T10:02:49.000Z</time>
      </trkpt>
      <trkpt lat="42.98321" lon="1.01394">
        <ele>989</ele>
        <time>2025-09-20T10:02:50.000Z</time>
      </trkpt>
      <trkpt lat="42.98319" lon="1.01391">
        <ele>989</ele>
        <time>2025-09-20T10:02:51.000Z</time>
      </trkpt>
      <trkpt lat="42.98317" lon="1.0139">
        <ele>989</ele>
        <time>2025-09-20T10:02:52.000Z</time>
      </trkpt>
      <trkpt lat="42.98315" lon="1.01388">
        <ele>989</ele>
        <time>2025-09-20T10:02:53.000Z</time>
      </trkpt>
      <trkpt lat="42.98313" lon="1.01386">
        <ele>989</ele>
        <time>2025-09-20T10:02:54.000Z</time>
      </trkpt>
      <trkpt lat="42.9831" lon="1.01384">
        <ele>990</ele>
        <time>2025-09-20T10:02:55.000Z</time>
      </trkpt>
      <trkpt lat="42.98307" lon="1.01383">
        <ele>990</ele>
        <time>2025-09-20T10:02:56.000Z</time>
      </trkpt>
      <trkpt lat="42.98304" lon="1.01382">
        <ele>990</ele>
        <time>2025-09-20T10:02:57.000Z</time>
      </trkpt>
      <trkpt lat="42.98301" lon="1.01381">
        <ele>990</ele>
        <time>2025-09-20T10:02:58.000Z</time>
      </trkpt>
      <trkpt lat="42.98298" lon="1.0138">
        <ele>990</ele>
        <time>2025-09-20T10:02:59.000Z</time>
      </trkpt>
      <trkpt lat="42.98295" lon="1.01379">
        <ele>990</ele>
        <time>2025-09-20T10:03:00.000Z</time>
      </trkpt>
      <trkpt lat="42.98292" lon="1.01378">
        <ele>990</ele>
        <time>2025-09-20T10:03:01.000Z</time>
      </trkpt>
      <trkpt lat="42.98289" lon="1.01378">
        <ele>991</ele>
        <time>2025-09-20T10:03:02.000Z</time>
      </trkpt>
      <trkpt lat="42.98286" lon="1.01378">
        <ele>991</ele>
        <time>2025-09-20T10:03:03.000Z</time>
      </trkpt>
      <trkpt lat="42.98283" lon="1.01378">
        <ele>991</ele>
        <time>2025-09-20T10:03:04.000Z</time>
      </trkpt>
      <trkpt lat="42.9828" lon="1.01379">
        <ele>991</ele>
        <time>2025-09-20T10:03:05.000Z</time>
      </trkpt>
      <trkpt lat="42.98277" lon="1.01378">
        <ele>991</ele>
        <time>2025-09-20T10:03:06.000Z</time>
      </trkpt>
      <trkpt lat="42.98274" lon="1.01378">
        <ele>991</ele>
        <time>2025-09-20T10:03:07.000Z</time>
      </trkpt>
      <trkpt lat="42.98271" lon="1.01377">
        <ele>991</ele>
        <time>2025-09-20T10:03:08.000Z</time>
      </trkpt>
      <trkpt lat="42.98268" lon="1.01377">
        <ele>991</ele>
        <time>2025-09-20T10:03:09.000Z</time>
      </trkpt>
      <trkpt lat="42.98266" lon="1.01378">
        <ele>992</ele>
        <time>2025-09-20T10:03:10.000Z</time>
      </trkpt>
      <trkpt lat="42.98263" lon="1.01378">
        <ele>991</ele>
        <time>2025-09-20T10:03:11.000Z</time>
      </trkpt>
      <trkpt lat="42.9826" lon="1.01379">
        <ele>992</ele>
        <time>2025-09-20T10:03:12.000Z</time>
      </trkpt>
      <trkpt lat="42.98256" lon="1.01379">
        <ele>992</ele>
        <time>2025-09-20T10:03:13.000Z</time>
      </trkpt>
      <trkpt lat="42.98253" lon="1.01379">
        <ele>993</ele>
        <time>2025-09-20T10:03:14.000Z</time>
      </trkpt>
      <trkpt lat="42.9825" lon="1.01379">
        <ele>993</ele>
        <time>2025-09-20T10:03:15.000Z</time>
      </trkpt>
      <trkpt lat="42.98247" lon="1.01381">
        <ele>993</ele>
        <time>2025-09-20T10:03:16.000Z</time>
      </trkpt>
      <trkpt lat="42.98244" lon="1.01381">
        <ele>994</ele>
        <time>2025-09-20T10:03:17.000Z</time>
      </trkpt>
      <trkpt lat="42.98241" lon="1.01383">
        <ele>994</ele>
        <time>2025-09-20T10:03:18.000Z</time>
      </trkpt>
      <trkpt lat="42.98238" lon="1.01385">
        <ele>994</ele>
        <time>2025-09-20T10:03:19.000Z</time>
      </trkpt>
      <trkpt lat="42.98235" lon="1.01386">
        <ele>995</ele>
        <time>2025-09-20T10:03:20.000Z</time>
      </trkpt>
      <trkpt lat="42.98232" lon="1.01388">
        <ele>995</ele>
        <time>2025-09-20T10:03:21.000Z</time>
      </trkpt>
      <trkpt lat="42.9823" lon="1.0139">
        <ele>996</ele>
        <time>2025-09-20T10:03:22.000Z</time>
      </trkpt>
      <trkpt lat="42.98227" lon="1.01392">
        <ele>996</ele>
        <time>2025-09-20T10:03:23.000Z</time>
      </trkpt>
      <trkpt lat="42.98224" lon="1.01394">
        <ele>996</ele>
        <time>2025-09-20T10:03:24.000Z</time>
      </trkpt>
      <trkpt lat="42.98222" lon="1.01396">
        <ele>997</ele>
        <time>2025-09-20T10:03:25.000Z</time>
      </trkpt>
      <trkpt lat="42.98219" lon="1.01399">
        <ele>997</ele>
        <time>2025-09-20T10:03:26.000Z</time>
      </trkpt>
      <trkpt lat="42.98217" lon="1.01401">
        <ele>998</ele>
        <time>2025-09-20T10:03:27.000Z</time>
      </trkpt>
      <trkpt lat="42.98214" lon="1.01404">
        <ele>998</ele>
        <time>2025-09-20T10:03:28.000Z</time>
      </trkpt>
      <trkpt lat="42.98212" lon="1.01405">
        <ele>999</ele>
        <time>2025-09-20T10:03:29.000Z</time>
      </trkpt>
      <trkpt lat="42.9821" lon="1.01406">
        <ele>1000</ele>
        <time>2025-09-20T10:03:30.000Z</time>
      </trkpt>
      <trkpt lat="42.98208" lon="1.01408">
        <ele>1000</ele>
        <time>2025-09-20T10:03:31.000Z</time>
      </trkpt>
      <trkpt lat="42.98206" lon="1.0141">
        <ele>1000</ele>
        <time>2025-09-20T10:03:32.000Z</time>
      </trkpt>
      <trkpt lat="42.98204" lon="1.01411">
        <ele>1001</ele>
        <time>2025-09-20T10:03:33.000Z</time>
      </trkpt>
      <trkpt lat="42.98201" lon="1.01413">
        <ele>1000</ele>
        <time>2025-09-20T10:03:34.000Z</time>
      </trkpt>
      <trkpt lat="42.98199" lon="1.01415">
        <ele>1001</ele>
        <time>2025-09-20T10:03:35.000Z</time>
      </trkpt>
      <trkpt lat="42.98196" lon="1.01418">
        <ele>1001</ele>
        <time>2025-09-20T10:03:36.000Z</time>
      </trkpt>
      <trkpt lat="42.98195" lon="1.01421">
        <ele>1001</ele>
        <time>2025-09-20T10:03:37.000Z</time>
      </trkpt>
      <trkpt lat="42.98192" lon="1.01423">
        <ele>1002</ele>
        <time>2025-09-20T10:03:38.000Z</time>
      </trkpt>
      <trkpt lat="42.98191" lon="1.01426">
        <ele>1001</ele>
        <time>2025-09-20T10:03:39.000Z</time>
      </trkpt>
      <trkpt lat="42.9819" lon="1.01429">
        <ele>1000</ele>
        <time>2025-09-20T10:03:40.000Z</time>
      </trkpt>
      <trkpt lat="42.98189" lon="1.01433">
        <ele>1000</ele>
        <time>2025-09-20T10:03:41.000Z</time>
      </trkpt>
      <trkpt lat="42.98188" lon="1.01437">
        <ele>1001</ele>
        <time>2025-09-20T10:03:42.000Z</time>
      </trkpt>
      <trkpt lat="42.98187" lon="1.01442">
        <ele>1001</ele>
        <time>2025-09-20T10:03:43.000Z</time>
      </trkpt>
      <trkpt lat="42.98186" lon="1.01446">
        <ele>1002</ele>
        <time>2025-09-20T10:03:44.000Z</time>
      </trkpt>
      <trkpt lat="42.98187" lon="1.0145">
        <ele>1002</ele>
        <time>2025-09-20T10:03:45.000Z</time>
      </trkpt>
      <trkpt lat="42.98187" lon="1.01454">
        <ele>1001</ele>
        <time>2025-09-20T10:03:46.000Z</time>
      </trkpt>
      <trkpt lat="42.98188" lon="1.01458">
        <ele>1002</ele>
        <time>2025-09-20T10:03:47.000Z</time>
      </trkpt>
      <trkpt lat="42.98189" lon="1.01462">
        <ele>1002</ele>
        <time>2025-09-20T10:03:48.000Z</time>
      </trkpt>
      <trkpt lat="42.98191" lon="1.01466">
        <ele>1002</ele>
        <time>2025-09-20T10:03:49.000Z</time>
      </trkpt>
      <trkpt lat="42.98192" lon="1.0147">
        <ele>1002</ele>
        <time>2025-09-20T10:03:50.000Z</time>
      </trkpt>
      <trkpt lat="42.98194" lon="1.01473">
        <ele>1002</ele>
        <time>2025-09-20T10:03:51.000Z</time>
      </trkpt>
      <trkpt lat="42.98194" lon="1.01477">
        <ele>1002</ele>
        <time>2025-09-20T10:03:52.000Z</time>
      </trkpt>
      <trkpt lat="42.98195" lon="1.01481">
        <ele>1003</ele>
        <time>2025-09-20T10:03:53.000Z</time>
      </trkpt>
      <trkpt lat="42.98195" lon="1.01484">
        <ele>1003</ele>
        <time>2025-09-20T10:03:54.000Z</time>
      </trkpt>
      <trkpt lat="42.98195" lon="1.01488">
        <ele>1004</ele>
        <time>2025-09-20T10:03:55.000Z</time>
      </trkpt>
      <trkpt lat="42.98195" lon="1.01492">
        <ele>1004</ele>
        <time>2025-09-20T10:03:56.000Z</time>
      </trkpt>
      <trkpt lat="42.98194" lon="1.01496">
        <ele>1004</ele>
        <time>2025-09-20T10:03:57.000Z</time>
      </trkpt>
      <trkpt lat="42.98193" lon="1.015">
        <ele>1004</ele>
        <time>2025-09-20T10:03:58.000Z</time>
      </trkpt>
      <trkpt lat="42.98192" lon="1.01504">
        <ele>1005</ele>
        <time>2025-09-20T10:03:59.000Z</time>
      </trkpt>
      <trkpt lat="42.98189" lon="1.0151">
        <ele>1005</ele>
        <time>2025-09-20T10:04:00.000Z</time>
      </trkpt>
      <trkpt lat="42.98187" lon="1.01513">
        <ele>1007</ele>
        <time>2025-09-20T10:04:01.000Z</time>
      </trkpt>
      <trkpt lat="42.98185" lon="1.01516">
        <ele>1007</ele>
        <time>2025-09-20T10:04:02.000Z</time>
      </trkpt>
      <trkpt lat="42.98183" lon="1.01518">
        <ele>1007</ele>
        <time>2025-09-20T10:04:03.000Z</time>
      </trkpt>
      <trkpt lat="42.98181" lon="1.01522">
        <ele>1008</ele>
        <time>2025-09-20T10:04:04.000Z</time>
      </trkpt>
      <trkpt lat="42.98179" lon="1.01526">
        <ele>1008</ele>
        <time>2025-09-20T10:04:05.000Z</time>
      </trkpt>
      <trkpt lat="42.98178" lon="1.01529">
        <ele>1008</ele>
        <time>2025-09-20T10:04:06.000Z</time>
      </trkpt>
      <trkpt lat="42.98177" lon="1.01533">
        <ele>1010</ele>
        <time>2025-09-20T10:04:07.000Z</time>
      </trkpt>
      <trkpt lat="42.98175" lon="1.01535">
        <ele>1011</ele>
        <time>2025-09-20T10:04:08.000Z</time>
      </trkpt>
      <trkpt lat="42.98174" lon="1.01538">
        <ele>1011</ele>
        <time>2025-09-20T10:04:09.000Z</time>
      </trkpt>
      <trkpt lat="42.98172" lon="1.0154">
        <ele>1011</ele>
        <time>2025-09-20T10:04:10.000Z</time>
      </trkpt>
      <trkpt lat="42.98171" lon="1.01543">
        <ele>1011</ele>
        <time>2025-09-20T10:04:11.000Z</time>
      </trkpt>
      <trkpt lat="42.9817" lon="1.01546">
        <ele>1011</ele>
        <time>2025-09-20T10:04:12.000Z</time>
      </trkpt>
      <trkpt lat="42.98168" lon="1.01548">
        <ele>1011</ele>
        <time>2025-09-20T10:04:13.000Z</time>
      </trkpt>
      <trkpt lat="42.98167" lon="1.01551">
        <ele>1012</ele>
        <time>2025-09-20T10:04:14.000Z</time>
      </trkpt>
      <trkpt lat="42.98166" lon="1.01554">
        <ele>1012</ele>
        <time>2025-09-20T10:04:15.000Z</time>
      </trkpt>
      <trkpt lat="42.98165" lon="1.01558">
        <ele>1013</ele>
        <time>2025-09-20T10:04:16.000Z</time>
      </trkpt>
      <trkpt lat="42.98164" lon="1.01562">
        <ele>1013</ele>
        <time>2025-09-20T10:04:17.000Z</time>
      </trkpt>
      <trkpt lat="42.98163" lon="1.01565">
        <ele>1014</ele>
        <time>2025-09-20T10:04:18.000Z</time>
      </trkpt>
      <trkpt lat="42.98162" lon="1.01568">
        <ele>1015</ele>
        <time>2025-09-20T10:04:19.000Z</time>
      </trkpt>
      <trkpt lat="42.9816" lon="1.01571">
        <ele>1016</ele>
        <time>2025-09-20T10:04:20.000Z</time>
      </trkpt>
      <trkpt lat="42.98159" lon="1.01574">
        <ele>1016</ele>
        <time>2025-09-20T10:04:21.000Z</time>
      </trkpt>
      <trkpt lat="42.98158" lon="1.01577">
        <ele>1015</ele>
        <time>2025-09-20T10:04:22.000Z</time>
      </trkpt>
      <trkpt lat="42.98157" lon="1.01579">
        <ele>1015</ele>
        <time>2025-09-20T10:04:23.000Z</time>
      </trkpt>
      <trkpt lat="42.98156" lon="1.01581">
        <ele>1015</ele>
        <time>2025-09-20T10:04:24.000Z</time>
      </trkpt>
      <trkpt lat="42.98154" lon="1.01584">
        <ele>1017</ele>
        <time>2025-09-20T10:04:25.000Z</time>
      </trkpt>
      <trkpt lat="42.98154" lon="1.01587">
        <ele>1019</ele>
        <time>2025-09-20T10:04:26.000Z</time>
      </trkpt>
      <trkpt lat="42.98153" lon="1.0159">
        <ele>1022</ele>
        <time>2025-09-20T10:04:27.000Z</time>
      </trkpt>
      <trkpt lat="42.98152" lon="1.01593">
        <ele>1024</ele>
        <time>2025-09-20T10:04:28.000Z</time>
      </trkpt>
      <trkpt lat="42.98151" lon="1.01597">
        <ele>1025</ele>
        <time>2025-09-20T10:04:29.000Z</time>
      </trkpt>
      <trkpt lat="42.9815" lon="1.016">
        <ele>1026</ele>
        <time>2025-09-20T10:04:30.000Z</time>
      </trkpt>
      <trkpt lat="42.9815" lon="1.01604">
        <ele>1026</ele>
        <time>2025-09-20T10:04:31.000Z</time>
      </trkpt>
      <trkpt lat="42.98148" lon="1.01608">
        <ele>1025</ele>
        <time>2025-09-20T10:04:32.000Z</time>
      </trkpt>
      <trkpt lat="42.98148" lon="1.01611">
        <ele>1025</ele>
        <time>2025-09-20T10:04:33.000Z</time>
      </trkpt>
      <trkpt lat="42.98147" lon="1.01615">
        <ele>1025</ele>
        <time>2025-09-20T10:04:34.000Z</time>
      </trkpt>
      <trkpt lat="42.98147" lon="1.01619">
        <ele>1025</ele>
        <time>2025-09-20T10:04:35.000Z</time>
      </trkpt>
      <trkpt lat="42.98146" lon="1.01622">
        <ele>1025</ele>
        <time>2025-09-20T10:04:36.000Z</time>
      </trkpt>
      <trkpt lat="42.98144" lon="1.01625">
        <ele>1024</ele>
        <time>2025-09-20T10:04:37.000Z</time>
      </trkpt>
      <trkpt lat="42.98143" lon="1.01629">
        <ele>1025</ele>
        <time>2025-09-20T10:04:38.000Z</time>
      </trkpt>
      <trkpt lat="42.98142" lon="1.01632">
        <ele>1025</ele>
        <time>2025-09-20T10:04:39.000Z</time>
      </trkpt>
      <trkpt lat="42.98141" lon="1.01634">
        <ele>1026</ele>
        <time>2025-09-20T10:04:40.000Z</time>
      </trkpt>
      <trkpt lat="42.9814" lon="1.01637">
        <ele>1027</ele>
        <time>2025-09-20T10:04:41.000Z</time>
      </trkpt>
      <trkpt lat="42.98139" lon="1.0164">
        <ele>1027</ele>
        <time>2025-09-20T10:04:42.000Z</time>
      </trkpt>
      <trkpt lat="42.98139" lon="1.01642">
        <ele>1027</ele>
        <time>2025-09-20T10:04:43.000Z</time>
      </trkpt>
      <trkpt lat="42.98138" lon="1.01645">
        <ele>1027</ele>
        <time>2025-09-20T10:04:44.000Z</time>
      </trkpt>
      <trkpt lat="42.98136" lon="1.01647">
        <ele>1027</ele>
        <time>2025-09-20T10:04:45.000Z</time>
      </trkpt>
      <trkpt lat="42.98135" lon="1.0165">
        <ele>1027</ele>
        <time>2025-09-20T10:04:46.000Z</time>
      </trkpt>
      <trkpt lat="42.98134" lon="1.01653">
        <ele>1028</ele>
        <time>2025-09-20T10:04:47.000Z</time>
      </trkpt>
      <trkpt lat="42.98134" lon="1.01656">
        <ele>1028</ele>
        <time>2025-09-20T10:04:48.000Z</time>
      </trkpt>
      <trkpt lat="42.98132" lon="1.01659">
        <ele>1028</ele>
        <time>2025-09-20T10:04:49.000Z</time>
      </trkpt>
      <trkpt lat="42.98129" lon="1.01662">
        <ele>1027</ele>
        <time>2025-09-20T10:04:50.000Z</time>
      </trkpt>
      <trkpt lat="42.98127" lon="1.01665">
        <ele>1026</ele>
        <time>2025-09-20T10:04:51.000Z</time>
      </trkpt>
      <trkpt lat="42.98124" lon="1.01666">
        <ele>1025</ele>
        <time>2025-09-20T10:04:52.000Z</time>
      </trkpt>
      <trkpt lat="42.98122" lon="1.01668">
        <ele>1024</ele>
        <time>2025-09-20T10:04:53.000Z</time>
      </trkpt>
      <trkpt lat="42.98119" lon="1.01669">
        <ele>1023</ele>
        <time>2025-09-20T10:04:54.000Z</time>
      </trkpt>
      <trkpt lat="42.98116" lon="1.0167">
        <ele>1022</ele>
        <time>2025-09-20T10:04:55.000Z</time>
      </trkpt>
      <trkpt lat="42.98114" lon="1.01668">
        <ele>1022</ele>
        <time>2025-09-20T10:04:56.000Z</time>
      </trkpt>
      <trkpt lat="42.98112" lon="1.01666">
        <ele>1021</ele>
        <time>2025-09-20T10:04:57.000Z</time>
      </trkpt>
      <trkpt lat="42.98111" lon="1.01663">
        <ele>1021</ele>
        <time>2025-09-20T10:04:58.000Z</time>
      </trkpt>
      <trkpt lat="42.9811" lon="1.01659">
        <ele>1021</ele>
        <time>2025-09-20T10:04:59.000Z</time>
      </trkpt>
      <trkpt lat="42.9811" lon="1.01656">
        <ele>1021</ele>
        <time>2025-09-20T10:05:00.000Z</time>
      </trkpt>
      <trkpt lat="42.98109" lon="1.01652">
        <ele>1021</ele>
        <time>2025-09-20T10:05:01.000Z</time>
      </trkpt>
      <trkpt lat="42.98107" lon="1.01649">
        <ele>1021</ele>
        <time>2025-09-20T10:05:02.000Z</time>
      </trkpt>
      <trkpt lat="42.98106" lon="1.01645">
        <ele>1022</ele>
        <time>2025-09-20T10:05:03.000Z</time>
      </trkpt>
      <trkpt lat="42.98105" lon="1.01641">
        <ele>1023</ele>
        <time>2025-09-20T10:05:04.000Z</time>
      </trkpt>
      <trkpt lat="42.98103" lon="1.01637">
        <ele>1023</ele>
        <time>2025-09-20T10:05:05.000Z</time>
      </trkpt>
      <trkpt lat="42.98101" lon="1.01634">
        <ele>1024</ele>
        <time>2025-09-20T10:05:06.000Z</time>
      </trkpt>
      <trkpt lat="42.98099" lon="1.01632">
        <ele>1025</ele>
        <time>2025-09-20T10:05:07.000Z</time>
      </trkpt>
      <trkpt lat="42.98098" lon="1.01629">
        <ele>1025</ele>
        <time>2025-09-20T10:05:08.000Z</time>
      </trkpt>
      <trkpt lat="42.98097" lon="1.01626">
        <ele>1026</ele>
        <time>2025-09-20T10:05:09.000Z</time>
      </trkpt>
      <trkpt lat="42.98095" lon="1.01624">
        <ele>1027</ele>
        <time>2025-09-20T10:05:10.000Z</time>
      </trkpt>
      <trkpt lat="42.98093" lon="1.01622">
        <ele>1026</ele>
        <time>2025-09-20T10:05:11.000Z</time>
      </trkpt>
      <trkpt lat="42.98091" lon="1.0162">
        <ele>1026</ele>
        <time>2025-09-20T10:05:12.000Z</time>
      </trkpt>
      <trkpt lat="42.9809" lon="1.01618">
        <ele>1027</ele>
        <time>2025-09-20T10:05:13.000Z</time>
      </trkpt>
      <trkpt lat="42.98087" lon="1.01616">
        <ele>1027</ele>
        <time>2025-09-20T10:05:14.000Z</time>
      </trkpt>
      <trkpt lat="42.98085" lon="1.01614">
        <ele>1027</ele>
        <time>2025-09-20T10:05:15.000Z</time>
      </trkpt>
      <trkpt lat="42.98083" lon="1.01612">
        <ele>1028</ele>
        <time>2025-09-20T10:05:16.000Z</time>
      </trkpt>
      <trkpt lat="42.98081" lon="1.0161">
        <ele>1028</ele>
        <time>2025-09-20T10:05:17.000Z</time>
      </trkpt>
      <trkpt lat="42.98078" lon="1.01609">
        <ele>1028</ele>
        <time>2025-09-20T10:05:18.000Z</time>
      </trkpt>
      <trkpt lat="42.98076" lon="1.01607">
        <ele>1029</ele>
        <time>2025-09-20T10:05:19.000Z</time>
      </trkpt>
      <trkpt lat="42.98075" lon="1.01604">
        <ele>1029</ele>
        <time>2025-09-20T10:05:20.000Z</time>
      </trkpt>
      <trkpt lat="42.98073" lon="1.01602">
        <ele>1029</ele>
        <time>2025-09-20T10:05:21.000Z</time>
      </trkpt>
      <trkpt lat="42.98071" lon="1.01599">
        <ele>1029</ele>
        <time>2025-09-20T10:05:22.000Z</time>
      </trkpt>
      <trkpt lat="42.98068" lon="1.01598">
        <ele>1030</ele>
        <time>2025-09-20T10:05:23.000Z</time>
      </trkpt>
      <trkpt lat="42.98066" lon="1.01597">
        <ele>1031</ele>
        <time>2025-09-20T10:05:24.000Z</time>
      </trkpt>
      <trkpt lat="42.98064" lon="1.01596">
        <ele>1031</ele>
        <time>2025-09-20T10:05:25.000Z</time>
      </trkpt>
      <trkpt lat="42.98062" lon="1.01595">
        <ele>1031</ele>
        <time>2025-09-20T10:05:26.000Z</time>
      </trkpt>
      <trkpt lat="42.98059" lon="1.01593">
        <ele>1032</ele>
        <time>2025-09-20T10:05:27.000Z</time>
      </trkpt>
      <trkpt lat="42.98057" lon="1.01591">
        <ele>1032</ele>
        <time>2025-09-20T10:05:28.000Z</time>
      </trkpt>
      <trkpt lat="42.98055" lon="1.0159">
        <ele>1033</ele>
        <time>2025-09-20T10:05:29.000Z</time>
      </trkpt>
      <trkpt lat="42.98053" lon="1.01588">
        <ele>1033</ele>
        <time>2025-09-20T10:05:30.000Z</time>
      </trkpt>
      <trkpt lat="42.9805" lon="1.01587">
        <ele>1034</ele>
        <time>2025-09-20T10:05:31.000Z</time>
      </trkpt>
      <trkpt lat="42.98048" lon="1.01586">
        <ele>1034</ele>
        <time>2025-09-20T10:05:32.000Z</time>
      </trkpt>
      <trkpt lat="42.98046" lon="1.01585">
        <ele>1035</ele>
        <time>2025-09-20T10:05:33.000Z</time>
      </trkpt>
      <trkpt lat="42.98044" lon="1.01583">
        <ele>1035</ele>
        <time>2025-09-20T10:05:34.000Z</time>
      </trkpt>
      <trkpt lat="42.98041" lon="1.01582">
        <ele>1034</ele>
        <time>2025-09-20T10:05:35.000Z</time>
      </trkpt>
      <trkpt lat="42.98038" lon="1.0158">
        <ele>1034</ele>
        <time>2025-09-20T10:05:36.000Z</time>
      </trkpt>
      <trkpt lat="42.98036" lon="1.01578">
        <ele>1034</ele>
        <time>2025-09-20T10:05:37.000Z</time>
      </trkpt>
      <trkpt lat="42.98034" lon="1.01575">
        <ele>1034</ele>
        <time>2025-09-20T10:05:38.000Z</time>
      </trkpt>
      <trkpt lat="42.98032" lon="1.01572">
        <ele>1034</ele>
        <time>2025-09-20T10:05:39.000Z</time>
      </trkpt>
      <trkpt lat="42.9803" lon="1.01569">
        <ele>1034</ele>
        <time>2025-09-20T10:05:40.000Z</time>
      </trkpt>
      <trkpt lat="42.98028" lon="1.01565">
        <ele>1034</ele>
        <time>2025-09-20T10:05:41.000Z</time>
      </trkpt>
      <trkpt lat="42.98027" lon="1.01561">
        <ele>1034</ele>
        <time>2025-09-20T10:05:42.000Z</time>
      </trkpt>
      <trkpt lat="42.98025" lon="1.01557">
        <ele>1035</ele>
        <time>2025-09-20T10:05:43.000Z</time>
      </trkpt>
      <trkpt lat="42.98024" lon="1.01554">
        <ele>1035</ele>
        <time>2025-09-20T10:05:44.000Z</time>
      </trkpt>
      <trkpt lat="42.98022" lon="1.01551">
        <ele>1035</ele>
        <time>2025-09-20T10:05:45.000Z</time>
      </trkpt>
      <trkpt lat="42.98021" lon="1.01548">
        <ele>1035</ele>
        <time>2025-09-20T10:05:46.000Z</time>
      </trkpt>
      <trkpt lat="42.9802" lon="1.01543">
        <ele>1036</ele>
        <time>2025-09-20T10:05:47.000Z</time>
      </trkpt>
      <trkpt lat="42.98018" lon="1.01539">
        <ele>1036</ele>
        <time>2025-09-20T10:05:48.000Z</time>
      </trkpt>
      <trkpt lat="42.98016" lon="1.01535">
        <ele>1036</ele>
        <time>2025-09-20T10:05:49.000Z</time>
      </trkpt>
      <trkpt lat="42.98014" lon="1.01531">
        <ele>1036</ele>
        <time>2025-09-20T10:05:50.000Z</time>
      </trkpt>
      <trkpt lat="42.98013" lon="1.01529">
        <ele>1037</ele>
        <time>2025-09-20T10:05:51.000Z</time>
      </trkpt>
      <trkpt lat="42.98012" lon="1.01525">
        <ele>1037</ele>
        <time>2025-09-20T10:05:52.000Z</time>
      </trkpt>
      <trkpt lat="42.9801" lon="1.01521">
        <ele>1037</ele>
        <time>2025-09-20T10:05:53.000Z</time>
      </trkpt>
      <trkpt lat="42.9801" lon="1.01517">
        <ele>1037</ele>
        <time>2025-09-20T10:05:54.000Z</time>
      </trkpt>
      <trkpt lat="42.98008" lon="1.01514">
        <ele>1038</ele>
        <time>2025-09-20T10:05:55.000Z</time>
      </trkpt>
      <trkpt lat="42.98008" lon="1.01511">
        <ele>1038</ele>
        <time>2025-09-20T10:05:56.000Z</time>
      </trkpt>
      <trkpt lat="42.98007" lon="1.01508">
        <ele>1039</ele>
        <time>2025-09-20T10:05:57.000Z</time>
      </trkpt>
      <trkpt lat="42.98006" lon="1.01504">
        <ele>1039</ele>
        <time>2025-09-20T10:05:58.000Z</time>
      </trkpt>
      <trkpt lat="42.98004" lon="1.01501">
        <ele>1039</ele>
        <time>2025-09-20T10:05:59.000Z</time>
      </trkpt>
      <trkpt lat="42.98003" lon="1.01497">
        <ele>1040</ele>
        <time>2025-09-20T10:06:00.000Z</time>
      </trkpt>
      <trkpt lat="42.98002" lon="1.01493">
        <ele>1040</ele>
        <time>2025-09-20T10:06:01.000Z</time>
      </trkpt>
      <trkpt lat="42.98001" lon="1.01489">
        <ele>1040</ele>
        <time>2025-09-20T10:06:02.000Z</time>
      </trkpt>
      <trkpt lat="42.98" lon="1.01486">
        <ele>1041</ele>
        <time>2025-09-20T10:06:03.000Z</time>
      </trkpt>
      <trkpt lat="42.97999" lon="1.01482">
        <ele>1041</ele>
        <time>2025-09-20T10:06:04.000Z</time>
      </trkpt>
      <trkpt lat="42.97998" lon="1.01479">
        <ele>1041</ele>
        <time>2025-09-20T10:06:05.000Z</time>
      </trkpt>
      <trkpt lat="42.97997" lon="1.01475">
        <ele>1042</ele>
        <time>2025-09-20T10:06:06.000Z</time>
      </trkpt>
      <trkpt lat="42.97996" lon="1.01471">
        <ele>1042</ele>
        <time>2025-09-20T10:06:07.000Z</time>
      </trkpt>
      <trkpt lat="42.97995" lon="1.01467">
        <ele>1043</ele>
        <time>2025-09-20T10:06:08.000Z</time>
      </trkpt>
      <trkpt lat="42.97993" lon="1.01464">
        <ele>1043</ele>
        <time>2025-09-20T10:06:09.000Z</time>
      </trkpt>
      <trkpt lat="42.97992" lon="1.01461">
        <ele>1043</ele>
        <time>2025-09-20T10:06:10.000Z</time>
      </trkpt>
      <trkpt lat="42.97991" lon="1.01458">
        <ele>1044</ele>
        <time>2025-09-20T10:06:11.000Z</time>
      </trkpt>
      <trkpt lat="42.9799" lon="1.01454">
        <ele>1044</ele>
        <time>2025-09-20T10:06:12.000Z</time>
      </trkpt>
      <trkpt lat="42.97989" lon="1.0145">
        <ele>1045</ele>
        <time>2025-09-20T10:06:13.000Z</time>
      </trkpt>
      <trkpt lat="42.97988" lon="1.01446">
        <ele>1045</ele>
        <time>2025-09-20T10:06:14.000Z</time>
      </trkpt>
      <trkpt lat="42.97987" lon="1.01442">
        <ele>1046</ele>
        <time>2025-09-20T10:06:15.000Z</time>
      </trkpt>
      <trkpt lat="42.97985" lon="1.01439">
        <ele>1046</ele>
        <time>2025-09-20T10:06:16.000Z</time>
      </trkpt>
      <trkpt lat="42.97985" lon="1.01435">
        <ele>1046</ele>
        <time>2025-09-20T10:06:17.000Z</time>
      </trkpt>
      <trkpt lat="42.97984" lon="1.01432">
        <ele>1047</ele>
        <time>2025-09-20T10:06:18.000Z</time>
      </trkpt>
      <trkpt lat="42.97983" lon="1.01428">
        <ele>1047</ele>
        <time>2025-09-20T10:06:19.000Z</time>
      </trkpt>
      <trkpt lat="42.97982" lon="1.01424">
        <ele>1047</ele>
        <time>2025-09-20T10:06:20.000Z</time>
      </trkpt>
      <trkpt lat="42.97981" lon="1.01421">
        <ele>1048</ele>
        <time>2025-09-20T10:06:21.000Z</time>
      </trkpt>
      <trkpt lat="42.9798" lon="1.01417">
        <ele>1048</ele>
        <time>2025-09-20T10:06:22.000Z</time>
      </trkpt>
      <trkpt lat="42.97979" lon="1.01414">
        <ele>1049</ele>
        <time>2025-09-20T10:06:23.000Z</time>
      </trkpt>
      <trkpt lat="42.97977" lon="1.0141">
        <ele>1049</ele>
        <time>2025-09-20T10:06:24.000Z</time>
      </trkpt>
      <trkpt lat="42.97976" lon="1.01407">
        <ele>1049</ele>
        <time>2025-09-20T10:06:25.000Z</time>
      </trkpt>
      <trkpt lat="42.97975" lon="1.01403">
        <ele>1050</ele>
        <time>2025-09-20T10:06:26.000Z</time>
      </trkpt>
      <trkpt lat="42.97975" lon="1.014">
        <ele>1050</ele>
        <time>2025-09-20T10:06:27.000Z</time>
      </trkpt>
      <trkpt lat="42.97974" lon="1.01396">
        <ele>1050</ele>
        <time>2025-09-20T10:06:28.000Z</time>
      </trkpt>
      <trkpt lat="42.97973" lon="1.01392">
        <ele>1050</ele>
        <time>2025-09-20T10:06:29.000Z</time>
      </trkpt>
      <trkpt lat="42.97972" lon="1.01389">
        <ele>1051</ele>
        <time>2025-09-20T10:06:30.000Z</time>
      </trkpt>
      <trkpt lat="42.9797" lon="1.01386">
        <ele>1051</ele>
        <time>2025-09-20T10:06:31.000Z</time>
      </trkpt>
      <trkpt lat="42.97969" lon="1.01382">
        <ele>1051</ele>
        <time>2025-09-20T10:06:32.000Z</time>
      </trkpt>
      <trkpt lat="42.97968" lon="1.01378">
        <ele>1052</ele>
        <time>2025-09-20T10:06:33.000Z</time>
      </trkpt>
      <trkpt lat="42.97967" lon="1.01374">
        <ele>1052</ele>
        <time>2025-09-20T10:06:34.000Z</time>
      </trkpt>
      <trkpt lat="42.97967" lon="1.0137">
        <ele>1053</ele>
        <time>2025-09-20T10:06:35.000Z</time>
      </trkpt>
      <trkpt lat="42.97966" lon="1.01366">
        <ele>1055</ele>
        <time>2025-09-20T10:06:36.000Z</time>
      </trkpt>
      <trkpt lat="42.97965" lon="1.01363">
        <ele>1055</ele>
        <time>2025-09-20T10:06:37.000Z</time>
      </trkpt>
      <trkpt lat="42.97964" lon="1.01359">
        <ele>1055</ele>
        <time>2025-09-20T10:06:38.000Z</time>
      </trkpt>
      <trkpt lat="42.97963" lon="1.01356">
        <ele>1055</ele>
        <time>2025-09-20T10:06:39.000Z</time>
      </trkpt>
      <trkpt lat="42.97961" lon="1.01352">
        <ele>1055</ele>
        <time>2025-09-20T10:06:40.000Z</time>
      </trkpt>
      <trkpt lat="42.9796" lon="1.01349">
        <ele>1055</ele>
        <time>2025-09-20T10:06:41.000Z</time>
      </trkpt>
      <trkpt lat="42.97959" lon="1.01345">
        <ele>1055</ele>
        <time>2025-09-20T10:06:42.000Z</time>
      </trkpt>
      <trkpt lat="42.97958" lon="1.01341">
        <ele>1056</ele>
        <time>2025-09-20T10:06:43.000Z</time>
      </trkpt>
      <trkpt lat="42.97958" lon="1.01336">
        <ele>1057</ele>
        <time>2025-09-20T10:06:44.000Z</time>
      </trkpt>
      <trkpt lat="42.97957" lon="1.01332">
        <ele>1057</ele>
        <time>2025-09-20T10:06:45.000Z</time>
      </trkpt>
      <trkpt lat="42.97956" lon="1.01329">
        <ele>1057</ele>
        <time>2025-09-20T10:06:46.000Z</time>
      </trkpt>
      <trkpt lat="42.97955" lon="1.01325">
        <ele>1057</ele>
        <time>2025-09-20T10:06:47.000Z</time>
      </trkpt>
      <trkpt lat="42.97955" lon="1.01321">
        <ele>1057</ele>
        <time>2025-09-20T10:06:48.000Z</time>
      </trkpt>
      <trkpt lat="42.97954" lon="1.01318">
        <ele>1057</ele>
        <time>2025-09-20T10:06:49.000Z</time>
      </trkpt>
      <trkpt lat="42.97953" lon="1.01314">
        <ele>1057</ele>
        <time>2025-09-20T10:06:50.000Z</time>
      </trkpt>
      <trkpt lat="42.97953" lon="1.01311">
        <ele>1058</ele>
        <time>2025-09-20T10:06:51.000Z</time>
      </trkpt>
      <trkpt lat="42.97953" lon="1.01306">
        <ele>1059</ele>
        <time>2025-09-20T10:06:52.000Z</time>
      </trkpt>
      <trkpt lat="42.97952" lon="1.01302">
        <ele>1059</ele>
        <time>2025-09-20T10:06:53.000Z</time>
      </trkpt>
      <trkpt lat="42.97952" lon="1.01298">
        <ele>1059</ele>
        <time>2025-09-20T10:06:54.000Z</time>
      </trkpt>
      <trkpt lat="42.97952" lon="1.01295">
        <ele>1060</ele>
        <time>2025-09-20T10:06:55.000Z</time>
      </trkpt>
      <trkpt lat="42.97952" lon="1.01291">
        <ele>1060</ele>
        <time>2025-09-20T10:06:56.000Z</time>
      </trkpt>
      <trkpt lat="42.97952" lon="1.01286">
        <ele>1059</ele>
        <time>2025-09-20T10:06:57.000Z</time>
      </trkpt>
      <trkpt lat="42.97953" lon="1.01282">
        <ele>1059</ele>
        <time>2025-09-20T10:06:58.000Z</time>
      </trkpt>
      <trkpt lat="42.97953" lon="1.01279">
        <ele>1059</ele>
        <time>2025-09-20T10:06:59.000Z</time>
      </trkpt>
      <trkpt lat="42.97954" lon="1.01275">
        <ele>1059</ele>
        <time>2025-09-20T10:07:00.000Z</time>
      </trkpt>
      <trkpt lat="42.97955" lon="1.01272">
        <ele>1059</ele>
        <time>2025-09-20T10:07:01.000Z</time>
      </trkpt>
      <trkpt lat="42.97956" lon="1.01268">
        <ele>1060</ele>
        <time>2025-09-20T10:07:02.000Z</time>
      </trkpt>
      <trkpt lat="42.97958" lon="1.01263">
        <ele>1060</ele>
        <time>2025-09-20T10:07:03.000Z</time>
      </trkpt>
      <trkpt lat="42.97959" lon="1.0126">
        <ele>1061</ele>
        <time>2025-09-20T10:07:04.000Z</time>
      </trkpt>
      <trkpt lat="42.97961" lon="1.01257">
        <ele>1061</ele>
        <time>2025-09-20T10:07:05.000Z</time>
      </trkpt>
      <trkpt lat="42.97962" lon="1.01254">
        <ele>1061</ele>
        <time>2025-09-20T10:07:06.000Z</time>
      </trkpt>
      <trkpt lat="42.97964" lon="1.0125">
        <ele>1061</ele>
        <time>2025-09-20T10:07:07.000Z</time>
      </trkpt>
      <trkpt lat="42.97966" lon="1.01247">
        <ele>1061</ele>
        <time>2025-09-20T10:07:08.000Z</time>
      </trkpt>
      <trkpt lat="42.97968" lon="1.01243">
        <ele>1062</ele>
        <time>2025-09-20T10:07:09.000Z</time>
      </trkpt>
      <trkpt lat="42.97969" lon="1.0124">
        <ele>1062</ele>
        <time>2025-09-20T10:07:10.000Z</time>
      </trkpt>
      <trkpt lat="42.97971" lon="1.01237">
        <ele>1062</ele>
        <time>2025-09-20T10:07:11.000Z</time>
      </trkpt>
      <trkpt lat="42.97972" lon="1.01233">
        <ele>1063</ele>
        <time>2025-09-20T10:07:12.000Z</time>
      </trkpt>
      <trkpt lat="42.97973" lon="1.0123">
        <ele>1064</ele>
        <time>2025-09-20T10:07:13.000Z</time>
      </trkpt>
      <trkpt lat="42.97974" lon="1.01226">
        <ele>1065</ele>
        <time>2025-09-20T10:07:14.000Z</time>
      </trkpt>
      <trkpt lat="42.97974" lon="1.01222">
        <ele>1066</ele>
        <time>2025-09-20T10:07:15.000Z</time>
      </trkpt>
      <trkpt lat="42.97974" lon="1.01218">
        <ele>1066</ele>
        <time>2025-09-20T10:07:16.000Z</time>
      </trkpt>
      <trkpt lat="42.97973" lon="1.01214">
        <ele>1066</ele>
        <time>2025-09-20T10:07:17.000Z</time>
      </trkpt>
      <trkpt lat="42.97972" lon="1.0121">
        <ele>1067</ele>
        <time>2025-09-20T10:07:18.000Z</time>
      </trkpt>
      <trkpt lat="42.97971" lon="1.01207">
        <ele>1066</ele>
        <time>2025-09-20T10:07:19.000Z</time>
      </trkpt>
      <trkpt lat="42.9797" lon="1.01203">
        <ele>1065</ele>
        <time>2025-09-20T10:07:20.000Z</time>
      </trkpt>
      <trkpt lat="42.97969" lon="1.012">
        <ele>1066</ele>
        <time>2025-09-20T10:07:21.000Z</time>
      </trkpt>
      <trkpt lat="42.97968" lon="1.01196">
        <ele>1065</ele>
        <time>2025-09-20T10:07:22.000Z</time>
      </trkpt>
      <trkpt lat="42.97967" lon="1.01193">
        <ele>1065</ele>
        <time>2025-09-20T10:07:23.000Z</time>
      </trkpt>
      <trkpt lat="42.97966" lon="1.01189">
        <ele>1064</ele>
        <time>2025-09-20T10:07:24.000Z</time>
      </trkpt>
      <trkpt lat="42.97965" lon="1.01185">
        <ele>1064</ele>
        <time>2025-09-20T10:07:25.000Z</time>
      </trkpt>
      <trkpt lat="42.97964" lon="1.01181">
        <ele>1065</ele>
        <time>2025-09-20T10:07:26.000Z</time>
      </trkpt>
      <trkpt lat="42.97964" lon="1.01177">
        <ele>1064</ele>
        <time>2025-09-20T10:07:27.000Z</time>
      </trkpt>
      <trkpt lat="42.97963" lon="1.01173">
        <ele>1065</ele>
        <time>2025-09-20T10:07:28.000Z</time>
      </trkpt>
      <trkpt lat="42.97963" lon="1.0117">
        <ele>1065</ele>
        <time>2025-09-20T10:07:29.000Z</time>
      </trkpt>
      <trkpt lat="42.97961" lon="1.01167">
        <ele>1065</ele>
        <time>2025-09-20T10:07:30.000Z</time>
      </trkpt>
      <trkpt lat="42.97959" lon="1.01166">
        <ele>1065</ele>
        <time>2025-09-20T10:07:31.000Z</time>
      </trkpt>
      <trkpt lat="42.97957" lon="1.01165">
        <ele>1066</ele>
        <time>2025-09-20T10:07:32.000Z</time>
      </trkpt>
      <trkpt lat="42.97956" lon="1.01167">
        <ele>1067</ele>
        <time>2025-09-20T10:07:33.000Z</time>
      </trkpt>
      <trkpt lat="42.97955" lon="1.0117">
        <ele>1067</ele>
        <time>2025-09-20T10:07:34.000Z</time>
      </trkpt>
      <trkpt lat="42.97955" lon="1.01172">
        <ele>1068</ele>
        <time>2025-09-20T10:07:35.000Z</time>
      </trkpt>
      <trkpt lat="42.97956" lon="1.01174">
        <ele>1068</ele>
        <time>2025-09-20T10:07:36.000Z</time>
      </trkpt>
      <trkpt lat="42.97956" lon="1.01174">
        <ele>1068</ele>
        <time>2025-09-20T10:07:37.000Z</time>
      </trkpt>
      <trkpt lat="42.97957" lon="1.01177">
        <ele>1069</ele>
        <time>2025-09-20T10:09:41.000Z</time>
      </trkpt>
      <trkpt lat="42.97957" lon="1.01179">
        <ele>1069</ele>
        <time>2025-09-20T10:09:42.000Z</time>
      </trkpt>
      <trkpt lat="42.97958" lon="1.01182">
        <ele>1069</ele>
        <time>2025-09-20T10:09:43.000Z</time>
      </trkpt>
      <trkpt lat="42.97958" lon="1.01184">
        <ele>1068</ele>
        <time>2025-09-20T10:09:44.000Z</time>
      </trkpt>
      <trkpt lat="42.97958" lon="1.01186">
        <ele>1068</ele>
        <time>2025-09-20T10:09:45.000Z</time>
      </trkpt>
      <trkpt lat="42.97959" lon="1.01189">
        <ele>1068</ele>
        <time>2025-09-20T10:09:46.000Z</time>
      </trkpt>
      <trkpt lat="42.9796" lon="1.01193">
        <ele>1068</ele>
        <time>2025-09-20T10:09:47.000Z</time>
      </trkpt>
      <trkpt lat="42.97961" lon="1.01195">
        <ele>1069</ele>
        <time>2025-09-20T10:09:48.000Z</time>
      </trkpt>
      <trkpt lat="42.97961" lon="1.01198">
        <ele>1069</ele>
        <time>2025-09-20T10:09:49.000Z</time>
      </trkpt>
      <trkpt lat="42.9796" lon="1.01201">
        <ele>1069</ele>
        <time>2025-09-20T10:09:50.000Z</time>
      </trkpt>
      <trkpt lat="42.9796" lon="1.01204">
        <ele>1069</ele>
        <time>2025-09-20T10:09:51.000Z</time>
      </trkpt>
      <trkpt lat="42.97959" lon="1.01208">
        <ele>1069</ele>
        <time>2025-09-20T10:09:52.000Z</time>
      </trkpt>
      <trkpt lat="42.97959" lon="1.01213">
        <ele>1069</ele>
        <time>2025-09-20T10:09:53.000Z</time>
      </trkpt>
      <trkpt lat="42.97959" lon="1.01217">
        <ele>1069</ele>
        <time>2025-09-20T10:09:54.000Z</time>
      </trkpt>
      <trkpt lat="42.97957" lon="1.01221">
        <ele>1069</ele>
        <time>2025-09-20T10:09:55.000Z</time>
      </trkpt>
      <trkpt lat="42.97956" lon="1.01225">
        <ele>1069</ele>
        <time>2025-09-20T10:09:56.000Z</time>
      </trkpt>
      <trkpt lat="42.97954" lon="1.0123">
        <ele>1069</ele>
        <time>2025-09-20T10:09:57.000Z</time>
      </trkpt>
      <trkpt lat="42.97953" lon="1.01234">
        <ele>1069</ele>
        <time>2025-09-20T10:09:58.000Z</time>
      </trkpt>
      <trkpt lat="42.97951" lon="1.01238">
        <ele>1069</ele>
        <time>2025-09-20T10:09:59.000Z</time>
      </trkpt>
      <trkpt lat="42.9795" lon="1.01242">
        <ele>1069</ele>
        <time>2025-09-20T10:10:00.000Z</time>
      </trkpt>
      <trkpt lat="42.97947" lon="1.01245">
        <ele>1069</ele>
        <time>2025-09-20T10:10:01.000Z</time>
      </trkpt>
      <trkpt lat="42.97945" lon="1.01249">
        <ele>1070</ele>
        <time>2025-09-20T10:10:02.000Z</time>
      </trkpt>
      <trkpt lat="42.97942" lon="1.01253">
        <ele>1069</ele>
        <time>2025-09-20T10:10:03.000Z</time>
      </trkpt>
      <trkpt lat="42.97939" lon="1.01256">
        <ele>1069</ele>
        <time>2025-09-20T10:10:04.000Z</time>
      </trkpt>
      <trkpt lat="42.97936" lon="1.0126">
        <ele>1069</ele>
        <time>2025-09-20T10:10:05.000Z</time>
      </trkpt>
      <trkpt lat="42.97933" lon="1.01263">
        <ele>1069</ele>
        <time>2025-09-20T10:10:06.000Z</time>
      </trkpt>
      <trkpt lat="42.97931" lon="1.01266">
        <ele>1069</ele>
        <time>2025-09-20T10:10:07.000Z</time>
      </trkpt>
      <trkpt lat="42.97929" lon="1.0127">
        <ele>1069</ele>
        <time>2025-09-20T10:10:08.000Z</time>
      </trkpt>
      <trkpt lat="42.97927" lon="1.01274">
        <ele>1069</ele>
        <time>2025-09-20T10:10:09.000Z</time>
      </trkpt>
      <trkpt lat="42.97925" lon="1.01277">
        <ele>1069</ele>
        <time>2025-09-20T10:10:10.000Z</time>
      </trkpt>
      <trkpt lat="42.97924" lon="1.01281">
        <ele>1069</ele>
        <time>2025-09-20T10:10:11.000Z</time>
      </trkpt>
      <trkpt lat="42.97923" lon="1.01285">
        <ele>1069</ele>
        <time>2025-09-20T10:10:12.000Z</time>
      </trkpt>
      <trkpt lat="42.97921" lon="1.01289">
        <ele>1069</ele>
        <time>2025-09-20T10:10:13.000Z</time>
      </trkpt>
      <trkpt lat="42.97921" lon="1.01293">
        <ele>1069</ele>
        <time>2025-09-20T10:10:14.000Z</time>
      </trkpt>
      <trkpt lat="42.9792" lon="1.01297">
        <ele>1069</ele>
        <time>2025-09-20T10:10:15.000Z</time>
      </trkpt>
      <trkpt lat="42.97919" lon="1.01302">
        <ele>1070</ele>
        <time>2025-09-20T10:10:16.000Z</time>
      </trkpt>
      <trkpt lat="42.97918" lon="1.01306">
        <ele>1070</ele>
        <time>2025-09-20T10:10:17.000Z</time>
      </trkpt>
      <trkpt lat="42.97918" lon="1.01311">
        <ele>1070</ele>
        <time>2025-09-20T10:10:18.000Z</time>
      </trkpt>
      <trkpt lat="42.97918" lon="1.01316">
        <ele>1071</ele>
        <time>2025-09-20T10:10:19.000Z</time>
      </trkpt>
      <trkpt lat="42.97917" lon="1.01321">
        <ele>1071</ele>
        <time>2025-09-20T10:10:20.000Z</time>
      </trkpt>
      <trkpt lat="42.97917" lon="1.01325">
        <ele>1071</ele>
        <time>2025-09-20T10:10:21.000Z</time>
      </trkpt>
      <trkpt lat="42.97917" lon="1.0133">
        <ele>1071</ele>
        <time>2025-09-20T10:10:22.000Z</time>
      </trkpt>
      <trkpt lat="42.97916" lon="1.01336">
        <ele>1072</ele>
        <time>2025-09-20T10:10:23.000Z</time>
      </trkpt>
      <trkpt lat="42.97915" lon="1.0134">
        <ele>1071</ele>
        <time>2025-09-20T10:10:24.000Z</time>
      </trkpt>
      <trkpt lat="42.97914" lon="1.01345">
        <ele>1072</ele>
        <time>2025-09-20T10:10:25.000Z</time>
      </trkpt>
      <trkpt lat="42.97914" lon="1.0135">
        <ele>1072</ele>
        <time>2025-09-20T10:10:26.000Z</time>
      </trkpt>
      <trkpt lat="42.97913" lon="1.01355">
        <ele>1072</ele>
        <time>2025-09-20T10:10:27.000Z</time>
      </trkpt>
      <trkpt lat="42.97912" lon="1.01359">
        <ele>1073</ele>
        <time>2025-09-20T10:10:28.000Z</time>
      </trkpt>
      <trkpt lat="42.97912" lon="1.01364">
        <ele>1073</ele>
        <time>2025-09-20T10:10:29.000Z</time>
      </trkpt>
      <trkpt lat="42.97911" lon="1.01368">
        <ele>1074</ele>
        <time>2025-09-20T10:10:30.000Z</time>
      </trkpt>
      <trkpt lat="42.9791" lon="1.01373">
        <ele>1074</ele>
        <time>2025-09-20T10:10:31.000Z</time>
      </trkpt>
      <trkpt lat="42.9791" lon="1.01377">
        <ele>1074</ele>
        <time>2025-09-20T10:10:32.000Z</time>
      </trkpt>
      <trkpt lat="42.97909" lon="1.01382">
        <ele>1075</ele>
        <time>2025-09-20T10:10:33.000Z</time>
      </trkpt>
      <trkpt lat="42.97909" lon="1.01385">
        <ele>1076</ele>
        <time>2025-09-20T10:10:34.000Z</time>
      </trkpt>
      <trkpt lat="42.97909" lon="1.0139">
        <ele>1076</ele>
        <time>2025-09-20T10:10:35.000Z</time>
      </trkpt>
      <trkpt lat="42.97908" lon="1.01394">
        <ele>1076</ele>
        <time>2025-09-20T10:10:36.000Z</time>
      </trkpt>
      <trkpt lat="42.97908" lon="1.01399">
        <ele>1077</ele>
        <time>2025-09-20T10:10:37.000Z</time>
      </trkpt>
      <trkpt lat="42.97908" lon="1.01403">
        <ele>1077</ele>
        <time>2025-09-20T10:10:38.000Z</time>
      </trkpt>
      <trkpt lat="42.97909" lon="1.01408">
        <ele>1077</ele>
        <time>2025-09-20T10:10:39.000Z</time>
      </trkpt>
      <trkpt lat="42.9791" lon="1.01412">
        <ele>1077</ele>
        <time>2025-09-20T10:10:40.000Z</time>
      </trkpt>
      <trkpt lat="42.9791" lon="1.01417">
        <ele>1077</ele>
        <time>2025-09-20T10:10:41.000Z</time>
      </trkpt>
      <trkpt lat="42.9791" lon="1.01421">
        <ele>1077</ele>
        <time>2025-09-20T10:10:42.000Z</time>
      </trkpt>
      <trkpt lat="42.97911" lon="1.01426">
        <ele>1078</ele>
        <time>2025-09-20T10:10:43.000Z</time>
      </trkpt>
      <trkpt lat="42.9791" lon="1.01429">
        <ele>1078</ele>
        <time>2025-09-20T10:10:44.000Z</time>
      </trkpt>
      <trkpt lat="42.97911" lon="1.01434">
        <ele>1078</ele>
        <time>2025-09-20T10:10:45.000Z</time>
      </trkpt>
      <trkpt lat="42.97911" lon="1.01438">
        <ele>1079</ele>
        <time>2025-09-20T10:10:46.000Z</time>
      </trkpt>
      <trkpt lat="42.97911" lon="1.01442">
        <ele>1079</ele>
        <time>2025-09-20T10:10:47.000Z</time>
      </trkpt>
      <trkpt lat="42.97912" lon="1.01446">
        <ele>1079</ele>
        <time>2025-09-20T10:10:48.000Z</time>
      </trkpt>
      <trkpt lat="42.97911" lon="1.0145">
        <ele>1080</ele>
        <time>2025-09-20T10:10:49.000Z</time>
      </trkpt>
      <trkpt lat="42.97912" lon="1.01454">
        <ele>1080</ele>
        <time>2025-09-20T10:10:50.000Z</time>
      </trkpt>
      <trkpt lat="42.97912" lon="1.01459">
        <ele>1080</ele>
        <time>2025-09-20T10:10:51.000Z</time>
      </trkpt>
      <trkpt lat="42.97913" lon="1.01462">
        <ele>1081</ele>
        <time>2025-09-20T10:10:52.000Z</time>
      </trkpt>
      <trkpt lat="42.97913" lon="1.01467">
        <ele>1081</ele>
        <time>2025-09-20T10:10:53.000Z</time>
      </trkpt>
      <trkpt lat="42.97913" lon="1.01471">
        <ele>1081</ele>
        <time>2025-09-20T10:10:54.000Z</time>
      </trkpt>
      <trkpt lat="42.97912" lon="1.01475">
        <ele>1081</ele>
        <time>2025-09-20T10:10:55.000Z</time>
      </trkpt>
      <trkpt lat="42.97912" lon="1.01479">
        <ele>1082</ele>
        <time>2025-09-20T10:10:56.000Z</time>
      </trkpt>
      <trkpt lat="42.97912" lon="1.01483">
        <ele>1082</ele>
        <time>2025-09-20T10:10:57.000Z</time>
      </trkpt>
      <trkpt lat="42.97912" lon="1.01487">
        <ele>1082</ele>
        <time>2025-09-20T10:10:58.000Z</time>
      </trkpt>
      <trkpt lat="42.97911" lon="1.01491">
        <ele>1083</ele>
        <time>2025-09-20T10:10:59.000Z</time>
      </trkpt>
      <trkpt lat="42.97911" lon="1.01495">
        <ele>1083</ele>
        <time>2025-09-20T10:11:00.000Z</time>
      </trkpt>
      <trkpt lat="42.97911" lon="1.01499">
        <ele>1084</ele>
        <time>2025-09-20T10:11:01.000Z</time>
      </trkpt>
      <trkpt lat="42.97911" lon="1.01503">
        <ele>1084</ele>
        <time>2025-09-20T10:11:02.000Z</time>
      </trkpt>
      <trkpt lat="42.9791" lon="1.01507">
        <ele>1085</ele>
        <time>2025-09-20T10:11:03.000Z</time>
      </trkpt>
      <trkpt lat="42.9791" lon="1.01511">
        <ele>1086</ele>
        <time>2025-09-20T10:11:04.000Z</time>
      </trkpt>
      <trkpt lat="42.97909" lon="1.01515">
        <ele>1085</ele>
        <time>2025-09-20T10:11:05.000Z</time>
      </trkpt>
      <trkpt lat="42.97909" lon="1.01519">
        <ele>1086</ele>
        <time>2025-09-20T10:11:06.000Z</time>
      </trkpt>
      <trkpt lat="42.97909" lon="1.01522">
        <ele>1085</ele>
        <time>2025-09-20T10:11:07.000Z</time>
      </trkpt>
      <trkpt lat="42.97909" lon="1.01527">
        <ele>1084</ele>
        <time>2025-09-20T10:11:08.000Z</time>
      </trkpt>
      <trkpt lat="42.9791" lon="1.01531">
        <ele>1084</ele>
        <time>2025-09-20T10:11:09.000Z</time>
      </trkpt>
      <trkpt lat="42.9791" lon="1.01535">
        <ele>1085</ele>
        <time>2025-09-20T10:11:10.000Z</time>
      </trkpt>
      <trkpt lat="42.9791" lon="1.01539">
        <ele>1085</ele>
        <time>2025-09-20T10:11:11.000Z</time>
      </trkpt>
      <trkpt lat="42.97909" lon="1.01544">
        <ele>1085</ele>
        <time>2025-09-20T10:11:12.000Z</time>
      </trkpt>
      <trkpt lat="42.97908" lon="1.01548">
        <ele>1085</ele>
        <time>2025-09-20T10:11:13.000Z</time>
      </trkpt>
      <trkpt lat="42.97909" lon="1.01552">
        <ele>1085</ele>
        <time>2025-09-20T10:11:14.000Z</time>
      </trkpt>
      <trkpt lat="42.97909" lon="1.01555">
        <ele>1086</ele>
        <time>2025-09-20T10:11:15.000Z</time>
      </trkpt>
      <trkpt lat="42.9791" lon="1.01559">
        <ele>1086</ele>
        <time>2025-09-20T10:11:16.000Z</time>
      </trkpt>
      <trkpt lat="42.9791" lon="1.01563">
        <ele>1086</ele>
        <time>2025-09-20T10:11:17.000Z</time>
      </trkpt>
      <trkpt lat="42.9791" lon="1.01568">
        <ele>1086</ele>
        <time>2025-09-20T10:11:18.000Z</time>
      </trkpt>
      <trkpt lat="42.9791" lon="1.01572">
        <ele>1086</ele>
        <time>2025-09-20T10:11:19.000Z</time>
      </trkpt>
      <trkpt lat="42.9791" lon="1.01576">
        <ele>1086</ele>
        <time>2025-09-20T10:11:20.000Z</time>
      </trkpt>
      <trkpt lat="42.9791" lon="1.01581">
        <ele>1087</ele>
        <time>2025-09-20T10:11:21.000Z</time>
      </trkpt>
      <trkpt lat="42.9791" lon="1.01585">
        <ele>1088</ele>
        <time>2025-09-20T10:11:22.000Z</time>
      </trkpt>
      <trkpt lat="42.9791" lon="1.0159">
        <ele>1089</ele>
        <time>2025-09-20T10:11:23.000Z</time>
      </trkpt>
      <trkpt lat="42.97909" lon="1.01594">
        <ele>1089</ele>
        <time>2025-09-20T10:11:24.000Z</time>
      </trkpt>
      <trkpt lat="42.97909" lon="1.01597">
        <ele>1090</ele>
        <time>2025-09-20T10:11:25.000Z</time>
      </trkpt>
      <trkpt lat="42.97908" lon="1.01602">
        <ele>1090</ele>
        <time>2025-09-20T10:11:26.000Z</time>
      </trkpt>
      <trkpt lat="42.97908" lon="1.01606">
        <ele>1091</ele>
        <time>2025-09-20T10:11:27.000Z</time>
      </trkpt>
      <trkpt lat="42.97908" lon="1.01609">
        <ele>1091</ele>
        <time>2025-09-20T10:11:28.000Z</time>
      </trkpt>
      <trkpt lat="42.97908" lon="1.01612">
        <ele>1091</ele>
        <time>2025-09-20T10:11:29.000Z</time>
      </trkpt>
      <trkpt lat="42.97908" lon="1.01617">
        <ele>1091</ele>
        <time>2025-09-20T10:11:30.000Z</time>
      </trkpt>
      <trkpt lat="42.97908" lon="1.0162">
        <ele>1092</ele>
        <time>2025-09-20T10:11:31.000Z</time>
      </trkpt>
      <trkpt lat="42.97908" lon="1.01625">
        <ele>1092</ele>
        <time>2025-09-20T10:11:32.000Z</time>
      </trkpt>
      <trkpt lat="42.97907" lon="1.01629">
        <ele>1093</ele>
        <time>2025-09-20T10:11:33.000Z</time>
      </trkpt>
      <trkpt lat="42.97906" lon="1.01634">
        <ele>1094</ele>
        <time>2025-09-20T10:11:34.000Z</time>
      </trkpt>
      <trkpt lat="42.97905" lon="1.01637">
        <ele>1094</ele>
        <time>2025-09-20T10:11:35.000Z</time>
      </trkpt>
      <trkpt lat="42.97904" lon="1.01641">
        <ele>1094</ele>
        <time>2025-09-20T10:11:36.000Z</time>
      </trkpt>
      <trkpt lat="42.97902" lon="1.01645">
        <ele>1095</ele>
        <time>2025-09-20T10:11:37.000Z</time>
      </trkpt>
      <trkpt lat="42.97901" lon="1.01649">
        <ele>1096</ele>
        <time>2025-09-20T10:11:38.000Z</time>
      </trkpt>
      <trkpt lat="42.97899" lon="1.01653">
        <ele>1096</ele>
        <time>2025-09-20T10:11:39.000Z</time>
      </trkpt>
      <trkpt lat="42.97898" lon="1.01657">
        <ele>1097</ele>
        <time>2025-09-20T10:11:40.000Z</time>
      </trkpt>
      <trkpt lat="42.97896" lon="1.01661">
        <ele>1098</ele>
        <time>2025-09-20T10:11:41.000Z</time>
      </trkpt>
      <trkpt lat="42.97894" lon="1.01665">
        <ele>1098</ele>
        <time>2025-09-20T10:11:42.000Z</time>
      </trkpt>
      <trkpt lat="42.97892" lon="1.01668">
        <ele>1097</ele>
        <time>2025-09-20T10:11:43.000Z</time>
      </trkpt>
      <trkpt lat="42.9789" lon="1.01671">
        <ele>1096</ele>
        <time>2025-09-20T10:11:44.000Z</time>
      </trkpt>
      <trkpt lat="42.97889" lon="1.01673">
        <ele>1096</ele>
        <time>2025-09-20T10:11:45.000Z</time>
      </trkpt>
      <trkpt lat="42.97887" lon="1.01676">
        <ele>1096</ele>
        <time>2025-09-20T10:11:46.000Z</time>
      </trkpt>
      <trkpt lat="42.97885" lon="1.01679">
        <ele>1096</ele>
        <time>2025-09-20T10:11:47.000Z</time>
      </trkpt>
      <trkpt lat="42.97884" lon="1.01683">
        <ele>1096</ele>
        <time>2025-09-20T10:11:48.000Z</time>
      </trkpt>
      <trkpt lat="42.97882" lon="1.01686">
        <ele>1096</ele>
        <time>2025-09-20T10:11:49.000Z</time>
      </trkpt>
      <trkpt lat="42.9788" lon="1.01689">
        <ele>1096</ele>
        <time>2025-09-20T10:11:50.000Z</time>
      </trkpt>
      <trkpt lat="42.97878" lon="1.01693">
        <ele>1097</ele>
        <time>2025-09-20T10:11:51.000Z</time>
      </trkpt>
      <trkpt lat="42.97876" lon="1.01695">
        <ele>1097</ele>
        <time>2025-09-20T10:11:52.000Z</time>
      </trkpt>
      <trkpt lat="42.97875" lon="1.01699">
        <ele>1097</ele>
        <time>2025-09-20T10:11:53.000Z</time>
      </trkpt>
      <trkpt lat="42.97873" lon="1.01702">
        <ele>1098</ele>
        <time>2025-09-20T10:11:54.000Z</time>
      </trkpt>
      <trkpt lat="42.97872" lon="1.01706">
        <ele>1098</ele>
        <time>2025-09-20T10:11:55.000Z</time>
      </trkpt>
      <trkpt lat="42.97871" lon="1.0171">
        <ele>1098</ele>
        <time>2025-09-20T10:11:56.000Z</time>
      </trkpt>
      <trkpt lat="42.9787" lon="1.01714">
        <ele>1098</ele>
        <time>2025-09-20T10:11:57.000Z</time>
      </trkpt>
      <trkpt lat="42.97869" lon="1.01718">
        <ele>1098</ele>
        <time>2025-09-20T10:11:58.000Z</time>
      </trkpt>
      <trkpt lat="42.97868" lon="1.01722">
        <ele>1098</ele>
        <time>2025-09-20T10:11:59.000Z</time>
      </trkpt>
      <trkpt lat="42.97867" lon="1.01726">
        <ele>1098</ele>
        <time>2025-09-20T10:12:00.000Z</time>
      </trkpt>
      <trkpt lat="42.97866" lon="1.0173">
        <ele>1098</ele>
        <time>2025-09-20T10:12:01.000Z</time>
      </trkpt>
      <trkpt lat="42.97866" lon="1.01733">
        <ele>1099</ele>
        <time>2025-09-20T10:12:02.000Z</time>
      </trkpt>
      <trkpt lat="42.97864" lon="1.01737">
        <ele>1098</ele>
        <time>2025-09-20T10:12:03.000Z</time>
      </trkpt>
      <trkpt lat="42.97864" lon="1.01742">
        <ele>1099</ele>
        <time>2025-09-20T10:12:04.000Z</time>
      </trkpt>
      <trkpt lat="42.97863" lon="1.01746">
        <ele>1100</ele>
        <time>2025-09-20T10:12:05.000Z</time>
      </trkpt>
      <trkpt lat="42.97862" lon="1.0175">
        <ele>1100</ele>
        <time>2025-09-20T10:12:06.000Z</time>
      </trkpt>
      <trkpt lat="42.9786" lon="1.01754">
        <ele>1099</ele>
        <time>2025-09-20T10:12:07.000Z</time>
      </trkpt>
      <trkpt lat="42.9786" lon="1.01758">
        <ele>1099</ele>
        <time>2025-09-20T10:12:08.000Z</time>
      </trkpt>
      <trkpt lat="42.97859" lon="1.01762">
        <ele>1100</ele>
        <time>2025-09-20T10:12:09.000Z</time>
      </trkpt>
      <trkpt lat="42.97858" lon="1.01766">
        <ele>1101</ele>
        <time>2025-09-20T10:12:10.000Z</time>
      </trkpt>
      <trkpt lat="42.97857" lon="1.0177">
        <ele>1101</ele>
        <time>2025-09-20T10:12:11.000Z</time>
      </trkpt>
      <trkpt lat="42.97856" lon="1.01774">
        <ele>1102</ele>
        <time>2025-09-20T10:12:12.000Z</time>
      </trkpt>
      <trkpt lat="42.97855" lon="1.01778">
        <ele>1103</ele>
        <time>2025-09-20T10:12:13.000Z</time>
      </trkpt>
      <trkpt lat="42.97854" lon="1.01781">
        <ele>1103</ele>
        <time>2025-09-20T10:12:14.000Z</time>
      </trkpt>
      <trkpt lat="42.97853" lon="1.01785">
        <ele>1103</ele>
        <time>2025-09-20T10:12:15.000Z</time>
      </trkpt>
      <trkpt lat="42.97852" lon="1.01789">
        <ele>1103</ele>
        <time>2025-09-20T10:12:16.000Z</time>
      </trkpt>
      <trkpt lat="42.97852" lon="1.01794">
        <ele>1102</ele>
        <time>2025-09-20T10:12:17.000Z</time>
      </trkpt>
      <trkpt lat="42.97851" lon="1.01798">
        <ele>1103</ele>
        <time>2025-09-20T10:12:18.000Z</time>
      </trkpt>
      <trkpt lat="42.9785" lon="1.01802">
        <ele>1102</ele>
        <time>2025-09-20T10:12:19.000Z</time>
      </trkpt>
      <trkpt lat="42.97848" lon="1.01807">
        <ele>1102</ele>
        <time>2025-09-20T10:12:20.000Z</time>
      </trkpt>
      <trkpt lat="42.97847" lon="1.01812">
        <ele>1102</ele>
        <time>2025-09-20T10:12:21.000Z</time>
      </trkpt>
      <trkpt lat="42.97845" lon="1.01817">
        <ele>1102</ele>
        <time>2025-09-20T10:12:22.000Z</time>
      </trkpt>
      <trkpt lat="42.97845" lon="1.01822">
        <ele>1102</ele>
        <time>2025-09-20T10:12:23.000Z</time>
      </trkpt>
      <trkpt lat="42.97844" lon="1.01827">
        <ele>1102</ele>
        <time>2025-09-20T10:12:24.000Z</time>
      </trkpt>
      <trkpt lat="42.97843" lon="1.01831">
        <ele>1103</ele>
        <time>2025-09-20T10:12:25.000Z</time>
      </trkpt>
      <trkpt lat="42.97842" lon="1.01835">
        <ele>1103</ele>
        <time>2025-09-20T10:12:26.000Z</time>
      </trkpt>
      <trkpt lat="42.97841" lon="1.01839">
        <ele>1104</ele>
        <time>2025-09-20T10:12:27.000Z</time>
      </trkpt>
      <trkpt lat="42.9784" lon="1.01844">
        <ele>1104</ele>
        <time>2025-09-20T10:12:28.000Z</time>
      </trkpt>
      <trkpt lat="42.97838" lon="1.01848">
        <ele>1104</ele>
        <time>2025-09-20T10:12:29.000Z</time>
      </trkpt>
      <trkpt lat="42.97837" lon="1.01852">
        <ele>1103</ele>
        <time>2025-09-20T10:12:30.000Z</time>
      </trkpt>
      <trkpt lat="42.97836" lon="1.01857">
        <ele>1103</ele>
        <time>2025-09-20T10:12:31.000Z</time>
      </trkpt>
      <trkpt lat="42.97836" lon="1.01862">
        <ele>1103</ele>
        <time>2025-09-20T10:12:32.000Z</time>
      </trkpt>
      <trkpt lat="42.97835" lon="1.01867">
        <ele>1104</ele>
        <time>2025-09-20T10:12:33.000Z</time>
      </trkpt>
      <trkpt lat="42.97834" lon="1.01872">
        <ele>1104</ele>
        <time>2025-09-20T10:12:34.000Z</time>
      </trkpt>
      <trkpt lat="42.97834" lon="1.01877">
        <ele>1104</ele>
        <time>2025-09-20T10:12:35.000Z</time>
      </trkpt>
      <trkpt lat="42.97834" lon="1.01881">
        <ele>1104</ele>
        <time>2025-09-20T10:12:36.000Z</time>
      </trkpt>
      <trkpt lat="42.97834" lon="1.01885">
        <ele>1105</ele>
        <time>2025-09-20T10:12:37.000Z</time>
      </trkpt>
      <trkpt lat="42.97834" lon="1.0189">
        <ele>1105</ele>
        <time>2025-09-20T10:12:38.000Z</time>
      </trkpt>
      <trkpt lat="42.97834" lon="1.01894">
        <ele>1105</ele>
        <time>2025-09-20T10:12:39.000Z</time>
      </trkpt>
      <trkpt lat="42.97833" lon="1.01898">
        <ele>1106</ele>
        <time>2025-09-20T10:12:40.000Z</time>
      </trkpt>
      <trkpt lat="42.97832" lon="1.01902">
        <ele>1106</ele>
        <time>2025-09-20T10:12:41.000Z</time>
      </trkpt>
      <trkpt lat="42.9783" lon="1.01907">
        <ele>1106</ele>
        <time>2025-09-20T10:12:42.000Z</time>
      </trkpt>
      <trkpt lat="42.97828" lon="1.01911">
        <ele>1106</ele>
        <time>2025-09-20T10:12:43.000Z</time>
      </trkpt>
      <trkpt lat="42.97827" lon="1.01915">
        <ele>1106</ele>
        <time>2025-09-20T10:12:44.000Z</time>
      </trkpt>
      <trkpt lat="42.97825" lon="1.01919">
        <ele>1107</ele>
        <time>2025-09-20T10:12:45.000Z</time>
      </trkpt>
      <trkpt lat="42.97824" lon="1.01923">
        <ele>1108</ele>
        <time>2025-09-20T10:12:46.000Z</time>
      </trkpt>
      <trkpt lat="42.97822" lon="1.01927">
        <ele>1108</ele>
        <time>2025-09-20T10:12:47.000Z</time>
      </trkpt>
      <trkpt lat="42.97821" lon="1.01931">
        <ele>1108</ele>
        <time>2025-09-20T10:12:48.000Z</time>
      </trkpt>
      <trkpt lat="42.97821" lon="1.01936">
        <ele>1108</ele>
        <time>2025-09-20T10:12:49.000Z</time>
      </trkpt>
      <trkpt lat="42.97821" lon="1.01941">
        <ele>1108</ele>
        <time>2025-09-20T10:12:50.000Z</time>
      </trkpt>
      <trkpt lat="42.97822" lon="1.01946">
        <ele>1109</ele>
        <time>2025-09-20T10:12:51.000Z</time>
      </trkpt>
      <trkpt lat="42.97824" lon="1.0195">
        <ele>1109</ele>
        <time>2025-09-20T10:12:52.000Z</time>
      </trkpt>
      <trkpt lat="42.97827" lon="1.01954">
        <ele>1108</ele>
        <time>2025-09-20T10:12:53.000Z</time>
      </trkpt>
      <trkpt lat="42.9783" lon="1.01957">
        <ele>1108</ele>
        <time>2025-09-20T10:12:54.000Z</time>
      </trkpt>
      <trkpt lat="42.97832" lon="1.0196">
        <ele>1109</ele>
        <time>2025-09-20T10:12:55.000Z</time>
      </trkpt>
      <trkpt lat="42.97835" lon="1.01962">
        <ele>1109</ele>
        <time>2025-09-20T10:12:56.000Z</time>
      </trkpt>
      <trkpt lat="42.97837" lon="1.01964">
        <ele>1108</ele>
        <time>2025-09-20T10:12:57.000Z</time>
      </trkpt>
      <trkpt lat="42.97838" lon="1.01964">
        <ele>1108</ele>
        <time>2025-09-20T10:12:58.000Z</time>
      </trkpt>
      <trkpt lat="42.97838" lon="1.01963">
        <ele>1105</ele>
        <time>2025-09-20T10:13:45.000Z</time>
      </trkpt>
      <trkpt lat="42.97838" lon="1.01965">
        <ele>1105</ele>
        <time>2025-09-20T10:13:46.000Z</time>
      </trkpt>
      <trkpt lat="42.97839" lon="1.01967">
        <ele>1105</ele>
        <time>2025-09-20T10:13:47.000Z</time>
      </trkpt>
      <trkpt lat="42.9784" lon="1.01969">
        <ele>1105</ele>
        <time>2025-09-20T10:13:48.000Z</time>
      </trkpt>
      <trkpt lat="42.97841" lon="1.01972">
        <ele>1106</ele>
        <time>2025-09-20T10:13:49.000Z</time>
      </trkpt>
      <trkpt lat="42.97841" lon="1.01975">
        <ele>1107</ele>
        <time>2025-09-20T10:13:50.000Z</time>
      </trkpt>
      <trkpt lat="42.97841" lon="1.01977">
        <ele>1107</ele>
        <time>2025-09-20T10:13:51.000Z</time>
      </trkpt>
      <trkpt lat="42.9784" lon="1.0198">
        <ele>1107</ele>
        <time>2025-09-20T10:13:52.000Z</time>
      </trkpt>
      <trkpt lat="42.9784" lon="1.01982">
        <ele>1107</ele>
        <time>2025-09-20T10:13:53.000Z</time>
      </trkpt>
      <trkpt lat="42.9784" lon="1.01984">
        <ele>1107</ele>
        <time>2025-09-20T10:13:54.000Z</time>
      </trkpt>
      <trkpt lat="42.97839" lon="1.01987">
        <ele>1107</ele>
        <time>2025-09-20T10:13:55.000Z</time>
      </trkpt>
      <trkpt lat="42.97839" lon="1.0199">
        <ele>1107</ele>
        <time>2025-09-20T10:13:56.000Z</time>
      </trkpt>
      <trkpt lat="42.97838" lon="1.01994">
        <ele>1107</ele>
        <time>2025-09-20T10:13:57.000Z</time>
      </trkpt>
      <trkpt lat="42.97837" lon="1.01997">
        <ele>1108</ele>
        <time>2025-09-20T10:13:58.000Z</time>
      </trkpt>
      <trkpt lat="42.97836" lon="1.02002">
        <ele>1109</ele>
        <time>2025-09-20T10:13:59.000Z</time>
      </trkpt>
      <trkpt lat="42.97834" lon="1.02006">
        <ele>1110</ele>
        <time>2025-09-20T10:14:00.000Z</time>
      </trkpt>
      <trkpt lat="42.97834" lon="1.02009">
        <ele>1110</ele>
        <time>2025-09-20T10:14:01.000Z</time>
      </trkpt>
      <trkpt lat="42.97833" lon="1.02013">
        <ele>1110</ele>
        <time>2025-09-20T10:14:02.000Z</time>
      </trkpt>
      <trkpt lat="42.97832" lon="1.02016">
        <ele>1110</ele>
        <time>2025-09-20T10:14:03.000Z</time>
      </trkpt>
      <trkpt lat="42.97832" lon="1.0202">
        <ele>1111</ele>
        <time>2025-09-20T10:14:04.000Z</time>
      </trkpt>
      <trkpt lat="42.97832" lon="1.02024">
        <ele>1111</ele>
        <time>2025-09-20T10:14:05.000Z</time>
      </trkpt>
      <trkpt lat="42.97831" lon="1.02027">
        <ele>1112</ele>
        <time>2025-09-20T10:14:06.000Z</time>
      </trkpt>
      <trkpt lat="42.9783" lon="1.02031">
        <ele>1112</ele>
        <time>2025-09-20T10:14:07.000Z</time>
      </trkpt>
      <trkpt lat="42.97829" lon="1.02035">
        <ele>1112</ele>
        <time>2025-09-20T10:14:08.000Z</time>
      </trkpt>
      <trkpt lat="42.97829" lon="1.02038">
        <ele>1113</ele>
        <time>2025-09-20T10:14:09.000Z</time>
      </trkpt>
      <trkpt lat="42.97828" lon="1.02043">
        <ele>1113</ele>
        <time>2025-09-20T10:14:10.000Z</time>
      </trkpt>
      <trkpt lat="42.97828" lon="1.02047">
        <ele>1113</ele>
        <time>2025-09-20T10:14:11.000Z</time>
      </trkpt>
      <trkpt lat="42.97828" lon="1.02051">
        <ele>1112</ele>
        <time>2025-09-20T10:14:12.000Z</time>
      </trkpt>
      <trkpt lat="42.97828" lon="1.02056">
        <ele>1112</ele>
        <time>2025-09-20T10:14:13.000Z</time>
      </trkpt>
      <trkpt lat="42.97828" lon="1.0206">
        <ele>1112</ele>
        <time>2025-09-20T10:14:14.000Z</time>
      </trkpt>
      <trkpt lat="42.97827" lon="1.02064">
        <ele>1111</ele>
        <time>2025-09-20T10:14:15.000Z</time>
      </trkpt>
      <trkpt lat="42.97828" lon="1.02067">
        <ele>1111</ele>
        <time>2025-09-20T10:14:16.000Z</time>
      </trkpt>
      <trkpt lat="42.97827" lon="1.02072">
        <ele>1111</ele>
        <time>2025-09-20T10:14:17.000Z</time>
      </trkpt>
      <trkpt lat="42.97828" lon="1.02075">
        <ele>1111</ele>
        <time>2025-09-20T10:14:18.000Z</time>
      </trkpt>
      <trkpt lat="42.97829" lon="1.02078">
        <ele>1112</ele>
        <time>2025-09-20T10:14:19.000Z</time>
      </trkpt>
      <trkpt lat="42.97828" lon="1.02081">
        <ele>1113</ele>
        <time>2025-09-20T10:14:20.000Z</time>
      </trkpt>
      <trkpt lat="42.97828" lon="1.02085">
        <ele>1113</ele>
        <time>2025-09-20T10:14:21.000Z</time>
      </trkpt>
      <trkpt lat="42.97828" lon="1.02089">
        <ele>1113</ele>
        <time>2025-09-20T10:14:22.000Z</time>
      </trkpt>
      <trkpt lat="42.97828" lon="1.02093">
        <ele>1114</ele>
        <time>2025-09-20T10:14:23.000Z</time>
      </trkpt>
      <trkpt lat="42.97827" lon="1.02097">
        <ele>1115</ele>
        <time>2025-09-20T10:14:24.000Z</time>
      </trkpt>
      <trkpt lat="42.97827" lon="1.02101">
        <ele>1115</ele>
        <time>2025-09-20T10:14:25.000Z</time>
      </trkpt>
      <trkpt lat="42.97827" lon="1.02106">
        <ele>1115</ele>
        <time>2025-09-20T10:14:26.000Z</time>
      </trkpt>
      <trkpt lat="42.97826" lon="1.02111">
        <ele>1115</ele>
        <time>2025-09-20T10:14:27.000Z</time>
      </trkpt>
      <trkpt lat="42.97826" lon="1.02115">
        <ele>1116</ele>
        <time>2025-09-20T10:14:28.000Z</time>
      </trkpt>
      <trkpt lat="42.97826" lon="1.0212">
        <ele>1116</ele>
        <time>2025-09-20T10:14:29.000Z</time>
      </trkpt>
      <trkpt lat="42.97825" lon="1.02124">
        <ele>1116</ele>
        <time>2025-09-20T10:14:30.000Z</time>
      </trkpt>
      <trkpt lat="42.97825" lon="1.02128">
        <ele>1116</ele>
        <time>2025-09-20T10:14:31.000Z</time>
      </trkpt>
      <trkpt lat="42.97825" lon="1.02132">
        <ele>1116</ele>
        <time>2025-09-20T10:14:32.000Z</time>
      </trkpt>
      <trkpt lat="42.97824" lon="1.02136">
        <ele>1116</ele>
        <time>2025-09-20T10:14:33.000Z</time>
      </trkpt>
      <trkpt lat="42.97824" lon="1.0214">
        <ele>1115</ele>
        <time>2025-09-20T10:14:34.000Z</time>
      </trkpt>
      <trkpt lat="42.97824" lon="1.02143">
        <ele>1114</ele>
        <time>2025-09-20T10:14:35.000Z</time>
      </trkpt>
      <trkpt lat="42.97825" lon="1.02147">
        <ele>1114</ele>
        <time>2025-09-20T10:14:36.000Z</time>
      </trkpt>
      <trkpt lat="42.97825" lon="1.02151">
        <ele>1114</ele>
        <time>2025-09-20T10:14:37.000Z</time>
      </trkpt>
      <trkpt lat="42.97824" lon="1.02155">
        <ele>1114</ele>
        <time>2025-09-20T10:14:38.000Z</time>
      </trkpt>
      <trkpt lat="42.97824" lon="1.02159">
        <ele>1113</ele>
        <time>2025-09-20T10:14:39.000Z</time>
      </trkpt>
      <trkpt lat="42.97824" lon="1.02164">
        <ele>1114</ele>
        <time>2025-09-20T10:14:40.000Z</time>
      </trkpt>
      <trkpt lat="42.97823" lon="1.02169">
        <ele>1114</ele>
        <time>2025-09-20T10:14:41.000Z</time>
      </trkpt>
      <trkpt lat="42.97823" lon="1.02174">
        <ele>1115</ele>
        <time>2025-09-20T10:14:42.000Z</time>
      </trkpt>
      <trkpt lat="42.97822" lon="1.02178">
        <ele>1115</ele>
        <time>2025-09-20T10:14:43.000Z</time>
      </trkpt>
      <trkpt lat="42.97822" lon="1.02184">
        <ele>1114</ele>
        <time>2025-09-20T10:14:44.000Z</time>
      </trkpt>
      <trkpt lat="42.97821" lon="1.02191">
        <ele>1114</ele>
        <time>2025-09-20T10:14:45.000Z</time>
      </trkpt>
      <trkpt lat="42.9782" lon="1.02199">
        <ele>1115</ele>
        <time>2025-09-20T10:14:46.000Z</time>
      </trkpt>
      <trkpt lat="42.97819" lon="1.02206">
        <ele>1114</ele>
        <time>2025-09-20T10:14:47.000Z</time>
      </trkpt>
      <trkpt lat="42.97818" lon="1.02213">
        <ele>1113</ele>
        <time>2025-09-20T10:14:48.000Z</time>
      </trkpt>
      <trkpt lat="42.97816" lon="1.0222">
        <ele>1112</ele>
        <time>2025-09-20T10:14:49.000Z</time>
      </trkpt>
      <trkpt lat="42.97811" lon="1.02225">
        <ele>1111</ele>
        <time>2025-09-20T10:14:50.000Z</time>
      </trkpt>
      <trkpt lat="42.97807" lon="1.02229">
        <ele>1111</ele>
        <time>2025-09-20T10:14:51.000Z</time>
      </trkpt>
      <trkpt lat="42.97803" lon="1.02235">
        <ele>1111</ele>
        <time>2025-09-20T10:14:52.000Z</time>
      </trkpt>
      <trkpt lat="42.97799" lon="1.02241">
        <ele>1110</ele>
        <time>2025-09-20T10:14:53.000Z</time>
      </trkpt>
      <trkpt lat="42.97794" lon="1.02249">
        <ele>1110</ele>
        <time>2025-09-20T10:14:54.000Z</time>
      </trkpt>
      <trkpt lat="42.9779" lon="1.02255">
        <ele>1110</ele>
        <time>2025-09-20T10:14:55.000Z</time>
      </trkpt>
      <trkpt lat="42.97786" lon="1.02261">
        <ele>1110</ele>
        <time>2025-09-20T10:14:56.000Z</time>
      </trkpt>
      <trkpt lat="42.97782" lon="1.02267">
        <ele>1111</ele>
        <time>2025-09-20T10:14:57.000Z</time>
      </trkpt>
      <trkpt lat="42.97778" lon="1.02272">
        <ele>1111</ele>
        <time>2025-09-20T10:14:58.000Z</time>
      </trkpt>
      <trkpt lat="42.97774" lon="1.02278">
        <ele>1112</ele>
        <time>2025-09-20T10:14:59.000Z</time>
      </trkpt>
      <trkpt lat="42.97769" lon="1.02283">
        <ele>1111</ele>
        <time>2025-09-20T10:15:00.000Z</time>
      </trkpt>
      <trkpt lat="42.97763" lon="1.02289">
        <ele>1110</ele>
        <time>2025-09-20T10:15:01.000Z</time>
      </trkpt>
      <trkpt lat="42.97757" lon="1.02294">
        <ele>1110</ele>
        <time>2025-09-20T10:15:02.000Z</time>
      </trkpt>
      <trkpt lat="42.97751" lon="1.023">
        <ele>1110</ele>
        <time>2025-09-20T10:15:03.000Z</time>
      </trkpt>
      <trkpt lat="42.97743" lon="1.02306">
        <ele>1109</ele>
        <time>2025-09-20T10:15:04.000Z</time>
      </trkpt>
      <trkpt lat="42.97736" lon="1.02313">
        <ele>1108</ele>
        <time>2025-09-20T10:15:05.000Z</time>
      </trkpt>
      <trkpt lat="42.97729" lon="1.0232">
        <ele>1108</ele>
        <time>2025-09-20T10:15:06.000Z</time>
      </trkpt>
      <trkpt lat="42.97723" lon="1.02329">
        <ele>1107</ele>
        <time>2025-09-20T10:15:07.000Z</time>
      </trkpt>
      <trkpt lat="42.97717" lon="1.02337">
        <ele>1107</ele>
        <time>2025-09-20T10:15:08.000Z</time>
      </trkpt>
      <trkpt lat="42.97712" lon="1.02345">
        <ele>1106</ele>
        <time>2025-09-20T10:15:09.000Z</time>
      </trkpt>
      <trkpt lat="42.97707" lon="1.02352">
        <ele>1105</ele>
        <time>2025-09-20T10:15:10.000Z</time>
      </trkpt>
      <trkpt lat="42.97702" lon="1.02357">
        <ele>1104</ele>
        <time>2025-09-20T10:15:11.000Z</time>
      </trkpt>
      <trkpt lat="42.97696" lon="1.0236">
        <ele>1103</ele>
        <time>2025-09-20T10:15:12.000Z</time>
      </trkpt>
      <trkpt lat="42.97691" lon="1.02363">
        <ele>1102</ele>
        <time>2025-09-20T10:15:13.000Z</time>
      </trkpt>
      <trkpt lat="42.97686" lon="1.02365">
        <ele>1101</ele>
        <time>2025-09-20T10:15:14.000Z</time>
      </trkpt>
      <trkpt lat="42.97682" lon="1.02368">
        <ele>1101</ele>
        <time>2025-09-20T10:15:15.000Z</time>
      </trkpt>
      <trkpt lat="42.97678" lon="1.02372">
        <ele>1101</ele>
        <time>2025-09-20T10:15:16.000Z</time>
      </trkpt>
      <trkpt lat="42.97675" lon="1.02376">
        <ele>1101</ele>
        <time>2025-09-20T10:15:17.000Z</time>
      </trkpt>
      <trkpt lat="42.97672" lon="1.02379">
        <ele>1100</ele>
        <time>2025-09-20T10:15:18.000Z</time>
      </trkpt>
      <trkpt lat="42.97669" lon="1.02383">
        <ele>1100</ele>
        <time>2025-09-20T10:15:19.000Z</time>
      </trkpt>
      <trkpt lat="42.97668" lon="1.02386">
        <ele>1100</ele>
        <time>2025-09-20T10:15:20.000Z</time>
      </trkpt>
      <trkpt lat="42.97666" lon="1.0239">
        <ele>1100</ele>
        <time>2025-09-20T10:15:21.000Z</time>
      </trkpt>
      <trkpt lat="42.97664" lon="1.02395">
        <ele>1099</ele>
        <time>2025-09-20T10:15:22.000Z</time>
      </trkpt>
      <trkpt lat="42.97663" lon="1.024">
        <ele>1098</ele>
        <time>2025-09-20T10:15:23.000Z</time>
      </trkpt>
      <trkpt lat="42.97662" lon="1.02406">
        <ele>1097</ele>
        <time>2025-09-20T10:15:24.000Z</time>
      </trkpt>
      <trkpt lat="42.97661" lon="1.02412">
        <ele>1098</ele>
        <time>2025-09-20T10:15:25.000Z</time>
      </trkpt>
      <trkpt lat="42.97658" lon="1.02416">
        <ele>1098</ele>
        <time>2025-09-20T10:15:26.000Z</time>
      </trkpt>
      <trkpt lat="42.97651" lon="1.02421">
        <ele>1096</ele>
        <time>2025-09-20T10:15:27.000Z</time>
      </trkpt>
      <trkpt lat="42.97645" lon="1.02424">
        <ele>1094</ele>
        <time>2025-09-20T10:15:28.000Z</time>
      </trkpt>
      <trkpt lat="42.9764" lon="1.02426">
        <ele>1093</ele>
        <time>2025-09-20T10:15:29.000Z</time>
      </trkpt>
      <trkpt lat="42.97634" lon="1.02428">
        <ele>1092</ele>
        <time>2025-09-20T10:15:30.000Z</time>
      </trkpt>
      <trkpt lat="42.9763" lon="1.0243">
        <ele>1092</ele>
        <time>2025-09-20T10:15:31.000Z</time>
      </trkpt>
      <trkpt lat="42.97624" lon="1.02432">
        <ele>1093</ele>
        <time>2025-09-20T10:15:32.000Z</time>
      </trkpt>
      <trkpt lat="42.97619" lon="1.02433">
        <ele>1093</ele>
        <time>2025-09-20T10:15:33.000Z</time>
      </trkpt>
      <trkpt lat="42.97615" lon="1.02434">
        <ele>1093</ele>
        <time>2025-09-20T10:15:34.000Z</time>
      </trkpt>
      <trkpt lat="42.97611" lon="1.02434">
        <ele>1093</ele>
        <time>2025-09-20T10:15:35.000Z</time>
      </trkpt>
      <trkpt lat="42.97607" lon="1.02435">
        <ele>1093</ele>
        <time>2025-09-20T10:15:36.000Z</time>
      </trkpt>
      <trkpt lat="42.97603" lon="1.02436">
        <ele>1094</ele>
        <time>2025-09-20T10:15:37.000Z</time>
      </trkpt>
      <trkpt lat="42.976" lon="1.02436">
        <ele>1094</ele>
        <time>2025-09-20T10:15:38.000Z</time>
      </trkpt>
      <trkpt lat="42.97597" lon="1.02437">
        <ele>1094</ele>
        <time>2025-09-20T10:15:39.000Z</time>
      </trkpt>
      <trkpt lat="42.97594" lon="1.02438">
        <ele>1094</ele>
        <time>2025-09-20T10:15:40.000Z</time>
      </trkpt>
      <trkpt lat="42.9759" lon="1.02438">
        <ele>1094</ele>
        <time>2025-09-20T10:15:41.000Z</time>
      </trkpt>
      <trkpt lat="42.97587" lon="1.02439">
        <ele>1095</ele>
        <time>2025-09-20T10:15:42.000Z</time>
      </trkpt>
      <trkpt lat="42.97584" lon="1.02439">
        <ele>1096</ele>
        <time>2025-09-20T10:15:43.000Z</time>
      </trkpt>
      <trkpt lat="42.9758" lon="1.0244">
        <ele>1096</ele>
        <time>2025-09-20T10:15:44.000Z</time>
      </trkpt>
      <trkpt lat="42.97577" lon="1.02442">
        <ele>1096</ele>
        <time>2025-09-20T10:15:45.000Z</time>
      </trkpt>
      <trkpt lat="42.97574" lon="1.02443">
        <ele>1097</ele>
        <time>2025-09-20T10:15:46.000Z</time>
      </trkpt>
      <trkpt lat="42.97571" lon="1.02445">
        <ele>1097</ele>
        <time>2025-09-20T10:15:47.000Z</time>
      </trkpt>
      <trkpt lat="42.97568" lon="1.02446">
        <ele>1096</ele>
        <time>2025-09-20T10:15:48.000Z</time>
      </trkpt>
      <trkpt lat="42.97566" lon="1.02448">
        <ele>1097</ele>
        <time>2025-09-20T10:15:49.000Z</time>
      </trkpt>
      <trkpt lat="42.97563" lon="1.02449">
        <ele>1097</ele>
        <time>2025-09-20T10:15:50.000Z</time>
      </trkpt>
      <trkpt lat="42.97562" lon="1.0245">
        <ele>1097</ele>
        <time>2025-09-20T10:15:51.000Z</time>
      </trkpt>
      <trkpt lat="42.97559" lon="1.0245">
        <ele>1096</ele>
        <time>2025-09-20T10:15:52.000Z</time>
      </trkpt>
      <trkpt lat="42.97557" lon="1.02451">
        <ele>1097</ele>
        <time>2025-09-20T10:15:53.000Z</time>
      </trkpt>
      <trkpt lat="42.97555" lon="1.02451">
        <ele>1097</ele>
        <time>2025-09-20T10:15:54.000Z</time>
      </trkpt>
      <trkpt lat="42.97553" lon="1.02453">
        <ele>1097</ele>
        <time>2025-09-20T10:15:55.000Z</time>
      </trkpt>
      <trkpt lat="42.97552" lon="1.02455">
        <ele>1097</ele>
        <time>2025-09-20T10:15:56.000Z</time>
      </trkpt>
      <trkpt lat="42.97551" lon="1.02456">
        <ele>1097</ele>
        <time>2025-09-20T10:15:57.000Z</time>
      </trkpt>
      <trkpt lat="42.9755" lon="1.02457">
        <ele>1098</ele>
        <time>2025-09-20T10:15:58.000Z</time>
      </trkpt>
      <trkpt lat="42.97549" lon="1.02457">
        <ele>1098</ele>
        <time>2025-09-20T10:15:59.000Z</time>
      </trkpt>
      <trkpt lat="42.97548" lon="1.02456">
        <ele>1099</ele>
        <time>2025-09-20T10:16:00.000Z</time>
      </trkpt>
      <trkpt lat="42.97546" lon="1.02455">
        <ele>1099</ele>
        <time>2025-09-20T10:16:20.000Z</time>
      </trkpt>
      <trkpt lat="42.97545" lon="1.02455">
        <ele>1100</ele>
        <time>2025-09-20T10:16:21.000Z</time>
      </trkpt>
      <trkpt lat="42.97544" lon="1.02455">
        <ele>1100</ele>
        <time>2025-09-20T10:16:22.000Z</time>
      </trkpt>
      <trkpt lat="42.97542" lon="1.02455">
        <ele>1100</ele>
        <time>2025-09-20T10:16:23.000Z</time>
      </trkpt>
      <trkpt lat="42.97541" lon="1.02455">
        <ele>1100</ele>
        <time>2025-09-20T10:16:24.000Z</time>
      </trkpt>
      <trkpt lat="42.97539" lon="1.02455">
        <ele>1101</ele>
        <time>2025-09-20T10:16:25.000Z</time>
      </trkpt>
      <trkpt lat="42.97537" lon="1.02456">
        <ele>1101</ele>
        <time>2025-09-20T10:16:26.000Z</time>
      </trkpt>
      <trkpt lat="42.97534" lon="1.02455">
        <ele>1101</ele>
        <time>2025-09-20T10:16:27.000Z</time>
      </trkpt>
      <trkpt lat="42.97532" lon="1.02455">
        <ele>1101</ele>
        <time>2025-09-20T10:16:28.000Z</time>
      </trkpt>
      <trkpt lat="42.97529" lon="1.02455">
        <ele>1101</ele>
        <time>2025-09-20T10:16:29.000Z</time>
      </trkpt>
      <trkpt lat="42.97526" lon="1.02456">
        <ele>1101</ele>
        <time>2025-09-20T10:16:30.000Z</time>
      </trkpt>
      <trkpt lat="42.97524" lon="1.02456">
        <ele>1102</ele>
        <time>2025-09-20T10:16:31.000Z</time>
      </trkpt>
      <trkpt lat="42.97523" lon="1.02457">
        <ele>1102</ele>
        <time>2025-09-20T10:16:32.000Z</time>
      </trkpt>
      <trkpt lat="42.9752" lon="1.02457">
        <ele>1102</ele>
        <time>2025-09-20T10:16:33.000Z</time>
      </trkpt>
      <trkpt lat="42.97518" lon="1.02457">
        <ele>1102</ele>
        <time>2025-09-20T10:16:34.000Z</time>
      </trkpt>
      <trkpt lat="42.97516" lon="1.02457">
        <ele>1103</ele>
        <time>2025-09-20T10:16:35.000Z</time>
      </trkpt>
      <trkpt lat="42.97514" lon="1.02457">
        <ele>1103</ele>
        <time>2025-09-20T10:16:36.000Z</time>
      </trkpt>
      <trkpt lat="42.97511" lon="1.02458">
        <ele>1103</ele>
        <time>2025-09-20T10:16:37.000Z</time>
      </trkpt>
      <trkpt lat="42.97509" lon="1.02459">
        <ele>1103</ele>
        <time>2025-09-20T10:16:38.000Z</time>
      </trkpt>
      <trkpt lat="42.97507" lon="1.0246">
        <ele>1103</ele>
        <time>2025-09-20T10:16:39.000Z</time>
      </trkpt>
      <trkpt lat="42.97504" lon="1.02461">
        <ele>1103</ele>
        <time>2025-09-20T10:16:40.000Z</time>
      </trkpt>
      <trkpt lat="42.97502" lon="1.02461">
        <ele>1103</ele>
        <time>2025-09-20T10:16:41.000Z</time>
      </trkpt>
      <trkpt lat="42.97499" lon="1.02461">
        <ele>1104</ele>
        <time>2025-09-20T10:16:42.000Z</time>
      </trkpt>
      <trkpt lat="42.97495" lon="1.02462">
        <ele>1104</ele>
        <time>2025-09-20T10:16:43.000Z</time>
      </trkpt>
      <trkpt lat="42.97492" lon="1.02462">
        <ele>1104</ele>
        <time>2025-09-20T10:16:44.000Z</time>
      </trkpt>
      <trkpt lat="42.9749" lon="1.02463">
        <ele>1105</ele>
        <time>2025-09-20T10:16:45.000Z</time>
      </trkpt>
      <trkpt lat="42.97488" lon="1.02464">
        <ele>1106</ele>
        <time>2025-09-20T10:16:46.000Z</time>
      </trkpt>
      <trkpt lat="42.97486" lon="1.02465">
        <ele>1105</ele>
        <time>2025-09-20T10:16:47.000Z</time>
      </trkpt>
      <trkpt lat="42.97485" lon="1.02465">
        <ele>1106</ele>
        <time>2025-09-20T10:16:48.000Z</time>
      </trkpt>
      <trkpt lat="42.97483" lon="1.02465">
        <ele>1106</ele>
        <time>2025-09-20T10:16:49.000Z</time>
      </trkpt>
      <trkpt lat="42.97482" lon="1.02464">
        <ele>1107</ele>
        <time>2025-09-20T10:16:50.000Z</time>
      </trkpt>
      <trkpt lat="42.97481" lon="1.02465">
        <ele>1107</ele>
        <time>2025-09-20T10:16:51.000Z</time>
      </trkpt>
      <trkpt lat="42.97479" lon="1.02466">
        <ele>1108</ele>
        <time>2025-09-20T10:16:52.000Z</time>
      </trkpt>
      <trkpt lat="42.97479" lon="1.02466">
        <ele>1108</ele>
        <time>2025-09-20T10:16:53.000Z</time>
      </trkpt>
      <trkpt lat="42.97479" lon="1.02465">
        <ele>1108</ele>
        <time>2025-09-20T10:16:54.000Z</time>
      </trkpt>
      <trkpt lat="42.97478" lon="1.02465">
        <ele>1108</ele>
        <time>2025-09-20T10:16:55.000Z</time>
      </trkpt>
      <trkpt lat="42.97477" lon="1.02464">
        <ele>1108</ele>
        <time>2025-09-20T10:16:56.000Z</time>
      </trkpt>
      <trkpt lat="42.97476" lon="1.02464">
        <ele>1108</ele>
        <time>2025-09-20T10:16:57.000Z</time>
      </trkpt>
      <trkpt lat="42.97475" lon="1.02464">
        <ele>1108</ele>
        <time>2025-09-20T10:16:58.000Z</time>
      </trkpt>
      <trkpt lat="42.97473" lon="1.02465">
        <ele>1107</ele>
        <time>2025-09-20T10:16:59.000Z</time>
      </trkpt>
      <trkpt lat="42.97469" lon="1.02466">
        <ele>1106</ele>
        <time>2025-09-20T10:17:00.000Z</time>
      </trkpt>
      <trkpt lat="42.97465" lon="1.02467">
        <ele>1108</ele>
        <time>2025-09-20T10:17:01.000Z</time>
      </trkpt>
      <trkpt lat="42.97462" lon="1.02469">
        <ele>1108</ele>
        <time>2025-09-20T10:17:02.000Z</time>
      </trkpt>
      <trkpt lat="42.97458" lon="1.02469">
        <ele>1110</ele>
        <time>2025-09-20T10:17:03.000Z</time>
      </trkpt>
      <trkpt lat="42.97455" lon="1.02468">
        <ele>1110</ele>
        <time>2025-09-20T10:17:04.000Z</time>
      </trkpt>
      <trkpt lat="42.97452" lon="1.02468">
        <ele>1110</ele>
        <time>2025-09-20T10:17:05.000Z</time>
      </trkpt>
      <trkpt lat="42.97449" lon="1.02467">
        <ele>1110</ele>
        <time>2025-09-20T10:17:06.000Z</time>
      </trkpt>
      <trkpt lat="42.97446" lon="1.02467">
        <ele>1110</ele>
        <time>2025-09-20T10:17:07.000Z</time>
      </trkpt>
      <trkpt lat="42.97444" lon="1.02468">
        <ele>1109</ele>
        <time>2025-09-20T10:17:08.000Z</time>
      </trkpt>
      <trkpt lat="42.97442" lon="1.02468">
        <ele>1109</ele>
        <time>2025-09-20T10:17:09.000Z</time>
      </trkpt>
      <trkpt lat="42.97439" lon="1.02468">
        <ele>1108</ele>
        <time>2025-09-20T10:17:10.000Z</time>
      </trkpt>
      <trkpt lat="42.97437" lon="1.02468">
        <ele>1108</ele>
        <time>2025-09-20T10:17:11.000Z</time>
      </trkpt>
      <trkpt lat="42.97433" lon="1.02468">
        <ele>1107</ele>
        <time>2025-09-20T10:17:12.000Z</time>
      </trkpt>
      <trkpt lat="42.9743" lon="1.02468">
        <ele>1107</ele>
        <time>2025-09-20T10:17:13.000Z</time>
      </trkpt>
      <trkpt lat="42.97427" lon="1.02468">
        <ele>1106</ele>
        <time>2025-09-20T10:17:14.000Z</time>
      </trkpt>
      <trkpt lat="42.97425" lon="1.02469">
        <ele>1107</ele>
        <time>2025-09-20T10:17:15.000Z</time>
      </trkpt>
      <trkpt lat="42.97421" lon="1.0247">
        <ele>1107</ele>
        <time>2025-09-20T10:17:16.000Z</time>
      </trkpt>
      <trkpt lat="42.97418" lon="1.02472">
        <ele>1108</ele>
        <time>2025-09-20T10:17:17.000Z</time>
      </trkpt>
      <trkpt lat="42.97416" lon="1.02474">
        <ele>1108</ele>
        <time>2025-09-20T10:17:18.000Z</time>
      </trkpt>
      <trkpt lat="42.97412" lon="1.02477">
        <ele>1108</ele>
        <time>2025-09-20T10:17:19.000Z</time>
      </trkpt>
      <trkpt lat="42.97409" lon="1.0248">
        <ele>1109</ele>
        <time>2025-09-20T10:17:20.000Z</time>
      </trkpt>
      <trkpt lat="42.97406" lon="1.02482">
        <ele>1109</ele>
        <time>2025-09-20T10:17:21.000Z</time>
      </trkpt>
      <trkpt lat="42.97404" lon="1.02484">
        <ele>1110</ele>
        <time>2025-09-20T10:17:22.000Z</time>
      </trkpt>
      <trkpt lat="42.97402" lon="1.02486">
        <ele>1110</ele>
        <time>2025-09-20T10:17:23.000Z</time>
      </trkpt>
      <trkpt lat="42.974" lon="1.02487">
        <ele>1110</ele>
        <time>2025-09-20T10:17:24.000Z</time>
      </trkpt>
      <trkpt lat="42.97398" lon="1.02489">
        <ele>1111</ele>
        <time>2025-09-20T10:17:25.000Z</time>
      </trkpt>
      <trkpt lat="42.97397" lon="1.02491">
        <ele>1111</ele>
        <time>2025-09-20T10:17:26.000Z</time>
      </trkpt>
      <trkpt lat="42.97396" lon="1.02493">
        <ele>1111</ele>
        <time>2025-09-20T10:17:27.000Z</time>
      </trkpt>
      <trkpt lat="42.97395" lon="1.02495">
        <ele>1111</ele>
        <time>2025-09-20T10:17:28.000Z</time>
      </trkpt>
      <trkpt lat="42.97394" lon="1.02497">
        <ele>1111</ele>
        <time>2025-09-20T10:17:29.000Z</time>
      </trkpt>
      <trkpt lat="42.97395" lon="1.02499">
        <ele>1111</ele>
        <time>2025-09-20T10:17:30.000Z</time>
      </trkpt>
      <trkpt lat="42.97393" lon="1.02499">
        <ele>1111</ele>
        <time>2025-09-20T10:18:10.000Z</time>
      </trkpt>
      <trkpt lat="42.97391" lon="1.02501">
        <ele>1111</ele>
        <time>2025-09-20T10:18:11.000Z</time>
      </trkpt>
      <trkpt lat="42.97389" lon="1.02501">
        <ele>1110</ele>
        <time>2025-09-20T10:18:12.000Z</time>
      </trkpt>
      <trkpt lat="42.97386" lon="1.02501">
        <ele>1109</ele>
        <time>2025-09-20T10:18:13.000Z</time>
      </trkpt>
      <trkpt lat="42.97383" lon="1.02501">
        <ele>1109</ele>
        <time>2025-09-20T10:18:14.000Z</time>
      </trkpt>
      <trkpt lat="42.97381" lon="1.02501">
        <ele>1108</ele>
        <time>2025-09-20T10:18:15.000Z</time>
      </trkpt>
      <trkpt lat="42.97378" lon="1.02504">
        <ele>1108</ele>
        <time>2025-09-20T10:18:16.000Z</time>
      </trkpt>
      <trkpt lat="42.97375" lon="1.02506">
        <ele>1106</ele>
        <time>2025-09-20T10:18:17.000Z</time>
      </trkpt>
      <trkpt lat="42.97372" lon="1.02506">
        <ele>1105</ele>
        <time>2025-09-20T10:18:18.000Z</time>
      </trkpt>
      <trkpt lat="42.97369" lon="1.02508">
        <ele>1105</ele>
        <time>2025-09-20T10:18:19.000Z</time>
      </trkpt>
      <trkpt lat="42.97367" lon="1.02511">
        <ele>1105</ele>
        <time>2025-09-20T10:18:20.000Z</time>
      </trkpt>
      <trkpt lat="42.97365" lon="1.02513">
        <ele>1105</ele>
        <time>2025-09-20T10:18:21.000Z</time>
      </trkpt>
      <trkpt lat="42.97362" lon="1.02517">
        <ele>1104</ele>
        <time>2025-09-20T10:18:22.000Z</time>
      </trkpt>
      <trkpt lat="42.9736" lon="1.02519">
        <ele>1104</ele>
        <time>2025-09-20T10:18:23.000Z</time>
      </trkpt>
      <trkpt lat="42.97358" lon="1.02522">
        <ele>1104</ele>
        <time>2025-09-20T10:18:24.000Z</time>
      </trkpt>
      <trkpt lat="42.97357" lon="1.02524">
        <ele>1104</ele>
        <time>2025-09-20T10:18:25.000Z</time>
      </trkpt>
      <trkpt lat="42.97356" lon="1.02527">
        <ele>1103</ele>
        <time>2025-09-20T10:18:26.000Z</time>
      </trkpt>
      <trkpt lat="42.97355" lon="1.02529">
        <ele>1103</ele>
        <time>2025-09-20T10:18:27.000Z</time>
      </trkpt>
      <trkpt lat="42.97353" lon="1.0253">
        <ele>1102</ele>
        <time>2025-09-20T10:18:28.000Z</time>
      </trkpt>
      <trkpt lat="42.97351" lon="1.02529">
        <ele>1101</ele>
        <time>2025-09-20T10:18:29.000Z</time>
      </trkpt>
      <trkpt lat="42.97351" lon="1.02527">
        <ele>1101</ele>
        <time>2025-09-20T10:18:30.000Z</time>
      </trkpt>
      <trkpt lat="42.97351" lon="1.02524">
        <ele>1100</ele>
        <time>2025-09-20T10:18:31.000Z</time>
      </trkpt>
      <trkpt lat="42.97351" lon="1.02519">
        <ele>1100</ele>
        <time>2025-09-20T10:18:32.000Z</time>
      </trkpt>
      <trkpt lat="42.97351" lon="1.02514">
        <ele>1099</ele>
        <time>2025-09-20T10:18:33.000Z</time>
      </trkpt>
      <trkpt lat="42.97351" lon="1.02509">
        <ele>1099</ele>
        <time>2025-09-20T10:18:34.000Z</time>
      </trkpt>
      <trkpt lat="42.97349" lon="1.02504">
        <ele>1097</ele>
        <time>2025-09-20T10:18:35.000Z</time>
      </trkpt>
      <trkpt lat="42.97346" lon="1.02502">
        <ele>1096</ele>
        <time>2025-09-20T10:18:36.000Z</time>
      </trkpt>
      <trkpt lat="42.97342" lon="1.02503">
        <ele>1096</ele>
        <time>2025-09-20T10:18:37.000Z</time>
      </trkpt>
      <trkpt lat="42.97341" lon="1.02506">
        <ele>1095</ele>
        <time>2025-09-20T10:18:38.000Z</time>
      </trkpt>
      <trkpt lat="42.97339" lon="1.02508">
        <ele>1095</ele>
        <time>2025-09-20T10:18:39.000Z</time>
      </trkpt>
      <trkpt lat="42.97338" lon="1.0251">
        <ele>1095</ele>
        <time>2025-09-20T10:18:40.000Z</time>
      </trkpt>
      <trkpt lat="42.97336" lon="1.02512">
        <ele>1094</ele>
        <time>2025-09-20T10:18:41.000Z</time>
      </trkpt>
      <trkpt lat="42.97335" lon="1.02514">
        <ele>1094</ele>
        <time>2025-09-20T10:18:42.000Z</time>
      </trkpt>
      <trkpt lat="42.97333" lon="1.02515">
        <ele>1093</ele>
        <time>2025-09-20T10:18:43.000Z</time>
      </trkpt>
      <trkpt lat="42.97332" lon="1.02517">
        <ele>1092</ele>
        <time>2025-09-20T10:18:44.000Z</time>
      </trkpt>
      <trkpt lat="42.9733" lon="1.02519">
        <ele>1091</ele>
        <time>2025-09-20T10:18:45.000Z</time>
      </trkpt>
      <trkpt lat="42.97328" lon="1.02521">
        <ele>1090</ele>
        <time>2025-09-20T10:18:46.000Z</time>
      </trkpt>
      <trkpt lat="42.97326" lon="1.02524">
        <ele>1090</ele>
        <time>2025-09-20T10:18:47.000Z</time>
      </trkpt>
      <trkpt lat="42.97324" lon="1.02526">
        <ele>1089</ele>
        <time>2025-09-20T10:18:48.000Z</time>
      </trkpt>
      <trkpt lat="42.97322" lon="1.02529">
        <ele>1088</ele>
        <time>2025-09-20T10:18:49.000Z</time>
      </trkpt>
      <trkpt lat="42.97319" lon="1.02532">
        <ele>1087</ele>
        <time>2025-09-20T10:18:50.000Z</time>
      </trkpt>
      <trkpt lat="42.97316" lon="1.02534">
        <ele>1086</ele>
        <time>2025-09-20T10:18:51.000Z</time>
      </trkpt>
      <trkpt lat="42.97313" lon="1.02537">
        <ele>1085</ele>
        <time>2025-09-20T10:18:52.000Z</time>
      </trkpt>
      <trkpt lat="42.97311" lon="1.0254">
        <ele>1084</ele>
        <time>2025-09-20T10:18:53.000Z</time>
      </trkpt>
      <trkpt lat="42.97309" lon="1.02542">
        <ele>1083</ele>
        <time>2025-09-20T10:18:54.000Z</time>
      </trkpt>
      <trkpt lat="42.97306" lon="1.02543">
        <ele>1083</ele>
        <time>2025-09-20T10:18:55.000Z</time>
      </trkpt>
      <trkpt lat="42.97304" lon="1.02545">
        <ele>1083</ele>
        <time>2025-09-20T10:18:56.000Z</time>
      </trkpt>
      <trkpt lat="42.97303" lon="1.02547">
        <ele>1083</ele>
        <time>2025-09-20T10:18:57.000Z</time>
      </trkpt>
      <trkpt lat="42.97301" lon="1.02549">
        <ele>1083</ele>
        <time>2025-09-20T10:18:58.000Z</time>
      </trkpt>
      <trkpt lat="42.97298" lon="1.0255">
        <ele>1082</ele>
        <time>2025-09-20T10:18:59.000Z</time>
      </trkpt>
      <trkpt lat="42.97296" lon="1.02552">
        <ele>1082</ele>
        <time>2025-09-20T10:19:00.000Z</time>
      </trkpt>
      <trkpt lat="42.97294" lon="1.02554">
        <ele>1081</ele>
        <time>2025-09-20T10:19:01.000Z</time>
      </trkpt>
      <trkpt lat="42.97293" lon="1.02558">
        <ele>1081</ele>
        <time>2025-09-20T10:19:02.000Z</time>
      </trkpt>
      <trkpt lat="42.97291" lon="1.02562">
        <ele>1080</ele>
        <time>2025-09-20T10:19:03.000Z</time>
      </trkpt>
      <trkpt lat="42.9729" lon="1.02564">
        <ele>1080</ele>
        <time>2025-09-20T10:19:04.000Z</time>
      </trkpt>
      <trkpt lat="42.97289" lon="1.02565">
        <ele>1079</ele>
        <time>2025-09-20T10:19:05.000Z</time>
      </trkpt>
      <trkpt lat="42.97287" lon="1.02567">
        <ele>1079</ele>
        <time>2025-09-20T10:19:06.000Z</time>
      </trkpt>
      <trkpt lat="42.97285" lon="1.02569">
        <ele>1078</ele>
        <time>2025-09-20T10:19:07.000Z</time>
      </trkpt>
      <trkpt lat="42.97282" lon="1.02571">
        <ele>1077</ele>
        <time>2025-09-20T10:19:08.000Z</time>
      </trkpt>
      <trkpt lat="42.9728" lon="1.02573">
        <ele>1076</ele>
        <time>2025-09-20T10:19:09.000Z</time>
      </trkpt>
      <trkpt lat="42.97279" lon="1.02575">
        <ele>1076</ele>
        <time>2025-09-20T10:19:10.000Z</time>
      </trkpt>
      <trkpt lat="42.97276" lon="1.02577">
        <ele>1076</ele>
        <time>2025-09-20T10:19:11.000Z</time>
      </trkpt>
      <trkpt lat="42.97274" lon="1.02579">
        <ele>1075</ele>
        <time>2025-09-20T10:19:12.000Z</time>
      </trkpt>
      <trkpt lat="42.97272" lon="1.02581">
        <ele>1074</ele>
        <time>2025-09-20T10:19:13.000Z</time>
      </trkpt>
      <trkpt lat="42.9727" lon="1.02583">
        <ele>1073</ele>
        <time>2025-09-20T10:19:14.000Z</time>
      </trkpt>
      <trkpt lat="42.97268" lon="1.02583">
        <ele>1072</ele>
        <time>2025-09-20T10:19:15.000Z</time>
      </trkpt>
      <trkpt lat="42.97267" lon="1.02584">
        <ele>1072</ele>
        <time>2025-09-20T10:19:16.000Z</time>
      </trkpt>
      <trkpt lat="42.97266" lon="1.02586">
        <ele>1071</ele>
        <time>2025-09-20T10:19:17.000Z</time>
      </trkpt>
      <trkpt lat="42.97264" lon="1.02586">
        <ele>1071</ele>
        <time>2025-09-20T10:19:18.000Z</time>
      </trkpt>
      <trkpt lat="42.97263" lon="1.02587">
        <ele>1070</ele>
        <time>2025-09-20T10:19:19.000Z</time>
      </trkpt>
      <trkpt lat="42.97262" lon="1.02589">
        <ele>1070</ele>
        <time>2025-09-20T10:19:20.000Z</time>
      </trkpt>
      <trkpt lat="42.9726" lon="1.0259">
        <ele>1070</ele>
        <time>2025-09-20T10:19:21.000Z</time>
      </trkpt>
      <trkpt lat="42.97259" lon="1.02592">
        <ele>1069</ele>
        <time>2025-09-20T10:19:22.000Z</time>
      </trkpt>
      <trkpt lat="42.97257" lon="1.02594">
        <ele>1068</ele>
        <time>2025-09-20T10:19:23.000Z</time>
      </trkpt>
      <trkpt lat="42.97255" lon="1.02595">
        <ele>1067</ele>
        <time>2025-09-20T10:19:24.000Z</time>
      </trkpt>
      <trkpt lat="42.97253" lon="1.02597">
        <ele>1067</ele>
        <time>2025-09-20T10:19:25.000Z</time>
      </trkpt>
      <trkpt lat="42.9725" lon="1.02599">
        <ele>1066</ele>
        <time>2025-09-20T10:19:26.000Z</time>
      </trkpt>
      <trkpt lat="42.97247" lon="1.02603">
        <ele>1065</ele>
        <time>2025-09-20T10:19:27.000Z</time>
      </trkpt>
      <trkpt lat="42.97244" lon="1.02607">
        <ele>1063</ele>
        <time>2025-09-20T10:19:28.000Z</time>
      </trkpt>
      <trkpt lat="42.97242" lon="1.02612">
        <ele>1063</ele>
        <time>2025-09-20T10:19:29.000Z</time>
      </trkpt>
      <trkpt lat="42.97239" lon="1.02616">
        <ele>1061</ele>
        <time>2025-09-20T10:19:30.000Z</time>
      </trkpt>
      <trkpt lat="42.97237" lon="1.02619">
        <ele>1061</ele>
        <time>2025-09-20T10:19:31.000Z</time>
      </trkpt>
      <trkpt lat="42.97234" lon="1.02623">
        <ele>1061</ele>
        <time>2025-09-20T10:19:32.000Z</time>
      </trkpt>
      <trkpt lat="42.97231" lon="1.02626">
        <ele>1060</ele>
        <time>2025-09-20T10:19:33.000Z</time>
      </trkpt>
      <trkpt lat="42.97229" lon="1.02629">
        <ele>1059</ele>
        <time>2025-09-20T10:19:34.000Z</time>
      </trkpt>
      <trkpt lat="42.97226" lon="1.02633">
        <ele>1058</ele>
        <time>2025-09-20T10:19:35.000Z</time>
      </trkpt>
      <trkpt lat="42.97223" lon="1.02637">
        <ele>1057</ele>
        <time>2025-09-20T10:19:36.000Z</time>
      </trkpt>
      <trkpt lat="42.9722" lon="1.02642">
        <ele>1056</ele>
        <time>2025-09-20T10:19:37.000Z</time>
      </trkpt>
      <trkpt lat="42.97217" lon="1.02645">
        <ele>1056</ele>
        <time>2025-09-20T10:19:38.000Z</time>
      </trkpt>
      <trkpt lat="42.97215" lon="1.02647">
        <ele>1055</ele>
        <time>2025-09-20T10:19:39.000Z</time>
      </trkpt>
      <trkpt lat="42.97213" lon="1.0265">
        <ele>1054</ele>
        <time>2025-09-20T10:19:40.000Z</time>
      </trkpt>
      <trkpt lat="42.97212" lon="1.02652">
        <ele>1054</ele>
        <time>2025-09-20T10:19:41.000Z</time>
      </trkpt>
      <trkpt lat="42.9721" lon="1.02655">
        <ele>1053</ele>
        <time>2025-09-20T10:19:42.000Z</time>
      </trkpt>
      <trkpt lat="42.97208" lon="1.02659">
        <ele>1053</ele>
        <time>2025-09-20T10:19:43.000Z</time>
      </trkpt>
      <trkpt lat="42.97206" lon="1.02662">
        <ele>1051</ele>
        <time>2025-09-20T10:19:44.000Z</time>
      </trkpt>
      <trkpt lat="42.97205" lon="1.02665">
        <ele>1051</ele>
        <time>2025-09-20T10:19:45.000Z</time>
      </trkpt>
      <trkpt lat="42.97205" lon="1.02668">
        <ele>1051</ele>
        <time>2025-09-20T10:19:46.000Z</time>
      </trkpt>
      <trkpt lat="42.97204" lon="1.02671">
        <ele>1051</ele>
        <time>2025-09-20T10:19:47.000Z</time>
      </trkpt>
      <trkpt lat="42.97204" lon="1.02673">
        <ele>1051</ele>
        <time>2025-09-20T10:19:48.000Z</time>
      </trkpt>
      <trkpt lat="42.97203" lon="1.02675">
        <ele>1050</ele>
        <time>2025-09-20T10:19:49.000Z</time>
      </trkpt>
      <trkpt lat="42.97201" lon="1.02676">
        <ele>1050</ele>
        <time>2025-09-20T10:19:50.000Z</time>
      </trkpt>
      <trkpt lat="42.972" lon="1.02678">
        <ele>1049</ele>
        <time>2025-09-20T10:19:51.000Z</time>
      </trkpt>
      <trkpt lat="42.972" lon="1.02681">
        <ele>1049</ele>
        <time>2025-09-20T10:19:52.000Z</time>
      </trkpt>
      <trkpt lat="42.97201" lon="1.02685">
        <ele>1048</ele>
        <time>2025-09-20T10:19:53.000Z</time>
      </trkpt>
      <trkpt lat="42.97201" lon="1.02688">
        <ele>1048</ele>
        <time>2025-09-20T10:19:54.000Z</time>
      </trkpt>
      <trkpt lat="42.97202" lon="1.0269">
        <ele>1048</ele>
        <time>2025-09-20T10:19:55.000Z</time>
      </trkpt>
      <trkpt lat="42.97203" lon="1.02692">
        <ele>1048</ele>
        <time>2025-09-20T10:19:56.000Z</time>
      </trkpt>
      <trkpt lat="42.97203" lon="1.02694">
        <ele>1048</ele>
        <time>2025-09-20T10:19:57.000Z</time>
      </trkpt>
      <trkpt lat="42.97204" lon="1.02696">
        <ele>1047</ele>
        <time>2025-09-20T10:19:58.000Z</time>
      </trkpt>
      <trkpt lat="42.97203" lon="1.02698">
        <ele>1047</ele>
        <time>2025-09-20T10:19:59.000Z</time>
      </trkpt>
      <trkpt lat="42.97202" lon="1.027">
        <ele>1045</ele>
        <time>2025-09-20T10:20:00.000Z</time>
      </trkpt>
      <trkpt lat="42.97201" lon="1.02704">
        <ele>1045</ele>
        <time>2025-09-20T10:20:01.000Z</time>
      </trkpt>
      <trkpt lat="42.97201" lon="1.02708">
        <ele>1043</ele>
        <time>2025-09-20T10:20:02.000Z</time>
      </trkpt>
      <trkpt lat="42.97199" lon="1.02712">
        <ele>1042</ele>
        <time>2025-09-20T10:20:03.000Z</time>
      </trkpt>
      <trkpt lat="42.97196" lon="1.02715">
        <ele>1041</ele>
        <time>2025-09-20T10:20:04.000Z</time>
      </trkpt>
      <trkpt lat="42.97194" lon="1.02718">
        <ele>1040</ele>
        <time>2025-09-20T10:20:05.000Z</time>
      </trkpt>
      <trkpt lat="42.97191" lon="1.02721">
        <ele>1040</ele>
        <time>2025-09-20T10:20:06.000Z</time>
      </trkpt>
      <trkpt lat="42.97189" lon="1.02725">
        <ele>1039</ele>
        <time>2025-09-20T10:20:07.000Z</time>
      </trkpt>
      <trkpt lat="42.97188" lon="1.02728">
        <ele>1039</ele>
        <time>2025-09-20T10:20:08.000Z</time>
      </trkpt>
      <trkpt lat="42.97187" lon="1.02732">
        <ele>1038</ele>
        <time>2025-09-20T10:20:09.000Z</time>
      </trkpt>
      <trkpt lat="42.97186" lon="1.02735">
        <ele>1038</ele>
        <time>2025-09-20T10:20:10.000Z</time>
      </trkpt>
      <trkpt lat="42.97185" lon="1.02738">
        <ele>1037</ele>
        <time>2025-09-20T10:20:11.000Z</time>
      </trkpt>
      <trkpt lat="42.97184" lon="1.0274">
        <ele>1037</ele>
        <time>2025-09-20T10:20:12.000Z</time>
      </trkpt>
      <trkpt lat="42.97184" lon="1.02742">
        <ele>1037</ele>
        <time>2025-09-20T10:20:13.000Z</time>
      </trkpt>
      <trkpt lat="42.97182" lon="1.02734">
        <ele>1033</ele>
        <time>2025-09-20T10:20:27.000Z</time>
      </trkpt>
      <trkpt lat="42.97182" lon="1.02732">
        <ele>1033</ele>
        <time>2025-09-20T10:20:28.000Z</time>
      </trkpt>
      <trkpt lat="42.97183" lon="1.02729">
        <ele>1033</ele>
        <time>2025-09-20T10:20:29.000Z</time>
      </trkpt>
      <trkpt lat="42.97183" lon="1.02727">
        <ele>1032</ele>
        <time>2025-09-20T10:20:30.000Z</time>
      </trkpt>
      <trkpt lat="42.97182" lon="1.02725">
        <ele>1032</ele>
        <time>2025-09-20T10:20:31.000Z</time>
      </trkpt>
      <trkpt lat="42.97183" lon="1.02721">
        <ele>1031</ele>
        <time>2025-09-20T10:20:32.000Z</time>
      </trkpt>
      <trkpt lat="42.97183" lon="1.02718">
        <ele>1031</ele>
        <time>2025-09-20T10:20:33.000Z</time>
      </trkpt>
      <trkpt lat="42.97182" lon="1.02714">
        <ele>1030</ele>
        <time>2025-09-20T10:20:34.000Z</time>
      </trkpt>
      <trkpt lat="42.97181" lon="1.0271">
        <ele>1029</ele>
        <time>2025-09-20T10:20:35.000Z</time>
      </trkpt>
      <trkpt lat="42.9718" lon="1.02707">
        <ele>1029</ele>
        <time>2025-09-20T10:20:36.000Z</time>
      </trkpt>
      <trkpt lat="42.9718" lon="1.02705">
        <ele>1029</ele>
        <time>2025-09-20T10:20:37.000Z</time>
      </trkpt>
      <trkpt lat="42.97179" lon="1.02702">
        <ele>1029</ele>
        <time>2025-09-20T10:20:38.000Z</time>
      </trkpt>
      <trkpt lat="42.97178" lon="1.02699">
        <ele>1028</ele>
        <time>2025-09-20T10:20:39.000Z</time>
      </trkpt>
      <trkpt lat="42.97178" lon="1.02697">
        <ele>1028</ele>
        <time>2025-09-20T10:20:40.000Z</time>
      </trkpt>
      <trkpt lat="42.97177" lon="1.02695">
        <ele>1028</ele>
        <time>2025-09-20T10:20:41.000Z</time>
      </trkpt>
      <trkpt lat="42.97177" lon="1.02695">
        <ele>1027</ele>
        <time>2025-09-20T10:20:42.000Z</time>
      </trkpt>
      <trkpt lat="42.97176" lon="1.02694">
        <ele>1027</ele>
        <time>2025-09-20T10:20:43.000Z</time>
      </trkpt>
      <trkpt lat="42.97176" lon="1.02692">
        <ele>1027</ele>
        <time>2025-09-20T10:20:44.000Z</time>
      </trkpt>
      <trkpt lat="42.97175" lon="1.0269">
        <ele>1026</ele>
        <time>2025-09-20T10:20:45.000Z</time>
      </trkpt>
      <trkpt lat="42.97174" lon="1.02688">
        <ele>1025</ele>
        <time>2025-09-20T10:20:46.000Z</time>
      </trkpt>
      <trkpt lat="42.97173" lon="1.02686">
        <ele>1024</ele>
        <time>2025-09-20T10:20:47.000Z</time>
      </trkpt>
      <trkpt lat="42.97172" lon="1.02684">
        <ele>1024</ele>
        <time>2025-09-20T10:20:48.000Z</time>
      </trkpt>
      <trkpt lat="42.97173" lon="1.02683">
        <ele>1024</ele>
        <time>2025-09-20T10:20:49.000Z</time>
      </trkpt>
      <trkpt lat="42.97171" lon="1.02688">
        <ele>1026</ele>
        <time>2025-09-20T10:21:04.000Z</time>
      </trkpt>
      <trkpt lat="42.9717" lon="1.02689">
        <ele>1026</ele>
        <time>2025-09-20T10:21:05.000Z</time>
      </trkpt>
      <trkpt lat="42.97169" lon="1.02692">
        <ele>1025</ele>
        <time>2025-09-20T10:21:06.000Z</time>
      </trkpt>
      <trkpt lat="42.97167" lon="1.02695">
        <ele>1025</ele>
        <time>2025-09-20T10:21:07.000Z</time>
      </trkpt>
      <trkpt lat="42.97166" lon="1.02699">
        <ele>1024</ele>
        <time>2025-09-20T10:21:08.000Z</time>
      </trkpt>
      <trkpt lat="42.97164" lon="1.02703">
        <ele>1023</ele>
        <time>2025-09-20T10:21:09.000Z</time>
      </trkpt>
      <trkpt lat="42.97163" lon="1.02707">
        <ele>1022</ele>
        <time>2025-09-20T10:21:10.000Z</time>
      </trkpt>
      <trkpt lat="42.97163" lon="1.0271">
        <ele>1022</ele>
        <time>2025-09-20T10:21:11.000Z</time>
      </trkpt>
      <trkpt lat="42.97162" lon="1.02713">
        <ele>1021</ele>
        <time>2025-09-20T10:21:12.000Z</time>
      </trkpt>
      <trkpt lat="42.97161" lon="1.02715">
        <ele>1020</ele>
        <time>2025-09-20T10:21:13.000Z</time>
      </trkpt>
      <trkpt lat="42.97159" lon="1.02717">
        <ele>1019</ele>
        <time>2025-09-20T10:21:14.000Z</time>
      </trkpt>
      <trkpt lat="42.97156" lon="1.02718">
        <ele>1019</ele>
        <time>2025-09-20T10:21:15.000Z</time>
      </trkpt>
      <trkpt lat="42.97154" lon="1.0272">
        <ele>1018</ele>
        <time>2025-09-20T10:21:16.000Z</time>
      </trkpt>
      <trkpt lat="42.97154" lon="1.02722">
        <ele>1017</ele>
        <time>2025-09-20T10:21:17.000Z</time>
      </trkpt>
      <trkpt lat="42.97153" lon="1.02724">
        <ele>1016</ele>
        <time>2025-09-20T10:21:18.000Z</time>
      </trkpt>
      <trkpt lat="42.97152" lon="1.02728">
        <ele>1015</ele>
        <time>2025-09-20T10:21:19.000Z</time>
      </trkpt>
      <trkpt lat="42.9715" lon="1.02731">
        <ele>1014</ele>
        <time>2025-09-20T10:21:20.000Z</time>
      </trkpt>
      <trkpt lat="42.97148" lon="1.02733">
        <ele>1014</ele>
        <time>2025-09-20T10:21:21.000Z</time>
      </trkpt>
      <trkpt lat="42.97146" lon="1.02734">
        <ele>1013</ele>
        <time>2025-09-20T10:21:22.000Z</time>
      </trkpt>
      <trkpt lat="42.97143" lon="1.02734">
        <ele>1013</ele>
        <time>2025-09-20T10:21:23.000Z</time>
      </trkpt>
      <trkpt lat="42.97141" lon="1.02734">
        <ele>1013</ele>
        <time>2025-09-20T10:21:24.000Z</time>
      </trkpt>
      <trkpt lat="42.97138" lon="1.02735">
        <ele>1012</ele>
        <time>2025-09-20T10:21:25.000Z</time>
      </trkpt>
      <trkpt lat="42.97135" lon="1.02737">
        <ele>1012</ele>
        <time>2025-09-20T10:21:26.000Z</time>
      </trkpt>
      <trkpt lat="42.97132" lon="1.02737">
        <ele>1011</ele>
        <time>2025-09-20T10:21:27.000Z</time>
      </trkpt>
      <trkpt lat="42.97128" lon="1.0274">
        <ele>1010</ele>
        <time>2025-09-20T10:21:28.000Z</time>
      </trkpt>
      <trkpt lat="42.97124" lon="1.02744">
        <ele>1009</ele>
        <time>2025-09-20T10:21:29.000Z</time>
      </trkpt>
      <trkpt lat="42.9712" lon="1.02748">
        <ele>1009</ele>
        <time>2025-09-20T10:21:30.000Z</time>
      </trkpt>
      <trkpt lat="42.97116" lon="1.02752">
        <ele>1007</ele>
        <time>2025-09-20T10:21:31.000Z</time>
      </trkpt>
      <trkpt lat="42.97112" lon="1.02755">
        <ele>1006</ele>
        <time>2025-09-20T10:21:32.000Z</time>
      </trkpt>
      <trkpt lat="42.97109" lon="1.02758">
        <ele>1005</ele>
        <time>2025-09-20T10:21:33.000Z</time>
      </trkpt>
      <trkpt lat="42.97105" lon="1.02762">
        <ele>1004</ele>
        <time>2025-09-20T10:21:34.000Z</time>
      </trkpt>
      <trkpt lat="42.97101" lon="1.02764">
        <ele>1003</ele>
        <time>2025-09-20T10:21:35.000Z</time>
      </trkpt>
      <trkpt lat="42.97096" lon="1.02765">
        <ele>1003</ele>
        <time>2025-09-20T10:21:36.000Z</time>
      </trkpt>
      <trkpt lat="42.97092" lon="1.02769">
        <ele>1002</ele>
        <time>2025-09-20T10:21:37.000Z</time>
      </trkpt>
      <trkpt lat="42.97089" lon="1.02773">
        <ele>1002</ele>
        <time>2025-09-20T10:21:38.000Z</time>
      </trkpt>
      <trkpt lat="42.97086" lon="1.02777">
        <ele>1002</ele>
        <time>2025-09-20T10:21:39.000Z</time>
      </trkpt>
      <trkpt lat="42.97084" lon="1.02779">
        <ele>1001</ele>
        <time>2025-09-20T10:21:40.000Z</time>
      </trkpt>
      <trkpt lat="42.97079" lon="1.02785">
        <ele>1000</ele>
        <time>2025-09-20T10:27:09.000Z</time>
      </trkpt>
      <trkpt lat="42.9708" lon="1.02784">
        <ele>1000</ele>
        <time>2025-09-20T10:27:10.000Z</time>
      </trkpt>
      <trkpt lat="42.9708" lon="1.02784">
        <ele>1000</ele>
        <time>2025-09-20T10:27:11.000Z</time>
      </trkpt>
      <trkpt lat="42.97081" lon="1.02782">
        <ele>1000</ele>
        <time>2025-09-20T10:27:12.000Z</time>
      </trkpt>
      <trkpt lat="42.97082" lon="1.02782">
        <ele>1001</ele>
        <time>2025-09-20T10:27:13.000Z</time>
      </trkpt>
      <trkpt lat="42.97082" lon="1.02781">
        <ele>1003</ele>
        <time>2025-09-20T10:27:14.000Z</time>
      </trkpt>
      <trkpt lat="42.97081" lon="1.02786">
        <ele>998</ele>
        <time>2025-09-20T10:38:33.000Z</time>
      </trkpt>
      <trkpt lat="42.9708" lon="1.02789">
        <ele>998</ele>
        <time>2025-09-20T10:38:34.000Z</time>
      </trkpt>
      <trkpt lat="42.97079" lon="1.02791">
        <ele>998</ele>
        <time>2025-09-20T10:38:35.000Z</time>
      </trkpt>
      <trkpt lat="42.97077" lon="1.02793">
        <ele>997</ele>
        <time>2025-09-20T10:38:36.000Z</time>
      </trkpt>
      <trkpt lat="42.97076" lon="1.02795">
        <ele>996</ele>
        <time>2025-09-20T10:38:37.000Z</time>
      </trkpt>
      <trkpt lat="42.97074" lon="1.02798">
        <ele>995</ele>
        <time>2025-09-20T10:38:38.000Z</time>
      </trkpt>
      <trkpt lat="42.97073" lon="1.02801">
        <ele>994</ele>
        <time>2025-09-20T10:38:39.000Z</time>
      </trkpt>
      <trkpt lat="42.97071" lon="1.02804">
        <ele>994</ele>
        <time>2025-09-20T10:38:40.000Z</time>
      </trkpt>
      <trkpt lat="42.9707" lon="1.02804">
        <ele>994</ele>
        <time>2025-09-20T10:38:41.000Z</time>
      </trkpt>
      <trkpt lat="42.97068" lon="1.02805">
        <ele>994</ele>
        <time>2025-09-20T10:38:42.000Z</time>
      </trkpt>
      <trkpt lat="42.97066" lon="1.02804">
        <ele>995</ele>
        <time>2025-09-20T10:38:43.000Z</time>
      </trkpt>
      <trkpt lat="42.97065" lon="1.02806">
        <ele>995</ele>
        <time>2025-09-20T10:38:44.000Z</time>
      </trkpt>
      <trkpt lat="42.97064" lon="1.02808">
        <ele>995</ele>
        <time>2025-09-20T10:38:45.000Z</time>
      </trkpt>
      <trkpt lat="42.97064" lon="1.02809">
        <ele>994</ele>
        <time>2025-09-20T10:38:46.000Z</time>
      </trkpt>
      <trkpt lat="42.97063" lon="1.0281">
        <ele>993</ele>
        <time>2025-09-20T10:38:47.000Z</time>
      </trkpt>
      <trkpt lat="42.97062" lon="1.0281">
        <ele>991</ele>
        <time>2025-09-20T10:38:48.000Z</time>
      </trkpt>
      <trkpt lat="42.97061" lon="1.02811">
        <ele>991</ele>
        <time>2025-09-20T10:38:49.000Z</time>
      </trkpt>
      <trkpt lat="42.9706" lon="1.02813">
        <ele>991</ele>
        <time>2025-09-20T10:38:50.000Z</time>
      </trkpt>
      <trkpt lat="42.97059" lon="1.02815">
        <ele>991</ele>
        <time>2025-09-20T10:38:51.000Z</time>
      </trkpt>
      <trkpt lat="42.97059" lon="1.02816">
        <ele>991</ele>
        <time>2025-09-20T10:38:52.000Z</time>
      </trkpt>
      <trkpt lat="42.97059" lon="1.02816">
        <ele>991</ele>
        <time>2025-09-20T10:38:53.000Z</time>
      </trkpt>
      <trkpt lat="42.97062" lon="1.02824">
        <ele>987</ele>
        <time>2025-09-20T10:39:23.000Z</time>
      </trkpt>
      <trkpt lat="42.97062" lon="1.02825">
        <ele>987</ele>
        <time>2025-09-20T10:39:24.000Z</time>
      </trkpt>
      <trkpt lat="42.97062" lon="1.02825">
        <ele>986</ele>
        <time>2025-09-20T10:39:25.000Z</time>
      </trkpt>
      <trkpt lat="42.97061" lon="1.02826">
        <ele>986</ele>
        <time>2025-09-20T10:39:26.000Z</time>
      </trkpt>
      <trkpt lat="42.9706" lon="1.02827">
        <ele>986</ele>
        <time>2025-09-20T10:39:27.000Z</time>
      </trkpt>
      <trkpt lat="42.9706" lon="1.02828">
        <ele>987</ele>
        <time>2025-09-20T10:39:28.000Z</time>
      </trkpt>
      <trkpt lat="42.97059" lon="1.02828">
        <ele>986</ele>
        <time>2025-09-20T10:39:29.000Z</time>
      </trkpt>
      <trkpt lat="42.97059" lon="1.02827">
        <ele>986</ele>
        <time>2025-09-20T10:39:30.000Z</time>
      </trkpt>
      <trkpt lat="42.97059" lon="1.02827">
        <ele>986</ele>
        <time>2025-09-20T10:39:31.000Z</time>
      </trkpt>
      <trkpt lat="42.97058" lon="1.02827">
        <ele>986</ele>
        <time>2025-09-20T10:39:32.000Z</time>
      </trkpt>
      <trkpt lat="42.97057" lon="1.02827">
        <ele>987</ele>
        <time>2025-09-20T10:39:33.000Z</time>
      </trkpt>
      <trkpt lat="42.97057" lon="1.02827">
        <ele>987</ele>
        <time>2025-09-20T10:39:34.000Z</time>
      </trkpt>
      <trkpt lat="42.97057" lon="1.02827">
        <ele>988</ele>
        <time>2025-09-20T10:39:35.000Z</time>
      </trkpt>
      <trkpt lat="42.97057" lon="1.02827">
        <ele>988</ele>
        <time>2025-09-20T10:39:36.000Z</time>
      </trkpt>
      <trkpt lat="42.97057" lon="1.02827">
        <ele>988</ele>
        <time>2025-09-20T10:39:37.000Z</time>
      </trkpt>
      <trkpt lat="42.97056" lon="1.02826">
        <ele>988</ele>
        <time>2025-09-20T10:39:38.000Z</time>
      </trkpt>
      <trkpt lat="42.97055" lon="1.02826">
        <ele>988</ele>
        <time>2025-09-20T10:39:39.000Z</time>
      </trkpt>
      <trkpt lat="42.97054" lon="1.02826">
        <ele>987</ele>
        <time>2025-09-20T10:39:40.000Z</time>
      </trkpt>
      <trkpt lat="42.97053" lon="1.02826">
        <ele>987</ele>
        <time>2025-09-20T10:39:41.000Z</time>
      </trkpt>
      <trkpt lat="42.97053" lon="1.02826">
        <ele>986</ele>
        <time>2025-09-20T10:39:42.000Z</time>
      </trkpt>
      <trkpt lat="42.97052" lon="1.02826">
        <ele>987</ele>
        <time>2025-09-20T10:39:43.000Z</time>
      </trkpt>
      <trkpt lat="42.97052" lon="1.02826">
        <ele>988</ele>
        <time>2025-09-20T10:39:44.000Z</time>
      </trkpt>
      <trkpt lat="42.97052" lon="1.02825">
        <ele>989</ele>
        <time>2025-09-20T10:39:45.000Z</time>
      </trkpt>
      <trkpt lat="42.97051" lon="1.02825">
        <ele>989</ele>
        <time>2025-09-20T10:39:46.000Z</time>
      </trkpt>
      <trkpt lat="42.9705" lon="1.02825">
        <ele>989</ele>
        <time>2025-09-20T10:39:47.000Z</time>
      </trkpt>
      <trkpt lat="42.9705" lon="1.02824">
        <ele>988</ele>
        <time>2025-09-20T10:39:48.000Z</time>
      </trkpt>
      <trkpt lat="42.97049" lon="1.02824">
        <ele>989</ele>
        <time>2025-09-20T10:39:49.000Z</time>
      </trkpt>
      <trkpt lat="42.97049" lon="1.02824">
        <ele>988</ele>
        <time>2025-09-20T10:39:50.000Z</time>
      </trkpt>
      <trkpt lat="42.97049" lon="1.02824">
        <ele>987</ele>
        <time>2025-09-20T10:39:51.000Z</time>
      </trkpt>
      <trkpt lat="42.97048" lon="1.02823">
        <ele>986</ele>
        <time>2025-09-20T10:39:52.000Z</time>
      </trkpt>
      <trkpt lat="42.97048" lon="1.02823">
        <ele>986</ele>
        <time>2025-09-20T10:39:53.000Z</time>
      </trkpt>
      <trkpt lat="42.97047" lon="1.02822">
        <ele>985</ele>
        <time>2025-09-20T10:39:54.000Z</time>
      </trkpt>
      <trkpt lat="42.97047" lon="1.02822">
        <ele>985</ele>
        <time>2025-09-20T10:39:55.000Z</time>
      </trkpt>
      <trkpt lat="42.97047" lon="1.02821">
        <ele>986</ele>
        <time>2025-09-20T10:39:56.000Z</time>
      </trkpt>
      <trkpt lat="42.97045" lon="1.0282">
        <ele>986</ele>
        <time>2025-09-20T10:39:57.000Z</time>
      </trkpt>
      <trkpt lat="42.97043" lon="1.02821">
        <ele>986</ele>
        <time>2025-09-20T10:39:58.000Z</time>
      </trkpt>
      <trkpt lat="42.97042" lon="1.0282">
        <ele>985</ele>
        <time>2025-09-20T10:39:59.000Z</time>
      </trkpt>
      <trkpt lat="42.97041" lon="1.02818">
        <ele>984</ele>
        <time>2025-09-20T10:40:00.000Z</time>
      </trkpt>
      <trkpt lat="42.97041" lon="1.02814">
        <ele>983</ele>
        <time>2025-09-20T10:40:01.000Z</time>
      </trkpt>
      <trkpt lat="42.97043" lon="1.0281">
        <ele>982</ele>
        <time>2025-09-20T10:40:02.000Z</time>
      </trkpt>
      <trkpt lat="42.97044" lon="1.02806">
        <ele>982</ele>
        <time>2025-09-20T10:40:03.000Z</time>
      </trkpt>
      <trkpt lat="42.97044" lon="1.02803">
        <ele>980</ele>
        <time>2025-09-20T10:40:04.000Z</time>
      </trkpt>
      <trkpt lat="42.97043" lon="1.02801">
        <ele>979</ele>
        <time>2025-09-20T10:40:05.000Z</time>
      </trkpt>
      <trkpt lat="42.97043" lon="1.02798">
        <ele>979</ele>
        <time>2025-09-20T10:40:06.000Z</time>
      </trkpt>
      <trkpt lat="42.97042" lon="1.02797">
        <ele>978</ele>
        <time>2025-09-20T10:40:07.000Z</time>
      </trkpt>
      <trkpt lat="42.97041" lon="1.02797">
        <ele>977</ele>
        <time>2025-09-20T10:40:08.000Z</time>
      </trkpt>
      <trkpt lat="42.97039" lon="1.02798">
        <ele>976</ele>
        <time>2025-09-20T10:40:09.000Z</time>
      </trkpt>
      <trkpt lat="42.97038" lon="1.02801">
        <ele>976</ele>
        <time>2025-09-20T10:40:10.000Z</time>
      </trkpt>
      <trkpt lat="42.97036" lon="1.02804">
        <ele>976</ele>
        <time>2025-09-20T10:40:11.000Z</time>
      </trkpt>
      <trkpt lat="42.97035" lon="1.02808">
        <ele>976</ele>
        <time>2025-09-20T10:40:12.000Z</time>
      </trkpt>
      <trkpt lat="42.97034" lon="1.0281">
        <ele>975</ele>
        <time>2025-09-20T10:40:13.000Z</time>
      </trkpt>
      <trkpt lat="42.97033" lon="1.02812">
        <ele>975</ele>
        <time>2025-09-20T10:40:14.000Z</time>
      </trkpt>
      <trkpt lat="42.97032" lon="1.02813">
        <ele>975</ele>
        <time>2025-09-20T10:40:15.000Z</time>
      </trkpt>
      <trkpt lat="42.97032" lon="1.02815">
        <ele>974</ele>
        <time>2025-09-20T10:40:16.000Z</time>
      </trkpt>
      <trkpt lat="42.9703" lon="1.02814">
        <ele>974</ele>
        <time>2025-09-20T10:40:17.000Z</time>
      </trkpt>
      <trkpt lat="42.97029" lon="1.02812">
        <ele>973</ele>
        <time>2025-09-20T10:40:18.000Z</time>
      </trkpt>
      <trkpt lat="42.97027" lon="1.02808">
        <ele>973</ele>
        <time>2025-09-20T10:40:19.000Z</time>
      </trkpt>
      <trkpt lat="42.97025" lon="1.02808">
        <ele>973</ele>
        <time>2025-09-20T10:40:20.000Z</time>
      </trkpt>
      <trkpt lat="42.97023" lon="1.02811">
        <ele>972</ele>
        <time>2025-09-20T10:40:21.000Z</time>
      </trkpt>
      <trkpt lat="42.97021" lon="1.02814">
        <ele>971</ele>
        <time>2025-09-20T10:40:22.000Z</time>
      </trkpt>
      <trkpt lat="42.97019" lon="1.02815">
        <ele>971</ele>
        <time>2025-09-20T10:40:23.000Z</time>
      </trkpt>
      <trkpt lat="42.97016" lon="1.02816">
        <ele>971</ele>
        <time>2025-09-20T10:40:24.000Z</time>
      </trkpt>
      <trkpt lat="42.97014" lon="1.02817">
        <ele>970</ele>
        <time>2025-09-20T10:40:25.000Z</time>
      </trkpt>
      <trkpt lat="42.97011" lon="1.02817">
        <ele>968</ele>
        <time>2025-09-20T10:40:26.000Z</time>
      </trkpt>
      <trkpt lat="42.97009" lon="1.02817">
        <ele>967</ele>
        <time>2025-09-20T10:40:27.000Z</time>
      </trkpt>
      <trkpt lat="42.97007" lon="1.02818">
        <ele>967</ele>
        <time>2025-09-20T10:40:28.000Z</time>
      </trkpt>
      <trkpt lat="42.97005" lon="1.02819">
        <ele>966</ele>
        <time>2025-09-20T10:40:29.000Z</time>
      </trkpt>
      <trkpt lat="42.97003" lon="1.0282">
        <ele>966</ele>
        <time>2025-09-20T10:40:30.000Z</time>
      </trkpt>
      <trkpt lat="42.97001" lon="1.0282">
        <ele>966</ele>
        <time>2025-09-20T10:40:31.000Z</time>
      </trkpt>
      <trkpt lat="42.96999" lon="1.02822">
        <ele>966</ele>
        <time>2025-09-20T10:40:32.000Z</time>
      </trkpt>
      <trkpt lat="42.96998" lon="1.02823">
        <ele>966</ele>
        <time>2025-09-20T10:40:33.000Z</time>
      </trkpt>
      <trkpt lat="42.96998" lon="1.02826">
        <ele>965</ele>
        <time>2025-09-20T10:40:34.000Z</time>
      </trkpt>
      <trkpt lat="42.96996" lon="1.02827">
        <ele>964</ele>
        <time>2025-09-20T10:40:35.000Z</time>
      </trkpt>
      <trkpt lat="42.96994" lon="1.02826">
        <ele>965</ele>
        <time>2025-09-20T10:40:36.000Z</time>
      </trkpt>
      <trkpt lat="42.96992" lon="1.02826">
        <ele>964</ele>
        <time>2025-09-20T10:40:37.000Z</time>
      </trkpt>
      <trkpt lat="42.9699" lon="1.02826">
        <ele>962</ele>
        <time>2025-09-20T10:40:38.000Z</time>
      </trkpt>
      <trkpt lat="42.96988" lon="1.02825">
        <ele>962</ele>
        <time>2025-09-20T10:40:39.000Z</time>
      </trkpt>
      <trkpt lat="42.96986" lon="1.02823">
        <ele>961</ele>
        <time>2025-09-20T10:40:40.000Z</time>
      </trkpt>
      <trkpt lat="42.96984" lon="1.02823">
        <ele>960</ele>
        <time>2025-09-20T10:40:41.000Z</time>
      </trkpt>
      <trkpt lat="42.96982" lon="1.02824">
        <ele>959</ele>
        <time>2025-09-20T10:40:42.000Z</time>
      </trkpt>
      <trkpt lat="42.9698" lon="1.02826">
        <ele>958</ele>
        <time>2025-09-20T10:40:43.000Z</time>
      </trkpt>
      <trkpt lat="42.96978" lon="1.02828">
        <ele>957</ele>
        <time>2025-09-20T10:40:44.000Z</time>
      </trkpt>
      <trkpt lat="42.96976" lon="1.02829">
        <ele>956</ele>
        <time>2025-09-20T10:40:45.000Z</time>
      </trkpt>
      <trkpt lat="42.96974" lon="1.0283">
        <ele>956</ele>
        <time>2025-09-20T10:40:46.000Z</time>
      </trkpt>
      <trkpt lat="42.96972" lon="1.02831">
        <ele>956</ele>
        <time>2025-09-20T10:40:47.000Z</time>
      </trkpt>
      <trkpt lat="42.9697" lon="1.02832">
        <ele>955</ele>
        <time>2025-09-20T10:40:48.000Z</time>
      </trkpt>
      <trkpt lat="42.96968" lon="1.02835">
        <ele>955</ele>
        <time>2025-09-20T10:40:49.000Z</time>
      </trkpt>
      <trkpt lat="42.96966" lon="1.02837">
        <ele>954</ele>
        <time>2025-09-20T10:40:50.000Z</time>
      </trkpt>
      <trkpt lat="42.96963" lon="1.0284">
        <ele>953</ele>
        <time>2025-09-20T10:40:51.000Z</time>
      </trkpt>
      <trkpt lat="42.96961" lon="1.02842">
        <ele>952</ele>
        <time>2025-09-20T10:40:52.000Z</time>
      </trkpt>
      <trkpt lat="42.96958" lon="1.02845">
        <ele>951</ele>
        <time>2025-09-20T10:40:53.000Z</time>
      </trkpt>
      <trkpt lat="42.96956" lon="1.02848">
        <ele>951</ele>
        <time>2025-09-20T10:40:54.000Z</time>
      </trkpt>
      <trkpt lat="42.96953" lon="1.0285">
        <ele>950</ele>
        <time>2025-09-20T10:40:55.000Z</time>
      </trkpt>
      <trkpt lat="42.96951" lon="1.02854">
        <ele>949</ele>
        <time>2025-09-20T10:40:56.000Z</time>
      </trkpt>
      <trkpt lat="42.96948" lon="1.02856">
        <ele>949</ele>
        <time>2025-09-20T10:40:57.000Z</time>
      </trkpt>
      <trkpt lat="42.96946" lon="1.02858">
        <ele>948</ele>
        <time>2025-09-20T10:40:58.000Z</time>
      </trkpt>
      <trkpt lat="42.96944" lon="1.02861">
        <ele>948</ele>
        <time>2025-09-20T10:40:59.000Z</time>
      </trkpt>
      <trkpt lat="42.96942" lon="1.02863">
        <ele>947</ele>
        <time>2025-09-20T10:41:00.000Z</time>
      </trkpt>
      <trkpt lat="42.96939" lon="1.02864">
        <ele>946</ele>
        <time>2025-09-20T10:41:01.000Z</time>
      </trkpt>
      <trkpt lat="42.96937" lon="1.02866">
        <ele>946</ele>
        <time>2025-09-20T10:41:02.000Z</time>
      </trkpt>
      <trkpt lat="42.96935" lon="1.02868">
        <ele>945</ele>
        <time>2025-09-20T10:41:03.000Z</time>
      </trkpt>
      <trkpt lat="42.96933" lon="1.0287">
        <ele>945</ele>
        <time>2025-09-20T10:41:04.000Z</time>
      </trkpt>
      <trkpt lat="42.9693" lon="1.02872">
        <ele>944</ele>
        <time>2025-09-20T10:41:05.000Z</time>
      </trkpt>
      <trkpt lat="42.96928" lon="1.02873">
        <ele>943</ele>
        <time>2025-09-20T10:41:06.000Z</time>
      </trkpt>
      <trkpt lat="42.96924" lon="1.02875">
        <ele>943</ele>
        <time>2025-09-20T10:41:07.000Z</time>
      </trkpt>
      <trkpt lat="42.96921" lon="1.02877">
        <ele>942</ele>
        <time>2025-09-20T10:41:08.000Z</time>
      </trkpt>
      <trkpt lat="42.96918" lon="1.02879">
        <ele>941</ele>
        <time>2025-09-20T10:41:09.000Z</time>
      </trkpt>
      <trkpt lat="42.96915" lon="1.02881">
        <ele>941</ele>
        <time>2025-09-20T10:41:10.000Z</time>
      </trkpt>
      <trkpt lat="42.96912" lon="1.02886">
        <ele>941</ele>
        <time>2025-09-20T10:41:11.000Z</time>
      </trkpt>
      <trkpt lat="42.96909" lon="1.02891">
        <ele>941</ele>
        <time>2025-09-20T10:41:12.000Z</time>
      </trkpt>
      <trkpt lat="42.96906" lon="1.02896">
        <ele>941</ele>
        <time>2025-09-20T10:41:13.000Z</time>
      </trkpt>
      <trkpt lat="42.96905" lon="1.02899">
        <ele>941</ele>
        <time>2025-09-20T10:41:14.000Z</time>
      </trkpt>
      <trkpt lat="42.96903" lon="1.02904">
        <ele>940</ele>
        <time>2025-09-20T10:41:15.000Z</time>
      </trkpt>
      <trkpt lat="42.96902" lon="1.02907">
        <ele>940</ele>
        <time>2025-09-20T10:41:16.000Z</time>
      </trkpt>
      <trkpt lat="42.96898" lon="1.02911">
        <ele>939</ele>
        <time>2025-09-20T10:41:17.000Z</time>
      </trkpt>
      <trkpt lat="42.96894" lon="1.02916">
        <ele>938</ele>
        <time>2025-09-20T10:41:18.000Z</time>
      </trkpt>
      <trkpt lat="42.9689" lon="1.0292">
        <ele>937</ele>
        <time>2025-09-20T10:41:19.000Z</time>
      </trkpt>
      <trkpt lat="42.96888" lon="1.02924">
        <ele>937</ele>
        <time>2025-09-20T10:41:20.000Z</time>
      </trkpt>
      <trkpt lat="42.96887" lon="1.02928">
        <ele>937</ele>
        <time>2025-09-20T10:41:21.000Z</time>
      </trkpt>
      <trkpt lat="42.96885" lon="1.02931">
        <ele>937</ele>
        <time>2025-09-20T10:41:22.000Z</time>
      </trkpt>
      <trkpt lat="42.96884" lon="1.02933">
        <ele>936</ele>
        <time>2025-09-20T10:41:23.000Z</time>
      </trkpt>
      <trkpt lat="42.96883" lon="1.02936">
        <ele>936</ele>
        <time>2025-09-20T10:41:24.000Z</time>
      </trkpt>
      <trkpt lat="42.96881" lon="1.02938">
        <ele>935</ele>
        <time>2025-09-20T10:41:25.000Z</time>
      </trkpt>
      <trkpt lat="42.96878" lon="1.0294">
        <ele>935</ele>
        <time>2025-09-20T10:41:26.000Z</time>
      </trkpt>
      <trkpt lat="42.96875" lon="1.02941">
        <ele>934</ele>
        <time>2025-09-20T10:41:27.000Z</time>
      </trkpt>
      <trkpt lat="42.96872" lon="1.02943">
        <ele>933</ele>
        <time>2025-09-20T10:41:28.000Z</time>
      </trkpt>
      <trkpt lat="42.9687" lon="1.02944">
        <ele>933</ele>
        <time>2025-09-20T10:41:29.000Z</time>
      </trkpt>
      <trkpt lat="42.96868" lon="1.02945">
        <ele>932</ele>
        <time>2025-09-20T10:41:30.000Z</time>
      </trkpt>
      <trkpt lat="42.96866" lon="1.02946">
        <ele>932</ele>
        <time>2025-09-20T10:41:31.000Z</time>
      </trkpt>
      <trkpt lat="42.96864" lon="1.02947">
        <ele>930</ele>
        <time>2025-09-20T10:41:32.000Z</time>
      </trkpt>
      <trkpt lat="42.96862" lon="1.02947">
        <ele>929</ele>
        <time>2025-09-20T10:41:33.000Z</time>
      </trkpt>
      <trkpt lat="42.96859" lon="1.02948">
        <ele>928</ele>
        <time>2025-09-20T10:41:34.000Z</time>
      </trkpt>
      <trkpt lat="42.96856" lon="1.02948">
        <ele>928</ele>
        <time>2025-09-20T10:41:35.000Z</time>
      </trkpt>
      <trkpt lat="42.96854" lon="1.02946">
        <ele>927</ele>
        <time>2025-09-20T10:41:36.000Z</time>
      </trkpt>
      <trkpt lat="42.96853" lon="1.02944">
        <ele>926</ele>
        <time>2025-09-20T10:41:37.000Z</time>
      </trkpt>
      <trkpt lat="42.96851" lon="1.02942">
        <ele>926</ele>
        <time>2025-09-20T10:41:38.000Z</time>
      </trkpt>
      <trkpt lat="42.96849" lon="1.02941">
        <ele>925</ele>
        <time>2025-09-20T10:41:39.000Z</time>
      </trkpt>
      <trkpt lat="42.96846" lon="1.02942">
        <ele>925</ele>
        <time>2025-09-20T10:41:40.000Z</time>
      </trkpt>
      <trkpt lat="42.96843" lon="1.02943">
        <ele>924</ele>
        <time>2025-09-20T10:41:41.000Z</time>
      </trkpt>
      <trkpt lat="42.96841" lon="1.02944">
        <ele>924</ele>
        <time>2025-09-20T10:41:42.000Z</time>
      </trkpt>
      <trkpt lat="42.96837" lon="1.02946">
        <ele>923</ele>
        <time>2025-09-20T10:41:43.000Z</time>
      </trkpt>
      <trkpt lat="42.96834" lon="1.02948">
        <ele>922</ele>
        <time>2025-09-20T10:41:44.000Z</time>
      </trkpt>
      <trkpt lat="42.9683" lon="1.02949">
        <ele>921</ele>
        <time>2025-09-20T10:41:45.000Z</time>
      </trkpt>
      <trkpt lat="42.96826" lon="1.0295">
        <ele>920</ele>
        <time>2025-09-20T10:41:46.000Z</time>
      </trkpt>
      <trkpt lat="42.96824" lon="1.02949">
        <ele>919</ele>
        <time>2025-09-20T10:41:47.000Z</time>
      </trkpt>
      <trkpt lat="42.96821" lon="1.02949">
        <ele>919</ele>
        <time>2025-09-20T10:41:48.000Z</time>
      </trkpt>
      <trkpt lat="42.96818" lon="1.02949">
        <ele>918</ele>
        <time>2025-09-20T10:41:49.000Z</time>
      </trkpt>
      <trkpt lat="42.96816" lon="1.02948">
        <ele>918</ele>
        <time>2025-09-20T10:41:50.000Z</time>
      </trkpt>
      <trkpt lat="42.96813" lon="1.02947">
        <ele>917</ele>
        <time>2025-09-20T10:41:51.000Z</time>
      </trkpt>
      <trkpt lat="42.96811" lon="1.02946">
        <ele>917</ele>
        <time>2025-09-20T10:41:52.000Z</time>
      </trkpt>
      <trkpt lat="42.96807" lon="1.02944">
        <ele>916</ele>
        <time>2025-09-20T10:41:53.000Z</time>
      </trkpt>
      <trkpt lat="42.96804" lon="1.02942">
        <ele>914</ele>
        <time>2025-09-20T10:41:54.000Z</time>
      </trkpt>
      <trkpt lat="42.96799" lon="1.0294">
        <ele>913</ele>
        <time>2025-09-20T10:41:55.000Z</time>
      </trkpt>
      <trkpt lat="42.96794" lon="1.0294">
        <ele>912</ele>
        <time>2025-09-20T10:41:56.000Z</time>
      </trkpt>
      <trkpt lat="42.96789" lon="1.0294">
        <ele>912</ele>
        <time>2025-09-20T10:41:57.000Z</time>
      </trkpt>
      <trkpt lat="42.96785" lon="1.0294">
        <ele>911</ele>
        <time>2025-09-20T10:41:58.000Z</time>
      </trkpt>
      <trkpt lat="42.9678" lon="1.0294">
        <ele>909</ele>
        <time>2025-09-20T10:41:59.000Z</time>
      </trkpt>
      <trkpt lat="42.96775" lon="1.0294">
        <ele>908</ele>
        <time>2025-09-20T10:42:00.000Z</time>
      </trkpt>
      <trkpt lat="42.9677" lon="1.02939">
        <ele>907</ele>
        <time>2025-09-20T10:42:01.000Z</time>
      </trkpt>
      <trkpt lat="42.96766" lon="1.02939">
        <ele>906</ele>
        <time>2025-09-20T10:42:02.000Z</time>
      </trkpt>
      <trkpt lat="42.96761" lon="1.02938">
        <ele>905</ele>
        <time>2025-09-20T10:42:03.000Z</time>
      </trkpt>
      <trkpt lat="42.96757" lon="1.02937">
        <ele>904</ele>
        <time>2025-09-20T10:42:04.000Z</time>
      </trkpt>
      <trkpt lat="42.96753" lon="1.02937">
        <ele>904</ele>
        <time>2025-09-20T10:42:05.000Z</time>
      </trkpt>
      <trkpt lat="42.96751" lon="1.02937">
        <ele>903</ele>
        <time>2025-09-20T10:42:06.000Z</time>
      </trkpt>
      <trkpt lat="42.96748" lon="1.02938">
        <ele>902</ele>
        <time>2025-09-20T10:42:07.000Z</time>
      </trkpt>
      <trkpt lat="42.96744" lon="1.02939">
        <ele>901</ele>
        <time>2025-09-20T10:42:08.000Z</time>
      </trkpt>
      <trkpt lat="42.96742" lon="1.02939">
        <ele>901</ele>
        <time>2025-09-20T10:42:09.000Z</time>
      </trkpt>
      <trkpt lat="42.9674" lon="1.02938">
        <ele>900</ele>
        <time>2025-09-20T10:42:10.000Z</time>
      </trkpt>
      <trkpt lat="42.96738" lon="1.02938">
        <ele>899</ele>
        <time>2025-09-20T10:42:11.000Z</time>
      </trkpt>
      <trkpt lat="42.96736" lon="1.02938">
        <ele>898</ele>
        <time>2025-09-20T10:42:12.000Z</time>
      </trkpt>
      <trkpt lat="42.96733" lon="1.02939">
        <ele>897</ele>
        <time>2025-09-20T10:42:13.000Z</time>
      </trkpt>
      <trkpt lat="42.9673" lon="1.02939">
        <ele>896</ele>
        <time>2025-09-20T10:42:14.000Z</time>
      </trkpt>
      <trkpt lat="42.96727" lon="1.0294">
        <ele>895</ele>
        <time>2025-09-20T10:42:15.000Z</time>
      </trkpt>
      <trkpt lat="42.96723" lon="1.0294">
        <ele>893</ele>
        <time>2025-09-20T10:42:16.000Z</time>
      </trkpt>
      <trkpt lat="42.96718" lon="1.02941">
        <ele>892</ele>
        <time>2025-09-20T10:42:17.000Z</time>
      </trkpt>
      <trkpt lat="42.96714" lon="1.02942">
        <ele>892</ele>
        <time>2025-09-20T10:42:18.000Z</time>
      </trkpt>
      <trkpt lat="42.96711" lon="1.02943">
        <ele>891</ele>
        <time>2025-09-20T10:42:19.000Z</time>
      </trkpt>
      <trkpt lat="42.96707" lon="1.02945">
        <ele>889</ele>
        <time>2025-09-20T10:42:20.000Z</time>
      </trkpt>
      <trkpt lat="42.96702" lon="1.02948">
        <ele>888</ele>
        <time>2025-09-20T10:42:21.000Z</time>
      </trkpt>
      <trkpt lat="42.96697" lon="1.02951">
        <ele>886</ele>
        <time>2025-09-20T10:42:22.000Z</time>
      </trkpt>
      <trkpt lat="42.96691" lon="1.02952">
        <ele>885</ele>
        <time>2025-09-20T10:42:23.000Z</time>
      </trkpt>
      <trkpt lat="42.96686" lon="1.02954">
        <ele>884</ele>
        <time>2025-09-20T10:42:24.000Z</time>
      </trkpt>
      <trkpt lat="42.96682" lon="1.02958">
        <ele>883</ele>
        <time>2025-09-20T10:42:25.000Z</time>
      </trkpt>
      <trkpt lat="42.96679" lon="1.02961">
        <ele>883</ele>
        <time>2025-09-20T10:42:26.000Z</time>
      </trkpt>
      <trkpt lat="42.96675" lon="1.02965">
        <ele>882</ele>
        <time>2025-09-20T10:42:27.000Z</time>
      </trkpt>
      <trkpt lat="42.96672" lon="1.0297">
        <ele>883</ele>
        <time>2025-09-20T10:42:28.000Z</time>
      </trkpt>
      <trkpt lat="42.96668" lon="1.02975">
        <ele>882</ele>
        <time>2025-09-20T10:42:29.000Z</time>
      </trkpt>
      <trkpt lat="42.96663" lon="1.02979">
        <ele>881</ele>
        <time>2025-09-20T10:42:30.000Z</time>
      </trkpt>
      <trkpt lat="42.96657" lon="1.02984">
        <ele>881</ele>
        <time>2025-09-20T10:42:31.000Z</time>
      </trkpt>
      <trkpt lat="42.96652" lon="1.02989">
        <ele>880</ele>
        <time>2025-09-20T10:42:32.000Z</time>
      </trkpt>
      <trkpt lat="42.96646" lon="1.02996">
        <ele>880</ele>
        <time>2025-09-20T10:42:33.000Z</time>
      </trkpt>
      <trkpt lat="42.96641" lon="1.03004">
        <ele>880</ele>
        <time>2025-09-20T10:42:34.000Z</time>
      </trkpt>
      <trkpt lat="42.96635" lon="1.03011">
        <ele>880</ele>
        <time>2025-09-20T10:42:35.000Z</time>
      </trkpt>
      <trkpt lat="42.96629" lon="1.03019">
        <ele>879</ele>
        <time>2025-09-20T10:42:36.000Z</time>
      </trkpt>
      <trkpt lat="42.96623" lon="1.03026">
        <ele>879</ele>
        <time>2025-09-20T10:42:37.000Z</time>
      </trkpt>
      <trkpt lat="42.96618" lon="1.03033">
        <ele>878</ele>
        <time>2025-09-20T10:42:38.000Z</time>
      </trkpt>
      <trkpt lat="42.96613" lon="1.03039">
        <ele>877</ele>
        <time>2025-09-20T10:42:39.000Z</time>
      </trkpt>
      <trkpt lat="42.96608" lon="1.03045">
        <ele>877</ele>
        <time>2025-09-20T10:42:40.000Z</time>
      </trkpt>
      <trkpt lat="42.96603" lon="1.03052">
        <ele>876</ele>
        <time>2025-09-20T10:42:41.000Z</time>
      </trkpt>
      <trkpt lat="42.96599" lon="1.03057">
        <ele>876</ele>
        <time>2025-09-20T10:42:42.000Z</time>
      </trkpt>
      <trkpt lat="42.96595" lon="1.03062">
        <ele>875</ele>
        <time>2025-09-20T10:42:43.000Z</time>
      </trkpt>
      <trkpt lat="42.96591" lon="1.03065">
        <ele>875</ele>
        <time>2025-09-20T10:42:44.000Z</time>
      </trkpt>
      <trkpt lat="42.96588" lon="1.03068">
        <ele>874</ele>
        <time>2025-09-20T10:42:45.000Z</time>
      </trkpt>
      <trkpt lat="42.96585" lon="1.0307">
        <ele>873</ele>
        <time>2025-09-20T10:42:46.000Z</time>
      </trkpt>
      <trkpt lat="42.96583" lon="1.03072">
        <ele>873</ele>
        <time>2025-09-20T10:42:47.000Z</time>
      </trkpt>
      <trkpt lat="42.96581" lon="1.03074">
        <ele>873</ele>
        <time>2025-09-20T10:42:48.000Z</time>
      </trkpt>
      <trkpt lat="42.9658" lon="1.03076">
        <ele>873</ele>
        <time>2025-09-20T10:42:49.000Z</time>
      </trkpt>
      <trkpt lat="42.96578" lon="1.03079">
        <ele>871</ele>
        <time>2025-09-20T10:42:50.000Z</time>
      </trkpt>
      <trkpt lat="42.96575" lon="1.03082">
        <ele>870</ele>
        <time>2025-09-20T10:42:51.000Z</time>
      </trkpt>
      <trkpt lat="42.96573" lon="1.03086">
        <ele>868</ele>
        <time>2025-09-20T10:42:52.000Z</time>
      </trkpt>
      <trkpt lat="42.96571" lon="1.03091">
        <ele>865</ele>
        <time>2025-09-20T10:42:53.000Z</time>
      </trkpt>
      <trkpt lat="42.96567" lon="1.03097">
        <ele>863</ele>
        <time>2025-09-20T10:42:54.000Z</time>
      </trkpt>
      <trkpt lat="42.96562" lon="1.03102">
        <ele>861</ele>
        <time>2025-09-20T10:42:55.000Z</time>
      </trkpt>
      <trkpt lat="42.96556" lon="1.03107">
        <ele>860</ele>
        <time>2025-09-20T10:42:56.000Z</time>
      </trkpt>
      <trkpt lat="42.96552" lon="1.03111">
        <ele>861</ele>
        <time>2025-09-20T10:42:57.000Z</time>
      </trkpt>
      <trkpt lat="42.96549" lon="1.03116">
        <ele>861</ele>
        <time>2025-09-20T10:42:58.000Z</time>
      </trkpt>
      <trkpt lat="42.96547" lon="1.03122">
        <ele>860</ele>
        <time>2025-09-20T10:42:59.000Z</time>
      </trkpt>
      <trkpt lat="42.96546" lon="1.0313">
        <ele>860</ele>
        <time>2025-09-20T10:43:00.000Z</time>
      </trkpt>
      <trkpt lat="42.96544" lon="1.03139">
        <ele>859</ele>
        <time>2025-09-20T10:43:01.000Z</time>
      </trkpt>
      <trkpt lat="42.96541" lon="1.03149">
        <ele>858</ele>
        <time>2025-09-20T10:43:02.000Z</time>
      </trkpt>
      <trkpt lat="42.96536" lon="1.03155">
        <ele>858</ele>
        <time>2025-09-20T10:43:03.000Z</time>
      </trkpt>
      <trkpt lat="42.96531" lon="1.03159">
        <ele>858</ele>
        <time>2025-09-20T10:43:04.000Z</time>
      </trkpt>
      <trkpt lat="42.96528" lon="1.03164">
        <ele>858</ele>
        <time>2025-09-20T10:43:05.000Z</time>
      </trkpt>
      <trkpt lat="42.96526" lon="1.03169">
        <ele>857</ele>
        <time>2025-09-20T10:43:06.000Z</time>
      </trkpt>
      <trkpt lat="42.96523" lon="1.03172">
        <ele>856</ele>
        <time>2025-09-20T10:43:07.000Z</time>
      </trkpt>
      <trkpt lat="42.9652" lon="1.03175">
        <ele>856</ele>
        <time>2025-09-20T10:43:08.000Z</time>
      </trkpt>
      <trkpt lat="42.96516" lon="1.03177">
        <ele>855</ele>
        <time>2025-09-20T10:43:09.000Z</time>
      </trkpt>
      <trkpt lat="42.96512" lon="1.03179">
        <ele>853</ele>
        <time>2025-09-20T10:43:10.000Z</time>
      </trkpt>
      <trkpt lat="42.96507" lon="1.03182">
        <ele>851</ele>
        <time>2025-09-20T10:43:11.000Z</time>
      </trkpt>
      <trkpt lat="42.96501" lon="1.03184">
        <ele>849</ele>
        <time>2025-09-20T10:43:12.000Z</time>
      </trkpt>
      <trkpt lat="42.96497" lon="1.03189">
        <ele>848</ele>
        <time>2025-09-20T10:43:13.000Z</time>
      </trkpt>
      <trkpt lat="42.96494" lon="1.03194">
        <ele>847</ele>
        <time>2025-09-20T10:43:14.000Z</time>
      </trkpt>
      <trkpt lat="42.96491" lon="1.03199">
        <ele>847</ele>
        <time>2025-09-20T10:43:15.000Z</time>
      </trkpt>
      <trkpt lat="42.96488" lon="1.03203">
        <ele>846</ele>
        <time>2025-09-20T10:43:16.000Z</time>
      </trkpt>
      <trkpt lat="42.96485" lon="1.03206">
        <ele>846</ele>
        <time>2025-09-20T10:43:17.000Z</time>
      </trkpt>
      <trkpt lat="42.96481" lon="1.03211">
        <ele>845</ele>
        <time>2025-09-20T10:43:18.000Z</time>
      </trkpt>
      <trkpt lat="42.96477" lon="1.03216">
        <ele>845</ele>
        <time>2025-09-20T10:43:19.000Z</time>
      </trkpt>
      <trkpt lat="42.96473" lon="1.03221">
        <ele>846</ele>
        <time>2025-09-20T10:43:20.000Z</time>
      </trkpt>
      <trkpt lat="42.96468" lon="1.03225">
        <ele>845</ele>
        <time>2025-09-20T10:43:21.000Z</time>
      </trkpt>
      <trkpt lat="42.96462" lon="1.03229">
        <ele>844</ele>
        <time>2025-09-20T10:43:22.000Z</time>
      </trkpt>
      <trkpt lat="42.96459" lon="1.03235">
        <ele>844</ele>
        <time>2025-09-20T10:43:23.000Z</time>
      </trkpt>
      <trkpt lat="42.96457" lon="1.0324">
        <ele>844</ele>
        <time>2025-09-20T10:43:24.000Z</time>
      </trkpt>
      <trkpt lat="42.96455" lon="1.03243">
        <ele>844</ele>
        <time>2025-09-20T10:43:25.000Z</time>
      </trkpt>
      <trkpt lat="42.96453" lon="1.03245">
        <ele>843</ele>
        <time>2025-09-20T10:43:26.000Z</time>
      </trkpt>
      <trkpt lat="42.96451" lon="1.03248">
        <ele>842</ele>
        <time>2025-09-20T10:43:27.000Z</time>
      </trkpt>
      <trkpt lat="42.96447" lon="1.03251">
        <ele>842</ele>
        <time>2025-09-20T10:43:28.000Z</time>
      </trkpt>
      <trkpt lat="42.96444" lon="1.03254">
        <ele>841</ele>
        <time>2025-09-20T10:43:29.000Z</time>
      </trkpt>
      <trkpt lat="42.9644" lon="1.03259">
        <ele>841</ele>
        <time>2025-09-20T10:43:30.000Z</time>
      </trkpt>
      <trkpt lat="42.96438" lon="1.03267">
        <ele>840</ele>
        <time>2025-09-20T10:43:31.000Z</time>
      </trkpt>
      <trkpt lat="42.96437" lon="1.03273">
        <ele>840</ele>
        <time>2025-09-20T10:43:32.000Z</time>
      </trkpt>
      <trkpt lat="42.96435" lon="1.03279">
        <ele>839</ele>
        <time>2025-09-20T10:43:33.000Z</time>
      </trkpt>
      <trkpt lat="42.96433" lon="1.03285">
        <ele>839</ele>
        <time>2025-09-20T10:43:34.000Z</time>
      </trkpt>
      <trkpt lat="42.96431" lon="1.0329">
        <ele>839</ele>
        <time>2025-09-20T10:43:35.000Z</time>
      </trkpt>
      <trkpt lat="42.96428" lon="1.03295">
        <ele>838</ele>
        <time>2025-09-20T10:43:36.000Z</time>
      </trkpt>
      <trkpt lat="42.96426" lon="1.03299">
        <ele>837</ele>
        <time>2025-09-20T10:43:37.000Z</time>
      </trkpt>
      <trkpt lat="42.96424" lon="1.03303">
        <ele>836</ele>
        <time>2025-09-20T10:43:38.000Z</time>
      </trkpt>
      <trkpt lat="42.96421" lon="1.03307">
        <ele>835</ele>
        <time>2025-09-20T10:43:39.000Z</time>
      </trkpt>
      <trkpt lat="42.96419" lon="1.0331">
        <ele>835</ele>
        <time>2025-09-20T10:43:40.000Z</time>
      </trkpt>
      <trkpt lat="42.96417" lon="1.03313">
        <ele>835</ele>
        <time>2025-09-20T10:43:41.000Z</time>
      </trkpt>
      <trkpt lat="42.96415" lon="1.03317">
        <ele>834</ele>
        <time>2025-09-20T10:43:42.000Z</time>
      </trkpt>
      <trkpt lat="42.96414" lon="1.03322">
        <ele>834</ele>
        <time>2025-09-20T10:43:43.000Z</time>
      </trkpt>
      <trkpt lat="42.96412" lon="1.03326">
        <ele>833</ele>
        <time>2025-09-20T10:43:44.000Z</time>
      </trkpt>
      <trkpt lat="42.9641" lon="1.03331">
        <ele>832</ele>
        <time>2025-09-20T10:43:45.000Z</time>
      </trkpt>
      <trkpt lat="42.96407" lon="1.03336">
        <ele>831</ele>
        <time>2025-09-20T10:43:46.000Z</time>
      </trkpt>
      <trkpt lat="42.96405" lon="1.03342">
        <ele>830</ele>
        <time>2025-09-20T10:43:47.000Z</time>
      </trkpt>
      <trkpt lat="42.96403" lon="1.03347">
        <ele>829</ele>
        <time>2025-09-20T10:43:48.000Z</time>
      </trkpt>
      <trkpt lat="42.964" lon="1.03351">
        <ele>829</ele>
        <time>2025-09-20T10:43:49.000Z</time>
      </trkpt>
      <trkpt lat="42.96399" lon="1.03355">
        <ele>828</ele>
        <time>2025-09-20T10:43:50.000Z</time>
      </trkpt>
      <trkpt lat="42.96396" lon="1.0336">
        <ele>826</ele>
        <time>2025-09-20T10:43:51.000Z</time>
      </trkpt>
      <trkpt lat="42.96394" lon="1.03365">
        <ele>825</ele>
        <time>2025-09-20T10:43:52.000Z</time>
      </trkpt>
      <trkpt lat="42.96391" lon="1.03373">
        <ele>824</ele>
        <time>2025-09-20T10:43:53.000Z</time>
      </trkpt>
      <trkpt lat="42.96388" lon="1.03381">
        <ele>823</ele>
        <time>2025-09-20T10:43:54.000Z</time>
      </trkpt>
      <trkpt lat="42.96386" lon="1.03389">
        <ele>822</ele>
        <time>2025-09-20T10:43:55.000Z</time>
      </trkpt>
      <trkpt lat="42.96383" lon="1.03397">
        <ele>820</ele>
        <time>2025-09-20T10:43:56.000Z</time>
      </trkpt>
      <trkpt lat="42.96381" lon="1.03405">
        <ele>819</ele>
        <time>2025-09-20T10:43:57.000Z</time>
      </trkpt>
      <trkpt lat="42.96378" lon="1.03413">
        <ele>819</ele>
        <time>2025-09-20T10:43:58.000Z</time>
      </trkpt>
      <trkpt lat="42.96376" lon="1.03421">
        <ele>819</ele>
        <time>2025-09-20T10:43:59.000Z</time>
      </trkpt>
      <trkpt lat="42.96374" lon="1.03429">
        <ele>818</ele>
        <time>2025-09-20T10:44:00.000Z</time>
      </trkpt>
      <trkpt lat="42.96372" lon="1.03434">
        <ele>818</ele>
        <time>2025-09-20T10:44:01.000Z</time>
      </trkpt>
      <trkpt lat="42.96371" lon="1.03441">
        <ele>817</ele>
        <time>2025-09-20T10:44:02.000Z</time>
      </trkpt>
      <trkpt lat="42.9637" lon="1.03448">
        <ele>817</ele>
        <time>2025-09-20T10:44:03.000Z</time>
      </trkpt>
      <trkpt lat="42.9637" lon="1.03455">
        <ele>816</ele>
        <time>2025-09-20T10:44:04.000Z</time>
      </trkpt>
      <trkpt lat="42.9637" lon="1.03464">
        <ele>816</ele>
        <time>2025-09-20T10:44:05.000Z</time>
      </trkpt>
      <trkpt lat="42.9637" lon="1.03472">
        <ele>816</ele>
        <time>2025-09-20T10:44:06.000Z</time>
      </trkpt>
      <trkpt lat="42.9637" lon="1.03479">
        <ele>816</ele>
        <time>2025-09-20T10:44:07.000Z</time>
      </trkpt>
      <trkpt lat="42.96369" lon="1.03482">
        <ele>815</ele>
        <time>2025-09-20T10:44:08.000Z</time>
      </trkpt>
      <trkpt lat="42.9637" lon="1.03484">
        <ele>816</ele>
        <time>2025-09-20T10:44:09.000Z</time>
      </trkpt>
      <trkpt lat="42.9637" lon="1.03484">
        <ele>816</ele>
        <time>2025-09-20T10:44:10.000Z</time>
      </trkpt>
      <trkpt lat="42.9637" lon="1.03484">
        <ele>816</ele>
        <time>2025-09-20T10:44:11.000Z</time>
      </trkpt>
      <trkpt lat="42.9637" lon="1.03484">
        <ele>816</ele>
        <time>2025-09-20T10:44:12.000Z</time>
      </trkpt>
      <trkpt lat="42.9637" lon="1.03484">
        <ele>816</ele>
        <time>2025-09-20T10:44:13.000Z</time>
      </trkpt>
      <trkpt lat="42.9637" lon="1.03484">
        <ele>816</ele>
        <time>2025-09-20T10:44:14.000Z</time>
      </trkpt>
      <trkpt lat="42.96368" lon="1.03485">
        <ele>816</ele>
        <time>2025-09-20T10:44:15.000Z</time>
      </trkpt>
      <trkpt lat="42.96368" lon="1.03485">
        <ele>814</ele>
        <time>2025-09-20T10:44:16.000Z</time>
      </trkpt>
      <trkpt lat="42.96368" lon="1.03486">
        <ele>813</ele>
        <time>2025-09-20T10:44:17.000Z</time>
      </trkpt>
      <trkpt lat="42.96368" lon="1.03487">
        <ele>812</ele>
        <time>2025-09-20T10:44:18.000Z</time>
      </trkpt>
      <trkpt lat="42.96368" lon="1.03489">
        <ele>811</ele>
        <time>2025-09-20T10:44:19.000Z</time>
      </trkpt>
      <trkpt lat="42.96367" lon="1.0349">
        <ele>812</ele>
        <time>2025-09-20T10:44:20.000Z</time>
      </trkpt>
      <trkpt lat="42.96366" lon="1.03491">
        <ele>811</ele>
        <time>2025-09-20T10:44:21.000Z</time>
      </trkpt>
      <trkpt lat="42.96366" lon="1.03492">
        <ele>811</ele>
        <time>2025-09-20T10:44:22.000Z</time>
      </trkpt>
      <trkpt lat="42.96365" lon="1.03495">
        <ele>812</ele>
        <time>2025-09-20T10:45:05.000Z</time>
      </trkpt>
      <trkpt lat="42.96365" lon="1.03496">
        <ele>812</ele>
        <time>2025-09-20T10:45:06.000Z</time>
      </trkpt>
      <trkpt lat="42.96365" lon="1.03495">
        <ele>812</ele>
        <time>2025-09-20T10:45:07.000Z</time>
      </trkpt>
      <trkpt lat="42.96365" lon="1.03495">
        <ele>812</ele>
        <time>2025-09-20T10:45:08.000Z</time>
      </trkpt>
      <trkpt lat="42.96365" lon="1.03496">
        <ele>811</ele>
        <time>2025-09-20T10:45:09.000Z</time>
      </trkpt>
      <trkpt lat="42.96365" lon="1.03497">
        <ele>811</ele>
        <time>2025-09-20T10:45:10.000Z</time>
      </trkpt>
      <trkpt lat="42.96364" lon="1.03498">
        <ele>811</ele>
        <time>2025-09-20T10:45:11.000Z</time>
      </trkpt>
      <trkpt lat="42.96364" lon="1.03498">
        <ele>811</ele>
        <time>2025-09-20T10:45:12.000Z</time>
      </trkpt>
      <trkpt lat="42.96363" lon="1.03499">
        <ele>810</ele>
        <time>2025-09-20T10:45:13.000Z</time>
      </trkpt>
      <trkpt lat="42.96363" lon="1.03501">
        <ele>809</ele>
        <time>2025-09-20T10:45:14.000Z</time>
      </trkpt>
      <trkpt lat="42.96362" lon="1.03503">
        <ele>810</ele>
        <time>2025-09-20T10:45:15.000Z</time>
      </trkpt>
      <trkpt lat="42.9636" lon="1.03506">
        <ele>810</ele>
        <time>2025-09-20T10:45:16.000Z</time>
      </trkpt>
      <trkpt lat="42.96358" lon="1.03509">
        <ele>810</ele>
        <time>2025-09-20T10:45:17.000Z</time>
      </trkpt>
      <trkpt lat="42.96357" lon="1.03512">
        <ele>810</ele>
        <time>2025-09-20T10:45:18.000Z</time>
      </trkpt>
      <trkpt lat="42.96356" lon="1.03515">
        <ele>810</ele>
        <time>2025-09-20T10:45:19.000Z</time>
      </trkpt>
      <trkpt lat="42.96354" lon="1.0352">
        <ele>810</ele>
        <time>2025-09-20T10:45:20.000Z</time>
      </trkpt>
      <trkpt lat="42.96351" lon="1.03523">
        <ele>810</ele>
        <time>2025-09-20T10:45:21.000Z</time>
      </trkpt>
      <trkpt lat="42.96348" lon="1.03527">
        <ele>811</ele>
        <time>2025-09-20T10:45:22.000Z</time>
      </trkpt>
      <trkpt lat="42.96345" lon="1.0353">
        <ele>811</ele>
        <time>2025-09-20T10:45:23.000Z</time>
      </trkpt>
      <trkpt lat="42.96343" lon="1.03534">
        <ele>812</ele>
        <time>2025-09-20T10:45:24.000Z</time>
      </trkpt>
      <trkpt lat="42.9634" lon="1.03537">
        <ele>811</ele>
        <time>2025-09-20T10:45:25.000Z</time>
      </trkpt>
      <trkpt lat="42.96338" lon="1.03541">
        <ele>812</ele>
        <time>2025-09-20T10:45:26.000Z</time>
      </trkpt>
      <trkpt lat="42.96336" lon="1.03545">
        <ele>812</ele>
        <time>2025-09-20T10:45:27.000Z</time>
      </trkpt>
      <trkpt lat="42.96333" lon="1.03548">
        <ele>812</ele>
        <time>2025-09-20T10:45:28.000Z</time>
      </trkpt>
      <trkpt lat="42.96331" lon="1.03551">
        <ele>811</ele>
        <time>2025-09-20T10:45:29.000Z</time>
      </trkpt>
      <trkpt lat="42.96329" lon="1.03555">
        <ele>811</ele>
        <time>2025-09-20T10:45:30.000Z</time>
      </trkpt>
      <trkpt lat="42.96326" lon="1.03558">
        <ele>811</ele>
        <time>2025-09-20T10:45:31.000Z</time>
      </trkpt>
      <trkpt lat="42.96325" lon="1.0356">
        <ele>811</ele>
        <time>2025-09-20T10:45:32.000Z</time>
      </trkpt>
      <trkpt lat="42.96325" lon="1.0356">
        <ele>809</ele>
        <time>2025-09-20T10:45:55.000Z</time>
      </trkpt>
      <trkpt lat="42.96324" lon="1.03561">
        <ele>809</ele>
        <time>2025-09-20T10:45:56.000Z</time>
      </trkpt>
      <trkpt lat="42.96324" lon="1.03562">
        <ele>808</ele>
        <time>2025-09-20T10:45:57.000Z</time>
      </trkpt>
      <trkpt lat="42.96324" lon="1.03563">
        <ele>807</ele>
        <time>2025-09-20T10:45:58.000Z</time>
      </trkpt>
      <trkpt lat="42.96323" lon="1.03562">
        <ele>807</ele>
        <time>2025-09-20T10:45:59.000Z</time>
      </trkpt>
      <trkpt lat="42.96324" lon="1.03563">
        <ele>807</ele>
        <time>2025-09-20T10:46:00.000Z</time>
      </trkpt>
      <trkpt lat="42.96324" lon="1.03564">
        <ele>807</ele>
        <time>2025-09-20T10:46:01.000Z</time>
      </trkpt>
      <trkpt lat="42.96325" lon="1.03566">
        <ele>807</ele>
        <time>2025-09-20T10:46:02.000Z</time>
      </trkpt>
      <trkpt lat="42.96325" lon="1.03565">
        <ele>808</ele>
        <time>2025-09-20T10:46:03.000Z</time>
      </trkpt>
      <trkpt lat="42.96328" lon="1.03564">
        <ele>808</ele>
        <time>2025-09-20T10:46:29.000Z</time>
      </trkpt>
      <trkpt lat="42.96329" lon="1.03563">
        <ele>809</ele>
        <time>2025-09-20T10:46:30.000Z</time>
      </trkpt>
      <trkpt lat="42.9633" lon="1.03562">
        <ele>809</ele>
        <time>2025-09-20T10:46:31.000Z</time>
      </trkpt>
      <trkpt lat="42.96332" lon="1.03561">
        <ele>809</ele>
        <time>2025-09-20T10:46:32.000Z</time>
      </trkpt>
      <trkpt lat="42.96334" lon="1.03559">
        <ele>809</ele>
        <time>2025-09-20T10:46:33.000Z</time>
      </trkpt>
      <trkpt lat="42.96335" lon="1.03557">
        <ele>809</ele>
        <time>2025-09-20T10:46:34.000Z</time>
      </trkpt>
      <trkpt lat="42.96337" lon="1.03556">
        <ele>809</ele>
        <time>2025-09-20T10:46:35.000Z</time>
      </trkpt>
      <trkpt lat="42.96339" lon="1.03554">
        <ele>809</ele>
        <time>2025-09-20T10:46:36.000Z</time>
      </trkpt>
      <trkpt lat="42.96341" lon="1.03552">
        <ele>809</ele>
        <time>2025-09-20T10:46:37.000Z</time>
      </trkpt>
      <trkpt lat="42.96342" lon="1.03551">
        <ele>810</ele>
        <time>2025-09-20T10:46:38.000Z</time>
      </trkpt>
      <trkpt lat="42.96343" lon="1.03549">
        <ele>810</ele>
        <time>2025-09-20T10:46:39.000Z</time>
      </trkpt>
      <trkpt lat="42.96346" lon="1.03548">
        <ele>811</ele>
        <time>2025-09-20T10:46:40.000Z</time>
      </trkpt>
      <trkpt lat="42.96348" lon="1.03547">
        <ele>811</ele>
        <time>2025-09-20T10:46:41.000Z</time>
      </trkpt>
      <trkpt lat="42.9635" lon="1.03547">
        <ele>811</ele>
        <time>2025-09-20T10:46:42.000Z</time>
      </trkpt>
      <trkpt lat="42.96353" lon="1.03546">
        <ele>811</ele>
        <time>2025-09-20T10:46:43.000Z</time>
      </trkpt>
      <trkpt lat="42.96355" lon="1.03545">
        <ele>811</ele>
        <time>2025-09-20T10:46:44.000Z</time>
      </trkpt>
      <trkpt lat="42.96356" lon="1.03543">
        <ele>812</ele>
        <time>2025-09-20T10:46:45.000Z</time>
      </trkpt>
      <trkpt lat="42.96358" lon="1.03541">
        <ele>812</ele>
        <time>2025-09-20T10:46:46.000Z</time>
      </trkpt>
      <trkpt lat="42.96359" lon="1.0354">
        <ele>813</ele>
        <time>2025-09-20T10:46:47.000Z</time>
      </trkpt>
      <trkpt lat="42.9636" lon="1.03538">
        <ele>814</ele>
        <time>2025-09-20T10:46:48.000Z</time>
      </trkpt>
      <trkpt lat="42.96362" lon="1.03536">
        <ele>815</ele>
        <time>2025-09-20T10:46:49.000Z</time>
      </trkpt>
      <trkpt lat="42.96363" lon="1.03535">
        <ele>815</ele>
        <time>2025-09-20T10:46:50.000Z</time>
      </trkpt>
      <trkpt lat="42.96365" lon="1.03536">
        <ele>816</ele>
        <time>2025-09-20T10:46:51.000Z</time>
      </trkpt>
      <trkpt lat="42.96365" lon="1.03537">
        <ele>816</ele>
        <time>2025-09-20T10:46:52.000Z</time>
      </trkpt>
      <trkpt lat="42.96365" lon="1.03538">
        <ele>817</ele>
        <time>2025-09-20T10:46:53.000Z</time>
      </trkpt>
      <trkpt lat="42.96364" lon="1.0354">
        <ele>817</ele>
        <time>2025-09-20T10:46:54.000Z</time>
      </trkpt>
      <trkpt lat="42.96363" lon="1.03542">
        <ele>817</ele>
        <time>2025-09-20T10:46:55.000Z</time>
      </trkpt>
      <trkpt lat="42.96362" lon="1.03545">
        <ele>817</ele>
        <time>2025-09-20T10:46:56.000Z</time>
      </trkpt>
      <trkpt lat="42.9636" lon="1.03547">
        <ele>817</ele>
        <time>2025-09-20T10:46:57.000Z</time>
      </trkpt>
      <trkpt lat="42.96359" lon="1.0355">
        <ele>818</ele>
        <time>2025-09-20T10:46:58.000Z</time>
      </trkpt>
      <trkpt lat="42.96358" lon="1.03552">
        <ele>818</ele>
        <time>2025-09-20T10:46:59.000Z</time>
      </trkpt>
      <trkpt lat="42.96358" lon="1.03553">
        <ele>818</ele>
        <time>2025-09-20T10:47:00.000Z</time>
      </trkpt>
      <trkpt lat="42.96356" lon="1.03555">
        <ele>821</ele>
        <time>2025-09-20T10:47:14.000Z</time>
      </trkpt>
      <trkpt lat="42.96355" lon="1.03557">
        <ele>821</ele>
        <time>2025-09-20T10:47:15.000Z</time>
      </trkpt>
      <trkpt lat="42.96354" lon="1.03559">
        <ele>822</ele>
        <time>2025-09-20T10:47:16.000Z</time>
      </trkpt>
      <trkpt lat="42.96353" lon="1.03561">
        <ele>822</ele>
        <time>2025-09-20T10:47:17.000Z</time>
      </trkpt>
      <trkpt lat="42.96352" lon="1.03563">
        <ele>822</ele>
        <time>2025-09-20T10:47:18.000Z</time>
      </trkpt>
      <trkpt lat="42.96351" lon="1.03565">
        <ele>823</ele>
        <time>2025-09-20T10:47:19.000Z</time>
      </trkpt>
      <trkpt lat="42.9635" lon="1.03567">
        <ele>823</ele>
        <time>2025-09-20T10:47:20.000Z</time>
      </trkpt>
      <trkpt lat="42.9635" lon="1.0357">
        <ele>824</ele>
        <time>2025-09-20T10:47:21.000Z</time>
      </trkpt>
      <trkpt lat="42.9635" lon="1.03572">
        <ele>825</ele>
        <time>2025-09-20T10:47:22.000Z</time>
      </trkpt>
      <trkpt lat="42.96349" lon="1.03574">
        <ele>825</ele>
        <time>2025-09-20T10:47:23.000Z</time>
      </trkpt>
      <trkpt lat="42.96349" lon="1.03576">
        <ele>826</ele>
        <time>2025-09-20T10:47:24.000Z</time>
      </trkpt>
      <trkpt lat="42.96348" lon="1.03579">
        <ele>826</ele>
        <time>2025-09-20T10:47:25.000Z</time>
      </trkpt>
      <trkpt lat="42.96347" lon="1.03582">
        <ele>826</ele>
        <time>2025-09-20T10:47:26.000Z</time>
      </trkpt>
      <trkpt lat="42.96347" lon="1.03585">
        <ele>827</ele>
        <time>2025-09-20T10:47:27.000Z</time>
      </trkpt>
      <trkpt lat="42.96346" lon="1.03588">
        <ele>826</ele>
        <time>2025-09-20T10:47:28.000Z</time>
      </trkpt>
      <trkpt lat="42.96346" lon="1.03591">
        <ele>826</ele>
        <time>2025-09-20T10:47:29.000Z</time>
      </trkpt>
      <trkpt lat="42.96346" lon="1.03594">
        <ele>826</ele>
        <time>2025-09-20T10:47:30.000Z</time>
      </trkpt>
      <trkpt lat="42.96345" lon="1.03596">
        <ele>826</ele>
        <time>2025-09-20T10:47:31.000Z</time>
      </trkpt>
      <trkpt lat="42.96344" lon="1.03598">
        <ele>827</ele>
        <time>2025-09-20T10:47:32.000Z</time>
      </trkpt>
      <trkpt lat="42.96343" lon="1.036">
        <ele>828</ele>
        <time>2025-09-20T10:47:33.000Z</time>
      </trkpt>
      <trkpt lat="42.96343" lon="1.03603">
        <ele>828</ele>
        <time>2025-09-20T10:47:34.000Z</time>
      </trkpt>
      <trkpt lat="42.96343" lon="1.03606">
        <ele>829</ele>
        <time>2025-09-20T10:47:35.000Z</time>
      </trkpt>
      <trkpt lat="42.96342" lon="1.03609">
        <ele>829</ele>
        <time>2025-09-20T10:47:36.000Z</time>
      </trkpt>
      <trkpt lat="42.96342" lon="1.03611">
        <ele>830</ele>
        <time>2025-09-20T10:47:37.000Z</time>
      </trkpt>
      <trkpt lat="42.96341" lon="1.03614">
        <ele>830</ele>
        <time>2025-09-20T10:47:38.000Z</time>
      </trkpt>
      <trkpt lat="42.96341" lon="1.03617">
        <ele>830</ele>
        <time>2025-09-20T10:47:39.000Z</time>
      </trkpt>
      <trkpt lat="42.96341" lon="1.0362">
        <ele>830</ele>
        <time>2025-09-20T10:47:40.000Z</time>
      </trkpt>
      <trkpt lat="42.96341" lon="1.03623">
        <ele>831</ele>
        <time>2025-09-20T10:47:41.000Z</time>
      </trkpt>
      <trkpt lat="42.9634" lon="1.03626">
        <ele>832</ele>
        <time>2025-09-20T10:47:42.000Z</time>
      </trkpt>
      <trkpt lat="42.96341" lon="1.03629">
        <ele>832</ele>
        <time>2025-09-20T10:47:43.000Z</time>
      </trkpt>
      <trkpt lat="42.9634" lon="1.03632">
        <ele>832</ele>
        <time>2025-09-20T10:47:44.000Z</time>
      </trkpt>
      <trkpt lat="42.9634" lon="1.03635">
        <ele>833</ele>
        <time>2025-09-20T10:47:45.000Z</time>
      </trkpt>
      <trkpt lat="42.96339" lon="1.03639">
        <ele>833</ele>
        <time>2025-09-20T10:47:46.000Z</time>
      </trkpt>
      <trkpt lat="42.96339" lon="1.03642">
        <ele>833</ele>
        <time>2025-09-20T10:47:47.000Z</time>
      </trkpt>
      <trkpt lat="42.96339" lon="1.03645">
        <ele>833</ele>
        <time>2025-09-20T10:47:48.000Z</time>
      </trkpt>
      <trkpt lat="42.96339" lon="1.03648">
        <ele>833</ele>
        <time>2025-09-20T10:47:49.000Z</time>
      </trkpt>
      <trkpt lat="42.96339" lon="1.03651">
        <ele>833</ele>
        <time>2025-09-20T10:47:50.000Z</time>
      </trkpt>
      <trkpt lat="42.96339" lon="1.03653">
        <ele>833</ele>
        <time>2025-09-20T10:47:51.000Z</time>
      </trkpt>
      <trkpt lat="42.9634" lon="1.03655">
        <ele>833</ele>
        <time>2025-09-20T10:47:52.000Z</time>
      </trkpt>
      <trkpt lat="42.9634" lon="1.03658">
        <ele>833</ele>
        <time>2025-09-20T10:47:53.000Z</time>
      </trkpt>
      <trkpt lat="42.96339" lon="1.0366">
        <ele>833</ele>
        <time>2025-09-20T10:47:54.000Z</time>
      </trkpt>
      <trkpt lat="42.96338" lon="1.03663">
        <ele>834</ele>
        <time>2025-09-20T10:47:55.000Z</time>
      </trkpt>
      <trkpt lat="42.96338" lon="1.03667">
        <ele>834</ele>
        <time>2025-09-20T10:47:56.000Z</time>
      </trkpt>
      <trkpt lat="42.96337" lon="1.03669">
        <ele>834</ele>
        <time>2025-09-20T10:47:57.000Z</time>
      </trkpt>
      <trkpt lat="42.96337" lon="1.03672">
        <ele>835</ele>
        <time>2025-09-20T10:47:58.000Z</time>
      </trkpt>
      <trkpt lat="42.96336" lon="1.03675">
        <ele>835</ele>
        <time>2025-09-20T10:47:59.000Z</time>
      </trkpt>
      <trkpt lat="42.96336" lon="1.03678">
        <ele>835</ele>
        <time>2025-09-20T10:48:00.000Z</time>
      </trkpt>
      <trkpt lat="42.96336" lon="1.03682">
        <ele>835</ele>
        <time>2025-09-20T10:48:01.000Z</time>
      </trkpt>
      <trkpt lat="42.96335" lon="1.03685">
        <ele>836</ele>
        <time>2025-09-20T10:48:02.000Z</time>
      </trkpt>
      <trkpt lat="42.96335" lon="1.03689">
        <ele>837</ele>
        <time>2025-09-20T10:48:03.000Z</time>
      </trkpt>
      <trkpt lat="42.96335" lon="1.03692">
        <ele>837</ele>
        <time>2025-09-20T10:48:04.000Z</time>
      </trkpt>
      <trkpt lat="42.96335" lon="1.03695">
        <ele>836</ele>
        <time>2025-09-20T10:48:05.000Z</time>
      </trkpt>
      <trkpt lat="42.96335" lon="1.03699">
        <ele>837</ele>
        <time>2025-09-20T10:48:06.000Z</time>
      </trkpt>
      <trkpt lat="42.96335" lon="1.03703">
        <ele>836</ele>
        <time>2025-09-20T10:48:07.000Z</time>
      </trkpt>
      <trkpt lat="42.96334" lon="1.03706">
        <ele>837</ele>
        <time>2025-09-20T10:48:08.000Z</time>
      </trkpt>
      <trkpt lat="42.96333" lon="1.0371">
        <ele>837</ele>
        <time>2025-09-20T10:48:09.000Z</time>
      </trkpt>
      <trkpt lat="42.96333" lon="1.03714">
        <ele>838</ele>
        <time>2025-09-20T10:48:10.000Z</time>
      </trkpt>
      <trkpt lat="42.96332" lon="1.03717">
        <ele>838</ele>
        <time>2025-09-20T10:48:11.000Z</time>
      </trkpt>
      <trkpt lat="42.96332" lon="1.03721">
        <ele>838</ele>
        <time>2025-09-20T10:48:12.000Z</time>
      </trkpt>
      <trkpt lat="42.96332" lon="1.03724">
        <ele>839</ele>
        <time>2025-09-20T10:48:13.000Z</time>
      </trkpt>
      <trkpt lat="42.96332" lon="1.03727">
        <ele>839</ele>
        <time>2025-09-20T10:48:14.000Z</time>
      </trkpt>
      <trkpt lat="42.96332" lon="1.0373">
        <ele>839</ele>
        <time>2025-09-20T10:48:15.000Z</time>
      </trkpt>
      <trkpt lat="42.96333" lon="1.03734">
        <ele>839</ele>
        <time>2025-09-20T10:48:16.000Z</time>
      </trkpt>
      <trkpt lat="42.96333" lon="1.03737">
        <ele>839</ele>
        <time>2025-09-20T10:48:17.000Z</time>
      </trkpt>
      <trkpt lat="42.96333" lon="1.0374">
        <ele>839</ele>
        <time>2025-09-20T10:48:18.000Z</time>
      </trkpt>
      <trkpt lat="42.96333" lon="1.03744">
        <ele>839</ele>
        <time>2025-09-20T10:48:19.000Z</time>
      </trkpt>
      <trkpt lat="42.96332" lon="1.03747">
        <ele>839</ele>
        <time>2025-09-20T10:48:20.000Z</time>
      </trkpt>
      <trkpt lat="42.96332" lon="1.03751">
        <ele>840</ele>
        <time>2025-09-20T10:48:21.000Z</time>
      </trkpt>
      <trkpt lat="42.96332" lon="1.03756">
        <ele>841</ele>
        <time>2025-09-20T10:48:22.000Z</time>
      </trkpt>
      <trkpt lat="42.96331" lon="1.0376">
        <ele>842</ele>
        <time>2025-09-20T10:48:23.000Z</time>
      </trkpt>
      <trkpt lat="42.9633" lon="1.03764">
        <ele>841</ele>
        <time>2025-09-20T10:48:24.000Z</time>
      </trkpt>
      <trkpt lat="42.96329" lon="1.03767">
        <ele>842</ele>
        <time>2025-09-20T10:48:25.000Z</time>
      </trkpt>
      <trkpt lat="42.96329" lon="1.0377">
        <ele>843</ele>
        <time>2025-09-20T10:48:26.000Z</time>
      </trkpt>
      <trkpt lat="42.96328" lon="1.03774">
        <ele>844</ele>
        <time>2025-09-20T10:48:27.000Z</time>
      </trkpt>
      <trkpt lat="42.96327" lon="1.03778">
        <ele>845</ele>
        <time>2025-09-20T10:48:28.000Z</time>
      </trkpt>
      <trkpt lat="42.96327" lon="1.03781">
        <ele>845</ele>
        <time>2025-09-20T10:48:29.000Z</time>
      </trkpt>
      <trkpt lat="42.96327" lon="1.03784">
        <ele>844</ele>
        <time>2025-09-20T10:48:30.000Z</time>
      </trkpt>
      <trkpt lat="42.96327" lon="1.03788">
        <ele>844</ele>
        <time>2025-09-20T10:48:31.000Z</time>
      </trkpt>
      <trkpt lat="42.96328" lon="1.03792">
        <ele>844</ele>
        <time>2025-09-20T10:48:32.000Z</time>
      </trkpt>
      <trkpt lat="42.96329" lon="1.03795">
        <ele>843</ele>
        <time>2025-09-20T10:48:33.000Z</time>
      </trkpt>
      <trkpt lat="42.9633" lon="1.03798">
        <ele>843</ele>
        <time>2025-09-20T10:48:34.000Z</time>
      </trkpt>
      <trkpt lat="42.9633" lon="1.03801">
        <ele>843</ele>
        <time>2025-09-20T10:48:35.000Z</time>
      </trkpt>
      <trkpt lat="42.9633" lon="1.03804">
        <ele>843</ele>
        <time>2025-09-20T10:48:36.000Z</time>
      </trkpt>
      <trkpt lat="42.96331" lon="1.03806">
        <ele>843</ele>
        <time>2025-09-20T10:48:37.000Z</time>
      </trkpt>
      <trkpt lat="42.96331" lon="1.0381">
        <ele>843</ele>
        <time>2025-09-20T10:48:38.000Z</time>
      </trkpt>
      <trkpt lat="42.96331" lon="1.03813">
        <ele>843</ele>
        <time>2025-09-20T10:48:39.000Z</time>
      </trkpt>
      <trkpt lat="42.96332" lon="1.03817">
        <ele>843</ele>
        <time>2025-09-20T10:48:40.000Z</time>
      </trkpt>
      <trkpt lat="42.96331" lon="1.0382">
        <ele>843</ele>
        <time>2025-09-20T10:48:41.000Z</time>
      </trkpt>
      <trkpt lat="42.9633" lon="1.03823">
        <ele>843</ele>
        <time>2025-09-20T10:48:42.000Z</time>
      </trkpt>
      <trkpt lat="42.9633" lon="1.03826">
        <ele>844</ele>
        <time>2025-09-20T10:48:43.000Z</time>
      </trkpt>
      <trkpt lat="42.96329" lon="1.0383">
        <ele>844</ele>
        <time>2025-09-20T10:48:44.000Z</time>
      </trkpt>
      <trkpt lat="42.96328" lon="1.03833">
        <ele>844</ele>
        <time>2025-09-20T10:48:45.000Z</time>
      </trkpt>
      <trkpt lat="42.96327" lon="1.03836">
        <ele>845</ele>
        <time>2025-09-20T10:48:46.000Z</time>
      </trkpt>
      <trkpt lat="42.96327" lon="1.03839">
        <ele>845</ele>
        <time>2025-09-20T10:48:47.000Z</time>
      </trkpt>
      <trkpt lat="42.96327" lon="1.03842">
        <ele>846</ele>
        <time>2025-09-20T10:48:48.000Z</time>
      </trkpt>
      <trkpt lat="42.96326" lon="1.03845">
        <ele>846</ele>
        <time>2025-09-20T10:48:49.000Z</time>
      </trkpt>
      <trkpt lat="42.96325" lon="1.03848">
        <ele>846</ele>
        <time>2025-09-20T10:48:50.000Z</time>
      </trkpt>
      <trkpt lat="42.96324" lon="1.03851">
        <ele>846</ele>
        <time>2025-09-20T10:48:51.000Z</time>
      </trkpt>
      <trkpt lat="42.96322" lon="1.03855">
        <ele>845</ele>
        <time>2025-09-20T10:48:52.000Z</time>
      </trkpt>
      <trkpt lat="42.96321" lon="1.03857">
        <ele>846</ele>
        <time>2025-09-20T10:48:53.000Z</time>
      </trkpt>
      <trkpt lat="42.9632" lon="1.0386">
        <ele>847</ele>
        <time>2025-09-20T10:48:54.000Z</time>
      </trkpt>
      <trkpt lat="42.96318" lon="1.03862">
        <ele>847</ele>
        <time>2025-09-20T10:48:55.000Z</time>
      </trkpt>
      <trkpt lat="42.96317" lon="1.03864">
        <ele>847</ele>
        <time>2025-09-20T10:48:56.000Z</time>
      </trkpt>
      <trkpt lat="42.96315" lon="1.03867">
        <ele>847</ele>
        <time>2025-09-20T10:48:57.000Z</time>
      </trkpt>
      <trkpt lat="42.96313" lon="1.03869">
        <ele>848</ele>
        <time>2025-09-20T10:48:58.000Z</time>
      </trkpt>
      <trkpt lat="42.96312" lon="1.03872">
        <ele>848</ele>
        <time>2025-09-20T10:48:59.000Z</time>
      </trkpt>
      <trkpt lat="42.9631" lon="1.03876">
        <ele>848</ele>
        <time>2025-09-20T10:49:00.000Z</time>
      </trkpt>
      <trkpt lat="42.96308" lon="1.03878">
        <ele>848</ele>
        <time>2025-09-20T10:49:01.000Z</time>
      </trkpt>
      <trkpt lat="42.96306" lon="1.0388">
        <ele>848</ele>
        <time>2025-09-20T10:49:02.000Z</time>
      </trkpt>
      <trkpt lat="42.96304" lon="1.03883">
        <ele>849</ele>
        <time>2025-09-20T10:49:03.000Z</time>
      </trkpt>
      <trkpt lat="42.96303" lon="1.03885">
        <ele>849</ele>
        <time>2025-09-20T10:49:04.000Z</time>
      </trkpt>
      <trkpt lat="42.96301" lon="1.03887">
        <ele>849</ele>
        <time>2025-09-20T10:49:05.000Z</time>
      </trkpt>
      <trkpt lat="42.96299" lon="1.03889">
        <ele>848</ele>
        <time>2025-09-20T10:49:06.000Z</time>
      </trkpt>
      <trkpt lat="42.96297" lon="1.03891">
        <ele>848</ele>
        <time>2025-09-20T10:49:07.000Z</time>
      </trkpt>
      <trkpt lat="42.96295" lon="1.03892">
        <ele>848</ele>
        <time>2025-09-20T10:49:08.000Z</time>
      </trkpt>
      <trkpt lat="42.96293" lon="1.03895">
        <ele>847</ele>
        <time>2025-09-20T10:49:09.000Z</time>
      </trkpt>
      <trkpt lat="42.96292" lon="1.03897">
        <ele>848</ele>
        <time>2025-09-20T10:49:10.000Z</time>
      </trkpt>
      <trkpt lat="42.9629" lon="1.03899">
        <ele>848</ele>
        <time>2025-09-20T10:49:11.000Z</time>
      </trkpt>
      <trkpt lat="42.96288" lon="1.039">
        <ele>848</ele>
        <time>2025-09-20T10:49:12.000Z</time>
      </trkpt>
      <trkpt lat="42.96286" lon="1.03902">
        <ele>848</ele>
        <time>2025-09-20T10:49:13.000Z</time>
      </trkpt>
      <trkpt lat="42.96284" lon="1.03904">
        <ele>848</ele>
        <time>2025-09-20T10:49:14.000Z</time>
      </trkpt>
      <trkpt lat="42.96282" lon="1.03907">
        <ele>847</ele>
        <time>2025-09-20T10:49:15.000Z</time>
      </trkpt>
      <trkpt lat="42.9628" lon="1.0391">
        <ele>847</ele>
        <time>2025-09-20T10:49:16.000Z</time>
      </trkpt>
      <trkpt lat="42.96279" lon="1.03913">
        <ele>847</ele>
        <time>2025-09-20T10:49:17.000Z</time>
      </trkpt>
      <trkpt lat="42.96277" lon="1.03916">
        <ele>847</ele>
        <time>2025-09-20T10:49:18.000Z</time>
      </trkpt>
      <trkpt lat="42.96275" lon="1.03919">
        <ele>847</ele>
        <time>2025-09-20T10:49:19.000Z</time>
      </trkpt>
      <trkpt lat="42.96274" lon="1.03922">
        <ele>848</ele>
        <time>2025-09-20T10:49:20.000Z</time>
      </trkpt>
      <trkpt lat="42.96272" lon="1.03926">
        <ele>848</ele>
        <time>2025-09-20T10:49:21.000Z</time>
      </trkpt>
      <trkpt lat="42.9627" lon="1.03929">
        <ele>848</ele>
        <time>2025-09-20T10:49:22.000Z</time>
      </trkpt>
      <trkpt lat="42.96268" lon="1.03931">
        <ele>849</ele>
        <time>2025-09-20T10:49:23.000Z</time>
      </trkpt>
      <trkpt lat="42.96266" lon="1.03933">
        <ele>849</ele>
        <time>2025-09-20T10:49:24.000Z</time>
      </trkpt>
      <trkpt lat="42.96264" lon="1.03936">
        <ele>849</ele>
        <time>2025-09-20T10:49:25.000Z</time>
      </trkpt>
      <trkpt lat="42.96262" lon="1.03939">
        <ele>849</ele>
        <time>2025-09-20T10:49:26.000Z</time>
      </trkpt>
      <trkpt lat="42.96261" lon="1.03942">
        <ele>849</ele>
        <time>2025-09-20T10:49:27.000Z</time>
      </trkpt>
      <trkpt lat="42.96259" lon="1.03945">
        <ele>849</ele>
        <time>2025-09-20T10:49:28.000Z</time>
      </trkpt>
      <trkpt lat="42.96258" lon="1.03947">
        <ele>850</ele>
        <time>2025-09-20T10:49:29.000Z</time>
      </trkpt>
      <trkpt lat="42.96256" lon="1.0395">
        <ele>850</ele>
        <time>2025-09-20T10:49:30.000Z</time>
      </trkpt>
      <trkpt lat="42.96254" lon="1.03953">
        <ele>850</ele>
        <time>2025-09-20T10:49:31.000Z</time>
      </trkpt>
      <trkpt lat="42.96252" lon="1.03956">
        <ele>850</ele>
        <time>2025-09-20T10:49:32.000Z</time>
      </trkpt>
      <trkpt lat="42.9625" lon="1.03959">
        <ele>850</ele>
        <time>2025-09-20T10:49:33.000Z</time>
      </trkpt>
      <trkpt lat="42.96249" lon="1.03962">
        <ele>850</ele>
        <time>2025-09-20T10:49:34.000Z</time>
      </trkpt>
      <trkpt lat="42.96247" lon="1.03964">
        <ele>851</ele>
        <time>2025-09-20T10:49:35.000Z</time>
      </trkpt>
      <trkpt lat="42.96246" lon="1.03967">
        <ele>851</ele>
        <time>2025-09-20T10:49:36.000Z</time>
      </trkpt>
      <trkpt lat="42.96245" lon="1.0397">
        <ele>852</ele>
        <time>2025-09-20T10:49:37.000Z</time>
      </trkpt>
      <trkpt lat="42.96244" lon="1.03973">
        <ele>852</ele>
        <time>2025-09-20T10:49:38.000Z</time>
      </trkpt>
      <trkpt lat="42.96243" lon="1.03977">
        <ele>852</ele>
        <time>2025-09-20T10:49:39.000Z</time>
      </trkpt>
      <trkpt lat="42.96241" lon="1.0398">
        <ele>852</ele>
        <time>2025-09-20T10:49:40.000Z</time>
      </trkpt>
      <trkpt lat="42.9624" lon="1.03983">
        <ele>853</ele>
        <time>2025-09-20T10:49:41.000Z</time>
      </trkpt>
      <trkpt lat="42.96238" lon="1.03986">
        <ele>852</ele>
        <time>2025-09-20T10:49:42.000Z</time>
      </trkpt>
      <trkpt lat="42.96236" lon="1.03989">
        <ele>853</ele>
        <time>2025-09-20T10:49:43.000Z</time>
      </trkpt>
      <trkpt lat="42.96235" lon="1.03992">
        <ele>854</ele>
        <time>2025-09-20T10:49:44.000Z</time>
      </trkpt>
      <trkpt lat="42.96234" lon="1.03995">
        <ele>854</ele>
        <time>2025-09-20T10:49:45.000Z</time>
      </trkpt>
      <trkpt lat="42.96233" lon="1.03997">
        <ele>853</ele>
        <time>2025-09-20T10:49:46.000Z</time>
      </trkpt>
      <trkpt lat="42.96232" lon="1.04">
        <ele>853</ele>
        <time>2025-09-20T10:49:47.000Z</time>
      </trkpt>
      <trkpt lat="42.96231" lon="1.04004">
        <ele>854</ele>
        <time>2025-09-20T10:49:48.000Z</time>
      </trkpt>
      <trkpt lat="42.9623" lon="1.04007">
        <ele>853</ele>
        <time>2025-09-20T10:49:49.000Z</time>
      </trkpt>
      <trkpt lat="42.96229" lon="1.0401">
        <ele>853</ele>
        <time>2025-09-20T10:49:50.000Z</time>
      </trkpt>
      <trkpt lat="42.96228" lon="1.04013">
        <ele>853</ele>
        <time>2025-09-20T10:49:51.000Z</time>
      </trkpt>
      <trkpt lat="42.96226" lon="1.04015">
        <ele>852</ele>
        <time>2025-09-20T10:49:52.000Z</time>
      </trkpt>
      <trkpt lat="42.96225" lon="1.04017">
        <ele>852</ele>
        <time>2025-09-20T10:49:53.000Z</time>
      </trkpt>
      <trkpt lat="42.96224" lon="1.0402">
        <ele>852</ele>
        <time>2025-09-20T10:49:54.000Z</time>
      </trkpt>
      <trkpt lat="42.96222" lon="1.04023">
        <ele>852</ele>
        <time>2025-09-20T10:49:55.000Z</time>
      </trkpt>
      <trkpt lat="42.96221" lon="1.04026">
        <ele>852</ele>
        <time>2025-09-20T10:49:56.000Z</time>
      </trkpt>
      <trkpt lat="42.9622" lon="1.04029">
        <ele>852</ele>
        <time>2025-09-20T10:49:57.000Z</time>
      </trkpt>
      <trkpt lat="42.96218" lon="1.04033">
        <ele>853</ele>
        <time>2025-09-20T10:49:58.000Z</time>
      </trkpt>
      <trkpt lat="42.96217" lon="1.04037">
        <ele>853</ele>
        <time>2025-09-20T10:49:59.000Z</time>
      </trkpt>
      <trkpt lat="42.96215" lon="1.0404">
        <ele>854</ele>
        <time>2025-09-20T10:50:00.000Z</time>
      </trkpt>
      <trkpt lat="42.96214" lon="1.04043">
        <ele>854</ele>
        <time>2025-09-20T10:50:01.000Z</time>
      </trkpt>
      <trkpt lat="42.96213" lon="1.04047">
        <ele>854</ele>
        <time>2025-09-20T10:50:02.000Z</time>
      </trkpt>
      <trkpt lat="42.96212" lon="1.04052">
        <ele>854</ele>
        <time>2025-09-20T10:50:03.000Z</time>
      </trkpt>
      <trkpt lat="42.96211" lon="1.04056">
        <ele>854</ele>
        <time>2025-09-20T10:50:04.000Z</time>
      </trkpt>
      <trkpt lat="42.9621" lon="1.04059">
        <ele>854</ele>
        <time>2025-09-20T10:50:05.000Z</time>
      </trkpt>
      <trkpt lat="42.96208" lon="1.04063">
        <ele>854</ele>
        <time>2025-09-20T10:50:06.000Z</time>
      </trkpt>
      <trkpt lat="42.96207" lon="1.04066">
        <ele>854</ele>
        <time>2025-09-20T10:50:07.000Z</time>
      </trkpt>
      <trkpt lat="42.96206" lon="1.04069">
        <ele>855</ele>
        <time>2025-09-20T10:50:08.000Z</time>
      </trkpt>
      <trkpt lat="42.96205" lon="1.04072">
        <ele>855</ele>
        <time>2025-09-20T10:50:09.000Z</time>
      </trkpt>
      <trkpt lat="42.96204" lon="1.04075">
        <ele>856</ele>
        <time>2025-09-20T10:50:10.000Z</time>
      </trkpt>
      <trkpt lat="42.96203" lon="1.04078">
        <ele>856</ele>
        <time>2025-09-20T10:50:11.000Z</time>
      </trkpt>
      <trkpt lat="42.96202" lon="1.04082">
        <ele>856</ele>
        <time>2025-09-20T10:50:12.000Z</time>
      </trkpt>
      <trkpt lat="42.96202" lon="1.04084">
        <ele>856</ele>
        <time>2025-09-20T10:50:13.000Z</time>
      </trkpt>
      <trkpt lat="42.96201" lon="1.04086">
        <ele>856</ele>
        <time>2025-09-20T10:50:14.000Z</time>
      </trkpt>
      <trkpt lat="42.962" lon="1.04089">
        <ele>855</ele>
        <time>2025-09-20T10:50:15.000Z</time>
      </trkpt>
      <trkpt lat="42.96199" lon="1.04092">
        <ele>855</ele>
        <time>2025-09-20T10:50:16.000Z</time>
      </trkpt>
      <trkpt lat="42.96199" lon="1.04094">
        <ele>855</ele>
        <time>2025-09-20T10:50:17.000Z</time>
      </trkpt>
      <trkpt lat="42.96198" lon="1.04096">
        <ele>855</ele>
        <time>2025-09-20T10:50:18.000Z</time>
      </trkpt>
      <trkpt lat="42.96198" lon="1.04098">
        <ele>855</ele>
        <time>2025-09-20T10:50:19.000Z</time>
      </trkpt>
      <trkpt lat="42.96197" lon="1.041">
        <ele>856</ele>
        <time>2025-09-20T10:50:20.000Z</time>
      </trkpt>
      <trkpt lat="42.96195" lon="1.04103">
        <ele>856</ele>
        <time>2025-09-20T10:50:21.000Z</time>
      </trkpt>
      <trkpt lat="42.96195" lon="1.04105">
        <ele>856</ele>
        <time>2025-09-20T10:50:22.000Z</time>
      </trkpt>
      <trkpt lat="42.96194" lon="1.04106">
        <ele>856</ele>
        <time>2025-09-20T10:50:23.000Z</time>
      </trkpt>
      <trkpt lat="42.96192" lon="1.04109">
        <ele>856</ele>
        <time>2025-09-20T10:50:24.000Z</time>
      </trkpt>
      <trkpt lat="42.96191" lon="1.04112">
        <ele>857</ele>
        <time>2025-09-20T10:50:25.000Z</time>
      </trkpt>
      <trkpt lat="42.9619" lon="1.04115">
        <ele>857</ele>
        <time>2025-09-20T10:50:26.000Z</time>
      </trkpt>
      <trkpt lat="42.96189" lon="1.04119">
        <ele>857</ele>
        <time>2025-09-20T10:50:27.000Z</time>
      </trkpt>
      <trkpt lat="42.96188" lon="1.04123">
        <ele>857</ele>
        <time>2025-09-20T10:50:28.000Z</time>
      </trkpt>
      <trkpt lat="42.96188" lon="1.04127">
        <ele>857</ele>
        <time>2025-09-20T10:50:29.000Z</time>
      </trkpt>
      <trkpt lat="42.96188" lon="1.04132">
        <ele>858</ele>
        <time>2025-09-20T10:50:30.000Z</time>
      </trkpt>
      <trkpt lat="42.96187" lon="1.04135">
        <ele>858</ele>
        <time>2025-09-20T10:50:31.000Z</time>
      </trkpt>
      <trkpt lat="42.96185" lon="1.04139">
        <ele>858</ele>
        <time>2025-09-20T10:50:32.000Z</time>
      </trkpt>
      <trkpt lat="42.96185" lon="1.04142">
        <ele>858</ele>
        <time>2025-09-20T10:50:33.000Z</time>
      </trkpt>
      <trkpt lat="42.96184" lon="1.04145">
        <ele>859</ele>
        <time>2025-09-20T10:50:34.000Z</time>
      </trkpt>
      <trkpt lat="42.96183" lon="1.04149">
        <ele>859</ele>
        <time>2025-09-20T10:50:35.000Z</time>
      </trkpt>
      <trkpt lat="42.96182" lon="1.04151">
        <ele>860</ele>
        <time>2025-09-20T10:50:36.000Z</time>
      </trkpt>
      <trkpt lat="42.96181" lon="1.04155">
        <ele>860</ele>
        <time>2025-09-20T10:50:37.000Z</time>
      </trkpt>
      <trkpt lat="42.9618" lon="1.04158">
        <ele>860</ele>
        <time>2025-09-20T10:50:38.000Z</time>
      </trkpt>
      <trkpt lat="42.96179" lon="1.04159">
        <ele>859</ele>
        <time>2025-09-20T10:50:39.000Z</time>
      </trkpt>
      <trkpt lat="42.9618" lon="1.04159">
        <ele>859</ele>
        <time>2025-09-20T10:50:40.000Z</time>
      </trkpt>
      <trkpt lat="42.96179" lon="1.04161">
        <ele>858</ele>
        <time>2025-09-20T10:50:55.000Z</time>
      </trkpt>
      <trkpt lat="42.96179" lon="1.04162">
        <ele>857</ele>
        <time>2025-09-20T10:50:56.000Z</time>
      </trkpt>
      <trkpt lat="42.96178" lon="1.04165">
        <ele>856</ele>
        <time>2025-09-20T10:50:57.000Z</time>
      </trkpt>
      <trkpt lat="42.96176" lon="1.04168">
        <ele>856</ele>
        <time>2025-09-20T10:50:58.000Z</time>
      </trkpt>
      <trkpt lat="42.96175" lon="1.04172">
        <ele>855</ele>
        <time>2025-09-20T10:50:59.000Z</time>
      </trkpt>
      <trkpt lat="42.96174" lon="1.04176">
        <ele>855</ele>
        <time>2025-09-20T10:51:00.000Z</time>
      </trkpt>
      <trkpt lat="42.96173" lon="1.04181">
        <ele>855</ele>
        <time>2025-09-20T10:51:01.000Z</time>
      </trkpt>
      <trkpt lat="42.96172" lon="1.04185">
        <ele>855</ele>
        <time>2025-09-20T10:51:02.000Z</time>
      </trkpt>
      <trkpt lat="42.96171" lon="1.04189">
        <ele>855</ele>
        <time>2025-09-20T10:51:03.000Z</time>
      </trkpt>
      <trkpt lat="42.9617" lon="1.04193">
        <ele>856</ele>
        <time>2025-09-20T10:51:04.000Z</time>
      </trkpt>
      <trkpt lat="42.96168" lon="1.04196">
        <ele>856</ele>
        <time>2025-09-20T10:51:05.000Z</time>
      </trkpt>
      <trkpt lat="42.96168" lon="1.04199">
        <ele>856</ele>
        <time>2025-09-20T10:51:06.000Z</time>
      </trkpt>
      <trkpt lat="42.96166" lon="1.04203">
        <ele>856</ele>
        <time>2025-09-20T10:51:07.000Z</time>
      </trkpt>
      <trkpt lat="42.96165" lon="1.04207">
        <ele>857</ele>
        <time>2025-09-20T10:51:08.000Z</time>
      </trkpt>
      <trkpt lat="42.96164" lon="1.04212">
        <ele>857</ele>
        <time>2025-09-20T10:51:09.000Z</time>
      </trkpt>
      <trkpt lat="42.96164" lon="1.04215">
        <ele>858</ele>
        <time>2025-09-20T10:51:10.000Z</time>
      </trkpt>
      <trkpt lat="42.96163" lon="1.04219">
        <ele>858</ele>
        <time>2025-09-20T10:51:11.000Z</time>
      </trkpt>
      <trkpt lat="42.96162" lon="1.04223">
        <ele>857</ele>
        <time>2025-09-20T10:51:12.000Z</time>
      </trkpt>
      <trkpt lat="42.96161" lon="1.04228">
        <ele>857</ele>
        <time>2025-09-20T10:51:13.000Z</time>
      </trkpt>
      <trkpt lat="42.9616" lon="1.04232">
        <ele>858</ele>
        <time>2025-09-20T10:51:14.000Z</time>
      </trkpt>
      <trkpt lat="42.96159" lon="1.04236">
        <ele>858</ele>
        <time>2025-09-20T10:51:15.000Z</time>
      </trkpt>
      <trkpt lat="42.96158" lon="1.04239">
        <ele>858</ele>
        <time>2025-09-20T10:51:16.000Z</time>
      </trkpt>
      <trkpt lat="42.96158" lon="1.04242">
        <ele>858</ele>
        <time>2025-09-20T10:51:17.000Z</time>
      </trkpt>
      <trkpt lat="42.96157" lon="1.04245">
        <ele>858</ele>
        <time>2025-09-20T10:51:18.000Z</time>
      </trkpt>
      <trkpt lat="42.96157" lon="1.04248">
        <ele>858</ele>
        <time>2025-09-20T10:51:19.000Z</time>
      </trkpt>
      <trkpt lat="42.96157" lon="1.04251">
        <ele>858</ele>
        <time>2025-09-20T10:51:20.000Z</time>
      </trkpt>
      <trkpt lat="42.96157" lon="1.04253">
        <ele>858</ele>
        <time>2025-09-20T10:51:21.000Z</time>
      </trkpt>
      <trkpt lat="42.96156" lon="1.04255">
        <ele>859</ele>
        <time>2025-09-20T10:51:22.000Z</time>
      </trkpt>
      <trkpt lat="42.96156" lon="1.04255">
        <ele>859</ele>
        <time>2025-09-20T10:51:23.000Z</time>
      </trkpt>
      <trkpt lat="42.96156" lon="1.04255">
        <ele>858</ele>
        <time>2025-09-20T10:51:24.000Z</time>
      </trkpt>
      <trkpt lat="42.96156" lon="1.04256">
        <ele>857</ele>
        <time>2025-09-20T10:51:25.000Z</time>
      </trkpt>
      <trkpt lat="42.96155" lon="1.04255">
        <ele>858</ele>
        <time>2025-09-20T10:51:26.000Z</time>
      </trkpt>
      <trkpt lat="42.96155" lon="1.04256">
        <ele>858</ele>
        <time>2025-09-20T10:51:27.000Z</time>
      </trkpt>
      <trkpt lat="42.96155" lon="1.04257">
        <ele>858</ele>
        <time>2025-09-20T10:51:28.000Z</time>
      </trkpt>
      <trkpt lat="42.96154" lon="1.04259">
        <ele>858</ele>
        <time>2025-09-20T10:51:29.000Z</time>
      </trkpt>
      <trkpt lat="42.96154" lon="1.04261">
        <ele>858</ele>
        <time>2025-09-20T10:51:30.000Z</time>
      </trkpt>
      <trkpt lat="42.96153" lon="1.04263">
        <ele>858</ele>
        <time>2025-09-20T10:51:31.000Z</time>
      </trkpt>
      <trkpt lat="42.96153" lon="1.04265">
        <ele>858</ele>
        <time>2025-09-20T10:51:32.000Z</time>
      </trkpt>
      <trkpt lat="42.96152" lon="1.04268">
        <ele>858</ele>
        <time>2025-09-20T10:51:33.000Z</time>
      </trkpt>
      <trkpt lat="42.96152" lon="1.04271">
        <ele>858</ele>
        <time>2025-09-20T10:51:34.000Z</time>
      </trkpt>
      <trkpt lat="42.96151" lon="1.04275">
        <ele>858</ele>
        <time>2025-09-20T10:51:35.000Z</time>
      </trkpt>
      <trkpt lat="42.96151" lon="1.04278">
        <ele>858</ele>
        <time>2025-09-20T10:51:36.000Z</time>
      </trkpt>
      <trkpt lat="42.9615" lon="1.04281">
        <ele>858</ele>
        <time>2025-09-20T10:51:37.000Z</time>
      </trkpt>
      <trkpt lat="42.96149" lon="1.04283">
        <ele>858</ele>
        <time>2025-09-20T10:51:38.000Z</time>
      </trkpt>
      <trkpt lat="42.96149" lon="1.04287">
        <ele>858</ele>
        <time>2025-09-20T10:51:39.000Z</time>
      </trkpt>
      <trkpt lat="42.96148" lon="1.04291">
        <ele>858</ele>
        <time>2025-09-20T10:51:40.000Z</time>
      </trkpt>
      <trkpt lat="42.96147" lon="1.04296">
        <ele>858</ele>
        <time>2025-09-20T10:51:41.000Z</time>
      </trkpt>
      <trkpt lat="42.96146" lon="1.04301">
        <ele>858</ele>
        <time>2025-09-20T10:51:42.000Z</time>
      </trkpt>
      <trkpt lat="42.96145" lon="1.04306">
        <ele>858</ele>
        <time>2025-09-20T10:51:43.000Z</time>
      </trkpt>
      <trkpt lat="42.96144" lon="1.0431">
        <ele>857</ele>
        <time>2025-09-20T10:51:44.000Z</time>
      </trkpt>
      <trkpt lat="42.96144" lon="1.04313">
        <ele>857</ele>
        <time>2025-09-20T10:51:45.000Z</time>
      </trkpt>
      <trkpt lat="42.96143" lon="1.04317">
        <ele>858</ele>
        <time>2025-09-20T10:51:46.000Z</time>
      </trkpt>
      <trkpt lat="42.96143" lon="1.04322">
        <ele>858</ele>
        <time>2025-09-20T10:51:47.000Z</time>
      </trkpt>
      <trkpt lat="42.96143" lon="1.04325">
        <ele>858</ele>
        <time>2025-09-20T10:51:48.000Z</time>
      </trkpt>
      <trkpt lat="42.96141" lon="1.0433">
        <ele>859</ele>
        <time>2025-09-20T10:51:49.000Z</time>
      </trkpt>
      <trkpt lat="42.96141" lon="1.04334">
        <ele>859</ele>
        <time>2025-09-20T10:51:50.000Z</time>
      </trkpt>
      <trkpt lat="42.9614" lon="1.04339">
        <ele>860</ele>
        <time>2025-09-20T10:51:51.000Z</time>
      </trkpt>
      <trkpt lat="42.9614" lon="1.04344">
        <ele>860</ele>
        <time>2025-09-20T10:51:52.000Z</time>
      </trkpt>
      <trkpt lat="42.9614" lon="1.04348">
        <ele>860</ele>
        <time>2025-09-20T10:51:53.000Z</time>
      </trkpt>
      <trkpt lat="42.9614" lon="1.04352">
        <ele>860</ele>
        <time>2025-09-20T10:51:54.000Z</time>
      </trkpt>
      <trkpt lat="42.9614" lon="1.04355">
        <ele>860</ele>
        <time>2025-09-20T10:51:55.000Z</time>
      </trkpt>
      <trkpt lat="42.96139" lon="1.04358">
        <ele>860</ele>
        <time>2025-09-20T10:51:56.000Z</time>
      </trkpt>
      <trkpt lat="42.96139" lon="1.04361">
        <ele>860</ele>
        <time>2025-09-20T10:51:57.000Z</time>
      </trkpt>
      <trkpt lat="42.96139" lon="1.04365">
        <ele>860</ele>
        <time>2025-09-20T10:51:58.000Z</time>
      </trkpt>
      <trkpt lat="42.96139" lon="1.04368">
        <ele>860</ele>
        <time>2025-09-20T10:51:59.000Z</time>
      </trkpt>
      <trkpt lat="42.9614" lon="1.04372">
        <ele>860</ele>
        <time>2025-09-20T10:52:00.000Z</time>
      </trkpt>
      <trkpt lat="42.9614" lon="1.04375">
        <ele>860</ele>
        <time>2025-09-20T10:52:01.000Z</time>
      </trkpt>
      <trkpt lat="42.9614" lon="1.04376">
        <ele>860</ele>
        <time>2025-09-20T10:52:02.000Z</time>
      </trkpt>
      <trkpt lat="42.9614" lon="1.04378">
        <ele>860</ele>
        <time>2025-09-20T10:52:03.000Z</time>
      </trkpt>
      <trkpt lat="42.9614" lon="1.04381">
        <ele>860</ele>
        <time>2025-09-20T10:52:04.000Z</time>
      </trkpt>
      <trkpt lat="42.9614" lon="1.04387">
        <ele>860</ele>
        <time>2025-09-20T10:52:05.000Z</time>
      </trkpt>
      <trkpt lat="42.96139" lon="1.04391">
        <ele>861</ele>
        <time>2025-09-20T10:52:06.000Z</time>
      </trkpt>
      <trkpt lat="42.96139" lon="1.04394">
        <ele>861</ele>
        <time>2025-09-20T10:52:07.000Z</time>
      </trkpt>
      <trkpt lat="42.96139" lon="1.04397">
        <ele>862</ele>
        <time>2025-09-20T10:52:08.000Z</time>
      </trkpt>
      <trkpt lat="42.96139" lon="1.04401">
        <ele>862</ele>
        <time>2025-09-20T10:52:09.000Z</time>
      </trkpt>
      <trkpt lat="42.96139" lon="1.04404">
        <ele>862</ele>
        <time>2025-09-20T10:52:10.000Z</time>
      </trkpt>
      <trkpt lat="42.96139" lon="1.04408">
        <ele>862</ele>
        <time>2025-09-20T10:52:11.000Z</time>
      </trkpt>
      <trkpt lat="42.96138" lon="1.04412">
        <ele>863</ele>
        <time>2025-09-20T10:52:12.000Z</time>
      </trkpt>
      <trkpt lat="42.96136" lon="1.04416">
        <ele>862</ele>
        <time>2025-09-20T10:52:13.000Z</time>
      </trkpt>
      <trkpt lat="42.96135" lon="1.04421">
        <ele>862</ele>
        <time>2025-09-20T10:52:14.000Z</time>
      </trkpt>
      <trkpt lat="42.96133" lon="1.04426">
        <ele>862</ele>
        <time>2025-09-20T10:52:15.000Z</time>
      </trkpt>
      <trkpt lat="42.96131" lon="1.0443">
        <ele>863</ele>
        <time>2025-09-20T10:52:16.000Z</time>
      </trkpt>
      <trkpt lat="42.9613" lon="1.04434">
        <ele>864</ele>
        <time>2025-09-20T10:52:17.000Z</time>
      </trkpt>
      <trkpt lat="42.9613" lon="1.04437">
        <ele>865</ele>
        <time>2025-09-20T10:52:18.000Z</time>
      </trkpt>
      <trkpt lat="42.96129" lon="1.04439">
        <ele>865</ele>
        <time>2025-09-20T10:52:19.000Z</time>
      </trkpt>
      <trkpt lat="42.96129" lon="1.04441">
        <ele>865</ele>
        <time>2025-09-20T10:52:20.000Z</time>
      </trkpt>
      <trkpt lat="42.96129" lon="1.04444">
        <ele>865</ele>
        <time>2025-09-20T10:52:21.000Z</time>
      </trkpt>
      <trkpt lat="42.96128" lon="1.04448">
        <ele>864</ele>
        <time>2025-09-20T10:52:22.000Z</time>
      </trkpt>
      <trkpt lat="42.96127" lon="1.04452">
        <ele>864</ele>
        <time>2025-09-20T10:52:23.000Z</time>
      </trkpt>
      <trkpt lat="42.96126" lon="1.04456">
        <ele>865</ele>
        <time>2025-09-20T10:52:24.000Z</time>
      </trkpt>
      <trkpt lat="42.96126" lon="1.04459">
        <ele>865</ele>
        <time>2025-09-20T10:52:25.000Z</time>
      </trkpt>
      <trkpt lat="42.96125" lon="1.04462">
        <ele>865</ele>
        <time>2025-09-20T10:52:26.000Z</time>
      </trkpt>
      <trkpt lat="42.96124" lon="1.04466">
        <ele>865</ele>
        <time>2025-09-20T10:52:27.000Z</time>
      </trkpt>
      <trkpt lat="42.96124" lon="1.04471">
        <ele>864</ele>
        <time>2025-09-20T10:52:28.000Z</time>
      </trkpt>
      <trkpt lat="42.96122" lon="1.04475">
        <ele>865</ele>
        <time>2025-09-20T10:52:29.000Z</time>
      </trkpt>
      <trkpt lat="42.96121" lon="1.04479">
        <ele>865</ele>
        <time>2025-09-20T10:52:30.000Z</time>
      </trkpt>
      <trkpt lat="42.9612" lon="1.04484">
        <ele>866</ele>
        <time>2025-09-20T10:52:31.000Z</time>
      </trkpt>
      <trkpt lat="42.96118" lon="1.04488">
        <ele>866</ele>
        <time>2025-09-20T10:52:32.000Z</time>
      </trkpt>
      <trkpt lat="42.96117" lon="1.04493">
        <ele>866</ele>
        <time>2025-09-20T10:52:33.000Z</time>
      </trkpt>
      <trkpt lat="42.96116" lon="1.04499">
        <ele>865</ele>
        <time>2025-09-20T10:52:34.000Z</time>
      </trkpt>
      <trkpt lat="42.96116" lon="1.04504">
        <ele>866</ele>
        <time>2025-09-20T10:52:35.000Z</time>
      </trkpt>
      <trkpt lat="42.96115" lon="1.04509">
        <ele>867</ele>
        <time>2025-09-20T10:52:36.000Z</time>
      </trkpt>
      <trkpt lat="42.96114" lon="1.04514">
        <ele>866</ele>
        <time>2025-09-20T10:52:37.000Z</time>
      </trkpt>
      <trkpt lat="42.96113" lon="1.04518">
        <ele>866</ele>
        <time>2025-09-20T10:52:38.000Z</time>
      </trkpt>
      <trkpt lat="42.96111" lon="1.04522">
        <ele>865</ele>
        <time>2025-09-20T10:52:39.000Z</time>
      </trkpt>
      <trkpt lat="42.96111" lon="1.04526">
        <ele>866</ele>
        <time>2025-09-20T10:52:40.000Z</time>
      </trkpt>
      <trkpt lat="42.9611" lon="1.0453">
        <ele>865</ele>
        <time>2025-09-20T10:52:41.000Z</time>
      </trkpt>
      <trkpt lat="42.9611" lon="1.04534">
        <ele>865</ele>
        <time>2025-09-20T10:52:42.000Z</time>
      </trkpt>
      <trkpt lat="42.9611" lon="1.04538">
        <ele>865</ele>
        <time>2025-09-20T10:52:43.000Z</time>
      </trkpt>
      <trkpt lat="42.96109" lon="1.04541">
        <ele>865</ele>
        <time>2025-09-20T10:52:44.000Z</time>
      </trkpt>
      <trkpt lat="42.9611" lon="1.04544">
        <ele>864</ele>
        <time>2025-09-20T10:52:45.000Z</time>
      </trkpt>
      <trkpt lat="42.96111" lon="1.04545">
        <ele>864</ele>
        <time>2025-09-20T10:52:46.000Z</time>
      </trkpt>
      <trkpt lat="42.96111" lon="1.04545">
        <ele>864</ele>
        <time>2025-09-20T10:52:47.000Z</time>
      </trkpt>
      <trkpt lat="42.96111" lon="1.04545">
        <ele>864</ele>
        <time>2025-09-20T10:52:48.000Z</time>
      </trkpt>
      <trkpt lat="42.9611" lon="1.04546">
        <ele>863</ele>
        <time>2025-09-20T10:52:49.000Z</time>
      </trkpt>
      <trkpt lat="42.9611" lon="1.04546">
        <ele>864</ele>
        <time>2025-09-20T10:52:50.000Z</time>
      </trkpt>
      <trkpt lat="42.96109" lon="1.04548">
        <ele>864</ele>
        <time>2025-09-20T10:52:51.000Z</time>
      </trkpt>
      <trkpt lat="42.96109" lon="1.0455">
        <ele>865</ele>
        <time>2025-09-20T10:52:52.000Z</time>
      </trkpt>
      <trkpt lat="42.96109" lon="1.04553">
        <ele>865</ele>
        <time>2025-09-20T10:52:53.000Z</time>
      </trkpt>
      <trkpt lat="42.96108" lon="1.04557">
        <ele>865</ele>
        <time>2025-09-20T10:52:54.000Z</time>
      </trkpt>
      <trkpt lat="42.96108" lon="1.0456">
        <ele>865</ele>
        <time>2025-09-20T10:52:55.000Z</time>
      </trkpt>
      <trkpt lat="42.96107" lon="1.04562">
        <ele>865</ele>
        <time>2025-09-20T10:52:56.000Z</time>
      </trkpt>
      <trkpt lat="42.96107" lon="1.04565">
        <ele>865</ele>
        <time>2025-09-20T10:52:57.000Z</time>
      </trkpt>
      <trkpt lat="42.96107" lon="1.04568">
        <ele>865</ele>
        <time>2025-09-20T10:52:58.000Z</time>
      </trkpt>
      <trkpt lat="42.96106" lon="1.04572">
        <ele>864</ele>
        <time>2025-09-20T10:52:59.000Z</time>
      </trkpt>
      <trkpt lat="42.96105" lon="1.04577">
        <ele>864</ele>
        <time>2025-09-20T10:53:00.000Z</time>
      </trkpt>
      <trkpt lat="42.96105" lon="1.04582">
        <ele>865</ele>
        <time>2025-09-20T10:53:01.000Z</time>
      </trkpt>
      <trkpt lat="42.96105" lon="1.04587">
        <ele>864</ele>
        <time>2025-09-20T10:53:02.000Z</time>
      </trkpt>
      <trkpt lat="42.96103" lon="1.04592">
        <ele>863</ele>
        <time>2025-09-20T10:53:03.000Z</time>
      </trkpt>
      <trkpt lat="42.96102" lon="1.04598">
        <ele>862</ele>
        <time>2025-09-20T10:53:04.000Z</time>
      </trkpt>
      <trkpt lat="42.96101" lon="1.04605">
        <ele>861</ele>
        <time>2025-09-20T10:53:05.000Z</time>
      </trkpt>
      <trkpt lat="42.96099" lon="1.04612">
        <ele>859</ele>
        <time>2025-09-20T10:53:06.000Z</time>
      </trkpt>
      <trkpt lat="42.96097" lon="1.0462">
        <ele>858</ele>
        <time>2025-09-20T10:53:07.000Z</time>
      </trkpt>
      <trkpt lat="42.96095" lon="1.0463">
        <ele>858</ele>
        <time>2025-09-20T10:53:08.000Z</time>
      </trkpt>
      <trkpt lat="42.96092" lon="1.04638">
        <ele>859</ele>
        <time>2025-09-20T10:53:09.000Z</time>
      </trkpt>
      <trkpt lat="42.96089" lon="1.04644">
        <ele>859</ele>
        <time>2025-09-20T10:53:10.000Z</time>
      </trkpt>
      <trkpt lat="42.96085" lon="1.04652">
        <ele>860</ele>
        <time>2025-09-20T10:53:11.000Z</time>
      </trkpt>
      <trkpt lat="42.96082" lon="1.04658">
        <ele>861</ele>
        <time>2025-09-20T10:53:12.000Z</time>
      </trkpt>
      <trkpt lat="42.96078" lon="1.04664">
        <ele>861</ele>
        <time>2025-09-20T10:53:13.000Z</time>
      </trkpt>
      <trkpt lat="42.96076" lon="1.04668">
        <ele>862</ele>
        <time>2025-09-20T10:53:14.000Z</time>
      </trkpt>
      <trkpt lat="42.96074" lon="1.04671">
        <ele>861</ele>
        <time>2025-09-20T10:53:15.000Z</time>
      </trkpt>
      <trkpt lat="42.96073" lon="1.04675">
        <ele>861</ele>
        <time>2025-09-20T10:53:16.000Z</time>
      </trkpt>
      <trkpt lat="42.96071" lon="1.04679">
        <ele>861</ele>
        <time>2025-09-20T10:53:17.000Z</time>
      </trkpt>
      <trkpt lat="42.9607" lon="1.04682">
        <ele>861</ele>
        <time>2025-09-20T10:53:18.000Z</time>
      </trkpt>
      <trkpt lat="42.96068" lon="1.04685">
        <ele>861</ele>
        <time>2025-09-20T10:53:19.000Z</time>
      </trkpt>
      <trkpt lat="42.96067" lon="1.04689">
        <ele>861</ele>
        <time>2025-09-20T10:53:20.000Z</time>
      </trkpt>
      <trkpt lat="42.96066" lon="1.04693">
        <ele>861</ele>
        <time>2025-09-20T10:53:21.000Z</time>
      </trkpt>
      <trkpt lat="42.96065" lon="1.04696">
        <ele>861</ele>
        <time>2025-09-20T10:53:22.000Z</time>
      </trkpt>
      <trkpt lat="42.96063" lon="1.047">
        <ele>861</ele>
        <time>2025-09-20T10:53:23.000Z</time>
      </trkpt>
      <trkpt lat="42.96061" lon="1.04704">
        <ele>861</ele>
        <time>2025-09-20T10:53:24.000Z</time>
      </trkpt>
      <trkpt lat="42.96059" lon="1.04708">
        <ele>861</ele>
        <time>2025-09-20T10:53:25.000Z</time>
      </trkpt>
      <trkpt lat="42.96058" lon="1.04713">
        <ele>861</ele>
        <time>2025-09-20T10:53:26.000Z</time>
      </trkpt>
      <trkpt lat="42.96057" lon="1.04717">
        <ele>861</ele>
        <time>2025-09-20T10:53:27.000Z</time>
      </trkpt>
      <trkpt lat="42.96055" lon="1.04721">
        <ele>860</ele>
        <time>2025-09-20T10:53:28.000Z</time>
      </trkpt>
      <trkpt lat="42.96053" lon="1.04723">
        <ele>860</ele>
        <time>2025-09-20T10:53:29.000Z</time>
      </trkpt>
      <trkpt lat="42.96051" lon="1.04726">
        <ele>860</ele>
        <time>2025-09-20T10:53:30.000Z</time>
      </trkpt>
      <trkpt lat="42.9605" lon="1.04729">
        <ele>860</ele>
        <time>2025-09-20T10:53:31.000Z</time>
      </trkpt>
      <trkpt lat="42.96049" lon="1.04732">
        <ele>860</ele>
        <time>2025-09-20T10:53:32.000Z</time>
      </trkpt>
      <trkpt lat="42.96049" lon="1.04734">
        <ele>860</ele>
        <time>2025-09-20T10:53:33.000Z</time>
      </trkpt>
      <trkpt lat="42.96048" lon="1.04736">
        <ele>860</ele>
        <time>2025-09-20T10:53:34.000Z</time>
      </trkpt>
      <trkpt lat="42.96047" lon="1.04738">
        <ele>860</ele>
        <time>2025-09-20T10:53:35.000Z</time>
      </trkpt>
      <trkpt lat="42.96046" lon="1.0474">
        <ele>860</ele>
        <time>2025-09-20T10:53:36.000Z</time>
      </trkpt>
      <trkpt lat="42.96044" lon="1.04743">
        <ele>859</ele>
        <time>2025-09-20T10:53:37.000Z</time>
      </trkpt>
      <trkpt lat="42.96041" lon="1.04747">
        <ele>859</ele>
        <time>2025-09-20T10:53:38.000Z</time>
      </trkpt>
      <trkpt lat="42.96038" lon="1.04751">
        <ele>859</ele>
        <time>2025-09-20T10:53:39.000Z</time>
      </trkpt>
      <trkpt lat="42.96036" lon="1.04755">
        <ele>859</ele>
        <time>2025-09-20T10:53:40.000Z</time>
      </trkpt>
      <trkpt lat="42.96034" lon="1.04759">
        <ele>859</ele>
        <time>2025-09-20T10:53:41.000Z</time>
      </trkpt>
      <trkpt lat="42.96033" lon="1.04763">
        <ele>860</ele>
        <time>2025-09-20T10:53:42.000Z</time>
      </trkpt>
      <trkpt lat="42.96031" lon="1.04766">
        <ele>860</ele>
        <time>2025-09-20T10:53:43.000Z</time>
      </trkpt>
      <trkpt lat="42.9603" lon="1.04768">
        <ele>860</ele>
        <time>2025-09-20T10:53:44.000Z</time>
      </trkpt>
      <trkpt lat="42.96028" lon="1.0477">
        <ele>860</ele>
        <time>2025-09-20T10:53:45.000Z</time>
      </trkpt>
      <trkpt lat="42.96026" lon="1.04772">
        <ele>860</ele>
        <time>2025-09-20T10:53:46.000Z</time>
      </trkpt>
      <trkpt lat="42.96025" lon="1.04775">
        <ele>860</ele>
        <time>2025-09-20T10:53:47.000Z</time>
      </trkpt>
      <trkpt lat="42.96023" lon="1.04777">
        <ele>860</ele>
        <time>2025-09-20T10:53:48.000Z</time>
      </trkpt>
      <trkpt lat="42.96021" lon="1.04781">
        <ele>860</ele>
        <time>2025-09-20T10:53:49.000Z</time>
      </trkpt>
      <trkpt lat="42.96021" lon="1.04784">
        <ele>861</ele>
        <time>2025-09-20T10:53:50.000Z</time>
      </trkpt>
      <trkpt lat="42.9602" lon="1.04787">
        <ele>862</ele>
        <time>2025-09-20T10:53:51.000Z</time>
      </trkpt>
      <trkpt lat="42.9602" lon="1.04789">
        <ele>862</ele>
        <time>2025-09-20T10:53:52.000Z</time>
      </trkpt>
      <trkpt lat="42.96019" lon="1.04791">
        <ele>862</ele>
        <time>2025-09-20T10:53:53.000Z</time>
      </trkpt>
      <trkpt lat="42.96018" lon="1.04793">
        <ele>862</ele>
        <time>2025-09-20T10:53:54.000Z</time>
      </trkpt>
      <trkpt lat="42.96016" lon="1.04794">
        <ele>862</ele>
        <time>2025-09-20T10:53:55.000Z</time>
      </trkpt>
      <trkpt lat="42.96014" lon="1.04796">
        <ele>862</ele>
        <time>2025-09-20T10:53:56.000Z</time>
      </trkpt>
      <trkpt lat="42.96012" lon="1.04798">
        <ele>861</ele>
        <time>2025-09-20T10:53:57.000Z</time>
      </trkpt>
      <trkpt lat="42.96011" lon="1.048">
        <ele>861</ele>
        <time>2025-09-20T10:53:58.000Z</time>
      </trkpt>
      <trkpt lat="42.9601" lon="1.04803">
        <ele>860</ele>
        <time>2025-09-20T10:53:59.000Z</time>
      </trkpt>
      <trkpt lat="42.96009" lon="1.04805">
        <ele>859</ele>
        <time>2025-09-20T10:54:00.000Z</time>
      </trkpt>
      <trkpt lat="42.96008" lon="1.04806">
        <ele>859</ele>
        <time>2025-09-20T10:54:01.000Z</time>
      </trkpt>
      <trkpt lat="42.96007" lon="1.04808">
        <ele>859</ele>
        <time>2025-09-20T10:54:02.000Z</time>
      </trkpt>
      <trkpt lat="42.96006" lon="1.0481">
        <ele>859</ele>
        <time>2025-09-20T10:54:03.000Z</time>
      </trkpt>
      <trkpt lat="42.96005" lon="1.04813">
        <ele>859</ele>
        <time>2025-09-20T10:54:04.000Z</time>
      </trkpt>
      <trkpt lat="42.96004" lon="1.04816">
        <ele>859</ele>
        <time>2025-09-20T10:54:05.000Z</time>
      </trkpt>
      <trkpt lat="42.96003" lon="1.04819">
        <ele>859</ele>
        <time>2025-09-20T10:54:06.000Z</time>
      </trkpt>
      <trkpt lat="42.96003" lon="1.04822">
        <ele>859</ele>
        <time>2025-09-20T10:54:07.000Z</time>
      </trkpt>
      <trkpt lat="42.96003" lon="1.04825">
        <ele>859</ele>
        <time>2025-09-20T10:54:08.000Z</time>
      </trkpt>
      <trkpt lat="42.96002" lon="1.04827">
        <ele>859</ele>
        <time>2025-09-20T10:54:09.000Z</time>
      </trkpt>
      <trkpt lat="42.96002" lon="1.0483">
        <ele>859</ele>
        <time>2025-09-20T10:54:10.000Z</time>
      </trkpt>
      <trkpt lat="42.96001" lon="1.04832">
        <ele>859</ele>
        <time>2025-09-20T10:54:11.000Z</time>
      </trkpt>
      <trkpt lat="42.96001" lon="1.04834">
        <ele>859</ele>
        <time>2025-09-20T10:54:12.000Z</time>
      </trkpt>
      <trkpt lat="42.96001" lon="1.04836">
        <ele>860</ele>
        <time>2025-09-20T10:54:13.000Z</time>
      </trkpt>
      <trkpt lat="42.96001" lon="1.04838">
        <ele>860</ele>
        <time>2025-09-20T10:54:14.000Z</time>
      </trkpt>
      <trkpt lat="42.96" lon="1.04841">
        <ele>860</ele>
        <time>2025-09-20T10:54:15.000Z</time>
      </trkpt>
      <trkpt lat="42.95998" lon="1.04844">
        <ele>860</ele>
        <time>2025-09-20T10:54:16.000Z</time>
      </trkpt>
      <trkpt lat="42.95996" lon="1.04846">
        <ele>860</ele>
        <time>2025-09-20T10:54:17.000Z</time>
      </trkpt>
      <trkpt lat="42.95994" lon="1.04848">
        <ele>860</ele>
        <time>2025-09-20T10:54:18.000Z</time>
      </trkpt>
      <trkpt lat="42.95992" lon="1.04852">
        <ele>860</ele>
        <time>2025-09-20T10:54:19.000Z</time>
      </trkpt>
      <trkpt lat="42.9599" lon="1.04854">
        <ele>861</ele>
        <time>2025-09-20T10:54:20.000Z</time>
      </trkpt>
      <trkpt lat="42.95988" lon="1.04858">
        <ele>861</ele>
        <time>2025-09-20T10:54:21.000Z</time>
      </trkpt>
      <trkpt lat="42.95987" lon="1.04861">
        <ele>861</ele>
        <time>2025-09-20T10:54:22.000Z</time>
      </trkpt>
      <trkpt lat="42.95985" lon="1.04864">
        <ele>862</ele>
        <time>2025-09-20T10:54:23.000Z</time>
      </trkpt>
      <trkpt lat="42.95984" lon="1.04867">
        <ele>863</ele>
        <time>2025-09-20T10:54:24.000Z</time>
      </trkpt>
      <trkpt lat="42.95983" lon="1.04869">
        <ele>863</ele>
        <time>2025-09-20T10:54:25.000Z</time>
      </trkpt>
      <trkpt lat="42.95982" lon="1.04872">
        <ele>862</ele>
        <time>2025-09-20T10:54:26.000Z</time>
      </trkpt>
      <trkpt lat="42.9598" lon="1.04875">
        <ele>863</ele>
        <time>2025-09-20T10:54:27.000Z</time>
      </trkpt>
      <trkpt lat="42.95979" lon="1.04878">
        <ele>863</ele>
        <time>2025-09-20T10:54:28.000Z</time>
      </trkpt>
      <trkpt lat="42.95978" lon="1.04881">
        <ele>864</ele>
        <time>2025-09-20T10:54:29.000Z</time>
      </trkpt>
      <trkpt lat="42.95977" lon="1.04885">
        <ele>864</ele>
        <time>2025-09-20T10:54:30.000Z</time>
      </trkpt>
      <trkpt lat="42.95976" lon="1.04889">
        <ele>864</ele>
        <time>2025-09-20T10:54:31.000Z</time>
      </trkpt>
      <trkpt lat="42.95974" lon="1.04893">
        <ele>864</ele>
        <time>2025-09-20T10:54:32.000Z</time>
      </trkpt>
      <trkpt lat="42.95972" lon="1.04897">
        <ele>866</ele>
        <time>2025-09-20T10:54:33.000Z</time>
      </trkpt>
      <trkpt lat="42.95971" lon="1.049">
        <ele>866</ele>
        <time>2025-09-20T10:54:34.000Z</time>
      </trkpt>
      <trkpt lat="42.9597" lon="1.04903">
        <ele>866</ele>
        <time>2025-09-20T10:54:35.000Z</time>
      </trkpt>
      <trkpt lat="42.95968" lon="1.04906">
        <ele>866</ele>
        <time>2025-09-20T10:54:36.000Z</time>
      </trkpt>
      <trkpt lat="42.95967" lon="1.04909">
        <ele>867</ele>
        <time>2025-09-20T10:54:37.000Z</time>
      </trkpt>
      <trkpt lat="42.95967" lon="1.04911">
        <ele>867</ele>
        <time>2025-09-20T10:54:38.000Z</time>
      </trkpt>
      <trkpt lat="42.95964" lon="1.04914">
        <ele>867</ele>
        <time>2025-09-20T10:54:39.000Z</time>
      </trkpt>
      <trkpt lat="42.95961" lon="1.04916">
        <ele>866</ele>
        <time>2025-09-20T10:54:40.000Z</time>
      </trkpt>
      <trkpt lat="42.95959" lon="1.04919">
        <ele>866</ele>
        <time>2025-09-20T10:54:41.000Z</time>
      </trkpt>
      <trkpt lat="42.95956" lon="1.04921">
        <ele>866</ele>
        <time>2025-09-20T10:54:42.000Z</time>
      </trkpt>
      <trkpt lat="42.95955" lon="1.04923">
        <ele>866</ele>
        <time>2025-09-20T10:54:43.000Z</time>
      </trkpt>
      <trkpt lat="42.95953" lon="1.04925">
        <ele>865</ele>
        <time>2025-09-20T10:54:44.000Z</time>
      </trkpt>
      <trkpt lat="42.95952" lon="1.04928">
        <ele>865</ele>
        <time>2025-09-20T10:54:45.000Z</time>
      </trkpt>
      <trkpt lat="42.95951" lon="1.0493">
        <ele>865</ele>
        <time>2025-09-20T10:54:46.000Z</time>
      </trkpt>
      <trkpt lat="42.9595" lon="1.04933">
        <ele>865</ele>
        <time>2025-09-20T10:54:47.000Z</time>
      </trkpt>
      <trkpt lat="42.95949" lon="1.04936">
        <ele>866</ele>
        <time>2025-09-20T10:54:48.000Z</time>
      </trkpt>
      <trkpt lat="42.95949" lon="1.04937">
        <ele>866</ele>
        <time>2025-09-20T10:54:49.000Z</time>
      </trkpt>
      <trkpt lat="42.95948" lon="1.04939">
        <ele>865</ele>
        <time>2025-09-20T10:54:50.000Z</time>
      </trkpt>
      <trkpt lat="42.95946" lon="1.04942">
        <ele>864</ele>
        <time>2025-09-20T10:54:51.000Z</time>
      </trkpt>
      <trkpt lat="42.95944" lon="1.04945">
        <ele>862</ele>
        <time>2025-09-20T10:54:52.000Z</time>
      </trkpt>
      <trkpt lat="42.95942" lon="1.04948">
        <ele>862</ele>
        <time>2025-09-20T10:54:53.000Z</time>
      </trkpt>
      <trkpt lat="42.95938" lon="1.04953">
        <ele>862</ele>
        <time>2025-09-20T10:54:54.000Z</time>
      </trkpt>
      <trkpt lat="42.95935" lon="1.04957">
        <ele>863</ele>
        <time>2025-09-20T10:54:55.000Z</time>
      </trkpt>
      <trkpt lat="42.95933" lon="1.04962">
        <ele>863</ele>
        <time>2025-09-20T10:54:56.000Z</time>
      </trkpt>
      <trkpt lat="42.95932" lon="1.04965">
        <ele>864</ele>
        <time>2025-09-20T10:54:57.000Z</time>
      </trkpt>
      <trkpt lat="42.9593" lon="1.04967">
        <ele>864</ele>
        <time>2025-09-20T10:54:58.000Z</time>
      </trkpt>
      <trkpt lat="42.95929" lon="1.0497">
        <ele>863</ele>
        <time>2025-09-20T10:54:59.000Z</time>
      </trkpt>
      <trkpt lat="42.95926" lon="1.04972">
        <ele>863</ele>
        <time>2025-09-20T10:55:00.000Z</time>
      </trkpt>
      <trkpt lat="42.95924" lon="1.04976">
        <ele>863</ele>
        <time>2025-09-20T10:55:01.000Z</time>
      </trkpt>
      <trkpt lat="42.95922" lon="1.04979">
        <ele>864</ele>
        <time>2025-09-20T10:55:02.000Z</time>
      </trkpt>
      <trkpt lat="42.95919" lon="1.04982">
        <ele>865</ele>
        <time>2025-09-20T10:55:03.000Z</time>
      </trkpt>
      <trkpt lat="42.95917" lon="1.04985">
        <ele>865</ele>
        <time>2025-09-20T10:55:04.000Z</time>
      </trkpt>
      <trkpt lat="42.95915" lon="1.04988">
        <ele>865</ele>
        <time>2025-09-20T10:55:05.000Z</time>
      </trkpt>
      <trkpt lat="42.95914" lon="1.0499">
        <ele>865</ele>
        <time>2025-09-20T10:55:06.000Z</time>
      </trkpt>
      <trkpt lat="42.95912" lon="1.04993">
        <ele>865</ele>
        <time>2025-09-20T10:55:07.000Z</time>
      </trkpt>
      <trkpt lat="42.9591" lon="1.04994">
        <ele>865</ele>
        <time>2025-09-20T10:55:08.000Z</time>
      </trkpt>
      <trkpt lat="42.95907" lon="1.04996">
        <ele>865</ele>
        <time>2025-09-20T10:55:09.000Z</time>
      </trkpt>
      <trkpt lat="42.95905" lon="1.04998">
        <ele>864</ele>
        <time>2025-09-20T10:55:10.000Z</time>
      </trkpt>
      <trkpt lat="42.95902" lon="1.05">
        <ele>864</ele>
        <time>2025-09-20T10:55:11.000Z</time>
      </trkpt>
      <trkpt lat="42.959" lon="1.05002">
        <ele>863</ele>
        <time>2025-09-20T10:55:12.000Z</time>
      </trkpt>
      <trkpt lat="42.95899" lon="1.05005">
        <ele>864</ele>
        <time>2025-09-20T10:55:13.000Z</time>
      </trkpt>
      <trkpt lat="42.95897" lon="1.05006">
        <ele>864</ele>
        <time>2025-09-20T10:55:14.000Z</time>
      </trkpt>
      <trkpt lat="42.95895" lon="1.05007">
        <ele>864</ele>
        <time>2025-09-20T10:55:15.000Z</time>
      </trkpt>
      <trkpt lat="42.95894" lon="1.05009">
        <ele>863</ele>
        <time>2025-09-20T10:55:16.000Z</time>
      </trkpt>
      <trkpt lat="42.95893" lon="1.0501">
        <ele>863</ele>
        <time>2025-09-20T10:55:17.000Z</time>
      </trkpt>
      <trkpt lat="42.95893" lon="1.0501">
        <ele>863</ele>
        <time>2025-09-20T10:55:18.000Z</time>
      </trkpt>
      <trkpt lat="42.95892" lon="1.0501">
        <ele>863</ele>
        <time>2025-09-20T10:55:19.000Z</time>
      </trkpt>
      <trkpt lat="42.95892" lon="1.05011">
        <ele>863</ele>
        <time>2025-09-20T10:55:20.000Z</time>
      </trkpt>
      <trkpt lat="42.95892" lon="1.05011">
        <ele>863</ele>
        <time>2025-09-20T10:55:21.000Z</time>
      </trkpt>
      <trkpt lat="42.95891" lon="1.0501">
        <ele>863</ele>
        <time>2025-09-20T10:55:22.000Z</time>
      </trkpt>
      <trkpt lat="42.95891" lon="1.0501">
        <ele>863</ele>
        <time>2025-09-20T10:55:23.000Z</time>
      </trkpt>
      <trkpt lat="42.95891" lon="1.05011">
        <ele>863</ele>
        <time>2025-09-20T10:55:24.000Z</time>
      </trkpt>
      <trkpt lat="42.9589" lon="1.05012">
        <ele>862</ele>
        <time>2025-09-20T10:55:25.000Z</time>
      </trkpt>
      <trkpt lat="42.95889" lon="1.05014">
        <ele>861</ele>
        <time>2025-09-20T10:55:26.000Z</time>
      </trkpt>
      <trkpt lat="42.95887" lon="1.05016">
        <ele>860</ele>
        <time>2025-09-20T10:55:27.000Z</time>
      </trkpt>
      <trkpt lat="42.95885" lon="1.05019">
        <ele>861</ele>
        <time>2025-09-20T10:55:28.000Z</time>
      </trkpt>
      <trkpt lat="42.95882" lon="1.05021">
        <ele>861</ele>
        <time>2025-09-20T10:55:29.000Z</time>
      </trkpt>
      <trkpt lat="42.9588" lon="1.05024">
        <ele>861</ele>
        <time>2025-09-20T10:55:30.000Z</time>
      </trkpt>
      <trkpt lat="42.95878" lon="1.05026">
        <ele>861</ele>
        <time>2025-09-20T10:55:31.000Z</time>
      </trkpt>
      <trkpt lat="42.95875" lon="1.05029">
        <ele>860</ele>
        <time>2025-09-20T10:55:32.000Z</time>
      </trkpt>
      <trkpt lat="42.95872" lon="1.05031">
        <ele>860</ele>
        <time>2025-09-20T10:55:33.000Z</time>
      </trkpt>
      <trkpt lat="42.95869" lon="1.05034">
        <ele>860</ele>
        <time>2025-09-20T10:55:34.000Z</time>
      </trkpt>
      <trkpt lat="42.95865" lon="1.05037">
        <ele>860</ele>
        <time>2025-09-20T10:55:35.000Z</time>
      </trkpt>
      <trkpt lat="42.95862" lon="1.05041">
        <ele>860</ele>
        <time>2025-09-20T10:55:36.000Z</time>
      </trkpt>
      <trkpt lat="42.95861" lon="1.05044">
        <ele>860</ele>
        <time>2025-09-20T10:55:37.000Z</time>
      </trkpt>
      <trkpt lat="42.9586" lon="1.05048">
        <ele>859</ele>
        <time>2025-09-20T10:55:38.000Z</time>
      </trkpt>
      <trkpt lat="42.95859" lon="1.05052">
        <ele>859</ele>
        <time>2025-09-20T10:55:39.000Z</time>
      </trkpt>
      <trkpt lat="42.95858" lon="1.05055">
        <ele>859</ele>
        <time>2025-09-20T10:55:40.000Z</time>
      </trkpt>
      <trkpt lat="42.95858" lon="1.05059">
        <ele>859</ele>
        <time>2025-09-20T10:55:41.000Z</time>
      </trkpt>
      <trkpt lat="42.95858" lon="1.05061">
        <ele>858</ele>
        <time>2025-09-20T10:55:42.000Z</time>
      </trkpt>
      <trkpt lat="42.95857" lon="1.05064">
        <ele>858</ele>
        <time>2025-09-20T10:55:43.000Z</time>
      </trkpt>
      <trkpt lat="42.95857" lon="1.05066">
        <ele>858</ele>
        <time>2025-09-20T10:55:44.000Z</time>
      </trkpt>
      <trkpt lat="42.95857" lon="1.05068">
        <ele>858</ele>
        <time>2025-09-20T10:55:45.000Z</time>
      </trkpt>
      <trkpt lat="42.95856" lon="1.0507">
        <ele>858</ele>
        <time>2025-09-20T10:55:46.000Z</time>
      </trkpt>
      <trkpt lat="42.95856" lon="1.05073">
        <ele>858</ele>
        <time>2025-09-20T10:55:47.000Z</time>
      </trkpt>
      <trkpt lat="42.95856" lon="1.05077">
        <ele>858</ele>
        <time>2025-09-20T10:55:48.000Z</time>
      </trkpt>
      <trkpt lat="42.95857" lon="1.05081">
        <ele>858</ele>
        <time>2025-09-20T10:55:49.000Z</time>
      </trkpt>
      <trkpt lat="42.95857" lon="1.05085">
        <ele>859</ele>
        <time>2025-09-20T10:55:50.000Z</time>
      </trkpt>
      <trkpt lat="42.95859" lon="1.0509">
        <ele>859</ele>
        <time>2025-09-20T10:55:51.000Z</time>
      </trkpt>
      <trkpt lat="42.9586" lon="1.05094">
        <ele>859</ele>
        <time>2025-09-20T10:55:52.000Z</time>
      </trkpt>
      <trkpt lat="42.9586" lon="1.05097">
        <ele>860</ele>
        <time>2025-09-20T10:55:53.000Z</time>
      </trkpt>
      <trkpt lat="42.95861" lon="1.051">
        <ele>860</ele>
        <time>2025-09-20T10:55:54.000Z</time>
      </trkpt>
      <trkpt lat="42.95863" lon="1.05103">
        <ele>860</ele>
        <time>2025-09-20T10:55:55.000Z</time>
      </trkpt>
      <trkpt lat="42.95863" lon="1.05107">
        <ele>860</ele>
        <time>2025-09-20T10:55:56.000Z</time>
      </trkpt>
      <trkpt lat="42.95863" lon="1.0511">
        <ele>859</ele>
        <time>2025-09-20T10:55:57.000Z</time>
      </trkpt>
      <trkpt lat="42.95863" lon="1.05113">
        <ele>860</ele>
        <time>2025-09-20T10:55:58.000Z</time>
      </trkpt>
      <trkpt lat="42.95863" lon="1.05115">
        <ele>860</ele>
        <time>2025-09-20T10:55:59.000Z</time>
      </trkpt>
      <trkpt lat="42.95863" lon="1.05118">
        <ele>861</ele>
        <time>2025-09-20T10:56:00.000Z</time>
      </trkpt>
      <trkpt lat="42.95862" lon="1.0512">
        <ele>861</ele>
        <time>2025-09-20T10:56:01.000Z</time>
      </trkpt>
      <trkpt lat="42.9586" lon="1.05123">
        <ele>861</ele>
        <time>2025-09-20T10:56:02.000Z</time>
      </trkpt>
      <trkpt lat="42.9586" lon="1.05125">
        <ele>861</ele>
        <time>2025-09-20T10:56:03.000Z</time>
      </trkpt>
      <trkpt lat="42.95859" lon="1.05127">
        <ele>861</ele>
        <time>2025-09-20T10:56:04.000Z</time>
      </trkpt>
      <trkpt lat="42.95858" lon="1.05129">
        <ele>861</ele>
        <time>2025-09-20T10:56:05.000Z</time>
      </trkpt>
      <trkpt lat="42.95857" lon="1.05131">
        <ele>861</ele>
        <time>2025-09-20T10:56:06.000Z</time>
      </trkpt>
      <trkpt lat="42.95856" lon="1.05134">
        <ele>862</ele>
        <time>2025-09-20T10:56:07.000Z</time>
      </trkpt>
      <trkpt lat="42.95854" lon="1.05137">
        <ele>862</ele>
        <time>2025-09-20T10:56:08.000Z</time>
      </trkpt>
      <trkpt lat="42.95853" lon="1.0514">
        <ele>862</ele>
        <time>2025-09-20T10:56:09.000Z</time>
      </trkpt>
      <trkpt lat="42.95851" lon="1.05141">
        <ele>863</ele>
        <time>2025-09-20T10:56:10.000Z</time>
      </trkpt>
      <trkpt lat="42.95849" lon="1.05143">
        <ele>864</ele>
        <time>2025-09-20T10:56:11.000Z</time>
      </trkpt>
      <trkpt lat="42.95848" lon="1.05144">
        <ele>864</ele>
        <time>2025-09-20T10:56:12.000Z</time>
      </trkpt>
      <trkpt lat="42.95846" lon="1.05146">
        <ele>864</ele>
        <time>2025-09-20T10:56:13.000Z</time>
      </trkpt>
      <trkpt lat="42.95845" lon="1.05148">
        <ele>864</ele>
        <time>2025-09-20T10:56:14.000Z</time>
      </trkpt>
      <trkpt lat="42.95844" lon="1.05151">
        <ele>864</ele>
        <time>2025-09-20T10:56:15.000Z</time>
      </trkpt>
      <trkpt lat="42.95842" lon="1.05152">
        <ele>864</ele>
        <time>2025-09-20T10:56:16.000Z</time>
      </trkpt>
      <trkpt lat="42.9584" lon="1.05152">
        <ele>864</ele>
        <time>2025-09-20T10:56:17.000Z</time>
      </trkpt>
      <trkpt lat="42.95839" lon="1.05152">
        <ele>863</ele>
        <time>2025-09-20T10:56:18.000Z</time>
      </trkpt>
      <trkpt lat="42.95837" lon="1.05153">
        <ele>863</ele>
        <time>2025-09-20T10:56:19.000Z</time>
      </trkpt>
      <trkpt lat="42.95835" lon="1.05154">
        <ele>863</ele>
        <time>2025-09-20T10:56:20.000Z</time>
      </trkpt>
      <trkpt lat="42.95834" lon="1.05155">
        <ele>864</ele>
        <time>2025-09-20T10:56:21.000Z</time>
      </trkpt>
      <trkpt lat="42.95834" lon="1.05155">
        <ele>865</ele>
        <time>2025-09-20T10:56:22.000Z</time>
      </trkpt>
      <trkpt lat="42.95833" lon="1.05155">
        <ele>864</ele>
        <time>2025-09-20T10:57:39.000Z</time>
      </trkpt>
      <trkpt lat="42.95831" lon="1.05156">
        <ele>864</ele>
        <time>2025-09-20T10:57:40.000Z</time>
      </trkpt>
      <trkpt lat="42.95829" lon="1.05158">
        <ele>863</ele>
        <time>2025-09-20T10:57:41.000Z</time>
      </trkpt>
      <trkpt lat="42.95827" lon="1.0516">
        <ele>862</ele>
        <time>2025-09-20T10:57:42.000Z</time>
      </trkpt>
      <trkpt lat="42.95825" lon="1.05162">
        <ele>862</ele>
        <time>2025-09-20T10:57:43.000Z</time>
      </trkpt>
      <trkpt lat="42.95823" lon="1.05163">
        <ele>861</ele>
        <time>2025-09-20T10:57:44.000Z</time>
      </trkpt>
      <trkpt lat="42.95821" lon="1.05165">
        <ele>862</ele>
        <time>2025-09-20T10:57:45.000Z</time>
      </trkpt>
      <trkpt lat="42.95819" lon="1.05165">
        <ele>863</ele>
        <time>2025-09-20T10:57:46.000Z</time>
      </trkpt>
      <trkpt lat="42.95817" lon="1.05166">
        <ele>862</ele>
        <time>2025-09-20T10:57:47.000Z</time>
      </trkpt>
      <trkpt lat="42.95815" lon="1.05166">
        <ele>861</ele>
        <time>2025-09-20T10:57:48.000Z</time>
      </trkpt>
      <trkpt lat="42.95813" lon="1.05168">
        <ele>862</ele>
        <time>2025-09-20T10:57:49.000Z</time>
      </trkpt>
      <trkpt lat="42.9581" lon="1.05169">
        <ele>863</ele>
        <time>2025-09-20T10:57:50.000Z</time>
      </trkpt>
      <trkpt lat="42.95808" lon="1.05171">
        <ele>865</ele>
        <time>2025-09-20T10:57:51.000Z</time>
      </trkpt>
      <trkpt lat="42.95806" lon="1.05173">
        <ele>866</ele>
        <time>2025-09-20T10:57:52.000Z</time>
      </trkpt>
      <trkpt lat="42.95804" lon="1.05175">
        <ele>867</ele>
        <time>2025-09-20T10:57:53.000Z</time>
      </trkpt>
      <trkpt lat="42.95802" lon="1.05177">
        <ele>868</ele>
        <time>2025-09-20T10:57:54.000Z</time>
      </trkpt>
      <trkpt lat="42.958" lon="1.05179">
        <ele>868</ele>
        <time>2025-09-20T10:57:55.000Z</time>
      </trkpt>
      <trkpt lat="42.95798" lon="1.05181">
        <ele>869</ele>
        <time>2025-09-20T10:57:56.000Z</time>
      </trkpt>
      <trkpt lat="42.95797" lon="1.05183">
        <ele>870</ele>
        <time>2025-09-20T10:57:57.000Z</time>
      </trkpt>
      <trkpt lat="42.95796" lon="1.05185">
        <ele>870</ele>
        <time>2025-09-20T10:57:58.000Z</time>
      </trkpt>
      <trkpt lat="42.95794" lon="1.05186">
        <ele>871</ele>
        <time>2025-09-20T10:57:59.000Z</time>
      </trkpt>
      <trkpt lat="42.95793" lon="1.05188">
        <ele>872</ele>
        <time>2025-09-20T10:58:00.000Z</time>
      </trkpt>
      <trkpt lat="42.95792" lon="1.0519">
        <ele>872</ele>
        <time>2025-09-20T10:58:01.000Z</time>
      </trkpt>
      <trkpt lat="42.95791" lon="1.05192">
        <ele>873</ele>
        <time>2025-09-20T10:58:02.000Z</time>
      </trkpt>
      <trkpt lat="42.9579" lon="1.05194">
        <ele>874</ele>
        <time>2025-09-20T10:58:03.000Z</time>
      </trkpt>
      <trkpt lat="42.95789" lon="1.05196">
        <ele>874</ele>
        <time>2025-09-20T10:58:04.000Z</time>
      </trkpt>
      <trkpt lat="42.95788" lon="1.05197">
        <ele>875</ele>
        <time>2025-09-20T10:58:05.000Z</time>
      </trkpt>
      <trkpt lat="42.95787" lon="1.05199">
        <ele>875</ele>
        <time>2025-09-20T10:58:06.000Z</time>
      </trkpt>
      <trkpt lat="42.95787" lon="1.052">
        <ele>875</ele>
        <time>2025-09-20T10:58:07.000Z</time>
      </trkpt>
      <trkpt lat="42.95782" lon="1.052">
        <ele>875</ele>
        <time>2025-09-20T11:02:36.000Z</time>
      </trkpt>
      <trkpt lat="42.9578" lon="1.05199">
        <ele>874</ele>
        <time>2025-09-20T11:02:37.000Z</time>
      </trkpt>
      <trkpt lat="42.95777" lon="1.05196">
        <ele>872</ele>
        <time>2025-09-20T11:02:38.000Z</time>
      </trkpt>
      <trkpt lat="42.95774" lon="1.05195">
        <ele>871</ele>
        <time>2025-09-20T11:02:39.000Z</time>
      </trkpt>
      <trkpt lat="42.95771" lon="1.05196">
        <ele>871</ele>
        <time>2025-09-20T11:02:40.000Z</time>
      </trkpt>
      <trkpt lat="42.95768" lon="1.052">
        <ele>869</ele>
        <time>2025-09-20T11:02:41.000Z</time>
      </trkpt>
      <trkpt lat="42.95766" lon="1.05203">
        <ele>869</ele>
        <time>2025-09-20T11:02:42.000Z</time>
      </trkpt>
      <trkpt lat="42.95765" lon="1.05207">
        <ele>868</ele>
        <time>2025-09-20T11:02:43.000Z</time>
      </trkpt>
      <trkpt lat="42.95763" lon="1.05211">
        <ele>867</ele>
        <time>2025-09-20T11:02:44.000Z</time>
      </trkpt>
      <trkpt lat="42.9576" lon="1.05215">
        <ele>865</ele>
        <time>2025-09-20T11:02:45.000Z</time>
      </trkpt>
      <trkpt lat="42.95758" lon="1.05219">
        <ele>864</ele>
        <time>2025-09-20T11:02:46.000Z</time>
      </trkpt>
      <trkpt lat="42.95756" lon="1.05223">
        <ele>863</ele>
        <time>2025-09-20T11:02:47.000Z</time>
      </trkpt>
      <trkpt lat="42.95755" lon="1.05227">
        <ele>863</ele>
        <time>2025-09-20T11:02:48.000Z</time>
      </trkpt>
      <trkpt lat="42.95753" lon="1.05231">
        <ele>861</ele>
        <time>2025-09-20T11:02:49.000Z</time>
      </trkpt>
      <trkpt lat="42.95751" lon="1.05236">
        <ele>860</ele>
        <time>2025-09-20T11:02:50.000Z</time>
      </trkpt>
      <trkpt lat="42.95748" lon="1.0524">
        <ele>859</ele>
        <time>2025-09-20T11:02:51.000Z</time>
      </trkpt>
      <trkpt lat="42.95745" lon="1.05246">
        <ele>859</ele>
        <time>2025-09-20T11:02:52.000Z</time>
      </trkpt>
      <trkpt lat="42.95743" lon="1.0525">
        <ele>858</ele>
        <time>2025-09-20T11:02:53.000Z</time>
      </trkpt>
      <trkpt lat="42.95742" lon="1.05254">
        <ele>857</ele>
        <time>2025-09-20T11:02:54.000Z</time>
      </trkpt>
      <trkpt lat="42.9574" lon="1.05257">
        <ele>857</ele>
        <time>2025-09-20T11:02:55.000Z</time>
      </trkpt>
      <trkpt lat="42.95737" lon="1.05259">
        <ele>856</ele>
        <time>2025-09-20T11:02:56.000Z</time>
      </trkpt>
      <trkpt lat="42.95734" lon="1.05261">
        <ele>856</ele>
        <time>2025-09-20T11:02:57.000Z</time>
      </trkpt>
      <trkpt lat="42.95731" lon="1.05265">
        <ele>854</ele>
        <time>2025-09-20T11:02:58.000Z</time>
      </trkpt>
      <trkpt lat="42.95728" lon="1.05269">
        <ele>851</ele>
        <time>2025-09-20T11:02:59.000Z</time>
      </trkpt>
      <trkpt lat="42.95726" lon="1.05274">
        <ele>849</ele>
        <time>2025-09-20T11:03:00.000Z</time>
      </trkpt>
      <trkpt lat="42.95724" lon="1.05281">
        <ele>849</ele>
        <time>2025-09-20T11:03:01.000Z</time>
      </trkpt>
      <trkpt lat="42.95723" lon="1.05288">
        <ele>848</ele>
        <time>2025-09-20T11:03:02.000Z</time>
      </trkpt>
      <trkpt lat="42.9572" lon="1.05294">
        <ele>847</ele>
        <time>2025-09-20T11:03:03.000Z</time>
      </trkpt>
      <trkpt lat="42.95718" lon="1.053">
        <ele>846</ele>
        <time>2025-09-20T11:03:04.000Z</time>
      </trkpt>
      <trkpt lat="42.95717" lon="1.05307">
        <ele>845</ele>
        <time>2025-09-20T11:03:05.000Z</time>
      </trkpt>
      <trkpt lat="42.95716" lon="1.05313">
        <ele>844</ele>
        <time>2025-09-20T11:03:06.000Z</time>
      </trkpt>
      <trkpt lat="42.95714" lon="1.05317">
        <ele>842</ele>
        <time>2025-09-20T11:03:07.000Z</time>
      </trkpt>
      <trkpt lat="42.95712" lon="1.05322">
        <ele>840</ele>
        <time>2025-09-20T11:03:08.000Z</time>
      </trkpt>
      <trkpt lat="42.9571" lon="1.05328">
        <ele>838</ele>
        <time>2025-09-20T11:03:09.000Z</time>
      </trkpt>
      <trkpt lat="42.95708" lon="1.05336">
        <ele>835</ele>
        <time>2025-09-20T11:03:10.000Z</time>
      </trkpt>
      <trkpt lat="42.95706" lon="1.05343">
        <ele>832</ele>
        <time>2025-09-20T11:03:11.000Z</time>
      </trkpt>
      <trkpt lat="42.95704" lon="1.0535">
        <ele>830</ele>
        <time>2025-09-20T11:03:12.000Z</time>
      </trkpt>
      <trkpt lat="42.95704" lon="1.05356">
        <ele>830</ele>
        <time>2025-09-20T11:03:13.000Z</time>
      </trkpt>
      <trkpt lat="42.95703" lon="1.0536">
        <ele>830</ele>
        <time>2025-09-20T11:03:14.000Z</time>
      </trkpt>
      <trkpt lat="42.95703" lon="1.05364">
        <ele>830</ele>
        <time>2025-09-20T11:03:15.000Z</time>
      </trkpt>
      <trkpt lat="42.95702" lon="1.05367">
        <ele>830</ele>
        <time>2025-09-20T11:03:16.000Z</time>
      </trkpt>
      <trkpt lat="42.95702" lon="1.05371">
        <ele>830</ele>
        <time>2025-09-20T11:03:17.000Z</time>
      </trkpt>
      <trkpt lat="42.95703" lon="1.05376">
        <ele>829</ele>
        <time>2025-09-20T11:03:18.000Z</time>
      </trkpt>
      <trkpt lat="42.95704" lon="1.05381">
        <ele>829</ele>
        <time>2025-09-20T11:03:19.000Z</time>
      </trkpt>
      <trkpt lat="42.95707" lon="1.05384">
        <ele>829</ele>
        <time>2025-09-20T11:03:20.000Z</time>
      </trkpt>
      <trkpt lat="42.9571" lon="1.05387">
        <ele>828</ele>
        <time>2025-09-20T11:03:21.000Z</time>
      </trkpt>
      <trkpt lat="42.95714" lon="1.05388">
        <ele>828</ele>
        <time>2025-09-20T11:03:22.000Z</time>
      </trkpt>
      <trkpt lat="42.95717" lon="1.0539">
        <ele>827</ele>
        <time>2025-09-20T11:03:23.000Z</time>
      </trkpt>
      <trkpt lat="42.95719" lon="1.05393">
        <ele>825</ele>
        <time>2025-09-20T11:03:24.000Z</time>
      </trkpt>
      <trkpt lat="42.95721" lon="1.05396">
        <ele>824</ele>
        <time>2025-09-20T11:03:25.000Z</time>
      </trkpt>
      <trkpt lat="42.95722" lon="1.054">
        <ele>824</ele>
        <time>2025-09-20T11:03:26.000Z</time>
      </trkpt>
      <trkpt lat="42.95724" lon="1.05405">
        <ele>823</ele>
        <time>2025-09-20T11:03:27.000Z</time>
      </trkpt>
      <trkpt lat="42.95725" lon="1.05411">
        <ele>822</ele>
        <time>2025-09-20T11:03:28.000Z</time>
      </trkpt>
      <trkpt lat="42.95725" lon="1.05418">
        <ele>821</ele>
        <time>2025-09-20T11:03:29.000Z</time>
      </trkpt>
      <trkpt lat="42.95724" lon="1.05427">
        <ele>820</ele>
        <time>2025-09-20T11:03:30.000Z</time>
      </trkpt>
      <trkpt lat="42.95723" lon="1.05437">
        <ele>820</ele>
        <time>2025-09-20T11:03:31.000Z</time>
      </trkpt>
      <trkpt lat="42.95723" lon="1.05444">
        <ele>819</ele>
        <time>2025-09-20T11:03:32.000Z</time>
      </trkpt>
      <trkpt lat="42.95724" lon="1.05452">
        <ele>819</ele>
        <time>2025-09-20T11:03:33.000Z</time>
      </trkpt>
      <trkpt lat="42.95724" lon="1.05458">
        <ele>819</ele>
        <time>2025-09-20T11:03:34.000Z</time>
      </trkpt>
      <trkpt lat="42.95724" lon="1.05463">
        <ele>819</ele>
        <time>2025-09-20T11:03:35.000Z</time>
      </trkpt>
      <trkpt lat="42.95725" lon="1.05468">
        <ele>818</ele>
        <time>2025-09-20T11:03:36.000Z</time>
      </trkpt>
      <trkpt lat="42.95724" lon="1.05472">
        <ele>818</ele>
        <time>2025-09-20T11:03:37.000Z</time>
      </trkpt>
      <trkpt lat="42.95723" lon="1.05476">
        <ele>817</ele>
        <time>2025-09-20T11:03:38.000Z</time>
      </trkpt>
      <trkpt lat="42.95721" lon="1.0548">
        <ele>815</ele>
        <time>2025-09-20T11:03:39.000Z</time>
      </trkpt>
      <trkpt lat="42.95719" lon="1.05484">
        <ele>814</ele>
        <time>2025-09-20T11:03:40.000Z</time>
      </trkpt>
      <trkpt lat="42.95717" lon="1.05486">
        <ele>813</ele>
        <time>2025-09-20T11:03:41.000Z</time>
      </trkpt>
      <trkpt lat="42.95714" lon="1.05488">
        <ele>813</ele>
        <time>2025-09-20T11:03:42.000Z</time>
      </trkpt>
      <trkpt lat="42.95711" lon="1.0549">
        <ele>812</ele>
        <time>2025-09-20T11:03:43.000Z</time>
      </trkpt>
      <trkpt lat="42.95709" lon="1.05492">
        <ele>812</ele>
        <time>2025-09-20T11:03:44.000Z</time>
      </trkpt>
      <trkpt lat="42.95707" lon="1.05495">
        <ele>811</ele>
        <time>2025-09-20T11:03:45.000Z</time>
      </trkpt>
      <trkpt lat="42.95705" lon="1.05497">
        <ele>811</ele>
        <time>2025-09-20T11:03:46.000Z</time>
      </trkpt>
      <trkpt lat="42.95704" lon="1.05501">
        <ele>810</ele>
        <time>2025-09-20T11:03:47.000Z</time>
      </trkpt>
      <trkpt lat="42.95703" lon="1.05505">
        <ele>810</ele>
        <time>2025-09-20T11:03:48.000Z</time>
      </trkpt>
      <trkpt lat="42.95701" lon="1.05509">
        <ele>808</ele>
        <time>2025-09-20T11:03:49.000Z</time>
      </trkpt>
      <trkpt lat="42.95698" lon="1.05512">
        <ele>807</ele>
        <time>2025-09-20T11:03:50.000Z</time>
      </trkpt>
      <trkpt lat="42.95696" lon="1.05516">
        <ele>805</ele>
        <time>2025-09-20T11:03:51.000Z</time>
      </trkpt>
      <trkpt lat="42.95693" lon="1.05522">
        <ele>803</ele>
        <time>2025-09-20T11:03:52.000Z</time>
      </trkpt>
      <trkpt lat="42.9569" lon="1.0553">
        <ele>803</ele>
        <time>2025-09-20T11:03:53.000Z</time>
      </trkpt>
      <trkpt lat="42.95687" lon="1.05537">
        <ele>802</ele>
        <time>2025-09-20T11:03:54.000Z</time>
      </trkpt>
      <trkpt lat="42.95684" lon="1.05545">
        <ele>801</ele>
        <time>2025-09-20T11:03:55.000Z</time>
      </trkpt>
      <trkpt lat="42.95682" lon="1.05553">
        <ele>800</ele>
        <time>2025-09-20T11:03:56.000Z</time>
      </trkpt>
      <trkpt lat="42.9568" lon="1.05562">
        <ele>800</ele>
        <time>2025-09-20T11:03:57.000Z</time>
      </trkpt>
      <trkpt lat="42.95678" lon="1.0557">
        <ele>800</ele>
        <time>2025-09-20T11:03:58.000Z</time>
      </trkpt>
      <trkpt lat="42.95676" lon="1.05579">
        <ele>800</ele>
        <time>2025-09-20T11:03:59.000Z</time>
      </trkpt>
      <trkpt lat="42.95673" lon="1.05586">
        <ele>800</ele>
        <time>2025-09-20T11:04:00.000Z</time>
      </trkpt>
      <trkpt lat="42.95672" lon="1.05595">
        <ele>799</ele>
        <time>2025-09-20T11:04:01.000Z</time>
      </trkpt>
      <trkpt lat="42.9567" lon="1.05603">
        <ele>798</ele>
        <time>2025-09-20T11:04:02.000Z</time>
      </trkpt>
      <trkpt lat="42.95668" lon="1.05612">
        <ele>797</ele>
        <time>2025-09-20T11:04:03.000Z</time>
      </trkpt>
      <trkpt lat="42.95665" lon="1.0562">
        <ele>796</ele>
        <time>2025-09-20T11:04:04.000Z</time>
      </trkpt>
      <trkpt lat="42.95661" lon="1.05626">
        <ele>795</ele>
        <time>2025-09-20T11:04:05.000Z</time>
      </trkpt>
      <trkpt lat="42.95656" lon="1.05631">
        <ele>795</ele>
        <time>2025-09-20T11:04:06.000Z</time>
      </trkpt>
      <trkpt lat="42.95653" lon="1.05635">
        <ele>795</ele>
        <time>2025-09-20T11:04:07.000Z</time>
      </trkpt>
      <trkpt lat="42.95652" lon="1.05638">
        <ele>795</ele>
        <time>2025-09-20T11:04:08.000Z</time>
      </trkpt>
      <trkpt lat="42.95651" lon="1.0564">
        <ele>794</ele>
        <time>2025-09-20T11:04:09.000Z</time>
      </trkpt>
      <trkpt lat="42.9565" lon="1.05643">
        <ele>794</ele>
        <time>2025-09-20T11:04:10.000Z</time>
      </trkpt>
      <trkpt lat="42.9565" lon="1.05645">
        <ele>794</ele>
        <time>2025-09-20T11:04:11.000Z</time>
      </trkpt>
      <trkpt lat="42.95649" lon="1.05647">
        <ele>794</ele>
        <time>2025-09-20T11:04:12.000Z</time>
      </trkpt>
      <trkpt lat="42.95648" lon="1.0565">
        <ele>794</ele>
        <time>2025-09-20T11:04:13.000Z</time>
      </trkpt>
      <trkpt lat="42.95648" lon="1.05653">
        <ele>794</ele>
        <time>2025-09-20T11:04:14.000Z</time>
      </trkpt>
      <trkpt lat="42.95647" lon="1.05656">
        <ele>794</ele>
        <time>2025-09-20T11:04:15.000Z</time>
      </trkpt>
      <trkpt lat="42.95646" lon="1.0566">
        <ele>793</ele>
        <time>2025-09-20T11:04:16.000Z</time>
      </trkpt>
      <trkpt lat="42.95645" lon="1.05663">
        <ele>793</ele>
        <time>2025-09-20T11:04:17.000Z</time>
      </trkpt>
      <trkpt lat="42.95644" lon="1.05667">
        <ele>793</ele>
        <time>2025-09-20T11:04:18.000Z</time>
      </trkpt>
      <trkpt lat="42.95643" lon="1.05672">
        <ele>793</ele>
        <time>2025-09-20T11:04:19.000Z</time>
      </trkpt>
      <trkpt lat="42.95642" lon="1.05676">
        <ele>792</ele>
        <time>2025-09-20T11:04:20.000Z</time>
      </trkpt>
      <trkpt lat="42.95642" lon="1.05681">
        <ele>792</ele>
        <time>2025-09-20T11:04:21.000Z</time>
      </trkpt>
      <trkpt lat="42.95641" lon="1.05687">
        <ele>792</ele>
        <time>2025-09-20T11:04:22.000Z</time>
      </trkpt>
      <trkpt lat="42.95639" lon="1.05693">
        <ele>791</ele>
        <time>2025-09-20T11:04:23.000Z</time>
      </trkpt>
      <trkpt lat="42.95638" lon="1.05699">
        <ele>791</ele>
        <time>2025-09-20T11:04:24.000Z</time>
      </trkpt>
      <trkpt lat="42.95636" lon="1.05705">
        <ele>790</ele>
        <time>2025-09-20T11:04:25.000Z</time>
      </trkpt>
      <trkpt lat="42.95633" lon="1.05712">
        <ele>788</ele>
        <time>2025-09-20T11:04:26.000Z</time>
      </trkpt>
      <trkpt lat="42.95628" lon="1.05719">
        <ele>787</ele>
        <time>2025-09-20T11:04:27.000Z</time>
      </trkpt>
      <trkpt lat="42.95626" lon="1.05724">
        <ele>786</ele>
        <time>2025-09-20T11:04:28.000Z</time>
      </trkpt>
      <trkpt lat="42.95625" lon="1.05727">
        <ele>786</ele>
        <time>2025-09-20T11:04:29.000Z</time>
      </trkpt>
      <trkpt lat="42.95624" lon="1.05731">
        <ele>785</ele>
        <time>2025-09-20T11:04:30.000Z</time>
      </trkpt>
      <trkpt lat="42.95621" lon="1.05734">
        <ele>785</ele>
        <time>2025-09-20T11:04:31.000Z</time>
      </trkpt>
      <trkpt lat="42.95618" lon="1.05738">
        <ele>784</ele>
        <time>2025-09-20T11:04:32.000Z</time>
      </trkpt>
      <trkpt lat="42.95613" lon="1.05742">
        <ele>783</ele>
        <time>2025-09-20T11:04:33.000Z</time>
      </trkpt>
      <trkpt lat="42.9561" lon="1.05746">
        <ele>783</ele>
        <time>2025-09-20T11:04:34.000Z</time>
      </trkpt>
      <trkpt lat="42.95606" lon="1.05749">
        <ele>781</ele>
        <time>2025-09-20T11:04:35.000Z</time>
      </trkpt>
      <trkpt lat="42.95603" lon="1.05751">
        <ele>780</ele>
        <time>2025-09-20T11:04:36.000Z</time>
      </trkpt>
      <trkpt lat="42.956" lon="1.05753">
        <ele>777</ele>
        <time>2025-09-20T11:04:37.000Z</time>
      </trkpt>
      <trkpt lat="42.95597" lon="1.05756">
        <ele>775</ele>
        <time>2025-09-20T11:04:38.000Z</time>
      </trkpt>
      <trkpt lat="42.95595" lon="1.05761">
        <ele>774</ele>
        <time>2025-09-20T11:04:39.000Z</time>
      </trkpt>
      <trkpt lat="42.95594" lon="1.05765">
        <ele>773</ele>
        <time>2025-09-20T11:04:40.000Z</time>
      </trkpt>
      <trkpt lat="42.95592" lon="1.05767">
        <ele>772</ele>
        <time>2025-09-20T11:04:41.000Z</time>
      </trkpt>
      <trkpt lat="42.9559" lon="1.05768">
        <ele>771</ele>
        <time>2025-09-20T11:04:42.000Z</time>
      </trkpt>
      <trkpt lat="42.95587" lon="1.05768">
        <ele>771</ele>
        <time>2025-09-20T11:04:43.000Z</time>
      </trkpt>
      <trkpt lat="42.95585" lon="1.05767">
        <ele>770</ele>
        <time>2025-09-20T11:04:44.000Z</time>
      </trkpt>
      <trkpt lat="42.95582" lon="1.05768">
        <ele>769</ele>
        <time>2025-09-20T11:04:45.000Z</time>
      </trkpt>
      <trkpt lat="42.95581" lon="1.05771">
        <ele>768</ele>
        <time>2025-09-20T11:04:46.000Z</time>
      </trkpt>
      <trkpt lat="42.9558" lon="1.05775">
        <ele>768</ele>
        <time>2025-09-20T11:04:47.000Z</time>
      </trkpt>
      <trkpt lat="42.95578" lon="1.0578">
        <ele>767</ele>
        <time>2025-09-20T11:04:48.000Z</time>
      </trkpt>
      <trkpt lat="42.95577" lon="1.05784">
        <ele>766</ele>
        <time>2025-09-20T11:04:49.000Z</time>
      </trkpt>
      <trkpt lat="42.95575" lon="1.05787">
        <ele>766</ele>
        <time>2025-09-20T11:04:50.000Z</time>
      </trkpt>
      <trkpt lat="42.95575" lon="1.05792">
        <ele>766</ele>
        <time>2025-09-20T11:04:51.000Z</time>
      </trkpt>
      <trkpt lat="42.95573" lon="1.05796">
        <ele>765</ele>
        <time>2025-09-20T11:04:52.000Z</time>
      </trkpt>
      <trkpt lat="42.95573" lon="1.05799">
        <ele>765</ele>
        <time>2025-09-20T11:04:53.000Z</time>
      </trkpt>
      <trkpt lat="42.95572" lon="1.05801">
        <ele>765</ele>
        <time>2025-09-20T11:04:54.000Z</time>
      </trkpt>
      <trkpt lat="42.95571" lon="1.05804">
        <ele>762</ele>
        <time>2025-09-20T11:04:55.000Z</time>
      </trkpt>
      <trkpt lat="42.95569" lon="1.05808">
        <ele>759</ele>
        <time>2025-09-20T11:04:56.000Z</time>
      </trkpt>
      <trkpt lat="42.95567" lon="1.05811">
        <ele>756</ele>
        <time>2025-09-20T11:04:57.000Z</time>
      </trkpt>
      <trkpt lat="42.95565" lon="1.05815">
        <ele>754</ele>
        <time>2025-09-20T11:04:58.000Z</time>
      </trkpt>
      <trkpt lat="42.95563" lon="1.05818">
        <ele>752</ele>
        <time>2025-09-20T11:04:59.000Z</time>
      </trkpt>
      <trkpt lat="42.95561" lon="1.05819">
        <ele>750</ele>
        <time>2025-09-20T11:05:00.000Z</time>
      </trkpt>
      <trkpt lat="42.95558" lon="1.05819">
        <ele>749</ele>
        <time>2025-09-20T11:05:01.000Z</time>
      </trkpt>
      <trkpt lat="42.95555" lon="1.05819">
        <ele>748</ele>
        <time>2025-09-20T11:05:02.000Z</time>
      </trkpt>
      <trkpt lat="42.95552" lon="1.0582">
        <ele>746</ele>
        <time>2025-09-20T11:05:03.000Z</time>
      </trkpt>
      <trkpt lat="42.95548" lon="1.05822">
        <ele>744</ele>
        <time>2025-09-20T11:05:04.000Z</time>
      </trkpt>
      <trkpt lat="42.95545" lon="1.05824">
        <ele>742</ele>
        <time>2025-09-20T11:05:05.000Z</time>
      </trkpt>
      <trkpt lat="42.95542" lon="1.05824">
        <ele>740</ele>
        <time>2025-09-20T11:05:06.000Z</time>
      </trkpt>
      <trkpt lat="42.95539" lon="1.05823">
        <ele>738</ele>
        <time>2025-09-20T11:05:07.000Z</time>
      </trkpt>
      <trkpt lat="42.95535" lon="1.05822">
        <ele>737</ele>
        <time>2025-09-20T11:05:08.000Z</time>
      </trkpt>
      <trkpt lat="42.95533" lon="1.05822">
        <ele>737</ele>
        <time>2025-09-20T11:05:09.000Z</time>
      </trkpt>
      <trkpt lat="42.9553" lon="1.05823">
        <ele>735</ele>
        <time>2025-09-20T11:05:10.000Z</time>
      </trkpt>
      <trkpt lat="42.95527" lon="1.05824">
        <ele>733</ele>
        <time>2025-09-20T11:05:11.000Z</time>
      </trkpt>
      <trkpt lat="42.95524" lon="1.05825">
        <ele>731</ele>
        <time>2025-09-20T11:05:12.000Z</time>
      </trkpt>
      <trkpt lat="42.9552" lon="1.05827">
        <ele>730</ele>
        <time>2025-09-20T11:05:13.000Z</time>
      </trkpt>
      <trkpt lat="42.95517" lon="1.0583">
        <ele>729</ele>
        <time>2025-09-20T11:05:14.000Z</time>
      </trkpt>
      <trkpt lat="42.95515" lon="1.05833">
        <ele>729</ele>
        <time>2025-09-20T11:05:15.000Z</time>
      </trkpt>
      <trkpt lat="42.95513" lon="1.05833">
        <ele>728</ele>
        <time>2025-09-20T11:05:16.000Z</time>
      </trkpt>
      <trkpt lat="42.95511" lon="1.05832">
        <ele>727</ele>
        <time>2025-09-20T11:05:17.000Z</time>
      </trkpt>
      <trkpt lat="42.9551" lon="1.0583">
        <ele>727</ele>
        <time>2025-09-20T11:05:18.000Z</time>
      </trkpt>
      <trkpt lat="42.9551" lon="1.05829">
        <ele>727</ele>
        <time>2025-09-20T11:05:19.000Z</time>
      </trkpt>
      <trkpt lat="42.9551" lon="1.05829">
        <ele>728</ele>
        <time>2025-09-20T11:05:20.000Z</time>
      </trkpt>
      <trkpt lat="42.9551" lon="1.05827">
        <ele>728</ele>
        <time>2025-09-20T11:05:21.000Z</time>
      </trkpt>
      <trkpt lat="42.95507" lon="1.05823">
        <ele>725</ele>
        <time>2025-09-20T11:05:43.000Z</time>
      </trkpt>
      <trkpt lat="42.95505" lon="1.05821">
        <ele>724</ele>
        <time>2025-09-20T11:05:44.000Z</time>
      </trkpt>
      <trkpt lat="42.95504" lon="1.05818">
        <ele>724</ele>
        <time>2025-09-20T11:05:45.000Z</time>
      </trkpt>
      <trkpt lat="42.95502" lon="1.05816">
        <ele>723</ele>
        <time>2025-09-20T11:05:46.000Z</time>
      </trkpt>
      <trkpt lat="42.95501" lon="1.05814">
        <ele>723</ele>
        <time>2025-09-20T11:05:47.000Z</time>
      </trkpt>
      <trkpt lat="42.95499" lon="1.05813">
        <ele>722</ele>
        <time>2025-09-20T11:05:48.000Z</time>
      </trkpt>
      <trkpt lat="42.95498" lon="1.05815">
        <ele>722</ele>
        <time>2025-09-20T11:05:49.000Z</time>
      </trkpt>
      <trkpt lat="42.95497" lon="1.05818">
        <ele>722</ele>
        <time>2025-09-20T11:05:50.000Z</time>
      </trkpt>
      <trkpt lat="42.95497" lon="1.05822">
        <ele>721</ele>
        <time>2025-09-20T11:05:51.000Z</time>
      </trkpt>
      <trkpt lat="42.95495" lon="1.05825">
        <ele>721</ele>
        <time>2025-09-20T11:05:52.000Z</time>
      </trkpt>
      <trkpt lat="42.95492" lon="1.05829">
        <ele>720</ele>
        <time>2025-09-20T11:05:53.000Z</time>
      </trkpt>
      <trkpt lat="42.9549" lon="1.05832">
        <ele>719</ele>
        <time>2025-09-20T11:05:54.000Z</time>
      </trkpt>
      <trkpt lat="42.95488" lon="1.05836">
        <ele>719</ele>
        <time>2025-09-20T11:05:55.000Z</time>
      </trkpt>
      <trkpt lat="42.95487" lon="1.0584">
        <ele>719</ele>
        <time>2025-09-20T11:05:56.000Z</time>
      </trkpt>
      <trkpt lat="42.95486" lon="1.05844">
        <ele>719</ele>
        <time>2025-09-20T11:05:57.000Z</time>
      </trkpt>
      <trkpt lat="42.95484" lon="1.05847">
        <ele>718</ele>
        <time>2025-09-20T11:05:58.000Z</time>
      </trkpt>
      <trkpt lat="42.95482" lon="1.05851">
        <ele>717</ele>
        <time>2025-09-20T11:05:59.000Z</time>
      </trkpt>
      <trkpt lat="42.9548" lon="1.05853">
        <ele>716</ele>
        <time>2025-09-20T11:06:00.000Z</time>
      </trkpt>
      <trkpt lat="42.95478" lon="1.05855">
        <ele>716</ele>
        <time>2025-09-20T11:06:01.000Z</time>
      </trkpt>
      <trkpt lat="42.95477" lon="1.05857">
        <ele>715</ele>
        <time>2025-09-20T11:06:02.000Z</time>
      </trkpt>
      <trkpt lat="42.95475" lon="1.05858">
        <ele>714</ele>
        <time>2025-09-20T11:06:03.000Z</time>
      </trkpt>
      <trkpt lat="42.95475" lon="1.05859">
        <ele>714</ele>
        <time>2025-09-20T11:06:04.000Z</time>
      </trkpt>
      <trkpt lat="42.95474" lon="1.0586">
        <ele>713</ele>
        <time>2025-09-20T11:06:05.000Z</time>
      </trkpt>
      <trkpt lat="42.95472" lon="1.05859">
        <ele>712</ele>
        <time>2025-09-20T11:06:06.000Z</time>
      </trkpt>
      <trkpt lat="42.95471" lon="1.05859">
        <ele>711</ele>
        <time>2025-09-20T11:06:07.000Z</time>
      </trkpt>
      <trkpt lat="42.95469" lon="1.05858">
        <ele>711</ele>
        <time>2025-09-20T11:06:08.000Z</time>
      </trkpt>
      <trkpt lat="42.95468" lon="1.05855">
        <ele>710</ele>
        <time>2025-09-20T11:06:09.000Z</time>
      </trkpt>
      <trkpt lat="42.95467" lon="1.05852">
        <ele>709</ele>
        <time>2025-09-20T11:06:10.000Z</time>
      </trkpt>
      <trkpt lat="42.95466" lon="1.05848">
        <ele>707</ele>
        <time>2025-09-20T11:06:11.000Z</time>
      </trkpt>
      <trkpt lat="42.95463" lon="1.05842">
        <ele>704</ele>
        <time>2025-09-20T11:06:12.000Z</time>
      </trkpt>
      <trkpt lat="42.95461" lon="1.05836">
        <ele>702</ele>
        <time>2025-09-20T11:06:13.000Z</time>
      </trkpt>
      <trkpt lat="42.95459" lon="1.05828">
        <ele>701</ele>
        <time>2025-09-20T11:06:14.000Z</time>
      </trkpt>
      <trkpt lat="42.95456" lon="1.05823">
        <ele>699</ele>
        <time>2025-09-20T11:06:15.000Z</time>
      </trkpt>
      <trkpt lat="42.95453" lon="1.05815">
        <ele>698</ele>
        <time>2025-09-20T11:06:16.000Z</time>
      </trkpt>
      <trkpt lat="42.95451" lon="1.05812">
        <ele>698</ele>
        <time>2025-09-20T11:06:17.000Z</time>
      </trkpt>
      <trkpt lat="42.95448" lon="1.05811">
        <ele>697</ele>
        <time>2025-09-20T11:06:18.000Z</time>
      </trkpt>
      <trkpt lat="42.95446" lon="1.05815">
        <ele>697</ele>
        <time>2025-09-20T11:06:19.000Z</time>
      </trkpt>
      <trkpt lat="42.95445" lon="1.05819">
        <ele>695</ele>
        <time>2025-09-20T11:06:20.000Z</time>
      </trkpt>
      <trkpt lat="42.95444" lon="1.05826">
        <ele>693</ele>
        <time>2025-09-20T11:06:21.000Z</time>
      </trkpt>
      <trkpt lat="42.95441" lon="1.05834">
        <ele>692</ele>
        <time>2025-09-20T11:06:22.000Z</time>
      </trkpt>
      <trkpt lat="42.95438" lon="1.05843">
        <ele>692</ele>
        <time>2025-09-20T11:06:23.000Z</time>
      </trkpt>
      <trkpt lat="42.95435" lon="1.05853">
        <ele>691</ele>
        <time>2025-09-20T11:06:24.000Z</time>
      </trkpt>
      <trkpt lat="42.95433" lon="1.05862">
        <ele>692</ele>
        <time>2025-09-20T11:06:25.000Z</time>
      </trkpt>
      <trkpt lat="42.95432" lon="1.05872">
        <ele>691</ele>
        <time>2025-09-20T11:06:26.000Z</time>
      </trkpt>
      <trkpt lat="42.95431" lon="1.05882">
        <ele>690</ele>
        <time>2025-09-20T11:06:27.000Z</time>
      </trkpt>
      <trkpt lat="42.9543" lon="1.05891">
        <ele>690</ele>
        <time>2025-09-20T11:06:28.000Z</time>
      </trkpt>
      <trkpt lat="42.95429" lon="1.05899">
        <ele>689</ele>
        <time>2025-09-20T11:06:29.000Z</time>
      </trkpt>
      <trkpt lat="42.95429" lon="1.05906">
        <ele>689</ele>
        <time>2025-09-20T11:06:30.000Z</time>
      </trkpt>
      <trkpt lat="42.9543" lon="1.05911">
        <ele>688</ele>
        <time>2025-09-20T11:06:31.000Z</time>
      </trkpt>
      <trkpt lat="42.95429" lon="1.05915">
        <ele>688</ele>
        <time>2025-09-20T11:06:32.000Z</time>
      </trkpt>
      <trkpt lat="42.95427" lon="1.05918">
        <ele>688</ele>
        <time>2025-09-20T11:06:33.000Z</time>
      </trkpt>
      <trkpt lat="42.95425" lon="1.05919">
        <ele>687</ele>
        <time>2025-09-20T11:06:34.000Z</time>
      </trkpt>
      <trkpt lat="42.95422" lon="1.05918">
        <ele>685</ele>
        <time>2025-09-20T11:06:35.000Z</time>
      </trkpt>
      <trkpt lat="42.95419" lon="1.05915">
        <ele>684</ele>
        <time>2025-09-20T11:06:36.000Z</time>
      </trkpt>
      <trkpt lat="42.95415" lon="1.05912">
        <ele>683</ele>
        <time>2025-09-20T11:06:37.000Z</time>
      </trkpt>
      <trkpt lat="42.95411" lon="1.05908">
        <ele>682</ele>
        <time>2025-09-20T11:06:38.000Z</time>
      </trkpt>
      <trkpt lat="42.95408" lon="1.05905">
        <ele>682</ele>
        <time>2025-09-20T11:06:39.000Z</time>
      </trkpt>
      <trkpt lat="42.95405" lon="1.05903">
        <ele>682</ele>
        <time>2025-09-20T11:06:40.000Z</time>
      </trkpt>
      <trkpt lat="42.95401" lon="1.05901">
        <ele>681</ele>
        <time>2025-09-20T11:06:41.000Z</time>
      </trkpt>
      <trkpt lat="42.95397" lon="1.05897">
        <ele>680</ele>
        <time>2025-09-20T11:06:42.000Z</time>
      </trkpt>
      <trkpt lat="42.95394" lon="1.05892">
        <ele>678</ele>
        <time>2025-09-20T11:06:43.000Z</time>
      </trkpt>
      <trkpt lat="42.95389" lon="1.05886">
        <ele>676</ele>
        <time>2025-09-20T11:06:44.000Z</time>
      </trkpt>
      <trkpt lat="42.95385" lon="1.0588">
        <ele>675</ele>
        <time>2025-09-20T11:06:45.000Z</time>
      </trkpt>
      <trkpt lat="42.9538" lon="1.05874">
        <ele>674</ele>
        <time>2025-09-20T11:06:46.000Z</time>
      </trkpt>
      <trkpt lat="42.95376" lon="1.05868">
        <ele>674</ele>
        <time>2025-09-20T11:06:47.000Z</time>
      </trkpt>
      <trkpt lat="42.95372" lon="1.05862">
        <ele>673</ele>
        <time>2025-09-20T11:06:48.000Z</time>
      </trkpt>
      <trkpt lat="42.9537" lon="1.05858">
        <ele>672</ele>
        <time>2025-09-20T11:06:49.000Z</time>
      </trkpt>
      <trkpt lat="42.95368" lon="1.05855">
        <ele>671</ele>
        <time>2025-09-20T11:06:50.000Z</time>
      </trkpt>
      <trkpt lat="42.95365" lon="1.05855">
        <ele>670</ele>
        <time>2025-09-20T11:06:51.000Z</time>
      </trkpt>
      <trkpt lat="42.95363" lon="1.05856">
        <ele>669</ele>
        <time>2025-09-20T11:06:52.000Z</time>
      </trkpt>
      <trkpt lat="42.95361" lon="1.05858">
        <ele>668</ele>
        <time>2025-09-20T11:06:53.000Z</time>
      </trkpt>
      <trkpt lat="42.95359" lon="1.0586">
        <ele>667</ele>
        <time>2025-09-20T11:06:54.000Z</time>
      </trkpt>
      <trkpt lat="42.95357" lon="1.05861">
        <ele>666</ele>
        <time>2025-09-20T11:06:55.000Z</time>
      </trkpt>
      <trkpt lat="42.95354" lon="1.05863">
        <ele>666</ele>
        <time>2025-09-20T11:06:56.000Z</time>
      </trkpt>
      <trkpt lat="42.95351" lon="1.05866">
        <ele>665</ele>
        <time>2025-09-20T11:06:57.000Z</time>
      </trkpt>
      <trkpt lat="42.95348" lon="1.05868">
        <ele>664</ele>
        <time>2025-09-20T11:06:58.000Z</time>
      </trkpt>
      <trkpt lat="42.95346" lon="1.0587">
        <ele>663</ele>
        <time>2025-09-20T11:06:59.000Z</time>
      </trkpt>
      <trkpt lat="42.95343" lon="1.05871">
        <ele>662</ele>
        <time>2025-09-20T11:07:00.000Z</time>
      </trkpt>
      <trkpt lat="42.95341" lon="1.05872">
        <ele>661</ele>
        <time>2025-09-20T11:07:01.000Z</time>
      </trkpt>
      <trkpt lat="42.95338" lon="1.05875">
        <ele>660</ele>
        <time>2025-09-20T11:07:02.000Z</time>
      </trkpt>
      <trkpt lat="42.95336" lon="1.05877">
        <ele>660</ele>
        <time>2025-09-20T11:07:03.000Z</time>
      </trkpt>
      <trkpt lat="42.95334" lon="1.0588">
        <ele>660</ele>
        <time>2025-09-20T11:07:04.000Z</time>
      </trkpt>
      <trkpt lat="42.95332" lon="1.0588">
        <ele>659</ele>
        <time>2025-09-20T11:07:05.000Z</time>
      </trkpt>
      <trkpt lat="42.95331" lon="1.05878">
        <ele>658</ele>
        <time>2025-09-20T11:07:06.000Z</time>
      </trkpt>
      <trkpt lat="42.9533" lon="1.05875">
        <ele>658</ele>
        <time>2025-09-20T11:07:07.000Z</time>
      </trkpt>
      <trkpt lat="42.95328" lon="1.05872">
        <ele>657</ele>
        <time>2025-09-20T11:07:08.000Z</time>
      </trkpt>
      <trkpt lat="42.95327" lon="1.05868">
        <ele>657</ele>
        <time>2025-09-20T11:07:09.000Z</time>
      </trkpt>
      <trkpt lat="42.95325" lon="1.05864">
        <ele>655</ele>
        <time>2025-09-20T11:07:10.000Z</time>
      </trkpt>
      <trkpt lat="42.95324" lon="1.05859">
        <ele>654</ele>
        <time>2025-09-20T11:07:11.000Z</time>
      </trkpt>
      <trkpt lat="42.95323" lon="1.05854">
        <ele>651</ele>
        <time>2025-09-20T11:07:12.000Z</time>
      </trkpt>
      <trkpt lat="42.95322" lon="1.05848">
        <ele>650</ele>
        <time>2025-09-20T11:07:13.000Z</time>
      </trkpt>
      <trkpt lat="42.95321" lon="1.05843">
        <ele>649</ele>
        <time>2025-09-20T11:07:14.000Z</time>
      </trkpt>
      <trkpt lat="42.95319" lon="1.05839">
        <ele>648</ele>
        <time>2025-09-20T11:07:15.000Z</time>
      </trkpt>
      <trkpt lat="42.95316" lon="1.05839">
        <ele>647</ele>
        <time>2025-09-20T11:07:16.000Z</time>
      </trkpt>
      <trkpt lat="42.95314" lon="1.05841">
        <ele>647</ele>
        <time>2025-09-20T11:07:17.000Z</time>
      </trkpt>
      <trkpt lat="42.95312" lon="1.05845">
        <ele>647</ele>
        <time>2025-09-20T11:07:18.000Z</time>
      </trkpt>
      <trkpt lat="42.9531" lon="1.05849">
        <ele>646</ele>
        <time>2025-09-20T11:07:19.000Z</time>
      </trkpt>
      <trkpt lat="42.95309" lon="1.05852">
        <ele>647</ele>
        <time>2025-09-20T11:07:20.000Z</time>
      </trkpt>
      <trkpt lat="42.95306" lon="1.05854">
        <ele>646</ele>
        <time>2025-09-20T11:07:21.000Z</time>
      </trkpt>
      <trkpt lat="42.95305" lon="1.05852">
        <ele>646</ele>
        <time>2025-09-20T11:07:22.000Z</time>
      </trkpt>
      <trkpt lat="42.95305" lon="1.0585">
        <ele>646</ele>
        <time>2025-09-20T11:07:23.000Z</time>
      </trkpt>
      <trkpt lat="42.95305" lon="1.05846">
        <ele>645</ele>
        <time>2025-09-20T11:07:24.000Z</time>
      </trkpt>
      <trkpt lat="42.95305" lon="1.05842">
        <ele>644</ele>
        <time>2025-09-20T11:07:25.000Z</time>
      </trkpt>
      <trkpt lat="42.95305" lon="1.05837">
        <ele>643</ele>
        <time>2025-09-20T11:07:26.000Z</time>
      </trkpt>
      <trkpt lat="42.95304" lon="1.0583">
        <ele>642</ele>
        <time>2025-09-20T11:07:27.000Z</time>
      </trkpt>
      <trkpt lat="42.95303" lon="1.05824">
        <ele>642</ele>
        <time>2025-09-20T11:07:28.000Z</time>
      </trkpt>
      <trkpt lat="42.95303" lon="1.05818">
        <ele>641</ele>
        <time>2025-09-20T11:07:29.000Z</time>
      </trkpt>
      <trkpt lat="42.95303" lon="1.05811">
        <ele>640</ele>
        <time>2025-09-20T11:07:30.000Z</time>
      </trkpt>
      <trkpt lat="42.95303" lon="1.05805">
        <ele>639</ele>
        <time>2025-09-20T11:07:31.000Z</time>
      </trkpt>
      <trkpt lat="42.95302" lon="1.05803">
        <ele>639</ele>
        <time>2025-09-20T11:07:32.000Z</time>
      </trkpt>
      <trkpt lat="42.95299" lon="1.05803">
        <ele>638</ele>
        <time>2025-09-20T11:07:33.000Z</time>
      </trkpt>
      <trkpt lat="42.95296" lon="1.05805">
        <ele>637</ele>
        <time>2025-09-20T11:07:34.000Z</time>
      </trkpt>
      <trkpt lat="42.95293" lon="1.0581">
        <ele>636</ele>
        <time>2025-09-20T11:07:35.000Z</time>
      </trkpt>
      <trkpt lat="42.95289" lon="1.05813">
        <ele>635</ele>
        <time>2025-09-20T11:07:36.000Z</time>
      </trkpt>
      <trkpt lat="42.95283" lon="1.05816">
        <ele>633</ele>
        <time>2025-09-20T11:07:37.000Z</time>
      </trkpt>
      <trkpt lat="42.9528" lon="1.05814">
        <ele>631</ele>
        <time>2025-09-20T11:07:38.000Z</time>
      </trkpt>
      <trkpt lat="42.95276" lon="1.05812">
        <ele>628</ele>
        <time>2025-09-20T11:07:39.000Z</time>
      </trkpt>
      <trkpt lat="42.95274" lon="1.05809">
        <ele>626</ele>
        <time>2025-09-20T11:07:40.000Z</time>
      </trkpt>
      <trkpt lat="42.95273" lon="1.05804">
        <ele>625</ele>
        <time>2025-09-20T11:07:41.000Z</time>
      </trkpt>
      <trkpt lat="42.95273" lon="1.05799">
        <ele>625</ele>
        <time>2025-09-20T11:07:42.000Z</time>
      </trkpt>
      <trkpt lat="42.95271" lon="1.05798">
        <ele>624</ele>
        <time>2025-09-20T11:07:43.000Z</time>
      </trkpt>
      <trkpt lat="42.95267" lon="1.05799">
        <ele>624</ele>
        <time>2025-09-20T11:07:44.000Z</time>
      </trkpt>
      <trkpt lat="42.95264" lon="1.05801">
        <ele>623</ele>
        <time>2025-09-20T11:07:45.000Z</time>
      </trkpt>
      <trkpt lat="42.9526" lon="1.05804">
        <ele>621</ele>
        <time>2025-09-20T11:07:46.000Z</time>
      </trkpt>
      <trkpt lat="42.95254" lon="1.05809">
        <ele>621</ele>
        <time>2025-09-20T11:07:47.000Z</time>
      </trkpt>
      <trkpt lat="42.9525" lon="1.05815">
        <ele>621</ele>
        <time>2025-09-20T11:07:48.000Z</time>
      </trkpt>
      <trkpt lat="42.95246" lon="1.05821">
        <ele>620</ele>
        <time>2025-09-20T11:07:49.000Z</time>
      </trkpt>
      <trkpt lat="42.95241" lon="1.05825">
        <ele>620</ele>
        <time>2025-09-20T11:07:50.000Z</time>
      </trkpt>
      <trkpt lat="42.95237" lon="1.0583">
        <ele>620</ele>
        <time>2025-09-20T11:07:51.000Z</time>
      </trkpt>
      <trkpt lat="42.95233" lon="1.05836">
        <ele>620</ele>
        <time>2025-09-20T11:07:52.000Z</time>
      </trkpt>
      <trkpt lat="42.9523" lon="1.0584">
        <ele>620</ele>
        <time>2025-09-20T11:07:53.000Z</time>
      </trkpt>
      <trkpt lat="42.95228" lon="1.05844">
        <ele>620</ele>
        <time>2025-09-20T11:07:54.000Z</time>
      </trkpt>
      <trkpt lat="42.95227" lon="1.05848">
        <ele>620</ele>
        <time>2025-09-20T11:07:55.000Z</time>
      </trkpt>
      <trkpt lat="42.95226" lon="1.0585">
        <ele>620</ele>
        <time>2025-09-20T11:07:56.000Z</time>
      </trkpt>
      <trkpt lat="42.95225" lon="1.05848">
        <ele>619</ele>
        <time>2025-09-20T11:07:57.000Z</time>
      </trkpt>
      <trkpt lat="42.95226" lon="1.05844">
        <ele>618</ele>
        <time>2025-09-20T11:07:58.000Z</time>
      </trkpt>
      <trkpt lat="42.95226" lon="1.0584">
        <ele>616</ele>
        <time>2025-09-20T11:07:59.000Z</time>
      </trkpt>
      <trkpt lat="42.95226" lon="1.05835">
        <ele>615</ele>
        <time>2025-09-20T11:08:00.000Z</time>
      </trkpt>
      <trkpt lat="42.95227" lon="1.0583">
        <ele>613</ele>
        <time>2025-09-20T11:08:01.000Z</time>
      </trkpt>
      <trkpt lat="42.95225" lon="1.05826">
        <ele>611</ele>
        <time>2025-09-20T11:08:02.000Z</time>
      </trkpt>
      <trkpt lat="42.95223" lon="1.05824">
        <ele>610</ele>
        <time>2025-09-20T11:08:03.000Z</time>
      </trkpt>
      <trkpt lat="42.9522" lon="1.05822">
        <ele>609</ele>
        <time>2025-09-20T11:08:04.000Z</time>
      </trkpt>
      <trkpt lat="42.95216" lon="1.05822">
        <ele>607</ele>
        <time>2025-09-20T11:08:05.000Z</time>
      </trkpt>
      <trkpt lat="42.95213" lon="1.05823">
        <ele>606</ele>
        <time>2025-09-20T11:08:06.000Z</time>
      </trkpt>
      <trkpt lat="42.9521" lon="1.05827">
        <ele>606</ele>
        <time>2025-09-20T11:08:07.000Z</time>
      </trkpt>
      <trkpt lat="42.95208" lon="1.05829">
        <ele>606</ele>
        <time>2025-09-20T11:08:08.000Z</time>
      </trkpt>
      <trkpt lat="42.95206" lon="1.05828">
        <ele>605</ele>
        <time>2025-09-20T11:08:09.000Z</time>
      </trkpt>
      <trkpt lat="42.95206" lon="1.05825">
        <ele>604</ele>
        <time>2025-09-20T11:08:10.000Z</time>
      </trkpt>
      <trkpt lat="42.95206" lon="1.05821">
        <ele>603</ele>
        <time>2025-09-20T11:08:11.000Z</time>
      </trkpt>
      <trkpt lat="42.95207" lon="1.05817">
        <ele>603</ele>
        <time>2025-09-20T11:08:12.000Z</time>
      </trkpt>
      <trkpt lat="42.95207" lon="1.05813">
        <ele>603</ele>
        <time>2025-09-20T11:08:13.000Z</time>
      </trkpt>
      <trkpt lat="42.95206" lon="1.05809">
        <ele>602</ele>
        <time>2025-09-20T11:08:14.000Z</time>
      </trkpt>
      <trkpt lat="42.95203" lon="1.05808">
        <ele>601</ele>
        <time>2025-09-20T11:08:15.000Z</time>
      </trkpt>
      <trkpt lat="42.952" lon="1.05809">
        <ele>601</ele>
        <time>2025-09-20T11:08:16.000Z</time>
      </trkpt>
      <trkpt lat="42.95198" lon="1.05811">
        <ele>600</ele>
        <time>2025-09-20T11:08:17.000Z</time>
      </trkpt>
      <trkpt lat="42.95196" lon="1.05812">
        <ele>598</ele>
        <time>2025-09-20T11:08:18.000Z</time>
      </trkpt>
      <trkpt lat="42.95194" lon="1.05811">
        <ele>598</ele>
        <time>2025-09-20T11:08:19.000Z</time>
      </trkpt>
      <trkpt lat="42.95194" lon="1.05808">
        <ele>598</ele>
        <time>2025-09-20T11:08:20.000Z</time>
      </trkpt>
      <trkpt lat="42.95195" lon="1.05804">
        <ele>596</ele>
        <time>2025-09-20T11:08:21.000Z</time>
      </trkpt>
      <trkpt lat="42.95196" lon="1.05798">
        <ele>593</ele>
        <time>2025-09-20T11:08:22.000Z</time>
      </trkpt>
      <trkpt lat="42.95197" lon="1.05792">
        <ele>590</ele>
        <time>2025-09-20T11:08:23.000Z</time>
      </trkpt>
      <trkpt lat="42.95198" lon="1.05786">
        <ele>587</ele>
        <time>2025-09-20T11:08:24.000Z</time>
      </trkpt>
      <trkpt lat="42.95199" lon="1.05779">
        <ele>584</ele>
        <time>2025-09-20T11:08:25.000Z</time>
      </trkpt>
      <trkpt lat="42.952" lon="1.0577">
        <ele>582</ele>
        <time>2025-09-20T11:08:26.000Z</time>
      </trkpt>
      <trkpt lat="42.95201" lon="1.05762">
        <ele>582</ele>
        <time>2025-09-20T11:08:27.000Z</time>
      </trkpt>
      <trkpt lat="42.95202" lon="1.05755">
        <ele>582</ele>
        <time>2025-09-20T11:08:28.000Z</time>
      </trkpt>
      <trkpt lat="42.95202" lon="1.0575">
        <ele>583</ele>
        <time>2025-09-20T11:08:29.000Z</time>
      </trkpt>
      <trkpt lat="42.952" lon="1.05746">
        <ele>583</ele>
        <time>2025-09-20T11:08:30.000Z</time>
      </trkpt>
      <trkpt lat="42.95199" lon="1.05746">
        <ele>583</ele>
        <time>2025-09-20T11:08:31.000Z</time>
      </trkpt>
      <trkpt lat="42.95196" lon="1.05747">
        <ele>582</ele>
        <time>2025-09-20T11:08:32.000Z</time>
      </trkpt>
      <trkpt lat="42.95194" lon="1.05748">
        <ele>581</ele>
        <time>2025-09-20T11:08:33.000Z</time>
      </trkpt>
      <trkpt lat="42.95191" lon="1.05749">
        <ele>581</ele>
        <time>2025-09-20T11:08:34.000Z</time>
      </trkpt>
      <trkpt lat="42.95188" lon="1.05751">
        <ele>581</ele>
        <time>2025-09-20T11:08:35.000Z</time>
      </trkpt>
      <trkpt lat="42.95186" lon="1.05753">
        <ele>581</ele>
        <time>2025-09-20T11:08:36.000Z</time>
      </trkpt>
      <trkpt lat="42.95184" lon="1.05754">
        <ele>581</ele>
        <time>2025-09-20T11:08:37.000Z</time>
      </trkpt>
      <trkpt lat="42.95183" lon="1.05751">
        <ele>580</ele>
        <time>2025-09-20T11:08:38.000Z</time>
      </trkpt>
      <trkpt lat="42.95183" lon="1.05747">
        <ele>580</ele>
        <time>2025-09-20T11:08:39.000Z</time>
      </trkpt>
      <trkpt lat="42.95184" lon="1.05742">
        <ele>579</ele>
        <time>2025-09-20T11:08:40.000Z</time>
      </trkpt>
      <trkpt lat="42.95183" lon="1.05739">
        <ele>578</ele>
        <time>2025-09-20T11:08:41.000Z</time>
      </trkpt>
      <trkpt lat="42.95181" lon="1.05736">
        <ele>578</ele>
        <time>2025-09-20T11:08:42.000Z</time>
      </trkpt>
      <trkpt lat="42.95179" lon="1.05735">
        <ele>577</ele>
        <time>2025-09-20T11:08:43.000Z</time>
      </trkpt>
      <trkpt lat="42.95175" lon="1.05735">
        <ele>576</ele>
        <time>2025-09-20T11:08:44.000Z</time>
      </trkpt>
      <trkpt lat="42.95172" lon="1.05738">
        <ele>576</ele>
        <time>2025-09-20T11:08:45.000Z</time>
      </trkpt>
      <trkpt lat="42.95168" lon="1.05741">
        <ele>575</ele>
        <time>2025-09-20T11:08:46.000Z</time>
      </trkpt>
      <trkpt lat="42.95164" lon="1.05745">
        <ele>575</ele>
        <time>2025-09-20T11:08:47.000Z</time>
      </trkpt>
      <trkpt lat="42.95159" lon="1.05751">
        <ele>575</ele>
        <time>2025-09-20T11:08:48.000Z</time>
      </trkpt>
      <trkpt lat="42.95155" lon="1.05757">
        <ele>575</ele>
        <time>2025-09-20T11:08:49.000Z</time>
      </trkpt>
      <trkpt lat="42.95151" lon="1.05764">
        <ele>574</ele>
        <time>2025-09-20T11:08:50.000Z</time>
      </trkpt>
      <trkpt lat="42.95146" lon="1.05771">
        <ele>573</ele>
        <time>2025-09-20T11:08:51.000Z</time>
      </trkpt>
      <trkpt lat="42.95143" lon="1.05777">
        <ele>573</ele>
        <time>2025-09-20T11:08:52.000Z</time>
      </trkpt>
      <trkpt lat="42.95139" lon="1.05782">
        <ele>573</ele>
        <time>2025-09-20T11:08:53.000Z</time>
      </trkpt>
      <trkpt lat="42.95135" lon="1.05786">
        <ele>573</ele>
        <time>2025-09-20T11:08:54.000Z</time>
      </trkpt>
      <trkpt lat="42.95131" lon="1.05789">
        <ele>573</ele>
        <time>2025-09-20T11:08:55.000Z</time>
      </trkpt>
      <trkpt lat="42.95127" lon="1.05791">
        <ele>572</ele>
        <time>2025-09-20T11:08:56.000Z</time>
      </trkpt>
      <trkpt lat="42.95122" lon="1.05793">
        <ele>571</ele>
        <time>2025-09-20T11:08:57.000Z</time>
      </trkpt>
      <trkpt lat="42.95117" lon="1.05796">
        <ele>570</ele>
        <time>2025-09-20T11:08:58.000Z</time>
      </trkpt>
      <trkpt lat="42.95111" lon="1.05799">
        <ele>568</ele>
        <time>2025-09-20T11:08:59.000Z</time>
      </trkpt>
      <trkpt lat="42.95105" lon="1.05802">
        <ele>567</ele>
        <time>2025-09-20T11:09:00.000Z</time>
      </trkpt>
      <trkpt lat="42.95098" lon="1.05805">
        <ele>566</ele>
        <time>2025-09-20T11:09:01.000Z</time>
      </trkpt>
      <trkpt lat="42.9509" lon="1.05808">
        <ele>564</ele>
        <time>2025-09-20T11:09:02.000Z</time>
      </trkpt>
      <trkpt lat="42.95084" lon="1.05811">
        <ele>563</ele>
        <time>2025-09-20T11:09:03.000Z</time>
      </trkpt>
      <trkpt lat="42.95077" lon="1.05814">
        <ele>561</ele>
        <time>2025-09-20T11:09:04.000Z</time>
      </trkpt>
      <trkpt lat="42.95072" lon="1.05816">
        <ele>560</ele>
        <time>2025-09-20T11:09:05.000Z</time>
      </trkpt>
      <trkpt lat="42.95068" lon="1.05818">
        <ele>559</ele>
        <time>2025-09-20T11:09:06.000Z</time>
      </trkpt>
      <trkpt lat="42.95064" lon="1.05821">
        <ele>559</ele>
        <time>2025-09-20T11:09:07.000Z</time>
      </trkpt>
      <trkpt lat="42.9506" lon="1.05823">
        <ele>558</ele>
        <time>2025-09-20T11:09:08.000Z</time>
      </trkpt>
      <trkpt lat="42.95057" lon="1.05824">
        <ele>558</ele>
        <time>2025-09-20T11:09:09.000Z</time>
      </trkpt>
      <trkpt lat="42.95054" lon="1.05824">
        <ele>558</ele>
        <time>2025-09-20T11:09:10.000Z</time>
      </trkpt>
      <trkpt lat="42.95051" lon="1.05825">
        <ele>557</ele>
        <time>2025-09-20T11:09:11.000Z</time>
      </trkpt>
      <trkpt lat="42.95046" lon="1.05826">
        <ele>556</ele>
        <time>2025-09-20T11:09:12.000Z</time>
      </trkpt>
      <trkpt lat="42.95042" lon="1.05826">
        <ele>555</ele>
        <time>2025-09-20T11:09:13.000Z</time>
      </trkpt>
      <trkpt lat="42.95039" lon="1.05825">
        <ele>553</ele>
        <time>2025-09-20T11:09:14.000Z</time>
      </trkpt>
      <trkpt lat="42.95035" lon="1.05826">
        <ele>552</ele>
        <time>2025-09-20T11:09:15.000Z</time>
      </trkpt>
      <trkpt lat="42.9503" lon="1.05828">
        <ele>551</ele>
        <time>2025-09-20T11:09:16.000Z</time>
      </trkpt>
      <trkpt lat="42.95025" lon="1.05832">
        <ele>550</ele>
        <time>2025-09-20T11:09:17.000Z</time>
      </trkpt>
      <trkpt lat="42.9502" lon="1.05834">
        <ele>549</ele>
        <time>2025-09-20T11:09:18.000Z</time>
      </trkpt>
      <trkpt lat="42.95015" lon="1.05838">
        <ele>548</ele>
        <time>2025-09-20T11:09:19.000Z</time>
      </trkpt>
      <trkpt lat="42.9501" lon="1.05844">
        <ele>547</ele>
        <time>2025-09-20T11:09:20.000Z</time>
      </trkpt>
      <trkpt lat="42.95006" lon="1.0585">
        <ele>547</ele>
        <time>2025-09-20T11:09:21.000Z</time>
      </trkpt>
      <trkpt lat="42.95001" lon="1.05858">
        <ele>546</ele>
        <time>2025-09-20T11:09:22.000Z</time>
      </trkpt>
      <trkpt lat="42.94998" lon="1.05866">
        <ele>546</ele>
        <time>2025-09-20T11:09:23.000Z</time>
      </trkpt>
      <trkpt lat="42.94995" lon="1.05875">
        <ele>546</ele>
        <time>2025-09-20T11:09:24.000Z</time>
      </trkpt>
      <trkpt lat="42.94993" lon="1.05883">
        <ele>546</ele>
        <time>2025-09-20T11:09:25.000Z</time>
      </trkpt>
      <trkpt lat="42.94989" lon="1.05892">
        <ele>545</ele>
        <time>2025-09-20T11:09:26.000Z</time>
      </trkpt>
      <trkpt lat="42.94986" lon="1.05901">
        <ele>545</ele>
        <time>2025-09-20T11:09:27.000Z</time>
      </trkpt>
      <trkpt lat="42.94983" lon="1.05907">
        <ele>545</ele>
        <time>2025-09-20T11:09:28.000Z</time>
      </trkpt>
      <trkpt lat="42.94981" lon="1.05911">
        <ele>544</ele>
        <time>2025-09-20T11:09:29.000Z</time>
      </trkpt>
      <trkpt lat="42.9498" lon="1.05914">
        <ele>543</ele>
        <time>2025-09-20T11:09:30.000Z</time>
      </trkpt>
      <trkpt lat="42.94979" lon="1.05916">
        <ele>543</ele>
        <time>2025-09-20T11:09:31.000Z</time>
      </trkpt>
      <trkpt lat="42.94979" lon="1.0592">
        <ele>543</ele>
        <time>2025-09-20T11:09:32.000Z</time>
      </trkpt>
      <trkpt lat="42.94979" lon="1.05924">
        <ele>542</ele>
        <time>2025-09-20T11:09:33.000Z</time>
      </trkpt>
      <trkpt lat="42.94979" lon="1.05928">
        <ele>542</ele>
        <time>2025-09-20T11:09:34.000Z</time>
      </trkpt>
      <trkpt lat="42.94977" lon="1.05932">
        <ele>540</ele>
        <time>2025-09-20T11:09:35.000Z</time>
      </trkpt>
      <trkpt lat="42.94975" lon="1.05933">
        <ele>538</ele>
        <time>2025-09-20T11:09:36.000Z</time>
      </trkpt>
      <trkpt lat="42.94973" lon="1.05935">
        <ele>537</ele>
        <time>2025-09-20T11:09:37.000Z</time>
      </trkpt>
      <trkpt lat="42.9497" lon="1.05938">
        <ele>536</ele>
        <time>2025-09-20T11:09:38.000Z</time>
      </trkpt>
      <trkpt lat="42.94968" lon="1.0594">
        <ele>534</ele>
        <time>2025-09-20T11:09:39.000Z</time>
      </trkpt>
      <trkpt lat="42.94968" lon="1.05942">
        <ele>534</ele>
        <time>2025-09-20T11:09:40.000Z</time>
      </trkpt>
      <trkpt lat="42.94968" lon="1.05942">
        <ele>534</ele>
        <time>2025-09-20T11:09:41.000Z</time>
      </trkpt>
      <trkpt lat="42.94968" lon="1.05943">
        <ele>533</ele>
        <time>2025-09-20T11:09:42.000Z</time>
      </trkpt>
      <trkpt lat="42.94962" lon="1.05931">
        <ele>531</ele>
        <time>2025-09-20T11:09:55.000Z</time>
      </trkpt>
      <trkpt lat="42.94962" lon="1.05923">
        <ele>530</ele>
        <time>2025-09-20T11:09:56.000Z</time>
      </trkpt>
      <trkpt lat="42.9496" lon="1.05916">
        <ele>530</ele>
        <time>2025-09-20T11:09:57.000Z</time>
      </trkpt>
      <trkpt lat="42.94957" lon="1.0591">
        <ele>529</ele>
        <time>2025-09-20T11:09:58.000Z</time>
      </trkpt>
      <trkpt lat="42.94955" lon="1.05904">
        <ele>529</ele>
        <time>2025-09-20T11:09:59.000Z</time>
      </trkpt>
      <trkpt lat="42.94953" lon="1.059">
        <ele>529</ele>
        <time>2025-09-20T11:10:00.000Z</time>
      </trkpt>
      <trkpt lat="42.94949" lon="1.05899">
        <ele>529</ele>
        <time>2025-09-20T11:10:01.000Z</time>
      </trkpt>
      <trkpt lat="42.94945" lon="1.05901">
        <ele>529</ele>
        <time>2025-09-20T11:10:02.000Z</time>
      </trkpt>
      <trkpt lat="42.94941" lon="1.05905">
        <ele>528</ele>
        <time>2025-09-20T11:10:03.000Z</time>
      </trkpt>
      <trkpt lat="42.94938" lon="1.05908">
        <ele>527</ele>
        <time>2025-09-20T11:10:04.000Z</time>
      </trkpt>
      <trkpt lat="42.94935" lon="1.05909">
        <ele>527</ele>
        <time>2025-09-20T11:10:05.000Z</time>
      </trkpt>
      <trkpt lat="42.94933" lon="1.05908">
        <ele>527</ele>
        <time>2025-09-20T11:10:06.000Z</time>
      </trkpt>
      <trkpt lat="42.94933" lon="1.05905">
        <ele>526</ele>
        <time>2025-09-20T11:10:07.000Z</time>
      </trkpt>
      <trkpt lat="42.94933" lon="1.05905">
        <ele>526</ele>
        <time>2025-09-20T11:10:08.000Z</time>
      </trkpt>
      <trkpt lat="42.94934" lon="1.05905">
        <ele>525</ele>
        <time>2025-09-20T11:10:09.000Z</time>
      </trkpt>
      <trkpt lat="42.94933" lon="1.05905">
        <ele>524</ele>
        <time>2025-09-20T11:11:18.000Z</time>
      </trkpt>
      <trkpt lat="42.94934" lon="1.05902">
        <ele>524</ele>
        <time>2025-09-20T11:11:19.000Z</time>
      </trkpt>
      <trkpt lat="42.94936" lon="1.05898">
        <ele>524</ele>
        <time>2025-09-20T11:11:20.000Z</time>
      </trkpt>
      <trkpt lat="42.94937" lon="1.05894">
        <ele>523</ele>
        <time>2025-09-20T11:11:21.000Z</time>
      </trkpt>
      <trkpt lat="42.94939" lon="1.05891">
        <ele>523</ele>
        <time>2025-09-20T11:11:22.000Z</time>
      </trkpt>
      <trkpt lat="42.94939" lon="1.05889">
        <ele>523</ele>
        <time>2025-09-20T11:11:23.000Z</time>
      </trkpt>
      <trkpt lat="42.94936" lon="1.05888">
        <ele>522</ele>
        <time>2025-09-20T11:11:24.000Z</time>
      </trkpt>
      <trkpt lat="42.94934" lon="1.0589">
        <ele>522</ele>
        <time>2025-09-20T11:11:25.000Z</time>
      </trkpt>
      <trkpt lat="42.94933" lon="1.05893">
        <ele>522</ele>
        <time>2025-09-20T11:11:26.000Z</time>
      </trkpt>
      <trkpt lat="42.94931" lon="1.05896">
        <ele>521</ele>
        <time>2025-09-20T11:11:27.000Z</time>
      </trkpt>
      <trkpt lat="42.94929" lon="1.059">
        <ele>521</ele>
        <time>2025-09-20T11:11:28.000Z</time>
      </trkpt>
      <trkpt lat="42.94927" lon="1.05906">
        <ele>521</ele>
        <time>2025-09-20T11:11:29.000Z</time>
      </trkpt>
      <trkpt lat="42.94926" lon="1.0591">
        <ele>521</ele>
        <time>2025-09-20T11:11:30.000Z</time>
      </trkpt>
      <trkpt lat="42.94922" lon="1.05915">
        <ele>521</ele>
        <time>2025-09-20T11:11:31.000Z</time>
      </trkpt>
      <trkpt lat="42.94918" lon="1.05919">
        <ele>521</ele>
        <time>2025-09-20T11:11:32.000Z</time>
      </trkpt>
      <trkpt lat="42.94912" lon="1.05922">
        <ele>521</ele>
        <time>2025-09-20T11:11:33.000Z</time>
      </trkpt>
      <trkpt lat="42.94906" lon="1.05923">
        <ele>520</ele>
        <time>2025-09-20T11:11:34.000Z</time>
      </trkpt>
      <trkpt lat="42.949" lon="1.05923">
        <ele>520</ele>
        <time>2025-09-20T11:11:35.000Z</time>
      </trkpt>
      <trkpt lat="42.94894" lon="1.05923">
        <ele>519</ele>
        <time>2025-09-20T11:11:36.000Z</time>
      </trkpt>
      <trkpt lat="42.94887" lon="1.05923">
        <ele>519</ele>
        <time>2025-09-20T11:11:37.000Z</time>
      </trkpt>
      <trkpt lat="42.9488" lon="1.05923">
        <ele>519</ele>
        <time>2025-09-20T11:11:38.000Z</time>
      </trkpt>
      <trkpt lat="42.94873" lon="1.05922">
        <ele>518</ele>
        <time>2025-09-20T11:11:39.000Z</time>
      </trkpt>
      <trkpt lat="42.94867" lon="1.05919">
        <ele>518</ele>
        <time>2025-09-20T11:11:40.000Z</time>
      </trkpt>
      <trkpt lat="42.94861" lon="1.05916">
        <ele>517</ele>
        <time>2025-09-20T11:11:41.000Z</time>
      </trkpt>
      <trkpt lat="42.94856" lon="1.05912">
        <ele>516</ele>
        <time>2025-09-20T11:11:42.000Z</time>
      </trkpt>
      <trkpt lat="42.94851" lon="1.05908">
        <ele>516</ele>
        <time>2025-09-20T11:11:43.000Z</time>
      </trkpt>
      <trkpt lat="42.94847" lon="1.05905">
        <ele>516</ele>
        <time>2025-09-20T11:11:44.000Z</time>
      </trkpt>
      <trkpt lat="42.94844" lon="1.05903">
        <ele>517</ele>
        <time>2025-09-20T11:11:45.000Z</time>
      </trkpt>
      <trkpt lat="42.94841" lon="1.05902">
        <ele>517</ele>
        <time>2025-09-20T11:11:46.000Z</time>
      </trkpt>
      <trkpt lat="42.94839" lon="1.05901">
        <ele>517</ele>
        <time>2025-09-20T11:11:47.000Z</time>
      </trkpt>
      <trkpt lat="42.94839" lon="1.05902">
        <ele>517</ele>
        <time>2025-09-20T11:11:48.000Z</time>
      </trkpt>
      <trkpt lat="42.9484" lon="1.05902">
        <ele>517</ele>
        <time>2025-09-20T11:11:49.000Z</time>
      </trkpt>
      <trkpt lat="42.9484" lon="1.05902">
        <ele>517</ele>
        <time>2025-09-20T11:11:50.000Z</time>
      </trkpt>
      <trkpt lat="42.9484" lon="1.05902">
        <ele>517</ele>
        <time>2025-09-20T11:11:51.000Z</time>
      </trkpt>
      <trkpt lat="42.9484" lon="1.05902">
        <ele>517</ele>
        <time>2025-09-20T11:11:52.000Z</time>
      </trkpt>
      <trkpt lat="42.9484" lon="1.05902">
        <ele>517</ele>
        <time>2025-09-20T11:11:53.000Z</time>
      </trkpt>
      <trkpt lat="42.9484" lon="1.05902">
        <ele>517</ele>
        <time>2025-09-20T11:11:54.000Z</time>
      </trkpt>
      <trkpt lat="42.94839" lon="1.05902">
        <ele>517</ele>
        <time>2025-09-20T11:11:55.000Z</time>
      </trkpt>
      <trkpt lat="42.94839" lon="1.05904">
        <ele>517</ele>
        <time>2025-09-20T11:11:56.000Z</time>
      </trkpt>
      <trkpt lat="42.94838" lon="1.05905">
        <ele>517</ele>
        <time>2025-09-20T11:11:57.000Z</time>
      </trkpt>
      <trkpt lat="42.94837" lon="1.05904">
        <ele>517</ele>
        <time>2025-09-20T11:11:58.000Z</time>
      </trkpt>
      <trkpt lat="42.94835" lon="1.05902">
        <ele>516</ele>
        <time>2025-09-20T11:11:59.000Z</time>
      </trkpt>
      <trkpt lat="42.94834" lon="1.05899">
        <ele>516</ele>
        <time>2025-09-20T11:12:00.000Z</time>
      </trkpt>
      <trkpt lat="42.94833" lon="1.05896">
        <ele>516</ele>
        <time>2025-09-20T11:12:01.000Z</time>
      </trkpt>
      <trkpt lat="42.94832" lon="1.05892">
        <ele>515</ele>
        <time>2025-09-20T11:12:02.000Z</time>
      </trkpt>
      <trkpt lat="42.9483" lon="1.05889">
        <ele>515</ele>
        <time>2025-09-20T11:12:03.000Z</time>
      </trkpt>
      <trkpt lat="42.9483" lon="1.05885">
        <ele>515</ele>
        <time>2025-09-20T11:12:04.000Z</time>
      </trkpt>
      <trkpt lat="42.94828" lon="1.05882">
        <ele>515</ele>
        <time>2025-09-20T11:12:05.000Z</time>
      </trkpt>
      <trkpt lat="42.94827" lon="1.05877">
        <ele>515</ele>
        <time>2025-09-20T11:12:06.000Z</time>
      </trkpt>
      <trkpt lat="42.94826" lon="1.05873">
        <ele>516</ele>
        <time>2025-09-20T11:12:07.000Z</time>
      </trkpt>
      <trkpt lat="42.94825" lon="1.0587">
        <ele>516</ele>
        <time>2025-09-20T11:12:08.000Z</time>
      </trkpt>
      <trkpt lat="42.94822" lon="1.05871">
        <ele>516</ele>
        <time>2025-09-20T11:12:09.000Z</time>
      </trkpt>
      <trkpt lat="42.94819" lon="1.05876">
        <ele>516</ele>
        <time>2025-09-20T11:12:10.000Z</time>
      </trkpt>
      <trkpt lat="42.94817" lon="1.05881">
        <ele>516</ele>
        <time>2025-09-20T11:12:11.000Z</time>
      </trkpt>
      <trkpt lat="42.94815" lon="1.05884">
        <ele>516</ele>
        <time>2025-09-20T11:12:12.000Z</time>
      </trkpt>
      <trkpt lat="42.94814" lon="1.05887">
        <ele>516</ele>
        <time>2025-09-20T11:12:13.000Z</time>
      </trkpt>
      <trkpt lat="42.94812" lon="1.0589">
        <ele>516</ele>
        <time>2025-09-20T11:12:14.000Z</time>
      </trkpt>
      <trkpt lat="42.94811" lon="1.05892">
        <ele>516</ele>
        <time>2025-09-20T11:12:15.000Z</time>
      </trkpt>
      <trkpt lat="42.94809" lon="1.05895">
        <ele>516</ele>
        <time>2025-09-20T11:12:16.000Z</time>
      </trkpt>
      <trkpt lat="42.94806" lon="1.05898">
        <ele>516</ele>
        <time>2025-09-20T11:12:17.000Z</time>
      </trkpt>
      <trkpt lat="42.94803" lon="1.059">
        <ele>516</ele>
        <time>2025-09-20T11:12:18.000Z</time>
      </trkpt>
      <trkpt lat="42.948" lon="1.05903">
        <ele>516</ele>
        <time>2025-09-20T11:12:19.000Z</time>
      </trkpt>
      <trkpt lat="42.94798" lon="1.05907">
        <ele>517</ele>
        <time>2025-09-20T11:12:20.000Z</time>
      </trkpt>
      <trkpt lat="42.94795" lon="1.05909">
        <ele>516</ele>
        <time>2025-09-20T11:12:21.000Z</time>
      </trkpt>
      <trkpt lat="42.94792" lon="1.05913">
        <ele>516</ele>
        <time>2025-09-20T11:12:22.000Z</time>
      </trkpt>
      <trkpt lat="42.94789" lon="1.05916">
        <ele>516</ele>
        <time>2025-09-20T11:12:23.000Z</time>
      </trkpt>
      <trkpt lat="42.94786" lon="1.05921">
        <ele>517</ele>
        <time>2025-09-20T11:12:24.000Z</time>
      </trkpt>
      <trkpt lat="42.94783" lon="1.05925">
        <ele>516</ele>
        <time>2025-09-20T11:12:25.000Z</time>
      </trkpt>
      <trkpt lat="42.9478" lon="1.05929">
        <ele>516</ele>
        <time>2025-09-20T11:12:26.000Z</time>
      </trkpt>
      <trkpt lat="42.9478" lon="1.05934">
        <ele>515</ele>
        <time>2025-09-20T11:12:27.000Z</time>
      </trkpt>
      <trkpt lat="42.94781" lon="1.05941">
        <ele>515</ele>
        <time>2025-09-20T11:12:28.000Z</time>
      </trkpt>
      <trkpt lat="42.94783" lon="1.05947">
        <ele>515</ele>
        <time>2025-09-20T11:12:29.000Z</time>
      </trkpt>
      <trkpt lat="42.94784" lon="1.05953">
        <ele>515</ele>
        <time>2025-09-20T11:12:30.000Z</time>
      </trkpt>
      <trkpt lat="42.94786" lon="1.05959">
        <ele>515</ele>
        <time>2025-09-20T11:12:31.000Z</time>
      </trkpt>
      <trkpt lat="42.94786" lon="1.05966">
        <ele>515</ele>
        <time>2025-09-20T11:12:32.000Z</time>
      </trkpt>
      <trkpt lat="42.94785" lon="1.05973">
        <ele>515</ele>
        <time>2025-09-20T11:12:33.000Z</time>
      </trkpt>
      <trkpt lat="42.94785" lon="1.05979">
        <ele>515</ele>
        <time>2025-09-20T11:12:34.000Z</time>
      </trkpt>
      <trkpt lat="42.94784" lon="1.05986">
        <ele>515</ele>
        <time>2025-09-20T11:12:35.000Z</time>
      </trkpt>
      <trkpt lat="42.94784" lon="1.05992">
        <ele>516</ele>
        <time>2025-09-20T11:12:36.000Z</time>
      </trkpt>
      <trkpt lat="42.94783" lon="1.05998">
        <ele>516</ele>
        <time>2025-09-20T11:12:37.000Z</time>
      </trkpt>
      <trkpt lat="42.94781" lon="1.06004">
        <ele>516</ele>
        <time>2025-09-20T11:12:38.000Z</time>
      </trkpt>
      <trkpt lat="42.9478" lon="1.06009">
        <ele>516</ele>
        <time>2025-09-20T11:12:39.000Z</time>
      </trkpt>
      <trkpt lat="42.94779" lon="1.06014">
        <ele>516</ele>
        <time>2025-09-20T11:12:40.000Z</time>
      </trkpt>
      <trkpt lat="42.94777" lon="1.06019">
        <ele>516</ele>
        <time>2025-09-20T11:12:41.000Z</time>
      </trkpt>
      <trkpt lat="42.94775" lon="1.06024">
        <ele>516</ele>
        <time>2025-09-20T11:12:42.000Z</time>
      </trkpt>
      <trkpt lat="42.94774" lon="1.06029">
        <ele>516</ele>
        <time>2025-09-20T11:12:43.000Z</time>
      </trkpt>
      <trkpt lat="42.94772" lon="1.06034">
        <ele>516</ele>
        <time>2025-09-20T11:12:44.000Z</time>
      </trkpt>
      <trkpt lat="42.9477" lon="1.06039">
        <ele>516</ele>
        <time>2025-09-20T11:12:45.000Z</time>
      </trkpt>
      <trkpt lat="42.94767" lon="1.06042">
        <ele>516</ele>
        <time>2025-09-20T11:12:46.000Z</time>
      </trkpt>
      <trkpt lat="42.94764" lon="1.06047">
        <ele>516</ele>
        <time>2025-09-20T11:12:47.000Z</time>
      </trkpt>
      <trkpt lat="42.94762" lon="1.06051">
        <ele>516</ele>
        <time>2025-09-20T11:12:48.000Z</time>
      </trkpt>
      <trkpt lat="42.94759" lon="1.06057">
        <ele>515</ele>
        <time>2025-09-20T11:12:49.000Z</time>
      </trkpt>
      <trkpt lat="42.94756" lon="1.06062">
        <ele>515</ele>
        <time>2025-09-20T11:12:50.000Z</time>
      </trkpt>
      <trkpt lat="42.94753" lon="1.06067">
        <ele>515</ele>
        <time>2025-09-20T11:12:51.000Z</time>
      </trkpt>
      <trkpt lat="42.94751" lon="1.06073">
        <ele>515</ele>
        <time>2025-09-20T11:12:52.000Z</time>
      </trkpt>
      <trkpt lat="42.94748" lon="1.06079">
        <ele>515</ele>
        <time>2025-09-20T11:12:53.000Z</time>
      </trkpt>
      <trkpt lat="42.94746" lon="1.06085">
        <ele>515</ele>
        <time>2025-09-20T11:12:54.000Z</time>
      </trkpt>
      <trkpt lat="42.94744" lon="1.06092">
        <ele>515</ele>
        <time>2025-09-20T11:12:55.000Z</time>
      </trkpt>
      <trkpt lat="42.94743" lon="1.06097">
        <ele>515</ele>
        <time>2025-09-20T11:12:56.000Z</time>
      </trkpt>
      <trkpt lat="42.94741" lon="1.06104">
        <ele>515</ele>
        <time>2025-09-20T11:12:57.000Z</time>
      </trkpt>
      <trkpt lat="42.9474" lon="1.0611">
        <ele>515</ele>
        <time>2025-09-20T11:12:58.000Z</time>
      </trkpt>
      <trkpt lat="42.9474" lon="1.06116">
        <ele>515</ele>
        <time>2025-09-20T11:12:59.000Z</time>
      </trkpt>
      <trkpt lat="42.94739" lon="1.06122">
        <ele>516</ele>
        <time>2025-09-20T11:13:00.000Z</time>
      </trkpt>
      <trkpt lat="42.94738" lon="1.06128">
        <ele>515</ele>
        <time>2025-09-20T11:13:01.000Z</time>
      </trkpt>
      <trkpt lat="42.94737" lon="1.06134">
        <ele>515</ele>
        <time>2025-09-20T11:13:02.000Z</time>
      </trkpt>
      <trkpt lat="42.94736" lon="1.0614">
        <ele>515</ele>
        <time>2025-09-20T11:13:03.000Z</time>
      </trkpt>
      <trkpt lat="42.94735" lon="1.06145">
        <ele>514</ele>
        <time>2025-09-20T11:13:04.000Z</time>
      </trkpt>
      <trkpt lat="42.94734" lon="1.06152">
        <ele>514</ele>
        <time>2025-09-20T11:13:05.000Z</time>
      </trkpt>
      <trkpt lat="42.94732" lon="1.06158">
        <ele>514</ele>
        <time>2025-09-20T11:13:06.000Z</time>
      </trkpt>
      <trkpt lat="42.94731" lon="1.06164">
        <ele>514</ele>
        <time>2025-09-20T11:13:07.000Z</time>
      </trkpt>
      <trkpt lat="42.94731" lon="1.06171">
        <ele>514</ele>
        <time>2025-09-20T11:13:08.000Z</time>
      </trkpt>
      <trkpt lat="42.94729" lon="1.06177">
        <ele>513</ele>
        <time>2025-09-20T11:13:09.000Z</time>
      </trkpt>
      <trkpt lat="42.94728" lon="1.06183">
        <ele>513</ele>
        <time>2025-09-20T11:13:10.000Z</time>
      </trkpt>
      <trkpt lat="42.94726" lon="1.0619">
        <ele>513</ele>
        <time>2025-09-20T11:13:11.000Z</time>
      </trkpt>
      <trkpt lat="42.94725" lon="1.06196">
        <ele>513</ele>
        <time>2025-09-20T11:13:12.000Z</time>
      </trkpt>
      <trkpt lat="42.94724" lon="1.06202">
        <ele>512</ele>
        <time>2025-09-20T11:13:13.000Z</time>
      </trkpt>
      <trkpt lat="42.94722" lon="1.06208">
        <ele>512</ele>
        <time>2025-09-20T11:13:14.000Z</time>
      </trkpt>
      <trkpt lat="42.94722" lon="1.06214">
        <ele>513</ele>
        <time>2025-09-20T11:13:15.000Z</time>
      </trkpt>
      <trkpt lat="42.94721" lon="1.0622">
        <ele>513</ele>
        <time>2025-09-20T11:13:16.000Z</time>
      </trkpt>
      <trkpt lat="42.94721" lon="1.06225">
        <ele>514</ele>
        <time>2025-09-20T11:13:17.000Z</time>
      </trkpt>
      <trkpt lat="42.94721" lon="1.0623">
        <ele>514</ele>
        <time>2025-09-20T11:13:18.000Z</time>
      </trkpt>
      <trkpt lat="42.94721" lon="1.06234">
        <ele>514</ele>
        <time>2025-09-20T11:13:19.000Z</time>
      </trkpt>
      <trkpt lat="42.94722" lon="1.06238">
        <ele>514</ele>
        <time>2025-09-20T11:13:20.000Z</time>
      </trkpt>
      <trkpt lat="42.94721" lon="1.06243">
        <ele>514</ele>
        <time>2025-09-20T11:13:21.000Z</time>
      </trkpt>
      <trkpt lat="42.9472" lon="1.06248">
        <ele>514</ele>
        <time>2025-09-20T11:13:22.000Z</time>
      </trkpt>
      <trkpt lat="42.94719" lon="1.06253">
        <ele>514</ele>
        <time>2025-09-20T11:13:23.000Z</time>
      </trkpt>
      <trkpt lat="42.94717" lon="1.06258">
        <ele>514</ele>
        <time>2025-09-20T11:13:24.000Z</time>
      </trkpt>
      <trkpt lat="42.94716" lon="1.06264">
        <ele>514</ele>
        <time>2025-09-20T11:13:25.000Z</time>
      </trkpt>
      <trkpt lat="42.94715" lon="1.06269">
        <ele>514</ele>
        <time>2025-09-20T11:13:26.000Z</time>
      </trkpt>
      <trkpt lat="42.94714" lon="1.06274">
        <ele>514</ele>
        <time>2025-09-20T11:13:27.000Z</time>
      </trkpt>
      <trkpt lat="42.94712" lon="1.0628">
        <ele>515</ele>
        <time>2025-09-20T11:13:28.000Z</time>
      </trkpt>
      <trkpt lat="42.9471" lon="1.06285">
        <ele>515</ele>
        <time>2025-09-20T11:13:29.000Z</time>
      </trkpt>
      <trkpt lat="42.94709" lon="1.06289">
        <ele>516</ele>
        <time>2025-09-20T11:13:30.000Z</time>
      </trkpt>
      <trkpt lat="42.94707" lon="1.06294">
        <ele>516</ele>
        <time>2025-09-20T11:13:31.000Z</time>
      </trkpt>
      <trkpt lat="42.94705" lon="1.06299">
        <ele>516</ele>
        <time>2025-09-20T11:13:32.000Z</time>
      </trkpt>
      <trkpt lat="42.94703" lon="1.06304">
        <ele>515</ele>
        <time>2025-09-20T11:13:33.000Z</time>
      </trkpt>
      <trkpt lat="42.94701" lon="1.0631">
        <ele>515</ele>
        <time>2025-09-20T11:13:34.000Z</time>
      </trkpt>
      <trkpt lat="42.94699" lon="1.06315">
        <ele>515</ele>
        <time>2025-09-20T11:13:35.000Z</time>
      </trkpt>
      <trkpt lat="42.94697" lon="1.06321">
        <ele>514</ele>
        <time>2025-09-20T11:13:36.000Z</time>
      </trkpt>
      <trkpt lat="42.94695" lon="1.06327">
        <ele>513</ele>
        <time>2025-09-20T11:13:37.000Z</time>
      </trkpt>
      <trkpt lat="42.94693" lon="1.06333">
        <ele>513</ele>
        <time>2025-09-20T11:13:38.000Z</time>
      </trkpt>
      <trkpt lat="42.94691" lon="1.0634">
        <ele>513</ele>
        <time>2025-09-20T11:13:39.000Z</time>
      </trkpt>
      <trkpt lat="42.94689" lon="1.06346">
        <ele>512</ele>
        <time>2025-09-20T11:13:40.000Z</time>
      </trkpt>
      <trkpt lat="42.94688" lon="1.06354">
        <ele>512</ele>
        <time>2025-09-20T11:13:41.000Z</time>
      </trkpt>
      <trkpt lat="42.94687" lon="1.06362">
        <ele>512</ele>
        <time>2025-09-20T11:13:42.000Z</time>
      </trkpt>
      <trkpt lat="42.94687" lon="1.06368">
        <ele>512</ele>
        <time>2025-09-20T11:13:43.000Z</time>
      </trkpt>
      <trkpt lat="42.94687" lon="1.06374">
        <ele>511</ele>
        <time>2025-09-20T11:13:44.000Z</time>
      </trkpt>
      <trkpt lat="42.94686" lon="1.06382">
        <ele>511</ele>
        <time>2025-09-20T11:13:45.000Z</time>
      </trkpt>
      <trkpt lat="42.94686" lon="1.06388">
        <ele>511</ele>
        <time>2025-09-20T11:13:46.000Z</time>
      </trkpt>
      <trkpt lat="42.94686" lon="1.06395">
        <ele>510</ele>
        <time>2025-09-20T11:13:47.000Z</time>
      </trkpt>
      <trkpt lat="42.94687" lon="1.06402">
        <ele>510</ele>
        <time>2025-09-20T11:13:48.000Z</time>
      </trkpt>
      <trkpt lat="42.94687" lon="1.06408">
        <ele>510</ele>
        <time>2025-09-20T11:13:49.000Z</time>
      </trkpt>
      <trkpt lat="42.94688" lon="1.06415">
        <ele>511</ele>
        <time>2025-09-20T11:13:50.000Z</time>
      </trkpt>
      <trkpt lat="42.94688" lon="1.06421">
        <ele>511</ele>
        <time>2025-09-20T11:13:51.000Z</time>
      </trkpt>
      <trkpt lat="42.9469" lon="1.06427">
        <ele>510</ele>
        <time>2025-09-20T11:13:52.000Z</time>
      </trkpt>
      <trkpt lat="42.94691" lon="1.06434">
        <ele>511</ele>
        <time>2025-09-20T11:13:53.000Z</time>
      </trkpt>
      <trkpt lat="42.94691" lon="1.06441">
        <ele>511</ele>
        <time>2025-09-20T11:13:54.000Z</time>
      </trkpt>
      <trkpt lat="42.94692" lon="1.06447">
        <ele>512</ele>
        <time>2025-09-20T11:13:55.000Z</time>
      </trkpt>
      <trkpt lat="42.94692" lon="1.06455">
        <ele>512</ele>
        <time>2025-09-20T11:13:56.000Z</time>
      </trkpt>
      <trkpt lat="42.94692" lon="1.06461">
        <ele>512</ele>
        <time>2025-09-20T11:13:57.000Z</time>
      </trkpt>
      <trkpt lat="42.94692" lon="1.06468">
        <ele>512</ele>
        <time>2025-09-20T11:13:58.000Z</time>
      </trkpt>
      <trkpt lat="42.94692" lon="1.06475">
        <ele>512</ele>
        <time>2025-09-20T11:13:59.000Z</time>
      </trkpt>
      <trkpt lat="42.94692" lon="1.06482">
        <ele>512</ele>
        <time>2025-09-20T11:14:00.000Z</time>
      </trkpt>
      <trkpt lat="42.94692" lon="1.06489">
        <ele>512</ele>
        <time>2025-09-20T11:14:01.000Z</time>
      </trkpt>
      <trkpt lat="42.94693" lon="1.06496">
        <ele>513</ele>
        <time>2025-09-20T11:14:02.000Z</time>
      </trkpt>
      <trkpt lat="42.94694" lon="1.06504">
        <ele>512</ele>
        <time>2025-09-20T11:14:03.000Z</time>
      </trkpt>
      <trkpt lat="42.94694" lon="1.0651">
        <ele>512</ele>
        <time>2025-09-20T11:14:04.000Z</time>
      </trkpt>
      <trkpt lat="42.94695" lon="1.06516">
        <ele>512</ele>
        <time>2025-09-20T11:14:05.000Z</time>
      </trkpt>
      <trkpt lat="42.94695" lon="1.06523">
        <ele>512</ele>
        <time>2025-09-20T11:14:06.000Z</time>
      </trkpt>
      <trkpt lat="42.94695" lon="1.06529">
        <ele>512</ele>
        <time>2025-09-20T11:14:07.000Z</time>
      </trkpt>
      <trkpt lat="42.94695" lon="1.06534">
        <ele>512</ele>
        <time>2025-09-20T11:14:08.000Z</time>
      </trkpt>
      <trkpt lat="42.94695" lon="1.06541">
        <ele>512</ele>
        <time>2025-09-20T11:14:09.000Z</time>
      </trkpt>
      <trkpt lat="42.94695" lon="1.06548">
        <ele>512</ele>
        <time>2025-09-20T11:14:10.000Z</time>
      </trkpt>
      <trkpt lat="42.94695" lon="1.06553">
        <ele>512</ele>
        <time>2025-09-20T11:14:11.000Z</time>
      </trkpt>
      <trkpt lat="42.94694" lon="1.06559">
        <ele>513</ele>
        <time>2025-09-20T11:14:12.000Z</time>
      </trkpt>
      <trkpt lat="42.94693" lon="1.06565">
        <ele>513</ele>
        <time>2025-09-20T11:14:13.000Z</time>
      </trkpt>
      <trkpt lat="42.94692" lon="1.0657">
        <ele>513</ele>
        <time>2025-09-20T11:14:14.000Z</time>
      </trkpt>
      <trkpt lat="42.94692" lon="1.06576">
        <ele>513</ele>
        <time>2025-09-20T11:14:15.000Z</time>
      </trkpt>
      <trkpt lat="42.94692" lon="1.06582">
        <ele>513</ele>
        <time>2025-09-20T11:14:16.000Z</time>
      </trkpt>
      <trkpt lat="42.94692" lon="1.06588">
        <ele>514</ele>
        <time>2025-09-20T11:14:17.000Z</time>
      </trkpt>
      <trkpt lat="42.94691" lon="1.06593">
        <ele>514</ele>
        <time>2025-09-20T11:14:18.000Z</time>
      </trkpt>
      <trkpt lat="42.94688" lon="1.06597">
        <ele>513</ele>
        <time>2025-09-20T11:14:19.000Z</time>
      </trkpt>
      <trkpt lat="42.94684" lon="1.06599">
        <ele>513</ele>
        <time>2025-09-20T11:14:20.000Z</time>
      </trkpt>
      <trkpt lat="42.9468" lon="1.066">
        <ele>513</ele>
        <time>2025-09-20T11:14:21.000Z</time>
      </trkpt>
      <trkpt lat="42.94675" lon="1.06601">
        <ele>512</ele>
        <time>2025-09-20T11:14:22.000Z</time>
      </trkpt>
      <trkpt lat="42.94671" lon="1.06602">
        <ele>512</ele>
        <time>2025-09-20T11:14:23.000Z</time>
      </trkpt>
      <trkpt lat="42.94667" lon="1.06603">
        <ele>512</ele>
        <time>2025-09-20T11:14:24.000Z</time>
      </trkpt>
      <trkpt lat="42.94662" lon="1.06606">
        <ele>512</ele>
        <time>2025-09-20T11:14:25.000Z</time>
      </trkpt>
      <trkpt lat="42.94658" lon="1.06608">
        <ele>512</ele>
        <time>2025-09-20T11:14:26.000Z</time>
      </trkpt>
      <trkpt lat="42.94654" lon="1.06609">
        <ele>512</ele>
        <time>2025-09-20T11:14:27.000Z</time>
      </trkpt>
      <trkpt lat="42.9465" lon="1.0661">
        <ele>512</ele>
        <time>2025-09-20T11:14:28.000Z</time>
      </trkpt>
      <trkpt lat="42.94647" lon="1.06611">
        <ele>512</ele>
        <time>2025-09-20T11:14:29.000Z</time>
      </trkpt>
      <trkpt lat="42.94643" lon="1.06613">
        <ele>512</ele>
        <time>2025-09-20T11:14:30.000Z</time>
      </trkpt>
      <trkpt lat="42.94639" lon="1.06615">
        <ele>512</ele>
        <time>2025-09-20T11:14:31.000Z</time>
      </trkpt>
      <trkpt lat="42.94635" lon="1.06617">
        <ele>511</ele>
        <time>2025-09-20T11:14:32.000Z</time>
      </trkpt>
      <trkpt lat="42.94632" lon="1.06618">
        <ele>511</ele>
        <time>2025-09-20T11:14:33.000Z</time>
      </trkpt>
      <trkpt lat="42.94629" lon="1.06622">
        <ele>509</ele>
        <time>2025-09-20T11:14:34.000Z</time>
      </trkpt>
      <trkpt lat="42.94627" lon="1.06627">
        <ele>509</ele>
        <time>2025-09-20T11:14:35.000Z</time>
      </trkpt>
      <trkpt lat="42.94627" lon="1.06633">
        <ele>510</ele>
        <time>2025-09-20T11:14:36.000Z</time>
      </trkpt>
      <trkpt lat="42.94627" lon="1.0664">
        <ele>510</ele>
        <time>2025-09-20T11:14:37.000Z</time>
      </trkpt>
      <trkpt lat="42.94627" lon="1.06646">
        <ele>510</ele>
        <time>2025-09-20T11:14:38.000Z</time>
      </trkpt>
      <trkpt lat="42.94627" lon="1.06652">
        <ele>511</ele>
        <time>2025-09-20T11:14:39.000Z</time>
      </trkpt>
      <trkpt lat="42.94627" lon="1.06659">
        <ele>511</ele>
        <time>2025-09-20T11:14:40.000Z</time>
      </trkpt>
      <trkpt lat="42.94627" lon="1.06666">
        <ele>511</ele>
        <time>2025-09-20T11:14:41.000Z</time>
      </trkpt>
      <trkpt lat="42.94627" lon="1.06673">
        <ele>511</ele>
        <time>2025-09-20T11:14:42.000Z</time>
      </trkpt>
      <trkpt lat="42.94628" lon="1.0668">
        <ele>512</ele>
        <time>2025-09-20T11:14:43.000Z</time>
      </trkpt>
      <trkpt lat="42.94628" lon="1.06687">
        <ele>512</ele>
        <time>2025-09-20T11:14:44.000Z</time>
      </trkpt>
      <trkpt lat="42.94628" lon="1.06695">
        <ele>512</ele>
        <time>2025-09-20T11:14:45.000Z</time>
      </trkpt>
      <trkpt lat="42.94629" lon="1.06701">
        <ele>512</ele>
        <time>2025-09-20T11:14:46.000Z</time>
      </trkpt>
      <trkpt lat="42.94629" lon="1.06709">
        <ele>512</ele>
        <time>2025-09-20T11:14:47.000Z</time>
      </trkpt>
      <trkpt lat="42.94629" lon="1.06716">
        <ele>512</ele>
        <time>2025-09-20T11:14:48.000Z</time>
      </trkpt>
      <trkpt lat="42.9463" lon="1.06723">
        <ele>512</ele>
        <time>2025-09-20T11:14:49.000Z</time>
      </trkpt>
      <trkpt lat="42.9463" lon="1.0673">
        <ele>512</ele>
        <time>2025-09-20T11:14:50.000Z</time>
      </trkpt>
      <trkpt lat="42.94631" lon="1.06737">
        <ele>512</ele>
        <time>2025-09-20T11:14:51.000Z</time>
      </trkpt>
      <trkpt lat="42.94632" lon="1.06744">
        <ele>512</ele>
        <time>2025-09-20T11:14:52.000Z</time>
      </trkpt>
      <trkpt lat="42.94633" lon="1.06751">
        <ele>512</ele>
        <time>2025-09-20T11:14:53.000Z</time>
      </trkpt>
      <trkpt lat="42.94634" lon="1.06758">
        <ele>513</ele>
        <time>2025-09-20T11:14:54.000Z</time>
      </trkpt>
      <trkpt lat="42.94635" lon="1.06764">
        <ele>512</ele>
        <time>2025-09-20T11:14:55.000Z</time>
      </trkpt>
      <trkpt lat="42.94637" lon="1.0677">
        <ele>512</ele>
        <time>2025-09-20T11:14:56.000Z</time>
      </trkpt>
      <trkpt lat="42.94638" lon="1.06777">
        <ele>512</ele>
        <time>2025-09-20T11:14:57.000Z</time>
      </trkpt>
      <trkpt lat="42.9464" lon="1.06785">
        <ele>512</ele>
        <time>2025-09-20T11:14:58.000Z</time>
      </trkpt>
      <trkpt lat="42.94642" lon="1.06793">
        <ele>512</ele>
        <time>2025-09-20T11:14:59.000Z</time>
      </trkpt>
      <trkpt lat="42.94645" lon="1.068">
        <ele>512</ele>
        <time>2025-09-20T11:15:00.000Z</time>
      </trkpt>
      <trkpt lat="42.94648" lon="1.06808">
        <ele>512</ele>
        <time>2025-09-20T11:15:01.000Z</time>
      </trkpt>
      <trkpt lat="42.94651" lon="1.06814">
        <ele>511</ele>
        <time>2025-09-20T11:15:02.000Z</time>
      </trkpt>
      <trkpt lat="42.94654" lon="1.06821">
        <ele>512</ele>
        <time>2025-09-20T11:15:03.000Z</time>
      </trkpt>
      <trkpt lat="42.94658" lon="1.06828">
        <ele>511</ele>
        <time>2025-09-20T11:15:04.000Z</time>
      </trkpt>
      <trkpt lat="42.94661" lon="1.06835">
        <ele>511</ele>
        <time>2025-09-20T11:15:05.000Z</time>
      </trkpt>
      <trkpt lat="42.94664" lon="1.06844">
        <ele>511</ele>
        <time>2025-09-20T11:15:06.000Z</time>
      </trkpt>
      <trkpt lat="42.94666" lon="1.06852">
        <ele>511</ele>
        <time>2025-09-20T11:15:07.000Z</time>
      </trkpt>
      <trkpt lat="42.94668" lon="1.0686">
        <ele>511</ele>
        <time>2025-09-20T11:15:08.000Z</time>
      </trkpt>
      <trkpt lat="42.9467" lon="1.06867">
        <ele>511</ele>
        <time>2025-09-20T11:15:09.000Z</time>
      </trkpt>
      <trkpt lat="42.94671" lon="1.06875">
        <ele>511</ele>
        <time>2025-09-20T11:15:10.000Z</time>
      </trkpt>
      <trkpt lat="42.94672" lon="1.06883">
        <ele>511</ele>
        <time>2025-09-20T11:15:11.000Z</time>
      </trkpt>
      <trkpt lat="42.94673" lon="1.06891">
        <ele>511</ele>
        <time>2025-09-20T11:15:12.000Z</time>
      </trkpt>
      <trkpt lat="42.94675" lon="1.06898">
        <ele>511</ele>
        <time>2025-09-20T11:15:13.000Z</time>
      </trkpt>
      <trkpt lat="42.94676" lon="1.06906">
        <ele>510</ele>
        <time>2025-09-20T11:15:14.000Z</time>
      </trkpt>
      <trkpt lat="42.94677" lon="1.06914">
        <ele>510</ele>
        <time>2025-09-20T11:15:15.000Z</time>
      </trkpt>
      <trkpt lat="42.94678" lon="1.06922">
        <ele>510</ele>
        <time>2025-09-20T11:15:16.000Z</time>
      </trkpt>
      <trkpt lat="42.94679" lon="1.0693">
        <ele>511</ele>
        <time>2025-09-20T11:15:17.000Z</time>
      </trkpt>
      <trkpt lat="42.94679" lon="1.06939">
        <ele>510</ele>
        <time>2025-09-20T11:15:18.000Z</time>
      </trkpt>
      <trkpt lat="42.9468" lon="1.06947">
        <ele>511</ele>
        <time>2025-09-20T11:15:19.000Z</time>
      </trkpt>
      <trkpt lat="42.9468" lon="1.06955">
        <ele>511</ele>
        <time>2025-09-20T11:15:20.000Z</time>
      </trkpt>
      <trkpt lat="42.94681" lon="1.06963">
        <ele>511</ele>
        <time>2025-09-20T11:15:21.000Z</time>
      </trkpt>
      <trkpt lat="42.94681" lon="1.06971">
        <ele>511</ele>
        <time>2025-09-20T11:15:22.000Z</time>
      </trkpt>
      <trkpt lat="42.94682" lon="1.06979">
        <ele>510</ele>
        <time>2025-09-20T11:15:23.000Z</time>
      </trkpt>
      <trkpt lat="42.94682" lon="1.06987">
        <ele>510</ele>
        <time>2025-09-20T11:15:24.000Z</time>
      </trkpt>
      <trkpt lat="42.94682" lon="1.06995">
        <ele>510</ele>
        <time>2025-09-20T11:15:25.000Z</time>
      </trkpt>
      <trkpt lat="42.94683" lon="1.07002">
        <ele>510</ele>
        <time>2025-09-20T11:15:26.000Z</time>
      </trkpt>
      <trkpt lat="42.94684" lon="1.0701">
        <ele>511</ele>
        <time>2025-09-20T11:15:27.000Z</time>
      </trkpt>
      <trkpt lat="42.94685" lon="1.07017">
        <ele>511</ele>
        <time>2025-09-20T11:15:28.000Z</time>
      </trkpt>
      <trkpt lat="42.94686" lon="1.07025">
        <ele>510</ele>
        <time>2025-09-20T11:15:29.000Z</time>
      </trkpt>
      <trkpt lat="42.94687" lon="1.07033">
        <ele>510</ele>
        <time>2025-09-20T11:15:30.000Z</time>
      </trkpt>
      <trkpt lat="42.94688" lon="1.0704">
        <ele>510</ele>
        <time>2025-09-20T11:15:31.000Z</time>
      </trkpt>
      <trkpt lat="42.9469" lon="1.07048">
        <ele>511</ele>
        <time>2025-09-20T11:15:32.000Z</time>
      </trkpt>
      <trkpt lat="42.94691" lon="1.07055">
        <ele>511</ele>
        <time>2025-09-20T11:15:33.000Z</time>
      </trkpt>
      <trkpt lat="42.94692" lon="1.07063">
        <ele>511</ele>
        <time>2025-09-20T11:15:34.000Z</time>
      </trkpt>
      <trkpt lat="42.94693" lon="1.0707">
        <ele>511</ele>
        <time>2025-09-20T11:15:35.000Z</time>
      </trkpt>
      <trkpt lat="42.94694" lon="1.07076">
        <ele>511</ele>
        <time>2025-09-20T11:15:36.000Z</time>
      </trkpt>
      <trkpt lat="42.94695" lon="1.07084">
        <ele>511</ele>
        <time>2025-09-20T11:15:37.000Z</time>
      </trkpt>
      <trkpt lat="42.94696" lon="1.07091">
        <ele>511</ele>
        <time>2025-09-20T11:15:38.000Z</time>
      </trkpt>
      <trkpt lat="42.94697" lon="1.07099">
        <ele>511</ele>
        <time>2025-09-20T11:15:39.000Z</time>
      </trkpt>
      <trkpt lat="42.94698" lon="1.07106">
        <ele>511</ele>
        <time>2025-09-20T11:15:40.000Z</time>
      </trkpt>
      <trkpt lat="42.94699" lon="1.07114">
        <ele>511</ele>
        <time>2025-09-20T11:15:41.000Z</time>
      </trkpt>
      <trkpt lat="42.94701" lon="1.0712">
        <ele>511</ele>
        <time>2025-09-20T11:15:42.000Z</time>
      </trkpt>
      <trkpt lat="42.94702" lon="1.07127">
        <ele>511</ele>
        <time>2025-09-20T11:15:43.000Z</time>
      </trkpt>
      <trkpt lat="42.94703" lon="1.07134">
        <ele>511</ele>
        <time>2025-09-20T11:15:44.000Z</time>
      </trkpt>
      <trkpt lat="42.94704" lon="1.07142">
        <ele>511</ele>
        <time>2025-09-20T11:15:45.000Z</time>
      </trkpt>
      <trkpt lat="42.94705" lon="1.07149">
        <ele>511</ele>
        <time>2025-09-20T11:15:46.000Z</time>
      </trkpt>
      <trkpt lat="42.94706" lon="1.07156">
        <ele>511</ele>
        <time>2025-09-20T11:15:47.000Z</time>
      </trkpt>
      <trkpt lat="42.94708" lon="1.07165">
        <ele>511</ele>
        <time>2025-09-20T11:15:48.000Z</time>
      </trkpt>
      <trkpt lat="42.94709" lon="1.07173">
        <ele>511</ele>
        <time>2025-09-20T11:15:49.000Z</time>
      </trkpt>
      <trkpt lat="42.9471" lon="1.07182">
        <ele>511</ele>
        <time>2025-09-20T11:15:50.000Z</time>
      </trkpt>
      <trkpt lat="42.94712" lon="1.07191">
        <ele>511</ele>
        <time>2025-09-20T11:15:51.000Z</time>
      </trkpt>
      <trkpt lat="42.94713" lon="1.072">
        <ele>511</ele>
        <time>2025-09-20T11:15:52.000Z</time>
      </trkpt>
      <trkpt lat="42.94715" lon="1.07209">
        <ele>510</ele>
        <time>2025-09-20T11:15:53.000Z</time>
      </trkpt>
      <trkpt lat="42.94716" lon="1.07219">
        <ele>511</ele>
        <time>2025-09-20T11:15:54.000Z</time>
      </trkpt>
      <trkpt lat="42.94717" lon="1.07226">
        <ele>511</ele>
        <time>2025-09-20T11:15:55.000Z</time>
      </trkpt>
      <trkpt lat="42.94718" lon="1.07234">
        <ele>511</ele>
        <time>2025-09-20T11:15:56.000Z</time>
      </trkpt>
      <trkpt lat="42.94719" lon="1.07242">
        <ele>511</ele>
        <time>2025-09-20T11:15:57.000Z</time>
      </trkpt>
      <trkpt lat="42.94721" lon="1.07248">
        <ele>511</ele>
        <time>2025-09-20T11:15:58.000Z</time>
      </trkpt>
      <trkpt lat="42.94722" lon="1.07255">
        <ele>511</ele>
        <time>2025-09-20T11:15:59.000Z</time>
      </trkpt>
      <trkpt lat="42.94724" lon="1.07262">
        <ele>511</ele>
        <time>2025-09-20T11:16:00.000Z</time>
      </trkpt>
      <trkpt lat="42.94725" lon="1.07268">
        <ele>511</ele>
        <time>2025-09-20T11:16:01.000Z</time>
      </trkpt>
      <trkpt lat="42.94726" lon="1.07274">
        <ele>511</ele>
        <time>2025-09-20T11:16:02.000Z</time>
      </trkpt>
      <trkpt lat="42.94727" lon="1.0728">
        <ele>511</ele>
        <time>2025-09-20T11:16:03.000Z</time>
      </trkpt>
      <trkpt lat="42.94728" lon="1.07286">
        <ele>511</ele>
        <time>2025-09-20T11:16:04.000Z</time>
      </trkpt>
      <trkpt lat="42.94729" lon="1.07292">
        <ele>511</ele>
        <time>2025-09-20T11:16:05.000Z</time>
      </trkpt>
      <trkpt lat="42.94731" lon="1.07299">
        <ele>511</ele>
        <time>2025-09-20T11:16:06.000Z</time>
      </trkpt>
      <trkpt lat="42.94732" lon="1.07304">
        <ele>511</ele>
        <time>2025-09-20T11:16:07.000Z</time>
      </trkpt>
      <trkpt lat="42.94733" lon="1.0731">
        <ele>511</ele>
        <time>2025-09-20T11:16:08.000Z</time>
      </trkpt>
      <trkpt lat="42.94734" lon="1.07316">
        <ele>510</ele>
        <time>2025-09-20T11:16:09.000Z</time>
      </trkpt>
      <trkpt lat="42.94736" lon="1.07321">
        <ele>509</ele>
        <time>2025-09-20T11:16:10.000Z</time>
      </trkpt>
      <trkpt lat="42.94738" lon="1.07329">
        <ele>509</ele>
        <time>2025-09-20T11:16:11.000Z</time>
      </trkpt>
      <trkpt lat="42.94741" lon="1.07335">
        <ele>508</ele>
        <time>2025-09-20T11:16:12.000Z</time>
      </trkpt>
      <trkpt lat="42.94744" lon="1.07343">
        <ele>508</ele>
        <time>2025-09-20T11:16:13.000Z</time>
      </trkpt>
      <trkpt lat="42.94747" lon="1.07349">
        <ele>509</ele>
        <time>2025-09-20T11:16:14.000Z</time>
      </trkpt>
      <trkpt lat="42.9475" lon="1.07356">
        <ele>509</ele>
        <time>2025-09-20T11:16:15.000Z</time>
      </trkpt>
      <trkpt lat="42.94753" lon="1.07362">
        <ele>509</ele>
        <time>2025-09-20T11:16:16.000Z</time>
      </trkpt>
      <trkpt lat="42.94756" lon="1.07369">
        <ele>510</ele>
        <time>2025-09-20T11:16:17.000Z</time>
      </trkpt>
      <trkpt lat="42.94759" lon="1.07375">
        <ele>510</ele>
        <time>2025-09-20T11:16:18.000Z</time>
      </trkpt>
      <trkpt lat="42.94762" lon="1.07381">
        <ele>510</ele>
        <time>2025-09-20T11:16:19.000Z</time>
      </trkpt>
      <trkpt lat="42.94764" lon="1.07387">
        <ele>510</ele>
        <time>2025-09-20T11:16:20.000Z</time>
      </trkpt>
      <trkpt lat="42.94767" lon="1.07394">
        <ele>510</ele>
        <time>2025-09-20T11:16:21.000Z</time>
      </trkpt>
      <trkpt lat="42.9477" lon="1.074">
        <ele>510</ele>
        <time>2025-09-20T11:16:22.000Z</time>
      </trkpt>
      <trkpt lat="42.94773" lon="1.07406">
        <ele>510</ele>
        <time>2025-09-20T11:16:23.000Z</time>
      </trkpt>
      <trkpt lat="42.94777" lon="1.07412">
        <ele>511</ele>
        <time>2025-09-20T11:16:24.000Z</time>
      </trkpt>
      <trkpt lat="42.94781" lon="1.07417">
        <ele>511</ele>
        <time>2025-09-20T11:16:25.000Z</time>
      </trkpt>
      <trkpt lat="42.94786" lon="1.07423">
        <ele>510</ele>
        <time>2025-09-20T11:16:26.000Z</time>
      </trkpt>
      <trkpt lat="42.9479" lon="1.07428">
        <ele>510</ele>
        <time>2025-09-20T11:16:27.000Z</time>
      </trkpt>
      <trkpt lat="42.94794" lon="1.07434">
        <ele>509</ele>
        <time>2025-09-20T11:16:28.000Z</time>
      </trkpt>
      <trkpt lat="42.94799" lon="1.0744">
        <ele>508</ele>
        <time>2025-09-20T11:16:29.000Z</time>
      </trkpt>
      <trkpt lat="42.94803" lon="1.07445">
        <ele>507</ele>
        <time>2025-09-20T11:16:30.000Z</time>
      </trkpt>
      <trkpt lat="42.94808" lon="1.07449">
        <ele>507</ele>
        <time>2025-09-20T11:16:31.000Z</time>
      </trkpt>
      <trkpt lat="42.94813" lon="1.07452">
        <ele>506</ele>
        <time>2025-09-20T11:16:32.000Z</time>
      </trkpt>
      <trkpt lat="42.94819" lon="1.07454">
        <ele>505</ele>
        <time>2025-09-20T11:16:33.000Z</time>
      </trkpt>
      <trkpt lat="42.94826" lon="1.07456">
        <ele>504</ele>
        <time>2025-09-20T11:16:34.000Z</time>
      </trkpt>
      <trkpt lat="42.94832" lon="1.07459">
        <ele>502</ele>
        <time>2025-09-20T11:16:35.000Z</time>
      </trkpt>
      <trkpt lat="42.94838" lon="1.07464">
        <ele>501</ele>
        <time>2025-09-20T11:16:36.000Z</time>
      </trkpt>
      <trkpt lat="42.94844" lon="1.0747">
        <ele>500</ele>
        <time>2025-09-20T11:16:37.000Z</time>
      </trkpt>
      <trkpt lat="42.94848" lon="1.07477">
        <ele>500</ele>
        <time>2025-09-20T11:16:38.000Z</time>
      </trkpt>
      <trkpt lat="42.94851" lon="1.07483">
        <ele>502</ele>
        <time>2025-09-20T11:16:39.000Z</time>
      </trkpt>
      <trkpt lat="42.94853" lon="1.07489">
        <ele>503</ele>
        <time>2025-09-20T11:16:40.000Z</time>
      </trkpt>
      <trkpt lat="42.94856" lon="1.07494">
        <ele>503</ele>
        <time>2025-09-20T11:16:41.000Z</time>
      </trkpt>
      <trkpt lat="42.94859" lon="1.075">
        <ele>503</ele>
        <time>2025-09-20T11:16:42.000Z</time>
      </trkpt>
      <trkpt lat="42.94862" lon="1.07506">
        <ele>504</ele>
        <time>2025-09-20T11:16:43.000Z</time>
      </trkpt>
      <trkpt lat="42.94866" lon="1.07513">
        <ele>504</ele>
        <time>2025-09-20T11:16:44.000Z</time>
      </trkpt>
      <trkpt lat="42.94869" lon="1.07519">
        <ele>505</ele>
        <time>2025-09-20T11:16:45.000Z</time>
      </trkpt>
      <trkpt lat="42.94872" lon="1.07526">
        <ele>505</ele>
        <time>2025-09-20T11:16:46.000Z</time>
      </trkpt>
      <trkpt lat="42.94874" lon="1.07534">
        <ele>504</ele>
        <time>2025-09-20T11:16:47.000Z</time>
      </trkpt>
      <trkpt lat="42.94878" lon="1.0754">
        <ele>504</ele>
        <time>2025-09-20T11:16:48.000Z</time>
      </trkpt>
      <trkpt lat="42.94881" lon="1.07546">
        <ele>504</ele>
        <time>2025-09-20T11:16:49.000Z</time>
      </trkpt>
      <trkpt lat="42.94884" lon="1.07553">
        <ele>504</ele>
        <time>2025-09-20T11:16:50.000Z</time>
      </trkpt>
      <trkpt lat="42.94887" lon="1.07561">
        <ele>503</ele>
        <time>2025-09-20T11:16:51.000Z</time>
      </trkpt>
      <trkpt lat="42.94891" lon="1.0757">
        <ele>503</ele>
        <time>2025-09-20T11:16:52.000Z</time>
      </trkpt>
      <trkpt lat="42.94894" lon="1.07577">
        <ele>503</ele>
        <time>2025-09-20T11:16:53.000Z</time>
      </trkpt>
      <trkpt lat="42.94897" lon="1.07585">
        <ele>503</ele>
        <time>2025-09-20T11:16:54.000Z</time>
      </trkpt>
      <trkpt lat="42.949" lon="1.07592">
        <ele>503</ele>
        <time>2025-09-20T11:16:55.000Z</time>
      </trkpt>
      <trkpt lat="42.94904" lon="1.07599">
        <ele>503</ele>
        <time>2025-09-20T11:16:56.000Z</time>
      </trkpt>
      <trkpt lat="42.94908" lon="1.07605">
        <ele>503</ele>
        <time>2025-09-20T11:16:57.000Z</time>
      </trkpt>
      <trkpt lat="42.94912" lon="1.07612">
        <ele>503</ele>
        <time>2025-09-20T11:16:58.000Z</time>
      </trkpt>
      <trkpt lat="42.94915" lon="1.07617">
        <ele>503</ele>
        <time>2025-09-20T11:16:59.000Z</time>
      </trkpt>
      <trkpt lat="42.9492" lon="1.07621">
        <ele>503</ele>
        <time>2025-09-20T11:17:00.000Z</time>
      </trkpt>
      <trkpt lat="42.94925" lon="1.07626">
        <ele>503</ele>
        <time>2025-09-20T11:17:01.000Z</time>
      </trkpt>
      <trkpt lat="42.94929" lon="1.07632">
        <ele>502</ele>
        <time>2025-09-20T11:17:02.000Z</time>
      </trkpt>
      <trkpt lat="42.94934" lon="1.07637">
        <ele>502</ele>
        <time>2025-09-20T11:17:03.000Z</time>
      </trkpt>
      <trkpt lat="42.94937" lon="1.07642">
        <ele>502</ele>
        <time>2025-09-20T11:17:04.000Z</time>
      </trkpt>
      <trkpt lat="42.9494" lon="1.07647">
        <ele>502</ele>
        <time>2025-09-20T11:17:05.000Z</time>
      </trkpt>
      <trkpt lat="42.94944" lon="1.07653">
        <ele>502</ele>
        <time>2025-09-20T11:17:06.000Z</time>
      </trkpt>
      <trkpt lat="42.94948" lon="1.07659">
        <ele>502</ele>
        <time>2025-09-20T11:17:07.000Z</time>
      </trkpt>
      <trkpt lat="42.94951" lon="1.07664">
        <ele>502</ele>
        <time>2025-09-20T11:17:08.000Z</time>
      </trkpt>
      <trkpt lat="42.94955" lon="1.0767">
        <ele>501</ele>
        <time>2025-09-20T11:17:09.000Z</time>
      </trkpt>
      <trkpt lat="42.94958" lon="1.07677">
        <ele>501</ele>
        <time>2025-09-20T11:17:10.000Z</time>
      </trkpt>
      <trkpt lat="42.94961" lon="1.07685">
        <ele>501</ele>
        <time>2025-09-20T11:17:11.000Z</time>
      </trkpt>
      <trkpt lat="42.94962" lon="1.07693">
        <ele>501</ele>
        <time>2025-09-20T11:17:12.000Z</time>
      </trkpt>
      <trkpt lat="42.94962" lon="1.07702">
        <ele>501</ele>
        <time>2025-09-20T11:17:13.000Z</time>
      </trkpt>
      <trkpt lat="42.94963" lon="1.07711">
        <ele>501</ele>
        <time>2025-09-20T11:17:14.000Z</time>
      </trkpt>
      <trkpt lat="42.94963" lon="1.07719">
        <ele>501</ele>
        <time>2025-09-20T11:17:15.000Z</time>
      </trkpt>
      <trkpt lat="42.94964" lon="1.07728">
        <ele>501</ele>
        <time>2025-09-20T11:17:16.000Z</time>
      </trkpt>
      <trkpt lat="42.94964" lon="1.07736">
        <ele>501</ele>
        <time>2025-09-20T11:17:17.000Z</time>
      </trkpt>
      <trkpt lat="42.94964" lon="1.07744">
        <ele>501</ele>
        <time>2025-09-20T11:17:18.000Z</time>
      </trkpt>
      <trkpt lat="42.94965" lon="1.07752">
        <ele>500</ele>
        <time>2025-09-20T11:17:19.000Z</time>
      </trkpt>
      <trkpt lat="42.94966" lon="1.0776">
        <ele>500</ele>
        <time>2025-09-20T11:17:20.000Z</time>
      </trkpt>
      <trkpt lat="42.94968" lon="1.07768">
        <ele>500</ele>
        <time>2025-09-20T11:17:21.000Z</time>
      </trkpt>
      <trkpt lat="42.94969" lon="1.07776">
        <ele>501</ele>
        <time>2025-09-20T11:17:22.000Z</time>
      </trkpt>
      <trkpt lat="42.94969" lon="1.07784">
        <ele>501</ele>
        <time>2025-09-20T11:17:23.000Z</time>
      </trkpt>
      <trkpt lat="42.9497" lon="1.07791">
        <ele>501</ele>
        <time>2025-09-20T11:17:24.000Z</time>
      </trkpt>
      <trkpt lat="42.94971" lon="1.07798">
        <ele>501</ele>
        <time>2025-09-20T11:17:25.000Z</time>
      </trkpt>
      <trkpt lat="42.94973" lon="1.07805">
        <ele>501</ele>
        <time>2025-09-20T11:17:26.000Z</time>
      </trkpt>
      <trkpt lat="42.94974" lon="1.07812">
        <ele>501</ele>
        <time>2025-09-20T11:17:27.000Z</time>
      </trkpt>
      <trkpt lat="42.94976" lon="1.07819">
        <ele>501</ele>
        <time>2025-09-20T11:17:28.000Z</time>
      </trkpt>
      <trkpt lat="42.94978" lon="1.07826">
        <ele>501</ele>
        <time>2025-09-20T11:17:29.000Z</time>
      </trkpt>
      <trkpt lat="42.94979" lon="1.07833">
        <ele>500</ele>
        <time>2025-09-20T11:17:30.000Z</time>
      </trkpt>
      <trkpt lat="42.9498" lon="1.07839">
        <ele>500</ele>
        <time>2025-09-20T11:17:31.000Z</time>
      </trkpt>
      <trkpt lat="42.94983" lon="1.07845">
        <ele>500</ele>
        <time>2025-09-20T11:17:32.000Z</time>
      </trkpt>
      <trkpt lat="42.94985" lon="1.07851">
        <ele>500</ele>
        <time>2025-09-20T11:17:33.000Z</time>
      </trkpt>
      <trkpt lat="42.94988" lon="1.07857">
        <ele>500</ele>
        <time>2025-09-20T11:17:34.000Z</time>
      </trkpt>
      <trkpt lat="42.94991" lon="1.07863">
        <ele>500</ele>
        <time>2025-09-20T11:17:35.000Z</time>
      </trkpt>
      <trkpt lat="42.94994" lon="1.07869">
        <ele>500</ele>
        <time>2025-09-20T11:17:36.000Z</time>
      </trkpt>
      <trkpt lat="42.94997" lon="1.07875">
        <ele>500</ele>
        <time>2025-09-20T11:17:37.000Z</time>
      </trkpt>
      <trkpt lat="42.95001" lon="1.07881">
        <ele>499</ele>
        <time>2025-09-20T11:17:38.000Z</time>
      </trkpt>
      <trkpt lat="42.95005" lon="1.07885">
        <ele>499</ele>
        <time>2025-09-20T11:17:39.000Z</time>
      </trkpt>
      <trkpt lat="42.95009" lon="1.07891">
        <ele>498</ele>
        <time>2025-09-20T11:17:40.000Z</time>
      </trkpt>
      <trkpt lat="42.95014" lon="1.07897">
        <ele>498</ele>
        <time>2025-09-20T11:17:41.000Z</time>
      </trkpt>
      <trkpt lat="42.95018" lon="1.07902">
        <ele>498</ele>
        <time>2025-09-20T11:17:42.000Z</time>
      </trkpt>
      <trkpt lat="42.95022" lon="1.07908">
        <ele>498</ele>
        <time>2025-09-20T11:17:43.000Z</time>
      </trkpt>
      <trkpt lat="42.95025" lon="1.07914">
        <ele>498</ele>
        <time>2025-09-20T11:17:44.000Z</time>
      </trkpt>
      <trkpt lat="42.95029" lon="1.07919">
        <ele>498</ele>
        <time>2025-09-20T11:17:45.000Z</time>
      </trkpt>
      <trkpt lat="42.95034" lon="1.07923">
        <ele>497</ele>
        <time>2025-09-20T11:17:46.000Z</time>
      </trkpt>
      <trkpt lat="42.95039" lon="1.07927">
        <ele>498</ele>
        <time>2025-09-20T11:17:47.000Z</time>
      </trkpt>
      <trkpt lat="42.95044" lon="1.07931">
        <ele>497</ele>
        <time>2025-09-20T11:17:48.000Z</time>
      </trkpt>
      <trkpt lat="42.9505" lon="1.07935">
        <ele>497</ele>
        <time>2025-09-20T11:17:49.000Z</time>
      </trkpt>
      <trkpt lat="42.95055" lon="1.0794">
        <ele>496</ele>
        <time>2025-09-20T11:17:50.000Z</time>
      </trkpt>
      <trkpt lat="42.95061" lon="1.07945">
        <ele>496</ele>
        <time>2025-09-20T11:17:51.000Z</time>
      </trkpt>
      <trkpt lat="42.95066" lon="1.07951">
        <ele>495</ele>
        <time>2025-09-20T11:17:52.000Z</time>
      </trkpt>
      <trkpt lat="42.95071" lon="1.07956">
        <ele>495</ele>
        <time>2025-09-20T11:17:53.000Z</time>
      </trkpt>
      <trkpt lat="42.95075" lon="1.07961">
        <ele>496</ele>
        <time>2025-09-20T11:17:54.000Z</time>
      </trkpt>
      <trkpt lat="42.95079" lon="1.07966">
        <ele>495</ele>
        <time>2025-09-20T11:17:55.000Z</time>
      </trkpt>
      <trkpt lat="42.95084" lon="1.07971">
        <ele>496</ele>
        <time>2025-09-20T11:17:56.000Z</time>
      </trkpt>
      <trkpt lat="42.95088" lon="1.07976">
        <ele>496</ele>
        <time>2025-09-20T11:17:57.000Z</time>
      </trkpt>
      <trkpt lat="42.95092" lon="1.07982">
        <ele>496</ele>
        <time>2025-09-20T11:17:58.000Z</time>
      </trkpt>
      <trkpt lat="42.95095" lon="1.07988">
        <ele>496</ele>
        <time>2025-09-20T11:17:59.000Z</time>
      </trkpt>
      <trkpt lat="42.95098" lon="1.07994">
        <ele>497</ele>
        <time>2025-09-20T11:18:00.000Z</time>
      </trkpt>
      <trkpt lat="42.95102" lon="1.08">
        <ele>496</ele>
        <time>2025-09-20T11:18:01.000Z</time>
      </trkpt>
      <trkpt lat="42.95105" lon="1.08005">
        <ele>496</ele>
        <time>2025-09-20T11:18:02.000Z</time>
      </trkpt>
      <trkpt lat="42.95108" lon="1.0801">
        <ele>496</ele>
        <time>2025-09-20T11:18:03.000Z</time>
      </trkpt>
      <trkpt lat="42.95111" lon="1.08016">
        <ele>496</ele>
        <time>2025-09-20T11:18:04.000Z</time>
      </trkpt>
      <trkpt lat="42.95115" lon="1.08022">
        <ele>496</ele>
        <time>2025-09-20T11:18:05.000Z</time>
      </trkpt>
      <trkpt lat="42.95118" lon="1.08028">
        <ele>496</ele>
        <time>2025-09-20T11:18:06.000Z</time>
      </trkpt>
      <trkpt lat="42.9512" lon="1.08034">
        <ele>497</ele>
        <time>2025-09-20T11:18:07.000Z</time>
      </trkpt>
      <trkpt lat="42.95123" lon="1.08039">
        <ele>498</ele>
        <time>2025-09-20T11:18:08.000Z</time>
      </trkpt>
      <trkpt lat="42.95125" lon="1.08044">
        <ele>498</ele>
        <time>2025-09-20T11:18:09.000Z</time>
      </trkpt>
      <trkpt lat="42.95128" lon="1.08048">
        <ele>498</ele>
        <time>2025-09-20T11:18:10.000Z</time>
      </trkpt>
      <trkpt lat="42.9513" lon="1.08053">
        <ele>499</ele>
        <time>2025-09-20T11:18:11.000Z</time>
      </trkpt>
      <trkpt lat="42.95131" lon="1.08057">
        <ele>499</ele>
        <time>2025-09-20T11:18:12.000Z</time>
      </trkpt>
      <trkpt lat="42.95133" lon="1.0806">
        <ele>499</ele>
        <time>2025-09-20T11:18:13.000Z</time>
      </trkpt>
      <trkpt lat="42.95133" lon="1.08063">
        <ele>499</ele>
        <time>2025-09-20T11:18:14.000Z</time>
      </trkpt>
      <trkpt lat="42.95133" lon="1.08065">
        <ele>499</ele>
        <time>2025-09-20T11:18:15.000Z</time>
      </trkpt>
      <trkpt lat="42.95134" lon="1.08066">
        <ele>500</ele>
        <time>2025-09-20T11:18:16.000Z</time>
      </trkpt>
      <trkpt lat="42.95132" lon="1.08067">
        <ele>500</ele>
        <time>2025-09-20T11:18:17.000Z</time>
      </trkpt>
      <trkpt lat="42.95131" lon="1.08066">
        <ele>500</ele>
        <time>2025-09-20T11:18:18.000Z</time>
      </trkpt>
      <trkpt lat="42.9513" lon="1.08064">
        <ele>499</ele>
        <time>2025-09-20T11:18:19.000Z</time>
      </trkpt>
      <trkpt lat="42.95129" lon="1.08063">
        <ele>499</ele>
        <time>2025-09-20T11:18:20.000Z</time>
      </trkpt>
      <trkpt lat="42.95129" lon="1.08061">
        <ele>499</ele>
        <time>2025-09-20T11:18:21.000Z</time>
      </trkpt>
      <trkpt lat="42.95129" lon="1.0806">
        <ele>499</ele>
        <time>2025-09-20T11:19:27.000Z</time>
      </trkpt>
      <trkpt lat="42.9513" lon="1.08058">
        <ele>499</ele>
        <time>2025-09-20T11:19:28.000Z</time>
      </trkpt>
      <trkpt lat="42.95132" lon="1.08057">
        <ele>499</ele>
        <time>2025-09-20T11:19:29.000Z</time>
      </trkpt>
      <trkpt lat="42.95134" lon="1.08058">
        <ele>499</ele>
        <time>2025-09-20T11:19:30.000Z</time>
      </trkpt>
      <trkpt lat="42.95136" lon="1.08061">
        <ele>499</ele>
        <time>2025-09-20T11:19:31.000Z</time>
      </trkpt>
      <trkpt lat="42.95137" lon="1.08065">
        <ele>499</ele>
        <time>2025-09-20T11:19:32.000Z</time>
      </trkpt>
      <trkpt lat="42.95138" lon="1.08067">
        <ele>499</ele>
        <time>2025-09-20T11:19:33.000Z</time>
      </trkpt>
      <trkpt lat="42.95139" lon="1.0807">
        <ele>499</ele>
        <time>2025-09-20T11:19:34.000Z</time>
      </trkpt>
      <trkpt lat="42.9514" lon="1.08071">
        <ele>499</ele>
        <time>2025-09-20T11:19:35.000Z</time>
      </trkpt>
      <trkpt lat="42.95141" lon="1.08074">
        <ele>499</ele>
        <time>2025-09-20T11:19:36.000Z</time>
      </trkpt>
      <trkpt lat="42.95143" lon="1.08075">
        <ele>500</ele>
        <time>2025-09-20T11:19:37.000Z</time>
      </trkpt>
      <trkpt lat="42.95145" lon="1.08077">
        <ele>500</ele>
        <time>2025-09-20T11:19:38.000Z</time>
      </trkpt>
      <trkpt lat="42.95146" lon="1.08078">
        <ele>500</ele>
        <time>2025-09-20T11:19:39.000Z</time>
      </trkpt>
      <trkpt lat="42.95147" lon="1.08079">
        <ele>500</ele>
        <time>2025-09-20T11:19:40.000Z</time>
      </trkpt>
      <trkpt lat="42.95146" lon="1.0808">
        <ele>501</ele>
        <time>2025-09-20T11:19:41.000Z</time>
      </trkpt>
      <trkpt lat="42.95145" lon="1.08081">
        <ele>501</ele>
        <time>2025-09-20T11:19:42.000Z</time>
      </trkpt>
      <trkpt lat="42.95145" lon="1.08083">
        <ele>501</ele>
        <time>2025-09-20T11:19:43.000Z</time>
      </trkpt>
      <trkpt lat="42.95146" lon="1.08084">
        <ele>501</ele>
        <time>2025-09-20T11:19:44.000Z</time>
      </trkpt>
      <trkpt lat="42.95148" lon="1.08083">
        <ele>501</ele>
        <time>2025-09-20T11:19:45.000Z</time>
      </trkpt>
      <trkpt lat="42.95148" lon="1.0808">
        <ele>500</ele>
        <time>2025-09-20T11:19:46.000Z</time>
      </trkpt>
      <trkpt lat="42.95147" lon="1.08078">
        <ele>499</ele>
        <time>2025-09-20T11:19:47.000Z</time>
      </trkpt>
      <trkpt lat="42.95144" lon="1.08075">
        <ele>498</ele>
        <time>2025-09-20T11:19:48.000Z</time>
      </trkpt>
      <trkpt lat="42.95142" lon="1.08073">
        <ele>498</ele>
        <time>2025-09-20T11:19:49.000Z</time>
      </trkpt>
      <trkpt lat="42.9514" lon="1.0807">
        <ele>498</ele>
        <time>2025-09-20T11:19:50.000Z</time>
      </trkpt>
      <trkpt lat="42.95137" lon="1.08067">
        <ele>498</ele>
        <time>2025-09-20T11:19:51.000Z</time>
      </trkpt>
      <trkpt lat="42.95135" lon="1.08064">
        <ele>497</ele>
        <time>2025-09-20T11:19:52.000Z</time>
      </trkpt>
      <trkpt lat="42.95134" lon="1.08061">
        <ele>498</ele>
        <time>2025-09-20T11:19:53.000Z</time>
      </trkpt>
      <trkpt lat="42.95133" lon="1.08058">
        <ele>498</ele>
        <time>2025-09-20T11:19:54.000Z</time>
      </trkpt>
      <trkpt lat="42.95131" lon="1.08055">
        <ele>498</ele>
        <time>2025-09-20T11:19:55.000Z</time>
      </trkpt>
      <trkpt lat="42.95128" lon="1.08054">
        <ele>498</ele>
        <time>2025-09-20T11:19:56.000Z</time>
      </trkpt>
      <trkpt lat="42.95125" lon="1.08056">
        <ele>498</ele>
        <time>2025-09-20T11:19:57.000Z</time>
      </trkpt>
      <trkpt lat="42.95125" lon="1.08059">
        <ele>499</ele>
        <time>2025-09-20T11:19:58.000Z</time>
      </trkpt>
      <trkpt lat="42.95125" lon="1.08061">
        <ele>499</ele>
        <time>2025-09-20T11:19:59.000Z</time>
      </trkpt>
      <trkpt lat="42.95125" lon="1.08063">
        <ele>499</ele>
        <time>2025-09-20T11:20:00.000Z</time>
      </trkpt>
      <trkpt lat="42.95126" lon="1.08063">
        <ele>499</ele>
        <time>2025-09-20T11:20:01.000Z</time>
      </trkpt>
      <trkpt lat="42.95127" lon="1.08063">
        <ele>499</ele>
        <time>2025-09-20T11:20:02.000Z</time>
      </trkpt>
      <trkpt lat="42.95128" lon="1.08064">
        <ele>499</ele>
        <time>2025-09-20T11:20:03.000Z</time>
      </trkpt>
      <trkpt lat="42.95131" lon="1.08065">
        <ele>499</ele>
        <time>2025-09-20T11:20:26.000Z</time>
      </trkpt>
      <trkpt lat="42.95132" lon="1.08067">
        <ele>500</ele>
        <time>2025-09-20T11:20:27.000Z</time>
      </trkpt>
      <trkpt lat="42.95134" lon="1.0807">
        <ele>500</ele>
        <time>2025-09-20T11:20:28.000Z</time>
      </trkpt>
      <trkpt lat="42.95137" lon="1.08073">
        <ele>500</ele>
        <time>2025-09-20T11:20:29.000Z</time>
      </trkpt>
      <trkpt lat="42.95139" lon="1.08076">
        <ele>499</ele>
        <time>2025-09-20T11:20:30.000Z</time>
      </trkpt>
      <trkpt lat="42.95142" lon="1.0808">
        <ele>499</ele>
        <time>2025-09-20T11:20:31.000Z</time>
      </trkpt>
      <trkpt lat="42.95146" lon="1.08084">
        <ele>500</ele>
        <time>2025-09-20T11:20:32.000Z</time>
      </trkpt>
      <trkpt lat="42.95149" lon="1.08087">
        <ele>498</ele>
        <time>2025-09-20T11:20:33.000Z</time>
      </trkpt>
      <trkpt lat="42.95151" lon="1.08091">
        <ele>497</ele>
        <time>2025-09-20T11:20:34.000Z</time>
      </trkpt>
      <trkpt lat="42.95154" lon="1.08094">
        <ele>498</ele>
        <time>2025-09-20T11:20:35.000Z</time>
      </trkpt>
      <trkpt lat="42.95156" lon="1.08099">
        <ele>497</ele>
        <time>2025-09-20T11:20:36.000Z</time>
      </trkpt>
      <trkpt lat="42.95159" lon="1.08102">
        <ele>497</ele>
        <time>2025-09-20T11:20:37.000Z</time>
      </trkpt>
      <trkpt lat="42.95161" lon="1.08106">
        <ele>497</ele>
        <time>2025-09-20T11:20:38.000Z</time>
      </trkpt>
      <trkpt lat="42.95164" lon="1.08111">
        <ele>498</ele>
        <time>2025-09-20T11:20:39.000Z</time>
      </trkpt>
      <trkpt lat="42.95166" lon="1.08116">
        <ele>498</ele>
        <time>2025-09-20T11:20:40.000Z</time>
      </trkpt>
      <trkpt lat="42.95169" lon="1.08121">
        <ele>497</ele>
        <time>2025-09-20T11:20:41.000Z</time>
      </trkpt>
      <trkpt lat="42.9517" lon="1.08127">
        <ele>498</ele>
        <time>2025-09-20T11:20:42.000Z</time>
      </trkpt>
      <trkpt lat="42.95172" lon="1.08134">
        <ele>498</ele>
        <time>2025-09-20T11:20:43.000Z</time>
      </trkpt>
      <trkpt lat="42.95173" lon="1.08141">
        <ele>498</ele>
        <time>2025-09-20T11:20:44.000Z</time>
      </trkpt>
      <trkpt lat="42.95174" lon="1.08146">
        <ele>498</ele>
        <time>2025-09-20T11:20:45.000Z</time>
      </trkpt>
      <trkpt lat="42.95174" lon="1.08152">
        <ele>499</ele>
        <time>2025-09-20T11:20:46.000Z</time>
      </trkpt>
      <trkpt lat="42.95175" lon="1.08158">
        <ele>499</ele>
        <time>2025-09-20T11:20:47.000Z</time>
      </trkpt>
      <trkpt lat="42.95174" lon="1.08165">
        <ele>500</ele>
        <time>2025-09-20T11:20:48.000Z</time>
      </trkpt>
      <trkpt lat="42.95174" lon="1.08171">
        <ele>501</ele>
        <time>2025-09-20T11:20:49.000Z</time>
      </trkpt>
      <trkpt lat="42.95174" lon="1.08177">
        <ele>501</ele>
        <time>2025-09-20T11:20:50.000Z</time>
      </trkpt>
      <trkpt lat="42.95175" lon="1.08184">
        <ele>502</ele>
        <time>2025-09-20T11:20:51.000Z</time>
      </trkpt>
      <trkpt lat="42.95175" lon="1.08191">
        <ele>502</ele>
        <time>2025-09-20T11:20:52.000Z</time>
      </trkpt>
      <trkpt lat="42.95175" lon="1.08198">
        <ele>504</ele>
        <time>2025-09-20T11:20:53.000Z</time>
      </trkpt>
      <trkpt lat="42.95176" lon="1.08206">
        <ele>504</ele>
        <time>2025-09-20T11:20:54.000Z</time>
      </trkpt>
      <trkpt lat="42.95176" lon="1.08213">
        <ele>505</ele>
        <time>2025-09-20T11:20:55.000Z</time>
      </trkpt>
      <trkpt lat="42.95177" lon="1.08221">
        <ele>505</ele>
        <time>2025-09-20T11:20:56.000Z</time>
      </trkpt>
      <trkpt lat="42.95178" lon="1.08229">
        <ele>505</ele>
        <time>2025-09-20T11:20:57.000Z</time>
      </trkpt>
      <trkpt lat="42.95179" lon="1.08237">
        <ele>505</ele>
        <time>2025-09-20T11:20:58.000Z</time>
      </trkpt>
      <trkpt lat="42.9518" lon="1.08244">
        <ele>505</ele>
        <time>2025-09-20T11:20:59.000Z</time>
      </trkpt>
      <trkpt lat="42.95181" lon="1.08252">
        <ele>505</ele>
        <time>2025-09-20T11:21:00.000Z</time>
      </trkpt>
      <trkpt lat="42.95183" lon="1.08259">
        <ele>505</ele>
        <time>2025-09-20T11:21:01.000Z</time>
      </trkpt>
      <trkpt lat="42.95185" lon="1.08266">
        <ele>506</ele>
        <time>2025-09-20T11:21:02.000Z</time>
      </trkpt>
      <trkpt lat="42.95187" lon="1.08274">
        <ele>506</ele>
        <time>2025-09-20T11:21:03.000Z</time>
      </trkpt>
      <trkpt lat="42.9519" lon="1.08282">
        <ele>506</ele>
        <time>2025-09-20T11:21:04.000Z</time>
      </trkpt>
      <trkpt lat="42.95193" lon="1.08289">
        <ele>507</ele>
        <time>2025-09-20T11:21:05.000Z</time>
      </trkpt>
      <trkpt lat="42.95196" lon="1.08296">
        <ele>507</ele>
        <time>2025-09-20T11:21:06.000Z</time>
      </trkpt>
      <trkpt lat="42.95199" lon="1.08303">
        <ele>508</ele>
        <time>2025-09-20T11:21:07.000Z</time>
      </trkpt>
      <trkpt lat="42.95202" lon="1.0831">
        <ele>508</ele>
        <time>2025-09-20T11:21:08.000Z</time>
      </trkpt>
      <trkpt lat="42.95206" lon="1.08316">
        <ele>508</ele>
        <time>2025-09-20T11:21:09.000Z</time>
      </trkpt>
      <trkpt lat="42.95209" lon="1.08323">
        <ele>508</ele>
        <time>2025-09-20T11:21:10.000Z</time>
      </trkpt>
      <trkpt lat="42.95213" lon="1.08329">
        <ele>508</ele>
        <time>2025-09-20T11:21:11.000Z</time>
      </trkpt>
      <trkpt lat="42.95216" lon="1.08336">
        <ele>508</ele>
        <time>2025-09-20T11:21:12.000Z</time>
      </trkpt>
      <trkpt lat="42.95219" lon="1.08343">
        <ele>508</ele>
        <time>2025-09-20T11:21:13.000Z</time>
      </trkpt>
      <trkpt lat="42.95223" lon="1.08349">
        <ele>507</ele>
        <time>2025-09-20T11:21:14.000Z</time>
      </trkpt>
      <trkpt lat="42.95227" lon="1.08356">
        <ele>507</ele>
        <time>2025-09-20T11:21:15.000Z</time>
      </trkpt>
      <trkpt lat="42.95231" lon="1.08364">
        <ele>506</ele>
        <time>2025-09-20T11:21:16.000Z</time>
      </trkpt>
      <trkpt lat="42.95236" lon="1.08372">
        <ele>506</ele>
        <time>2025-09-20T11:21:17.000Z</time>
      </trkpt>
      <trkpt lat="42.9524" lon="1.08379">
        <ele>505</ele>
        <time>2025-09-20T11:21:18.000Z</time>
      </trkpt>
      <trkpt lat="42.95245" lon="1.08387">
        <ele>505</ele>
        <time>2025-09-20T11:21:19.000Z</time>
      </trkpt>
      <trkpt lat="42.95249" lon="1.08396">
        <ele>504</ele>
        <time>2025-09-20T11:21:20.000Z</time>
      </trkpt>
      <trkpt lat="42.95251" lon="1.08405">
        <ele>504</ele>
        <time>2025-09-20T11:21:21.000Z</time>
      </trkpt>
      <trkpt lat="42.95252" lon="1.08414">
        <ele>504</ele>
        <time>2025-09-20T11:21:22.000Z</time>
      </trkpt>
      <trkpt lat="42.95251" lon="1.08424">
        <ele>504</ele>
        <time>2025-09-20T11:21:23.000Z</time>
      </trkpt>
      <trkpt lat="42.95251" lon="1.08434">
        <ele>503</ele>
        <time>2025-09-20T11:21:24.000Z</time>
      </trkpt>
      <trkpt lat="42.95254" lon="1.08444">
        <ele>502</ele>
        <time>2025-09-20T11:21:25.000Z</time>
      </trkpt>
      <trkpt lat="42.95258" lon="1.08453">
        <ele>502</ele>
        <time>2025-09-20T11:21:26.000Z</time>
      </trkpt>
      <trkpt lat="42.95262" lon="1.0846">
        <ele>502</ele>
        <time>2025-09-20T11:21:27.000Z</time>
      </trkpt>
      <trkpt lat="42.95265" lon="1.08466">
        <ele>503</ele>
        <time>2025-09-20T11:21:28.000Z</time>
      </trkpt>
      <trkpt lat="42.95265" lon="1.08475">
        <ele>503</ele>
        <time>2025-09-20T11:21:29.000Z</time>
      </trkpt>
      <trkpt lat="42.95266" lon="1.08482">
        <ele>502</ele>
        <time>2025-09-20T11:21:30.000Z</time>
      </trkpt>
      <trkpt lat="42.95268" lon="1.0849">
        <ele>501</ele>
        <time>2025-09-20T11:21:31.000Z</time>
      </trkpt>
      <trkpt lat="42.95273" lon="1.08495">
        <ele>501</ele>
        <time>2025-09-20T11:21:32.000Z</time>
      </trkpt>
      <trkpt lat="42.95279" lon="1.08497">
        <ele>501</ele>
        <time>2025-09-20T11:21:33.000Z</time>
      </trkpt>
      <trkpt lat="42.95286" lon="1.08496">
        <ele>501</ele>
        <time>2025-09-20T11:21:34.000Z</time>
      </trkpt>
      <trkpt lat="42.95293" lon="1.08495">
        <ele>501</ele>
        <time>2025-09-20T11:21:35.000Z</time>
      </trkpt>
      <trkpt lat="42.95299" lon="1.08494">
        <ele>501</ele>
        <time>2025-09-20T11:21:36.000Z</time>
      </trkpt>
      <trkpt lat="42.95306" lon="1.08493">
        <ele>501</ele>
        <time>2025-09-20T11:21:37.000Z</time>
      </trkpt>
      <trkpt lat="42.95312" lon="1.08491">
        <ele>501</ele>
        <time>2025-09-20T11:21:38.000Z</time>
      </trkpt>
      <trkpt lat="42.95318" lon="1.08487">
        <ele>501</ele>
        <time>2025-09-20T11:21:39.000Z</time>
      </trkpt>
      <trkpt lat="42.95324" lon="1.08483">
        <ele>500</ele>
        <time>2025-09-20T11:21:40.000Z</time>
      </trkpt>
      <trkpt lat="42.9533" lon="1.08478">
        <ele>500</ele>
        <time>2025-09-20T11:21:41.000Z</time>
      </trkpt>
      <trkpt lat="42.95335" lon="1.08474">
        <ele>500</ele>
        <time>2025-09-20T11:21:42.000Z</time>
      </trkpt>
      <trkpt lat="42.95341" lon="1.0847">
        <ele>500</ele>
        <time>2025-09-20T11:21:43.000Z</time>
      </trkpt>
      <trkpt lat="42.95346" lon="1.08468">
        <ele>500</ele>
        <time>2025-09-20T11:21:44.000Z</time>
      </trkpt>
      <trkpt lat="42.95352" lon="1.08468">
        <ele>500</ele>
        <time>2025-09-20T11:21:45.000Z</time>
      </trkpt>
      <trkpt lat="42.95358" lon="1.08468">
        <ele>501</ele>
        <time>2025-09-20T11:21:46.000Z</time>
      </trkpt>
      <trkpt lat="42.95364" lon="1.0847">
        <ele>501</ele>
        <time>2025-09-20T11:21:47.000Z</time>
      </trkpt>
      <trkpt lat="42.9537" lon="1.0847">
        <ele>500</ele>
        <time>2025-09-20T11:21:48.000Z</time>
      </trkpt>
      <trkpt lat="42.95377" lon="1.08471">
        <ele>500</ele>
        <time>2025-09-20T11:21:49.000Z</time>
      </trkpt>
      <trkpt lat="42.95383" lon="1.08473">
        <ele>500</ele>
        <time>2025-09-20T11:21:50.000Z</time>
      </trkpt>
      <trkpt lat="42.95389" lon="1.08476">
        <ele>500</ele>
        <time>2025-09-20T11:21:51.000Z</time>
      </trkpt>
      <trkpt lat="42.95396" lon="1.08478">
        <ele>501</ele>
        <time>2025-09-20T11:21:52.000Z</time>
      </trkpt>
      <trkpt lat="42.95402" lon="1.08481">
        <ele>501</ele>
        <time>2025-09-20T11:21:53.000Z</time>
      </trkpt>
      <trkpt lat="42.95408" lon="1.08484">
        <ele>501</ele>
        <time>2025-09-20T11:21:54.000Z</time>
      </trkpt>
      <trkpt lat="42.95414" lon="1.08487">
        <ele>501</ele>
        <time>2025-09-20T11:21:55.000Z</time>
      </trkpt>
      <trkpt lat="42.9542" lon="1.08489">
        <ele>501</ele>
        <time>2025-09-20T11:21:56.000Z</time>
      </trkpt>
      <trkpt lat="42.95425" lon="1.08493">
        <ele>501</ele>
        <time>2025-09-20T11:21:57.000Z</time>
      </trkpt>
      <trkpt lat="42.9543" lon="1.08496">
        <ele>500</ele>
        <time>2025-09-20T11:21:58.000Z</time>
      </trkpt>
      <trkpt lat="42.95435" lon="1.085">
        <ele>500</ele>
        <time>2025-09-20T11:21:59.000Z</time>
      </trkpt>
      <trkpt lat="42.9544" lon="1.08504">
        <ele>500</ele>
        <time>2025-09-20T11:22:00.000Z</time>
      </trkpt>
      <trkpt lat="42.95445" lon="1.08508">
        <ele>500</ele>
        <time>2025-09-20T11:22:01.000Z</time>
      </trkpt>
      <trkpt lat="42.9545" lon="1.08512">
        <ele>500</ele>
        <time>2025-09-20T11:22:02.000Z</time>
      </trkpt>
      <trkpt lat="42.95455" lon="1.08518">
        <ele>500</ele>
        <time>2025-09-20T11:22:03.000Z</time>
      </trkpt>
      <trkpt lat="42.95459" lon="1.08523">
        <ele>499</ele>
        <time>2025-09-20T11:22:04.000Z</time>
      </trkpt>
      <trkpt lat="42.95464" lon="1.08528">
        <ele>499</ele>
        <time>2025-09-20T11:22:05.000Z</time>
      </trkpt>
      <trkpt lat="42.9547" lon="1.08534">
        <ele>499</ele>
        <time>2025-09-20T11:22:06.000Z</time>
      </trkpt>
      <trkpt lat="42.95476" lon="1.08539">
        <ele>498</ele>
        <time>2025-09-20T11:22:07.000Z</time>
      </trkpt>
      <trkpt lat="42.95482" lon="1.08544">
        <ele>497</ele>
        <time>2025-09-20T11:22:08.000Z</time>
      </trkpt>
      <trkpt lat="42.95488" lon="1.0855">
        <ele>497</ele>
        <time>2025-09-20T11:22:09.000Z</time>
      </trkpt>
      <trkpt lat="42.95495" lon="1.08557">
        <ele>497</ele>
        <time>2025-09-20T11:22:10.000Z</time>
      </trkpt>
      <trkpt lat="42.95501" lon="1.08565">
        <ele>496</ele>
        <time>2025-09-20T11:22:11.000Z</time>
      </trkpt>
      <trkpt lat="42.95508" lon="1.08572">
        <ele>496</ele>
        <time>2025-09-20T11:22:12.000Z</time>
      </trkpt>
      <trkpt lat="42.95514" lon="1.08579">
        <ele>495</ele>
        <time>2025-09-20T11:22:13.000Z</time>
      </trkpt>
      <trkpt lat="42.95521" lon="1.08587">
        <ele>495</ele>
        <time>2025-09-20T11:22:14.000Z</time>
      </trkpt>
      <trkpt lat="42.95528" lon="1.08594">
        <ele>495</ele>
        <time>2025-09-20T11:22:15.000Z</time>
      </trkpt>
      <trkpt lat="42.95534" lon="1.08603">
        <ele>494</ele>
        <time>2025-09-20T11:22:16.000Z</time>
      </trkpt>
      <trkpt lat="42.95541" lon="1.08611">
        <ele>494</ele>
        <time>2025-09-20T11:22:17.000Z</time>
      </trkpt>
      <trkpt lat="42.95547" lon="1.0862">
        <ele>494</ele>
        <time>2025-09-20T11:22:18.000Z</time>
      </trkpt>
      <trkpt lat="42.95554" lon="1.08628">
        <ele>493</ele>
        <time>2025-09-20T11:22:19.000Z</time>
      </trkpt>
      <trkpt lat="42.95561" lon="1.08635">
        <ele>493</ele>
        <time>2025-09-20T11:22:20.000Z</time>
      </trkpt>
      <trkpt lat="42.95568" lon="1.08642">
        <ele>493</ele>
        <time>2025-09-20T11:22:21.000Z</time>
      </trkpt>
      <trkpt lat="42.95576" lon="1.08648">
        <ele>493</ele>
        <time>2025-09-20T11:22:22.000Z</time>
      </trkpt>
      <trkpt lat="42.95583" lon="1.08653">
        <ele>493</ele>
        <time>2025-09-20T11:22:23.000Z</time>
      </trkpt>
      <trkpt lat="42.95589" lon="1.0866">
        <ele>493</ele>
        <time>2025-09-20T11:22:24.000Z</time>
      </trkpt>
      <trkpt lat="42.95594" lon="1.08668">
        <ele>493</ele>
        <time>2025-09-20T11:22:25.000Z</time>
      </trkpt>
      <trkpt lat="42.95599" lon="1.08676">
        <ele>493</ele>
        <time>2025-09-20T11:22:26.000Z</time>
      </trkpt>
      <trkpt lat="42.95604" lon="1.08683">
        <ele>492</ele>
        <time>2025-09-20T11:22:27.000Z</time>
      </trkpt>
      <trkpt lat="42.95611" lon="1.0869">
        <ele>491</ele>
        <time>2025-09-20T11:22:28.000Z</time>
      </trkpt>
      <trkpt lat="42.95618" lon="1.08694">
        <ele>490</ele>
        <time>2025-09-20T11:22:29.000Z</time>
      </trkpt>
      <trkpt lat="42.95627" lon="1.08694">
        <ele>490</ele>
        <time>2025-09-20T11:22:30.000Z</time>
      </trkpt>
      <trkpt lat="42.95636" lon="1.08691">
        <ele>491</ele>
        <time>2025-09-20T11:22:31.000Z</time>
      </trkpt>
      <trkpt lat="42.95643" lon="1.08685">
        <ele>490</ele>
        <time>2025-09-20T11:22:32.000Z</time>
      </trkpt>
      <trkpt lat="42.95649" lon="1.08678">
        <ele>490</ele>
        <time>2025-09-20T11:22:33.000Z</time>
      </trkpt>
      <trkpt lat="42.95654" lon="1.0867">
        <ele>490</ele>
        <time>2025-09-20T11:22:34.000Z</time>
      </trkpt>
      <trkpt lat="42.9566" lon="1.08663">
        <ele>490</ele>
        <time>2025-09-20T11:22:35.000Z</time>
      </trkpt>
      <trkpt lat="42.95665" lon="1.08655">
        <ele>490</ele>
        <time>2025-09-20T11:22:36.000Z</time>
      </trkpt>
      <trkpt lat="42.9567" lon="1.08648">
        <ele>490</ele>
        <time>2025-09-20T11:22:37.000Z</time>
      </trkpt>
      <trkpt lat="42.95676" lon="1.08641">
        <ele>490</ele>
        <time>2025-09-20T11:22:38.000Z</time>
      </trkpt>
      <trkpt lat="42.95681" lon="1.08635">
        <ele>490</ele>
        <time>2025-09-20T11:22:39.000Z</time>
      </trkpt>
      <trkpt lat="42.95686" lon="1.08628">
        <ele>490</ele>
        <time>2025-09-20T11:22:40.000Z</time>
      </trkpt>
      <trkpt lat="42.95692" lon="1.08623">
        <ele>490</ele>
        <time>2025-09-20T11:22:41.000Z</time>
      </trkpt>
      <trkpt lat="42.95697" lon="1.08617">
        <ele>490</ele>
        <time>2025-09-20T11:22:42.000Z</time>
      </trkpt>
      <trkpt lat="42.95702" lon="1.08611">
        <ele>490</ele>
        <time>2025-09-20T11:22:43.000Z</time>
      </trkpt>
      <trkpt lat="42.95707" lon="1.08605">
        <ele>490</ele>
        <time>2025-09-20T11:22:44.000Z</time>
      </trkpt>
      <trkpt lat="42.95712" lon="1.08599">
        <ele>491</ele>
        <time>2025-09-20T11:22:45.000Z</time>
      </trkpt>
      <trkpt lat="42.95719" lon="1.08597">
        <ele>491</ele>
        <time>2025-09-20T11:22:46.000Z</time>
      </trkpt>
      <trkpt lat="42.95726" lon="1.08598">
        <ele>491</ele>
        <time>2025-09-20T11:22:47.000Z</time>
      </trkpt>
      <trkpt lat="42.95733" lon="1.08601">
        <ele>490</ele>
        <time>2025-09-20T11:22:48.000Z</time>
      </trkpt>
      <trkpt lat="42.95739" lon="1.08606">
        <ele>490</ele>
        <time>2025-09-20T11:22:49.000Z</time>
      </trkpt>
      <trkpt lat="42.95744" lon="1.08612">
        <ele>490</ele>
        <time>2025-09-20T11:22:50.000Z</time>
      </trkpt>
      <trkpt lat="42.9575" lon="1.08617">
        <ele>490</ele>
        <time>2025-09-20T11:22:51.000Z</time>
      </trkpt>
      <trkpt lat="42.95755" lon="1.08621">
        <ele>490</ele>
        <time>2025-09-20T11:22:52.000Z</time>
      </trkpt>
      <trkpt lat="42.9576" lon="1.08626">
        <ele>490</ele>
        <time>2025-09-20T11:22:53.000Z</time>
      </trkpt>
      <trkpt lat="42.95766" lon="1.08631">
        <ele>491</ele>
        <time>2025-09-20T11:22:54.000Z</time>
      </trkpt>
      <trkpt lat="42.9577" lon="1.08635">
        <ele>491</ele>
        <time>2025-09-20T11:22:55.000Z</time>
      </trkpt>
      <trkpt lat="42.95775" lon="1.08638">
        <ele>490</ele>
        <time>2025-09-20T11:22:56.000Z</time>
      </trkpt>
      <trkpt lat="42.9578" lon="1.08643">
        <ele>490</ele>
        <time>2025-09-20T11:22:57.000Z</time>
      </trkpt>
      <trkpt lat="42.95786" lon="1.08647">
        <ele>490</ele>
        <time>2025-09-20T11:22:58.000Z</time>
      </trkpt>
      <trkpt lat="42.95791" lon="1.08653">
        <ele>489</ele>
        <time>2025-09-20T11:22:59.000Z</time>
      </trkpt>
      <trkpt lat="42.95796" lon="1.08657">
        <ele>489</ele>
        <time>2025-09-20T11:23:00.000Z</time>
      </trkpt>
      <trkpt lat="42.95801" lon="1.08663">
        <ele>489</ele>
        <time>2025-09-20T11:23:01.000Z</time>
      </trkpt>
      <trkpt lat="42.95806" lon="1.08667">
        <ele>489</ele>
        <time>2025-09-20T11:23:02.000Z</time>
      </trkpt>
      <trkpt lat="42.9581" lon="1.08673">
        <ele>489</ele>
        <time>2025-09-20T11:23:03.000Z</time>
      </trkpt>
      <trkpt lat="42.95815" lon="1.08677">
        <ele>489</ele>
        <time>2025-09-20T11:23:04.000Z</time>
      </trkpt>
      <trkpt lat="42.95819" lon="1.08682">
        <ele>489</ele>
        <time>2025-09-20T11:23:05.000Z</time>
      </trkpt>
      <trkpt lat="42.95824" lon="1.08687">
        <ele>490</ele>
        <time>2025-09-20T11:23:06.000Z</time>
      </trkpt>
      <trkpt lat="42.95828" lon="1.08692">
        <ele>490</ele>
        <time>2025-09-20T11:23:07.000Z</time>
      </trkpt>
      <trkpt lat="42.95831" lon="1.08697">
        <ele>490</ele>
        <time>2025-09-20T11:23:08.000Z</time>
      </trkpt>
      <trkpt lat="42.95835" lon="1.08702">
        <ele>490</ele>
        <time>2025-09-20T11:23:09.000Z</time>
      </trkpt>
      <trkpt lat="42.95838" lon="1.08707">
        <ele>491</ele>
        <time>2025-09-20T11:23:10.000Z</time>
      </trkpt>
      <trkpt lat="42.95841" lon="1.08713">
        <ele>491</ele>
        <time>2025-09-20T11:23:11.000Z</time>
      </trkpt>
      <trkpt lat="42.95844" lon="1.08718">
        <ele>491</ele>
        <time>2025-09-20T11:23:12.000Z</time>
      </trkpt>
      <trkpt lat="42.95846" lon="1.08724">
        <ele>490</ele>
        <time>2025-09-20T11:23:13.000Z</time>
      </trkpt>
      <trkpt lat="42.95849" lon="1.08729">
        <ele>491</ele>
        <time>2025-09-20T11:23:14.000Z</time>
      </trkpt>
      <trkpt lat="42.95852" lon="1.08733">
        <ele>491</ele>
        <time>2025-09-20T11:23:15.000Z</time>
      </trkpt>
      <trkpt lat="42.95854" lon="1.08738">
        <ele>490</ele>
        <time>2025-09-20T11:23:16.000Z</time>
      </trkpt>
      <trkpt lat="42.95857" lon="1.08742">
        <ele>490</ele>
        <time>2025-09-20T11:23:17.000Z</time>
      </trkpt>
      <trkpt lat="42.9586" lon="1.08747">
        <ele>490</ele>
        <time>2025-09-20T11:23:18.000Z</time>
      </trkpt>
      <trkpt lat="42.95863" lon="1.08751">
        <ele>490</ele>
        <time>2025-09-20T11:23:19.000Z</time>
      </trkpt>
      <trkpt lat="42.95867" lon="1.08755">
        <ele>489</ele>
        <time>2025-09-20T11:23:20.000Z</time>
      </trkpt>
      <trkpt lat="42.95872" lon="1.08759">
        <ele>489</ele>
        <time>2025-09-20T11:23:21.000Z</time>
      </trkpt>
      <trkpt lat="42.95878" lon="1.08762">
        <ele>489</ele>
        <time>2025-09-20T11:23:22.000Z</time>
      </trkpt>
      <trkpt lat="42.95884" lon="1.08764">
        <ele>490</ele>
        <time>2025-09-20T11:23:23.000Z</time>
      </trkpt>
      <trkpt lat="42.9589" lon="1.08766">
        <ele>490</ele>
        <time>2025-09-20T11:23:24.000Z</time>
      </trkpt>
      <trkpt lat="42.95896" lon="1.08768">
        <ele>489</ele>
        <time>2025-09-20T11:23:25.000Z</time>
      </trkpt>
      <trkpt lat="42.95902" lon="1.08771">
        <ele>489</ele>
        <time>2025-09-20T11:23:26.000Z</time>
      </trkpt>
      <trkpt lat="42.95907" lon="1.08773">
        <ele>489</ele>
        <time>2025-09-20T11:23:27.000Z</time>
      </trkpt>
      <trkpt lat="42.95913" lon="1.08775">
        <ele>490</ele>
        <time>2025-09-20T11:23:28.000Z</time>
      </trkpt>
      <trkpt lat="42.95919" lon="1.08778">
        <ele>490</ele>
        <time>2025-09-20T11:23:29.000Z</time>
      </trkpt>
      <trkpt lat="42.95924" lon="1.0878">
        <ele>490</ele>
        <time>2025-09-20T11:23:30.000Z</time>
      </trkpt>
      <trkpt lat="42.9593" lon="1.08783">
        <ele>490</ele>
        <time>2025-09-20T11:23:31.000Z</time>
      </trkpt>
      <trkpt lat="42.95937" lon="1.08785">
        <ele>490</ele>
        <time>2025-09-20T11:23:32.000Z</time>
      </trkpt>
      <trkpt lat="42.95942" lon="1.08788">
        <ele>490</ele>
        <time>2025-09-20T11:23:33.000Z</time>
      </trkpt>
      <trkpt lat="42.95948" lon="1.08792">
        <ele>490</ele>
        <time>2025-09-20T11:23:34.000Z</time>
      </trkpt>
      <trkpt lat="42.95953" lon="1.08797">
        <ele>490</ele>
        <time>2025-09-20T11:23:35.000Z</time>
      </trkpt>
      <trkpt lat="42.95959" lon="1.08803">
        <ele>490</ele>
        <time>2025-09-20T11:23:36.000Z</time>
      </trkpt>
      <trkpt lat="42.95964" lon="1.0881">
        <ele>490</ele>
        <time>2025-09-20T11:23:37.000Z</time>
      </trkpt>
      <trkpt lat="42.95969" lon="1.08816">
        <ele>489</ele>
        <time>2025-09-20T11:23:38.000Z</time>
      </trkpt>
      <trkpt lat="42.95973" lon="1.08821">
        <ele>489</ele>
        <time>2025-09-20T11:23:39.000Z</time>
      </trkpt>
      <trkpt lat="42.95978" lon="1.08827">
        <ele>489</ele>
        <time>2025-09-20T11:23:40.000Z</time>
      </trkpt>
      <trkpt lat="42.95983" lon="1.08833">
        <ele>488</ele>
        <time>2025-09-20T11:23:41.000Z</time>
      </trkpt>
      <trkpt lat="42.95988" lon="1.08839">
        <ele>488</ele>
        <time>2025-09-20T11:23:42.000Z</time>
      </trkpt>
      <trkpt lat="42.95992" lon="1.08844">
        <ele>488</ele>
        <time>2025-09-20T11:23:43.000Z</time>
      </trkpt>
      <trkpt lat="42.95997" lon="1.08849">
        <ele>488</ele>
        <time>2025-09-20T11:23:44.000Z</time>
      </trkpt>
      <trkpt lat="42.96001" lon="1.08855">
        <ele>488</ele>
        <time>2025-09-20T11:23:45.000Z</time>
      </trkpt>
      <trkpt lat="42.96004" lon="1.08863">
        <ele>488</ele>
        <time>2025-09-20T11:23:46.000Z</time>
      </trkpt>
      <trkpt lat="42.96007" lon="1.08871">
        <ele>488</ele>
        <time>2025-09-20T11:23:47.000Z</time>
      </trkpt>
      <trkpt lat="42.96009" lon="1.08879">
        <ele>488</ele>
        <time>2025-09-20T11:23:48.000Z</time>
      </trkpt>
      <trkpt lat="42.96011" lon="1.08886">
        <ele>488</ele>
        <time>2025-09-20T11:23:49.000Z</time>
      </trkpt>
      <trkpt lat="42.96014" lon="1.08893">
        <ele>488</ele>
        <time>2025-09-20T11:23:50.000Z</time>
      </trkpt>
      <trkpt lat="42.96016" lon="1.089">
        <ele>488</ele>
        <time>2025-09-20T11:23:51.000Z</time>
      </trkpt>
      <trkpt lat="42.96019" lon="1.08908">
        <ele>487</ele>
        <time>2025-09-20T11:23:52.000Z</time>
      </trkpt>
      <trkpt lat="42.96021" lon="1.08916">
        <ele>487</ele>
        <time>2025-09-20T11:23:53.000Z</time>
      </trkpt>
      <trkpt lat="42.96024" lon="1.08923">
        <ele>487</ele>
        <time>2025-09-20T11:23:54.000Z</time>
      </trkpt>
      <trkpt lat="42.96026" lon="1.08931">
        <ele>487</ele>
        <time>2025-09-20T11:23:55.000Z</time>
      </trkpt>
      <trkpt lat="42.96028" lon="1.08939">
        <ele>487</ele>
        <time>2025-09-20T11:23:56.000Z</time>
      </trkpt>
      <trkpt lat="42.96029" lon="1.08948">
        <ele>487</ele>
        <time>2025-09-20T11:23:57.000Z</time>
      </trkpt>
      <trkpt lat="42.96029" lon="1.08956">
        <ele>487</ele>
        <time>2025-09-20T11:23:58.000Z</time>
      </trkpt>
      <trkpt lat="42.9603" lon="1.08965">
        <ele>487</ele>
        <time>2025-09-20T11:23:59.000Z</time>
      </trkpt>
      <trkpt lat="42.9603" lon="1.08974">
        <ele>487</ele>
        <time>2025-09-20T11:24:00.000Z</time>
      </trkpt>
      <trkpt lat="42.9603" lon="1.08983">
        <ele>487</ele>
        <time>2025-09-20T11:24:01.000Z</time>
      </trkpt>
      <trkpt lat="42.96031" lon="1.08992">
        <ele>487</ele>
        <time>2025-09-20T11:24:02.000Z</time>
      </trkpt>
      <trkpt lat="42.96033" lon="1.09001">
        <ele>487</ele>
        <time>2025-09-20T11:24:03.000Z</time>
      </trkpt>
      <trkpt lat="42.96034" lon="1.09009">
        <ele>487</ele>
        <time>2025-09-20T11:24:04.000Z</time>
      </trkpt>
      <trkpt lat="42.96035" lon="1.09017">
        <ele>488</ele>
        <time>2025-09-20T11:24:05.000Z</time>
      </trkpt>
      <trkpt lat="42.96037" lon="1.09024">
        <ele>488</ele>
        <time>2025-09-20T11:24:06.000Z</time>
      </trkpt>
      <trkpt lat="42.9604" lon="1.0903">
        <ele>488</ele>
        <time>2025-09-20T11:24:07.000Z</time>
      </trkpt>
      <trkpt lat="42.96043" lon="1.09036">
        <ele>487</ele>
        <time>2025-09-20T11:24:08.000Z</time>
      </trkpt>
      <trkpt lat="42.96047" lon="1.09041">
        <ele>487</ele>
        <time>2025-09-20T11:24:09.000Z</time>
      </trkpt>
      <trkpt lat="42.96052" lon="1.09045">
        <ele>486</ele>
        <time>2025-09-20T11:24:10.000Z</time>
      </trkpt>
      <trkpt lat="42.96056" lon="1.0905">
        <ele>486</ele>
        <time>2025-09-20T11:24:11.000Z</time>
      </trkpt>
      <trkpt lat="42.96059" lon="1.09055">
        <ele>487</ele>
        <time>2025-09-20T11:24:12.000Z</time>
      </trkpt>
      <trkpt lat="42.96062" lon="1.09062">
        <ele>487</ele>
        <time>2025-09-20T11:24:13.000Z</time>
      </trkpt>
      <trkpt lat="42.96064" lon="1.09068">
        <ele>488</ele>
        <time>2025-09-20T11:24:14.000Z</time>
      </trkpt>
      <trkpt lat="42.96065" lon="1.09075">
        <ele>488</ele>
        <time>2025-09-20T11:24:15.000Z</time>
      </trkpt>
      <trkpt lat="42.96067" lon="1.09083">
        <ele>488</ele>
        <time>2025-09-20T11:24:16.000Z</time>
      </trkpt>
      <trkpt lat="42.96068" lon="1.09091">
        <ele>488</ele>
        <time>2025-09-20T11:24:17.000Z</time>
      </trkpt>
      <trkpt lat="42.96069" lon="1.091">
        <ele>487</ele>
        <time>2025-09-20T11:24:18.000Z</time>
      </trkpt>
      <trkpt lat="42.96069" lon="1.09109">
        <ele>486</ele>
        <time>2025-09-20T11:24:19.000Z</time>
      </trkpt>
      <trkpt lat="42.9607" lon="1.09118">
        <ele>486</ele>
        <time>2025-09-20T11:24:20.000Z</time>
      </trkpt>
      <trkpt lat="42.96071" lon="1.09128">
        <ele>486</ele>
        <time>2025-09-20T11:24:21.000Z</time>
      </trkpt>
      <trkpt lat="42.9607" lon="1.09137">
        <ele>487</ele>
        <time>2025-09-20T11:24:22.000Z</time>
      </trkpt>
      <trkpt lat="42.96068" lon="1.09146">
        <ele>487</ele>
        <time>2025-09-20T11:24:23.000Z</time>
      </trkpt>
      <trkpt lat="42.96067" lon="1.09155">
        <ele>487</ele>
        <time>2025-09-20T11:24:24.000Z</time>
      </trkpt>
      <trkpt lat="42.96065" lon="1.09164">
        <ele>486</ele>
        <time>2025-09-20T11:24:25.000Z</time>
      </trkpt>
      <trkpt lat="42.96065" lon="1.09174">
        <ele>485</ele>
        <time>2025-09-20T11:24:26.000Z</time>
      </trkpt>
      <trkpt lat="42.96064" lon="1.09184">
        <ele>485</ele>
        <time>2025-09-20T11:24:27.000Z</time>
      </trkpt>
      <trkpt lat="42.96066" lon="1.09193">
        <ele>484</ele>
        <time>2025-09-20T11:24:28.000Z</time>
      </trkpt>
      <trkpt lat="42.96067" lon="1.09203">
        <ele>483</ele>
        <time>2025-09-20T11:24:29.000Z</time>
      </trkpt>
      <trkpt lat="42.96067" lon="1.09213">
        <ele>483</ele>
        <time>2025-09-20T11:24:30.000Z</time>
      </trkpt>
      <trkpt lat="42.96068" lon="1.09223">
        <ele>482</ele>
        <time>2025-09-20T11:24:31.000Z</time>
      </trkpt>
      <trkpt lat="42.96069" lon="1.09231">
        <ele>481</ele>
        <time>2025-09-20T11:24:32.000Z</time>
      </trkpt>
      <trkpt lat="42.96069" lon="1.09241">
        <ele>481</ele>
        <time>2025-09-20T11:24:33.000Z</time>
      </trkpt>
      <trkpt lat="42.96069" lon="1.09251">
        <ele>480</ele>
        <time>2025-09-20T11:24:34.000Z</time>
      </trkpt>
      <trkpt lat="42.96068" lon="1.09261">
        <ele>480</ele>
        <time>2025-09-20T11:24:35.000Z</time>
      </trkpt>
      <trkpt lat="42.96068" lon="1.0927">
        <ele>480</ele>
        <time>2025-09-20T11:24:36.000Z</time>
      </trkpt>
      <trkpt lat="42.96069" lon="1.0928">
        <ele>479</ele>
        <time>2025-09-20T11:24:37.000Z</time>
      </trkpt>
      <trkpt lat="42.96069" lon="1.09289">
        <ele>479</ele>
        <time>2025-09-20T11:24:38.000Z</time>
      </trkpt>
      <trkpt lat="42.96069" lon="1.09298">
        <ele>479</ele>
        <time>2025-09-20T11:24:39.000Z</time>
      </trkpt>
      <trkpt lat="42.9607" lon="1.09307">
        <ele>479</ele>
        <time>2025-09-20T11:24:40.000Z</time>
      </trkpt>
      <trkpt lat="42.96071" lon="1.09316">
        <ele>479</ele>
        <time>2025-09-20T11:24:41.000Z</time>
      </trkpt>
      <trkpt lat="42.96071" lon="1.09325">
        <ele>478</ele>
        <time>2025-09-20T11:24:42.000Z</time>
      </trkpt>
      <trkpt lat="42.96072" lon="1.09334">
        <ele>478</ele>
        <time>2025-09-20T11:24:43.000Z</time>
      </trkpt>
      <trkpt lat="42.96072" lon="1.09343">
        <ele>478</ele>
        <time>2025-09-20T11:24:44.000Z</time>
      </trkpt>
      <trkpt lat="42.96072" lon="1.09352">
        <ele>477</ele>
        <time>2025-09-20T11:24:45.000Z</time>
      </trkpt>
      <trkpt lat="42.96072" lon="1.0936">
        <ele>477</ele>
        <time>2025-09-20T11:24:46.000Z</time>
      </trkpt>
      <trkpt lat="42.96073" lon="1.09369">
        <ele>477</ele>
        <time>2025-09-20T11:24:47.000Z</time>
      </trkpt>
      <trkpt lat="42.96074" lon="1.09378">
        <ele>477</ele>
        <time>2025-09-20T11:24:48.000Z</time>
      </trkpt>
      <trkpt lat="42.96075" lon="1.09387">
        <ele>477</ele>
        <time>2025-09-20T11:24:49.000Z</time>
      </trkpt>
      <trkpt lat="42.96075" lon="1.09396">
        <ele>477</ele>
        <time>2025-09-20T11:24:50.000Z</time>
      </trkpt>
      <trkpt lat="42.96076" lon="1.09404">
        <ele>477</ele>
        <time>2025-09-20T11:24:51.000Z</time>
      </trkpt>
      <trkpt lat="42.96074" lon="1.09412">
        <ele>477</ele>
        <time>2025-09-20T11:24:52.000Z</time>
      </trkpt>
      <trkpt lat="42.96073" lon="1.09421">
        <ele>478</ele>
        <time>2025-09-20T11:24:53.000Z</time>
      </trkpt>
      <trkpt lat="42.96071" lon="1.09431">
        <ele>479</ele>
        <time>2025-09-20T11:24:54.000Z</time>
      </trkpt>
      <trkpt lat="42.9607" lon="1.09439">
        <ele>479</ele>
        <time>2025-09-20T11:24:55.000Z</time>
      </trkpt>
      <trkpt lat="42.9607" lon="1.09447">
        <ele>480</ele>
        <time>2025-09-20T11:24:56.000Z</time>
      </trkpt>
      <trkpt lat="42.9607" lon="1.09455">
        <ele>480</ele>
        <time>2025-09-20T11:24:57.000Z</time>
      </trkpt>
      <trkpt lat="42.96069" lon="1.09463">
        <ele>480</ele>
        <time>2025-09-20T11:24:58.000Z</time>
      </trkpt>
      <trkpt lat="42.96069" lon="1.09472">
        <ele>480</ele>
        <time>2025-09-20T11:24:59.000Z</time>
      </trkpt>
      <trkpt lat="42.96069" lon="1.0948">
        <ele>479</ele>
        <time>2025-09-20T11:25:00.000Z</time>
      </trkpt>
      <trkpt lat="42.96069" lon="1.09488">
        <ele>479</ele>
        <time>2025-09-20T11:25:01.000Z</time>
      </trkpt>
      <trkpt lat="42.96069" lon="1.09497">
        <ele>480</ele>
        <time>2025-09-20T11:25:02.000Z</time>
      </trkpt>
      <trkpt lat="42.9607" lon="1.09506">
        <ele>480</ele>
        <time>2025-09-20T11:25:03.000Z</time>
      </trkpt>
      <trkpt lat="42.96071" lon="1.09514">
        <ele>481</ele>
        <time>2025-09-20T11:25:04.000Z</time>
      </trkpt>
      <trkpt lat="42.96072" lon="1.09523">
        <ele>481</ele>
        <time>2025-09-20T11:25:05.000Z</time>
      </trkpt>
      <trkpt lat="42.96073" lon="1.09531">
        <ele>482</ele>
        <time>2025-09-20T11:25:06.000Z</time>
      </trkpt>
      <trkpt lat="42.96074" lon="1.09539">
        <ele>482</ele>
        <time>2025-09-20T11:25:07.000Z</time>
      </trkpt>
      <trkpt lat="42.96076" lon="1.09547">
        <ele>483</ele>
        <time>2025-09-20T11:25:08.000Z</time>
      </trkpt>
      <trkpt lat="42.96077" lon="1.09555">
        <ele>483</ele>
        <time>2025-09-20T11:25:09.000Z</time>
      </trkpt>
      <trkpt lat="42.96079" lon="1.09562">
        <ele>483</ele>
        <time>2025-09-20T11:25:10.000Z</time>
      </trkpt>
      <trkpt lat="42.96082" lon="1.09569">
        <ele>483</ele>
        <time>2025-09-20T11:25:11.000Z</time>
      </trkpt>
      <trkpt lat="42.96084" lon="1.09576">
        <ele>483</ele>
        <time>2025-09-20T11:25:12.000Z</time>
      </trkpt>
      <trkpt lat="42.96086" lon="1.09583">
        <ele>483</ele>
        <time>2025-09-20T11:25:13.000Z</time>
      </trkpt>
      <trkpt lat="42.96088" lon="1.0959">
        <ele>483</ele>
        <time>2025-09-20T11:25:14.000Z</time>
      </trkpt>
      <trkpt lat="42.9609" lon="1.09596">
        <ele>484</ele>
        <time>2025-09-20T11:25:15.000Z</time>
      </trkpt>
      <trkpt lat="42.96091" lon="1.09602">
        <ele>483</ele>
        <time>2025-09-20T11:25:16.000Z</time>
      </trkpt>
      <trkpt lat="42.96093" lon="1.09609">
        <ele>484</ele>
        <time>2025-09-20T11:25:17.000Z</time>
      </trkpt>
      <trkpt lat="42.96095" lon="1.09616">
        <ele>484</ele>
        <time>2025-09-20T11:25:18.000Z</time>
      </trkpt>
      <trkpt lat="42.96097" lon="1.09623">
        <ele>484</ele>
        <time>2025-09-20T11:25:19.000Z</time>
      </trkpt>
      <trkpt lat="42.96099" lon="1.09629">
        <ele>484</ele>
        <time>2025-09-20T11:25:20.000Z</time>
      </trkpt>
      <trkpt lat="42.96102" lon="1.09635">
        <ele>484</ele>
        <time>2025-09-20T11:25:21.000Z</time>
      </trkpt>
      <trkpt lat="42.96104" lon="1.09642">
        <ele>484</ele>
        <time>2025-09-20T11:25:22.000Z</time>
      </trkpt>
      <trkpt lat="42.96106" lon="1.09648">
        <ele>483</ele>
        <time>2025-09-20T11:25:23.000Z</time>
      </trkpt>
      <trkpt lat="42.96108" lon="1.09654">
        <ele>483</ele>
        <time>2025-09-20T11:25:24.000Z</time>
      </trkpt>
      <trkpt lat="42.96111" lon="1.09661">
        <ele>483</ele>
        <time>2025-09-20T11:25:25.000Z</time>
      </trkpt>
      <trkpt lat="42.96114" lon="1.09667">
        <ele>483</ele>
        <time>2025-09-20T11:25:26.000Z</time>
      </trkpt>
      <trkpt lat="42.96117" lon="1.09673">
        <ele>483</ele>
        <time>2025-09-20T11:25:27.000Z</time>
      </trkpt>
      <trkpt lat="42.9612" lon="1.09679">
        <ele>483</ele>
        <time>2025-09-20T11:25:28.000Z</time>
      </trkpt>
      <trkpt lat="42.96123" lon="1.09685">
        <ele>483</ele>
        <time>2025-09-20T11:25:29.000Z</time>
      </trkpt>
      <trkpt lat="42.96126" lon="1.09691">
        <ele>482</ele>
        <time>2025-09-20T11:25:30.000Z</time>
      </trkpt>
      <trkpt lat="42.96129" lon="1.09698">
        <ele>482</ele>
        <time>2025-09-20T11:25:31.000Z</time>
      </trkpt>
      <trkpt lat="42.96131" lon="1.09704">
        <ele>482</ele>
        <time>2025-09-20T11:25:32.000Z</time>
      </trkpt>
      <trkpt lat="42.96133" lon="1.09711">
        <ele>482</ele>
        <time>2025-09-20T11:25:33.000Z</time>
      </trkpt>
      <trkpt lat="42.96136" lon="1.09719">
        <ele>482</ele>
        <time>2025-09-20T11:25:34.000Z</time>
      </trkpt>
      <trkpt lat="42.96139" lon="1.09726">
        <ele>482</ele>
        <time>2025-09-20T11:25:35.000Z</time>
      </trkpt>
      <trkpt lat="42.96142" lon="1.09733">
        <ele>482</ele>
        <time>2025-09-20T11:25:36.000Z</time>
      </trkpt>
      <trkpt lat="42.96144" lon="1.09741">
        <ele>482</ele>
        <time>2025-09-20T11:25:37.000Z</time>
      </trkpt>
      <trkpt lat="42.96148" lon="1.09748">
        <ele>482</ele>
        <time>2025-09-20T11:25:38.000Z</time>
      </trkpt>
      <trkpt lat="42.96151" lon="1.09754">
        <ele>482</ele>
        <time>2025-09-20T11:25:39.000Z</time>
      </trkpt>
      <trkpt lat="42.96155" lon="1.09761">
        <ele>482</ele>
        <time>2025-09-20T11:25:40.000Z</time>
      </trkpt>
      <trkpt lat="42.9616" lon="1.09766">
        <ele>481</ele>
        <time>2025-09-20T11:25:41.000Z</time>
      </trkpt>
      <trkpt lat="42.96166" lon="1.09771">
        <ele>480</ele>
        <time>2025-09-20T11:25:42.000Z</time>
      </trkpt>
      <trkpt lat="42.96171" lon="1.09778">
        <ele>480</ele>
        <time>2025-09-20T11:25:43.000Z</time>
      </trkpt>
      <trkpt lat="42.96176" lon="1.09785">
        <ele>479</ele>
        <time>2025-09-20T11:25:44.000Z</time>
      </trkpt>
      <trkpt lat="42.96181" lon="1.09792">
        <ele>479</ele>
        <time>2025-09-20T11:25:45.000Z</time>
      </trkpt>
      <trkpt lat="42.96185" lon="1.09798">
        <ele>479</ele>
        <time>2025-09-20T11:25:46.000Z</time>
      </trkpt>
      <trkpt lat="42.96188" lon="1.09804">
        <ele>480</ele>
        <time>2025-09-20T11:25:47.000Z</time>
      </trkpt>
      <trkpt lat="42.96191" lon="1.09812">
        <ele>480</ele>
        <time>2025-09-20T11:25:48.000Z</time>
      </trkpt>
      <trkpt lat="42.96195" lon="1.09818">
        <ele>480</ele>
        <time>2025-09-20T11:25:49.000Z</time>
      </trkpt>
      <trkpt lat="42.96199" lon="1.09825">
        <ele>480</ele>
        <time>2025-09-20T11:25:50.000Z</time>
      </trkpt>
      <trkpt lat="42.96203" lon="1.09831">
        <ele>480</ele>
        <time>2025-09-20T11:25:51.000Z</time>
      </trkpt>
      <trkpt lat="42.96207" lon="1.09837">
        <ele>480</ele>
        <time>2025-09-20T11:25:52.000Z</time>
      </trkpt>
      <trkpt lat="42.96211" lon="1.09842">
        <ele>480</ele>
        <time>2025-09-20T11:25:53.000Z</time>
      </trkpt>
      <trkpt lat="42.96215" lon="1.09849">
        <ele>480</ele>
        <time>2025-09-20T11:25:54.000Z</time>
      </trkpt>
      <trkpt lat="42.9622" lon="1.09855">
        <ele>480</ele>
        <time>2025-09-20T11:25:55.000Z</time>
      </trkpt>
      <trkpt lat="42.96224" lon="1.09861">
        <ele>479</ele>
        <time>2025-09-20T11:25:56.000Z</time>
      </trkpt>
      <trkpt lat="42.96229" lon="1.09867">
        <ele>479</ele>
        <time>2025-09-20T11:25:57.000Z</time>
      </trkpt>
      <trkpt lat="42.96233" lon="1.09874">
        <ele>479</ele>
        <time>2025-09-20T11:25:58.000Z</time>
      </trkpt>
      <trkpt lat="42.96238" lon="1.0988">
        <ele>479</ele>
        <time>2025-09-20T11:25:59.000Z</time>
      </trkpt>
      <trkpt lat="42.96242" lon="1.09886">
        <ele>478</ele>
        <time>2025-09-20T11:26:00.000Z</time>
      </trkpt>
      <trkpt lat="42.96247" lon="1.09892">
        <ele>478</ele>
        <time>2025-09-20T11:26:01.000Z</time>
      </trkpt>
      <trkpt lat="42.96251" lon="1.09899">
        <ele>478</ele>
        <time>2025-09-20T11:26:02.000Z</time>
      </trkpt>
      <trkpt lat="42.96255" lon="1.09906">
        <ele>478</ele>
        <time>2025-09-20T11:26:03.000Z</time>
      </trkpt>
      <trkpt lat="42.96259" lon="1.09913">
        <ele>478</ele>
        <time>2025-09-20T11:26:04.000Z</time>
      </trkpt>
      <trkpt lat="42.96263" lon="1.0992">
        <ele>478</ele>
        <time>2025-09-20T11:26:05.000Z</time>
      </trkpt>
      <trkpt lat="42.96267" lon="1.09926">
        <ele>478</ele>
        <time>2025-09-20T11:26:06.000Z</time>
      </trkpt>
      <trkpt lat="42.96271" lon="1.09932">
        <ele>478</ele>
        <time>2025-09-20T11:26:07.000Z</time>
      </trkpt>
      <trkpt lat="42.96275" lon="1.09938">
        <ele>478</ele>
        <time>2025-09-20T11:26:08.000Z</time>
      </trkpt>
      <trkpt lat="42.96279" lon="1.09943">
        <ele>478</ele>
        <time>2025-09-20T11:26:09.000Z</time>
      </trkpt>
      <trkpt lat="42.96283" lon="1.09949">
        <ele>478</ele>
        <time>2025-09-20T11:26:10.000Z</time>
      </trkpt>
      <trkpt lat="42.96286" lon="1.09956">
        <ele>478</ele>
        <time>2025-09-20T11:26:11.000Z</time>
      </trkpt>
      <trkpt lat="42.96289" lon="1.09962">
        <ele>478</ele>
        <time>2025-09-20T11:26:12.000Z</time>
      </trkpt>
      <trkpt lat="42.96292" lon="1.09969">
        <ele>478</ele>
        <time>2025-09-20T11:26:13.000Z</time>
      </trkpt>
      <trkpt lat="42.96293" lon="1.09977">
        <ele>478</ele>
        <time>2025-09-20T11:26:14.000Z</time>
      </trkpt>
      <trkpt lat="42.96294" lon="1.09985">
        <ele>479</ele>
        <time>2025-09-20T11:26:15.000Z</time>
      </trkpt>
      <trkpt lat="42.96294" lon="1.09993">
        <ele>478</ele>
        <time>2025-09-20T11:26:16.000Z</time>
      </trkpt>
      <trkpt lat="42.96295" lon="1.10001">
        <ele>478</ele>
        <time>2025-09-20T11:26:17.000Z</time>
      </trkpt>
      <trkpt lat="42.96295" lon="1.1001">
        <ele>479</ele>
        <time>2025-09-20T11:26:18.000Z</time>
      </trkpt>
      <trkpt lat="42.96294" lon="1.10018">
        <ele>479</ele>
        <time>2025-09-20T11:26:19.000Z</time>
      </trkpt>
      <trkpt lat="42.96294" lon="1.10026">
        <ele>479</ele>
        <time>2025-09-20T11:26:20.000Z</time>
      </trkpt>
      <trkpt lat="42.96294" lon="1.10033">
        <ele>479</ele>
        <time>2025-09-20T11:26:21.000Z</time>
      </trkpt>
      <trkpt lat="42.96295" lon="1.10041">
        <ele>478</ele>
        <time>2025-09-20T11:26:22.000Z</time>
      </trkpt>
      <trkpt lat="42.96295" lon="1.10049">
        <ele>478</ele>
        <time>2025-09-20T11:26:23.000Z</time>
      </trkpt>
      <trkpt lat="42.96295" lon="1.10055">
        <ele>478</ele>
        <time>2025-09-20T11:26:24.000Z</time>
      </trkpt>
      <trkpt lat="42.96295" lon="1.10062">
        <ele>477</ele>
        <time>2025-09-20T11:26:25.000Z</time>
      </trkpt>
      <trkpt lat="42.96295" lon="1.10069">
        <ele>477</ele>
        <time>2025-09-20T11:26:26.000Z</time>
      </trkpt>
      <trkpt lat="42.96295" lon="1.10076">
        <ele>477</ele>
        <time>2025-09-20T11:26:27.000Z</time>
      </trkpt>
      <trkpt lat="42.96294" lon="1.10083">
        <ele>477</ele>
        <time>2025-09-20T11:26:28.000Z</time>
      </trkpt>
      <trkpt lat="42.96293" lon="1.10089">
        <ele>477</ele>
        <time>2025-09-20T11:26:29.000Z</time>
      </trkpt>
      <trkpt lat="42.96293" lon="1.10094">
        <ele>477</ele>
        <time>2025-09-20T11:26:30.000Z</time>
      </trkpt>
      <trkpt lat="42.96292" lon="1.10099">
        <ele>477</ele>
        <time>2025-09-20T11:26:31.000Z</time>
      </trkpt>
      <trkpt lat="42.96292" lon="1.10104">
        <ele>478</ele>
        <time>2025-09-20T11:26:32.000Z</time>
      </trkpt>
      <trkpt lat="42.96292" lon="1.10108">
        <ele>478</ele>
        <time>2025-09-20T11:26:33.000Z</time>
      </trkpt>
      <trkpt lat="42.96292" lon="1.10113">
        <ele>478</ele>
        <time>2025-09-20T11:26:34.000Z</time>
      </trkpt>
      <trkpt lat="42.96293" lon="1.10116">
        <ele>479</ele>
        <time>2025-09-20T11:26:35.000Z</time>
      </trkpt>
      <trkpt lat="42.96293" lon="1.10118">
        <ele>479</ele>
        <time>2025-09-20T11:26:36.000Z</time>
      </trkpt>
      <trkpt lat="42.96293" lon="1.1012">
        <ele>478</ele>
        <time>2025-09-20T11:26:37.000Z</time>
      </trkpt>
      <trkpt lat="42.96294" lon="1.10123">
        <ele>478</ele>
        <time>2025-09-20T11:26:38.000Z</time>
      </trkpt>
      <trkpt lat="42.96295" lon="1.10125">
        <ele>478</ele>
        <time>2025-09-20T11:26:39.000Z</time>
      </trkpt>
      <trkpt lat="42.96296" lon="1.10128">
        <ele>478</ele>
        <time>2025-09-20T11:26:40.000Z</time>
      </trkpt>
      <trkpt lat="42.96296" lon="1.10129">
        <ele>479</ele>
        <time>2025-09-20T11:26:41.000Z</time>
      </trkpt>
      <trkpt lat="42.96297" lon="1.10129">
        <ele>479</ele>
        <time>2025-09-20T11:26:42.000Z</time>
      </trkpt>
      <trkpt lat="42.96297" lon="1.10129">
        <ele>479</ele>
        <time>2025-09-20T11:26:43.000Z</time>
      </trkpt>
      <trkpt lat="42.96298" lon="1.1013">
        <ele>478</ele>
        <time>2025-09-20T11:26:44.000Z</time>
      </trkpt>
      <trkpt lat="42.96299" lon="1.10132">
        <ele>478</ele>
        <time>2025-09-20T11:26:45.000Z</time>
      </trkpt>
      <trkpt lat="42.96299" lon="1.10134">
        <ele>477</ele>
        <time>2025-09-20T11:26:46.000Z</time>
      </trkpt>
      <trkpt lat="42.963" lon="1.10136">
        <ele>477</ele>
        <time>2025-09-20T11:26:47.000Z</time>
      </trkpt>
      <trkpt lat="42.96301" lon="1.10137">
        <ele>477</ele>
        <time>2025-09-20T11:26:48.000Z</time>
      </trkpt>
      <trkpt lat="42.96302" lon="1.10139">
        <ele>477</ele>
        <time>2025-09-20T11:26:49.000Z</time>
      </trkpt>
      <trkpt lat="42.96303" lon="1.10139">
        <ele>477</ele>
        <time>2025-09-20T11:26:50.000Z</time>
      </trkpt>
      <trkpt lat="42.96304" lon="1.10141">
        <ele>477</ele>
        <time>2025-09-20T11:26:51.000Z</time>
      </trkpt>
      <trkpt lat="42.96306" lon="1.10143">
        <ele>478</ele>
        <time>2025-09-20T11:26:52.000Z</time>
      </trkpt>
      <trkpt lat="42.96307" lon="1.10144">
        <ele>477</ele>
        <time>2025-09-20T11:26:53.000Z</time>
      </trkpt>
      <trkpt lat="42.96308" lon="1.10145">
        <ele>477</ele>
        <time>2025-09-20T11:26:54.000Z</time>
      </trkpt>
      <trkpt lat="42.96309" lon="1.10146">
        <ele>477</ele>
        <time>2025-09-20T11:26:55.000Z</time>
      </trkpt>
      <trkpt lat="42.96309" lon="1.10146">
        <ele>478</ele>
        <time>2025-09-20T11:26:56.000Z</time>
      </trkpt>
      <trkpt lat="42.9631" lon="1.10147">
        <ele>478</ele>
        <time>2025-09-20T11:26:57.000Z</time>
      </trkpt>
      <trkpt lat="42.96311" lon="1.10148">
        <ele>478</ele>
        <time>2025-09-20T11:26:58.000Z</time>
      </trkpt>
      <trkpt lat="42.96311" lon="1.10149">
        <ele>478</ele>
        <time>2025-09-20T11:26:59.000Z</time>
      </trkpt>
      <trkpt lat="42.96312" lon="1.1015">
        <ele>478</ele>
        <time>2025-09-20T11:27:00.000Z</time>
      </trkpt>
      <trkpt lat="42.96312" lon="1.1015">
        <ele>478</ele>
        <time>2025-09-20T11:27:01.000Z</time>
      </trkpt>
      <trkpt lat="42.96313" lon="1.10152">
        <ele>478</ele>
        <time>2025-09-20T11:27:02.000Z</time>
      </trkpt>
      <trkpt lat="42.96314" lon="1.10154">
        <ele>478</ele>
        <time>2025-09-20T11:27:03.000Z</time>
      </trkpt>
      <trkpt lat="42.96316" lon="1.10154">
        <ele>477</ele>
        <time>2025-09-20T11:27:04.000Z</time>
      </trkpt>
      <trkpt lat="42.96317" lon="1.10155">
        <ele>477</ele>
        <time>2025-09-20T11:27:05.000Z</time>
      </trkpt>
      <trkpt lat="42.96319" lon="1.10157">
        <ele>477</ele>
        <time>2025-09-20T11:27:06.000Z</time>
      </trkpt>
      <trkpt lat="42.96322" lon="1.1016">
        <ele>477</ele>
        <time>2025-09-20T11:27:07.000Z</time>
      </trkpt>
      <trkpt lat="42.96325" lon="1.10162">
        <ele>477</ele>
        <time>2025-09-20T11:27:08.000Z</time>
      </trkpt>
      <trkpt lat="42.96329" lon="1.10166">
        <ele>477</ele>
        <time>2025-09-20T11:27:09.000Z</time>
      </trkpt>
      <trkpt lat="42.96332" lon="1.1017">
        <ele>477</ele>
        <time>2025-09-20T11:27:10.000Z</time>
      </trkpt>
      <trkpt lat="42.96335" lon="1.10174">
        <ele>477</ele>
        <time>2025-09-20T11:27:11.000Z</time>
      </trkpt>
      <trkpt lat="42.96338" lon="1.10178">
        <ele>477</ele>
        <time>2025-09-20T11:27:12.000Z</time>
      </trkpt>
      <trkpt lat="42.96341" lon="1.10182">
        <ele>476</ele>
        <time>2025-09-20T11:27:13.000Z</time>
      </trkpt>
      <trkpt lat="42.96343" lon="1.10187">
        <ele>476</ele>
        <time>2025-09-20T11:27:14.000Z</time>
      </trkpt>
      <trkpt lat="42.96345" lon="1.10191">
        <ele>476</ele>
        <time>2025-09-20T11:27:15.000Z</time>
      </trkpt>
      <trkpt lat="42.96347" lon="1.10194">
        <ele>475</ele>
        <time>2025-09-20T11:27:16.000Z</time>
      </trkpt>
      <trkpt lat="42.96348" lon="1.10198">
        <ele>476</ele>
        <time>2025-09-20T11:27:17.000Z</time>
      </trkpt>
      <trkpt lat="42.9635" lon="1.10202">
        <ele>476</ele>
        <time>2025-09-20T11:27:18.000Z</time>
      </trkpt>
      <trkpt lat="42.96352" lon="1.10205">
        <ele>476</ele>
        <time>2025-09-20T11:27:19.000Z</time>
      </trkpt>
      <trkpt lat="42.96354" lon="1.10208">
        <ele>476</ele>
        <time>2025-09-20T11:27:20.000Z</time>
      </trkpt>
      <trkpt lat="42.96357" lon="1.10211">
        <ele>476</ele>
        <time>2025-09-20T11:27:21.000Z</time>
      </trkpt>
      <trkpt lat="42.96359" lon="1.10213">
        <ele>476</ele>
        <time>2025-09-20T11:27:22.000Z</time>
      </trkpt>
      <trkpt lat="42.96361" lon="1.10216">
        <ele>476</ele>
        <time>2025-09-20T11:27:23.000Z</time>
      </trkpt>
      <trkpt lat="42.96363" lon="1.10218">
        <ele>476</ele>
        <time>2025-09-20T11:27:24.000Z</time>
      </trkpt>
      <trkpt lat="42.96364" lon="1.1022">
        <ele>476</ele>
        <time>2025-09-20T11:27:25.000Z</time>
      </trkpt>
      <trkpt lat="42.96365" lon="1.10223">
        <ele>476</ele>
        <time>2025-09-20T11:27:26.000Z</time>
      </trkpt>
      <trkpt lat="42.96366" lon="1.10227">
        <ele>477</ele>
        <time>2025-09-20T11:27:27.000Z</time>
      </trkpt>
      <trkpt lat="42.96367" lon="1.10229">
        <ele>477</ele>
        <time>2025-09-20T11:27:28.000Z</time>
      </trkpt>
      <trkpt lat="42.9637" lon="1.10231">
        <ele>477</ele>
        <time>2025-09-20T11:27:29.000Z</time>
      </trkpt>
      <trkpt lat="42.96371" lon="1.10233">
        <ele>477</ele>
        <time>2025-09-20T11:27:30.000Z</time>
      </trkpt>
      <trkpt lat="42.96373" lon="1.10234">
        <ele>477</ele>
        <time>2025-09-20T11:27:31.000Z</time>
      </trkpt>
      <trkpt lat="42.96374" lon="1.10235">
        <ele>477</ele>
        <time>2025-09-20T11:27:32.000Z</time>
      </trkpt>
      <trkpt lat="42.96376" lon="1.10236">
        <ele>478</ele>
        <time>2025-09-20T11:27:33.000Z</time>
      </trkpt>
      <trkpt lat="42.96378" lon="1.10238">
        <ele>479</ele>
        <time>2025-09-20T11:27:34.000Z</time>
      </trkpt>
      <trkpt lat="42.9638" lon="1.10239">
        <ele>480</ele>
        <time>2025-09-20T11:27:35.000Z</time>
      </trkpt>
      <trkpt lat="42.96382" lon="1.1024">
        <ele>480</ele>
        <time>2025-09-20T11:27:36.000Z</time>
      </trkpt>
      <trkpt lat="42.96383" lon="1.10242">
        <ele>480</ele>
        <time>2025-09-20T11:27:37.000Z</time>
      </trkpt>
      <trkpt lat="42.96384" lon="1.10245">
        <ele>480</ele>
        <time>2025-09-20T11:27:38.000Z</time>
      </trkpt>
      <trkpt lat="42.96386" lon="1.10247">
        <ele>480</ele>
        <time>2025-09-20T11:27:39.000Z</time>
      </trkpt>
      <trkpt lat="42.96389" lon="1.1025">
        <ele>480</ele>
        <time>2025-09-20T11:27:40.000Z</time>
      </trkpt>
      <trkpt lat="42.96391" lon="1.10254">
        <ele>479</ele>
        <time>2025-09-20T11:27:41.000Z</time>
      </trkpt>
      <trkpt lat="42.96393" lon="1.10257">
        <ele>479</ele>
        <time>2025-09-20T11:27:42.000Z</time>
      </trkpt>
      <trkpt lat="42.96395" lon="1.10259">
        <ele>479</ele>
        <time>2025-09-20T11:27:43.000Z</time>
      </trkpt>
      <trkpt lat="42.96397" lon="1.10261">
        <ele>479</ele>
        <time>2025-09-20T11:27:44.000Z</time>
      </trkpt>
      <trkpt lat="42.964" lon="1.10265">
        <ele>476</ele>
        <time>2025-09-20T11:27:45.000Z</time>
      </trkpt>
      <trkpt lat="42.96403" lon="1.10271">
        <ele>475</ele>
        <time>2025-09-20T11:27:46.000Z</time>
      </trkpt>
      <trkpt lat="42.96407" lon="1.10278">
        <ele>474</ele>
        <time>2025-09-20T11:27:47.000Z</time>
      </trkpt>
      <trkpt lat="42.96412" lon="1.10283">
        <ele>473</ele>
        <time>2025-09-20T11:27:48.000Z</time>
      </trkpt>
      <trkpt lat="42.96416" lon="1.10287">
        <ele>473</ele>
        <time>2025-09-20T11:27:49.000Z</time>
      </trkpt>
      <trkpt lat="42.96418" lon="1.10292">
        <ele>474</ele>
        <time>2025-09-20T11:27:50.000Z</time>
      </trkpt>
      <trkpt lat="42.96419" lon="1.10296">
        <ele>474</ele>
        <time>2025-09-20T11:27:51.000Z</time>
      </trkpt>
      <trkpt lat="42.96421" lon="1.10298">
        <ele>474</ele>
        <time>2025-09-20T11:27:52.000Z</time>
      </trkpt>
      <trkpt lat="42.96423" lon="1.103">
        <ele>473</ele>
        <time>2025-09-20T11:27:53.000Z</time>
      </trkpt>
      <trkpt lat="42.96424" lon="1.10304">
        <ele>473</ele>
        <time>2025-09-20T11:27:54.000Z</time>
      </trkpt>
      <trkpt lat="42.96425" lon="1.10307">
        <ele>474</ele>
        <time>2025-09-20T11:27:55.000Z</time>
      </trkpt>
      <trkpt lat="42.96426" lon="1.10311">
        <ele>474</ele>
        <time>2025-09-20T11:27:56.000Z</time>
      </trkpt>
      <trkpt lat="42.96428" lon="1.10316">
        <ele>474</ele>
        <time>2025-09-20T11:27:57.000Z</time>
      </trkpt>
      <trkpt lat="42.96429" lon="1.10321">
        <ele>475</ele>
        <time>2025-09-20T11:27:58.000Z</time>
      </trkpt>
      <trkpt lat="42.9643" lon="1.10325">
        <ele>475</ele>
        <time>2025-09-20T11:27:59.000Z</time>
      </trkpt>
      <trkpt lat="42.9643" lon="1.10328">
        <ele>475</ele>
        <time>2025-09-20T11:28:00.000Z</time>
      </trkpt>
      <trkpt lat="42.96431" lon="1.10333">
        <ele>475</ele>
        <time>2025-09-20T11:28:01.000Z</time>
      </trkpt>
      <trkpt lat="42.96431" lon="1.10338">
        <ele>476</ele>
        <time>2025-09-20T11:28:02.000Z</time>
      </trkpt>
      <trkpt lat="42.96431" lon="1.10343">
        <ele>476</ele>
        <time>2025-09-20T11:28:03.000Z</time>
      </trkpt>
      <trkpt lat="42.96431" lon="1.10348">
        <ele>475</ele>
        <time>2025-09-20T11:28:04.000Z</time>
      </trkpt>
      <trkpt lat="42.96432" lon="1.10352">
        <ele>476</ele>
        <time>2025-09-20T11:28:05.000Z</time>
      </trkpt>
      <trkpt lat="42.96432" lon="1.10356">
        <ele>476</ele>
        <time>2025-09-20T11:28:06.000Z</time>
      </trkpt>
      <trkpt lat="42.96433" lon="1.1036">
        <ele>477</ele>
        <time>2025-09-20T11:28:07.000Z</time>
      </trkpt>
      <trkpt lat="42.96434" lon="1.10362">
        <ele>477</ele>
        <time>2025-09-20T11:28:08.000Z</time>
      </trkpt>
      <trkpt lat="42.96434" lon="1.10363">
        <ele>477</ele>
        <time>2025-09-20T11:28:09.000Z</time>
      </trkpt>
      <trkpt lat="42.96435" lon="1.10366">
        <ele>477</ele>
        <time>2025-09-20T11:28:10.000Z</time>
      </trkpt>
      <trkpt lat="42.96435" lon="1.10371">
        <ele>477</ele>
        <time>2025-09-20T11:28:11.000Z</time>
      </trkpt>
      <trkpt lat="42.96436" lon="1.10376">
        <ele>477</ele>
        <time>2025-09-20T11:28:12.000Z</time>
      </trkpt>
      <trkpt lat="42.96437" lon="1.1038">
        <ele>477</ele>
        <time>2025-09-20T11:28:13.000Z</time>
      </trkpt>
      <trkpt lat="42.96438" lon="1.10386">
        <ele>477</ele>
        <time>2025-09-20T11:28:14.000Z</time>
      </trkpt>
      <trkpt lat="42.9644" lon="1.10391">
        <ele>478</ele>
        <time>2025-09-20T11:28:15.000Z</time>
      </trkpt>
      <trkpt lat="42.96441" lon="1.10395">
        <ele>478</ele>
        <time>2025-09-20T11:28:16.000Z</time>
      </trkpt>
      <trkpt lat="42.96441" lon="1.10399">
        <ele>478</ele>
        <time>2025-09-20T11:28:17.000Z</time>
      </trkpt>
      <trkpt lat="42.96443" lon="1.10404">
        <ele>478</ele>
        <time>2025-09-20T11:28:18.000Z</time>
      </trkpt>
      <trkpt lat="42.96445" lon="1.10407">
        <ele>478</ele>
        <time>2025-09-20T11:28:19.000Z</time>
      </trkpt>
      <trkpt lat="42.96447" lon="1.10411">
        <ele>478</ele>
        <time>2025-09-20T11:28:20.000Z</time>
      </trkpt>
      <trkpt lat="42.96448" lon="1.10416">
        <ele>478</ele>
        <time>2025-09-20T11:28:21.000Z</time>
      </trkpt>
      <trkpt lat="42.9645" lon="1.1042">
        <ele>478</ele>
        <time>2025-09-20T11:28:22.000Z</time>
      </trkpt>
      <trkpt lat="42.96451" lon="1.10424">
        <ele>478</ele>
        <time>2025-09-20T11:28:23.000Z</time>
      </trkpt>
      <trkpt lat="42.96452" lon="1.10428">
        <ele>479</ele>
        <time>2025-09-20T11:28:24.000Z</time>
      </trkpt>
      <trkpt lat="42.96454" lon="1.10431">
        <ele>479</ele>
        <time>2025-09-20T11:28:25.000Z</time>
      </trkpt>
      <trkpt lat="42.96455" lon="1.10434">
        <ele>479</ele>
        <time>2025-09-20T11:28:26.000Z</time>
      </trkpt>
      <trkpt lat="42.96456" lon="1.10438">
        <ele>479</ele>
        <time>2025-09-20T11:28:27.000Z</time>
      </trkpt>
      <trkpt lat="42.96458" lon="1.10443">
        <ele>479</ele>
        <time>2025-09-20T11:28:28.000Z</time>
      </trkpt>
      <trkpt lat="42.96459" lon="1.10447">
        <ele>479</ele>
        <time>2025-09-20T11:28:29.000Z</time>
      </trkpt>
      <trkpt lat="42.9646" lon="1.10451">
        <ele>479</ele>
        <time>2025-09-20T11:28:30.000Z</time>
      </trkpt>
      <trkpt lat="42.96462" lon="1.10456">
        <ele>479</ele>
        <time>2025-09-20T11:28:31.000Z</time>
      </trkpt>
      <trkpt lat="42.96463" lon="1.1046">
        <ele>479</ele>
        <time>2025-09-20T11:28:32.000Z</time>
      </trkpt>
      <trkpt lat="42.96464" lon="1.10463">
        <ele>479</ele>
        <time>2025-09-20T11:28:33.000Z</time>
      </trkpt>
      <trkpt lat="42.96466" lon="1.10465">
        <ele>479</ele>
        <time>2025-09-20T11:28:34.000Z</time>
      </trkpt>
      <trkpt lat="42.96466" lon="1.10468">
        <ele>479</ele>
        <time>2025-09-20T11:28:35.000Z</time>
      </trkpt>
      <trkpt lat="42.96467" lon="1.1047">
        <ele>479</ele>
        <time>2025-09-20T11:28:36.000Z</time>
      </trkpt>
      <trkpt lat="42.96467" lon="1.10472">
        <ele>478</ele>
        <time>2025-09-20T11:28:37.000Z</time>
      </trkpt>
      <trkpt lat="42.96467" lon="1.10474">
        <ele>478</ele>
        <time>2025-09-20T11:28:38.000Z</time>
      </trkpt>
      <trkpt lat="42.96469" lon="1.10476">
        <ele>478</ele>
        <time>2025-09-20T11:28:39.000Z</time>
      </trkpt>
      <trkpt lat="42.9647" lon="1.10479">
        <ele>478</ele>
        <time>2025-09-20T11:28:40.000Z</time>
      </trkpt>
      <trkpt lat="42.96471" lon="1.10483">
        <ele>478</ele>
        <time>2025-09-20T11:28:41.000Z</time>
      </trkpt>
      <trkpt lat="42.96472" lon="1.10486">
        <ele>477</ele>
        <time>2025-09-20T11:28:42.000Z</time>
      </trkpt>
      <trkpt lat="42.96474" lon="1.1049">
        <ele>477</ele>
        <time>2025-09-20T11:28:43.000Z</time>
      </trkpt>
      <trkpt lat="42.96476" lon="1.10495">
        <ele>477</ele>
        <time>2025-09-20T11:28:44.000Z</time>
      </trkpt>
      <trkpt lat="42.96478" lon="1.105">
        <ele>476</ele>
        <time>2025-09-20T11:28:45.000Z</time>
      </trkpt>
      <trkpt lat="42.9648" lon="1.10504">
        <ele>476</ele>
        <time>2025-09-20T11:28:46.000Z</time>
      </trkpt>
      <trkpt lat="42.96482" lon="1.10509">
        <ele>476</ele>
        <time>2025-09-20T11:28:47.000Z</time>
      </trkpt>
      <trkpt lat="42.96484" lon="1.10515">
        <ele>477</ele>
        <time>2025-09-20T11:28:48.000Z</time>
      </trkpt>
      <trkpt lat="42.96486" lon="1.10521">
        <ele>476</ele>
        <time>2025-09-20T11:28:49.000Z</time>
      </trkpt>
      <trkpt lat="42.96488" lon="1.10528">
        <ele>476</ele>
        <time>2025-09-20T11:28:50.000Z</time>
      </trkpt>
      <trkpt lat="42.9649" lon="1.10536">
        <ele>476</ele>
        <time>2025-09-20T11:28:51.000Z</time>
      </trkpt>
      <trkpt lat="42.96491" lon="1.10545">
        <ele>476</ele>
        <time>2025-09-20T11:28:52.000Z</time>
      </trkpt>
      <trkpt lat="42.96493" lon="1.10554">
        <ele>476</ele>
        <time>2025-09-20T11:28:53.000Z</time>
      </trkpt>
      <trkpt lat="42.96495" lon="1.10564">
        <ele>475</ele>
        <time>2025-09-20T11:28:54.000Z</time>
      </trkpt>
      <trkpt lat="42.96497" lon="1.10573">
        <ele>475</ele>
        <time>2025-09-20T11:28:55.000Z</time>
      </trkpt>
      <trkpt lat="42.96499" lon="1.10582">
        <ele>475</ele>
        <time>2025-09-20T11:28:56.000Z</time>
      </trkpt>
      <trkpt lat="42.96501" lon="1.1059">
        <ele>474</ele>
        <time>2025-09-20T11:28:57.000Z</time>
      </trkpt>
      <trkpt lat="42.96504" lon="1.10598">
        <ele>474</ele>
        <time>2025-09-20T11:28:58.000Z</time>
      </trkpt>
      <trkpt lat="42.96506" lon="1.10607">
        <ele>474</ele>
        <time>2025-09-20T11:28:59.000Z</time>
      </trkpt>
      <trkpt lat="42.96508" lon="1.10615">
        <ele>474</ele>
        <time>2025-09-20T11:29:00.000Z</time>
      </trkpt>
      <trkpt lat="42.96511" lon="1.10622">
        <ele>473</ele>
        <time>2025-09-20T11:29:01.000Z</time>
      </trkpt>
      <trkpt lat="42.96514" lon="1.10629">
        <ele>473</ele>
        <time>2025-09-20T11:29:02.000Z</time>
      </trkpt>
      <trkpt lat="42.96517" lon="1.10636">
        <ele>473</ele>
        <time>2025-09-20T11:29:03.000Z</time>
      </trkpt>
      <trkpt lat="42.96519" lon="1.10643">
        <ele>473</ele>
        <time>2025-09-20T11:29:04.000Z</time>
      </trkpt>
      <trkpt lat="42.96522" lon="1.10649">
        <ele>474</ele>
        <time>2025-09-20T11:29:05.000Z</time>
      </trkpt>
      <trkpt lat="42.96525" lon="1.10656">
        <ele>474</ele>
        <time>2025-09-20T11:29:06.000Z</time>
      </trkpt>
      <trkpt lat="42.96527" lon="1.10662">
        <ele>474</ele>
        <time>2025-09-20T11:29:07.000Z</time>
      </trkpt>
      <trkpt lat="42.9653" lon="1.10668">
        <ele>474</ele>
        <time>2025-09-20T11:29:08.000Z</time>
      </trkpt>
      <trkpt lat="42.96532" lon="1.10675">
        <ele>474</ele>
        <time>2025-09-20T11:29:09.000Z</time>
      </trkpt>
      <trkpt lat="42.96535" lon="1.10681">
        <ele>474</ele>
        <time>2025-09-20T11:29:10.000Z</time>
      </trkpt>
      <trkpt lat="42.96537" lon="1.10686">
        <ele>475</ele>
        <time>2025-09-20T11:29:11.000Z</time>
      </trkpt>
      <trkpt lat="42.96539" lon="1.10692">
        <ele>474</ele>
        <time>2025-09-20T11:29:12.000Z</time>
      </trkpt>
      <trkpt lat="42.96541" lon="1.10697">
        <ele>474</ele>
        <time>2025-09-20T11:29:13.000Z</time>
      </trkpt>
      <trkpt lat="42.96543" lon="1.10703">
        <ele>474</ele>
        <time>2025-09-20T11:29:14.000Z</time>
      </trkpt>
      <trkpt lat="42.96543" lon="1.10709">
        <ele>474</ele>
        <time>2025-09-20T11:29:15.000Z</time>
      </trkpt>
      <trkpt lat="42.96544" lon="1.10716">
        <ele>474</ele>
        <time>2025-09-20T11:29:16.000Z</time>
      </trkpt>
      <trkpt lat="42.96546" lon="1.10723">
        <ele>474</ele>
        <time>2025-09-20T11:29:17.000Z</time>
      </trkpt>
      <trkpt lat="42.96547" lon="1.10728">
        <ele>474</ele>
        <time>2025-09-20T11:29:18.000Z</time>
      </trkpt>
      <trkpt lat="42.96549" lon="1.10733">
        <ele>475</ele>
        <time>2025-09-20T11:29:19.000Z</time>
      </trkpt>
      <trkpt lat="42.96552" lon="1.10739">
        <ele>475</ele>
        <time>2025-09-20T11:29:20.000Z</time>
      </trkpt>
      <trkpt lat="42.96554" lon="1.10745">
        <ele>475</ele>
        <time>2025-09-20T11:29:21.000Z</time>
      </trkpt>
      <trkpt lat="42.96557" lon="1.10751">
        <ele>475</ele>
        <time>2025-09-20T11:29:22.000Z</time>
      </trkpt>
      <trkpt lat="42.96559" lon="1.10758">
        <ele>475</ele>
        <time>2025-09-20T11:29:23.000Z</time>
      </trkpt>
      <trkpt lat="42.96561" lon="1.10765">
        <ele>475</ele>
        <time>2025-09-20T11:29:24.000Z</time>
      </trkpt>
      <trkpt lat="42.96561" lon="1.1077">
        <ele>475</ele>
        <time>2025-09-20T11:29:25.000Z</time>
      </trkpt>
      <trkpt lat="42.96559" lon="1.10775">
        <ele>475</ele>
        <time>2025-09-20T11:29:26.000Z</time>
      </trkpt>
      <trkpt lat="42.96557" lon="1.10779">
        <ele>476</ele>
        <time>2025-09-20T11:29:27.000Z</time>
      </trkpt>
      <trkpt lat="42.96554" lon="1.10783">
        <ele>476</ele>
        <time>2025-09-20T11:29:28.000Z</time>
      </trkpt>
      <trkpt lat="42.96552" lon="1.10788">
        <ele>476</ele>
        <time>2025-09-20T11:29:29.000Z</time>
      </trkpt>
      <trkpt lat="42.9655" lon="1.10792">
        <ele>476</ele>
        <time>2025-09-20T11:29:30.000Z</time>
      </trkpt>
      <trkpt lat="42.96548" lon="1.10797">
        <ele>476</ele>
        <time>2025-09-20T11:29:31.000Z</time>
      </trkpt>
      <trkpt lat="42.96547" lon="1.10799">
        <ele>476</ele>
        <time>2025-09-20T11:29:32.000Z</time>
      </trkpt>
      <trkpt lat="42.96546" lon="1.10801">
        <ele>476</ele>
        <time>2025-09-20T11:29:33.000Z</time>
      </trkpt>
      <trkpt lat="42.96545" lon="1.10803">
        <ele>477</ele>
        <time>2025-09-20T11:29:34.000Z</time>
      </trkpt>
      <trkpt lat="42.96544" lon="1.10806">
        <ele>478</ele>
        <time>2025-09-20T11:29:35.000Z</time>
      </trkpt>
      <trkpt lat="42.96544" lon="1.10811">
        <ele>478</ele>
        <time>2025-09-20T11:29:36.000Z</time>
      </trkpt>
      <trkpt lat="42.96544" lon="1.10816">
        <ele>478</ele>
        <time>2025-09-20T11:29:37.000Z</time>
      </trkpt>
      <trkpt lat="42.96546" lon="1.1082">
        <ele>479</ele>
        <time>2025-09-20T11:29:38.000Z</time>
      </trkpt>
      <trkpt lat="42.96547" lon="1.10824">
        <ele>479</ele>
        <time>2025-09-20T11:29:39.000Z</time>
      </trkpt>
      <trkpt lat="42.96549" lon="1.10828">
        <ele>478</ele>
        <time>2025-09-20T11:29:40.000Z</time>
      </trkpt>
      <trkpt lat="42.96552" lon="1.10831">
        <ele>478</ele>
        <time>2025-09-20T11:29:41.000Z</time>
      </trkpt>
      <trkpt lat="42.96555" lon="1.10835">
        <ele>478</ele>
        <time>2025-09-20T11:29:42.000Z</time>
      </trkpt>
      <trkpt lat="42.96558" lon="1.10838">
        <ele>478</ele>
        <time>2025-09-20T11:29:43.000Z</time>
      </trkpt>
      <trkpt lat="42.96561" lon="1.10841">
        <ele>478</ele>
        <time>2025-09-20T11:29:44.000Z</time>
      </trkpt>
      <trkpt lat="42.96564" lon="1.10845">
        <ele>478</ele>
        <time>2025-09-20T11:29:45.000Z</time>
      </trkpt>
      <trkpt lat="42.96567" lon="1.10849">
        <ele>478</ele>
        <time>2025-09-20T11:29:46.000Z</time>
      </trkpt>
      <trkpt lat="42.96571" lon="1.10854">
        <ele>478</ele>
        <time>2025-09-20T11:29:47.000Z</time>
      </trkpt>
      <trkpt lat="42.96574" lon="1.10859">
        <ele>478</ele>
        <time>2025-09-20T11:29:48.000Z</time>
      </trkpt>
      <trkpt lat="42.96577" lon="1.10864">
        <ele>478</ele>
        <time>2025-09-20T11:29:49.000Z</time>
      </trkpt>
      <trkpt lat="42.96581" lon="1.10869">
        <ele>478</ele>
        <time>2025-09-20T11:29:50.000Z</time>
      </trkpt>
      <trkpt lat="42.96585" lon="1.10873">
        <ele>479</ele>
        <time>2025-09-20T11:29:51.000Z</time>
      </trkpt>
      <trkpt lat="42.9659" lon="1.10878">
        <ele>479</ele>
        <time>2025-09-20T11:29:52.000Z</time>
      </trkpt>
      <trkpt lat="42.96594" lon="1.10882">
        <ele>479</ele>
        <time>2025-09-20T11:29:53.000Z</time>
      </trkpt>
      <trkpt lat="42.96598" lon="1.10886">
        <ele>479</ele>
        <time>2025-09-20T11:29:54.000Z</time>
      </trkpt>
      <trkpt lat="42.96602" lon="1.10889">
        <ele>479</ele>
        <time>2025-09-20T11:29:55.000Z</time>
      </trkpt>
      <trkpt lat="42.96606" lon="1.10893">
        <ele>479</ele>
        <time>2025-09-20T11:29:56.000Z</time>
      </trkpt>
      <trkpt lat="42.9661" lon="1.10897">
        <ele>479</ele>
        <time>2025-09-20T11:29:57.000Z</time>
      </trkpt>
      <trkpt lat="42.96613" lon="1.10901">
        <ele>479</ele>
        <time>2025-09-20T11:29:58.000Z</time>
      </trkpt>
      <trkpt lat="42.96617" lon="1.10905">
        <ele>479</ele>
        <time>2025-09-20T11:29:59.000Z</time>
      </trkpt>
      <trkpt lat="42.96621" lon="1.1091">
        <ele>479</ele>
        <time>2025-09-20T11:30:00.000Z</time>
      </trkpt>
      <trkpt lat="42.96626" lon="1.10914">
        <ele>479</ele>
        <time>2025-09-20T11:30:01.000Z</time>
      </trkpt>
      <trkpt lat="42.9663" lon="1.10919">
        <ele>479</ele>
        <time>2025-09-20T11:30:02.000Z</time>
      </trkpt>
      <trkpt lat="42.96635" lon="1.10923">
        <ele>479</ele>
        <time>2025-09-20T11:30:03.000Z</time>
      </trkpt>
      <trkpt lat="42.9664" lon="1.10928">
        <ele>479</ele>
        <time>2025-09-20T11:30:04.000Z</time>
      </trkpt>
      <trkpt lat="42.96644" lon="1.10933">
        <ele>480</ele>
        <time>2025-09-20T11:30:05.000Z</time>
      </trkpt>
      <trkpt lat="42.96648" lon="1.10938">
        <ele>479</ele>
        <time>2025-09-20T11:30:06.000Z</time>
      </trkpt>
      <trkpt lat="42.96652" lon="1.10943">
        <ele>480</ele>
        <time>2025-09-20T11:30:07.000Z</time>
      </trkpt>
      <trkpt lat="42.96656" lon="1.10948">
        <ele>480</ele>
        <time>2025-09-20T11:30:08.000Z</time>
      </trkpt>
      <trkpt lat="42.96659" lon="1.10954">
        <ele>481</ele>
        <time>2025-09-20T11:30:09.000Z</time>
      </trkpt>
      <trkpt lat="42.96662" lon="1.1096">
        <ele>480</ele>
        <time>2025-09-20T11:30:10.000Z</time>
      </trkpt>
      <trkpt lat="42.96666" lon="1.10966">
        <ele>480</ele>
        <time>2025-09-20T11:30:11.000Z</time>
      </trkpt>
      <trkpt lat="42.96669" lon="1.10972">
        <ele>480</ele>
        <time>2025-09-20T11:30:12.000Z</time>
      </trkpt>
      <trkpt lat="42.96673" lon="1.10978">
        <ele>480</ele>
        <time>2025-09-20T11:30:13.000Z</time>
      </trkpt>
      <trkpt lat="42.96677" lon="1.10983">
        <ele>481</ele>
        <time>2025-09-20T11:30:14.000Z</time>
      </trkpt>
      <trkpt lat="42.96681" lon="1.10989">
        <ele>481</ele>
        <time>2025-09-20T11:30:15.000Z</time>
      </trkpt>
      <trkpt lat="42.96685" lon="1.10995">
        <ele>482</ele>
        <time>2025-09-20T11:30:16.000Z</time>
      </trkpt>
      <trkpt lat="42.9669" lon="1.11001">
        <ele>482</ele>
        <time>2025-09-20T11:30:17.000Z</time>
      </trkpt>
      <trkpt lat="42.96694" lon="1.11006">
        <ele>482</ele>
        <time>2025-09-20T11:30:18.000Z</time>
      </trkpt>
      <trkpt lat="42.96698" lon="1.11012">
        <ele>483</ele>
        <time>2025-09-20T11:30:19.000Z</time>
      </trkpt>
      <trkpt lat="42.96702" lon="1.11018">
        <ele>483</ele>
        <time>2025-09-20T11:30:20.000Z</time>
      </trkpt>
      <trkpt lat="42.96705" lon="1.11024">
        <ele>483</ele>
        <time>2025-09-20T11:30:21.000Z</time>
      </trkpt>
      <trkpt lat="42.96708" lon="1.11031">
        <ele>483</ele>
        <time>2025-09-20T11:30:22.000Z</time>
      </trkpt>
      <trkpt lat="42.96711" lon="1.11039">
        <ele>483</ele>
        <time>2025-09-20T11:30:23.000Z</time>
      </trkpt>
      <trkpt lat="42.96714" lon="1.11045">
        <ele>484</ele>
        <time>2025-09-20T11:30:24.000Z</time>
      </trkpt>
      <trkpt lat="42.96717" lon="1.11052">
        <ele>485</ele>
        <time>2025-09-20T11:30:25.000Z</time>
      </trkpt>
      <trkpt lat="42.9672" lon="1.11058">
        <ele>485</ele>
        <time>2025-09-20T11:30:26.000Z</time>
      </trkpt>
      <trkpt lat="42.96724" lon="1.11063">
        <ele>484</ele>
        <time>2025-09-20T11:30:27.000Z</time>
      </trkpt>
      <trkpt lat="42.96728" lon="1.11069">
        <ele>485</ele>
        <time>2025-09-20T11:30:28.000Z</time>
      </trkpt>
      <trkpt lat="42.96731" lon="1.11074">
        <ele>485</ele>
        <time>2025-09-20T11:30:29.000Z</time>
      </trkpt>
      <trkpt lat="42.96736" lon="1.11079">
        <ele>485</ele>
        <time>2025-09-20T11:30:30.000Z</time>
      </trkpt>
      <trkpt lat="42.9674" lon="1.11084">
        <ele>486</ele>
        <time>2025-09-20T11:30:31.000Z</time>
      </trkpt>
      <trkpt lat="42.96743" lon="1.11089">
        <ele>487</ele>
        <time>2025-09-20T11:30:32.000Z</time>
      </trkpt>
      <trkpt lat="42.96747" lon="1.11094">
        <ele>487</ele>
        <time>2025-09-20T11:30:33.000Z</time>
      </trkpt>
      <trkpt lat="42.9675" lon="1.111">
        <ele>487</ele>
        <time>2025-09-20T11:30:34.000Z</time>
      </trkpt>
      <trkpt lat="42.96755" lon="1.11105">
        <ele>487</ele>
        <time>2025-09-20T11:30:35.000Z</time>
      </trkpt>
      <trkpt lat="42.96759" lon="1.11112">
        <ele>486</ele>
        <time>2025-09-20T11:30:36.000Z</time>
      </trkpt>
      <trkpt lat="42.96763" lon="1.11118">
        <ele>486</ele>
        <time>2025-09-20T11:30:37.000Z</time>
      </trkpt>
      <trkpt lat="42.96768" lon="1.11124">
        <ele>486</ele>
        <time>2025-09-20T11:30:38.000Z</time>
      </trkpt>
      <trkpt lat="42.96772" lon="1.11131">
        <ele>486</ele>
        <time>2025-09-20T11:30:39.000Z</time>
      </trkpt>
      <trkpt lat="42.96777" lon="1.11139">
        <ele>485</ele>
        <time>2025-09-20T11:30:40.000Z</time>
      </trkpt>
      <trkpt lat="42.96781" lon="1.11148">
        <ele>485</ele>
        <time>2025-09-20T11:30:41.000Z</time>
      </trkpt>
      <trkpt lat="42.96784" lon="1.11157">
        <ele>485</ele>
        <time>2025-09-20T11:30:42.000Z</time>
      </trkpt>
      <trkpt lat="42.96788" lon="1.11166">
        <ele>485</ele>
        <time>2025-09-20T11:30:43.000Z</time>
      </trkpt>
      <trkpt lat="42.96792" lon="1.11174">
        <ele>485</ele>
        <time>2025-09-20T11:30:44.000Z</time>
      </trkpt>
      <trkpt lat="42.96795" lon="1.11182">
        <ele>485</ele>
        <time>2025-09-20T11:30:45.000Z</time>
      </trkpt>
      <trkpt lat="42.96799" lon="1.1119">
        <ele>485</ele>
        <time>2025-09-20T11:30:46.000Z</time>
      </trkpt>
      <trkpt lat="42.96803" lon="1.11197">
        <ele>484</ele>
        <time>2025-09-20T11:30:47.000Z</time>
      </trkpt>
      <trkpt lat="42.96807" lon="1.11204">
        <ele>484</ele>
        <time>2025-09-20T11:30:48.000Z</time>
      </trkpt>
      <trkpt lat="42.96811" lon="1.1121">
        <ele>484</ele>
        <time>2025-09-20T11:30:49.000Z</time>
      </trkpt>
      <trkpt lat="42.96815" lon="1.11217">
        <ele>483</ele>
        <time>2025-09-20T11:30:50.000Z</time>
      </trkpt>
      <trkpt lat="42.96819" lon="1.11224">
        <ele>483</ele>
        <time>2025-09-20T11:30:51.000Z</time>
      </trkpt>
      <trkpt lat="42.96822" lon="1.11231">
        <ele>484</ele>
        <time>2025-09-20T11:30:52.000Z</time>
      </trkpt>
      <trkpt lat="42.96825" lon="1.11238">
        <ele>484</ele>
        <time>2025-09-20T11:30:53.000Z</time>
      </trkpt>
      <trkpt lat="42.96828" lon="1.11244">
        <ele>483</ele>
        <time>2025-09-20T11:30:54.000Z</time>
      </trkpt>
      <trkpt lat="42.96832" lon="1.11252">
        <ele>484</ele>
        <time>2025-09-20T11:30:55.000Z</time>
      </trkpt>
      <trkpt lat="42.96835" lon="1.11259">
        <ele>484</ele>
        <time>2025-09-20T11:30:56.000Z</time>
      </trkpt>
      <trkpt lat="42.96838" lon="1.11266">
        <ele>485</ele>
        <time>2025-09-20T11:30:57.000Z</time>
      </trkpt>
      <trkpt lat="42.96841" lon="1.11272">
        <ele>485</ele>
        <time>2025-09-20T11:30:58.000Z</time>
      </trkpt>
      <trkpt lat="42.96845" lon="1.11279">
        <ele>485</ele>
        <time>2025-09-20T11:30:59.000Z</time>
      </trkpt>
      <trkpt lat="42.96848" lon="1.11285">
        <ele>485</ele>
        <time>2025-09-20T11:31:00.000Z</time>
      </trkpt>
      <trkpt lat="42.96851" lon="1.11292">
        <ele>485</ele>
        <time>2025-09-20T11:31:01.000Z</time>
      </trkpt>
      <trkpt lat="42.96855" lon="1.11298">
        <ele>484</ele>
        <time>2025-09-20T11:31:02.000Z</time>
      </trkpt>
      <trkpt lat="42.96858" lon="1.11304">
        <ele>484</ele>
        <time>2025-09-20T11:31:03.000Z</time>
      </trkpt>
      <trkpt lat="42.96862" lon="1.11312">
        <ele>485</ele>
        <time>2025-09-20T11:31:04.000Z</time>
      </trkpt>
      <trkpt lat="42.96865" lon="1.11319">
        <ele>485</ele>
        <time>2025-09-20T11:31:05.000Z</time>
      </trkpt>
      <trkpt lat="42.96868" lon="1.11326">
        <ele>485</ele>
        <time>2025-09-20T11:31:06.000Z</time>
      </trkpt>
      <trkpt lat="42.96871" lon="1.11334">
        <ele>485</ele>
        <time>2025-09-20T11:31:07.000Z</time>
      </trkpt>
      <trkpt lat="42.96875" lon="1.11341">
        <ele>485</ele>
        <time>2025-09-20T11:31:08.000Z</time>
      </trkpt>
      <trkpt lat="42.96878" lon="1.11347">
        <ele>485</ele>
        <time>2025-09-20T11:31:09.000Z</time>
      </trkpt>
      <trkpt lat="42.9688" lon="1.11354">
        <ele>484</ele>
        <time>2025-09-20T11:31:10.000Z</time>
      </trkpt>
      <trkpt lat="42.96882" lon="1.11362">
        <ele>484</ele>
        <time>2025-09-20T11:31:11.000Z</time>
      </trkpt>
      <trkpt lat="42.96884" lon="1.11369">
        <ele>484</ele>
        <time>2025-09-20T11:31:12.000Z</time>
      </trkpt>
      <trkpt lat="42.96886" lon="1.11376">
        <ele>485</ele>
        <time>2025-09-20T11:31:13.000Z</time>
      </trkpt>
      <trkpt lat="42.96888" lon="1.11383">
        <ele>485</ele>
        <time>2025-09-20T11:31:14.000Z</time>
      </trkpt>
      <trkpt lat="42.9689" lon="1.1139">
        <ele>485</ele>
        <time>2025-09-20T11:31:15.000Z</time>
      </trkpt>
      <trkpt lat="42.96893" lon="1.11397">
        <ele>484</ele>
        <time>2025-09-20T11:31:16.000Z</time>
      </trkpt>
      <trkpt lat="42.96895" lon="1.11405">
        <ele>485</ele>
        <time>2025-09-20T11:31:17.000Z</time>
      </trkpt>
      <trkpt lat="42.96898" lon="1.11411">
        <ele>484</ele>
        <time>2025-09-20T11:31:18.000Z</time>
      </trkpt>
      <trkpt lat="42.969" lon="1.11416">
        <ele>484</ele>
        <time>2025-09-20T11:31:19.000Z</time>
      </trkpt>
      <trkpt lat="42.96901" lon="1.11422">
        <ele>484</ele>
        <time>2025-09-20T11:31:20.000Z</time>
      </trkpt>
      <trkpt lat="42.96902" lon="1.11429">
        <ele>484</ele>
        <time>2025-09-20T11:31:21.000Z</time>
      </trkpt>
      <trkpt lat="42.96904" lon="1.11436">
        <ele>483</ele>
        <time>2025-09-20T11:31:22.000Z</time>
      </trkpt>
      <trkpt lat="42.96906" lon="1.11443">
        <ele>483</ele>
        <time>2025-09-20T11:31:23.000Z</time>
      </trkpt>
      <trkpt lat="42.96908" lon="1.11449">
        <ele>483</ele>
        <time>2025-09-20T11:31:24.000Z</time>
      </trkpt>
      <trkpt lat="42.9691" lon="1.11457">
        <ele>483</ele>
        <time>2025-09-20T11:31:25.000Z</time>
      </trkpt>
      <trkpt lat="42.96913" lon="1.11464">
        <ele>484</ele>
        <time>2025-09-20T11:31:26.000Z</time>
      </trkpt>
      <trkpt lat="42.96916" lon="1.11472">
        <ele>485</ele>
        <time>2025-09-20T11:31:27.000Z</time>
      </trkpt>
      <trkpt lat="42.96919" lon="1.11478">
        <ele>486</ele>
        <time>2025-09-20T11:31:28.000Z</time>
      </trkpt>
      <trkpt lat="42.96921" lon="1.11486">
        <ele>486</ele>
        <time>2025-09-20T11:31:29.000Z</time>
      </trkpt>
      <trkpt lat="42.96923" lon="1.11493">
        <ele>486</ele>
        <time>2025-09-20T11:31:30.000Z</time>
      </trkpt>
      <trkpt lat="42.96924" lon="1.11501">
        <ele>486</ele>
        <time>2025-09-20T11:31:31.000Z</time>
      </trkpt>
      <trkpt lat="42.96924" lon="1.1151">
        <ele>486</ele>
        <time>2025-09-20T11:31:32.000Z</time>
      </trkpt>
      <trkpt lat="42.96923" lon="1.11518">
        <ele>486</ele>
        <time>2025-09-20T11:31:33.000Z</time>
      </trkpt>
      <trkpt lat="42.96923" lon="1.11525">
        <ele>486</ele>
        <time>2025-09-20T11:31:34.000Z</time>
      </trkpt>
      <trkpt lat="42.96924" lon="1.11534">
        <ele>486</ele>
        <time>2025-09-20T11:31:35.000Z</time>
      </trkpt>
      <trkpt lat="42.96925" lon="1.11541">
        <ele>486</ele>
        <time>2025-09-20T11:31:36.000Z</time>
      </trkpt>
      <trkpt lat="42.96926" lon="1.11548">
        <ele>486</ele>
        <time>2025-09-20T11:31:37.000Z</time>
      </trkpt>
      <trkpt lat="42.96928" lon="1.11555">
        <ele>486</ele>
        <time>2025-09-20T11:31:38.000Z</time>
      </trkpt>
      <trkpt lat="42.9693" lon="1.11563">
        <ele>486</ele>
        <time>2025-09-20T11:31:39.000Z</time>
      </trkpt>
      <trkpt lat="42.96932" lon="1.11571">
        <ele>486</ele>
        <time>2025-09-20T11:31:40.000Z</time>
      </trkpt>
      <trkpt lat="42.96934" lon="1.11578">
        <ele>486</ele>
        <time>2025-09-20T11:31:41.000Z</time>
      </trkpt>
      <trkpt lat="42.96936" lon="1.11585">
        <ele>486</ele>
        <time>2025-09-20T11:31:42.000Z</time>
      </trkpt>
      <trkpt lat="42.96937" lon="1.11593">
        <ele>486</ele>
        <time>2025-09-20T11:31:43.000Z</time>
      </trkpt>
      <trkpt lat="42.96939" lon="1.116">
        <ele>486</ele>
        <time>2025-09-20T11:31:44.000Z</time>
      </trkpt>
      <trkpt lat="42.9694" lon="1.11607">
        <ele>486</ele>
        <time>2025-09-20T11:31:45.000Z</time>
      </trkpt>
      <trkpt lat="42.96941" lon="1.11614">
        <ele>486</ele>
        <time>2025-09-20T11:31:46.000Z</time>
      </trkpt>
      <trkpt lat="42.96942" lon="1.11622">
        <ele>486</ele>
        <time>2025-09-20T11:31:47.000Z</time>
      </trkpt>
      <trkpt lat="42.96943" lon="1.11629">
        <ele>486</ele>
        <time>2025-09-20T11:31:48.000Z</time>
      </trkpt>
      <trkpt lat="42.96944" lon="1.11636">
        <ele>485</ele>
        <time>2025-09-20T11:31:49.000Z</time>
      </trkpt>
      <trkpt lat="42.96946" lon="1.11644">
        <ele>486</ele>
        <time>2025-09-20T11:31:50.000Z</time>
      </trkpt>
      <trkpt lat="42.96947" lon="1.11651">
        <ele>486</ele>
        <time>2025-09-20T11:31:51.000Z</time>
      </trkpt>
      <trkpt lat="42.96948" lon="1.11659">
        <ele>486</ele>
        <time>2025-09-20T11:31:52.000Z</time>
      </trkpt>
      <trkpt lat="42.9695" lon="1.11665">
        <ele>486</ele>
        <time>2025-09-20T11:31:53.000Z</time>
      </trkpt>
      <trkpt lat="42.96952" lon="1.11672">
        <ele>486</ele>
        <time>2025-09-20T11:31:54.000Z</time>
      </trkpt>
      <trkpt lat="42.96954" lon="1.11679">
        <ele>486</ele>
        <time>2025-09-20T11:31:55.000Z</time>
      </trkpt>
      <trkpt lat="42.96956" lon="1.11686">
        <ele>486</ele>
        <time>2025-09-20T11:31:56.000Z</time>
      </trkpt>
      <trkpt lat="42.96958" lon="1.11692">
        <ele>485</ele>
        <time>2025-09-20T11:31:57.000Z</time>
      </trkpt>
      <trkpt lat="42.96959" lon="1.11699">
        <ele>485</ele>
        <time>2025-09-20T11:31:58.000Z</time>
      </trkpt>
      <trkpt lat="42.9696" lon="1.11707">
        <ele>485</ele>
        <time>2025-09-20T11:31:59.000Z</time>
      </trkpt>
      <trkpt lat="42.96961" lon="1.11715">
        <ele>485</ele>
        <time>2025-09-20T11:32:00.000Z</time>
      </trkpt>
      <trkpt lat="42.96962" lon="1.11723">
        <ele>485</ele>
        <time>2025-09-20T11:32:01.000Z</time>
      </trkpt>
      <trkpt lat="42.96963" lon="1.11731">
        <ele>485</ele>
        <time>2025-09-20T11:32:02.000Z</time>
      </trkpt>
      <trkpt lat="42.96964" lon="1.11739">
        <ele>485</ele>
        <time>2025-09-20T11:32:03.000Z</time>
      </trkpt>
      <trkpt lat="42.96965" lon="1.11746">
        <ele>485</ele>
        <time>2025-09-20T11:32:04.000Z</time>
      </trkpt>
      <trkpt lat="42.96967" lon="1.11752">
        <ele>485</ele>
        <time>2025-09-20T11:32:05.000Z</time>
      </trkpt>
      <trkpt lat="42.96969" lon="1.11758">
        <ele>485</ele>
        <time>2025-09-20T11:32:06.000Z</time>
      </trkpt>
      <trkpt lat="42.9697" lon="1.11764">
        <ele>485</ele>
        <time>2025-09-20T11:32:07.000Z</time>
      </trkpt>
      <trkpt lat="42.96973" lon="1.11771">
        <ele>485</ele>
        <time>2025-09-20T11:32:08.000Z</time>
      </trkpt>
      <trkpt lat="42.96975" lon="1.11778">
        <ele>485</ele>
        <time>2025-09-20T11:32:09.000Z</time>
      </trkpt>
      <trkpt lat="42.96977" lon="1.11787">
        <ele>485</ele>
        <time>2025-09-20T11:32:10.000Z</time>
      </trkpt>
      <trkpt lat="42.96979" lon="1.11794">
        <ele>485</ele>
        <time>2025-09-20T11:32:11.000Z</time>
      </trkpt>
      <trkpt lat="42.96981" lon="1.118">
        <ele>485</ele>
        <time>2025-09-20T11:32:12.000Z</time>
      </trkpt>
      <trkpt lat="42.96983" lon="1.11807">
        <ele>486</ele>
        <time>2025-09-20T11:32:13.000Z</time>
      </trkpt>
      <trkpt lat="42.96985" lon="1.11814">
        <ele>486</ele>
        <time>2025-09-20T11:32:14.000Z</time>
      </trkpt>
      <trkpt lat="42.96987" lon="1.1182">
        <ele>486</ele>
        <time>2025-09-20T11:32:15.000Z</time>
      </trkpt>
      <trkpt lat="42.96988" lon="1.11827">
        <ele>486</ele>
        <time>2025-09-20T11:32:16.000Z</time>
      </trkpt>
      <trkpt lat="42.96989" lon="1.11834">
        <ele>486</ele>
        <time>2025-09-20T11:32:17.000Z</time>
      </trkpt>
      <trkpt lat="42.96991" lon="1.11842">
        <ele>486</ele>
        <time>2025-09-20T11:32:18.000Z</time>
      </trkpt>
      <trkpt lat="42.96993" lon="1.1185">
        <ele>486</ele>
        <time>2025-09-20T11:32:19.000Z</time>
      </trkpt>
      <trkpt lat="42.96995" lon="1.11857">
        <ele>486</ele>
        <time>2025-09-20T11:32:20.000Z</time>
      </trkpt>
      <trkpt lat="42.96997" lon="1.11865">
        <ele>485</ele>
        <time>2025-09-20T11:32:21.000Z</time>
      </trkpt>
      <trkpt lat="42.96999" lon="1.11873">
        <ele>485</ele>
        <time>2025-09-20T11:32:22.000Z</time>
      </trkpt>
      <trkpt lat="42.97001" lon="1.1188">
        <ele>485</ele>
        <time>2025-09-20T11:32:23.000Z</time>
      </trkpt>
      <trkpt lat="42.97002" lon="1.11887">
        <ele>485</ele>
        <time>2025-09-20T11:32:24.000Z</time>
      </trkpt>
      <trkpt lat="42.97003" lon="1.11894">
        <ele>485</ele>
        <time>2025-09-20T11:32:25.000Z</time>
      </trkpt>
      <trkpt lat="42.97005" lon="1.11901">
        <ele>486</ele>
        <time>2025-09-20T11:32:26.000Z</time>
      </trkpt>
      <trkpt lat="42.97008" lon="1.11909">
        <ele>485</ele>
        <time>2025-09-20T11:32:27.000Z</time>
      </trkpt>
      <trkpt lat="42.9701" lon="1.11917">
        <ele>485</ele>
        <time>2025-09-20T11:32:28.000Z</time>
      </trkpt>
      <trkpt lat="42.97012" lon="1.11924">
        <ele>484</ele>
        <time>2025-09-20T11:32:29.000Z</time>
      </trkpt>
      <trkpt lat="42.97013" lon="1.11928">
        <ele>484</ele>
        <time>2025-09-20T11:32:30.000Z</time>
      </trkpt>
      <trkpt lat="42.97014" lon="1.11931">
        <ele>485</ele>
        <time>2025-09-20T11:32:31.000Z</time>
      </trkpt>
      <trkpt lat="42.97015" lon="1.11934">
        <ele>485</ele>
        <time>2025-09-20T11:32:32.000Z</time>
      </trkpt>
      <trkpt lat="42.97016" lon="1.11938">
        <ele>486</ele>
        <time>2025-09-20T11:32:33.000Z</time>
      </trkpt>
      <trkpt lat="42.97017" lon="1.11941">
        <ele>485</ele>
        <time>2025-09-20T11:32:34.000Z</time>
      </trkpt>
      <trkpt lat="42.97018" lon="1.11946">
        <ele>486</ele>
        <time>2025-09-20T11:32:35.000Z</time>
      </trkpt>
      <trkpt lat="42.9702" lon="1.1195">
        <ele>486</ele>
        <time>2025-09-20T11:32:36.000Z</time>
      </trkpt>
      <trkpt lat="42.97021" lon="1.11957">
        <ele>486</ele>
        <time>2025-09-20T11:32:37.000Z</time>
      </trkpt>
      <trkpt lat="42.97023" lon="1.11962">
        <ele>486</ele>
        <time>2025-09-20T11:32:38.000Z</time>
      </trkpt>
      <trkpt lat="42.97024" lon="1.11967">
        <ele>486</ele>
        <time>2025-09-20T11:32:39.000Z</time>
      </trkpt>
      <trkpt lat="42.97025" lon="1.11973">
        <ele>486</ele>
        <time>2025-09-20T11:32:40.000Z</time>
      </trkpt>
      <trkpt lat="42.97026" lon="1.11979">
        <ele>485</ele>
        <time>2025-09-20T11:32:41.000Z</time>
      </trkpt>
      <trkpt lat="42.97027" lon="1.11985">
        <ele>485</ele>
        <time>2025-09-20T11:32:42.000Z</time>
      </trkpt>
      <trkpt lat="42.97028" lon="1.11991">
        <ele>485</ele>
        <time>2025-09-20T11:32:43.000Z</time>
      </trkpt>
      <trkpt lat="42.9703" lon="1.11997">
        <ele>485</ele>
        <time>2025-09-20T11:32:44.000Z</time>
      </trkpt>
      <trkpt lat="42.97032" lon="1.12005">
        <ele>485</ele>
        <time>2025-09-20T11:32:45.000Z</time>
      </trkpt>
      <trkpt lat="42.97034" lon="1.12012">
        <ele>485</ele>
        <time>2025-09-20T11:32:46.000Z</time>
      </trkpt>
      <trkpt lat="42.97036" lon="1.12019">
        <ele>485</ele>
        <time>2025-09-20T11:32:47.000Z</time>
      </trkpt>
      <trkpt lat="42.97038" lon="1.12027">
        <ele>486</ele>
        <time>2025-09-20T11:32:48.000Z</time>
      </trkpt>
      <trkpt lat="42.97039" lon="1.12035">
        <ele>486</ele>
        <time>2025-09-20T11:32:49.000Z</time>
      </trkpt>
      <trkpt lat="42.9704" lon="1.12043">
        <ele>486</ele>
        <time>2025-09-20T11:32:50.000Z</time>
      </trkpt>
      <trkpt lat="42.97042" lon="1.12051">
        <ele>486</ele>
        <time>2025-09-20T11:32:51.000Z</time>
      </trkpt>
      <trkpt lat="42.97045" lon="1.12057">
        <ele>487</ele>
        <time>2025-09-20T11:32:52.000Z</time>
      </trkpt>
      <trkpt lat="42.97049" lon="1.12065">
        <ele>487</ele>
        <time>2025-09-20T11:32:53.000Z</time>
      </trkpt>
      <trkpt lat="42.97052" lon="1.12071">
        <ele>488</ele>
        <time>2025-09-20T11:32:54.000Z</time>
      </trkpt>
      <trkpt lat="42.97056" lon="1.12077">
        <ele>488</ele>
        <time>2025-09-20T11:32:55.000Z</time>
      </trkpt>
      <trkpt lat="42.9706" lon="1.12083">
        <ele>488</ele>
        <time>2025-09-20T11:32:56.000Z</time>
      </trkpt>
      <trkpt lat="42.97063" lon="1.12088">
        <ele>487</ele>
        <time>2025-09-20T11:32:57.000Z</time>
      </trkpt>
      <trkpt lat="42.97067" lon="1.12092">
        <ele>487</ele>
        <time>2025-09-20T11:32:58.000Z</time>
      </trkpt>
      <trkpt lat="42.9707" lon="1.12098">
        <ele>486</ele>
        <time>2025-09-20T11:32:59.000Z</time>
      </trkpt>
      <trkpt lat="42.97074" lon="1.12104">
        <ele>485</ele>
        <time>2025-09-20T11:33:00.000Z</time>
      </trkpt>
      <trkpt lat="42.97077" lon="1.1211">
        <ele>485</ele>
        <time>2025-09-20T11:33:01.000Z</time>
      </trkpt>
      <trkpt lat="42.9708" lon="1.12115">
        <ele>485</ele>
        <time>2025-09-20T11:33:02.000Z</time>
      </trkpt>
      <trkpt lat="42.97083" lon="1.12121">
        <ele>485</ele>
        <time>2025-09-20T11:33:03.000Z</time>
      </trkpt>
      <trkpt lat="42.97087" lon="1.12126">
        <ele>484</ele>
        <time>2025-09-20T11:33:04.000Z</time>
      </trkpt>
      <trkpt lat="42.9709" lon="1.12132">
        <ele>484</ele>
        <time>2025-09-20T11:33:05.000Z</time>
      </trkpt>
      <trkpt lat="42.97094" lon="1.12138">
        <ele>484</ele>
        <time>2025-09-20T11:33:06.000Z</time>
      </trkpt>
      <trkpt lat="42.97098" lon="1.12145">
        <ele>483</ele>
        <time>2025-09-20T11:33:07.000Z</time>
      </trkpt>
      <trkpt lat="42.97102" lon="1.12151">
        <ele>483</ele>
        <time>2025-09-20T11:33:08.000Z</time>
      </trkpt>
      <trkpt lat="42.97105" lon="1.12157">
        <ele>484</ele>
        <time>2025-09-20T11:33:09.000Z</time>
      </trkpt>
      <trkpt lat="42.97109" lon="1.12162">
        <ele>484</ele>
        <time>2025-09-20T11:33:10.000Z</time>
      </trkpt>
      <trkpt lat="42.97113" lon="1.12168">
        <ele>484</ele>
        <time>2025-09-20T11:33:11.000Z</time>
      </trkpt>
      <trkpt lat="42.97116" lon="1.12173">
        <ele>484</ele>
        <time>2025-09-20T11:33:12.000Z</time>
      </trkpt>
      <trkpt lat="42.97119" lon="1.12178">
        <ele>485</ele>
        <time>2025-09-20T11:33:13.000Z</time>
      </trkpt>
      <trkpt lat="42.97123" lon="1.12183">
        <ele>484</ele>
        <time>2025-09-20T11:33:14.000Z</time>
      </trkpt>
      <trkpt lat="42.97126" lon="1.12188">
        <ele>485</ele>
        <time>2025-09-20T11:33:15.000Z</time>
      </trkpt>
      <trkpt lat="42.9713" lon="1.12193">
        <ele>485</ele>
        <time>2025-09-20T11:33:16.000Z</time>
      </trkpt>
      <trkpt lat="42.97133" lon="1.12199">
        <ele>485</ele>
        <time>2025-09-20T11:33:17.000Z</time>
      </trkpt>
      <trkpt lat="42.97138" lon="1.12205">
        <ele>485</ele>
        <time>2025-09-20T11:33:18.000Z</time>
      </trkpt>
      <trkpt lat="42.97142" lon="1.1221">
        <ele>484</ele>
        <time>2025-09-20T11:33:19.000Z</time>
      </trkpt>
      <trkpt lat="42.97148" lon="1.12215">
        <ele>484</ele>
        <time>2025-09-20T11:33:20.000Z</time>
      </trkpt>
      <trkpt lat="42.97153" lon="1.12219">
        <ele>484</ele>
        <time>2025-09-20T11:33:21.000Z</time>
      </trkpt>
      <trkpt lat="42.97157" lon="1.12224">
        <ele>484</ele>
        <time>2025-09-20T11:33:22.000Z</time>
      </trkpt>
      <trkpt lat="42.97162" lon="1.12228">
        <ele>484</ele>
        <time>2025-09-20T11:33:23.000Z</time>
      </trkpt>
      <trkpt lat="42.97167" lon="1.12231">
        <ele>484</ele>
        <time>2025-09-20T11:33:24.000Z</time>
      </trkpt>
      <trkpt lat="42.97171" lon="1.12235">
        <ele>483</ele>
        <time>2025-09-20T11:33:25.000Z</time>
      </trkpt>
      <trkpt lat="42.97176" lon="1.12239">
        <ele>483</ele>
        <time>2025-09-20T11:33:26.000Z</time>
      </trkpt>
      <trkpt lat="42.97181" lon="1.12243">
        <ele>483</ele>
        <time>2025-09-20T11:33:27.000Z</time>
      </trkpt>
      <trkpt lat="42.97185" lon="1.12247">
        <ele>483</ele>
        <time>2025-09-20T11:33:28.000Z</time>
      </trkpt>
      <trkpt lat="42.97189" lon="1.12251">
        <ele>482</ele>
        <time>2025-09-20T11:33:29.000Z</time>
      </trkpt>
      <trkpt lat="42.97194" lon="1.12255">
        <ele>482</ele>
        <time>2025-09-20T11:33:30.000Z</time>
      </trkpt>
      <trkpt lat="42.97199" lon="1.12258">
        <ele>482</ele>
        <time>2025-09-20T11:33:31.000Z</time>
      </trkpt>
      <trkpt lat="42.97204" lon="1.12262">
        <ele>482</ele>
        <time>2025-09-20T11:33:32.000Z</time>
      </trkpt>
      <trkpt lat="42.97209" lon="1.12266">
        <ele>483</ele>
        <time>2025-09-20T11:33:33.000Z</time>
      </trkpt>
      <trkpt lat="42.97214" lon="1.1227">
        <ele>483</ele>
        <time>2025-09-20T11:33:34.000Z</time>
      </trkpt>
      <trkpt lat="42.97219" lon="1.12273">
        <ele>482</ele>
        <time>2025-09-20T11:33:35.000Z</time>
      </trkpt>
      <trkpt lat="42.97225" lon="1.12276">
        <ele>482</ele>
        <time>2025-09-20T11:33:36.000Z</time>
      </trkpt>
      <trkpt lat="42.97229" lon="1.1228">
        <ele>482</ele>
        <time>2025-09-20T11:33:37.000Z</time>
      </trkpt>
      <trkpt lat="42.97234" lon="1.12283">
        <ele>482</ele>
        <time>2025-09-20T11:33:38.000Z</time>
      </trkpt>
      <trkpt lat="42.97239" lon="1.12286">
        <ele>481</ele>
        <time>2025-09-20T11:33:39.000Z</time>
      </trkpt>
      <trkpt lat="42.97243" lon="1.12289">
        <ele>482</ele>
        <time>2025-09-20T11:33:40.000Z</time>
      </trkpt>
      <trkpt lat="42.97248" lon="1.12292">
        <ele>482</ele>
        <time>2025-09-20T11:33:41.000Z</time>
      </trkpt>
      <trkpt lat="42.97253" lon="1.12294">
        <ele>481</ele>
        <time>2025-09-20T11:33:42.000Z</time>
      </trkpt>
      <trkpt lat="42.97258" lon="1.12297">
        <ele>481</ele>
        <time>2025-09-20T11:33:43.000Z</time>
      </trkpt>
      <trkpt lat="42.97263" lon="1.12301">
        <ele>481</ele>
        <time>2025-09-20T11:33:44.000Z</time>
      </trkpt>
      <trkpt lat="42.97268" lon="1.12305">
        <ele>482</ele>
        <time>2025-09-20T11:33:45.000Z</time>
      </trkpt>
      <trkpt lat="42.97273" lon="1.12307">
        <ele>482</ele>
        <time>2025-09-20T11:33:46.000Z</time>
      </trkpt>
      <trkpt lat="42.97277" lon="1.12311">
        <ele>483</ele>
        <time>2025-09-20T11:33:47.000Z</time>
      </trkpt>
      <trkpt lat="42.97281" lon="1.12315">
        <ele>483</ele>
        <time>2025-09-20T11:33:48.000Z</time>
      </trkpt>
      <trkpt lat="42.97286" lon="1.1232">
        <ele>482</ele>
        <time>2025-09-20T11:33:49.000Z</time>
      </trkpt>
      <trkpt lat="42.9729" lon="1.12323">
        <ele>482</ele>
        <time>2025-09-20T11:33:50.000Z</time>
      </trkpt>
      <trkpt lat="42.97295" lon="1.12326">
        <ele>482</ele>
        <time>2025-09-20T11:33:51.000Z</time>
      </trkpt>
      <trkpt lat="42.97299" lon="1.12329">
        <ele>482</ele>
        <time>2025-09-20T11:33:52.000Z</time>
      </trkpt>
      <trkpt lat="42.97304" lon="1.12334">
        <ele>482</ele>
        <time>2025-09-20T11:33:53.000Z</time>
      </trkpt>
      <trkpt lat="42.97307" lon="1.12338">
        <ele>482</ele>
        <time>2025-09-20T11:33:54.000Z</time>
      </trkpt>
      <trkpt lat="42.97312" lon="1.12342">
        <ele>482</ele>
        <time>2025-09-20T11:33:55.000Z</time>
      </trkpt>
      <trkpt lat="42.97316" lon="1.12346">
        <ele>482</ele>
        <time>2025-09-20T11:33:56.000Z</time>
      </trkpt>
      <trkpt lat="42.9732" lon="1.1235">
        <ele>482</ele>
        <time>2025-09-20T11:33:57.000Z</time>
      </trkpt>
      <trkpt lat="42.97324" lon="1.12354">
        <ele>482</ele>
        <time>2025-09-20T11:33:58.000Z</time>
      </trkpt>
      <trkpt lat="42.97328" lon="1.12357">
        <ele>482</ele>
        <time>2025-09-20T11:33:59.000Z</time>
      </trkpt>
      <trkpt lat="42.97332" lon="1.12362">
        <ele>482</ele>
        <time>2025-09-20T11:34:00.000Z</time>
      </trkpt>
      <trkpt lat="42.97336" lon="1.12367">
        <ele>482</ele>
        <time>2025-09-20T11:34:01.000Z</time>
      </trkpt>
      <trkpt lat="42.9734" lon="1.1237">
        <ele>482</ele>
        <time>2025-09-20T11:34:02.000Z</time>
      </trkpt>
      <trkpt lat="42.97344" lon="1.12374">
        <ele>483</ele>
        <time>2025-09-20T11:34:03.000Z</time>
      </trkpt>
      <trkpt lat="42.97348" lon="1.12378">
        <ele>483</ele>
        <time>2025-09-20T11:34:04.000Z</time>
      </trkpt>
      <trkpt lat="42.97352" lon="1.12383">
        <ele>483</ele>
        <time>2025-09-20T11:34:05.000Z</time>
      </trkpt>
      <trkpt lat="42.97356" lon="1.12387">
        <ele>483</ele>
        <time>2025-09-20T11:34:06.000Z</time>
      </trkpt>
      <trkpt lat="42.97361" lon="1.12392">
        <ele>484</ele>
        <time>2025-09-20T11:34:07.000Z</time>
      </trkpt>
      <trkpt lat="42.97365" lon="1.12396">
        <ele>484</ele>
        <time>2025-09-20T11:34:08.000Z</time>
      </trkpt>
      <trkpt lat="42.97368" lon="1.12401">
        <ele>485</ele>
        <time>2025-09-20T11:34:09.000Z</time>
      </trkpt>
      <trkpt lat="42.97372" lon="1.12406">
        <ele>485</ele>
        <time>2025-09-20T11:34:10.000Z</time>
      </trkpt>
      <trkpt lat="42.97377" lon="1.12411">
        <ele>485</ele>
        <time>2025-09-20T11:34:11.000Z</time>
      </trkpt>
      <trkpt lat="42.97381" lon="1.12416">
        <ele>485</ele>
        <time>2025-09-20T11:34:12.000Z</time>
      </trkpt>
      <trkpt lat="42.97386" lon="1.12421">
        <ele>485</ele>
        <time>2025-09-20T11:34:13.000Z</time>
      </trkpt>
      <trkpt lat="42.9739" lon="1.12426">
        <ele>485</ele>
        <time>2025-09-20T11:34:14.000Z</time>
      </trkpt>
      <trkpt lat="42.97394" lon="1.12431">
        <ele>485</ele>
        <time>2025-09-20T11:34:15.000Z</time>
      </trkpt>
      <trkpt lat="42.97398" lon="1.12436">
        <ele>485</ele>
        <time>2025-09-20T11:34:16.000Z</time>
      </trkpt>
      <trkpt lat="42.97402" lon="1.12441">
        <ele>485</ele>
        <time>2025-09-20T11:34:17.000Z</time>
      </trkpt>
      <trkpt lat="42.97407" lon="1.12445">
        <ele>485</ele>
        <time>2025-09-20T11:34:18.000Z</time>
      </trkpt>
      <trkpt lat="42.97411" lon="1.1245">
        <ele>485</ele>
        <time>2025-09-20T11:34:19.000Z</time>
      </trkpt>
      <trkpt lat="42.97415" lon="1.12455">
        <ele>484</ele>
        <time>2025-09-20T11:34:20.000Z</time>
      </trkpt>
      <trkpt lat="42.97419" lon="1.12459">
        <ele>484</ele>
        <time>2025-09-20T11:34:21.000Z</time>
      </trkpt>
      <trkpt lat="42.97422" lon="1.12465">
        <ele>484</ele>
        <time>2025-09-20T11:34:22.000Z</time>
      </trkpt>
      <trkpt lat="42.97426" lon="1.1247">
        <ele>484</ele>
        <time>2025-09-20T11:34:23.000Z</time>
      </trkpt>
      <trkpt lat="42.97429" lon="1.12475">
        <ele>484</ele>
        <time>2025-09-20T11:34:24.000Z</time>
      </trkpt>
      <trkpt lat="42.97432" lon="1.12481">
        <ele>484</ele>
        <time>2025-09-20T11:34:25.000Z</time>
      </trkpt>
      <trkpt lat="42.97436" lon="1.12486">
        <ele>483</ele>
        <time>2025-09-20T11:34:26.000Z</time>
      </trkpt>
      <trkpt lat="42.97439" lon="1.12491">
        <ele>483</ele>
        <time>2025-09-20T11:34:27.000Z</time>
      </trkpt>
      <trkpt lat="42.97443" lon="1.12495">
        <ele>483</ele>
        <time>2025-09-20T11:34:28.000Z</time>
      </trkpt>
      <trkpt lat="42.97448" lon="1.125">
        <ele>483</ele>
        <time>2025-09-20T11:34:29.000Z</time>
      </trkpt>
      <trkpt lat="42.97452" lon="1.12505">
        <ele>482</ele>
        <time>2025-09-20T11:34:30.000Z</time>
      </trkpt>
      <trkpt lat="42.97456" lon="1.12511">
        <ele>482</ele>
        <time>2025-09-20T11:34:31.000Z</time>
      </trkpt>
      <trkpt lat="42.97459" lon="1.12517">
        <ele>482</ele>
        <time>2025-09-20T11:34:32.000Z</time>
      </trkpt>
      <trkpt lat="42.97463" lon="1.12524">
        <ele>482</ele>
        <time>2025-09-20T11:34:33.000Z</time>
      </trkpt>
      <trkpt lat="42.97467" lon="1.1253">
        <ele>482</ele>
        <time>2025-09-20T11:34:34.000Z</time>
      </trkpt>
      <trkpt lat="42.97471" lon="1.12536">
        <ele>481</ele>
        <time>2025-09-20T11:34:35.000Z</time>
      </trkpt>
      <trkpt lat="42.97474" lon="1.12543">
        <ele>481</ele>
        <time>2025-09-20T11:34:36.000Z</time>
      </trkpt>
      <trkpt lat="42.97478" lon="1.1255">
        <ele>481</ele>
        <time>2025-09-20T11:34:37.000Z</time>
      </trkpt>
      <trkpt lat="42.97481" lon="1.12556">
        <ele>481</ele>
        <time>2025-09-20T11:34:38.000Z</time>
      </trkpt>
      <trkpt lat="42.97484" lon="1.12562">
        <ele>481</ele>
        <time>2025-09-20T11:34:39.000Z</time>
      </trkpt>
      <trkpt lat="42.97486" lon="1.1257">
        <ele>481</ele>
        <time>2025-09-20T11:34:40.000Z</time>
      </trkpt>
      <trkpt lat="42.97489" lon="1.12577">
        <ele>481</ele>
        <time>2025-09-20T11:34:41.000Z</time>
      </trkpt>
      <trkpt lat="42.97492" lon="1.12583">
        <ele>481</ele>
        <time>2025-09-20T11:34:42.000Z</time>
      </trkpt>
      <trkpt lat="42.97495" lon="1.12589">
        <ele>481</ele>
        <time>2025-09-20T11:34:43.000Z</time>
      </trkpt>
      <trkpt lat="42.97498" lon="1.12594">
        <ele>481</ele>
        <time>2025-09-20T11:34:44.000Z</time>
      </trkpt>
      <trkpt lat="42.97502" lon="1.126">
        <ele>481</ele>
        <time>2025-09-20T11:34:45.000Z</time>
      </trkpt>
      <trkpt lat="42.97506" lon="1.12605">
        <ele>481</ele>
        <time>2025-09-20T11:34:46.000Z</time>
      </trkpt>
      <trkpt lat="42.9751" lon="1.12609">
        <ele>481</ele>
        <time>2025-09-20T11:34:47.000Z</time>
      </trkpt>
      <trkpt lat="42.97515" lon="1.12615">
        <ele>481</ele>
        <time>2025-09-20T11:34:48.000Z</time>
      </trkpt>
      <trkpt lat="42.97519" lon="1.1262">
        <ele>482</ele>
        <time>2025-09-20T11:34:49.000Z</time>
      </trkpt>
      <trkpt lat="42.97523" lon="1.12626">
        <ele>482</ele>
        <time>2025-09-20T11:34:50.000Z</time>
      </trkpt>
      <trkpt lat="42.97528" lon="1.12633">
        <ele>482</ele>
        <time>2025-09-20T11:34:51.000Z</time>
      </trkpt>
      <trkpt lat="42.97532" lon="1.12639">
        <ele>482</ele>
        <time>2025-09-20T11:34:52.000Z</time>
      </trkpt>
      <trkpt lat="42.97535" lon="1.12645">
        <ele>482</ele>
        <time>2025-09-20T11:34:53.000Z</time>
      </trkpt>
      <trkpt lat="42.97539" lon="1.12651">
        <ele>482</ele>
        <time>2025-09-20T11:34:54.000Z</time>
      </trkpt>
      <trkpt lat="42.97543" lon="1.12656">
        <ele>482</ele>
        <time>2025-09-20T11:34:55.000Z</time>
      </trkpt>
      <trkpt lat="42.97545" lon="1.12661">
        <ele>483</ele>
        <time>2025-09-20T11:34:56.000Z</time>
      </trkpt>
      <trkpt lat="42.97548" lon="1.12664">
        <ele>483</ele>
        <time>2025-09-20T11:34:57.000Z</time>
      </trkpt>
      <trkpt lat="42.9755" lon="1.12668">
        <ele>483</ele>
        <time>2025-09-20T11:34:58.000Z</time>
      </trkpt>
      <trkpt lat="42.97552" lon="1.12671">
        <ele>482</ele>
        <time>2025-09-20T11:34:59.000Z</time>
      </trkpt>
      <trkpt lat="42.97555" lon="1.12675">
        <ele>481</ele>
        <time>2025-09-20T11:35:00.000Z</time>
      </trkpt>
      <trkpt lat="42.97559" lon="1.12679">
        <ele>480</ele>
        <time>2025-09-20T11:35:01.000Z</time>
      </trkpt>
      <trkpt lat="42.97565" lon="1.12684">
        <ele>480</ele>
        <time>2025-09-20T11:35:02.000Z</time>
      </trkpt>
      <trkpt lat="42.97572" lon="1.12689">
        <ele>478</ele>
        <time>2025-09-20T11:35:03.000Z</time>
      </trkpt>
      <trkpt lat="42.9758" lon="1.12695">
        <ele>477</ele>
        <time>2025-09-20T11:35:04.000Z</time>
      </trkpt>
      <trkpt lat="42.97588" lon="1.12699">
        <ele>476</ele>
        <time>2025-09-20T11:35:05.000Z</time>
      </trkpt>
      <trkpt lat="42.97598" lon="1.12703">
        <ele>475</ele>
        <time>2025-09-20T11:35:06.000Z</time>
      </trkpt>
      <trkpt lat="42.97609" lon="1.12707">
        <ele>473</ele>
        <time>2025-09-20T11:35:07.000Z</time>
      </trkpt>
      <trkpt lat="42.97621" lon="1.1271">
        <ele>472</ele>
        <time>2025-09-20T11:35:08.000Z</time>
      </trkpt>
      <trkpt lat="42.97634" lon="1.12714">
        <ele>471</ele>
        <time>2025-09-20T11:35:09.000Z</time>
      </trkpt>
      <trkpt lat="42.97646" lon="1.12719">
        <ele>469</ele>
        <time>2025-09-20T11:35:10.000Z</time>
      </trkpt>
      <trkpt lat="42.97657" lon="1.12725">
        <ele>468</ele>
        <time>2025-09-20T11:35:11.000Z</time>
      </trkpt>
      <trkpt lat="42.97667" lon="1.12732">
        <ele>468</ele>
        <time>2025-09-20T11:35:12.000Z</time>
      </trkpt>
      <trkpt lat="42.97676" lon="1.12742">
        <ele>468</ele>
        <time>2025-09-20T11:35:13.000Z</time>
      </trkpt>
      <trkpt lat="42.97683" lon="1.12754">
        <ele>468</ele>
        <time>2025-09-20T11:35:14.000Z</time>
      </trkpt>
      <trkpt lat="42.9769" lon="1.12765">
        <ele>468</ele>
        <time>2025-09-20T11:35:15.000Z</time>
      </trkpt>
      <trkpt lat="42.97697" lon="1.12773">
        <ele>467</ele>
        <time>2025-09-20T11:35:16.000Z</time>
      </trkpt>
      <trkpt lat="42.97705" lon="1.12779">
        <ele>466</ele>
        <time>2025-09-20T11:35:17.000Z</time>
      </trkpt>
      <trkpt lat="42.97713" lon="1.12787">
        <ele>465</ele>
        <time>2025-09-20T11:35:18.000Z</time>
      </trkpt>
      <trkpt lat="42.97721" lon="1.12796">
        <ele>464</ele>
        <time>2025-09-20T11:35:19.000Z</time>
      </trkpt>
      <trkpt lat="42.97729" lon="1.12803">
        <ele>463</ele>
        <time>2025-09-20T11:35:20.000Z</time>
      </trkpt>
      <trkpt lat="42.97738" lon="1.12809">
        <ele>461</ele>
        <time>2025-09-20T11:35:21.000Z</time>
      </trkpt>
      <trkpt lat="42.97746" lon="1.12816">
        <ele>458</ele>
        <time>2025-09-20T11:35:22.000Z</time>
      </trkpt>
      <trkpt lat="42.97754" lon="1.12824">
        <ele>455</ele>
        <time>2025-09-20T11:35:23.000Z</time>
      </trkpt>
      <trkpt lat="42.97762" lon="1.12834">
        <ele>454</ele>
        <time>2025-09-20T11:35:24.000Z</time>
      </trkpt>
      <trkpt lat="42.97769" lon="1.12846">
        <ele>454</ele>
        <time>2025-09-20T11:35:25.000Z</time>
      </trkpt>
      <trkpt lat="42.97776" lon="1.1286">
        <ele>454</ele>
        <time>2025-09-20T11:35:26.000Z</time>
      </trkpt>
      <trkpt lat="42.97782" lon="1.12872">
        <ele>454</ele>
        <time>2025-09-20T11:35:27.000Z</time>
      </trkpt>
      <trkpt lat="42.97788" lon="1.12884">
        <ele>453</ele>
        <time>2025-09-20T11:35:28.000Z</time>
      </trkpt>
      <trkpt lat="42.97793" lon="1.12896">
        <ele>453</ele>
        <time>2025-09-20T11:35:29.000Z</time>
      </trkpt>
      <trkpt lat="42.97797" lon="1.12908">
        <ele>453</ele>
        <time>2025-09-20T11:35:30.000Z</time>
      </trkpt>
      <trkpt lat="42.97802" lon="1.12919">
        <ele>452</ele>
        <time>2025-09-20T11:35:31.000Z</time>
      </trkpt>
      <trkpt lat="42.97806" lon="1.12929">
        <ele>452</ele>
        <time>2025-09-20T11:35:32.000Z</time>
      </trkpt>
      <trkpt lat="42.97811" lon="1.12937">
        <ele>452</ele>
        <time>2025-09-20T11:35:33.000Z</time>
      </trkpt>
      <trkpt lat="42.97816" lon="1.12943">
        <ele>453</ele>
        <time>2025-09-20T11:35:34.000Z</time>
      </trkpt>
      <trkpt lat="42.97821" lon="1.12949">
        <ele>453</ele>
        <time>2025-09-20T11:35:35.000Z</time>
      </trkpt>
      <trkpt lat="42.97825" lon="1.12956">
        <ele>453</ele>
        <time>2025-09-20T11:35:36.000Z</time>
      </trkpt>
      <trkpt lat="42.97829" lon="1.12963">
        <ele>454</ele>
        <time>2025-09-20T11:35:37.000Z</time>
      </trkpt>
      <trkpt lat="42.97834" lon="1.12969">
        <ele>454</ele>
        <time>2025-09-20T11:35:38.000Z</time>
      </trkpt>
      <trkpt lat="42.97838" lon="1.12975">
        <ele>454</ele>
        <time>2025-09-20T11:35:39.000Z</time>
      </trkpt>
      <trkpt lat="42.97843" lon="1.12979">
        <ele>454</ele>
        <time>2025-09-20T11:35:40.000Z</time>
      </trkpt>
      <trkpt lat="42.97847" lon="1.12985">
        <ele>454</ele>
        <time>2025-09-20T11:35:41.000Z</time>
      </trkpt>
      <trkpt lat="42.97851" lon="1.12991">
        <ele>454</ele>
        <time>2025-09-20T11:35:42.000Z</time>
      </trkpt>
      <trkpt lat="42.97856" lon="1.12996">
        <ele>454</ele>
        <time>2025-09-20T11:35:43.000Z</time>
      </trkpt>
      <trkpt lat="42.9786" lon="1.13002">
        <ele>455</ele>
        <time>2025-09-20T11:35:44.000Z</time>
      </trkpt>
      <trkpt lat="42.97864" lon="1.13009">
        <ele>454</ele>
        <time>2025-09-20T11:35:45.000Z</time>
      </trkpt>
      <trkpt lat="42.97868" lon="1.13015">
        <ele>454</ele>
        <time>2025-09-20T11:35:46.000Z</time>
      </trkpt>
      <trkpt lat="42.97871" lon="1.13021">
        <ele>454</ele>
        <time>2025-09-20T11:35:47.000Z</time>
      </trkpt>
      <trkpt lat="42.97875" lon="1.13027">
        <ele>454</ele>
        <time>2025-09-20T11:35:48.000Z</time>
      </trkpt>
      <trkpt lat="42.97878" lon="1.13034">
        <ele>454</ele>
        <time>2025-09-20T11:35:49.000Z</time>
      </trkpt>
      <trkpt lat="42.9788" lon="1.13041">
        <ele>454</ele>
        <time>2025-09-20T11:35:50.000Z</time>
      </trkpt>
      <trkpt lat="42.97884" lon="1.13047">
        <ele>454</ele>
        <time>2025-09-20T11:35:51.000Z</time>
      </trkpt>
      <trkpt lat="42.97888" lon="1.13052">
        <ele>455</ele>
        <time>2025-09-20T11:35:52.000Z</time>
      </trkpt>
      <trkpt lat="42.97891" lon="1.13058">
        <ele>455</ele>
        <time>2025-09-20T11:35:53.000Z</time>
      </trkpt>
      <trkpt lat="42.97895" lon="1.13063">
        <ele>455</ele>
        <time>2025-09-20T11:35:54.000Z</time>
      </trkpt>
      <trkpt lat="42.97899" lon="1.13069">
        <ele>455</ele>
        <time>2025-09-20T11:35:55.000Z</time>
      </trkpt>
      <trkpt lat="42.97903" lon="1.13075">
        <ele>456</ele>
        <time>2025-09-20T11:35:56.000Z</time>
      </trkpt>
      <trkpt lat="42.97906" lon="1.13081">
        <ele>456</ele>
        <time>2025-09-20T11:35:57.000Z</time>
      </trkpt>
      <trkpt lat="42.9791" lon="1.13088">
        <ele>455</ele>
        <time>2025-09-20T11:35:58.000Z</time>
      </trkpt>
      <trkpt lat="42.97915" lon="1.13094">
        <ele>455</ele>
        <time>2025-09-20T11:35:59.000Z</time>
      </trkpt>
      <trkpt lat="42.97919" lon="1.131">
        <ele>455</ele>
        <time>2025-09-20T11:36:00.000Z</time>
      </trkpt>
      <trkpt lat="42.97925" lon="1.13105">
        <ele>455</ele>
        <time>2025-09-20T11:36:01.000Z</time>
      </trkpt>
      <trkpt lat="42.97929" lon="1.13111">
        <ele>454</ele>
        <time>2025-09-20T11:36:02.000Z</time>
      </trkpt>
      <trkpt lat="42.97933" lon="1.13116">
        <ele>454</ele>
        <time>2025-09-20T11:36:03.000Z</time>
      </trkpt>
      <trkpt lat="42.97938" lon="1.13123">
        <ele>454</ele>
        <time>2025-09-20T11:36:04.000Z</time>
      </trkpt>
      <trkpt lat="42.97943" lon="1.13129">
        <ele>455</ele>
        <time>2025-09-20T11:36:05.000Z</time>
      </trkpt>
      <trkpt lat="42.97948" lon="1.13136">
        <ele>455</ele>
        <time>2025-09-20T11:36:06.000Z</time>
      </trkpt>
      <trkpt lat="42.97952" lon="1.13143">
        <ele>456</ele>
        <time>2025-09-20T11:36:07.000Z</time>
      </trkpt>
      <trkpt lat="42.97955" lon="1.13149">
        <ele>456</ele>
        <time>2025-09-20T11:36:08.000Z</time>
      </trkpt>
      <trkpt lat="42.97958" lon="1.13155">
        <ele>456</ele>
        <time>2025-09-20T11:36:09.000Z</time>
      </trkpt>
      <trkpt lat="42.97961" lon="1.13161">
        <ele>456</ele>
        <time>2025-09-20T11:36:10.000Z</time>
      </trkpt>
      <trkpt lat="42.97965" lon="1.13166">
        <ele>456</ele>
        <time>2025-09-20T11:36:11.000Z</time>
      </trkpt>
      <trkpt lat="42.97968" lon="1.13171">
        <ele>456</ele>
        <time>2025-09-20T11:36:12.000Z</time>
      </trkpt>
      <trkpt lat="42.97972" lon="1.13176">
        <ele>456</ele>
        <time>2025-09-20T11:36:13.000Z</time>
      </trkpt>
      <trkpt lat="42.97975" lon="1.13182">
        <ele>456</ele>
        <time>2025-09-20T11:36:14.000Z</time>
      </trkpt>
      <trkpt lat="42.97979" lon="1.13187">
        <ele>455</ele>
        <time>2025-09-20T11:36:15.000Z</time>
      </trkpt>
      <trkpt lat="42.97983" lon="1.13193">
        <ele>455</ele>
        <time>2025-09-20T11:36:16.000Z</time>
      </trkpt>
      <trkpt lat="42.97987" lon="1.13198">
        <ele>455</ele>
        <time>2025-09-20T11:36:17.000Z</time>
      </trkpt>
      <trkpt lat="42.97991" lon="1.13203">
        <ele>455</ele>
        <time>2025-09-20T11:36:18.000Z</time>
      </trkpt>
      <trkpt lat="42.97995" lon="1.13209">
        <ele>455</ele>
        <time>2025-09-20T11:36:19.000Z</time>
      </trkpt>
      <trkpt lat="42.97998" lon="1.13215">
        <ele>455</ele>
        <time>2025-09-20T11:36:20.000Z</time>
      </trkpt>
      <trkpt lat="42.98002" lon="1.1322">
        <ele>455</ele>
        <time>2025-09-20T11:36:21.000Z</time>
      </trkpt>
      <trkpt lat="42.98005" lon="1.13226">
        <ele>455</ele>
        <time>2025-09-20T11:36:22.000Z</time>
      </trkpt>
      <trkpt lat="42.98008" lon="1.13231">
        <ele>455</ele>
        <time>2025-09-20T11:36:23.000Z</time>
      </trkpt>
      <trkpt lat="42.98012" lon="1.13236">
        <ele>456</ele>
        <time>2025-09-20T11:36:24.000Z</time>
      </trkpt>
      <trkpt lat="42.98015" lon="1.1324">
        <ele>455</ele>
        <time>2025-09-20T11:36:25.000Z</time>
      </trkpt>
      <trkpt lat="42.98019" lon="1.13245">
        <ele>456</ele>
        <time>2025-09-20T11:36:26.000Z</time>
      </trkpt>
      <trkpt lat="42.98022" lon="1.1325">
        <ele>455</ele>
        <time>2025-09-20T11:36:27.000Z</time>
      </trkpt>
      <trkpt lat="42.98026" lon="1.13255">
        <ele>455</ele>
        <time>2025-09-20T11:36:28.000Z</time>
      </trkpt>
      <trkpt lat="42.98029" lon="1.13259">
        <ele>455</ele>
        <time>2025-09-20T11:36:29.000Z</time>
      </trkpt>
      <trkpt lat="42.98033" lon="1.13264">
        <ele>456</ele>
        <time>2025-09-20T11:36:30.000Z</time>
      </trkpt>
      <trkpt lat="42.98037" lon="1.13269">
        <ele>456</ele>
        <time>2025-09-20T11:36:31.000Z</time>
      </trkpt>
      <trkpt lat="42.98041" lon="1.13273">
        <ele>456</ele>
        <time>2025-09-20T11:36:32.000Z</time>
      </trkpt>
      <trkpt lat="42.98045" lon="1.13276">
        <ele>456</ele>
        <time>2025-09-20T11:36:33.000Z</time>
      </trkpt>
      <trkpt lat="42.98049" lon="1.13281">
        <ele>455</ele>
        <time>2025-09-20T11:36:34.000Z</time>
      </trkpt>
      <trkpt lat="42.98053" lon="1.13286">
        <ele>455</ele>
        <time>2025-09-20T11:36:35.000Z</time>
      </trkpt>
      <trkpt lat="42.98058" lon="1.1329">
        <ele>455</ele>
        <time>2025-09-20T11:36:36.000Z</time>
      </trkpt>
      <trkpt lat="42.98063" lon="1.13295">
        <ele>455</ele>
        <time>2025-09-20T11:36:37.000Z</time>
      </trkpt>
      <trkpt lat="42.98068" lon="1.13299">
        <ele>455</ele>
        <time>2025-09-20T11:36:38.000Z</time>
      </trkpt>
      <trkpt lat="42.98073" lon="1.13303">
        <ele>454</ele>
        <time>2025-09-20T11:36:39.000Z</time>
      </trkpt>
      <trkpt lat="42.98078" lon="1.13307">
        <ele>454</ele>
        <time>2025-09-20T11:36:40.000Z</time>
      </trkpt>
      <trkpt lat="42.98084" lon="1.13311">
        <ele>453</ele>
        <time>2025-09-20T11:36:41.000Z</time>
      </trkpt>
      <trkpt lat="42.9809" lon="1.13314">
        <ele>453</ele>
        <time>2025-09-20T11:36:42.000Z</time>
      </trkpt>
      <trkpt lat="42.98097" lon="1.13318">
        <ele>452</ele>
        <time>2025-09-20T11:36:43.000Z</time>
      </trkpt>
      <trkpt lat="42.98103" lon="1.13321">
        <ele>452</ele>
        <time>2025-09-20T11:36:44.000Z</time>
      </trkpt>
      <trkpt lat="42.98109" lon="1.13325">
        <ele>452</ele>
        <time>2025-09-20T11:36:45.000Z</time>
      </trkpt>
      <trkpt lat="42.98115" lon="1.1333">
        <ele>452</ele>
        <time>2025-09-20T11:36:46.000Z</time>
      </trkpt>
      <trkpt lat="42.98121" lon="1.13334">
        <ele>451</ele>
        <time>2025-09-20T11:36:47.000Z</time>
      </trkpt>
      <trkpt lat="42.98127" lon="1.13338">
        <ele>451</ele>
        <time>2025-09-20T11:36:48.000Z</time>
      </trkpt>
      <trkpt lat="42.98133" lon="1.13342">
        <ele>451</ele>
        <time>2025-09-20T11:36:49.000Z</time>
      </trkpt>
      <trkpt lat="42.9814" lon="1.13346">
        <ele>451</ele>
        <time>2025-09-20T11:36:50.000Z</time>
      </trkpt>
      <trkpt lat="42.98146" lon="1.13349">
        <ele>451</ele>
        <time>2025-09-20T11:36:51.000Z</time>
      </trkpt>
      <trkpt lat="42.98152" lon="1.13353">
        <ele>451</ele>
        <time>2025-09-20T11:36:52.000Z</time>
      </trkpt>
      <trkpt lat="42.98157" lon="1.13357">
        <ele>451</ele>
        <time>2025-09-20T11:36:53.000Z</time>
      </trkpt>
      <trkpt lat="42.98163" lon="1.13362">
        <ele>451</ele>
        <time>2025-09-20T11:36:54.000Z</time>
      </trkpt>
      <trkpt lat="42.98169" lon="1.13366">
        <ele>451</ele>
        <time>2025-09-20T11:36:55.000Z</time>
      </trkpt>
      <trkpt lat="42.98175" lon="1.1337">
        <ele>451</ele>
        <time>2025-09-20T11:36:56.000Z</time>
      </trkpt>
      <trkpt lat="42.9818" lon="1.13374">
        <ele>451</ele>
        <time>2025-09-20T11:36:57.000Z</time>
      </trkpt>
      <trkpt lat="42.98186" lon="1.13378">
        <ele>450</ele>
        <time>2025-09-20T11:36:58.000Z</time>
      </trkpt>
      <trkpt lat="42.98191" lon="1.13382">
        <ele>450</ele>
        <time>2025-09-20T11:36:59.000Z</time>
      </trkpt>
      <trkpt lat="42.98196" lon="1.13385">
        <ele>450</ele>
        <time>2025-09-20T11:37:00.000Z</time>
      </trkpt>
      <trkpt lat="42.98201" lon="1.13389">
        <ele>450</ele>
        <time>2025-09-20T11:37:01.000Z</time>
      </trkpt>
      <trkpt lat="42.98206" lon="1.13394">
        <ele>450</ele>
        <time>2025-09-20T11:37:02.000Z</time>
      </trkpt>
      <trkpt lat="42.98211" lon="1.13398">
        <ele>450</ele>
        <time>2025-09-20T11:37:03.000Z</time>
      </trkpt>
      <trkpt lat="42.98216" lon="1.13404">
        <ele>450</ele>
        <time>2025-09-20T11:37:04.000Z</time>
      </trkpt>
      <trkpt lat="42.98219" lon="1.1341">
        <ele>451</ele>
        <time>2025-09-20T11:37:05.000Z</time>
      </trkpt>
      <trkpt lat="42.98223" lon="1.13416">
        <ele>451</ele>
        <time>2025-09-20T11:37:06.000Z</time>
      </trkpt>
      <trkpt lat="42.98227" lon="1.13422">
        <ele>451</ele>
        <time>2025-09-20T11:37:07.000Z</time>
      </trkpt>
      <trkpt lat="42.98231" lon="1.13428">
        <ele>451</ele>
        <time>2025-09-20T11:37:08.000Z</time>
      </trkpt>
      <trkpt lat="42.98234" lon="1.13434">
        <ele>450</ele>
        <time>2025-09-20T11:37:09.000Z</time>
      </trkpt>
      <trkpt lat="42.98238" lon="1.1344">
        <ele>451</ele>
        <time>2025-09-20T11:37:10.000Z</time>
      </trkpt>
      <trkpt lat="42.98242" lon="1.13445">
        <ele>450</ele>
        <time>2025-09-20T11:37:11.000Z</time>
      </trkpt>
      <trkpt lat="42.98246" lon="1.1345">
        <ele>450</ele>
        <time>2025-09-20T11:37:12.000Z</time>
      </trkpt>
      <trkpt lat="42.9825" lon="1.13454">
        <ele>450</ele>
        <time>2025-09-20T11:37:13.000Z</time>
      </trkpt>
      <trkpt lat="42.98254" lon="1.1346">
        <ele>450</ele>
        <time>2025-09-20T11:37:14.000Z</time>
      </trkpt>
      <trkpt lat="42.98258" lon="1.13465">
        <ele>450</ele>
        <time>2025-09-20T11:37:15.000Z</time>
      </trkpt>
      <trkpt lat="42.98262" lon="1.1347">
        <ele>450</ele>
        <time>2025-09-20T11:37:16.000Z</time>
      </trkpt>
      <trkpt lat="42.98266" lon="1.13475">
        <ele>450</ele>
        <time>2025-09-20T11:37:17.000Z</time>
      </trkpt>
      <trkpt lat="42.9827" lon="1.1348">
        <ele>450</ele>
        <time>2025-09-20T11:37:18.000Z</time>
      </trkpt>
      <trkpt lat="42.98275" lon="1.13485">
        <ele>450</ele>
        <time>2025-09-20T11:37:19.000Z</time>
      </trkpt>
      <trkpt lat="42.98279" lon="1.1349">
        <ele>450</ele>
        <time>2025-09-20T11:37:20.000Z</time>
      </trkpt>
      <trkpt lat="42.98284" lon="1.13496">
        <ele>449</ele>
        <time>2025-09-20T11:37:21.000Z</time>
      </trkpt>
      <trkpt lat="42.98288" lon="1.13502">
        <ele>449</ele>
        <time>2025-09-20T11:37:22.000Z</time>
      </trkpt>
      <trkpt lat="42.98292" lon="1.13508">
        <ele>449</ele>
        <time>2025-09-20T11:37:23.000Z</time>
      </trkpt>
      <trkpt lat="42.98296" lon="1.13515">
        <ele>449</ele>
        <time>2025-09-20T11:37:24.000Z</time>
      </trkpt>
      <trkpt lat="42.983" lon="1.13522">
        <ele>449</ele>
        <time>2025-09-20T11:37:25.000Z</time>
      </trkpt>
      <trkpt lat="42.98303" lon="1.13529">
        <ele>449</ele>
        <time>2025-09-20T11:37:26.000Z</time>
      </trkpt>
      <trkpt lat="42.98307" lon="1.13536">
        <ele>448</ele>
        <time>2025-09-20T11:37:27.000Z</time>
      </trkpt>
      <trkpt lat="42.98311" lon="1.13543">
        <ele>447</ele>
        <time>2025-09-20T11:37:28.000Z</time>
      </trkpt>
      <trkpt lat="42.98314" lon="1.1355">
        <ele>447</ele>
        <time>2025-09-20T11:37:29.000Z</time>
      </trkpt>
      <trkpt lat="42.98318" lon="1.13557">
        <ele>448</ele>
        <time>2025-09-20T11:37:30.000Z</time>
      </trkpt>
      <trkpt lat="42.98321" lon="1.13565">
        <ele>448</ele>
        <time>2025-09-20T11:37:31.000Z</time>
      </trkpt>
      <trkpt lat="42.98324" lon="1.13573">
        <ele>448</ele>
        <time>2025-09-20T11:37:32.000Z</time>
      </trkpt>
      <trkpt lat="42.98327" lon="1.13581">
        <ele>448</ele>
        <time>2025-09-20T11:37:33.000Z</time>
      </trkpt>
      <trkpt lat="42.98329" lon="1.13589">
        <ele>447</ele>
        <time>2025-09-20T11:37:34.000Z</time>
      </trkpt>
      <trkpt lat="42.98332" lon="1.13598">
        <ele>447</ele>
        <time>2025-09-20T11:37:35.000Z</time>
      </trkpt>
      <trkpt lat="42.98334" lon="1.13607">
        <ele>447</ele>
        <time>2025-09-20T11:37:36.000Z</time>
      </trkpt>
      <trkpt lat="42.98337" lon="1.13614">
        <ele>447</ele>
        <time>2025-09-20T11:37:37.000Z</time>
      </trkpt>
      <trkpt lat="42.9834" lon="1.13622">
        <ele>447</ele>
        <time>2025-09-20T11:37:38.000Z</time>
      </trkpt>
      <trkpt lat="42.98343" lon="1.1363">
        <ele>447</ele>
        <time>2025-09-20T11:37:39.000Z</time>
      </trkpt>
      <trkpt lat="42.98347" lon="1.13637">
        <ele>447</ele>
        <time>2025-09-20T11:37:40.000Z</time>
      </trkpt>
      <trkpt lat="42.9835" lon="1.13645">
        <ele>447</ele>
        <time>2025-09-20T11:37:41.000Z</time>
      </trkpt>
      <trkpt lat="42.98353" lon="1.13652">
        <ele>447</ele>
        <time>2025-09-20T11:37:42.000Z</time>
      </trkpt>
      <trkpt lat="42.98356" lon="1.13661">
        <ele>447</ele>
        <time>2025-09-20T11:37:43.000Z</time>
      </trkpt>
      <trkpt lat="42.98359" lon="1.13669">
        <ele>447</ele>
        <time>2025-09-20T11:37:44.000Z</time>
      </trkpt>
      <trkpt lat="42.98362" lon="1.13676">
        <ele>447</ele>
        <time>2025-09-20T11:37:45.000Z</time>
      </trkpt>
      <trkpt lat="42.98365" lon="1.13684">
        <ele>447</ele>
        <time>2025-09-20T11:37:46.000Z</time>
      </trkpt>
      <trkpt lat="42.98368" lon="1.13691">
        <ele>447</ele>
        <time>2025-09-20T11:37:47.000Z</time>
      </trkpt>
      <trkpt lat="42.98371" lon="1.13698">
        <ele>447</ele>
        <time>2025-09-20T11:37:48.000Z</time>
      </trkpt>
      <trkpt lat="42.98374" lon="1.13706">
        <ele>448</ele>
        <time>2025-09-20T11:37:49.000Z</time>
      </trkpt>
      <trkpt lat="42.98377" lon="1.13713">
        <ele>448</ele>
        <time>2025-09-20T11:37:50.000Z</time>
      </trkpt>
      <trkpt lat="42.98381" lon="1.13721">
        <ele>447</ele>
        <time>2025-09-20T11:37:51.000Z</time>
      </trkpt>
      <trkpt lat="42.98384" lon="1.13728">
        <ele>448</ele>
        <time>2025-09-20T11:37:52.000Z</time>
      </trkpt>
      <trkpt lat="42.98387" lon="1.13736">
        <ele>448</ele>
        <time>2025-09-20T11:37:53.000Z</time>
      </trkpt>
      <trkpt lat="42.98389" lon="1.13744">
        <ele>447</ele>
        <time>2025-09-20T11:37:54.000Z</time>
      </trkpt>
      <trkpt lat="42.9839" lon="1.13752">
        <ele>447</ele>
        <time>2025-09-20T11:37:55.000Z</time>
      </trkpt>
      <trkpt lat="42.98392" lon="1.1376">
        <ele>448</ele>
        <time>2025-09-20T11:37:56.000Z</time>
      </trkpt>
      <trkpt lat="42.98393" lon="1.13768">
        <ele>448</ele>
        <time>2025-09-20T11:37:57.000Z</time>
      </trkpt>
      <trkpt lat="42.98393" lon="1.13776">
        <ele>448</ele>
        <time>2025-09-20T11:37:58.000Z</time>
      </trkpt>
      <trkpt lat="42.98394" lon="1.13784">
        <ele>448</ele>
        <time>2025-09-20T11:37:59.000Z</time>
      </trkpt>
      <trkpt lat="42.98394" lon="1.13791">
        <ele>448</ele>
        <time>2025-09-20T11:38:00.000Z</time>
      </trkpt>
      <trkpt lat="42.98395" lon="1.13799">
        <ele>448</ele>
        <time>2025-09-20T11:38:01.000Z</time>
      </trkpt>
      <trkpt lat="42.98395" lon="1.13806">
        <ele>448</ele>
        <time>2025-09-20T11:38:02.000Z</time>
      </trkpt>
      <trkpt lat="42.98396" lon="1.13813">
        <ele>448</ele>
        <time>2025-09-20T11:38:03.000Z</time>
      </trkpt>
      <trkpt lat="42.98397" lon="1.1382">
        <ele>447</ele>
        <time>2025-09-20T11:38:04.000Z</time>
      </trkpt>
      <trkpt lat="42.98399" lon="1.13826">
        <ele>447</ele>
        <time>2025-09-20T11:38:05.000Z</time>
      </trkpt>
      <trkpt lat="42.98401" lon="1.13832">
        <ele>447</ele>
        <time>2025-09-20T11:38:06.000Z</time>
      </trkpt>
      <trkpt lat="42.98403" lon="1.13838">
        <ele>447</ele>
        <time>2025-09-20T11:38:07.000Z</time>
      </trkpt>
      <trkpt lat="42.98405" lon="1.13844">
        <ele>447</ele>
        <time>2025-09-20T11:38:08.000Z</time>
      </trkpt>
      <trkpt lat="42.98407" lon="1.13849">
        <ele>447</ele>
        <time>2025-09-20T11:38:09.000Z</time>
      </trkpt>
      <trkpt lat="42.98409" lon="1.13854">
        <ele>446</ele>
        <time>2025-09-20T11:38:10.000Z</time>
      </trkpt>
      <trkpt lat="42.98412" lon="1.13859">
        <ele>447</ele>
        <time>2025-09-20T11:38:11.000Z</time>
      </trkpt>
      <trkpt lat="42.98413" lon="1.13863">
        <ele>447</ele>
        <time>2025-09-20T11:38:12.000Z</time>
      </trkpt>
      <trkpt lat="42.98414" lon="1.13867">
        <ele>447</ele>
        <time>2025-09-20T11:38:13.000Z</time>
      </trkpt>
      <trkpt lat="42.98415" lon="1.13869">
        <ele>447</ele>
        <time>2025-09-20T11:38:14.000Z</time>
      </trkpt>
      <trkpt lat="42.98416" lon="1.13871">
        <ele>447</ele>
        <time>2025-09-20T11:38:15.000Z</time>
      </trkpt>
      <trkpt lat="42.98417" lon="1.13874">
        <ele>447</ele>
        <time>2025-09-20T11:38:16.000Z</time>
      </trkpt>
      <trkpt lat="42.98418" lon="1.13876">
        <ele>447</ele>
        <time>2025-09-20T11:38:17.000Z</time>
      </trkpt>
      <trkpt lat="42.9842" lon="1.13875">
        <ele>446</ele>
        <time>2025-09-20T11:38:18.000Z</time>
      </trkpt>
      <trkpt lat="42.9842" lon="1.13873">
        <ele>445</ele>
        <time>2025-09-20T11:38:19.000Z</time>
      </trkpt>
      <trkpt lat="42.98419" lon="1.13869">
        <ele>445</ele>
        <time>2025-09-20T11:38:20.000Z</time>
      </trkpt>
      <trkpt lat="42.98417" lon="1.13865">
        <ele>445</ele>
        <time>2025-09-20T11:38:21.000Z</time>
      </trkpt>
      <trkpt lat="42.98414" lon="1.13862">
        <ele>444</ele>
        <time>2025-09-20T11:38:22.000Z</time>
      </trkpt>
      <trkpt lat="42.98412" lon="1.13859">
        <ele>444</ele>
        <time>2025-09-20T11:38:23.000Z</time>
      </trkpt>
      <trkpt lat="42.98411" lon="1.13855">
        <ele>444</ele>
        <time>2025-09-20T11:38:24.000Z</time>
      </trkpt>
      <trkpt lat="42.9841" lon="1.13851">
        <ele>444</ele>
        <time>2025-09-20T11:38:25.000Z</time>
      </trkpt>
      <trkpt lat="42.98409" lon="1.13847">
        <ele>445</ele>
        <time>2025-09-20T11:38:26.000Z</time>
      </trkpt>
      <trkpt lat="42.98408" lon="1.13842">
        <ele>445</ele>
        <time>2025-09-20T11:38:27.000Z</time>
      </trkpt>
      <trkpt lat="42.98406" lon="1.13838">
        <ele>445</ele>
        <time>2025-09-20T11:38:28.000Z</time>
      </trkpt>
      <trkpt lat="42.98405" lon="1.13835">
        <ele>445</ele>
        <time>2025-09-20T11:38:29.000Z</time>
      </trkpt>
      <trkpt lat="42.98403" lon="1.13831">
        <ele>445</ele>
        <time>2025-09-20T11:38:30.000Z</time>
      </trkpt>
      <trkpt lat="42.98402" lon="1.13827">
        <ele>445</ele>
        <time>2025-09-20T11:38:31.000Z</time>
      </trkpt>
      <trkpt lat="42.98401" lon="1.13824">
        <ele>445</ele>
        <time>2025-09-20T11:38:32.000Z</time>
      </trkpt>
      <trkpt lat="42.98401" lon="1.1382">
        <ele>445</ele>
        <time>2025-09-20T11:38:33.000Z</time>
      </trkpt>
      <trkpt lat="42.984" lon="1.13817">
        <ele>445</ele>
        <time>2025-09-20T11:38:34.000Z</time>
      </trkpt>
      <trkpt lat="42.98399" lon="1.13813">
        <ele>445</ele>
        <time>2025-09-20T11:38:35.000Z</time>
      </trkpt>
      <trkpt lat="42.98398" lon="1.1381">
        <ele>445</ele>
        <time>2025-09-20T11:38:36.000Z</time>
      </trkpt>
      <trkpt lat="42.98396" lon="1.13808">
        <ele>445</ele>
        <time>2025-09-20T11:38:37.000Z</time>
      </trkpt>
      <trkpt lat="42.98394" lon="1.13807">
        <ele>445</ele>
        <time>2025-09-20T11:38:38.000Z</time>
      </trkpt>
      <trkpt lat="42.98392" lon="1.13807">
        <ele>445</ele>
        <time>2025-09-20T11:38:39.000Z</time>
      </trkpt>
      <trkpt lat="42.9839" lon="1.13808">
        <ele>445</ele>
        <time>2025-09-20T11:38:40.000Z</time>
      </trkpt>
      <trkpt lat="42.98388" lon="1.13808">
        <ele>445</ele>
        <time>2025-09-20T11:38:41.000Z</time>
      </trkpt>
      <trkpt lat="42.98386" lon="1.13809">
        <ele>445</ele>
        <time>2025-09-20T11:38:42.000Z</time>
      </trkpt>
      <trkpt lat="42.98385" lon="1.1381">
        <ele>445</ele>
        <time>2025-09-20T11:38:43.000Z</time>
      </trkpt>
      <trkpt lat="42.98384" lon="1.1381">
        <ele>444</ele>
        <time>2025-09-20T11:38:44.000Z</time>
      </trkpt>
      <trkpt lat="42.98383" lon="1.13809">
        <ele>444</ele>
        <time>2025-09-20T11:38:45.000Z</time>
      </trkpt>
      <trkpt lat="42.98383" lon="1.13808">
        <ele>444</ele>
        <time>2025-09-20T11:38:46.000Z</time>
      </trkpt>
      <trkpt lat="42.98383" lon="1.13809">
        <ele>444</ele>
        <time>2025-09-20T11:38:47.000Z</time>
      </trkpt>
      <trkpt lat="42.98383" lon="1.1381">
        <ele>445</ele>
        <time>2025-09-20T11:38:48.000Z</time>
      </trkpt>
      <trkpt lat="42.98383" lon="1.13811">
        <ele>445</ele>
        <time>2025-09-20T11:38:49.000Z</time>
      </trkpt>
    </trkseg>
  </trk>
</gpx>